<?xml version="1.0" encoding="UTF-8" standalone="no" ?>
<gpx xmlns="http://www.topografix.com/GPX/1/1" xmlns:xsi="http://www.w3.org/2001/XMLSchema-instance" xsi:schemaLocation="http://www.topografix.com/GPX/1/1 http://www.topografix.com/GPX/1/1/gpx.xsd" version="1.1" creator="VisuGPX - https://www.visugpx.com">
  <metadata>
    <name>Roquefort-sur-Garonne VTT</name>
    <desc><![CDATA[Parcours VTT en départ de Roquefort sur Garonne.]]></desc>
  </metadata>
  <trk>
    <name><![CDATA[Roquefort-sur-Garonne VTT]]></name>
    <desc><![CDATA[







]]></desc>
    <extensions>
      <line xmlns="http://www.topografix.com/GPX/gpx_style/0/2">
        <color>0000FF</color>
        <width>4</width>
          <extensions>
            <sens>1</sens>
          </extensions>
      </line>
    </extensions>
    <trkseg>
      <trkpt lat="43.16454" lon="0.97366">
        <ele>273</ele>
        <time>2024-09-15T09:54:14Z</time>
      </trkpt>
      <trkpt lat="43.16474" lon="0.97351">
        <ele>273</ele>
        <time>2024-09-15T09:54:20Z</time>
      </trkpt>
      <trkpt lat="43.16495" lon="0.97337">
        <ele>273</ele>
        <time>2024-09-15T09:54:25Z</time>
      </trkpt>
      <trkpt lat="43.16524" lon="0.97319">
        <ele>273</ele>
        <time>2024-09-15T09:54:31Z</time>
      </trkpt>
      <trkpt lat="43.16529" lon="0.97318">
        <ele>273</ele>
        <time>2024-09-15T09:54:32Z</time>
      </trkpt>
      <trkpt lat="43.16549" lon="0.97315">
        <ele>273</ele>
        <time>2024-09-15T09:54:36Z</time>
      </trkpt>
      <trkpt lat="43.16554" lon="0.97315">
        <ele>273</ele>
        <time>2024-09-15T09:54:37Z</time>
      </trkpt>
      <trkpt lat="43.16577" lon="0.97316">
        <ele>273</ele>
        <time>2024-09-15T09:54:42Z</time>
      </trkpt>
      <trkpt lat="43.16614" lon="0.97318">
        <ele>273</ele>
        <time>2024-09-15T09:54:49Z</time>
      </trkpt>
      <trkpt lat="43.16634" lon="0.97321">
        <ele>273</ele>
        <time>2024-09-15T09:54:53Z</time>
      </trkpt>
      <trkpt lat="43.16638" lon="0.97322">
        <ele>273.6</ele>
        <time>2024-09-15T09:54:54Z</time>
      </trkpt>
      <trkpt lat="43.16642" lon="0.97323">
        <ele>274</ele>
        <time>2024-09-15T09:54:55Z</time>
      </trkpt>
      <trkpt lat="43.16646" lon="0.97325">
        <ele>274.4</ele>
        <time>2024-09-15T09:54:56Z</time>
      </trkpt>
      <trkpt lat="43.1665" lon="0.97326">
        <ele>274.8</ele>
        <time>2024-09-15T09:54:57Z</time>
      </trkpt>
      <trkpt lat="43.16654" lon="0.97329">
        <ele>275.4</ele>
        <time>2024-09-15T09:54:58Z</time>
      </trkpt>
      <trkpt lat="43.16673" lon="0.97335">
        <ele>275.4</ele>
        <time>2024-09-15T09:55:02Z</time>
      </trkpt>
      <trkpt lat="43.1669" lon="0.97346">
        <ele>275.4</ele>
        <time>2024-09-15T09:55:06Z</time>
      </trkpt>
      <trkpt lat="43.16698" lon="0.97353">
        <ele>275.4</ele>
        <time>2024-09-15T09:55:08Z</time>
      </trkpt>
      <trkpt lat="43.16714" lon="0.97373">
        <ele>275.8</ele>
        <time>2024-09-15T09:55:12Z</time>
      </trkpt>
      <trkpt lat="43.16718" lon="0.97378">
        <ele>276.2</ele>
        <time>2024-09-15T09:55:13Z</time>
      </trkpt>
      <trkpt lat="43.16722" lon="0.97383">
        <ele>276.6</ele>
        <time>2024-09-15T09:55:14Z</time>
      </trkpt>
      <trkpt lat="43.16725" lon="0.97388">
        <ele>277</ele>
        <time>2024-09-15T09:55:15Z</time>
      </trkpt>
      <trkpt lat="43.16728" lon="0.97393">
        <ele>277.4</ele>
        <time>2024-09-15T09:55:16Z</time>
      </trkpt>
      <trkpt lat="43.16741" lon="0.97413">
        <ele>277.4</ele>
        <time>2024-09-15T09:55:20Z</time>
      </trkpt>
      <trkpt lat="43.16765" lon="0.97451">
        <ele>277.4</ele>
        <time>2024-09-15T09:55:28Z</time>
      </trkpt>
      <trkpt lat="43.16768" lon="0.97454">
        <ele>277.8</ele>
        <time>2024-09-15T09:55:29Z</time>
      </trkpt>
      <trkpt lat="43.1677" lon="0.97458">
        <ele>278.2</ele>
        <time>2024-09-15T09:55:30Z</time>
      </trkpt>
      <trkpt lat="43.16773" lon="0.97461">
        <ele>278.8</ele>
        <time>2024-09-15T09:55:31Z</time>
      </trkpt>
      <trkpt lat="43.16775" lon="0.97465">
        <ele>279.6</ele>
        <time>2024-09-15T09:55:32Z</time>
      </trkpt>
      <trkpt lat="43.16779" lon="0.97473">
        <ele>279.6</ele>
        <time>2024-09-15T09:55:35Z</time>
      </trkpt>
      <trkpt lat="43.16781" lon="0.97476">
        <ele>279.6</ele>
        <time>2024-09-15T09:55:39Z</time>
      </trkpt>
      <trkpt lat="43.16782" lon="0.97476">
        <ele>279.6</ele>
        <time>2024-09-15T09:56:03Z</time>
      </trkpt>
      <trkpt lat="43.16788" lon="0.97485">
        <ele>279.6</ele>
        <time>2024-09-15T09:56:06Z</time>
      </trkpt>
      <trkpt lat="43.1679" lon="0.97489">
        <ele>279.6</ele>
        <time>2024-09-15T09:56:07Z</time>
      </trkpt>
      <trkpt lat="43.16804" lon="0.97508">
        <ele>279.6</ele>
        <time>2024-09-15T09:56:11Z</time>
      </trkpt>
      <trkpt lat="43.16829" lon="0.97545">
        <ele>279.6</ele>
        <time>2024-09-15T09:56:17Z</time>
      </trkpt>
      <trkpt lat="43.16851" lon="0.97581">
        <ele>279.6</ele>
        <time>2024-09-15T09:56:23Z</time>
      </trkpt>
      <trkpt lat="43.16876" lon="0.9762">
        <ele>279.6</ele>
        <time>2024-09-15T09:56:30Z</time>
      </trkpt>
      <trkpt lat="43.16909" lon="0.97675">
        <ele>279.6</ele>
        <time>2024-09-15T09:56:39Z</time>
      </trkpt>
      <trkpt lat="43.16918" lon="0.97693">
        <ele>279.2</ele>
        <time>2024-09-15T09:56:42Z</time>
      </trkpt>
      <trkpt lat="43.16921" lon="0.977">
        <ele>278.6</ele>
        <time>2024-09-15T09:56:43Z</time>
      </trkpt>
      <trkpt lat="43.16924" lon="0.97706">
        <ele>278.2</ele>
        <time>2024-09-15T09:56:44Z</time>
      </trkpt>
      <trkpt lat="43.16926" lon="0.97711">
        <ele>277.8</ele>
        <time>2024-09-15T09:56:45Z</time>
      </trkpt>
      <trkpt lat="43.16929" lon="0.97717">
        <ele>277.4</ele>
        <time>2024-09-15T09:56:46Z</time>
      </trkpt>
      <trkpt lat="43.16933" lon="0.97729">
        <ele>277.4</ele>
        <time>2024-09-15T09:56:48Z</time>
      </trkpt>
      <trkpt lat="43.16939" lon="0.97746">
        <ele>277.4</ele>
        <time>2024-09-15T09:56:51Z</time>
      </trkpt>
      <trkpt lat="43.16945" lon="0.97761">
        <ele>277.8</ele>
        <time>2024-09-15T09:56:54Z</time>
      </trkpt>
      <trkpt lat="43.16946" lon="0.97766">
        <ele>278.2</ele>
        <time>2024-09-15T09:56:55Z</time>
      </trkpt>
      <trkpt lat="43.16948" lon="0.97771">
        <ele>278.6</ele>
        <time>2024-09-15T09:56:56Z</time>
      </trkpt>
      <trkpt lat="43.1695" lon="0.97775">
        <ele>279</ele>
        <time>2024-09-15T09:56:57Z</time>
      </trkpt>
      <trkpt lat="43.16951" lon="0.9778">
        <ele>279.4</ele>
        <time>2024-09-15T09:56:58Z</time>
      </trkpt>
      <trkpt lat="43.16957" lon="0.97794">
        <ele>279.4</ele>
        <time>2024-09-15T09:57:03Z</time>
      </trkpt>
      <trkpt lat="43.16966" lon="0.9781">
        <ele>279.4</ele>
        <time>2024-09-15T09:57:08Z</time>
      </trkpt>
      <trkpt lat="43.16972" lon="0.97815">
        <ele>279.8</ele>
        <time>2024-09-15T09:57:10Z</time>
      </trkpt>
      <trkpt lat="43.16975" lon="0.97819">
        <ele>280.8</ele>
        <time>2024-09-15T09:57:11Z</time>
      </trkpt>
      <trkpt lat="43.16978" lon="0.97822">
        <ele>281.2</ele>
        <time>2024-09-15T09:57:12Z</time>
      </trkpt>
      <trkpt lat="43.16981" lon="0.97825">
        <ele>281.6</ele>
        <time>2024-09-15T09:57:13Z</time>
      </trkpt>
      <trkpt lat="43.16988" lon="0.97831">
        <ele>281.6</ele>
        <time>2024-09-15T09:57:15Z</time>
      </trkpt>
      <trkpt lat="43.16999" lon="0.97844">
        <ele>282</ele>
        <time>2024-09-15T09:57:19Z</time>
      </trkpt>
      <trkpt lat="43.17002" lon="0.97847">
        <ele>282.4</ele>
        <time>2024-09-15T09:57:20Z</time>
      </trkpt>
      <trkpt lat="43.17006" lon="0.9785">
        <ele>282.8</ele>
        <time>2024-09-15T09:57:21Z</time>
      </trkpt>
      <trkpt lat="43.17009" lon="0.97853">
        <ele>283.2</ele>
        <time>2024-09-15T09:57:22Z</time>
      </trkpt>
      <trkpt lat="43.17013" lon="0.97856">
        <ele>283.6</ele>
        <time>2024-09-15T09:57:23Z</time>
      </trkpt>
      <trkpt lat="43.17026" lon="0.97872">
        <ele>283.6</ele>
        <time>2024-09-15T09:57:28Z</time>
      </trkpt>
      <trkpt lat="43.1704" lon="0.97887">
        <ele>284</ele>
        <time>2024-09-15T09:57:32Z</time>
      </trkpt>
      <trkpt lat="43.17044" lon="0.9789">
        <ele>284.4</ele>
        <time>2024-09-15T09:57:33Z</time>
      </trkpt>
      <trkpt lat="43.17048" lon="0.97894">
        <ele>284.8</ele>
        <time>2024-09-15T09:57:34Z</time>
      </trkpt>
      <trkpt lat="43.17051" lon="0.97899">
        <ele>285.2</ele>
        <time>2024-09-15T09:57:35Z</time>
      </trkpt>
      <trkpt lat="43.17054" lon="0.97903">
        <ele>285.8</ele>
        <time>2024-09-15T09:57:36Z</time>
      </trkpt>
      <trkpt lat="43.1707" lon="0.97922">
        <ele>285.8</ele>
        <time>2024-09-15T09:57:41Z</time>
      </trkpt>
      <trkpt lat="43.17088" lon="0.97941">
        <ele>285.8</ele>
        <time>2024-09-15T09:57:46Z</time>
      </trkpt>
      <trkpt lat="43.17108" lon="0.97963">
        <ele>285.8</ele>
        <time>2024-09-15T09:57:51Z</time>
      </trkpt>
      <trkpt lat="43.17134" lon="0.97994">
        <ele>285.8</ele>
        <time>2024-09-15T09:57:58Z</time>
      </trkpt>
      <trkpt lat="43.17139" lon="0.98005">
        <ele>286.2</ele>
        <time>2024-09-15T09:58:00Z</time>
      </trkpt>
      <trkpt lat="43.17141" lon="0.98009">
        <ele>287</ele>
        <time>2024-09-15T09:58:01Z</time>
      </trkpt>
      <trkpt lat="43.17143" lon="0.98014">
        <ele>287.4</ele>
        <time>2024-09-15T09:58:02Z</time>
      </trkpt>
      <trkpt lat="43.17144" lon="0.98017">
        <ele>287.8</ele>
        <time>2024-09-15T09:58:03Z</time>
      </trkpt>
      <trkpt lat="43.17145" lon="0.98019">
        <ele>287.8</ele>
        <time>2024-09-15T09:58:04Z</time>
      </trkpt>
      <trkpt lat="43.17145" lon="0.98022">
        <ele>287.8</ele>
        <time>2024-09-15T09:58:05Z</time>
      </trkpt>
      <trkpt lat="43.17146" lon="0.98023">
        <ele>288.2</ele>
        <time>2024-09-15T09:58:06Z</time>
      </trkpt>
      <trkpt lat="43.17146" lon="0.98024">
        <ele>288.6</ele>
        <time>2024-09-15T09:58:07Z</time>
      </trkpt>
      <trkpt lat="43.17147" lon="0.98029">
        <ele>289.8</ele>
        <time>2024-09-15T09:58:25Z</time>
      </trkpt>
      <trkpt lat="43.17136" lon="0.98017">
        <ele>289.8</ele>
        <time>2024-09-15T09:58:29Z</time>
      </trkpt>
      <trkpt lat="43.17124" lon="0.9801">
        <ele>290.4</ele>
        <time>2024-09-15T09:58:33Z</time>
      </trkpt>
      <trkpt lat="43.17121" lon="0.9801">
        <ele>290.8</ele>
        <time>2024-09-15T09:58:34Z</time>
      </trkpt>
      <trkpt lat="43.17118" lon="0.9801">
        <ele>291.2</ele>
        <time>2024-09-15T09:58:35Z</time>
      </trkpt>
      <trkpt lat="43.17116" lon="0.98011">
        <ele>291.8</ele>
        <time>2024-09-15T09:58:36Z</time>
      </trkpt>
      <trkpt lat="43.17114" lon="0.98013">
        <ele>292.2</ele>
        <time>2024-09-15T09:58:37Z</time>
      </trkpt>
      <trkpt lat="43.17113" lon="0.98014">
        <ele>292.8</ele>
        <time>2024-09-15T09:58:38Z</time>
      </trkpt>
      <trkpt lat="43.17111" lon="0.98017">
        <ele>293.4</ele>
        <time>2024-09-15T09:58:39Z</time>
      </trkpt>
      <trkpt lat="43.17111" lon="0.98019">
        <ele>293.8</ele>
        <time>2024-09-15T09:58:40Z</time>
      </trkpt>
      <trkpt lat="43.17112" lon="0.98021">
        <ele>294.4</ele>
        <time>2024-09-15T09:58:41Z</time>
      </trkpt>
      <trkpt lat="43.17114" lon="0.98025">
        <ele>294.8</ele>
        <time>2024-09-15T09:58:43Z</time>
      </trkpt>
      <trkpt lat="43.17113" lon="0.98026">
        <ele>295.2</ele>
        <time>2024-09-15T09:58:44Z</time>
      </trkpt>
      <trkpt lat="43.17112" lon="0.98025">
        <ele>295.6</ele>
        <time>2024-09-15T09:58:45Z</time>
      </trkpt>
      <trkpt lat="43.17111" lon="0.98022">
        <ele>296</ele>
        <time>2024-09-15T09:58:46Z</time>
      </trkpt>
      <trkpt lat="43.17111" lon="0.98019">
        <ele>296.4</ele>
        <time>2024-09-15T09:58:47Z</time>
      </trkpt>
      <trkpt lat="43.17111" lon="0.98013">
        <ele>296.4</ele>
        <time>2024-09-15T09:58:48Z</time>
      </trkpt>
      <trkpt lat="43.17114" lon="0.9801">
        <ele>296.4</ele>
        <time>2024-09-15T09:58:49Z</time>
      </trkpt>
      <trkpt lat="43.17122" lon="0.9801">
        <ele>295.8</ele>
        <time>2024-09-15T09:58:51Z</time>
      </trkpt>
      <trkpt lat="43.17127" lon="0.98012">
        <ele>295.2</ele>
        <time>2024-09-15T09:58:52Z</time>
      </trkpt>
      <trkpt lat="43.17131" lon="0.98017">
        <ele>294.6</ele>
        <time>2024-09-15T09:58:53Z</time>
      </trkpt>
      <trkpt lat="43.17134" lon="0.98021">
        <ele>294</ele>
        <time>2024-09-15T09:58:54Z</time>
      </trkpt>
      <trkpt lat="43.17138" lon="0.98024">
        <ele>293.4</ele>
        <time>2024-09-15T09:58:55Z</time>
      </trkpt>
      <trkpt lat="43.17141" lon="0.98026">
        <ele>292.6</ele>
        <time>2024-09-15T09:58:56Z</time>
      </trkpt>
      <trkpt lat="43.17142" lon="0.98025">
        <ele>292</ele>
        <time>2024-09-15T09:58:57Z</time>
      </trkpt>
      <trkpt lat="43.17141" lon="0.98025">
        <ele>291.2</ele>
        <time>2024-09-15T09:58:58Z</time>
      </trkpt>
      <trkpt lat="43.17145" lon="0.9803">
        <ele>291.2</ele>
        <time>2024-09-15T09:59:04Z</time>
      </trkpt>
      <trkpt lat="43.17151" lon="0.98043">
        <ele>291.2</ele>
        <time>2024-09-15T09:59:09Z</time>
      </trkpt>
      <trkpt lat="43.17151" lon="0.98047">
        <ele>291.2</ele>
        <time>2024-09-15T09:59:10Z</time>
      </trkpt>
      <trkpt lat="43.1716" lon="0.98078">
        <ele>291.2</ele>
        <time>2024-09-15T09:59:18Z</time>
      </trkpt>
      <trkpt lat="43.17162" lon="0.98105">
        <ele>291.2</ele>
        <time>2024-09-15T09:59:23Z</time>
      </trkpt>
      <trkpt lat="43.1716" lon="0.98117">
        <ele>291.2</ele>
        <time>2024-09-15T09:59:25Z</time>
      </trkpt>
      <trkpt lat="43.17154" lon="0.98132">
        <ele>291.2</ele>
        <time>2024-09-15T09:59:28Z</time>
      </trkpt>
      <trkpt lat="43.17139" lon="0.98146">
        <ele>291.2</ele>
        <time>2024-09-15T09:59:32Z</time>
      </trkpt>
      <trkpt lat="43.17136" lon="0.98149">
        <ele>291.2</ele>
        <time>2024-09-15T09:59:33Z</time>
      </trkpt>
      <trkpt lat="43.17129" lon="0.98156">
        <ele>291.8</ele>
        <time>2024-09-15T09:59:35Z</time>
      </trkpt>
      <trkpt lat="43.17126" lon="0.98158">
        <ele>292.2</ele>
        <time>2024-09-15T09:59:36Z</time>
      </trkpt>
      <trkpt lat="43.17123" lon="0.98161">
        <ele>292.6</ele>
        <time>2024-09-15T09:59:37Z</time>
      </trkpt>
      <trkpt lat="43.17121" lon="0.98164">
        <ele>293</ele>
        <time>2024-09-15T09:59:38Z</time>
      </trkpt>
      <trkpt lat="43.17118" lon="0.98167">
        <ele>293.4</ele>
        <time>2024-09-15T09:59:39Z</time>
      </trkpt>
      <trkpt lat="43.17112" lon="0.98178">
        <ele>293.8</ele>
        <time>2024-09-15T09:59:44Z</time>
      </trkpt>
      <trkpt lat="43.17111" lon="0.98178">
        <ele>294.2</ele>
        <time>2024-09-15T09:59:45Z</time>
      </trkpt>
      <trkpt lat="43.1711" lon="0.98181">
        <ele>295.4</ele>
        <time>2024-09-15T10:00:00Z</time>
      </trkpt>
      <trkpt lat="43.17106" lon="0.98187">
        <ele>295.4</ele>
        <time>2024-09-15T10:00:02Z</time>
      </trkpt>
      <trkpt lat="43.17096" lon="0.98205">
        <ele>295.4</ele>
        <time>2024-09-15T10:00:09Z</time>
      </trkpt>
      <trkpt lat="43.17094" lon="0.98209">
        <ele>295.4</ele>
        <time>2024-09-15T10:00:11Z</time>
      </trkpt>
      <trkpt lat="43.1709" lon="0.98215">
        <ele>295.4</ele>
        <time>2024-09-15T10:00:14Z</time>
      </trkpt>
      <trkpt lat="43.17089" lon="0.98218">
        <ele>295.4</ele>
        <time>2024-09-15T10:00:15Z</time>
      </trkpt>
      <trkpt lat="43.17078" lon="0.98235">
        <ele>295.4</ele>
        <time>2024-09-15T10:00:20Z</time>
      </trkpt>
      <trkpt lat="43.17056" lon="0.98261">
        <ele>295.4</ele>
        <time>2024-09-15T10:00:28Z</time>
      </trkpt>
      <trkpt lat="43.17036" lon="0.98288">
        <ele>295.4</ele>
        <time>2024-09-15T10:00:36Z</time>
      </trkpt>
      <trkpt lat="43.17031" lon="0.98298">
        <ele>295.8</ele>
        <time>2024-09-15T10:00:39Z</time>
      </trkpt>
      <trkpt lat="43.17029" lon="0.98302">
        <ele>296.4</ele>
        <time>2024-09-15T10:00:40Z</time>
      </trkpt>
      <trkpt lat="43.17027" lon="0.98307">
        <ele>296.8</ele>
        <time>2024-09-15T10:00:41Z</time>
      </trkpt>
      <trkpt lat="43.17026" lon="0.98312">
        <ele>297.2</ele>
        <time>2024-09-15T10:00:42Z</time>
      </trkpt>
      <trkpt lat="43.17025" lon="0.98317">
        <ele>297.6</ele>
        <time>2024-09-15T10:00:43Z</time>
      </trkpt>
      <trkpt lat="43.17019" lon="0.98343">
        <ele>298</ele>
        <time>2024-09-15T10:00:48Z</time>
      </trkpt>
      <trkpt lat="43.17018" lon="0.98348">
        <ele>298.4</ele>
        <time>2024-09-15T10:00:49Z</time>
      </trkpt>
      <trkpt lat="43.17017" lon="0.98352">
        <ele>298.8</ele>
        <time>2024-09-15T10:00:50Z</time>
      </trkpt>
      <trkpt lat="43.17017" lon="0.98357">
        <ele>299.4</ele>
        <time>2024-09-15T10:00:51Z</time>
      </trkpt>
      <trkpt lat="43.17016" lon="0.98362">
        <ele>299.8</ele>
        <time>2024-09-15T10:00:52Z</time>
      </trkpt>
      <trkpt lat="43.17014" lon="0.98378">
        <ele>299.8</ele>
        <time>2024-09-15T10:00:56Z</time>
      </trkpt>
      <trkpt lat="43.17015" lon="0.98399">
        <ele>300.2</ele>
        <time>2024-09-15T10:01:01Z</time>
      </trkpt>
      <trkpt lat="43.17014" lon="0.98404">
        <ele>300.6</ele>
        <time>2024-09-15T10:01:02Z</time>
      </trkpt>
      <trkpt lat="43.17012" lon="0.98408">
        <ele>301</ele>
        <time>2024-09-15T10:01:03Z</time>
      </trkpt>
      <trkpt lat="43.17011" lon="0.98413">
        <ele>301.4</ele>
        <time>2024-09-15T10:01:04Z</time>
      </trkpt>
      <trkpt lat="43.1701" lon="0.98418">
        <ele>301.8</ele>
        <time>2024-09-15T10:01:05Z</time>
      </trkpt>
      <trkpt lat="43.17009" lon="0.98429">
        <ele>301.8</ele>
        <time>2024-09-15T10:01:07Z</time>
      </trkpt>
      <trkpt lat="43.17007" lon="0.98459">
        <ele>301.8</ele>
        <time>2024-09-15T10:01:14Z</time>
      </trkpt>
      <trkpt lat="43.17006" lon="0.9846">
        <ele>301.8</ele>
        <time>2024-09-15T10:01:15Z</time>
      </trkpt>
      <trkpt lat="43.17006" lon="0.9846">
        <ele>301.8</ele>
        <time>2024-09-15T10:01:16Z</time>
      </trkpt>
      <trkpt lat="43.17006" lon="0.98469">
        <ele>304</ele>
        <time>2024-09-15T10:06:15Z</time>
      </trkpt>
      <trkpt lat="43.17006" lon="0.98472">
        <ele>304</ele>
        <time>2024-09-15T10:06:16Z</time>
      </trkpt>
      <trkpt lat="43.17007" lon="0.98484">
        <ele>304</ele>
        <time>2024-09-15T10:06:19Z</time>
      </trkpt>
      <trkpt lat="43.17007" lon="0.98492">
        <ele>304</ele>
        <time>2024-09-15T10:06:21Z</time>
      </trkpt>
      <trkpt lat="43.17007" lon="0.98515">
        <ele>304.4</ele>
        <time>2024-09-15T10:06:27Z</time>
      </trkpt>
      <trkpt lat="43.17007" lon="0.98518">
        <ele>304.8</ele>
        <time>2024-09-15T10:06:28Z</time>
      </trkpt>
      <trkpt lat="43.17007" lon="0.98522">
        <ele>305.2</ele>
        <time>2024-09-15T10:06:29Z</time>
      </trkpt>
      <trkpt lat="43.17008" lon="0.98525">
        <ele>305.6</ele>
        <time>2024-09-15T10:06:30Z</time>
      </trkpt>
      <trkpt lat="43.17008" lon="0.98529">
        <ele>306.2</ele>
        <time>2024-09-15T10:06:31Z</time>
      </trkpt>
      <trkpt lat="43.17009" lon="0.9854">
        <ele>306.2</ele>
        <time>2024-09-15T10:06:34Z</time>
      </trkpt>
      <trkpt lat="43.17009" lon="0.98565">
        <ele>306.6</ele>
        <time>2024-09-15T10:06:40Z</time>
      </trkpt>
      <trkpt lat="43.17009" lon="0.98569">
        <ele>307</ele>
        <time>2024-09-15T10:06:41Z</time>
      </trkpt>
      <trkpt lat="43.17009" lon="0.98573">
        <ele>307.4</ele>
        <time>2024-09-15T10:06:42Z</time>
      </trkpt>
      <trkpt lat="43.17009" lon="0.98577">
        <ele>307.8</ele>
        <time>2024-09-15T10:06:43Z</time>
      </trkpt>
      <trkpt lat="43.17009" lon="0.98581">
        <ele>308.2</ele>
        <time>2024-09-15T10:06:44Z</time>
      </trkpt>
      <trkpt lat="43.1701" lon="0.98588">
        <ele>308.2</ele>
        <time>2024-09-15T10:06:46Z</time>
      </trkpt>
      <trkpt lat="43.1701" lon="0.98607">
        <ele>308.6</ele>
        <time>2024-09-15T10:06:50Z</time>
      </trkpt>
      <trkpt lat="43.1701" lon="0.98612">
        <ele>309</ele>
        <time>2024-09-15T10:06:51Z</time>
      </trkpt>
      <trkpt lat="43.17011" lon="0.98616">
        <ele>309.4</ele>
        <time>2024-09-15T10:06:52Z</time>
      </trkpt>
      <trkpt lat="43.17011" lon="0.98621">
        <ele>309.8</ele>
        <time>2024-09-15T10:06:53Z</time>
      </trkpt>
      <trkpt lat="43.17011" lon="0.98625">
        <ele>310.2</ele>
        <time>2024-09-15T10:06:54Z</time>
      </trkpt>
      <trkpt lat="43.17012" lon="0.98634">
        <ele>310.2</ele>
        <time>2024-09-15T10:06:56Z</time>
      </trkpt>
      <trkpt lat="43.17015" lon="0.98642">
        <ele>310.6</ele>
        <time>2024-09-15T10:06:58Z</time>
      </trkpt>
      <trkpt lat="43.17016" lon="0.98645">
        <ele>311</ele>
        <time>2024-09-15T10:06:59Z</time>
      </trkpt>
      <trkpt lat="43.17017" lon="0.98649">
        <ele>311.4</ele>
        <time>2024-09-15T10:07:00Z</time>
      </trkpt>
      <trkpt lat="43.17018" lon="0.98654">
        <ele>311.8</ele>
        <time>2024-09-15T10:07:01Z</time>
      </trkpt>
      <trkpt lat="43.17019" lon="0.98657">
        <ele>312.2</ele>
        <time>2024-09-15T10:07:02Z</time>
      </trkpt>
      <trkpt lat="43.17025" lon="0.98668">
        <ele>312.8</ele>
        <time>2024-09-15T10:07:05Z</time>
      </trkpt>
      <trkpt lat="43.17026" lon="0.98672">
        <ele>313.2</ele>
        <time>2024-09-15T10:07:06Z</time>
      </trkpt>
      <trkpt lat="43.17028" lon="0.98676">
        <ele>313.6</ele>
        <time>2024-09-15T10:07:07Z</time>
      </trkpt>
      <trkpt lat="43.1703" lon="0.9868">
        <ele>314</ele>
        <time>2024-09-15T10:07:08Z</time>
      </trkpt>
      <trkpt lat="43.17032" lon="0.98685">
        <ele>314.6</ele>
        <time>2024-09-15T10:07:09Z</time>
      </trkpt>
      <trkpt lat="43.17038" lon="0.98695">
        <ele>315</ele>
        <time>2024-09-15T10:07:12Z</time>
      </trkpt>
      <trkpt lat="43.1704" lon="0.98698">
        <ele>315.8</ele>
        <time>2024-09-15T10:07:13Z</time>
      </trkpt>
      <trkpt lat="43.17042" lon="0.98702">
        <ele>316.2</ele>
        <time>2024-09-15T10:07:14Z</time>
      </trkpt>
      <trkpt lat="43.17043" lon="0.98705">
        <ele>316.8</ele>
        <time>2024-09-15T10:07:15Z</time>
      </trkpt>
      <trkpt lat="43.17056" lon="0.98724">
        <ele>318</ele>
        <time>2024-09-15T10:07:20Z</time>
      </trkpt>
      <trkpt lat="43.17058" lon="0.98727">
        <ele>318.4</ele>
        <time>2024-09-15T10:07:24Z</time>
      </trkpt>
      <trkpt lat="43.1706" lon="0.98729">
        <ele>318.8</ele>
        <time>2024-09-15T10:07:25Z</time>
      </trkpt>
      <trkpt lat="43.17069" lon="0.9874">
        <ele>319.4</ele>
        <time>2024-09-15T10:07:29Z</time>
      </trkpt>
      <trkpt lat="43.17072" lon="0.98742">
        <ele>319.8</ele>
        <time>2024-09-15T10:07:30Z</time>
      </trkpt>
      <trkpt lat="43.17075" lon="0.98745">
        <ele>320.2</ele>
        <time>2024-09-15T10:07:31Z</time>
      </trkpt>
      <trkpt lat="43.17078" lon="0.98747">
        <ele>320.6</ele>
        <time>2024-09-15T10:07:32Z</time>
      </trkpt>
      <trkpt lat="43.17081" lon="0.9875">
        <ele>321</ele>
        <time>2024-09-15T10:07:33Z</time>
      </trkpt>
      <trkpt lat="43.17094" lon="0.98763">
        <ele>321</ele>
        <time>2024-09-15T10:07:38Z</time>
      </trkpt>
      <trkpt lat="43.17108" lon="0.98781">
        <ele>321</ele>
        <time>2024-09-15T10:07:43Z</time>
      </trkpt>
      <trkpt lat="43.17111" lon="0.98786">
        <ele>321</ele>
        <time>2024-09-15T10:07:44Z</time>
      </trkpt>
      <trkpt lat="43.17128" lon="0.98815">
        <ele>320.6</ele>
        <time>2024-09-15T10:07:49Z</time>
      </trkpt>
      <trkpt lat="43.17132" lon="0.98822">
        <ele>320.2</ele>
        <time>2024-09-15T10:07:50Z</time>
      </trkpt>
      <trkpt lat="43.17135" lon="0.9883">
        <ele>319.6</ele>
        <time>2024-09-15T10:07:51Z</time>
      </trkpt>
      <trkpt lat="43.17139" lon="0.98839">
        <ele>318.8</ele>
        <time>2024-09-15T10:07:52Z</time>
      </trkpt>
      <trkpt lat="43.17143" lon="0.98849">
        <ele>318</ele>
        <time>2024-09-15T10:07:53Z</time>
      </trkpt>
      <trkpt lat="43.17147" lon="0.98859">
        <ele>317.2</ele>
        <time>2024-09-15T10:07:54Z</time>
      </trkpt>
      <trkpt lat="43.17151" lon="0.98871">
        <ele>316.2</ele>
        <time>2024-09-15T10:07:55Z</time>
      </trkpt>
      <trkpt lat="43.17155" lon="0.98883">
        <ele>315.2</ele>
        <time>2024-09-15T10:07:56Z</time>
      </trkpt>
      <trkpt lat="43.1716" lon="0.98896">
        <ele>314</ele>
        <time>2024-09-15T10:07:57Z</time>
      </trkpt>
      <trkpt lat="43.17165" lon="0.98909">
        <ele>313</ele>
        <time>2024-09-15T10:07:58Z</time>
      </trkpt>
      <trkpt lat="43.1717" lon="0.98922">
        <ele>311.8</ele>
        <time>2024-09-15T10:07:59Z</time>
      </trkpt>
      <trkpt lat="43.17175" lon="0.98935">
        <ele>310.8</ele>
        <time>2024-09-15T10:08:00Z</time>
      </trkpt>
      <trkpt lat="43.1718" lon="0.98949">
        <ele>309.8</ele>
        <time>2024-09-15T10:08:01Z</time>
      </trkpt>
      <trkpt lat="43.17185" lon="0.98963">
        <ele>308.8</ele>
        <time>2024-09-15T10:08:02Z</time>
      </trkpt>
      <trkpt lat="43.1719" lon="0.98976">
        <ele>308</ele>
        <time>2024-09-15T10:08:03Z</time>
      </trkpt>
      <trkpt lat="43.17194" lon="0.98989">
        <ele>306.4</ele>
        <time>2024-09-15T10:08:04Z</time>
      </trkpt>
      <trkpt lat="43.17199" lon="0.99001">
        <ele>305.6</ele>
        <time>2024-09-15T10:08:05Z</time>
      </trkpt>
      <trkpt lat="43.17203" lon="0.99011">
        <ele>304.8</ele>
        <time>2024-09-15T10:08:06Z</time>
      </trkpt>
      <trkpt lat="43.17207" lon="0.99022">
        <ele>304</ele>
        <time>2024-09-15T10:08:07Z</time>
      </trkpt>
      <trkpt lat="43.17217" lon="0.99048">
        <ele>304</ele>
        <time>2024-09-15T10:08:10Z</time>
      </trkpt>
      <trkpt lat="43.17222" lon="0.99062">
        <ele>304.4</ele>
        <time>2024-09-15T10:08:12Z</time>
      </trkpt>
      <trkpt lat="43.17224" lon="0.99069">
        <ele>305</ele>
        <time>2024-09-15T10:08:13Z</time>
      </trkpt>
      <trkpt lat="43.17226" lon="0.99075">
        <ele>305.4</ele>
        <time>2024-09-15T10:08:14Z</time>
      </trkpt>
      <trkpt lat="43.17228" lon="0.99081">
        <ele>305.8</ele>
        <time>2024-09-15T10:08:15Z</time>
      </trkpt>
      <trkpt lat="43.1723" lon="0.99088">
        <ele>306.4</ele>
        <time>2024-09-15T10:08:16Z</time>
      </trkpt>
      <trkpt lat="43.17245" lon="0.99129">
        <ele>306.4</ele>
        <time>2024-09-15T10:08:22Z</time>
      </trkpt>
      <trkpt lat="43.1726" lon="0.9917">
        <ele>306.4</ele>
        <time>2024-09-15T10:08:29Z</time>
      </trkpt>
      <trkpt lat="43.17271" lon="0.99207">
        <ele>306.8</ele>
        <time>2024-09-15T10:08:36Z</time>
      </trkpt>
      <trkpt lat="43.17272" lon="0.99212">
        <ele>307.2</ele>
        <time>2024-09-15T10:08:37Z</time>
      </trkpt>
      <trkpt lat="43.17272" lon="0.99217">
        <ele>307.6</ele>
        <time>2024-09-15T10:08:38Z</time>
      </trkpt>
      <trkpt lat="43.17273" lon="0.99222">
        <ele>308</ele>
        <time>2024-09-15T10:08:39Z</time>
      </trkpt>
      <trkpt lat="43.17274" lon="0.99226">
        <ele>308.6</ele>
        <time>2024-09-15T10:08:40Z</time>
      </trkpt>
      <trkpt lat="43.17275" lon="0.99242">
        <ele>308.6</ele>
        <time>2024-09-15T10:08:43Z</time>
      </trkpt>
      <trkpt lat="43.17276" lon="0.99257">
        <ele>309</ele>
        <time>2024-09-15T10:08:46Z</time>
      </trkpt>
      <trkpt lat="43.17277" lon="0.99263">
        <ele>309.4</ele>
        <time>2024-09-15T10:08:47Z</time>
      </trkpt>
      <trkpt lat="43.17277" lon="0.99268">
        <ele>309.8</ele>
        <time>2024-09-15T10:08:48Z</time>
      </trkpt>
      <trkpt lat="43.17277" lon="0.99273">
        <ele>310.4</ele>
        <time>2024-09-15T10:08:49Z</time>
      </trkpt>
      <trkpt lat="43.17277" lon="0.99278">
        <ele>310.8</ele>
        <time>2024-09-15T10:08:50Z</time>
      </trkpt>
      <trkpt lat="43.17277" lon="0.99284">
        <ele>310.8</ele>
        <time>2024-09-15T10:08:51Z</time>
      </trkpt>
      <trkpt lat="43.17276" lon="0.99305">
        <ele>311.2</ele>
        <time>2024-09-15T10:08:55Z</time>
      </trkpt>
      <trkpt lat="43.17275" lon="0.9931">
        <ele>311.6</ele>
        <time>2024-09-15T10:08:56Z</time>
      </trkpt>
      <trkpt lat="43.17275" lon="0.99315">
        <ele>312</ele>
        <time>2024-09-15T10:08:57Z</time>
      </trkpt>
      <trkpt lat="43.17274" lon="0.9932">
        <ele>312.4</ele>
        <time>2024-09-15T10:08:58Z</time>
      </trkpt>
      <trkpt lat="43.17274" lon="0.99325">
        <ele>313</ele>
        <time>2024-09-15T10:08:59Z</time>
      </trkpt>
      <trkpt lat="43.17273" lon="0.99341">
        <ele>313.4</ele>
        <time>2024-09-15T10:09:02Z</time>
      </trkpt>
      <trkpt lat="43.17273" lon="0.99346">
        <ele>313.8</ele>
        <time>2024-09-15T10:09:03Z</time>
      </trkpt>
      <trkpt lat="43.17274" lon="0.99351">
        <ele>314.2</ele>
        <time>2024-09-15T10:09:04Z</time>
      </trkpt>
      <trkpt lat="43.17274" lon="0.99356">
        <ele>314.6</ele>
        <time>2024-09-15T10:09:05Z</time>
      </trkpt>
      <trkpt lat="43.17274" lon="0.99362">
        <ele>315</ele>
        <time>2024-09-15T10:09:06Z</time>
      </trkpt>
      <trkpt lat="43.17275" lon="0.99367">
        <ele>315</ele>
        <time>2024-09-15T10:09:07Z</time>
      </trkpt>
      <trkpt lat="43.17277" lon="0.99383">
        <ele>315.4</ele>
        <time>2024-09-15T10:09:10Z</time>
      </trkpt>
      <trkpt lat="43.17278" lon="0.99388">
        <ele>315.8</ele>
        <time>2024-09-15T10:09:11Z</time>
      </trkpt>
      <trkpt lat="43.17278" lon="0.99393">
        <ele>316.4</ele>
        <time>2024-09-15T10:09:12Z</time>
      </trkpt>
      <trkpt lat="43.17279" lon="0.99397">
        <ele>316.8</ele>
        <time>2024-09-15T10:09:13Z</time>
      </trkpt>
      <trkpt lat="43.1728" lon="0.99402">
        <ele>317.2</ele>
        <time>2024-09-15T10:09:14Z</time>
      </trkpt>
      <trkpt lat="43.17282" lon="0.9942">
        <ele>317.6</ele>
        <time>2024-09-15T10:09:18Z</time>
      </trkpt>
      <trkpt lat="43.17282" lon="0.99424">
        <ele>318</ele>
        <time>2024-09-15T10:09:19Z</time>
      </trkpt>
      <trkpt lat="43.17282" lon="0.99428">
        <ele>318.4</ele>
        <time>2024-09-15T10:09:20Z</time>
      </trkpt>
      <trkpt lat="43.17283" lon="0.99433">
        <ele>318.8</ele>
        <time>2024-09-15T10:09:21Z</time>
      </trkpt>
      <trkpt lat="43.17283" lon="0.99437">
        <ele>319.2</ele>
        <time>2024-09-15T10:09:22Z</time>
      </trkpt>
      <trkpt lat="43.17284" lon="0.99451">
        <ele>319.6</ele>
        <time>2024-09-15T10:09:25Z</time>
      </trkpt>
      <trkpt lat="43.17285" lon="0.99455">
        <ele>320.2</ele>
        <time>2024-09-15T10:09:26Z</time>
      </trkpt>
      <trkpt lat="43.17285" lon="0.9946">
        <ele>320.6</ele>
        <time>2024-09-15T10:09:27Z</time>
      </trkpt>
      <trkpt lat="43.17286" lon="0.99464">
        <ele>321</ele>
        <time>2024-09-15T10:09:28Z</time>
      </trkpt>
      <trkpt lat="43.17287" lon="0.99468">
        <ele>321.4</ele>
        <time>2024-09-15T10:09:29Z</time>
      </trkpt>
      <trkpt lat="43.17296" lon="0.99493">
        <ele>321.8</ele>
        <time>2024-09-15T10:09:35Z</time>
      </trkpt>
      <trkpt lat="43.17297" lon="0.99497">
        <ele>322.2</ele>
        <time>2024-09-15T10:09:36Z</time>
      </trkpt>
      <trkpt lat="43.17299" lon="0.99501">
        <ele>322.6</ele>
        <time>2024-09-15T10:09:37Z</time>
      </trkpt>
      <trkpt lat="43.17301" lon="0.99504">
        <ele>323</ele>
        <time>2024-09-15T10:09:38Z</time>
      </trkpt>
      <trkpt lat="43.17303" lon="0.99508">
        <ele>323.4</ele>
        <time>2024-09-15T10:09:39Z</time>
      </trkpt>
      <trkpt lat="43.17309" lon="0.99519">
        <ele>323.4</ele>
        <time>2024-09-15T10:09:42Z</time>
      </trkpt>
      <trkpt lat="43.17311" lon="0.99523">
        <ele>324.2</ele>
        <time>2024-09-15T10:09:43Z</time>
      </trkpt>
      <trkpt lat="43.17312" lon="0.99526">
        <ele>324.6</ele>
        <time>2024-09-15T10:09:44Z</time>
      </trkpt>
      <trkpt lat="43.17314" lon="0.9953">
        <ele>325</ele>
        <time>2024-09-15T10:09:45Z</time>
      </trkpt>
      <trkpt lat="43.17316" lon="0.99534">
        <ele>325.4</ele>
        <time>2024-09-15T10:09:46Z</time>
      </trkpt>
      <trkpt lat="43.17322" lon="0.99544">
        <ele>325.4</ele>
        <time>2024-09-15T10:09:49Z</time>
      </trkpt>
      <trkpt lat="43.17324" lon="0.99547">
        <ele>325.8</ele>
        <time>2024-09-15T10:09:50Z</time>
      </trkpt>
      <trkpt lat="43.17326" lon="0.9955">
        <ele>326.2</ele>
        <time>2024-09-15T10:09:51Z</time>
      </trkpt>
      <trkpt lat="43.17328" lon="0.99554">
        <ele>326.8</ele>
        <time>2024-09-15T10:09:52Z</time>
      </trkpt>
      <trkpt lat="43.17329" lon="0.99557">
        <ele>327.2</ele>
        <time>2024-09-15T10:09:53Z</time>
      </trkpt>
      <trkpt lat="43.17331" lon="0.99561">
        <ele>327.6</ele>
        <time>2024-09-15T10:09:54Z</time>
      </trkpt>
      <trkpt lat="43.17335" lon="0.99569">
        <ele>327.6</ele>
        <time>2024-09-15T10:09:56Z</time>
      </trkpt>
      <trkpt lat="43.17338" lon="0.99573">
        <ele>328</ele>
        <time>2024-09-15T10:09:57Z</time>
      </trkpt>
      <trkpt lat="43.1734" lon="0.99577">
        <ele>328.4</ele>
        <time>2024-09-15T10:09:58Z</time>
      </trkpt>
      <trkpt lat="43.17341" lon="0.9958">
        <ele>328.8</ele>
        <time>2024-09-15T10:09:59Z</time>
      </trkpt>
      <trkpt lat="43.17343" lon="0.99585">
        <ele>329.2</ele>
        <time>2024-09-15T10:10:00Z</time>
      </trkpt>
      <trkpt lat="43.17345" lon="0.99589">
        <ele>329.6</ele>
        <time>2024-09-15T10:10:01Z</time>
      </trkpt>
      <trkpt lat="43.17346" lon="0.99593">
        <ele>329.6</ele>
        <time>2024-09-15T10:10:02Z</time>
      </trkpt>
      <trkpt lat="43.17348" lon="0.99602">
        <ele>330</ele>
        <time>2024-09-15T10:10:04Z</time>
      </trkpt>
      <trkpt lat="43.1735" lon="0.99606">
        <ele>330.4</ele>
        <time>2024-09-15T10:10:05Z</time>
      </trkpt>
      <trkpt lat="43.17351" lon="0.99611">
        <ele>330.8</ele>
        <time>2024-09-15T10:10:06Z</time>
      </trkpt>
      <trkpt lat="43.17351" lon="0.99616">
        <ele>331.8</ele>
        <time>2024-09-15T10:10:07Z</time>
      </trkpt>
      <trkpt lat="43.17354" lon="0.99632">
        <ele>331.8</ele>
        <time>2024-09-15T10:10:10Z</time>
      </trkpt>
      <trkpt lat="43.17358" lon="0.99652">
        <ele>332.2</ele>
        <time>2024-09-15T10:10:14Z</time>
      </trkpt>
      <trkpt lat="43.17358" lon="0.99657">
        <ele>332.6</ele>
        <time>2024-09-15T10:10:15Z</time>
      </trkpt>
      <trkpt lat="43.1736" lon="0.99661">
        <ele>333</ele>
        <time>2024-09-15T10:10:16Z</time>
      </trkpt>
      <trkpt lat="43.17361" lon="0.99666">
        <ele>333.4</ele>
        <time>2024-09-15T10:10:17Z</time>
      </trkpt>
      <trkpt lat="43.17362" lon="0.99671">
        <ele>334</ele>
        <time>2024-09-15T10:10:18Z</time>
      </trkpt>
      <trkpt lat="43.17363" lon="0.99676">
        <ele>334</ele>
        <time>2024-09-15T10:10:19Z</time>
      </trkpt>
      <trkpt lat="43.17366" lon="0.99691">
        <ele>334.4</ele>
        <time>2024-09-15T10:10:22Z</time>
      </trkpt>
      <trkpt lat="43.17367" lon="0.99695">
        <ele>334.8</ele>
        <time>2024-09-15T10:10:23Z</time>
      </trkpt>
      <trkpt lat="43.17368" lon="0.997">
        <ele>335.2</ele>
        <time>2024-09-15T10:10:24Z</time>
      </trkpt>
      <trkpt lat="43.17369" lon="0.99704">
        <ele>335.6</ele>
        <time>2024-09-15T10:10:25Z</time>
      </trkpt>
      <trkpt lat="43.1737" lon="0.99709">
        <ele>336</ele>
        <time>2024-09-15T10:10:26Z</time>
      </trkpt>
      <trkpt lat="43.17371" lon="0.99714">
        <ele>336</ele>
        <time>2024-09-15T10:10:27Z</time>
      </trkpt>
      <trkpt lat="43.17374" lon="0.99738">
        <ele>336.4</ele>
        <time>2024-09-15T10:10:32Z</time>
      </trkpt>
      <trkpt lat="43.17375" lon="0.99744">
        <ele>336.8</ele>
        <time>2024-09-15T10:10:33Z</time>
      </trkpt>
      <trkpt lat="43.17375" lon="0.99748">
        <ele>337.2</ele>
        <time>2024-09-15T10:10:34Z</time>
      </trkpt>
      <trkpt lat="43.17376" lon="0.99753">
        <ele>337.6</ele>
        <time>2024-09-15T10:10:35Z</time>
      </trkpt>
      <trkpt lat="43.17377" lon="0.99757">
        <ele>338</ele>
        <time>2024-09-15T10:10:36Z</time>
      </trkpt>
      <trkpt lat="43.1738" lon="0.99792">
        <ele>338.4</ele>
        <time>2024-09-15T10:10:43Z</time>
      </trkpt>
      <trkpt lat="43.17381" lon="0.99797">
        <ele>338.8</ele>
        <time>2024-09-15T10:10:44Z</time>
      </trkpt>
      <trkpt lat="43.17381" lon="0.99801">
        <ele>339.2</ele>
        <time>2024-09-15T10:10:45Z</time>
      </trkpt>
      <trkpt lat="43.17381" lon="0.99806">
        <ele>339.8</ele>
        <time>2024-09-15T10:10:46Z</time>
      </trkpt>
      <trkpt lat="43.17381" lon="0.99811">
        <ele>340.2</ele>
        <time>2024-09-15T10:10:47Z</time>
      </trkpt>
      <trkpt lat="43.17384" lon="0.99841">
        <ele>340.2</ele>
        <time>2024-09-15T10:10:53Z</time>
      </trkpt>
      <trkpt lat="43.17385" lon="0.99876">
        <ele>340.6</ele>
        <time>2024-09-15T10:11:00Z</time>
      </trkpt>
      <trkpt lat="43.17386" lon="0.99882">
        <ele>341</ele>
        <time>2024-09-15T10:11:01Z</time>
      </trkpt>
      <trkpt lat="43.17386" lon="0.99888">
        <ele>341.4</ele>
        <time>2024-09-15T10:11:02Z</time>
      </trkpt>
      <trkpt lat="43.17386" lon="0.99893">
        <ele>341.8</ele>
        <time>2024-09-15T10:11:03Z</time>
      </trkpt>
      <trkpt lat="43.17386" lon="0.999">
        <ele>342.2</ele>
        <time>2024-09-15T10:11:04Z</time>
      </trkpt>
      <trkpt lat="43.17388" lon="0.99927">
        <ele>342.2</ele>
        <time>2024-09-15T10:11:08Z</time>
      </trkpt>
      <trkpt lat="43.1739" lon="0.9994">
        <ele>342.2</ele>
        <time>2024-09-15T10:11:10Z</time>
      </trkpt>
      <trkpt lat="43.17399" lon="0.99963">
        <ele>341.6</ele>
        <time>2024-09-15T10:11:13Z</time>
      </trkpt>
      <trkpt lat="43.17403" lon="0.99971">
        <ele>341.2</ele>
        <time>2024-09-15T10:11:14Z</time>
      </trkpt>
      <trkpt lat="43.17407" lon="0.9998">
        <ele>340.4</ele>
        <time>2024-09-15T10:11:15Z</time>
      </trkpt>
      <trkpt lat="43.17411" lon="0.99988">
        <ele>339.8</ele>
        <time>2024-09-15T10:11:16Z</time>
      </trkpt>
      <trkpt lat="43.17416" lon="0.99997">
        <ele>339.4</ele>
        <time>2024-09-15T10:11:17Z</time>
      </trkpt>
      <trkpt lat="43.1742" lon="1.00006">
        <ele>338.8</ele>
        <time>2024-09-15T10:11:18Z</time>
      </trkpt>
      <trkpt lat="43.17424" lon="1.00014">
        <ele>338.4</ele>
        <time>2024-09-15T10:11:19Z</time>
      </trkpt>
      <trkpt lat="43.17429" lon="1.00023">
        <ele>337.8</ele>
        <time>2024-09-15T10:11:20Z</time>
      </trkpt>
      <trkpt lat="43.1745" lon="1.00066">
        <ele>337.4</ele>
        <time>2024-09-15T10:11:25Z</time>
      </trkpt>
      <trkpt lat="43.17455" lon="1.00075">
        <ele>337</ele>
        <time>2024-09-15T10:11:26Z</time>
      </trkpt>
      <trkpt lat="43.17459" lon="1.00083">
        <ele>336.6</ele>
        <time>2024-09-15T10:11:27Z</time>
      </trkpt>
      <trkpt lat="43.17463" lon="1.00093">
        <ele>336.2</ele>
        <time>2024-09-15T10:11:28Z</time>
      </trkpt>
      <trkpt lat="43.17467" lon="1.00101">
        <ele>335.8</ele>
        <time>2024-09-15T10:11:29Z</time>
      </trkpt>
      <trkpt lat="43.17474" lon="1.00115">
        <ele>335.8</ele>
        <time>2024-09-15T10:11:31Z</time>
      </trkpt>
      <trkpt lat="43.17485" lon="1.00141">
        <ele>335.8</ele>
        <time>2024-09-15T10:11:35Z</time>
      </trkpt>
      <trkpt lat="43.17493" lon="1.00167">
        <ele>336.2</ele>
        <time>2024-09-15T10:11:39Z</time>
      </trkpt>
      <trkpt lat="43.17493" lon="1.00173">
        <ele>337</ele>
        <time>2024-09-15T10:11:40Z</time>
      </trkpt>
      <trkpt lat="43.17493" lon="1.00178">
        <ele>337.4</ele>
        <time>2024-09-15T10:11:41Z</time>
      </trkpt>
      <trkpt lat="43.17493" lon="1.00184">
        <ele>337.8</ele>
        <time>2024-09-15T10:11:42Z</time>
      </trkpt>
      <trkpt lat="43.17493" lon="1.00222">
        <ele>337.8</ele>
        <time>2024-09-15T10:11:48Z</time>
      </trkpt>
      <trkpt lat="43.175" lon="1.00254">
        <ele>337.8</ele>
        <time>2024-09-15T10:11:53Z</time>
      </trkpt>
      <trkpt lat="43.17501" lon="1.00258">
        <ele>337.8</ele>
        <time>2024-09-15T10:11:54Z</time>
      </trkpt>
      <trkpt lat="43.17501" lon="1.0026">
        <ele>337.8</ele>
        <time>2024-09-15T10:11:56Z</time>
      </trkpt>
      <trkpt lat="43.17501" lon="1.00261">
        <ele>337.8</ele>
        <time>2024-09-15T10:11:57Z</time>
      </trkpt>
      <trkpt lat="43.17501" lon="1.00266">
        <ele>337.8</ele>
        <time>2024-09-15T10:12:35Z</time>
      </trkpt>
      <trkpt lat="43.17502" lon="1.00271">
        <ele>337.8</ele>
        <time>2024-09-15T10:12:36Z</time>
      </trkpt>
      <trkpt lat="43.17503" lon="1.00297">
        <ele>337.4</ele>
        <time>2024-09-15T10:12:40Z</time>
      </trkpt>
      <trkpt lat="43.17502" lon="1.00304">
        <ele>336.8</ele>
        <time>2024-09-15T10:12:41Z</time>
      </trkpt>
      <trkpt lat="43.17502" lon="1.00311">
        <ele>336.4</ele>
        <time>2024-09-15T10:12:42Z</time>
      </trkpt>
      <trkpt lat="43.17502" lon="1.00318">
        <ele>336</ele>
        <time>2024-09-15T10:12:43Z</time>
      </trkpt>
      <trkpt lat="43.17502" lon="1.00324">
        <ele>335.4</ele>
        <time>2024-09-15T10:12:44Z</time>
      </trkpt>
      <trkpt lat="43.17502" lon="1.00331">
        <ele>334.8</ele>
        <time>2024-09-15T10:12:45Z</time>
      </trkpt>
      <trkpt lat="43.17501" lon="1.00336">
        <ele>334.4</ele>
        <time>2024-09-15T10:12:46Z</time>
      </trkpt>
      <trkpt lat="43.17501" lon="1.00341">
        <ele>333.8</ele>
        <time>2024-09-15T10:12:47Z</time>
      </trkpt>
      <trkpt lat="43.175" lon="1.00347">
        <ele>333.2</ele>
        <time>2024-09-15T10:12:48Z</time>
      </trkpt>
      <trkpt lat="43.175" lon="1.00352">
        <ele>332.8</ele>
        <time>2024-09-15T10:12:49Z</time>
      </trkpt>
      <trkpt lat="43.17499" lon="1.00359">
        <ele>332.2</ele>
        <time>2024-09-15T10:12:50Z</time>
      </trkpt>
      <trkpt lat="43.17498" lon="1.00366">
        <ele>331.8</ele>
        <time>2024-09-15T10:12:51Z</time>
      </trkpt>
      <trkpt lat="43.17497" lon="1.00373">
        <ele>331.2</ele>
        <time>2024-09-15T10:12:52Z</time>
      </trkpt>
      <trkpt lat="43.17495" lon="1.0038">
        <ele>330.6</ele>
        <time>2024-09-15T10:12:53Z</time>
      </trkpt>
      <trkpt lat="43.17494" lon="1.00388">
        <ele>330</ele>
        <time>2024-09-15T10:12:54Z</time>
      </trkpt>
      <trkpt lat="43.17492" lon="1.00396">
        <ele>329.4</ele>
        <time>2024-09-15T10:12:55Z</time>
      </trkpt>
      <trkpt lat="43.17489" lon="1.00404">
        <ele>328.8</ele>
        <time>2024-09-15T10:12:56Z</time>
      </trkpt>
      <trkpt lat="43.17486" lon="1.00411">
        <ele>328</ele>
        <time>2024-09-15T10:12:57Z</time>
      </trkpt>
      <trkpt lat="43.17483" lon="1.0042">
        <ele>326.4</ele>
        <time>2024-09-15T10:12:58Z</time>
      </trkpt>
      <trkpt lat="43.17479" lon="1.00427">
        <ele>325.4</ele>
        <time>2024-09-15T10:12:59Z</time>
      </trkpt>
      <trkpt lat="43.17475" lon="1.00436">
        <ele>324.6</ele>
        <time>2024-09-15T10:13:00Z</time>
      </trkpt>
      <trkpt lat="43.17471" lon="1.00444">
        <ele>323.6</ele>
        <time>2024-09-15T10:13:01Z</time>
      </trkpt>
      <trkpt lat="43.17467" lon="1.00452">
        <ele>322.6</ele>
        <time>2024-09-15T10:13:02Z</time>
      </trkpt>
      <trkpt lat="43.17464" lon="1.0046">
        <ele>321.6</ele>
        <time>2024-09-15T10:13:03Z</time>
      </trkpt>
      <trkpt lat="43.17461" lon="1.00468">
        <ele>320.4</ele>
        <time>2024-09-15T10:13:04Z</time>
      </trkpt>
      <trkpt lat="43.1746" lon="1.00477">
        <ele>319.4</ele>
        <time>2024-09-15T10:13:05Z</time>
      </trkpt>
      <trkpt lat="43.1746" lon="1.00487">
        <ele>318.6</ele>
        <time>2024-09-15T10:13:06Z</time>
      </trkpt>
      <trkpt lat="43.17461" lon="1.00495">
        <ele>317.6</ele>
        <time>2024-09-15T10:13:07Z</time>
      </trkpt>
      <trkpt lat="43.17463" lon="1.00504">
        <ele>316.8</ele>
        <time>2024-09-15T10:13:08Z</time>
      </trkpt>
      <trkpt lat="43.17466" lon="1.00512">
        <ele>315.8</ele>
        <time>2024-09-15T10:13:09Z</time>
      </trkpt>
      <trkpt lat="43.17468" lon="1.00519">
        <ele>315</ele>
        <time>2024-09-15T10:13:10Z</time>
      </trkpt>
      <trkpt lat="43.17471" lon="1.00527">
        <ele>314.2</ele>
        <time>2024-09-15T10:13:11Z</time>
      </trkpt>
      <trkpt lat="43.17473" lon="1.00535">
        <ele>313.6</ele>
        <time>2024-09-15T10:13:12Z</time>
      </trkpt>
      <trkpt lat="43.17475" lon="1.00543">
        <ele>312.8</ele>
        <time>2024-09-15T10:13:13Z</time>
      </trkpt>
      <trkpt lat="43.17477" lon="1.00551">
        <ele>312</ele>
        <time>2024-09-15T10:13:14Z</time>
      </trkpt>
      <trkpt lat="43.17479" lon="1.00559">
        <ele>311.4</ele>
        <time>2024-09-15T10:13:15Z</time>
      </trkpt>
      <trkpt lat="43.17481" lon="1.00567">
        <ele>310.6</ele>
        <time>2024-09-15T10:13:16Z</time>
      </trkpt>
      <trkpt lat="43.17483" lon="1.00574">
        <ele>310</ele>
        <time>2024-09-15T10:13:17Z</time>
      </trkpt>
      <trkpt lat="43.17485" lon="1.00581">
        <ele>309.2</ele>
        <time>2024-09-15T10:13:18Z</time>
      </trkpt>
      <trkpt lat="43.17486" lon="1.00586">
        <ele>308.6</ele>
        <time>2024-09-15T10:13:19Z</time>
      </trkpt>
      <trkpt lat="43.17488" lon="1.00592">
        <ele>307.8</ele>
        <time>2024-09-15T10:13:20Z</time>
      </trkpt>
      <trkpt lat="43.17489" lon="1.00598">
        <ele>307</ele>
        <time>2024-09-15T10:13:21Z</time>
      </trkpt>
      <trkpt lat="43.17491" lon="1.00606">
        <ele>305.6</ele>
        <time>2024-09-15T10:13:22Z</time>
      </trkpt>
      <trkpt lat="43.17493" lon="1.00614">
        <ele>304.8</ele>
        <time>2024-09-15T10:13:23Z</time>
      </trkpt>
      <trkpt lat="43.17495" lon="1.00622">
        <ele>304.2</ele>
        <time>2024-09-15T10:13:24Z</time>
      </trkpt>
      <trkpt lat="43.17496" lon="1.0063">
        <ele>303.6</ele>
        <time>2024-09-15T10:13:25Z</time>
      </trkpt>
      <trkpt lat="43.17496" lon="1.00638">
        <ele>303</ele>
        <time>2024-09-15T10:13:26Z</time>
      </trkpt>
      <trkpt lat="43.17495" lon="1.00645">
        <ele>302.4</ele>
        <time>2024-09-15T10:13:27Z</time>
      </trkpt>
      <trkpt lat="43.17493" lon="1.00653">
        <ele>301.8</ele>
        <time>2024-09-15T10:13:28Z</time>
      </trkpt>
      <trkpt lat="43.17491" lon="1.0066">
        <ele>301.8</ele>
        <time>2024-09-15T10:13:29Z</time>
      </trkpt>
      <trkpt lat="43.1749" lon="1.00667">
        <ele>301.8</ele>
        <time>2024-09-15T10:13:30Z</time>
      </trkpt>
      <trkpt lat="43.17476" lon="1.00709">
        <ele>301.8</ele>
        <time>2024-09-15T10:13:36Z</time>
      </trkpt>
      <trkpt lat="43.17466" lon="1.00744">
        <ele>301.8</ele>
        <time>2024-09-15T10:13:41Z</time>
      </trkpt>
      <trkpt lat="43.17466" lon="1.00751">
        <ele>301.8</ele>
        <time>2024-09-15T10:13:42Z</time>
      </trkpt>
      <trkpt lat="43.17466" lon="1.00757">
        <ele>302.4</ele>
        <time>2024-09-15T10:13:43Z</time>
      </trkpt>
      <trkpt lat="43.17467" lon="1.00765">
        <ele>302.8</ele>
        <time>2024-09-15T10:13:44Z</time>
      </trkpt>
      <trkpt lat="43.17469" lon="1.00771">
        <ele>303.2</ele>
        <time>2024-09-15T10:13:45Z</time>
      </trkpt>
      <trkpt lat="43.17473" lon="1.00775">
        <ele>303.8</ele>
        <time>2024-09-15T10:13:46Z</time>
      </trkpt>
      <trkpt lat="43.17478" lon="1.00779">
        <ele>304.2</ele>
        <time>2024-09-15T10:13:47Z</time>
      </trkpt>
      <trkpt lat="43.17494" lon="1.0079">
        <ele>304.6</ele>
        <time>2024-09-15T10:13:50Z</time>
      </trkpt>
      <trkpt lat="43.17499" lon="1.00793">
        <ele>305</ele>
        <time>2024-09-15T10:13:51Z</time>
      </trkpt>
      <trkpt lat="43.17504" lon="1.00796">
        <ele>305.4</ele>
        <time>2024-09-15T10:13:52Z</time>
      </trkpt>
      <trkpt lat="43.17508" lon="1.008">
        <ele>305.8</ele>
        <time>2024-09-15T10:13:53Z</time>
      </trkpt>
      <trkpt lat="43.17513" lon="1.00803">
        <ele>306.2</ele>
        <time>2024-09-15T10:13:54Z</time>
      </trkpt>
      <trkpt lat="43.17529" lon="1.00814">
        <ele>306.2</ele>
        <time>2024-09-15T10:13:57Z</time>
      </trkpt>
      <trkpt lat="43.17569" lon="1.00838">
        <ele>306.2</ele>
        <time>2024-09-15T10:14:04Z</time>
      </trkpt>
      <trkpt lat="43.17596" lon="1.00848">
        <ele>306.2</ele>
        <time>2024-09-15T10:14:09Z</time>
      </trkpt>
      <trkpt lat="43.17599" lon="1.00849">
        <ele>306.2</ele>
        <time>2024-09-15T10:14:10Z</time>
      </trkpt>
      <trkpt lat="43.17615" lon="1.00858">
        <ele>306.2</ele>
        <time>2024-09-15T10:14:15Z</time>
      </trkpt>
      <trkpt lat="43.17621" lon="1.00864">
        <ele>306.6</ele>
        <time>2024-09-15T10:14:18Z</time>
      </trkpt>
      <trkpt lat="43.17625" lon="1.00864">
        <ele>307</ele>
        <time>2024-09-15T10:14:19Z</time>
      </trkpt>
      <trkpt lat="43.17627" lon="1.00862">
        <ele>307.4</ele>
        <time>2024-09-15T10:14:20Z</time>
      </trkpt>
      <trkpt lat="43.17629" lon="1.0086">
        <ele>308</ele>
        <time>2024-09-15T10:14:21Z</time>
      </trkpt>
      <trkpt lat="43.17631" lon="1.00859">
        <ele>308.4</ele>
        <time>2024-09-15T10:14:22Z</time>
      </trkpt>
      <trkpt lat="43.17633" lon="1.00858">
        <ele>308.4</ele>
        <time>2024-09-15T10:14:23Z</time>
      </trkpt>
      <trkpt lat="43.17642" lon="1.00853">
        <ele>308.8</ele>
        <time>2024-09-15T10:14:27Z</time>
      </trkpt>
      <trkpt lat="43.17645" lon="1.00851">
        <ele>309.2</ele>
        <time>2024-09-15T10:14:28Z</time>
      </trkpt>
      <trkpt lat="43.17647" lon="1.00849">
        <ele>309.8</ele>
        <time>2024-09-15T10:14:29Z</time>
      </trkpt>
      <trkpt lat="43.17649" lon="1.00846">
        <ele>310.2</ele>
        <time>2024-09-15T10:14:30Z</time>
      </trkpt>
      <trkpt lat="43.17651" lon="1.00843">
        <ele>310.6</ele>
        <time>2024-09-15T10:14:31Z</time>
      </trkpt>
      <trkpt lat="43.17654" lon="1.00838">
        <ele>311</ele>
        <time>2024-09-15T10:14:33Z</time>
      </trkpt>
      <trkpt lat="43.17655" lon="1.00835">
        <ele>311.4</ele>
        <time>2024-09-15T10:14:34Z</time>
      </trkpt>
      <trkpt lat="43.17656" lon="1.00832">
        <ele>312</ele>
        <time>2024-09-15T10:14:35Z</time>
      </trkpt>
      <trkpt lat="43.17656" lon="1.0083">
        <ele>312.4</ele>
        <time>2024-09-15T10:14:36Z</time>
      </trkpt>
      <trkpt lat="43.17656" lon="1.00826">
        <ele>313.2</ele>
        <time>2024-09-15T10:14:37Z</time>
      </trkpt>
      <trkpt lat="43.17657" lon="1.00823">
        <ele>313.6</ele>
        <time>2024-09-15T10:14:38Z</time>
      </trkpt>
      <trkpt lat="43.17658" lon="1.00819">
        <ele>314</ele>
        <time>2024-09-15T10:14:39Z</time>
      </trkpt>
      <trkpt lat="43.17659" lon="1.00816">
        <ele>314.4</ele>
        <time>2024-09-15T10:14:40Z</time>
      </trkpt>
      <trkpt lat="43.17661" lon="1.00812">
        <ele>314.8</ele>
        <time>2024-09-15T10:14:41Z</time>
      </trkpt>
      <trkpt lat="43.17664" lon="1.00805">
        <ele>315.2</ele>
        <time>2024-09-15T10:14:43Z</time>
      </trkpt>
      <trkpt lat="43.17665" lon="1.00801">
        <ele>315.8</ele>
        <time>2024-09-15T10:14:44Z</time>
      </trkpt>
      <trkpt lat="43.17666" lon="1.00797">
        <ele>316.2</ele>
        <time>2024-09-15T10:14:45Z</time>
      </trkpt>
      <trkpt lat="43.17668" lon="1.00794">
        <ele>316.6</ele>
        <time>2024-09-15T10:14:46Z</time>
      </trkpt>
      <trkpt lat="43.17669" lon="1.00791">
        <ele>317</ele>
        <time>2024-09-15T10:14:47Z</time>
      </trkpt>
      <trkpt lat="43.1767" lon="1.00788">
        <ele>317.4</ele>
        <time>2024-09-15T10:14:48Z</time>
      </trkpt>
      <trkpt lat="43.17671" lon="1.00785">
        <ele>318</ele>
        <time>2024-09-15T10:14:49Z</time>
      </trkpt>
      <trkpt lat="43.17672" lon="1.00783">
        <ele>318.4</ele>
        <time>2024-09-15T10:14:50Z</time>
      </trkpt>
      <trkpt lat="43.17673" lon="1.0078">
        <ele>318.8</ele>
        <time>2024-09-15T10:14:51Z</time>
      </trkpt>
      <trkpt lat="43.17674" lon="1.00778">
        <ele>319.4</ele>
        <time>2024-09-15T10:14:52Z</time>
      </trkpt>
      <trkpt lat="43.17676" lon="1.00774">
        <ele>319.8</ele>
        <time>2024-09-15T10:14:54Z</time>
      </trkpt>
      <trkpt lat="43.17676" lon="1.00772">
        <ele>320.4</ele>
        <time>2024-09-15T10:14:55Z</time>
      </trkpt>
      <trkpt lat="43.17677" lon="1.00769">
        <ele>320.8</ele>
        <time>2024-09-15T10:14:56Z</time>
      </trkpt>
      <trkpt lat="43.17678" lon="1.00768">
        <ele>321.4</ele>
        <time>2024-09-15T10:14:57Z</time>
      </trkpt>
      <trkpt lat="43.17679" lon="1.00765">
        <ele>321.8</ele>
        <time>2024-09-15T10:14:58Z</time>
      </trkpt>
      <trkpt lat="43.17681" lon="1.00762">
        <ele>322.2</ele>
        <time>2024-09-15T10:15:00Z</time>
      </trkpt>
      <trkpt lat="43.17682" lon="1.0076">
        <ele>322.6</ele>
        <time>2024-09-15T10:15:01Z</time>
      </trkpt>
      <trkpt lat="43.17683" lon="1.00758">
        <ele>323.4</ele>
        <time>2024-09-15T10:15:02Z</time>
      </trkpt>
      <trkpt lat="43.17685" lon="1.00755">
        <ele>323.8</ele>
        <time>2024-09-15T10:15:03Z</time>
      </trkpt>
      <trkpt lat="43.17687" lon="1.00752">
        <ele>323.8</ele>
        <time>2024-09-15T10:15:04Z</time>
      </trkpt>
      <trkpt lat="43.17691" lon="1.00745">
        <ele>324.2</ele>
        <time>2024-09-15T10:15:07Z</time>
      </trkpt>
      <trkpt lat="43.17692" lon="1.00742">
        <ele>324.8</ele>
        <time>2024-09-15T10:15:08Z</time>
      </trkpt>
      <trkpt lat="43.17693" lon="1.00739">
        <ele>325.2</ele>
        <time>2024-09-15T10:15:09Z</time>
      </trkpt>
      <trkpt lat="43.17695" lon="1.00735">
        <ele>325.6</ele>
        <time>2024-09-15T10:15:10Z</time>
      </trkpt>
      <trkpt lat="43.17697" lon="1.00731">
        <ele>326</ele>
        <time>2024-09-15T10:15:11Z</time>
      </trkpt>
      <trkpt lat="43.177" lon="1.00724">
        <ele>326.4</ele>
        <time>2024-09-15T10:15:14Z</time>
      </trkpt>
      <trkpt lat="43.17701" lon="1.00722">
        <ele>326.8</ele>
        <time>2024-09-15T10:15:15Z</time>
      </trkpt>
      <trkpt lat="43.17703" lon="1.0072">
        <ele>327.2</ele>
        <time>2024-09-15T10:15:16Z</time>
      </trkpt>
      <trkpt lat="43.17704" lon="1.00718">
        <ele>327.6</ele>
        <time>2024-09-15T10:15:17Z</time>
      </trkpt>
      <trkpt lat="43.17706" lon="1.00716">
        <ele>328</ele>
        <time>2024-09-15T10:15:18Z</time>
      </trkpt>
      <trkpt lat="43.1771" lon="1.00711">
        <ele>328.6</ele>
        <time>2024-09-15T10:15:21Z</time>
      </trkpt>
      <trkpt lat="43.17712" lon="1.0071">
        <ele>329</ele>
        <time>2024-09-15T10:15:22Z</time>
      </trkpt>
      <trkpt lat="43.17714" lon="1.00709">
        <ele>329.4</ele>
        <time>2024-09-15T10:15:23Z</time>
      </trkpt>
      <trkpt lat="43.17715" lon="1.00708">
        <ele>329.8</ele>
        <time>2024-09-15T10:15:24Z</time>
      </trkpt>
      <trkpt lat="43.17717" lon="1.00706">
        <ele>330.2</ele>
        <time>2024-09-15T10:15:25Z</time>
      </trkpt>
      <trkpt lat="43.17721" lon="1.00702">
        <ele>330.6</ele>
        <time>2024-09-15T10:15:27Z</time>
      </trkpt>
      <trkpt lat="43.17723" lon="1.007">
        <ele>331</ele>
        <time>2024-09-15T10:15:28Z</time>
      </trkpt>
      <trkpt lat="43.17725" lon="1.00699">
        <ele>331.4</ele>
        <time>2024-09-15T10:15:29Z</time>
      </trkpt>
      <trkpt lat="43.17727" lon="1.00697">
        <ele>331.8</ele>
        <time>2024-09-15T10:15:30Z</time>
      </trkpt>
      <trkpt lat="43.17729" lon="1.00696">
        <ele>332.2</ele>
        <time>2024-09-15T10:15:31Z</time>
      </trkpt>
      <trkpt lat="43.17735" lon="1.00691">
        <ele>332.2</ele>
        <time>2024-09-15T10:15:35Z</time>
      </trkpt>
      <trkpt lat="43.17737" lon="1.00689">
        <ele>332.8</ele>
        <time>2024-09-15T10:15:37Z</time>
      </trkpt>
      <trkpt lat="43.17739" lon="1.00688">
        <ele>333.2</ele>
        <time>2024-09-15T10:15:38Z</time>
      </trkpt>
      <trkpt lat="43.17741" lon="1.00686">
        <ele>333.6</ele>
        <time>2024-09-15T10:15:39Z</time>
      </trkpt>
      <trkpt lat="43.17743" lon="1.00685">
        <ele>334</ele>
        <time>2024-09-15T10:15:40Z</time>
      </trkpt>
      <trkpt lat="43.17745" lon="1.00683">
        <ele>334.4</ele>
        <time>2024-09-15T10:15:41Z</time>
      </trkpt>
      <trkpt lat="43.17752" lon="1.00676">
        <ele>334.8</ele>
        <time>2024-09-15T10:15:46Z</time>
      </trkpt>
      <trkpt lat="43.17753" lon="1.00674">
        <ele>335.2</ele>
        <time>2024-09-15T10:15:47Z</time>
      </trkpt>
      <trkpt lat="43.17755" lon="1.00672">
        <ele>335.6</ele>
        <time>2024-09-15T10:15:48Z</time>
      </trkpt>
      <trkpt lat="43.17756" lon="1.00669">
        <ele>336.2</ele>
        <time>2024-09-15T10:15:49Z</time>
      </trkpt>
      <trkpt lat="43.17758" lon="1.00666">
        <ele>336.6</ele>
        <time>2024-09-15T10:15:50Z</time>
      </trkpt>
      <trkpt lat="43.1776" lon="1.00656">
        <ele>336.6</ele>
        <time>2024-09-15T10:15:54Z</time>
      </trkpt>
      <trkpt lat="43.17762" lon="1.00649">
        <ele>337</ele>
        <time>2024-09-15T10:15:57Z</time>
      </trkpt>
      <trkpt lat="43.17762" lon="1.00646">
        <ele>337.4</ele>
        <time>2024-09-15T10:15:58Z</time>
      </trkpt>
      <trkpt lat="43.17762" lon="1.00643">
        <ele>337.8</ele>
        <time>2024-09-15T10:15:59Z</time>
      </trkpt>
      <trkpt lat="43.17762" lon="1.00639">
        <ele>338.2</ele>
        <time>2024-09-15T10:16:00Z</time>
      </trkpt>
      <trkpt lat="43.17762" lon="1.00637">
        <ele>338.6</ele>
        <time>2024-09-15T10:16:01Z</time>
      </trkpt>
      <trkpt lat="43.1776" lon="1.00615">
        <ele>338.6</ele>
        <time>2024-09-15T10:16:08Z</time>
      </trkpt>
      <trkpt lat="43.17757" lon="1.00597">
        <ele>338.6</ele>
        <time>2024-09-15T10:16:14Z</time>
      </trkpt>
      <trkpt lat="43.17758" lon="1.00588">
        <ele>339</ele>
        <time>2024-09-15T10:16:17Z</time>
      </trkpt>
      <trkpt lat="43.17758" lon="1.00585">
        <ele>339.4</ele>
        <time>2024-09-15T10:16:18Z</time>
      </trkpt>
      <trkpt lat="43.17758" lon="1.00583">
        <ele>339.8</ele>
        <time>2024-09-15T10:16:19Z</time>
      </trkpt>
      <trkpt lat="43.17758" lon="1.00581">
        <ele>340.2</ele>
        <time>2024-09-15T10:16:20Z</time>
      </trkpt>
      <trkpt lat="43.17759" lon="1.00579">
        <ele>340.6</ele>
        <time>2024-09-15T10:16:21Z</time>
      </trkpt>
      <trkpt lat="43.17761" lon="1.00575">
        <ele>340.6</ele>
        <time>2024-09-15T10:16:23Z</time>
      </trkpt>
      <trkpt lat="43.17765" lon="1.00572">
        <ele>340.6</ele>
        <time>2024-09-15T10:16:25Z</time>
      </trkpt>
      <trkpt lat="43.17767" lon="1.00571">
        <ele>341</ele>
        <time>2024-09-15T10:16:26Z</time>
      </trkpt>
      <trkpt lat="43.17769" lon="1.0057">
        <ele>341.4</ele>
        <time>2024-09-15T10:16:27Z</time>
      </trkpt>
      <trkpt lat="43.17771" lon="1.00569">
        <ele>341.8</ele>
        <time>2024-09-15T10:16:28Z</time>
      </trkpt>
      <trkpt lat="43.17774" lon="1.00568">
        <ele>342.4</ele>
        <time>2024-09-15T10:16:29Z</time>
      </trkpt>
      <trkpt lat="43.17776" lon="1.00568">
        <ele>342.8</ele>
        <time>2024-09-15T10:16:30Z</time>
      </trkpt>
      <trkpt lat="43.17778" lon="1.00567">
        <ele>342.8</ele>
        <time>2024-09-15T10:16:31Z</time>
      </trkpt>
      <trkpt lat="43.17794" lon="1.00568">
        <ele>342.8</ele>
        <time>2024-09-15T10:16:38Z</time>
      </trkpt>
      <trkpt lat="43.17796" lon="1.00568">
        <ele>343.2</ele>
        <time>2024-09-15T10:16:39Z</time>
      </trkpt>
      <trkpt lat="43.17798" lon="1.00568">
        <ele>343.6</ele>
        <time>2024-09-15T10:16:40Z</time>
      </trkpt>
      <trkpt lat="43.17801" lon="1.00569">
        <ele>344.4</ele>
        <time>2024-09-15T10:16:41Z</time>
      </trkpt>
      <trkpt lat="43.17803" lon="1.00569">
        <ele>344.8</ele>
        <time>2024-09-15T10:16:42Z</time>
      </trkpt>
      <trkpt lat="43.17811" lon="1.0057">
        <ele>344.8</ele>
        <time>2024-09-15T10:16:45Z</time>
      </trkpt>
      <trkpt lat="43.17825" lon="1.00575">
        <ele>344.8</ele>
        <time>2024-09-15T10:16:51Z</time>
      </trkpt>
      <trkpt lat="43.1784" lon="1.00586">
        <ele>344.8</ele>
        <time>2024-09-15T10:16:58Z</time>
      </trkpt>
      <trkpt lat="43.17848" lon="1.00594">
        <ele>344.8</ele>
        <time>2024-09-15T10:17:02Z</time>
      </trkpt>
      <trkpt lat="43.1785" lon="1.00596">
        <ele>344.8</ele>
        <time>2024-09-15T10:17:03Z</time>
      </trkpt>
      <trkpt lat="43.17854" lon="1.00602">
        <ele>344.8</ele>
        <time>2024-09-15T10:17:08Z</time>
      </trkpt>
      <trkpt lat="43.17855" lon="1.00604">
        <ele>344.8</ele>
        <time>2024-09-15T10:17:59Z</time>
      </trkpt>
      <trkpt lat="43.17856" lon="1.00613">
        <ele>345.2</ele>
        <time>2024-09-15T10:18:02Z</time>
      </trkpt>
      <trkpt lat="43.17856" lon="1.00615">
        <ele>345.6</ele>
        <time>2024-09-15T10:18:03Z</time>
      </trkpt>
      <trkpt lat="43.17857" lon="1.00619">
        <ele>346.2</ele>
        <time>2024-09-15T10:18:04Z</time>
      </trkpt>
      <trkpt lat="43.17858" lon="1.00623">
        <ele>346.6</ele>
        <time>2024-09-15T10:18:05Z</time>
      </trkpt>
      <trkpt lat="43.17861" lon="1.00628">
        <ele>344</ele>
        <time>2024-08-12T07:39:48Z</time>
        <extensions>
          <visugpx:TrkExtension xmlns:visugpx="https://www.visugpx.com/editgpx/">
            <visugpx:node>1</visugpx:node>
            </visugpx:TrkExtension>
        </extensions>
      </trkpt>
      <trkpt lat="43.17863" lon="1.00639">
        <ele>344</ele>
        <time>2024-08-12T07:39:52Z</time>
      </trkpt>
      <trkpt lat="43.17863" lon="1.00645">
        <ele>344.4</ele>
        <time>2024-08-12T07:39:54Z</time>
      </trkpt>
      <trkpt lat="43.17863" lon="1.00648">
        <ele>344.8</ele>
        <time>2024-08-12T07:39:55Z</time>
      </trkpt>
      <trkpt lat="43.17864" lon="1.00651">
        <ele>345.4</ele>
        <time>2024-08-12T07:39:56Z</time>
      </trkpt>
      <trkpt lat="43.17864" lon="1.00654">
        <ele>345.8</ele>
        <time>2024-08-12T07:39:57Z</time>
      </trkpt>
      <trkpt lat="43.17864" lon="1.00658">
        <ele>346.2</ele>
        <time>2024-08-12T07:39:58Z</time>
      </trkpt>
      <trkpt lat="43.17864" lon="1.00676">
        <ele>346.2</ele>
        <time>2024-08-12T07:40:02Z</time>
      </trkpt>
      <trkpt lat="43.17863" lon="1.00697">
        <ele>346.2</ele>
        <time>2024-08-12T07:40:07Z</time>
      </trkpt>
      <trkpt lat="43.17862" lon="1.00721">
        <ele>346.2</ele>
        <time>2024-08-12T07:40:13Z</time>
      </trkpt>
      <trkpt lat="43.17862" lon="1.00724">
        <ele>346.6</ele>
        <time>2024-08-12T07:40:14Z</time>
      </trkpt>
      <trkpt lat="43.17862" lon="1.00727">
        <ele>347</ele>
        <time>2024-08-12T07:40:15Z</time>
      </trkpt>
      <trkpt lat="43.17861" lon="1.00731">
        <ele>347.4</ele>
        <time>2024-08-12T07:40:16Z</time>
      </trkpt>
      <trkpt lat="43.17861" lon="1.00734">
        <ele>348</ele>
        <time>2024-08-12T07:40:17Z</time>
      </trkpt>
      <trkpt lat="43.17861" lon="1.00737">
        <ele>348.4</ele>
        <time>2024-08-12T07:40:18Z</time>
      </trkpt>
      <trkpt lat="43.17861" lon="1.0074">
        <ele>348.4</ele>
        <time>2024-08-12T07:40:19Z</time>
      </trkpt>
      <trkpt lat="43.17861" lon="1.00742">
        <ele>348.8</ele>
        <time>2024-08-12T07:40:20Z</time>
      </trkpt>
      <trkpt lat="43.17862" lon="1.00745">
        <ele>349.2</ele>
        <time>2024-08-12T07:40:21Z</time>
      </trkpt>
      <trkpt lat="43.17862" lon="1.00749">
        <ele>349.8</ele>
        <time>2024-08-12T07:40:22Z</time>
      </trkpt>
      <trkpt lat="43.17863" lon="1.00752">
        <ele>350.2</ele>
        <time>2024-08-12T07:40:23Z</time>
      </trkpt>
      <trkpt lat="43.17863" lon="1.00756">
        <ele>350.6</ele>
        <time>2024-08-12T07:40:24Z</time>
      </trkpt>
      <trkpt lat="43.17863" lon="1.00765">
        <ele>351</ele>
        <time>2024-08-12T07:40:27Z</time>
      </trkpt>
      <trkpt lat="43.17864" lon="1.00768">
        <ele>351.8</ele>
        <time>2024-08-12T07:40:28Z</time>
      </trkpt>
      <trkpt lat="43.17864" lon="1.00771">
        <ele>352.2</ele>
        <time>2024-08-12T07:40:29Z</time>
      </trkpt>
      <trkpt lat="43.17865" lon="1.00774">
        <ele>352.6</ele>
        <time>2024-08-12T07:40:30Z</time>
      </trkpt>
      <trkpt lat="43.17868" lon="1.00788">
        <ele>352.6</ele>
        <time>2024-08-12T07:40:34Z</time>
      </trkpt>
      <trkpt lat="43.17868" lon="1.00791">
        <ele>353</ele>
        <time>2024-08-12T07:40:35Z</time>
      </trkpt>
      <trkpt lat="43.1787" lon="1.00795">
        <ele>353.4</ele>
        <time>2024-08-12T07:40:36Z</time>
      </trkpt>
      <trkpt lat="43.17871" lon="1.00799">
        <ele>353.8</ele>
        <time>2024-08-12T07:40:37Z</time>
      </trkpt>
      <trkpt lat="43.17872" lon="1.00802">
        <ele>354.2</ele>
        <time>2024-08-12T07:40:38Z</time>
      </trkpt>
      <trkpt lat="43.17873" lon="1.00806">
        <ele>354.6</ele>
        <time>2024-08-12T07:40:39Z</time>
      </trkpt>
      <trkpt lat="43.17881" lon="1.00828">
        <ele>354.6</ele>
        <time>2024-08-12T07:40:45Z</time>
      </trkpt>
      <trkpt lat="43.17881" lon="1.00832">
        <ele>355</ele>
        <time>2024-08-12T07:40:46Z</time>
      </trkpt>
      <trkpt lat="43.17883" lon="1.00835">
        <ele>355.4</ele>
        <time>2024-08-12T07:40:47Z</time>
      </trkpt>
      <trkpt lat="43.17883" lon="1.00838">
        <ele>355.8</ele>
        <time>2024-08-12T07:40:48Z</time>
      </trkpt>
      <trkpt lat="43.17884" lon="1.0084">
        <ele>356.2</ele>
        <time>2024-08-12T07:40:49Z</time>
      </trkpt>
      <trkpt lat="43.17885" lon="1.00843">
        <ele>356.6</ele>
        <time>2024-08-12T07:40:50Z</time>
      </trkpt>
      <trkpt lat="43.17889" lon="1.00857">
        <ele>357.2</ele>
        <time>2024-08-12T07:40:55Z</time>
      </trkpt>
      <trkpt lat="43.17891" lon="1.0086">
        <ele>357.6</ele>
        <time>2024-08-12T07:40:56Z</time>
      </trkpt>
      <trkpt lat="43.17892" lon="1.00862">
        <ele>358</ele>
        <time>2024-08-12T07:40:57Z</time>
      </trkpt>
      <trkpt lat="43.17893" lon="1.00865">
        <ele>358.4</ele>
        <time>2024-08-12T07:40:58Z</time>
      </trkpt>
      <trkpt lat="43.17894" lon="1.00867">
        <ele>358.8</ele>
        <time>2024-08-12T07:40:59Z</time>
      </trkpt>
      <trkpt lat="43.17896" lon="1.00874">
        <ele>358.8</ele>
        <time>2024-08-12T07:41:01Z</time>
      </trkpt>
      <trkpt lat="43.17897" lon="1.00877">
        <ele>359.2</ele>
        <time>2024-08-12T07:41:02Z</time>
      </trkpt>
      <trkpt lat="43.17898" lon="1.0088">
        <ele>359.6</ele>
        <time>2024-08-12T07:41:03Z</time>
      </trkpt>
      <trkpt lat="43.17898" lon="1.00882">
        <ele>360.2</ele>
        <time>2024-08-12T07:41:04Z</time>
      </trkpt>
      <trkpt lat="43.17898" lon="1.00885">
        <ele>360.6</ele>
        <time>2024-08-12T07:41:05Z</time>
      </trkpt>
      <trkpt lat="43.17899" lon="1.00887">
        <ele>361</ele>
        <time>2024-08-12T07:41:06Z</time>
      </trkpt>
      <trkpt lat="43.179" lon="1.0089">
        <ele>361</ele>
        <time>2024-08-12T07:41:07Z</time>
      </trkpt>
      <trkpt lat="43.17901" lon="1.00892">
        <ele>361.4</ele>
        <time>2024-08-12T07:41:08Z</time>
      </trkpt>
      <trkpt lat="43.17901" lon="1.00894">
        <ele>361.8</ele>
        <time>2024-08-12T07:41:09Z</time>
      </trkpt>
      <trkpt lat="43.17901" lon="1.00898">
        <ele>362.2</ele>
        <time>2024-08-12T07:41:10Z</time>
      </trkpt>
      <trkpt lat="43.17902" lon="1.009">
        <ele>362.6</ele>
        <time>2024-08-12T07:41:11Z</time>
      </trkpt>
      <trkpt lat="43.17902" lon="1.00903">
        <ele>363.2</ele>
        <time>2024-08-12T07:41:12Z</time>
      </trkpt>
      <trkpt lat="43.17902" lon="1.00905">
        <ele>363.6</ele>
        <time>2024-08-12T07:41:13Z</time>
      </trkpt>
      <trkpt lat="43.17903" lon="1.00908">
        <ele>364</ele>
        <time>2024-08-12T07:41:14Z</time>
      </trkpt>
      <trkpt lat="43.17902" lon="1.00912">
        <ele>364.6</ele>
        <time>2024-08-12T07:41:15Z</time>
      </trkpt>
      <trkpt lat="43.17903" lon="1.00915">
        <ele>365</ele>
        <time>2024-08-12T07:41:16Z</time>
      </trkpt>
      <trkpt lat="43.17903" lon="1.00919">
        <ele>365.4</ele>
        <time>2024-08-12T07:41:17Z</time>
      </trkpt>
      <trkpt lat="43.17904" lon="1.00922">
        <ele>365.8</ele>
        <time>2024-08-12T07:41:18Z</time>
      </trkpt>
      <trkpt lat="43.17904" lon="1.00924">
        <ele>366.2</ele>
        <time>2024-08-12T07:41:19Z</time>
      </trkpt>
      <trkpt lat="43.17904" lon="1.00927">
        <ele>366.6</ele>
        <time>2024-08-12T07:41:20Z</time>
      </trkpt>
      <trkpt lat="43.17904" lon="1.00931">
        <ele>367</ele>
        <time>2024-08-12T07:41:21Z</time>
      </trkpt>
      <trkpt lat="43.17904" lon="1.00934">
        <ele>367.4</ele>
        <time>2024-08-12T07:41:22Z</time>
      </trkpt>
      <trkpt lat="43.17905" lon="1.0094">
        <ele>368</ele>
        <time>2024-08-12T07:41:24Z</time>
      </trkpt>
      <trkpt lat="43.17906" lon="1.00943">
        <ele>368.4</ele>
        <time>2024-08-12T07:41:25Z</time>
      </trkpt>
      <trkpt lat="43.17906" lon="1.00946">
        <ele>369</ele>
        <time>2024-08-12T07:41:26Z</time>
      </trkpt>
      <trkpt lat="43.17907" lon="1.00949">
        <ele>369.4</ele>
        <time>2024-08-12T07:41:27Z</time>
      </trkpt>
      <trkpt lat="43.17908" lon="1.00952">
        <ele>370</ele>
        <time>2024-08-12T07:41:28Z</time>
      </trkpt>
      <trkpt lat="43.17911" lon="1.00956">
        <ele>370.4</ele>
        <time>2024-08-12T07:41:30Z</time>
      </trkpt>
      <trkpt lat="43.17913" lon="1.00958">
        <ele>370.8</ele>
        <time>2024-08-12T07:41:31Z</time>
      </trkpt>
      <trkpt lat="43.17914" lon="1.00961">
        <ele>371.4</ele>
        <time>2024-08-12T07:41:32Z</time>
      </trkpt>
      <trkpt lat="43.17915" lon="1.00964">
        <ele>371.8</ele>
        <time>2024-08-12T07:41:33Z</time>
      </trkpt>
      <trkpt lat="43.17916" lon="1.00965">
        <ele>372.2</ele>
        <time>2024-08-12T07:41:34Z</time>
      </trkpt>
      <trkpt lat="43.17917" lon="1.00968">
        <ele>372.8</ele>
        <time>2024-08-12T07:41:35Z</time>
      </trkpt>
      <trkpt lat="43.17918" lon="1.0097">
        <ele>373.2</ele>
        <time>2024-08-12T07:41:36Z</time>
      </trkpt>
      <trkpt lat="43.17918" lon="1.00972">
        <ele>373.6</ele>
        <time>2024-08-12T07:41:37Z</time>
      </trkpt>
      <trkpt lat="43.17919" lon="1.00974">
        <ele>374.2</ele>
        <time>2024-08-12T07:41:38Z</time>
      </trkpt>
      <trkpt lat="43.1792" lon="1.00976">
        <ele>374.6</ele>
        <time>2024-08-12T07:41:39Z</time>
      </trkpt>
      <trkpt lat="43.17921" lon="1.00979">
        <ele>375.2</ele>
        <time>2024-08-12T07:41:40Z</time>
      </trkpt>
      <trkpt lat="43.17921" lon="1.00981">
        <ele>375.6</ele>
        <time>2024-08-12T07:41:41Z</time>
      </trkpt>
      <trkpt lat="43.17921" lon="1.00984">
        <ele>376.4</ele>
        <time>2024-08-12T07:41:42Z</time>
      </trkpt>
      <trkpt lat="43.1792" lon="1.00987">
        <ele>377</ele>
        <time>2024-08-12T07:41:43Z</time>
      </trkpt>
      <trkpt lat="43.17922" lon="1.00999">
        <ele>377.4</ele>
        <time>2024-08-12T07:41:47Z</time>
      </trkpt>
      <trkpt lat="43.17922" lon="1.01002">
        <ele>377.8</ele>
        <time>2024-08-12T07:41:48Z</time>
      </trkpt>
      <trkpt lat="43.17922" lon="1.01005">
        <ele>378.2</ele>
        <time>2024-08-12T07:41:49Z</time>
      </trkpt>
      <trkpt lat="43.17922" lon="1.01008">
        <ele>378.6</ele>
        <time>2024-08-12T07:41:50Z</time>
      </trkpt>
      <trkpt lat="43.17922" lon="1.0101">
        <ele>379.2</ele>
        <time>2024-08-12T07:41:51Z</time>
      </trkpt>
      <trkpt lat="43.17924" lon="1.01021">
        <ele>379.6</ele>
        <time>2024-08-12T07:41:55Z</time>
      </trkpt>
      <trkpt lat="43.17924" lon="1.01023">
        <ele>380</ele>
        <time>2024-08-12T07:41:56Z</time>
      </trkpt>
      <trkpt lat="43.17925" lon="1.01026">
        <ele>380.4</ele>
        <time>2024-08-12T07:41:57Z</time>
      </trkpt>
      <trkpt lat="43.17925" lon="1.01029">
        <ele>380.8</ele>
        <time>2024-08-12T07:41:58Z</time>
      </trkpt>
      <trkpt lat="43.17925" lon="1.01032">
        <ele>381.2</ele>
        <time>2024-08-12T07:41:59Z</time>
      </trkpt>
      <trkpt lat="43.17926" lon="1.0104">
        <ele>381.6</ele>
        <time>2024-08-12T07:42:02Z</time>
      </trkpt>
      <trkpt lat="43.17926" lon="1.01043">
        <ele>382</ele>
        <time>2024-08-12T07:42:03Z</time>
      </trkpt>
      <trkpt lat="43.17927" lon="1.01045">
        <ele>382.6</ele>
        <time>2024-08-12T07:42:04Z</time>
      </trkpt>
      <trkpt lat="43.17927" lon="1.01047">
        <ele>383</ele>
        <time>2024-08-12T07:42:05Z</time>
      </trkpt>
      <trkpt lat="43.17927" lon="1.0105">
        <ele>383.4</ele>
        <time>2024-08-12T07:42:06Z</time>
      </trkpt>
      <trkpt lat="43.17926" lon="1.01053">
        <ele>383.4</ele>
        <time>2024-08-12T07:42:08Z</time>
      </trkpt>
      <trkpt lat="43.17926" lon="1.01055">
        <ele>383.4</ele>
        <time>2024-08-12T07:42:09Z</time>
      </trkpt>
      <trkpt lat="43.17926" lon="1.01058">
        <ele>383.8</ele>
        <time>2024-08-12T07:42:10Z</time>
      </trkpt>
      <trkpt lat="43.17927" lon="1.01061">
        <ele>384.4</ele>
        <time>2024-08-12T07:42:11Z</time>
      </trkpt>
      <trkpt lat="43.17927" lon="1.01064">
        <ele>384.8</ele>
        <time>2024-08-12T07:42:12Z</time>
      </trkpt>
      <trkpt lat="43.17927" lon="1.01067">
        <ele>385.2</ele>
        <time>2024-08-12T07:42:13Z</time>
      </trkpt>
      <trkpt lat="43.17927" lon="1.0107">
        <ele>385.8</ele>
        <time>2024-08-12T07:42:14Z</time>
      </trkpt>
      <trkpt lat="43.17928" lon="1.01081">
        <ele>385.8</ele>
        <time>2024-08-12T07:42:18Z</time>
      </trkpt>
      <trkpt lat="43.17927" lon="1.01084">
        <ele>386.2</ele>
        <time>2024-08-12T07:42:19Z</time>
      </trkpt>
      <trkpt lat="43.17927" lon="1.01086">
        <ele>386.6</ele>
        <time>2024-08-12T07:42:20Z</time>
      </trkpt>
      <trkpt lat="43.17926" lon="1.01089">
        <ele>387</ele>
        <time>2024-08-12T07:42:21Z</time>
      </trkpt>
      <trkpt lat="43.17926" lon="1.01092">
        <ele>387.4</ele>
        <time>2024-08-12T07:42:22Z</time>
      </trkpt>
      <trkpt lat="43.17926" lon="1.01095">
        <ele>387.8</ele>
        <time>2024-08-12T07:42:23Z</time>
      </trkpt>
      <trkpt lat="43.17926" lon="1.01102">
        <ele>387.8</ele>
        <time>2024-08-12T07:42:26Z</time>
      </trkpt>
      <trkpt lat="43.17926" lon="1.01109">
        <ele>388.2</ele>
        <time>2024-08-12T07:42:29Z</time>
      </trkpt>
      <trkpt lat="43.17926" lon="1.01112">
        <ele>388.6</ele>
        <time>2024-08-12T07:42:30Z</time>
      </trkpt>
      <trkpt lat="43.17925" lon="1.01115">
        <ele>389</ele>
        <time>2024-08-12T07:42:31Z</time>
      </trkpt>
      <trkpt lat="43.17925" lon="1.01118">
        <ele>389.8</ele>
        <time>2024-08-12T07:42:32Z</time>
      </trkpt>
      <trkpt lat="43.17925" lon="1.01121">
        <ele>389.8</ele>
        <time>2024-08-12T07:42:33Z</time>
      </trkpt>
      <trkpt lat="43.17924" lon="1.01132">
        <ele>390.2</ele>
        <time>2024-08-12T07:42:37Z</time>
      </trkpt>
      <trkpt lat="43.17924" lon="1.01135">
        <ele>390.6</ele>
        <time>2024-08-12T07:42:38Z</time>
      </trkpt>
      <trkpt lat="43.17924" lon="1.01137">
        <ele>391</ele>
        <time>2024-08-12T07:42:39Z</time>
      </trkpt>
      <trkpt lat="43.17924" lon="1.0114">
        <ele>391.6</ele>
        <time>2024-08-12T07:42:40Z</time>
      </trkpt>
      <trkpt lat="43.17924" lon="1.01143">
        <ele>392</ele>
        <time>2024-08-12T07:42:41Z</time>
      </trkpt>
      <trkpt lat="43.17925" lon="1.01152">
        <ele>392.4</ele>
        <time>2024-08-12T07:42:45Z</time>
      </trkpt>
      <trkpt lat="43.17926" lon="1.01154">
        <ele>392.8</ele>
        <time>2024-08-12T07:42:46Z</time>
      </trkpt>
      <trkpt lat="43.17926" lon="1.01157">
        <ele>393.2</ele>
        <time>2024-08-12T07:42:47Z</time>
      </trkpt>
      <trkpt lat="43.17926" lon="1.0116">
        <ele>393.6</ele>
        <time>2024-08-12T07:42:48Z</time>
      </trkpt>
      <trkpt lat="43.17926" lon="1.01163">
        <ele>394</ele>
        <time>2024-08-12T07:42:49Z</time>
      </trkpt>
      <trkpt lat="43.17926" lon="1.01166">
        <ele>394.4</ele>
        <time>2024-08-12T07:42:50Z</time>
      </trkpt>
      <trkpt lat="43.17926" lon="1.0117">
        <ele>394.8</ele>
        <time>2024-08-12T07:42:51Z</time>
      </trkpt>
      <trkpt lat="43.17926" lon="1.01174">
        <ele>395.2</ele>
        <time>2024-08-12T07:42:52Z</time>
      </trkpt>
      <trkpt lat="43.17926" lon="1.01177">
        <ele>395.6</ele>
        <time>2024-08-12T07:42:53Z</time>
      </trkpt>
      <trkpt lat="43.17926" lon="1.0118">
        <ele>396</ele>
        <time>2024-08-12T07:42:54Z</time>
      </trkpt>
      <trkpt lat="43.17926" lon="1.01188">
        <ele>396</ele>
        <time>2024-08-12T07:42:56Z</time>
      </trkpt>
      <trkpt lat="43.17925" lon="1.01198">
        <ele>396.6</ele>
        <time>2024-08-12T07:42:59Z</time>
      </trkpt>
      <trkpt lat="43.17925" lon="1.012">
        <ele>397</ele>
        <time>2024-08-12T07:43:00Z</time>
      </trkpt>
      <trkpt lat="43.17925" lon="1.01203">
        <ele>397.4</ele>
        <time>2024-08-12T07:43:01Z</time>
      </trkpt>
      <trkpt lat="43.17925" lon="1.01206">
        <ele>397.8</ele>
        <time>2024-08-12T07:43:02Z</time>
      </trkpt>
      <trkpt lat="43.17925" lon="1.01208">
        <ele>398.2</ele>
        <time>2024-08-12T07:43:03Z</time>
      </trkpt>
      <trkpt lat="43.17924" lon="1.01227">
        <ele>398.8</ele>
        <time>2024-08-12T07:43:09Z</time>
      </trkpt>
      <trkpt lat="43.17924" lon="1.0123">
        <ele>399.2</ele>
        <time>2024-08-12T07:43:10Z</time>
      </trkpt>
      <trkpt lat="43.17924" lon="1.01233">
        <ele>399.6</ele>
        <time>2024-08-12T07:43:11Z</time>
      </trkpt>
      <trkpt lat="43.17924" lon="1.01235">
        <ele>400</ele>
        <time>2024-08-12T07:43:12Z</time>
      </trkpt>
      <trkpt lat="43.17924" lon="1.01237">
        <ele>400.4</ele>
        <time>2024-08-12T07:43:13Z</time>
      </trkpt>
      <trkpt lat="43.17924" lon="1.01246">
        <ele>400.4</ele>
        <time>2024-08-12T07:43:16Z</time>
      </trkpt>
      <trkpt lat="43.17923" lon="1.01259">
        <ele>400.8</ele>
        <time>2024-08-12T07:43:20Z</time>
      </trkpt>
      <trkpt lat="43.17923" lon="1.01263">
        <ele>401.6</ele>
        <time>2024-08-12T07:43:21Z</time>
      </trkpt>
      <trkpt lat="43.17923" lon="1.01265">
        <ele>402</ele>
        <time>2024-08-12T07:43:22Z</time>
      </trkpt>
      <trkpt lat="43.17923" lon="1.01269">
        <ele>402.4</ele>
        <time>2024-08-12T07:43:23Z</time>
      </trkpt>
      <trkpt lat="43.1792" lon="1.01284">
        <ele>402.4</ele>
        <time>2024-08-12T07:43:28Z</time>
      </trkpt>
      <trkpt lat="43.1792" lon="1.01294">
        <ele>403</ele>
        <time>2024-08-12T07:43:31Z</time>
      </trkpt>
      <trkpt lat="43.1792" lon="1.01296">
        <ele>403.4</ele>
        <time>2024-08-12T07:43:32Z</time>
      </trkpt>
      <trkpt lat="43.1792" lon="1.01298">
        <ele>403.8</ele>
        <time>2024-08-12T07:43:33Z</time>
      </trkpt>
      <trkpt lat="43.17919" lon="1.01301">
        <ele>404.2</ele>
        <time>2024-08-12T07:43:34Z</time>
      </trkpt>
      <trkpt lat="43.17919" lon="1.01304">
        <ele>404.6</ele>
        <time>2024-08-12T07:43:35Z</time>
      </trkpt>
      <trkpt lat="43.17916" lon="1.0132">
        <ele>404.6</ele>
        <time>2024-08-12T07:43:40Z</time>
      </trkpt>
      <trkpt lat="43.17915" lon="1.01343">
        <ele>404.6</ele>
        <time>2024-08-12T07:43:46Z</time>
      </trkpt>
      <trkpt lat="43.17915" lon="1.01355">
        <ele>405</ele>
        <time>2024-08-12T07:43:49Z</time>
      </trkpt>
      <trkpt lat="43.17914" lon="1.01358">
        <ele>405.4</ele>
        <time>2024-08-12T07:43:50Z</time>
      </trkpt>
      <trkpt lat="43.17914" lon="1.01362">
        <ele>405.8</ele>
        <time>2024-08-12T07:43:51Z</time>
      </trkpt>
      <trkpt lat="43.17913" lon="1.01366">
        <ele>406.2</ele>
        <time>2024-08-12T07:43:52Z</time>
      </trkpt>
      <trkpt lat="43.17913" lon="1.01369">
        <ele>406.6</ele>
        <time>2024-08-12T07:43:53Z</time>
      </trkpt>
      <trkpt lat="43.17911" lon="1.01388">
        <ele>406.6</ele>
        <time>2024-08-12T07:43:58Z</time>
      </trkpt>
      <trkpt lat="43.17907" lon="1.01412">
        <ele>406.6</ele>
        <time>2024-08-12T07:44:03Z</time>
      </trkpt>
      <trkpt lat="43.17905" lon="1.0144">
        <ele>406.6</ele>
        <time>2024-08-12T07:44:09Z</time>
      </trkpt>
      <trkpt lat="43.179" lon="1.01474">
        <ele>406.6</ele>
        <time>2024-08-12T07:44:14Z</time>
      </trkpt>
      <trkpt lat="43.17897" lon="1.015">
        <ele>406.2</ele>
        <time>2024-08-12T07:44:17Z</time>
      </trkpt>
      <trkpt lat="43.17896" lon="1.01509">
        <ele>405.8</ele>
        <time>2024-08-12T07:44:18Z</time>
      </trkpt>
      <trkpt lat="43.17895" lon="1.01518">
        <ele>405.4</ele>
        <time>2024-08-12T07:44:19Z</time>
      </trkpt>
      <trkpt lat="43.17894" lon="1.01526">
        <ele>405</ele>
        <time>2024-08-12T07:44:20Z</time>
      </trkpt>
      <trkpt lat="43.17894" lon="1.01534">
        <ele>404.4</ele>
        <time>2024-08-12T07:44:21Z</time>
      </trkpt>
      <trkpt lat="43.17893" lon="1.01551">
        <ele>404.4</ele>
        <time>2024-08-12T07:44:23Z</time>
      </trkpt>
      <trkpt lat="43.1789" lon="1.01578">
        <ele>404</ele>
        <time>2024-08-12T07:44:26Z</time>
      </trkpt>
      <trkpt lat="43.17889" lon="1.01586">
        <ele>403.6</ele>
        <time>2024-08-12T07:44:27Z</time>
      </trkpt>
      <trkpt lat="43.17889" lon="1.01594">
        <ele>403.2</ele>
        <time>2024-08-12T07:44:28Z</time>
      </trkpt>
      <trkpt lat="43.17889" lon="1.01601">
        <ele>402.8</ele>
        <time>2024-08-12T07:44:29Z</time>
      </trkpt>
      <trkpt lat="43.17888" lon="1.01608">
        <ele>402.4</ele>
        <time>2024-08-12T07:44:30Z</time>
      </trkpt>
      <trkpt lat="43.17887" lon="1.01621">
        <ele>402.4</ele>
        <time>2024-08-12T07:44:32Z</time>
      </trkpt>
      <trkpt lat="43.17886" lon="1.01628">
        <ele>402.4</ele>
        <time>2024-08-12T07:44:33Z</time>
      </trkpt>
      <trkpt lat="43.17883" lon="1.01665">
        <ele>402.4</ele>
        <time>2024-08-12T07:44:39Z</time>
      </trkpt>
      <trkpt lat="43.17885" lon="1.01686">
        <ele>402.4</ele>
        <time>2024-08-12T07:44:44Z</time>
      </trkpt>
      <trkpt lat="43.17887" lon="1.01688">
        <ele>402.4</ele>
        <time>2024-08-12T07:44:45Z</time>
      </trkpt>
      <trkpt lat="43.1789" lon="1.01692">
        <ele>402.8</ele>
        <time>2024-08-12T07:44:47Z</time>
      </trkpt>
      <trkpt lat="43.17891" lon="1.01694">
        <ele>403.2</ele>
        <time>2024-08-12T07:44:48Z</time>
      </trkpt>
      <trkpt lat="43.17892" lon="1.01697">
        <ele>403.6</ele>
        <time>2024-08-12T07:44:49Z</time>
      </trkpt>
      <trkpt lat="43.17892" lon="1.017">
        <ele>404.2</ele>
        <time>2024-08-12T07:44:50Z</time>
      </trkpt>
      <trkpt lat="43.17892" lon="1.01703">
        <ele>404.6</ele>
        <time>2024-08-12T07:44:51Z</time>
      </trkpt>
      <trkpt lat="43.17893" lon="1.01706">
        <ele>405</ele>
        <time>2024-08-12T07:44:52Z</time>
      </trkpt>
      <trkpt lat="43.17895" lon="1.01708">
        <ele>405.4</ele>
        <time>2024-08-12T07:44:53Z</time>
      </trkpt>
      <trkpt lat="43.17897" lon="1.01707">
        <ele>405.8</ele>
        <time>2024-08-12T07:44:54Z</time>
      </trkpt>
      <trkpt lat="43.17898" lon="1.01706">
        <ele>406.4</ele>
        <time>2024-08-12T07:44:55Z</time>
      </trkpt>
      <trkpt lat="43.17899" lon="1.01705">
        <ele>406.8</ele>
        <time>2024-08-12T07:44:56Z</time>
      </trkpt>
      <trkpt lat="43.179" lon="1.01702">
        <ele>407.2</ele>
        <time>2024-08-12T07:44:57Z</time>
      </trkpt>
      <trkpt lat="43.17901" lon="1.017">
        <ele>407.8</ele>
        <time>2024-08-12T07:44:58Z</time>
      </trkpt>
      <trkpt lat="43.17902" lon="1.01698">
        <ele>408.8</ele>
        <time>2024-08-12T07:44:59Z</time>
      </trkpt>
      <trkpt lat="43.17904" lon="1.01696">
        <ele>409.2</ele>
        <time>2024-08-12T07:45:00Z</time>
      </trkpt>
      <trkpt lat="43.17905" lon="1.01696">
        <ele>409.8</ele>
        <time>2024-08-12T07:45:01Z</time>
      </trkpt>
      <trkpt lat="43.17907" lon="1.01696">
        <ele>410.2</ele>
        <time>2024-08-12T07:45:02Z</time>
      </trkpt>
      <trkpt lat="43.17909" lon="1.01696">
        <ele>410.6</ele>
        <time>2024-08-12T07:45:03Z</time>
      </trkpt>
      <trkpt lat="43.17911" lon="1.01697">
        <ele>411.2</ele>
        <time>2024-08-12T07:45:04Z</time>
      </trkpt>
      <trkpt lat="43.17915" lon="1.01698">
        <ele>411.6</ele>
        <time>2024-08-12T07:45:06Z</time>
      </trkpt>
      <trkpt lat="43.17916" lon="1.01699">
        <ele>412</ele>
        <time>2024-08-12T07:45:07Z</time>
      </trkpt>
      <trkpt lat="43.17917" lon="1.01698">
        <ele>412.4</ele>
        <time>2024-08-12T07:45:08Z</time>
      </trkpt>
      <trkpt lat="43.17918" lon="1.01698">
        <ele>413</ele>
        <time>2024-08-12T07:45:09Z</time>
      </trkpt>
      <trkpt lat="43.1792" lon="1.01698">
        <ele>413.4</ele>
        <time>2024-08-12T07:45:10Z</time>
      </trkpt>
      <trkpt lat="43.17922" lon="1.01699">
        <ele>413.8</ele>
        <time>2024-08-12T07:45:11Z</time>
      </trkpt>
      <trkpt lat="43.17924" lon="1.017">
        <ele>414.2</ele>
        <time>2024-08-12T07:45:12Z</time>
      </trkpt>
      <trkpt lat="43.17926" lon="1.017">
        <ele>414.6</ele>
        <time>2024-08-12T07:45:13Z</time>
      </trkpt>
      <trkpt lat="43.17927" lon="1.01703">
        <ele>415</ele>
        <time>2024-08-12T07:45:14Z</time>
      </trkpt>
      <trkpt lat="43.17928" lon="1.01705">
        <ele>415.4</ele>
        <time>2024-08-12T07:45:15Z</time>
      </trkpt>
      <trkpt lat="43.17929" lon="1.01706">
        <ele>415.8</ele>
        <time>2024-08-12T07:45:16Z</time>
      </trkpt>
      <trkpt lat="43.17931" lon="1.01708">
        <ele>416.2</ele>
        <time>2024-08-12T07:45:17Z</time>
      </trkpt>
      <trkpt lat="43.17931" lon="1.0171">
        <ele>416.6</ele>
        <time>2024-08-12T07:45:18Z</time>
      </trkpt>
      <trkpt lat="43.17932" lon="1.01712">
        <ele>417.2</ele>
        <time>2024-08-12T07:45:19Z</time>
      </trkpt>
      <trkpt lat="43.17932" lon="1.01715">
        <ele>417.6</ele>
        <time>2024-08-12T07:45:20Z</time>
      </trkpt>
      <trkpt lat="43.17932" lon="1.01718">
        <ele>417.6</ele>
        <time>2024-08-12T07:45:21Z</time>
      </trkpt>
      <trkpt lat="43.17933" lon="1.01719">
        <ele>418</ele>
        <time>2024-08-12T07:45:22Z</time>
      </trkpt>
      <trkpt lat="43.17932" lon="1.01722">
        <ele>418.6</ele>
        <time>2024-08-12T07:45:23Z</time>
      </trkpt>
      <trkpt lat="43.17932" lon="1.01724">
        <ele>419.6</ele>
        <time>2024-08-12T07:45:24Z</time>
      </trkpt>
      <trkpt lat="43.17932" lon="1.01726">
        <ele>420</ele>
        <time>2024-08-12T07:45:25Z</time>
      </trkpt>
      <trkpt lat="43.17932" lon="1.01729">
        <ele>420.4</ele>
        <time>2024-08-12T07:45:26Z</time>
      </trkpt>
      <trkpt lat="43.17932" lon="1.01732">
        <ele>420.8</ele>
        <time>2024-08-12T07:45:27Z</time>
      </trkpt>
      <trkpt lat="43.17933" lon="1.01735">
        <ele>421.2</ele>
        <time>2024-08-12T07:45:28Z</time>
      </trkpt>
      <trkpt lat="43.17933" lon="1.01738">
        <ele>421.6</ele>
        <time>2024-08-12T07:45:29Z</time>
      </trkpt>
      <trkpt lat="43.17933" lon="1.01741">
        <ele>422</ele>
        <time>2024-08-12T07:45:30Z</time>
      </trkpt>
      <trkpt lat="43.17934" lon="1.01753">
        <ele>422</ele>
        <time>2024-08-12T07:45:33Z</time>
      </trkpt>
      <trkpt lat="43.17936" lon="1.01776">
        <ele>422</ele>
        <time>2024-08-12T07:45:40Z</time>
      </trkpt>
      <trkpt lat="43.17938" lon="1.01797">
        <ele>422</ele>
        <time>2024-08-12T07:45:45Z</time>
      </trkpt>
      <trkpt lat="43.17941" lon="1.01804">
        <ele>422.4</ele>
        <time>2024-08-12T07:45:47Z</time>
      </trkpt>
      <trkpt lat="43.17942" lon="1.01808">
        <ele>422.8</ele>
        <time>2024-08-12T07:45:48Z</time>
      </trkpt>
      <trkpt lat="43.17943" lon="1.01812">
        <ele>423.8</ele>
        <time>2024-08-12T07:45:49Z</time>
      </trkpt>
      <trkpt lat="43.17945" lon="1.01815">
        <ele>424.2</ele>
        <time>2024-08-12T07:45:50Z</time>
      </trkpt>
      <trkpt lat="43.17951" lon="1.01828">
        <ele>424.6</ele>
        <time>2024-08-12T07:45:54Z</time>
      </trkpt>
      <trkpt lat="43.17952" lon="1.0183">
        <ele>425</ele>
        <time>2024-08-12T07:45:55Z</time>
      </trkpt>
      <trkpt lat="43.17953" lon="1.01832">
        <ele>425.4</ele>
        <time>2024-08-12T07:45:56Z</time>
      </trkpt>
      <trkpt lat="43.17954" lon="1.01835">
        <ele>426</ele>
        <time>2024-08-12T07:45:57Z</time>
      </trkpt>
      <trkpt lat="43.17955" lon="1.01838">
        <ele>426.4</ele>
        <time>2024-08-12T07:45:58Z</time>
      </trkpt>
      <trkpt lat="43.17956" lon="1.0184">
        <ele>426.8</ele>
        <time>2024-08-12T07:45:59Z</time>
      </trkpt>
      <trkpt lat="43.17957" lon="1.01841">
        <ele>427.2</ele>
        <time>2024-08-12T07:46:00Z</time>
      </trkpt>
      <trkpt lat="43.17957" lon="1.01844">
        <ele>427.6</ele>
        <time>2024-08-12T07:46:01Z</time>
      </trkpt>
      <trkpt lat="43.17957" lon="1.01847">
        <ele>428.2</ele>
        <time>2024-08-12T07:46:02Z</time>
      </trkpt>
      <trkpt lat="43.17957" lon="1.01849">
        <ele>428.6</ele>
        <time>2024-08-12T07:46:03Z</time>
      </trkpt>
      <trkpt lat="43.17958" lon="1.01854">
        <ele>429</ele>
        <time>2024-08-12T07:46:05Z</time>
      </trkpt>
      <trkpt lat="43.17959" lon="1.01856">
        <ele>429.4</ele>
        <time>2024-08-12T07:46:06Z</time>
      </trkpt>
      <trkpt lat="43.1796" lon="1.01859">
        <ele>429.8</ele>
        <time>2024-08-12T07:46:07Z</time>
      </trkpt>
      <trkpt lat="43.17961" lon="1.01863">
        <ele>430.4</ele>
        <time>2024-08-12T07:46:08Z</time>
      </trkpt>
      <trkpt lat="43.17962" lon="1.01865">
        <ele>430.8</ele>
        <time>2024-08-12T07:46:09Z</time>
      </trkpt>
      <trkpt lat="43.17964" lon="1.01873">
        <ele>431.2</ele>
        <time>2024-08-12T07:46:12Z</time>
      </trkpt>
      <trkpt lat="43.17964" lon="1.01876">
        <ele>431.6</ele>
        <time>2024-08-12T07:46:13Z</time>
      </trkpt>
      <trkpt lat="43.17964" lon="1.01878">
        <ele>432.6</ele>
        <time>2024-08-12T07:46:14Z</time>
      </trkpt>
      <trkpt lat="43.17964" lon="1.01881">
        <ele>433</ele>
        <time>2024-08-12T07:46:15Z</time>
      </trkpt>
      <trkpt lat="43.17965" lon="1.01886">
        <ele>433.4</ele>
        <time>2024-08-12T07:46:17Z</time>
      </trkpt>
      <trkpt lat="43.17965" lon="1.01888">
        <ele>434</ele>
        <time>2024-08-12T07:46:18Z</time>
      </trkpt>
      <trkpt lat="43.17965" lon="1.0189">
        <ele>434.4</ele>
        <time>2024-08-12T07:46:19Z</time>
      </trkpt>
      <trkpt lat="43.17967" lon="1.01892">
        <ele>434.8</ele>
        <time>2024-08-12T07:46:20Z</time>
      </trkpt>
      <trkpt lat="43.17967" lon="1.01895">
        <ele>435.2</ele>
        <time>2024-08-12T07:46:21Z</time>
      </trkpt>
      <trkpt lat="43.17969" lon="1.01901">
        <ele>435.6</ele>
        <time>2024-08-12T07:46:24Z</time>
      </trkpt>
      <trkpt lat="43.17969" lon="1.01904">
        <ele>436</ele>
        <time>2024-08-12T07:46:25Z</time>
      </trkpt>
      <trkpt lat="43.17969" lon="1.01906">
        <ele>436.6</ele>
        <time>2024-08-12T07:46:26Z</time>
      </trkpt>
      <trkpt lat="43.17969" lon="1.01908">
        <ele>437</ele>
        <time>2024-08-12T07:46:27Z</time>
      </trkpt>
      <trkpt lat="43.1797" lon="1.01911">
        <ele>437.4</ele>
        <time>2024-08-12T07:46:28Z</time>
      </trkpt>
      <trkpt lat="43.1797" lon="1.01916">
        <ele>437.8</ele>
        <time>2024-08-12T07:46:31Z</time>
      </trkpt>
      <trkpt lat="43.17969" lon="1.01918">
        <ele>438.2</ele>
        <time>2024-08-12T07:46:32Z</time>
      </trkpt>
      <trkpt lat="43.1797" lon="1.0192">
        <ele>438.6</ele>
        <time>2024-08-12T07:46:33Z</time>
      </trkpt>
      <trkpt lat="43.1797" lon="1.01921">
        <ele>439</ele>
        <time>2024-08-12T07:46:34Z</time>
      </trkpt>
      <trkpt lat="43.1797" lon="1.01924">
        <ele>439.4</ele>
        <time>2024-08-12T07:46:35Z</time>
      </trkpt>
      <trkpt lat="43.1797" lon="1.01929">
        <ele>440.4</ele>
        <time>2024-08-12T07:46:38Z</time>
      </trkpt>
      <trkpt lat="43.17971" lon="1.01932">
        <ele>441</ele>
        <time>2024-08-12T07:46:39Z</time>
      </trkpt>
      <trkpt lat="43.17972" lon="1.01934">
        <ele>441.4</ele>
        <time>2024-08-12T07:46:40Z</time>
      </trkpt>
      <trkpt lat="43.17973" lon="1.01936">
        <ele>441.8</ele>
        <time>2024-08-12T07:46:41Z</time>
      </trkpt>
      <trkpt lat="43.17973" lon="1.01942">
        <ele>442.4</ele>
        <time>2024-08-12T07:46:43Z</time>
      </trkpt>
      <trkpt lat="43.17974" lon="1.01945">
        <ele>442.8</ele>
        <time>2024-08-12T07:46:44Z</time>
      </trkpt>
      <trkpt lat="43.17974" lon="1.01948">
        <ele>443.2</ele>
        <time>2024-08-12T07:46:45Z</time>
      </trkpt>
      <trkpt lat="43.17974" lon="1.01951">
        <ele>443.6</ele>
        <time>2024-08-12T07:46:46Z</time>
      </trkpt>
      <trkpt lat="43.17974" lon="1.01954">
        <ele>444.2</ele>
        <time>2024-08-12T07:46:47Z</time>
      </trkpt>
      <trkpt lat="43.17976" lon="1.0196">
        <ele>444.6</ele>
        <time>2024-08-12T07:46:50Z</time>
      </trkpt>
      <trkpt lat="43.17976" lon="1.01961">
        <ele>445</ele>
        <time>2024-08-12T07:46:51Z</time>
      </trkpt>
      <trkpt lat="43.17977" lon="1.01964">
        <ele>445.4</ele>
        <time>2024-08-12T07:46:52Z</time>
      </trkpt>
      <trkpt lat="43.17978" lon="1.01965">
        <ele>446</ele>
        <time>2024-08-12T07:46:53Z</time>
      </trkpt>
      <trkpt lat="43.17979" lon="1.01967">
        <ele>446.4</ele>
        <time>2024-08-12T07:46:54Z</time>
      </trkpt>
      <trkpt lat="43.17982" lon="1.01966">
        <ele>446.4</ele>
        <time>2024-08-12T07:46:56Z</time>
      </trkpt>
      <trkpt lat="43.17983" lon="1.01964">
        <ele>446.8</ele>
        <time>2024-08-12T07:46:57Z</time>
      </trkpt>
      <trkpt lat="43.17984" lon="1.01963">
        <ele>447.2</ele>
        <time>2024-08-12T07:46:58Z</time>
      </trkpt>
      <trkpt lat="43.17985" lon="1.01962">
        <ele>447.6</ele>
        <time>2024-08-12T07:46:59Z</time>
      </trkpt>
      <trkpt lat="43.17985" lon="1.0196">
        <ele>448.2</ele>
        <time>2024-08-12T07:47:00Z</time>
      </trkpt>
      <trkpt lat="43.17986" lon="1.01958">
        <ele>448.6</ele>
        <time>2024-08-12T07:47:01Z</time>
      </trkpt>
      <trkpt lat="43.17988" lon="1.01955">
        <ele>449</ele>
        <time>2024-08-12T07:47:03Z</time>
      </trkpt>
      <trkpt lat="43.17989" lon="1.01954">
        <ele>449.4</ele>
        <time>2024-08-12T07:47:04Z</time>
      </trkpt>
      <trkpt lat="43.1799" lon="1.01953">
        <ele>449.8</ele>
        <time>2024-08-12T07:47:05Z</time>
      </trkpt>
      <trkpt lat="43.17991" lon="1.01952">
        <ele>450.2</ele>
        <time>2024-08-12T07:47:06Z</time>
      </trkpt>
      <trkpt lat="43.17992" lon="1.0195">
        <ele>450.6</ele>
        <time>2024-08-12T07:47:07Z</time>
      </trkpt>
      <trkpt lat="43.17995" lon="1.01945">
        <ele>451</ele>
        <time>2024-08-12T07:47:10Z</time>
      </trkpt>
      <trkpt lat="43.17996" lon="1.01943">
        <ele>451.4</ele>
        <time>2024-08-12T07:47:11Z</time>
      </trkpt>
      <trkpt lat="43.17996" lon="1.01941">
        <ele>451.8</ele>
        <time>2024-08-12T07:47:12Z</time>
      </trkpt>
      <trkpt lat="43.17998" lon="1.01939">
        <ele>452.2</ele>
        <time>2024-08-12T07:47:13Z</time>
      </trkpt>
      <trkpt lat="43.17999" lon="1.01936">
        <ele>452.6</ele>
        <time>2024-08-12T07:47:14Z</time>
      </trkpt>
      <trkpt lat="43.18002" lon="1.01929">
        <ele>452.6</ele>
        <time>2024-08-12T07:47:17Z</time>
      </trkpt>
      <trkpt lat="43.18003" lon="1.01926">
        <ele>453</ele>
        <time>2024-08-12T07:47:18Z</time>
      </trkpt>
      <trkpt lat="43.18004" lon="1.01925">
        <ele>453.6</ele>
        <time>2024-08-12T07:47:19Z</time>
      </trkpt>
      <trkpt lat="43.18006" lon="1.01923">
        <ele>454</ele>
        <time>2024-08-12T07:47:20Z</time>
      </trkpt>
      <trkpt lat="43.18007" lon="1.01921">
        <ele>454.4</ele>
        <time>2024-08-12T07:47:21Z</time>
      </trkpt>
      <trkpt lat="43.18008" lon="1.01919">
        <ele>454.8</ele>
        <time>2024-08-12T07:47:22Z</time>
      </trkpt>
      <trkpt lat="43.1801" lon="1.01914">
        <ele>454.8</ele>
        <time>2024-08-12T07:47:24Z</time>
      </trkpt>
      <trkpt lat="43.18012" lon="1.01903">
        <ele>454.8</ele>
        <time>2024-08-12T07:47:28Z</time>
      </trkpt>
      <trkpt lat="43.18015" lon="1.01901">
        <ele>454.8</ele>
        <time>2024-08-12T07:47:31Z</time>
      </trkpt>
      <trkpt lat="43.18016" lon="1.019">
        <ele>454.8</ele>
        <time>2024-08-12T07:47:32Z</time>
      </trkpt>
      <trkpt lat="43.18016" lon="1.01902">
        <ele>454.8</ele>
        <time>2024-08-12T07:47:34Z</time>
      </trkpt>
      <trkpt lat="43.18016" lon="1.01906">
        <ele>454.8</ele>
        <time>2024-08-12T07:47:36Z</time>
      </trkpt>
      <trkpt lat="43.18016" lon="1.0191">
        <ele>455.2</ele>
        <time>2024-08-12T07:47:38Z</time>
      </trkpt>
      <trkpt lat="43.18016" lon="1.01912">
        <ele>455.6</ele>
        <time>2024-08-12T07:47:39Z</time>
      </trkpt>
      <trkpt lat="43.18016" lon="1.01915">
        <ele>456</ele>
        <time>2024-08-12T07:47:40Z</time>
      </trkpt>
      <trkpt lat="43.18016" lon="1.01917">
        <ele>456.4</ele>
        <time>2024-08-12T07:47:41Z</time>
      </trkpt>
      <trkpt lat="43.18016" lon="1.01919">
        <ele>456.8</ele>
        <time>2024-08-12T07:47:42Z</time>
      </trkpt>
      <trkpt lat="43.18017" lon="1.01926">
        <ele>456.8</ele>
        <time>2024-08-12T07:47:46Z</time>
      </trkpt>
      <trkpt lat="43.18019" lon="1.01931">
        <ele>456.8</ele>
        <time>2024-08-12T07:47:48Z</time>
      </trkpt>
      <trkpt lat="43.18028" lon="1.01944">
        <ele>456.8</ele>
        <time>2024-08-12T07:47:53Z</time>
      </trkpt>
      <trkpt lat="43.1804" lon="1.01962">
        <ele>456.8</ele>
        <time>2024-08-12T07:47:59Z</time>
      </trkpt>
      <trkpt lat="43.18044" lon="1.01971">
        <ele>456.4</ele>
        <time>2024-08-12T07:48:02Z</time>
      </trkpt>
      <trkpt lat="43.18046" lon="1.01974">
        <ele>456</ele>
        <time>2024-08-12T07:48:03Z</time>
      </trkpt>
      <trkpt lat="43.18047" lon="1.01978">
        <ele>455.4</ele>
        <time>2024-08-12T07:48:04Z</time>
      </trkpt>
      <trkpt lat="43.18049" lon="1.01983">
        <ele>455</ele>
        <time>2024-08-12T07:48:05Z</time>
      </trkpt>
      <trkpt lat="43.1805" lon="1.01987">
        <ele>454.6</ele>
        <time>2024-08-12T07:48:06Z</time>
      </trkpt>
      <trkpt lat="43.18051" lon="1.01992">
        <ele>454</ele>
        <time>2024-08-12T07:48:07Z</time>
      </trkpt>
      <trkpt lat="43.18052" lon="1.01995">
        <ele>453.6</ele>
        <time>2024-08-12T07:48:08Z</time>
      </trkpt>
      <trkpt lat="43.18054" lon="1.01999">
        <ele>453</ele>
        <time>2024-08-12T07:48:09Z</time>
      </trkpt>
      <trkpt lat="43.18055" lon="1.02004">
        <ele>452.6</ele>
        <time>2024-08-12T07:48:10Z</time>
      </trkpt>
      <trkpt lat="43.18056" lon="1.02008">
        <ele>452</ele>
        <time>2024-08-12T07:48:11Z</time>
      </trkpt>
      <trkpt lat="43.18059" lon="1.02013">
        <ele>451.4</ele>
        <time>2024-08-12T07:48:12Z</time>
      </trkpt>
      <trkpt lat="43.18062" lon="1.02018">
        <ele>450.6</ele>
        <time>2024-08-12T07:48:13Z</time>
      </trkpt>
      <trkpt lat="43.18066" lon="1.02025">
        <ele>449.8</ele>
        <time>2024-08-12T07:48:14Z</time>
      </trkpt>
      <trkpt lat="43.18071" lon="1.02031">
        <ele>448.8</ele>
        <time>2024-08-12T07:48:15Z</time>
      </trkpt>
      <trkpt lat="43.18077" lon="1.02037">
        <ele>447.6</ele>
        <time>2024-08-12T07:48:16Z</time>
      </trkpt>
      <trkpt lat="43.18081" lon="1.02045">
        <ele>445.2</ele>
        <time>2024-08-12T07:48:17Z</time>
      </trkpt>
      <trkpt lat="43.18087" lon="1.02053">
        <ele>444</ele>
        <time>2024-08-12T07:48:18Z</time>
      </trkpt>
      <trkpt lat="43.18095" lon="1.02061">
        <ele>443.2</ele>
        <time>2024-08-12T07:48:19Z</time>
      </trkpt>
      <trkpt lat="43.18102" lon="1.02068">
        <ele>442.4</ele>
        <time>2024-08-12T07:48:20Z</time>
      </trkpt>
      <trkpt lat="43.1811" lon="1.02077">
        <ele>441.4</ele>
        <time>2024-08-12T07:48:21Z</time>
      </trkpt>
      <trkpt lat="43.18117" lon="1.02085">
        <ele>440.4</ele>
        <time>2024-08-12T07:48:22Z</time>
      </trkpt>
      <trkpt lat="43.18124" lon="1.02094">
        <ele>439.6</ele>
        <time>2024-08-12T07:48:23Z</time>
      </trkpt>
      <trkpt lat="43.18131" lon="1.02103">
        <ele>438.6</ele>
        <time>2024-08-12T07:48:24Z</time>
      </trkpt>
      <trkpt lat="43.18139" lon="1.02111">
        <ele>437.6</ele>
        <time>2024-08-12T07:48:25Z</time>
      </trkpt>
      <trkpt lat="43.18146" lon="1.02119">
        <ele>436.8</ele>
        <time>2024-08-12T07:48:26Z</time>
      </trkpt>
      <trkpt lat="43.18153" lon="1.02128">
        <ele>435.8</ele>
        <time>2024-08-12T07:48:27Z</time>
      </trkpt>
      <trkpt lat="43.1816" lon="1.02137">
        <ele>434.6</ele>
        <time>2024-08-12T07:48:28Z</time>
      </trkpt>
      <trkpt lat="43.18164" lon="1.02148">
        <ele>433.6</ele>
        <time>2024-08-12T07:48:29Z</time>
      </trkpt>
      <trkpt lat="43.18168" lon="1.02157">
        <ele>432.6</ele>
        <time>2024-08-12T07:48:30Z</time>
      </trkpt>
      <trkpt lat="43.18172" lon="1.02167">
        <ele>431.4</ele>
        <time>2024-08-12T07:48:31Z</time>
      </trkpt>
      <trkpt lat="43.18174" lon="1.02177">
        <ele>430.6</ele>
        <time>2024-08-12T07:48:32Z</time>
      </trkpt>
      <trkpt lat="43.18176" lon="1.02187">
        <ele>429.6</ele>
        <time>2024-08-12T07:48:33Z</time>
      </trkpt>
      <trkpt lat="43.18179" lon="1.02197">
        <ele>428.6</ele>
        <time>2024-08-12T07:48:34Z</time>
      </trkpt>
      <trkpt lat="43.1818" lon="1.02207">
        <ele>427.6</ele>
        <time>2024-08-12T07:48:35Z</time>
      </trkpt>
      <trkpt lat="43.18181" lon="1.02219">
        <ele>426.6</ele>
        <time>2024-08-12T07:48:36Z</time>
      </trkpt>
      <trkpt lat="43.18181" lon="1.0223">
        <ele>425.4</ele>
        <time>2024-08-12T07:48:37Z</time>
      </trkpt>
      <trkpt lat="43.18181" lon="1.0224">
        <ele>424.4</ele>
        <time>2024-08-12T07:48:38Z</time>
      </trkpt>
      <trkpt lat="43.18181" lon="1.02251">
        <ele>423.2</ele>
        <time>2024-08-12T07:48:39Z</time>
      </trkpt>
      <trkpt lat="43.1818" lon="1.0226">
        <ele>422</ele>
        <time>2024-08-12T07:48:40Z</time>
      </trkpt>
      <trkpt lat="43.18181" lon="1.02266">
        <ele>420.8</ele>
        <time>2024-08-12T07:48:41Z</time>
      </trkpt>
      <trkpt lat="43.18183" lon="1.02271">
        <ele>418.4</ele>
        <time>2024-08-12T07:48:42Z</time>
      </trkpt>
      <trkpt lat="43.18187" lon="1.02275">
        <ele>417.2</ele>
        <time>2024-08-12T07:48:43Z</time>
      </trkpt>
      <trkpt lat="43.18191" lon="1.0228">
        <ele>416</ele>
        <time>2024-08-12T07:48:44Z</time>
      </trkpt>
      <trkpt lat="43.18195" lon="1.02286">
        <ele>415</ele>
        <time>2024-08-12T07:48:45Z</time>
      </trkpt>
      <trkpt lat="43.18198" lon="1.02292">
        <ele>413.8</ele>
        <time>2024-08-12T07:48:46Z</time>
      </trkpt>
      <trkpt lat="43.18202" lon="1.02298">
        <ele>412.6</ele>
        <time>2024-08-12T07:48:47Z</time>
      </trkpt>
      <trkpt lat="43.18207" lon="1.02307">
        <ele>411.8</ele>
        <time>2024-08-12T07:48:48Z</time>
      </trkpt>
      <trkpt lat="43.1821" lon="1.02317">
        <ele>410.8</ele>
        <time>2024-08-12T07:48:49Z</time>
      </trkpt>
      <trkpt lat="43.18214" lon="1.02327">
        <ele>410</ele>
        <time>2024-08-12T07:48:50Z</time>
      </trkpt>
      <trkpt lat="43.18217" lon="1.02338">
        <ele>409</ele>
        <time>2024-08-12T07:48:51Z</time>
      </trkpt>
      <trkpt lat="43.1822" lon="1.02345">
        <ele>408.2</ele>
        <time>2024-08-12T07:48:52Z</time>
      </trkpt>
      <trkpt lat="43.18222" lon="1.02352">
        <ele>408.2</ele>
        <time>2024-08-12T07:48:53Z</time>
      </trkpt>
      <trkpt lat="43.18223" lon="1.02358">
        <ele>408.2</ele>
        <time>2024-08-12T07:48:54Z</time>
      </trkpt>
      <trkpt lat="43.18225" lon="1.02365">
        <ele>408.2</ele>
        <time>2024-08-12T07:48:56Z</time>
      </trkpt>
      <trkpt lat="43.1823" lon="1.02397">
        <ele>408.2</ele>
        <time>2024-08-12T07:49:03Z</time>
      </trkpt>
      <trkpt lat="43.18234" lon="1.02426">
        <ele>408.2</ele>
        <time>2024-08-12T07:49:08Z</time>
      </trkpt>
      <trkpt lat="43.18236" lon="1.02456">
        <ele>408.2</ele>
        <time>2024-08-12T07:49:13Z</time>
      </trkpt>
      <trkpt lat="43.18238" lon="1.02487">
        <ele>408.2</ele>
        <time>2024-08-12T07:49:18Z</time>
      </trkpt>
      <trkpt lat="43.18239" lon="1.02494">
        <ele>408.2</ele>
        <time>2024-08-12T07:49:19Z</time>
      </trkpt>
      <trkpt lat="43.18243" lon="1.02516">
        <ele>408.2</ele>
        <time>2024-08-12T07:49:22Z</time>
      </trkpt>
      <trkpt lat="43.18245" lon="1.02527">
        <ele>407.8</ele>
        <time>2024-08-12T07:49:24Z</time>
      </trkpt>
      <trkpt lat="43.18249" lon="1.02537">
        <ele>407.4</ele>
        <time>2024-08-12T07:49:25Z</time>
      </trkpt>
      <trkpt lat="43.18251" lon="1.02544">
        <ele>406.8</ele>
        <time>2024-08-12T07:49:26Z</time>
      </trkpt>
      <trkpt lat="43.18252" lon="1.02551">
        <ele>406.2</ele>
        <time>2024-08-12T07:49:27Z</time>
      </trkpt>
      <trkpt lat="43.18254" lon="1.0256">
        <ele>405.4</ele>
        <time>2024-08-12T07:49:28Z</time>
      </trkpt>
      <trkpt lat="43.18256" lon="1.02569">
        <ele>404.6</ele>
        <time>2024-08-12T07:49:29Z</time>
      </trkpt>
      <trkpt lat="43.18258" lon="1.02578">
        <ele>403.6</ele>
        <time>2024-08-12T07:49:30Z</time>
      </trkpt>
      <trkpt lat="43.18259" lon="1.02586">
        <ele>402.8</ele>
        <time>2024-08-12T07:49:31Z</time>
      </trkpt>
      <trkpt lat="43.18263" lon="1.02596">
        <ele>400.6</ele>
        <time>2024-08-12T07:49:32Z</time>
      </trkpt>
      <trkpt lat="43.18268" lon="1.02608">
        <ele>399.4</ele>
        <time>2024-08-12T07:49:33Z</time>
      </trkpt>
      <trkpt lat="43.18272" lon="1.0262">
        <ele>398.2</ele>
        <time>2024-08-12T07:49:34Z</time>
      </trkpt>
      <trkpt lat="43.18279" lon="1.02636">
        <ele>397</ele>
        <time>2024-08-12T07:49:35Z</time>
      </trkpt>
      <trkpt lat="43.18283" lon="1.02648">
        <ele>395.8</ele>
        <time>2024-08-12T07:49:36Z</time>
      </trkpt>
      <trkpt lat="43.18286" lon="1.02659">
        <ele>394.4</ele>
        <time>2024-08-12T07:49:37Z</time>
      </trkpt>
      <trkpt lat="43.1829" lon="1.0267">
        <ele>393.2</ele>
        <time>2024-08-12T07:49:38Z</time>
      </trkpt>
      <trkpt lat="43.18293" lon="1.02678">
        <ele>392</ele>
        <time>2024-08-12T07:49:39Z</time>
      </trkpt>
      <trkpt lat="43.183" lon="1.02687">
        <ele>391.2</ele>
        <time>2024-08-12T07:49:40Z</time>
      </trkpt>
      <trkpt lat="43.18306" lon="1.02696">
        <ele>390.4</ele>
        <time>2024-08-12T07:49:41Z</time>
      </trkpt>
      <trkpt lat="43.18313" lon="1.02702">
        <ele>389.8</ele>
        <time>2024-08-12T07:49:42Z</time>
      </trkpt>
      <trkpt lat="43.18319" lon="1.02705">
        <ele>389</ele>
        <time>2024-08-12T07:49:43Z</time>
      </trkpt>
      <trkpt lat="43.18323" lon="1.02709">
        <ele>388.2</ele>
        <time>2024-08-12T07:49:44Z</time>
      </trkpt>
      <trkpt lat="43.18327" lon="1.0272">
        <ele>388.2</ele>
        <time>2024-08-12T07:49:46Z</time>
      </trkpt>
      <trkpt lat="43.18327" lon="1.0273">
        <ele>388.2</ele>
        <time>2024-08-12T07:49:48Z</time>
      </trkpt>
      <trkpt lat="43.18325" lon="1.02764">
        <ele>388.2</ele>
        <time>2024-08-12T07:49:53Z</time>
      </trkpt>
      <trkpt lat="43.18323" lon="1.02788">
        <ele>388.2</ele>
        <time>2024-08-12T07:49:58Z</time>
      </trkpt>
      <trkpt lat="43.18319" lon="1.02817">
        <ele>388.2</ele>
        <time>2024-08-12T07:50:03Z</time>
      </trkpt>
      <trkpt lat="43.18314" lon="1.02842">
        <ele>387.8</ele>
        <time>2024-08-12T07:50:06Z</time>
      </trkpt>
      <trkpt lat="43.18313" lon="1.02852">
        <ele>387.2</ele>
        <time>2024-08-12T07:50:07Z</time>
      </trkpt>
      <trkpt lat="43.1831" lon="1.02861">
        <ele>386.8</ele>
        <time>2024-08-12T07:50:08Z</time>
      </trkpt>
      <trkpt lat="43.18308" lon="1.0287">
        <ele>386.2</ele>
        <time>2024-08-12T07:50:09Z</time>
      </trkpt>
      <trkpt lat="43.18306" lon="1.02881">
        <ele>385.4</ele>
        <time>2024-08-12T07:50:10Z</time>
      </trkpt>
      <trkpt lat="43.18304" lon="1.02891">
        <ele>384.8</ele>
        <time>2024-08-12T07:50:11Z</time>
      </trkpt>
      <trkpt lat="43.18302" lon="1.02901">
        <ele>384</ele>
        <time>2024-08-12T07:50:12Z</time>
      </trkpt>
      <trkpt lat="43.18303" lon="1.02913">
        <ele>383.2</ele>
        <time>2024-08-12T07:50:13Z</time>
      </trkpt>
      <trkpt lat="43.18303" lon="1.02923">
        <ele>382.4</ele>
        <time>2024-08-12T07:50:14Z</time>
      </trkpt>
      <trkpt lat="43.18304" lon="1.02932">
        <ele>381.6</ele>
        <time>2024-08-12T07:50:15Z</time>
      </trkpt>
      <trkpt lat="43.18306" lon="1.02941">
        <ele>380.6</ele>
        <time>2024-08-12T07:50:16Z</time>
      </trkpt>
      <trkpt lat="43.18308" lon="1.02973">
        <ele>380.6</ele>
        <time>2024-08-12T07:50:20Z</time>
      </trkpt>
      <trkpt lat="43.18313" lon="1.02993">
        <ele>380.6</ele>
        <time>2024-08-12T07:50:23Z</time>
      </trkpt>
      <trkpt lat="43.18315" lon="1.03006">
        <ele>380.6</ele>
        <time>2024-08-12T07:50:25Z</time>
      </trkpt>
      <trkpt lat="43.18314" lon="1.03026">
        <ele>380.6</ele>
        <time>2024-08-12T07:50:28Z</time>
      </trkpt>
      <trkpt lat="43.18314" lon="1.03032">
        <ele>380.6</ele>
        <time>2024-08-12T07:50:29Z</time>
      </trkpt>
      <trkpt lat="43.18313" lon="1.03037">
        <ele>380.6</ele>
        <time>2024-08-12T07:50:30Z</time>
      </trkpt>
      <trkpt lat="43.18307" lon="1.03057">
        <ele>380.2</ele>
        <time>2024-08-12T07:50:34Z</time>
      </trkpt>
      <trkpt lat="43.18305" lon="1.03064">
        <ele>379.8</ele>
        <time>2024-08-12T07:50:35Z</time>
      </trkpt>
      <trkpt lat="43.18304" lon="1.0307">
        <ele>379.4</ele>
        <time>2024-08-12T07:50:36Z</time>
      </trkpt>
      <trkpt lat="43.18302" lon="1.03076">
        <ele>379</ele>
        <time>2024-08-12T07:50:37Z</time>
      </trkpt>
      <trkpt lat="43.18301" lon="1.03085">
        <ele>378.6</ele>
        <time>2024-08-12T07:50:38Z</time>
      </trkpt>
      <trkpt lat="43.18299" lon="1.03093">
        <ele>378.6</ele>
        <time>2024-08-12T07:50:39Z</time>
      </trkpt>
      <trkpt lat="43.18297" lon="1.03101">
        <ele>378.2</ele>
        <time>2024-08-12T07:50:40Z</time>
      </trkpt>
      <trkpt lat="43.18295" lon="1.03109">
        <ele>377.8</ele>
        <time>2024-08-12T07:50:41Z</time>
      </trkpt>
      <trkpt lat="43.18293" lon="1.03117">
        <ele>377.2</ele>
        <time>2024-08-12T07:50:42Z</time>
      </trkpt>
      <trkpt lat="43.18291" lon="1.03125">
        <ele>376.8</ele>
        <time>2024-08-12T07:50:43Z</time>
      </trkpt>
      <trkpt lat="43.18289" lon="1.03133">
        <ele>376.2</ele>
        <time>2024-08-12T07:50:44Z</time>
      </trkpt>
      <trkpt lat="43.18288" lon="1.03141">
        <ele>375.8</ele>
        <time>2024-08-12T07:50:45Z</time>
      </trkpt>
      <trkpt lat="43.18286" lon="1.03149">
        <ele>374.8</ele>
        <time>2024-08-12T07:50:46Z</time>
      </trkpt>
      <trkpt lat="43.18284" lon="1.03158">
        <ele>374.2</ele>
        <time>2024-08-12T07:50:47Z</time>
      </trkpt>
      <trkpt lat="43.18281" lon="1.03167">
        <ele>373.6</ele>
        <time>2024-08-12T07:50:48Z</time>
      </trkpt>
      <trkpt lat="43.18276" lon="1.03174">
        <ele>372.8</ele>
        <time>2024-08-12T07:50:49Z</time>
      </trkpt>
      <trkpt lat="43.18271" lon="1.0318">
        <ele>372</ele>
        <time>2024-08-12T07:50:50Z</time>
      </trkpt>
      <trkpt lat="43.18266" lon="1.03185">
        <ele>371.4</ele>
        <time>2024-08-12T07:50:51Z</time>
      </trkpt>
      <trkpt lat="43.18261" lon="1.03191">
        <ele>370.6</ele>
        <time>2024-08-12T07:50:52Z</time>
      </trkpt>
      <trkpt lat="43.18257" lon="1.03196">
        <ele>369.8</ele>
        <time>2024-08-12T07:50:53Z</time>
      </trkpt>
      <trkpt lat="43.18253" lon="1.032">
        <ele>369</ele>
        <time>2024-08-12T07:50:54Z</time>
      </trkpt>
      <trkpt lat="43.18238" lon="1.0321">
        <ele>369</ele>
        <time>2024-08-12T07:50:57Z</time>
      </trkpt>
      <trkpt lat="43.18232" lon="1.03214">
        <ele>368.6</ele>
        <time>2024-08-12T07:50:58Z</time>
      </trkpt>
      <trkpt lat="43.18228" lon="1.03218">
        <ele>368.2</ele>
        <time>2024-08-12T07:50:59Z</time>
      </trkpt>
      <trkpt lat="43.18223" lon="1.03222">
        <ele>367.6</ele>
        <time>2024-08-12T07:51:00Z</time>
      </trkpt>
      <trkpt lat="43.18219" lon="1.03226">
        <ele>367.2</ele>
        <time>2024-08-12T07:51:01Z</time>
      </trkpt>
      <trkpt lat="43.18216" lon="1.03231">
        <ele>366.8</ele>
        <time>2024-08-12T07:51:02Z</time>
      </trkpt>
      <trkpt lat="43.18213" lon="1.03235">
        <ele>366.8</ele>
        <time>2024-08-12T07:51:03Z</time>
      </trkpt>
      <trkpt lat="43.1821" lon="1.03243">
        <ele>366.2</ele>
        <time>2024-08-12T07:51:04Z</time>
      </trkpt>
      <trkpt lat="43.1821" lon="1.03252">
        <ele>365.8</ele>
        <time>2024-08-12T07:51:05Z</time>
      </trkpt>
      <trkpt lat="43.18211" lon="1.03263">
        <ele>365.2</ele>
        <time>2024-08-12T07:51:06Z</time>
      </trkpt>
      <trkpt lat="43.18215" lon="1.03275">
        <ele>364.8</ele>
        <time>2024-08-12T07:51:07Z</time>
      </trkpt>
      <trkpt lat="43.18221" lon="1.03285">
        <ele>364.4</ele>
        <time>2024-08-12T07:51:08Z</time>
      </trkpt>
      <trkpt lat="43.18227" lon="1.03293">
        <ele>364</ele>
        <time>2024-08-12T07:51:09Z</time>
      </trkpt>
      <trkpt lat="43.18235" lon="1.03303">
        <ele>363.4</ele>
        <time>2024-08-12T07:51:10Z</time>
      </trkpt>
      <trkpt lat="43.18243" lon="1.03313">
        <ele>362.6</ele>
        <time>2024-08-12T07:51:11Z</time>
      </trkpt>
      <trkpt lat="43.18249" lon="1.03322">
        <ele>362.2</ele>
        <time>2024-08-12T07:51:12Z</time>
      </trkpt>
      <trkpt lat="43.18276" lon="1.03356">
        <ele>362.2</ele>
        <time>2024-08-12T07:51:17Z</time>
      </trkpt>
      <trkpt lat="43.18304" lon="1.03383">
        <ele>362.2</ele>
        <time>2024-08-12T07:51:23Z</time>
      </trkpt>
      <trkpt lat="43.1832" lon="1.03396">
        <ele>361.8</ele>
        <time>2024-08-12T07:51:26Z</time>
      </trkpt>
      <trkpt lat="43.18325" lon="1.034">
        <ele>361.4</ele>
        <time>2024-08-12T07:51:27Z</time>
      </trkpt>
      <trkpt lat="43.1833" lon="1.03405">
        <ele>360.8</ele>
        <time>2024-08-12T07:51:28Z</time>
      </trkpt>
      <trkpt lat="43.18335" lon="1.03411">
        <ele>360.4</ele>
        <time>2024-08-12T07:51:29Z</time>
      </trkpt>
      <trkpt lat="43.18338" lon="1.03418">
        <ele>360</ele>
        <time>2024-08-12T07:51:30Z</time>
      </trkpt>
      <trkpt lat="43.18339" lon="1.03425">
        <ele>360</ele>
        <time>2024-08-12T07:51:31Z</time>
      </trkpt>
      <trkpt lat="43.18335" lon="1.03442">
        <ele>360</ele>
        <time>2024-08-12T07:51:34Z</time>
      </trkpt>
      <trkpt lat="43.18333" lon="1.03446">
        <ele>360</ele>
        <time>2024-08-12T07:51:35Z</time>
      </trkpt>
      <trkpt lat="43.18325" lon="1.03464">
        <ele>360</ele>
        <time>2024-08-12T07:51:40Z</time>
      </trkpt>
      <trkpt lat="43.18316" lon="1.0348">
        <ele>360</ele>
        <time>2024-08-12T07:51:46Z</time>
      </trkpt>
      <trkpt lat="43.18314" lon="1.03483">
        <ele>360.4</ele>
        <time>2024-08-12T07:51:47Z</time>
      </trkpt>
      <trkpt lat="43.18312" lon="1.03486">
        <ele>360.8</ele>
        <time>2024-08-12T07:51:48Z</time>
      </trkpt>
      <trkpt lat="43.18311" lon="1.03489">
        <ele>361.2</ele>
        <time>2024-08-12T07:51:49Z</time>
      </trkpt>
      <trkpt lat="43.1831" lon="1.03492">
        <ele>361.6</ele>
        <time>2024-08-12T07:51:50Z</time>
      </trkpt>
      <trkpt lat="43.18309" lon="1.03496">
        <ele>362</ele>
        <time>2024-08-12T07:51:51Z</time>
      </trkpt>
      <trkpt lat="43.18308" lon="1.03499">
        <ele>362</ele>
        <time>2024-08-12T07:51:52Z</time>
      </trkpt>
      <trkpt lat="43.18302" lon="1.03521">
        <ele>362.6</ele>
        <time>2024-08-12T07:51:58Z</time>
      </trkpt>
      <trkpt lat="43.18301" lon="1.03525">
        <ele>363</ele>
        <time>2024-08-12T07:51:59Z</time>
      </trkpt>
      <trkpt lat="43.183" lon="1.03529">
        <ele>363.8</ele>
        <time>2024-08-12T07:52:00Z</time>
      </trkpt>
      <trkpt lat="43.183" lon="1.03532">
        <ele>364.2</ele>
        <time>2024-08-12T07:52:01Z</time>
      </trkpt>
      <trkpt lat="43.18295" lon="1.0355">
        <ele>364.2</ele>
        <time>2024-08-12T07:52:06Z</time>
      </trkpt>
      <trkpt lat="43.18288" lon="1.03576">
        <ele>364.2</ele>
        <time>2024-08-12T07:52:13Z</time>
      </trkpt>
      <trkpt lat="43.18285" lon="1.03593">
        <ele>364.2</ele>
        <time>2024-08-12T07:52:18Z</time>
      </trkpt>
      <trkpt lat="43.18283" lon="1.03595">
        <ele>364.2</ele>
        <time>2024-08-12T07:52:19Z</time>
      </trkpt>
      <trkpt lat="43.18275" lon="1.03597">
        <ele>364.2</ele>
        <time>2024-08-12T07:52:22Z</time>
      </trkpt>
      <trkpt lat="43.18269" lon="1.03597">
        <ele>364.2</ele>
        <time>2024-08-12T07:52:24Z</time>
      </trkpt>
      <trkpt lat="43.18266" lon="1.03596">
        <ele>365</ele>
        <time>2024-08-12T07:52:25Z</time>
      </trkpt>
      <trkpt lat="43.18262" lon="1.03596">
        <ele>365.4</ele>
        <time>2024-08-12T07:52:26Z</time>
      </trkpt>
      <trkpt lat="43.18259" lon="1.03596">
        <ele>365.8</ele>
        <time>2024-08-12T07:52:27Z</time>
      </trkpt>
      <trkpt lat="43.18256" lon="1.03595">
        <ele>366.2</ele>
        <time>2024-08-12T07:52:28Z</time>
      </trkpt>
      <trkpt lat="43.18244" lon="1.03597">
        <ele>366.2</ele>
        <time>2024-08-12T07:52:32Z</time>
      </trkpt>
      <trkpt lat="43.18222" lon="1.03598">
        <ele>366.2</ele>
        <time>2024-08-12T07:52:39Z</time>
      </trkpt>
      <trkpt lat="43.18205" lon="1.03607">
        <ele>366.2</ele>
        <time>2024-08-12T07:52:45Z</time>
      </trkpt>
      <trkpt lat="43.18204" lon="1.03611">
        <ele>366.2</ele>
        <time>2024-08-12T07:52:48Z</time>
      </trkpt>
      <trkpt lat="43.18202" lon="1.03612">
        <ele>366.2</ele>
        <time>2024-08-12T07:53:09Z</time>
      </trkpt>
      <trkpt lat="43.18199" lon="1.0361">
        <ele>366.2</ele>
        <time>2024-08-12T07:53:11Z</time>
      </trkpt>
      <trkpt lat="43.18196" lon="1.03606">
        <ele>366.2</ele>
        <time>2024-08-12T07:53:15Z</time>
      </trkpt>
      <trkpt lat="43.18196" lon="1.03609">
        <ele>368</ele>
        <time>2024-08-12T07:53:20Z</time>
      </trkpt>
      <trkpt lat="43.18196" lon="1.03613">
        <ele>368.4</ele>
        <time>2024-08-12T07:53:21Z</time>
      </trkpt>
      <trkpt lat="43.18195" lon="1.03628">
        <ele>368.4</ele>
        <time>2024-08-12T07:53:24Z</time>
      </trkpt>
      <trkpt lat="43.18195" lon="1.03632">
        <ele>368.4</ele>
        <time>2024-08-12T07:53:25Z</time>
      </trkpt>
      <trkpt lat="43.18188" lon="1.03653">
        <ele>368</ele>
        <time>2024-08-12T07:53:30Z</time>
      </trkpt>
      <trkpt lat="43.18187" lon="1.03658">
        <ele>367.4</ele>
        <time>2024-08-12T07:53:31Z</time>
      </trkpt>
      <trkpt lat="43.18185" lon="1.03663">
        <ele>367</ele>
        <time>2024-08-12T07:53:32Z</time>
      </trkpt>
      <trkpt lat="43.18184" lon="1.03667">
        <ele>366.6</ele>
        <time>2024-08-12T07:53:33Z</time>
      </trkpt>
      <trkpt lat="43.18183" lon="1.03672">
        <ele>366.2</ele>
        <time>2024-08-12T07:53:34Z</time>
      </trkpt>
      <trkpt lat="43.18181" lon="1.03683">
        <ele>366.2</ele>
        <time>2024-08-12T07:53:37Z</time>
      </trkpt>
      <trkpt lat="43.18178" lon="1.03698">
        <ele>366.2</ele>
        <time>2024-08-12T07:53:42Z</time>
      </trkpt>
      <trkpt lat="43.18176" lon="1.037">
        <ele>366.2</ele>
        <time>2024-08-12T07:53:44Z</time>
      </trkpt>
      <trkpt lat="43.18175" lon="1.03704">
        <ele>364.2</ele>
        <time>2024-08-12T07:56:40Z</time>
      </trkpt>
      <trkpt lat="43.18174" lon="1.03706">
        <ele>364.2</ele>
        <time>2024-08-12T07:56:41Z</time>
      </trkpt>
      <trkpt lat="43.18168" lon="1.03727">
        <ele>364.2</ele>
        <time>2024-08-12T07:56:46Z</time>
      </trkpt>
      <trkpt lat="43.18158" lon="1.03756">
        <ele>363.8</ele>
        <time>2024-08-12T07:56:51Z</time>
      </trkpt>
      <trkpt lat="43.18156" lon="1.03763">
        <ele>363.4</ele>
        <time>2024-08-12T07:56:52Z</time>
      </trkpt>
      <trkpt lat="43.18153" lon="1.03769">
        <ele>363</ele>
        <time>2024-08-12T07:56:53Z</time>
      </trkpt>
      <trkpt lat="43.18149" lon="1.03775">
        <ele>362.6</ele>
        <time>2024-08-12T07:56:54Z</time>
      </trkpt>
      <trkpt lat="43.18144" lon="1.03782">
        <ele>362</ele>
        <time>2024-08-12T07:56:55Z</time>
      </trkpt>
      <trkpt lat="43.18138" lon="1.03788">
        <ele>361.6</ele>
        <time>2024-08-12T07:56:56Z</time>
      </trkpt>
      <trkpt lat="43.1813" lon="1.03793">
        <ele>360.8</ele>
        <time>2024-08-12T07:56:57Z</time>
      </trkpt>
      <trkpt lat="43.18123" lon="1.03796">
        <ele>360.4</ele>
        <time>2024-08-12T07:56:58Z</time>
      </trkpt>
      <trkpt lat="43.18114" lon="1.03798">
        <ele>359.8</ele>
        <time>2024-08-12T07:56:59Z</time>
      </trkpt>
      <trkpt lat="43.18105" lon="1.03798">
        <ele>359.4</ele>
        <time>2024-08-12T07:57:00Z</time>
      </trkpt>
      <trkpt lat="43.18096" lon="1.03798">
        <ele>358.8</ele>
        <time>2024-08-12T07:57:01Z</time>
      </trkpt>
      <trkpt lat="43.18086" lon="1.03797">
        <ele>358.2</ele>
        <time>2024-08-12T07:57:02Z</time>
      </trkpt>
      <trkpt lat="43.18076" lon="1.03796">
        <ele>357.8</ele>
        <time>2024-08-12T07:57:03Z</time>
      </trkpt>
      <trkpt lat="43.18065" lon="1.03796">
        <ele>357.2</ele>
        <time>2024-08-12T07:57:04Z</time>
      </trkpt>
      <trkpt lat="43.18055" lon="1.03796">
        <ele>356.6</ele>
        <time>2024-08-12T07:57:05Z</time>
      </trkpt>
      <trkpt lat="43.18044" lon="1.03797">
        <ele>356</ele>
        <time>2024-08-12T07:57:06Z</time>
      </trkpt>
      <trkpt lat="43.18033" lon="1.03798">
        <ele>355.4</ele>
        <time>2024-08-12T07:57:07Z</time>
      </trkpt>
      <trkpt lat="43.18023" lon="1.038">
        <ele>354.6</ele>
        <time>2024-08-12T07:57:08Z</time>
      </trkpt>
      <trkpt lat="43.18013" lon="1.03803">
        <ele>354</ele>
        <time>2024-08-12T07:57:09Z</time>
      </trkpt>
      <trkpt lat="43.18003" lon="1.03805">
        <ele>353.4</ele>
        <time>2024-08-12T07:57:10Z</time>
      </trkpt>
      <trkpt lat="43.17993" lon="1.03808">
        <ele>352.6</ele>
        <time>2024-08-12T07:57:11Z</time>
      </trkpt>
      <trkpt lat="43.17982" lon="1.0381">
        <ele>352</ele>
        <time>2024-08-12T07:57:12Z</time>
      </trkpt>
      <trkpt lat="43.17973" lon="1.03812">
        <ele>351.4</ele>
        <time>2024-08-12T07:57:13Z</time>
      </trkpt>
      <trkpt lat="43.17963" lon="1.03815">
        <ele>350.8</ele>
        <time>2024-08-12T07:57:14Z</time>
      </trkpt>
      <trkpt lat="43.17953" lon="1.03817">
        <ele>350.4</ele>
        <time>2024-08-12T07:57:15Z</time>
      </trkpt>
      <trkpt lat="43.17944" lon="1.03819">
        <ele>350</ele>
        <time>2024-08-12T07:57:16Z</time>
      </trkpt>
      <trkpt lat="43.17935" lon="1.03821">
        <ele>349.6</ele>
        <time>2024-08-12T07:57:17Z</time>
      </trkpt>
      <trkpt lat="43.17925" lon="1.03823">
        <ele>349.2</ele>
        <time>2024-08-12T07:57:18Z</time>
      </trkpt>
      <trkpt lat="43.17906" lon="1.03829">
        <ele>349.2</ele>
        <time>2024-08-12T07:57:20Z</time>
      </trkpt>
      <trkpt lat="43.1789" lon="1.03836">
        <ele>348.4</ele>
        <time>2024-08-12T07:57:22Z</time>
      </trkpt>
      <trkpt lat="43.17881" lon="1.0384">
        <ele>348</ele>
        <time>2024-08-12T07:57:23Z</time>
      </trkpt>
      <trkpt lat="43.17874" lon="1.03845">
        <ele>347.4</ele>
        <time>2024-08-12T07:57:24Z</time>
      </trkpt>
      <trkpt lat="43.17867" lon="1.0385">
        <ele>347</ele>
        <time>2024-08-12T07:57:25Z</time>
      </trkpt>
      <trkpt lat="43.17834" lon="1.03873">
        <ele>347</ele>
        <time>2024-08-12T07:57:30Z</time>
      </trkpt>
      <trkpt lat="43.178" lon="1.03898">
        <ele>347</ele>
        <time>2024-08-12T07:57:36Z</time>
      </trkpt>
      <trkpt lat="43.1779" lon="1.03905">
        <ele>347</ele>
        <time>2024-08-12T07:57:38Z</time>
      </trkpt>
      <trkpt lat="43.17777" lon="1.03914">
        <ele>347</ele>
        <time>2024-08-12T07:57:41Z</time>
      </trkpt>
      <trkpt lat="43.17773" lon="1.03916">
        <ele>347</ele>
        <time>2024-08-12T07:57:42Z</time>
      </trkpt>
      <trkpt lat="43.17758" lon="1.03923">
        <ele>347</ele>
        <time>2024-08-12T07:57:46Z</time>
      </trkpt>
      <trkpt lat="43.17748" lon="1.03928">
        <ele>347</ele>
        <time>2024-08-12T07:57:49Z</time>
      </trkpt>
      <trkpt lat="43.17741" lon="1.03931">
        <ele>347</ele>
        <time>2024-08-12T07:57:51Z</time>
      </trkpt>
      <trkpt lat="43.17718" lon="1.03939">
        <ele>347</ele>
        <time>2024-08-12T07:57:58Z</time>
      </trkpt>
      <trkpt lat="43.17715" lon="1.0394">
        <ele>347.4</ele>
        <time>2024-08-12T07:57:59Z</time>
      </trkpt>
      <trkpt lat="43.17711" lon="1.03941">
        <ele>347.8</ele>
        <time>2024-08-12T07:58:00Z</time>
      </trkpt>
      <trkpt lat="43.17708" lon="1.03942">
        <ele>348.4</ele>
        <time>2024-08-12T07:58:01Z</time>
      </trkpt>
      <trkpt lat="43.17704" lon="1.03943">
        <ele>348.8</ele>
        <time>2024-08-12T07:58:02Z</time>
      </trkpt>
      <trkpt lat="43.17701" lon="1.03945">
        <ele>349.2</ele>
        <time>2024-08-12T07:58:03Z</time>
      </trkpt>
      <trkpt lat="43.17694" lon="1.03948">
        <ele>349.2</ele>
        <time>2024-08-12T07:58:05Z</time>
      </trkpt>
      <trkpt lat="43.17672" lon="1.03955">
        <ele>349.2</ele>
        <time>2024-08-12T07:58:11Z</time>
      </trkpt>
      <trkpt lat="43.17645" lon="1.03965">
        <ele>349.2</ele>
        <time>2024-08-12T07:58:18Z</time>
      </trkpt>
      <trkpt lat="43.17624" lon="1.03973">
        <ele>349.2</ele>
        <time>2024-08-12T07:58:24Z</time>
      </trkpt>
      <trkpt lat="43.17604" lon="1.0398">
        <ele>349.6</ele>
        <time>2024-08-12T07:58:30Z</time>
      </trkpt>
      <trkpt lat="43.17601" lon="1.03981">
        <ele>350</ele>
        <time>2024-08-12T07:58:31Z</time>
      </trkpt>
      <trkpt lat="43.17598" lon="1.03982">
        <ele>350.4</ele>
        <time>2024-08-12T07:58:32Z</time>
      </trkpt>
      <trkpt lat="43.17595" lon="1.03984">
        <ele>350.8</ele>
        <time>2024-08-12T07:58:33Z</time>
      </trkpt>
      <trkpt lat="43.17591" lon="1.03985">
        <ele>351.2</ele>
        <time>2024-08-12T07:58:34Z</time>
      </trkpt>
      <trkpt lat="43.17577" lon="1.0399">
        <ele>351.2</ele>
        <time>2024-08-12T07:58:38Z</time>
      </trkpt>
      <trkpt lat="43.17549" lon="1.04001">
        <ele>351.2</ele>
        <time>2024-08-12T07:58:46Z</time>
      </trkpt>
      <trkpt lat="43.1752" lon="1.04012">
        <ele>351.2</ele>
        <time>2024-08-12T07:58:54Z</time>
      </trkpt>
      <trkpt lat="43.17497" lon="1.0402">
        <ele>351.2</ele>
        <time>2024-08-12T07:59:00Z</time>
      </trkpt>
      <trkpt lat="43.1747" lon="1.0402">
        <ele>351.2</ele>
        <time>2024-08-12T07:59:07Z</time>
      </trkpt>
      <trkpt lat="43.17463" lon="1.04019">
        <ele>351.6</ele>
        <time>2024-08-12T07:59:09Z</time>
      </trkpt>
      <trkpt lat="43.1746" lon="1.04019">
        <ele>352</ele>
        <time>2024-08-12T07:59:10Z</time>
      </trkpt>
      <trkpt lat="43.17457" lon="1.04018">
        <ele>352.4</ele>
        <time>2024-08-12T07:59:11Z</time>
      </trkpt>
      <trkpt lat="43.17453" lon="1.04017">
        <ele>352.8</ele>
        <time>2024-08-12T07:59:12Z</time>
      </trkpt>
      <trkpt lat="43.1745" lon="1.04017">
        <ele>353.2</ele>
        <time>2024-08-12T07:59:13Z</time>
      </trkpt>
      <trkpt lat="43.17429" lon="1.04012">
        <ele>353.2</ele>
        <time>2024-08-12T07:59:19Z</time>
      </trkpt>
      <trkpt lat="43.17412" lon="1.04006">
        <ele>353.2</ele>
        <time>2024-08-12T07:59:25Z</time>
      </trkpt>
      <trkpt lat="43.17407" lon="1.04004">
        <ele>353.6</ele>
        <time>2024-08-12T07:59:27Z</time>
      </trkpt>
      <trkpt lat="43.17404" lon="1.04002">
        <ele>354</ele>
        <time>2024-08-12T07:59:28Z</time>
      </trkpt>
      <trkpt lat="43.174" lon="1.04001">
        <ele>354.4</ele>
        <time>2024-08-12T07:59:29Z</time>
      </trkpt>
      <trkpt lat="43.17397" lon="1.04">
        <ele>354.8</ele>
        <time>2024-08-12T07:59:30Z</time>
      </trkpt>
      <trkpt lat="43.17395" lon="1.03998">
        <ele>355.2</ele>
        <time>2024-08-12T07:59:31Z</time>
      </trkpt>
      <trkpt lat="43.1738" lon="1.03991">
        <ele>355.2</ele>
        <time>2024-08-12T07:59:36Z</time>
      </trkpt>
      <trkpt lat="43.17368" lon="1.03986">
        <ele>355.6</ele>
        <time>2024-08-12T07:59:40Z</time>
      </trkpt>
      <trkpt lat="43.17365" lon="1.03984">
        <ele>356</ele>
        <time>2024-08-12T07:59:41Z</time>
      </trkpt>
      <trkpt lat="43.17362" lon="1.03983">
        <ele>356.4</ele>
        <time>2024-08-12T07:59:42Z</time>
      </trkpt>
      <trkpt lat="43.17359" lon="1.03981">
        <ele>356.8</ele>
        <time>2024-08-12T07:59:43Z</time>
      </trkpt>
      <trkpt lat="43.17356" lon="1.03979">
        <ele>357.2</ele>
        <time>2024-08-12T07:59:44Z</time>
      </trkpt>
      <trkpt lat="43.17343" lon="1.03972">
        <ele>357.2</ele>
        <time>2024-08-12T07:59:48Z</time>
      </trkpt>
      <trkpt lat="43.17322" lon="1.03959">
        <ele>357.2</ele>
        <time>2024-08-12T07:59:54Z</time>
      </trkpt>
      <trkpt lat="43.17297" lon="1.03944">
        <ele>357.6</ele>
        <time>2024-08-12T08:00:02Z</time>
      </trkpt>
      <trkpt lat="43.17295" lon="1.03943">
        <ele>358</ele>
        <time>2024-08-12T08:00:03Z</time>
      </trkpt>
      <trkpt lat="43.17291" lon="1.0394">
        <ele>358.6</ele>
        <time>2024-08-12T08:00:04Z</time>
      </trkpt>
      <trkpt lat="43.17288" lon="1.03938">
        <ele>359</ele>
        <time>2024-08-12T08:00:05Z</time>
      </trkpt>
      <trkpt lat="43.17285" lon="1.03935">
        <ele>359.4</ele>
        <time>2024-08-12T08:00:06Z</time>
      </trkpt>
      <trkpt lat="43.17274" lon="1.03929">
        <ele>359.4</ele>
        <time>2024-08-12T08:00:09Z</time>
      </trkpt>
      <trkpt lat="43.17255" lon="1.03919">
        <ele>359.4</ele>
        <time>2024-08-12T08:00:15Z</time>
      </trkpt>
      <trkpt lat="43.17252" lon="1.03917">
        <ele>359.8</ele>
        <time>2024-08-12T08:00:16Z</time>
      </trkpt>
      <trkpt lat="43.17249" lon="1.03916">
        <ele>360.2</ele>
        <time>2024-08-12T08:00:17Z</time>
      </trkpt>
      <trkpt lat="43.17245" lon="1.03915">
        <ele>360.6</ele>
        <time>2024-08-12T08:00:18Z</time>
      </trkpt>
      <trkpt lat="43.17242" lon="1.03915">
        <ele>361</ele>
        <time>2024-08-12T08:00:19Z</time>
      </trkpt>
      <trkpt lat="43.17239" lon="1.03914">
        <ele>361.4</ele>
        <time>2024-08-12T08:00:20Z</time>
      </trkpt>
      <trkpt lat="43.17231" lon="1.03912">
        <ele>361.4</ele>
        <time>2024-08-12T08:00:22Z</time>
      </trkpt>
      <trkpt lat="43.17216" lon="1.03912">
        <ele>361.4</ele>
        <time>2024-08-12T08:00:26Z</time>
      </trkpt>
      <trkpt lat="43.17205" lon="1.03913">
        <ele>361.8</ele>
        <time>2024-08-12T08:00:29Z</time>
      </trkpt>
      <trkpt lat="43.17201" lon="1.03913">
        <ele>362.2</ele>
        <time>2024-08-12T08:00:30Z</time>
      </trkpt>
      <trkpt lat="43.17197" lon="1.03913">
        <ele>362.6</ele>
        <time>2024-08-12T08:00:31Z</time>
      </trkpt>
      <trkpt lat="43.17193" lon="1.03913">
        <ele>363</ele>
        <time>2024-08-12T08:00:32Z</time>
      </trkpt>
      <trkpt lat="43.17189" lon="1.03913">
        <ele>363.4</ele>
        <time>2024-08-12T08:00:33Z</time>
      </trkpt>
      <trkpt lat="43.17168" lon="1.03912">
        <ele>363.4</ele>
        <time>2024-08-12T08:00:39Z</time>
      </trkpt>
      <trkpt lat="43.17142" lon="1.03916">
        <ele>363.4</ele>
        <time>2024-08-12T08:00:46Z</time>
      </trkpt>
      <trkpt lat="43.17131" lon="1.03916">
        <ele>363.8</ele>
        <time>2024-08-12T08:00:49Z</time>
      </trkpt>
      <trkpt lat="43.17128" lon="1.03916">
        <ele>364.2</ele>
        <time>2024-08-12T08:00:50Z</time>
      </trkpt>
      <trkpt lat="43.17124" lon="1.03917">
        <ele>364.6</ele>
        <time>2024-08-12T08:00:51Z</time>
      </trkpt>
      <trkpt lat="43.17121" lon="1.03917">
        <ele>365</ele>
        <time>2024-08-12T08:00:52Z</time>
      </trkpt>
      <trkpt lat="43.17117" lon="1.03918">
        <ele>365.4</ele>
        <time>2024-08-12T08:00:53Z</time>
      </trkpt>
      <trkpt lat="43.17093" lon="1.0392">
        <ele>365.4</ele>
        <time>2024-08-12T08:01:00Z</time>
      </trkpt>
      <trkpt lat="43.17073" lon="1.03922">
        <ele>365.4</ele>
        <time>2024-08-12T08:01:06Z</time>
      </trkpt>
      <trkpt lat="43.17046" lon="1.03925">
        <ele>365.4</ele>
        <time>2024-08-12T08:01:13Z</time>
      </trkpt>
      <trkpt lat="43.1702" lon="1.03927">
        <ele>365.4</ele>
        <time>2024-08-12T08:01:20Z</time>
      </trkpt>
      <trkpt lat="43.16992" lon="1.0393">
        <ele>365.4</ele>
        <time>2024-08-12T08:01:28Z</time>
      </trkpt>
      <trkpt lat="43.16965" lon="1.03933">
        <ele>365.4</ele>
        <time>2024-08-12T08:01:36Z</time>
      </trkpt>
      <trkpt lat="43.16956" lon="1.03932">
        <ele>366</ele>
        <time>2024-08-12T08:01:39Z</time>
      </trkpt>
      <trkpt lat="43.16953" lon="1.03932">
        <ele>366.4</ele>
        <time>2024-08-12T08:01:40Z</time>
      </trkpt>
      <trkpt lat="43.16949" lon="1.03932">
        <ele>366.8</ele>
        <time>2024-08-12T08:01:41Z</time>
      </trkpt>
      <trkpt lat="43.16946" lon="1.03932">
        <ele>367.2</ele>
        <time>2024-08-12T08:01:42Z</time>
      </trkpt>
      <trkpt lat="43.16943" lon="1.03931">
        <ele>367.6</ele>
        <time>2024-08-12T08:01:43Z</time>
      </trkpt>
      <trkpt lat="43.16921" lon="1.03926">
        <ele>367.6</ele>
        <time>2024-08-12T08:01:50Z</time>
      </trkpt>
      <trkpt lat="43.16899" lon="1.03911">
        <ele>367.6</ele>
        <time>2024-08-12T08:01:58Z</time>
      </trkpt>
      <trkpt lat="43.1688" lon="1.03895">
        <ele>367.6</ele>
        <time>2024-08-12T08:02:05Z</time>
      </trkpt>
      <trkpt lat="43.16873" lon="1.03889">
        <ele>368</ele>
        <time>2024-08-12T08:02:08Z</time>
      </trkpt>
      <trkpt lat="43.1687" lon="1.03886">
        <ele>368.4</ele>
        <time>2024-08-12T08:02:09Z</time>
      </trkpt>
      <trkpt lat="43.16868" lon="1.03885">
        <ele>368.8</ele>
        <time>2024-08-12T08:02:10Z</time>
      </trkpt>
      <trkpt lat="43.16865" lon="1.03883">
        <ele>369.2</ele>
        <time>2024-08-12T08:02:11Z</time>
      </trkpt>
      <trkpt lat="43.16862" lon="1.03881">
        <ele>369.6</ele>
        <time>2024-08-12T08:02:12Z</time>
      </trkpt>
      <trkpt lat="43.16846" lon="1.03868">
        <ele>369.6</ele>
        <time>2024-08-12T08:02:18Z</time>
      </trkpt>
      <trkpt lat="43.16832" lon="1.03857">
        <ele>369.6</ele>
        <time>2024-08-12T08:02:24Z</time>
      </trkpt>
      <trkpt lat="43.16829" lon="1.03855">
        <ele>370</ele>
        <time>2024-08-12T08:02:25Z</time>
      </trkpt>
      <trkpt lat="43.16827" lon="1.03853">
        <ele>370.4</ele>
        <time>2024-08-12T08:02:26Z</time>
      </trkpt>
      <trkpt lat="43.16825" lon="1.0385">
        <ele>370.8</ele>
        <time>2024-08-12T08:02:27Z</time>
      </trkpt>
      <trkpt lat="43.16823" lon="1.03848">
        <ele>371.4</ele>
        <time>2024-08-12T08:02:28Z</time>
      </trkpt>
      <trkpt lat="43.1682" lon="1.03846">
        <ele>371.8</ele>
        <time>2024-08-12T08:02:29Z</time>
      </trkpt>
      <trkpt lat="43.16816" lon="1.03843">
        <ele>371.8</ele>
        <time>2024-08-12T08:02:31Z</time>
      </trkpt>
      <trkpt lat="43.16796" lon="1.03826">
        <ele>371.8</ele>
        <time>2024-08-12T08:02:40Z</time>
      </trkpt>
      <trkpt lat="43.16789" lon="1.03821">
        <ele>372.6</ele>
        <time>2024-08-12T08:02:43Z</time>
      </trkpt>
      <trkpt lat="43.16787" lon="1.03819">
        <ele>373</ele>
        <time>2024-08-12T08:02:44Z</time>
      </trkpt>
      <trkpt lat="43.16785" lon="1.03817">
        <ele>373.4</ele>
        <time>2024-08-12T08:02:45Z</time>
      </trkpt>
      <trkpt lat="43.16783" lon="1.03815">
        <ele>373.8</ele>
        <time>2024-08-12T08:02:46Z</time>
      </trkpt>
      <trkpt lat="43.16769" lon="1.03805">
        <ele>373.8</ele>
        <time>2024-08-12T08:02:52Z</time>
      </trkpt>
      <trkpt lat="43.1676" lon="1.03798">
        <ele>374.2</ele>
        <time>2024-08-12T08:02:56Z</time>
      </trkpt>
      <trkpt lat="43.16758" lon="1.03796">
        <ele>374.6</ele>
        <time>2024-08-12T08:02:57Z</time>
      </trkpt>
      <trkpt lat="43.16756" lon="1.03794">
        <ele>375</ele>
        <time>2024-08-12T08:02:58Z</time>
      </trkpt>
      <trkpt lat="43.16753" lon="1.03792">
        <ele>375.4</ele>
        <time>2024-08-12T08:02:59Z</time>
      </trkpt>
      <trkpt lat="43.16751" lon="1.0379">
        <ele>375.8</ele>
        <time>2024-08-12T08:03:00Z</time>
      </trkpt>
      <trkpt lat="43.16734" lon="1.03777">
        <ele>376.2</ele>
        <time>2024-08-12T08:03:08Z</time>
      </trkpt>
      <trkpt lat="43.16731" lon="1.03775">
        <ele>376.6</ele>
        <time>2024-08-12T08:03:09Z</time>
      </trkpt>
      <trkpt lat="43.16729" lon="1.03774">
        <ele>377</ele>
        <time>2024-08-12T08:03:10Z</time>
      </trkpt>
      <trkpt lat="43.16727" lon="1.03772">
        <ele>377.4</ele>
        <time>2024-08-12T08:03:11Z</time>
      </trkpt>
      <trkpt lat="43.16725" lon="1.0377">
        <ele>377.8</ele>
        <time>2024-08-12T08:03:12Z</time>
      </trkpt>
      <trkpt lat="43.16715" lon="1.03766">
        <ele>377.8</ele>
        <time>2024-08-12T08:03:16Z</time>
      </trkpt>
      <trkpt lat="43.16699" lon="1.03759">
        <ele>377.8</ele>
        <time>2024-08-12T08:03:23Z</time>
      </trkpt>
      <trkpt lat="43.16696" lon="1.03758">
        <ele>378.2</ele>
        <time>2024-08-12T08:03:24Z</time>
      </trkpt>
      <trkpt lat="43.16693" lon="1.03757">
        <ele>378.8</ele>
        <time>2024-08-12T08:03:25Z</time>
      </trkpt>
      <trkpt lat="43.16691" lon="1.03756">
        <ele>379.2</ele>
        <time>2024-08-12T08:03:26Z</time>
      </trkpt>
      <trkpt lat="43.16688" lon="1.03755">
        <ele>379.6</ele>
        <time>2024-08-12T08:03:27Z</time>
      </trkpt>
      <trkpt lat="43.16685" lon="1.03755">
        <ele>380</ele>
        <time>2024-08-12T08:03:28Z</time>
      </trkpt>
      <trkpt lat="43.16675" lon="1.03752">
        <ele>380</ele>
        <time>2024-08-12T08:03:32Z</time>
      </trkpt>
      <trkpt lat="43.16657" lon="1.03747">
        <ele>380</ele>
        <time>2024-08-12T08:03:39Z</time>
      </trkpt>
      <trkpt lat="43.16652" lon="1.03745">
        <ele>380.4</ele>
        <time>2024-08-12T08:03:41Z</time>
      </trkpt>
      <trkpt lat="43.1665" lon="1.03744">
        <ele>380.8</ele>
        <time>2024-08-12T08:03:42Z</time>
      </trkpt>
      <trkpt lat="43.16647" lon="1.03744">
        <ele>381.2</ele>
        <time>2024-08-12T08:03:43Z</time>
      </trkpt>
      <trkpt lat="43.16645" lon="1.03743">
        <ele>381.6</ele>
        <time>2024-08-12T08:03:44Z</time>
      </trkpt>
      <trkpt lat="43.16642" lon="1.03742">
        <ele>382</ele>
        <time>2024-08-12T08:03:45Z</time>
      </trkpt>
      <trkpt lat="43.16637" lon="1.0374">
        <ele>382</ele>
        <time>2024-08-12T08:03:47Z</time>
      </trkpt>
      <trkpt lat="43.16616" lon="1.03735">
        <ele>382.4</ele>
        <time>2024-08-12T08:03:56Z</time>
      </trkpt>
      <trkpt lat="43.16613" lon="1.03734">
        <ele>382.8</ele>
        <time>2024-08-12T08:03:57Z</time>
      </trkpt>
      <trkpt lat="43.16611" lon="1.03733">
        <ele>383.6</ele>
        <time>2024-08-12T08:03:58Z</time>
      </trkpt>
      <trkpt lat="43.16608" lon="1.03733">
        <ele>384.2</ele>
        <time>2024-08-12T08:03:59Z</time>
      </trkpt>
      <trkpt lat="43.16594" lon="1.03728">
        <ele>384.2</ele>
        <time>2024-08-12T08:04:05Z</time>
      </trkpt>
      <trkpt lat="43.16587" lon="1.03725">
        <ele>384.6</ele>
        <time>2024-08-12T08:04:08Z</time>
      </trkpt>
      <trkpt lat="43.16585" lon="1.03725">
        <ele>385</ele>
        <time>2024-08-12T08:04:09Z</time>
      </trkpt>
      <trkpt lat="43.16582" lon="1.03724">
        <ele>385.4</ele>
        <time>2024-08-12T08:04:10Z</time>
      </trkpt>
      <trkpt lat="43.1658" lon="1.03723">
        <ele>385.8</ele>
        <time>2024-08-12T08:04:11Z</time>
      </trkpt>
      <trkpt lat="43.16578" lon="1.03722">
        <ele>386.2</ele>
        <time>2024-08-12T08:04:12Z</time>
      </trkpt>
      <trkpt lat="43.16559" lon="1.03718">
        <ele>386.2</ele>
        <time>2024-08-12T08:04:20Z</time>
      </trkpt>
      <trkpt lat="43.16552" lon="1.03717">
        <ele>387</ele>
        <time>2024-08-12T08:04:23Z</time>
      </trkpt>
      <trkpt lat="43.1655" lon="1.03716">
        <ele>387.4</ele>
        <time>2024-08-12T08:04:24Z</time>
      </trkpt>
      <trkpt lat="43.16547" lon="1.03716">
        <ele>387.8</ele>
        <time>2024-08-12T08:04:25Z</time>
      </trkpt>
      <trkpt lat="43.16544" lon="1.03715">
        <ele>388.2</ele>
        <time>2024-08-12T08:04:26Z</time>
      </trkpt>
      <trkpt lat="43.16542" lon="1.03714">
        <ele>388.2</ele>
        <time>2024-08-12T08:04:27Z</time>
      </trkpt>
      <trkpt lat="43.16525" lon="1.03708">
        <ele>388.2</ele>
        <time>2024-08-12T08:04:34Z</time>
      </trkpt>
      <trkpt lat="43.16523" lon="1.03708">
        <ele>388.6</ele>
        <time>2024-08-12T08:04:35Z</time>
      </trkpt>
      <trkpt lat="43.1652" lon="1.03707">
        <ele>389.2</ele>
        <time>2024-08-12T08:04:36Z</time>
      </trkpt>
      <trkpt lat="43.16518" lon="1.03707">
        <ele>389.6</ele>
        <time>2024-08-12T08:04:37Z</time>
      </trkpt>
      <trkpt lat="43.16515" lon="1.03706">
        <ele>390</ele>
        <time>2024-08-12T08:04:38Z</time>
      </trkpt>
      <trkpt lat="43.16513" lon="1.03705">
        <ele>390.4</ele>
        <time>2024-08-12T08:04:39Z</time>
      </trkpt>
      <trkpt lat="43.1651" lon="1.03703">
        <ele>390.4</ele>
        <time>2024-08-12T08:04:40Z</time>
      </trkpt>
      <trkpt lat="43.16498" lon="1.037">
        <ele>390.4</ele>
        <time>2024-08-12T08:04:45Z</time>
      </trkpt>
      <trkpt lat="43.16483" lon="1.03695">
        <ele>390.8</ele>
        <time>2024-08-12T08:04:51Z</time>
      </trkpt>
      <trkpt lat="43.1648" lon="1.03694">
        <ele>391.2</ele>
        <time>2024-08-12T08:04:52Z</time>
      </trkpt>
      <trkpt lat="43.16478" lon="1.03693">
        <ele>391.6</ele>
        <time>2024-08-12T08:04:53Z</time>
      </trkpt>
      <trkpt lat="43.16476" lon="1.03691">
        <ele>392</ele>
        <time>2024-08-12T08:04:54Z</time>
      </trkpt>
      <trkpt lat="43.16473" lon="1.0369">
        <ele>392.4</ele>
        <time>2024-08-12T08:04:55Z</time>
      </trkpt>
      <trkpt lat="43.16461" lon="1.03686">
        <ele>392.4</ele>
        <time>2024-08-12T08:05:00Z</time>
      </trkpt>
      <trkpt lat="43.16447" lon="1.03678">
        <ele>392.4</ele>
        <time>2024-08-12T08:05:06Z</time>
      </trkpt>
      <trkpt lat="43.1643" lon="1.03667">
        <ele>392.4</ele>
        <time>2024-08-12T08:05:13Z</time>
      </trkpt>
      <trkpt lat="43.16413" lon="1.03656">
        <ele>392.4</ele>
        <time>2024-08-12T08:05:19Z</time>
      </trkpt>
      <trkpt lat="43.1639" lon="1.03638">
        <ele>392.4</ele>
        <time>2024-08-12T08:05:24Z</time>
      </trkpt>
      <trkpt lat="43.1636" lon="1.03615">
        <ele>392.4</ele>
        <time>2024-08-12T08:05:29Z</time>
      </trkpt>
      <trkpt lat="43.16353" lon="1.0361">
        <ele>392</ele>
        <time>2024-08-12T08:05:30Z</time>
      </trkpt>
      <trkpt lat="43.16346" lon="1.03605">
        <ele>391.4</ele>
        <time>2024-08-12T08:05:31Z</time>
      </trkpt>
      <trkpt lat="43.16339" lon="1.03599">
        <ele>391</ele>
        <time>2024-08-12T08:05:32Z</time>
      </trkpt>
      <trkpt lat="43.16331" lon="1.03592">
        <ele>390.4</ele>
        <time>2024-08-12T08:05:33Z</time>
      </trkpt>
      <trkpt lat="43.16323" lon="1.03586">
        <ele>390</ele>
        <time>2024-08-12T08:05:34Z</time>
      </trkpt>
      <trkpt lat="43.16316" lon="1.03579">
        <ele>389.4</ele>
        <time>2024-08-12T08:05:35Z</time>
      </trkpt>
      <trkpt lat="43.16308" lon="1.03571">
        <ele>388.8</ele>
        <time>2024-08-12T08:05:36Z</time>
      </trkpt>
      <trkpt lat="43.16301" lon="1.03562">
        <ele>387.6</ele>
        <time>2024-08-12T08:05:37Z</time>
      </trkpt>
      <trkpt lat="43.16294" lon="1.03553">
        <ele>387</ele>
        <time>2024-08-12T08:05:38Z</time>
      </trkpt>
      <trkpt lat="43.16288" lon="1.03544">
        <ele>386.4</ele>
        <time>2024-08-12T08:05:39Z</time>
      </trkpt>
      <trkpt lat="43.16281" lon="1.03533">
        <ele>385.8</ele>
        <time>2024-08-12T08:05:40Z</time>
      </trkpt>
      <trkpt lat="43.16274" lon="1.03524">
        <ele>385.2</ele>
        <time>2024-08-12T08:05:41Z</time>
      </trkpt>
      <trkpt lat="43.16268" lon="1.03515">
        <ele>384.8</ele>
        <time>2024-08-12T08:05:42Z</time>
      </trkpt>
      <trkpt lat="43.16262" lon="1.03506">
        <ele>384.2</ele>
        <time>2024-08-12T08:05:43Z</time>
      </trkpt>
      <trkpt lat="43.16256" lon="1.03498">
        <ele>383.8</ele>
        <time>2024-08-12T08:05:44Z</time>
      </trkpt>
      <trkpt lat="43.16251" lon="1.03489">
        <ele>383.4</ele>
        <time>2024-08-12T08:05:45Z</time>
      </trkpt>
      <trkpt lat="43.16246" lon="1.03479">
        <ele>383</ele>
        <time>2024-08-12T08:05:46Z</time>
      </trkpt>
      <trkpt lat="43.16235" lon="1.03452">
        <ele>383</ele>
        <time>2024-08-12T08:05:49Z</time>
      </trkpt>
      <trkpt lat="43.16222" lon="1.0341">
        <ele>383</ele>
        <time>2024-08-12T08:05:54Z</time>
      </trkpt>
      <trkpt lat="43.16213" lon="1.03369">
        <ele>383</ele>
        <time>2024-08-12T08:06:00Z</time>
      </trkpt>
      <trkpt lat="43.16204" lon="1.0334">
        <ele>383</ele>
        <time>2024-08-12T08:06:06Z</time>
      </trkpt>
      <trkpt lat="43.16203" lon="1.03336">
        <ele>383.4</ele>
        <time>2024-08-12T08:06:07Z</time>
      </trkpt>
      <trkpt lat="43.16202" lon="1.03331">
        <ele>383.8</ele>
        <time>2024-08-12T08:06:08Z</time>
      </trkpt>
      <trkpt lat="43.16201" lon="1.03328">
        <ele>384.4</ele>
        <time>2024-08-12T08:06:09Z</time>
      </trkpt>
      <trkpt lat="43.162" lon="1.03324">
        <ele>384.8</ele>
        <time>2024-08-12T08:06:10Z</time>
      </trkpt>
      <trkpt lat="43.16199" lon="1.03319">
        <ele>385.2</ele>
        <time>2024-08-12T08:06:11Z</time>
      </trkpt>
      <trkpt lat="43.16198" lon="1.03315">
        <ele>385.2</ele>
        <time>2024-08-12T08:06:12Z</time>
      </trkpt>
      <trkpt lat="43.16194" lon="1.033">
        <ele>385.6</ele>
        <time>2024-08-12T08:06:16Z</time>
      </trkpt>
      <trkpt lat="43.16193" lon="1.03296">
        <ele>386</ele>
        <time>2024-08-12T08:06:17Z</time>
      </trkpt>
      <trkpt lat="43.16192" lon="1.03292">
        <ele>386.6</ele>
        <time>2024-08-12T08:06:18Z</time>
      </trkpt>
      <trkpt lat="43.16191" lon="1.03288">
        <ele>387</ele>
        <time>2024-08-12T08:06:19Z</time>
      </trkpt>
      <trkpt lat="43.16191" lon="1.03284">
        <ele>387.4</ele>
        <time>2024-08-12T08:06:20Z</time>
      </trkpt>
      <trkpt lat="43.16185" lon="1.03261">
        <ele>388.2</ele>
        <time>2024-08-12T08:06:26Z</time>
      </trkpt>
      <trkpt lat="43.16184" lon="1.03257">
        <ele>388.6</ele>
        <time>2024-08-12T08:06:27Z</time>
      </trkpt>
      <trkpt lat="43.16183" lon="1.03254">
        <ele>389</ele>
        <time>2024-08-12T08:06:28Z</time>
      </trkpt>
      <trkpt lat="43.16182" lon="1.0325">
        <ele>389.4</ele>
        <time>2024-08-12T08:06:29Z</time>
      </trkpt>
      <trkpt lat="43.16178" lon="1.03236">
        <ele>389.4</ele>
        <time>2024-08-12T08:06:33Z</time>
      </trkpt>
      <trkpt lat="43.16176" lon="1.03226">
        <ele>389.8</ele>
        <time>2024-08-12T08:06:36Z</time>
      </trkpt>
      <trkpt lat="43.16175" lon="1.03222">
        <ele>390.2</ele>
        <time>2024-08-12T08:06:37Z</time>
      </trkpt>
      <trkpt lat="43.16175" lon="1.03219">
        <ele>390.6</ele>
        <time>2024-08-12T08:06:38Z</time>
      </trkpt>
      <trkpt lat="43.16174" lon="1.03216">
        <ele>391</ele>
        <time>2024-08-12T08:06:39Z</time>
      </trkpt>
      <trkpt lat="43.16174" lon="1.03213">
        <ele>391.6</ele>
        <time>2024-08-12T08:06:40Z</time>
      </trkpt>
      <trkpt lat="43.16173" lon="1.03192">
        <ele>391.6</ele>
        <time>2024-08-12T08:06:45Z</time>
      </trkpt>
      <trkpt lat="43.16174" lon="1.03188">
        <ele>392</ele>
        <time>2024-08-12T08:06:46Z</time>
      </trkpt>
      <trkpt lat="43.16174" lon="1.03184">
        <ele>392.4</ele>
        <time>2024-08-12T08:06:47Z</time>
      </trkpt>
      <trkpt lat="43.16174" lon="1.03181">
        <ele>392.8</ele>
        <time>2024-08-12T08:06:48Z</time>
      </trkpt>
      <trkpt lat="43.16174" lon="1.03177">
        <ele>393.2</ele>
        <time>2024-08-12T08:06:49Z</time>
      </trkpt>
      <trkpt lat="43.16174" lon="1.03173">
        <ele>393.6</ele>
        <time>2024-08-12T08:06:50Z</time>
      </trkpt>
      <trkpt lat="43.16175" lon="1.03169">
        <ele>393.6</ele>
        <time>2024-08-12T08:06:51Z</time>
      </trkpt>
      <trkpt lat="43.16176" lon="1.03154">
        <ele>394</ele>
        <time>2024-08-12T08:06:55Z</time>
      </trkpt>
      <trkpt lat="43.16176" lon="1.0315">
        <ele>394.4</ele>
        <time>2024-08-12T08:06:56Z</time>
      </trkpt>
      <trkpt lat="43.16176" lon="1.03146">
        <ele>394.8</ele>
        <time>2024-08-12T08:06:57Z</time>
      </trkpt>
      <trkpt lat="43.16176" lon="1.03142">
        <ele>395.2</ele>
        <time>2024-08-12T08:06:58Z</time>
      </trkpt>
      <trkpt lat="43.16176" lon="1.03138">
        <ele>395.6</ele>
        <time>2024-08-12T08:06:59Z</time>
      </trkpt>
      <trkpt lat="43.16176" lon="1.03118">
        <ele>396</ele>
        <time>2024-08-12T08:07:04Z</time>
      </trkpt>
      <trkpt lat="43.16176" lon="1.03114">
        <ele>396.4</ele>
        <time>2024-08-12T08:07:05Z</time>
      </trkpt>
      <trkpt lat="43.16176" lon="1.03111">
        <ele>396.8</ele>
        <time>2024-08-12T08:07:06Z</time>
      </trkpt>
      <trkpt lat="43.16177" lon="1.03107">
        <ele>397.2</ele>
        <time>2024-08-12T08:07:07Z</time>
      </trkpt>
      <trkpt lat="43.16177" lon="1.03103">
        <ele>397.6</ele>
        <time>2024-08-12T08:07:08Z</time>
      </trkpt>
      <trkpt lat="43.16178" lon="1.03094">
        <ele>398</ele>
        <time>2024-08-12T08:07:11Z</time>
      </trkpt>
      <trkpt lat="43.16178" lon="1.0309">
        <ele>398.4</ele>
        <time>2024-08-12T08:07:12Z</time>
      </trkpt>
      <trkpt lat="43.16178" lon="1.03087">
        <ele>398.8</ele>
        <time>2024-08-12T08:07:13Z</time>
      </trkpt>
      <trkpt lat="43.16178" lon="1.03083">
        <ele>399.2</ele>
        <time>2024-08-12T08:07:14Z</time>
      </trkpt>
      <trkpt lat="43.16178" lon="1.03079">
        <ele>399.6</ele>
        <time>2024-08-12T08:07:15Z</time>
      </trkpt>
      <trkpt lat="43.16177" lon="1.03069">
        <ele>400</ele>
        <time>2024-08-12T08:07:18Z</time>
      </trkpt>
      <trkpt lat="43.16177" lon="1.03066">
        <ele>400.6</ele>
        <time>2024-08-12T08:07:19Z</time>
      </trkpt>
      <trkpt lat="43.16177" lon="1.03062">
        <ele>401</ele>
        <time>2024-08-12T08:07:20Z</time>
      </trkpt>
      <trkpt lat="43.16176" lon="1.03059">
        <ele>401.4</ele>
        <time>2024-08-12T08:07:21Z</time>
      </trkpt>
      <trkpt lat="43.16176" lon="1.03055">
        <ele>401.8</ele>
        <time>2024-08-12T08:07:22Z</time>
      </trkpt>
      <trkpt lat="43.16175" lon="1.0304">
        <ele>402.2</ele>
        <time>2024-08-12T08:07:26Z</time>
      </trkpt>
      <trkpt lat="43.16174" lon="1.03036">
        <ele>402.6</ele>
        <time>2024-08-12T08:07:27Z</time>
      </trkpt>
      <trkpt lat="43.16174" lon="1.03033">
        <ele>403</ele>
        <time>2024-08-12T08:07:28Z</time>
      </trkpt>
      <trkpt lat="43.16173" lon="1.03029">
        <ele>403.4</ele>
        <time>2024-08-12T08:07:29Z</time>
      </trkpt>
      <trkpt lat="43.16173" lon="1.03026">
        <ele>404</ele>
        <time>2024-08-12T08:07:30Z</time>
      </trkpt>
      <trkpt lat="43.16171" lon="1.03011">
        <ele>404</ele>
        <time>2024-08-12T08:07:34Z</time>
      </trkpt>
      <trkpt lat="43.1617" lon="1.03004">
        <ele>404.4</ele>
        <time>2024-08-12T08:07:36Z</time>
      </trkpt>
      <trkpt lat="43.16169" lon="1.03001">
        <ele>404.8</ele>
        <time>2024-08-12T08:07:37Z</time>
      </trkpt>
      <trkpt lat="43.16169" lon="1.02998">
        <ele>405.2</ele>
        <time>2024-08-12T08:07:38Z</time>
      </trkpt>
      <trkpt lat="43.16169" lon="1.02996">
        <ele>405.6</ele>
        <time>2024-08-12T08:07:39Z</time>
      </trkpt>
      <trkpt lat="43.16168" lon="1.02993">
        <ele>406</ele>
        <time>2024-08-12T08:07:40Z</time>
      </trkpt>
      <trkpt lat="43.16168" lon="1.02978">
        <ele>406.4</ele>
        <time>2024-08-12T08:07:45Z</time>
      </trkpt>
      <trkpt lat="43.16168" lon="1.02976">
        <ele>406.8</ele>
        <time>2024-08-12T08:07:46Z</time>
      </trkpt>
      <trkpt lat="43.16168" lon="1.02973">
        <ele>407.2</ele>
        <time>2024-08-12T08:07:47Z</time>
      </trkpt>
      <trkpt lat="43.16167" lon="1.0297">
        <ele>407.8</ele>
        <time>2024-08-12T08:07:48Z</time>
      </trkpt>
      <trkpt lat="43.16167" lon="1.02967">
        <ele>408.2</ele>
        <time>2024-08-12T08:07:49Z</time>
      </trkpt>
      <trkpt lat="43.16168" lon="1.0296">
        <ele>408.2</ele>
        <time>2024-08-12T08:07:51Z</time>
      </trkpt>
      <trkpt lat="43.16167" lon="1.02951">
        <ele>408.6</ele>
        <time>2024-08-12T08:07:54Z</time>
      </trkpt>
      <trkpt lat="43.16167" lon="1.02948">
        <ele>409</ele>
        <time>2024-08-12T08:07:55Z</time>
      </trkpt>
      <trkpt lat="43.16168" lon="1.02945">
        <ele>409.4</ele>
        <time>2024-08-12T08:07:56Z</time>
      </trkpt>
      <trkpt lat="43.16169" lon="1.02942">
        <ele>409.8</ele>
        <time>2024-08-12T08:07:57Z</time>
      </trkpt>
      <trkpt lat="43.1617" lon="1.02938">
        <ele>410.2</ele>
        <time>2024-08-12T08:07:58Z</time>
      </trkpt>
      <trkpt lat="43.16172" lon="1.02924">
        <ele>410.6</ele>
        <time>2024-08-12T08:08:02Z</time>
      </trkpt>
      <trkpt lat="43.16173" lon="1.02921">
        <ele>411</ele>
        <time>2024-08-12T08:08:03Z</time>
      </trkpt>
      <trkpt lat="43.16174" lon="1.02918">
        <ele>411.6</ele>
        <time>2024-08-12T08:08:04Z</time>
      </trkpt>
      <trkpt lat="43.16175" lon="1.02915">
        <ele>412.4</ele>
        <time>2024-08-12T08:08:05Z</time>
      </trkpt>
      <trkpt lat="43.16181" lon="1.02901">
        <ele>412.8</ele>
        <time>2024-08-12T08:08:10Z</time>
      </trkpt>
      <trkpt lat="43.16182" lon="1.02898">
        <ele>413.2</ele>
        <time>2024-08-12T08:08:11Z</time>
      </trkpt>
      <trkpt lat="43.16184" lon="1.02895">
        <ele>413.6</ele>
        <time>2024-08-12T08:08:12Z</time>
      </trkpt>
      <trkpt lat="43.16185" lon="1.02892">
        <ele>414</ele>
        <time>2024-08-12T08:08:13Z</time>
      </trkpt>
      <trkpt lat="43.16186" lon="1.02889">
        <ele>414.4</ele>
        <time>2024-08-12T08:08:14Z</time>
      </trkpt>
      <trkpt lat="43.16188" lon="1.02883">
        <ele>414.4</ele>
        <time>2024-08-12T08:08:16Z</time>
      </trkpt>
      <trkpt lat="43.16192" lon="1.0287">
        <ele>415</ele>
        <time>2024-08-12T08:08:20Z</time>
      </trkpt>
      <trkpt lat="43.16193" lon="1.02868">
        <ele>415.4</ele>
        <time>2024-08-12T08:08:21Z</time>
      </trkpt>
      <trkpt lat="43.16194" lon="1.02865">
        <ele>415.8</ele>
        <time>2024-08-12T08:08:22Z</time>
      </trkpt>
      <trkpt lat="43.16195" lon="1.02862">
        <ele>416.2</ele>
        <time>2024-08-12T08:08:23Z</time>
      </trkpt>
      <trkpt lat="43.16196" lon="1.02858">
        <ele>416.6</ele>
        <time>2024-08-12T08:08:24Z</time>
      </trkpt>
      <trkpt lat="43.16201" lon="1.02841">
        <ele>417.4</ele>
        <time>2024-08-12T08:08:29Z</time>
      </trkpt>
      <trkpt lat="43.16202" lon="1.02838">
        <ele>418</ele>
        <time>2024-08-12T08:08:30Z</time>
      </trkpt>
      <trkpt lat="43.16203" lon="1.02835">
        <ele>418.4</ele>
        <time>2024-08-12T08:08:31Z</time>
      </trkpt>
      <trkpt lat="43.16204" lon="1.02833">
        <ele>418.8</ele>
        <time>2024-08-12T08:08:32Z</time>
      </trkpt>
      <trkpt lat="43.16209" lon="1.02822">
        <ele>418.8</ele>
        <time>2024-08-12T08:08:36Z</time>
      </trkpt>
      <trkpt lat="43.1621" lon="1.02819">
        <ele>419.2</ele>
        <time>2024-08-12T08:08:37Z</time>
      </trkpt>
      <trkpt lat="43.16211" lon="1.02816">
        <ele>419.8</ele>
        <time>2024-08-12T08:08:38Z</time>
      </trkpt>
      <trkpt lat="43.16212" lon="1.02813">
        <ele>420.2</ele>
        <time>2024-08-12T08:08:39Z</time>
      </trkpt>
      <trkpt lat="43.16213" lon="1.0281">
        <ele>420.6</ele>
        <time>2024-08-12T08:08:40Z</time>
      </trkpt>
      <trkpt lat="43.16214" lon="1.02807">
        <ele>421</ele>
        <time>2024-08-12T08:08:41Z</time>
      </trkpt>
      <trkpt lat="43.16215" lon="1.028">
        <ele>421</ele>
        <time>2024-08-12T08:08:43Z</time>
      </trkpt>
      <trkpt lat="43.16218" lon="1.02787">
        <ele>421.6</ele>
        <time>2024-08-12T08:08:47Z</time>
      </trkpt>
      <trkpt lat="43.16219" lon="1.02784">
        <ele>422</ele>
        <time>2024-08-12T08:08:48Z</time>
      </trkpt>
      <trkpt lat="43.1622" lon="1.02782">
        <ele>422.4</ele>
        <time>2024-08-12T08:08:49Z</time>
      </trkpt>
      <trkpt lat="43.16221" lon="1.02778">
        <ele>422.8</ele>
        <time>2024-08-12T08:08:50Z</time>
      </trkpt>
      <trkpt lat="43.16222" lon="1.02776">
        <ele>423.2</ele>
        <time>2024-08-12T08:08:51Z</time>
      </trkpt>
      <trkpt lat="43.16222" lon="1.02767">
        <ele>423.2</ele>
        <time>2024-08-12T08:08:54Z</time>
      </trkpt>
      <trkpt lat="43.16224" lon="1.02764">
        <ele>423.8</ele>
        <time>2024-08-12T08:08:55Z</time>
      </trkpt>
      <trkpt lat="43.16224" lon="1.02761">
        <ele>424.2</ele>
        <time>2024-08-12T08:08:56Z</time>
      </trkpt>
      <trkpt lat="43.16225" lon="1.02758">
        <ele>424.6</ele>
        <time>2024-08-12T08:08:57Z</time>
      </trkpt>
      <trkpt lat="43.16226" lon="1.02755">
        <ele>425</ele>
        <time>2024-08-12T08:08:58Z</time>
      </trkpt>
      <trkpt lat="43.16227" lon="1.02752">
        <ele>425.4</ele>
        <time>2024-08-12T08:08:59Z</time>
      </trkpt>
      <trkpt lat="43.16227" lon="1.02751">
        <ele>425.4</ele>
        <time>2024-08-12T08:09:00Z</time>
      </trkpt>
      <trkpt lat="43.1623" lon="1.02741">
        <ele>425.8</ele>
        <time>2024-08-12T08:09:04Z</time>
      </trkpt>
      <trkpt lat="43.1623" lon="1.02738">
        <ele>426.2</ele>
        <time>2024-08-12T08:09:05Z</time>
      </trkpt>
      <trkpt lat="43.16231" lon="1.02735">
        <ele>426.6</ele>
        <time>2024-08-12T08:09:06Z</time>
      </trkpt>
      <trkpt lat="43.16232" lon="1.02732">
        <ele>427</ele>
        <time>2024-08-12T08:09:07Z</time>
      </trkpt>
      <trkpt lat="43.16232" lon="1.02728">
        <ele>427.4</ele>
        <time>2024-08-12T08:09:08Z</time>
      </trkpt>
      <trkpt lat="43.16233" lon="1.02723">
        <ele>427.4</ele>
        <time>2024-08-12T08:09:10Z</time>
      </trkpt>
      <trkpt lat="43.16236" lon="1.02713">
        <ele>427.8</ele>
        <time>2024-08-12T08:09:13Z</time>
      </trkpt>
      <trkpt lat="43.16236" lon="1.0271">
        <ele>428.2</ele>
        <time>2024-08-12T08:09:14Z</time>
      </trkpt>
      <trkpt lat="43.16237" lon="1.02707">
        <ele>428.8</ele>
        <time>2024-08-12T08:09:15Z</time>
      </trkpt>
      <trkpt lat="43.16237" lon="1.02703">
        <ele>429.2</ele>
        <time>2024-08-12T08:09:16Z</time>
      </trkpt>
      <trkpt lat="43.16237" lon="1.027">
        <ele>429.6</ele>
        <time>2024-08-12T08:09:17Z</time>
      </trkpt>
      <trkpt lat="43.16236" lon="1.02688">
        <ele>429.6</ele>
        <time>2024-08-12T08:09:20Z</time>
      </trkpt>
      <trkpt lat="43.16236" lon="1.02684">
        <ele>429.6</ele>
        <time>2024-08-12T08:09:21Z</time>
      </trkpt>
      <trkpt lat="43.16232" lon="1.02668">
        <ele>429.6</ele>
        <time>2024-08-12T08:09:26Z</time>
      </trkpt>
      <trkpt lat="43.1623" lon="1.02666">
        <ele>430</ele>
        <time>2024-08-12T08:09:27Z</time>
      </trkpt>
      <trkpt lat="43.16227" lon="1.02665">
        <ele>430.4</ele>
        <time>2024-08-12T08:09:28Z</time>
      </trkpt>
      <trkpt lat="43.16225" lon="1.02665">
        <ele>430.8</ele>
        <time>2024-08-12T08:09:29Z</time>
      </trkpt>
      <trkpt lat="43.16223" lon="1.02666">
        <ele>431.2</ele>
        <time>2024-08-12T08:09:30Z</time>
      </trkpt>
      <trkpt lat="43.16221" lon="1.02667">
        <ele>431.8</ele>
        <time>2024-08-12T08:09:31Z</time>
      </trkpt>
      <trkpt lat="43.16218" lon="1.02678">
        <ele>431.8</ele>
        <time>2024-08-12T08:09:35Z</time>
      </trkpt>
      <trkpt lat="43.16218" lon="1.02689">
        <ele>431.8</ele>
        <time>2024-08-12T08:09:39Z</time>
      </trkpt>
      <trkpt lat="43.16216" lon="1.02691">
        <ele>432.2</ele>
        <time>2024-08-12T08:09:40Z</time>
      </trkpt>
      <trkpt lat="43.16215" lon="1.02691">
        <ele>432.6</ele>
        <time>2024-08-12T08:09:41Z</time>
      </trkpt>
      <trkpt lat="43.16213" lon="1.02689">
        <ele>433</ele>
        <time>2024-08-12T08:09:42Z</time>
      </trkpt>
      <trkpt lat="43.16211" lon="1.02685">
        <ele>433.4</ele>
        <time>2024-08-12T08:09:43Z</time>
      </trkpt>
      <trkpt lat="43.1621" lon="1.02682">
        <ele>433.8</ele>
        <time>2024-08-12T08:09:44Z</time>
      </trkpt>
      <trkpt lat="43.1621" lon="1.02679">
        <ele>433.8</ele>
        <time>2024-08-12T08:09:45Z</time>
      </trkpt>
      <trkpt lat="43.16208" lon="1.0267">
        <ele>434.2</ele>
        <time>2024-08-12T08:09:48Z</time>
      </trkpt>
      <trkpt lat="43.16208" lon="1.02666">
        <ele>434.8</ele>
        <time>2024-08-12T08:09:49Z</time>
      </trkpt>
      <trkpt lat="43.16207" lon="1.02663">
        <ele>435.2</ele>
        <time>2024-08-12T08:09:50Z</time>
      </trkpt>
      <trkpt lat="43.16206" lon="1.02661">
        <ele>435.6</ele>
        <time>2024-08-12T08:09:51Z</time>
      </trkpt>
      <trkpt lat="43.16205" lon="1.02658">
        <ele>436</ele>
        <time>2024-08-12T08:09:52Z</time>
      </trkpt>
      <trkpt lat="43.16202" lon="1.02641">
        <ele>436</ele>
        <time>2024-08-12T08:09:59Z</time>
      </trkpt>
      <trkpt lat="43.16201" lon="1.02639">
        <ele>436.4</ele>
        <time>2024-08-12T08:10:00Z</time>
      </trkpt>
      <trkpt lat="43.162" lon="1.02637">
        <ele>436.8</ele>
        <time>2024-08-12T08:10:01Z</time>
      </trkpt>
      <trkpt lat="43.16199" lon="1.02635">
        <ele>437.4</ele>
        <time>2024-08-12T08:10:02Z</time>
      </trkpt>
      <trkpt lat="43.16199" lon="1.02632">
        <ele>437.8</ele>
        <time>2024-08-12T08:10:03Z</time>
      </trkpt>
      <trkpt lat="43.16199" lon="1.02629">
        <ele>438.2</ele>
        <time>2024-08-12T08:10:04Z</time>
      </trkpt>
      <trkpt lat="43.16199" lon="1.02627">
        <ele>438.2</ele>
        <time>2024-08-12T08:10:05Z</time>
      </trkpt>
      <trkpt lat="43.16198" lon="1.02618">
        <ele>439.2</ele>
        <time>2024-08-12T08:10:08Z</time>
      </trkpt>
      <trkpt lat="43.16198" lon="1.02615">
        <ele>439.6</ele>
        <time>2024-08-12T08:10:09Z</time>
      </trkpt>
      <trkpt lat="43.16198" lon="1.02611">
        <ele>440</ele>
        <time>2024-08-12T08:10:10Z</time>
      </trkpt>
      <trkpt lat="43.16197" lon="1.02608">
        <ele>440.4</ele>
        <time>2024-08-12T08:10:11Z</time>
      </trkpt>
      <trkpt lat="43.16197" lon="1.02604">
        <ele>441</ele>
        <time>2024-08-12T08:10:12Z</time>
      </trkpt>
      <trkpt lat="43.16197" lon="1.02601">
        <ele>441.4</ele>
        <time>2024-08-12T08:10:13Z</time>
      </trkpt>
      <trkpt lat="43.16197" lon="1.02598">
        <ele>441.8</ele>
        <time>2024-08-12T08:10:14Z</time>
      </trkpt>
      <trkpt lat="43.16197" lon="1.02595">
        <ele>442.2</ele>
        <time>2024-08-12T08:10:15Z</time>
      </trkpt>
      <trkpt lat="43.16198" lon="1.02591">
        <ele>442.6</ele>
        <time>2024-08-12T08:10:16Z</time>
      </trkpt>
      <trkpt lat="43.16198" lon="1.02587">
        <ele>442.6</ele>
        <time>2024-08-12T08:10:17Z</time>
      </trkpt>
      <trkpt lat="43.16196" lon="1.02572">
        <ele>443.2</ele>
        <time>2024-08-12T08:10:22Z</time>
      </trkpt>
      <trkpt lat="43.16195" lon="1.0257">
        <ele>443.6</ele>
        <time>2024-08-12T08:10:23Z</time>
      </trkpt>
      <trkpt lat="43.16195" lon="1.02568">
        <ele>444</ele>
        <time>2024-08-12T08:10:24Z</time>
      </trkpt>
      <trkpt lat="43.16194" lon="1.02565">
        <ele>444.4</ele>
        <time>2024-08-12T08:10:25Z</time>
      </trkpt>
      <trkpt lat="43.16194" lon="1.02563">
        <ele>445</ele>
        <time>2024-08-12T08:10:26Z</time>
      </trkpt>
      <trkpt lat="43.16193" lon="1.02561">
        <ele>445</ele>
        <time>2024-08-12T08:10:27Z</time>
      </trkpt>
      <trkpt lat="43.16193" lon="1.02559">
        <ele>445.4</ele>
        <time>2024-08-12T08:10:28Z</time>
      </trkpt>
      <trkpt lat="43.16192" lon="1.02557">
        <ele>445.8</ele>
        <time>2024-08-12T08:10:29Z</time>
      </trkpt>
      <trkpt lat="43.16193" lon="1.02555">
        <ele>446.2</ele>
        <time>2024-08-12T08:10:30Z</time>
      </trkpt>
      <trkpt lat="43.16193" lon="1.02553">
        <ele>446.8</ele>
        <time>2024-08-12T08:10:31Z</time>
      </trkpt>
      <trkpt lat="43.16193" lon="1.02552">
        <ele>447.2</ele>
        <time>2024-08-12T08:10:32Z</time>
      </trkpt>
      <trkpt lat="43.16193" lon="1.0255">
        <ele>447.2</ele>
        <time>2024-08-12T08:10:33Z</time>
      </trkpt>
      <trkpt lat="43.16193" lon="1.02545">
        <ele>447.2</ele>
        <time>2024-08-12T08:10:35Z</time>
      </trkpt>
      <trkpt lat="43.16195" lon="1.02533">
        <ele>447.2</ele>
        <time>2024-08-12T08:10:39Z</time>
      </trkpt>
      <trkpt lat="43.16195" lon="1.0253">
        <ele>447.6</ele>
        <time>2024-08-12T08:10:40Z</time>
      </trkpt>
      <trkpt lat="43.16196" lon="1.02526">
        <ele>448</ele>
        <time>2024-08-12T08:10:41Z</time>
      </trkpt>
      <trkpt lat="43.16195" lon="1.02523">
        <ele>448.4</ele>
        <time>2024-08-12T08:10:42Z</time>
      </trkpt>
      <trkpt lat="43.16195" lon="1.0252">
        <ele>448.8</ele>
        <time>2024-08-12T08:10:43Z</time>
      </trkpt>
      <trkpt lat="43.16195" lon="1.02518">
        <ele>449.2</ele>
        <time>2024-08-12T08:10:44Z</time>
      </trkpt>
      <trkpt lat="43.16194" lon="1.02516">
        <ele>449.2</ele>
        <time>2024-08-12T08:10:45Z</time>
      </trkpt>
      <trkpt lat="43.16194" lon="1.02507">
        <ele>449.6</ele>
        <time>2024-08-12T08:10:48Z</time>
      </trkpt>
      <trkpt lat="43.16194" lon="1.02505">
        <ele>450.2</ele>
        <time>2024-08-12T08:10:49Z</time>
      </trkpt>
      <trkpt lat="43.16194" lon="1.02502">
        <ele>450.6</ele>
        <time>2024-08-12T08:10:50Z</time>
      </trkpt>
      <trkpt lat="43.16194" lon="1.025">
        <ele>451.2</ele>
        <time>2024-08-12T08:10:51Z</time>
      </trkpt>
      <trkpt lat="43.16193" lon="1.02496">
        <ele>451.6</ele>
        <time>2024-08-12T08:10:52Z</time>
      </trkpt>
      <trkpt lat="43.16194" lon="1.0249">
        <ele>452</ele>
        <time>2024-08-12T08:10:54Z</time>
      </trkpt>
      <trkpt lat="43.16194" lon="1.02488">
        <ele>452.6</ele>
        <time>2024-08-12T08:10:55Z</time>
      </trkpt>
      <trkpt lat="43.16193" lon="1.02486">
        <ele>453</ele>
        <time>2024-08-12T08:10:56Z</time>
      </trkpt>
      <trkpt lat="43.16194" lon="1.02484">
        <ele>454</ele>
        <time>2024-08-12T08:10:57Z</time>
      </trkpt>
      <trkpt lat="43.16195" lon="1.02482">
        <ele>454.4</ele>
        <time>2024-08-12T08:10:58Z</time>
      </trkpt>
      <trkpt lat="43.16195" lon="1.02481">
        <ele>455</ele>
        <time>2024-08-12T08:10:59Z</time>
      </trkpt>
      <trkpt lat="43.16196" lon="1.02479">
        <ele>455.4</ele>
        <time>2024-08-12T08:11:00Z</time>
      </trkpt>
      <trkpt lat="43.16197" lon="1.02476">
        <ele>456</ele>
        <time>2024-08-12T08:11:01Z</time>
      </trkpt>
      <trkpt lat="43.16201" lon="1.02469">
        <ele>456</ele>
        <time>2024-08-12T08:11:04Z</time>
      </trkpt>
      <trkpt lat="43.16204" lon="1.02465">
        <ele>456.4</ele>
        <time>2024-08-12T08:11:06Z</time>
      </trkpt>
      <trkpt lat="43.16206" lon="1.02463">
        <ele>456.8</ele>
        <time>2024-08-12T08:11:07Z</time>
      </trkpt>
      <trkpt lat="43.16207" lon="1.02461">
        <ele>457.2</ele>
        <time>2024-08-12T08:11:08Z</time>
      </trkpt>
      <trkpt lat="43.16209" lon="1.02459">
        <ele>457.6</ele>
        <time>2024-08-12T08:11:09Z</time>
      </trkpt>
      <trkpt lat="43.1621" lon="1.02456">
        <ele>458</ele>
        <time>2024-08-12T08:11:10Z</time>
      </trkpt>
      <trkpt lat="43.16211" lon="1.02454">
        <ele>458</ele>
        <time>2024-08-12T08:11:11Z</time>
      </trkpt>
      <trkpt lat="43.16215" lon="1.02448">
        <ele>458.4</ele>
        <time>2024-08-12T08:11:14Z</time>
      </trkpt>
      <trkpt lat="43.16216" lon="1.02446">
        <ele>458.8</ele>
        <time>2024-08-12T08:11:15Z</time>
      </trkpt>
      <trkpt lat="43.16218" lon="1.02445">
        <ele>459.2</ele>
        <time>2024-08-12T08:11:16Z</time>
      </trkpt>
      <trkpt lat="43.16218" lon="1.02443">
        <ele>459.6</ele>
        <time>2024-08-12T08:11:17Z</time>
      </trkpt>
      <trkpt lat="43.1622" lon="1.02441">
        <ele>460</ele>
        <time>2024-08-12T08:11:18Z</time>
      </trkpt>
      <trkpt lat="43.16221" lon="1.02439">
        <ele>460</ele>
        <time>2024-08-12T08:11:19Z</time>
      </trkpt>
      <trkpt lat="43.16224" lon="1.02432">
        <ele>460</ele>
        <time>2024-08-12T08:11:22Z</time>
      </trkpt>
      <trkpt lat="43.16225" lon="1.02428">
        <ele>460</ele>
        <time>2024-08-12T08:11:23Z</time>
      </trkpt>
      <trkpt lat="43.16226" lon="1.02412">
        <ele>460</ele>
        <time>2024-08-12T08:11:26Z</time>
      </trkpt>
      <trkpt lat="43.16225" lon="1.02406">
        <ele>460</ele>
        <time>2024-08-12T08:11:27Z</time>
      </trkpt>
      <trkpt lat="43.16224" lon="1.0239">
        <ele>460</ele>
        <time>2024-08-12T08:11:30Z</time>
      </trkpt>
      <trkpt lat="43.16223" lon="1.02377">
        <ele>460</ele>
        <time>2024-08-12T08:11:34Z</time>
      </trkpt>
      <trkpt lat="43.16223" lon="1.02369">
        <ele>460</ele>
        <time>2024-08-12T08:11:36Z</time>
      </trkpt>
      <trkpt lat="43.16221" lon="1.0236">
        <ele>460</ele>
        <time>2024-08-12T08:11:38Z</time>
      </trkpt>
      <trkpt lat="43.16221" lon="1.02353">
        <ele>460</ele>
        <time>2024-08-12T08:11:40Z</time>
      </trkpt>
      <trkpt lat="43.16219" lon="1.02341">
        <ele>460</ele>
        <time>2024-08-12T08:11:43Z</time>
      </trkpt>
      <trkpt lat="43.16214" lon="1.02329">
        <ele>460.8</ele>
        <time>2024-08-12T08:11:47Z</time>
      </trkpt>
      <trkpt lat="43.16213" lon="1.02327">
        <ele>461.2</ele>
        <time>2024-08-12T08:11:48Z</time>
      </trkpt>
      <trkpt lat="43.16212" lon="1.02325">
        <ele>461.6</ele>
        <time>2024-08-12T08:11:49Z</time>
      </trkpt>
      <trkpt lat="43.16211" lon="1.02321">
        <ele>462</ele>
        <time>2024-08-12T08:11:50Z</time>
      </trkpt>
      <trkpt lat="43.16208" lon="1.02315">
        <ele>462.6</ele>
        <time>2024-08-12T08:11:52Z</time>
      </trkpt>
      <trkpt lat="43.16207" lon="1.02314">
        <ele>463</ele>
        <time>2024-08-12T08:11:53Z</time>
      </trkpt>
      <trkpt lat="43.16205" lon="1.02312">
        <ele>463.6</ele>
        <time>2024-08-12T08:11:54Z</time>
      </trkpt>
      <trkpt lat="43.16203" lon="1.02309">
        <ele>464</ele>
        <time>2024-08-12T08:11:55Z</time>
      </trkpt>
      <trkpt lat="43.16202" lon="1.02307">
        <ele>464.6</ele>
        <time>2024-08-12T08:11:56Z</time>
      </trkpt>
      <trkpt lat="43.162" lon="1.02305">
        <ele>465</ele>
        <time>2024-08-12T08:11:57Z</time>
      </trkpt>
      <trkpt lat="43.16198" lon="1.02301">
        <ele>465.4</ele>
        <time>2024-08-12T08:11:58Z</time>
      </trkpt>
      <trkpt lat="43.16197" lon="1.02298">
        <ele>465.8</ele>
        <time>2024-08-12T08:11:59Z</time>
      </trkpt>
      <trkpt lat="43.16195" lon="1.02295">
        <ele>466.2</ele>
        <time>2024-08-12T08:12:00Z</time>
      </trkpt>
      <trkpt lat="43.16191" lon="1.0229">
        <ele>466.8</ele>
        <time>2024-08-12T08:12:01Z</time>
      </trkpt>
      <trkpt lat="43.16191" lon="1.0229">
        <ele>466.8</ele>
        <time>2024-08-12T08:12:02Z</time>
      </trkpt>
      <trkpt lat="43.16183" lon="1.02281">
        <ele>466.8</ele>
        <time>2024-08-12T08:12:06Z</time>
      </trkpt>
      <trkpt lat="43.16182" lon="1.02279">
        <ele>466.8</ele>
        <time>2024-08-12T08:12:07Z</time>
      </trkpt>
      <trkpt lat="43.16178" lon="1.02272">
        <ele>467.2</ele>
        <time>2024-08-12T08:12:10Z</time>
      </trkpt>
      <trkpt lat="43.16176" lon="1.0227">
        <ele>467.6</ele>
        <time>2024-08-12T08:12:11Z</time>
      </trkpt>
      <trkpt lat="43.16174" lon="1.02267">
        <ele>468.4</ele>
        <time>2024-08-12T08:12:12Z</time>
      </trkpt>
      <trkpt lat="43.16172" lon="1.02265">
        <ele>468.8</ele>
        <time>2024-08-12T08:12:13Z</time>
      </trkpt>
      <trkpt lat="43.16167" lon="1.02255">
        <ele>468.8</ele>
        <time>2024-08-12T08:12:18Z</time>
      </trkpt>
      <trkpt lat="43.16166" lon="1.02253">
        <ele>469.2</ele>
        <time>2024-08-12T08:12:19Z</time>
      </trkpt>
      <trkpt lat="43.16164" lon="1.02252">
        <ele>469.6</ele>
        <time>2024-08-12T08:12:20Z</time>
      </trkpt>
      <trkpt lat="43.16162" lon="1.0225">
        <ele>470.2</ele>
        <time>2024-08-12T08:12:21Z</time>
      </trkpt>
      <trkpt lat="43.1616" lon="1.02247">
        <ele>470.6</ele>
        <time>2024-08-12T08:12:22Z</time>
      </trkpt>
      <trkpt lat="43.16159" lon="1.02245">
        <ele>471</ele>
        <time>2024-08-12T08:12:23Z</time>
      </trkpt>
      <trkpt lat="43.16155" lon="1.02242">
        <ele>471.6</ele>
        <time>2024-08-12T08:12:25Z</time>
      </trkpt>
      <trkpt lat="43.16152" lon="1.02239">
        <ele>472</ele>
        <time>2024-08-12T08:12:26Z</time>
      </trkpt>
      <trkpt lat="43.1615" lon="1.02236">
        <ele>472.4</ele>
        <time>2024-08-12T08:12:27Z</time>
      </trkpt>
      <trkpt lat="43.16148" lon="1.02233">
        <ele>472.8</ele>
        <time>2024-08-12T08:12:28Z</time>
      </trkpt>
      <trkpt lat="43.16147" lon="1.02231">
        <ele>473.4</ele>
        <time>2024-08-12T08:12:29Z</time>
      </trkpt>
      <trkpt lat="43.16143" lon="1.02226">
        <ele>473.8</ele>
        <time>2024-08-12T08:12:31Z</time>
      </trkpt>
      <trkpt lat="43.16141" lon="1.02224">
        <ele>474.2</ele>
        <time>2024-08-12T08:12:32Z</time>
      </trkpt>
      <trkpt lat="43.1614" lon="1.02221">
        <ele>474.6</ele>
        <time>2024-08-12T08:12:33Z</time>
      </trkpt>
      <trkpt lat="43.16139" lon="1.02219">
        <ele>475</ele>
        <time>2024-08-12T08:12:34Z</time>
      </trkpt>
      <trkpt lat="43.16138" lon="1.02217">
        <ele>475.6</ele>
        <time>2024-08-12T08:12:35Z</time>
      </trkpt>
      <trkpt lat="43.16137" lon="1.02215">
        <ele>475.6</ele>
        <time>2024-08-12T08:12:36Z</time>
      </trkpt>
      <trkpt lat="43.16137" lon="1.02214">
        <ele>476</ele>
        <time>2024-08-12T08:12:38Z</time>
      </trkpt>
      <trkpt lat="43.16136" lon="1.02213">
        <ele>476.4</ele>
        <time>2024-08-12T08:12:39Z</time>
      </trkpt>
      <trkpt lat="43.16136" lon="1.02213">
        <ele>476.8</ele>
        <time>2024-08-12T08:12:40Z</time>
      </trkpt>
      <trkpt lat="43.16136" lon="1.02212">
        <ele>477.2</ele>
        <time>2024-08-12T08:12:41Z</time>
      </trkpt>
      <trkpt lat="43.16136" lon="1.0221">
        <ele>477.6</ele>
        <time>2024-08-12T08:12:42Z</time>
      </trkpt>
      <trkpt lat="43.16134" lon="1.02198">
        <ele>477.6</ele>
        <time>2024-08-12T08:12:46Z</time>
      </trkpt>
      <trkpt lat="43.16133" lon="1.02195">
        <ele>478</ele>
        <time>2024-08-12T08:12:47Z</time>
      </trkpt>
      <trkpt lat="43.16132" lon="1.02191">
        <ele>478.4</ele>
        <time>2024-08-12T08:12:48Z</time>
      </trkpt>
      <trkpt lat="43.1613" lon="1.02188">
        <ele>478.8</ele>
        <time>2024-08-12T08:12:49Z</time>
      </trkpt>
      <trkpt lat="43.16129" lon="1.02185">
        <ele>479.4</ele>
        <time>2024-08-12T08:12:50Z</time>
      </trkpt>
      <trkpt lat="43.16128" lon="1.02182">
        <ele>479.8</ele>
        <time>2024-08-12T08:12:51Z</time>
      </trkpt>
      <trkpt lat="43.16125" lon="1.02173">
        <ele>479.8</ele>
        <time>2024-08-12T08:12:53Z</time>
      </trkpt>
      <trkpt lat="43.16124" lon="1.02169">
        <ele>480.2</ele>
        <time>2024-08-12T08:12:54Z</time>
      </trkpt>
      <trkpt lat="43.16123" lon="1.02164">
        <ele>480.6</ele>
        <time>2024-08-12T08:12:55Z</time>
      </trkpt>
      <trkpt lat="43.16122" lon="1.0216">
        <ele>481</ele>
        <time>2024-08-12T08:12:56Z</time>
      </trkpt>
      <trkpt lat="43.16121" lon="1.02157">
        <ele>481.4</ele>
        <time>2024-08-12T08:12:57Z</time>
      </trkpt>
      <trkpt lat="43.16119" lon="1.02154">
        <ele>481.8</ele>
        <time>2024-08-12T08:12:58Z</time>
      </trkpt>
      <trkpt lat="43.16118" lon="1.02152">
        <ele>482.4</ele>
        <time>2024-08-12T08:12:59Z</time>
      </trkpt>
      <trkpt lat="43.16116" lon="1.0215">
        <ele>482.8</ele>
        <time>2024-08-12T08:13:00Z</time>
      </trkpt>
      <trkpt lat="43.16115" lon="1.02149">
        <ele>483.8</ele>
        <time>2024-08-12T08:13:01Z</time>
      </trkpt>
      <trkpt lat="43.16113" lon="1.02145">
        <ele>484.4</ele>
        <time>2024-08-12T08:13:02Z</time>
      </trkpt>
      <trkpt lat="43.16112" lon="1.02143">
        <ele>484.4</ele>
        <time>2024-08-12T08:13:03Z</time>
      </trkpt>
      <trkpt lat="43.1611" lon="1.0214">
        <ele>484.8</ele>
        <time>2024-08-12T08:13:04Z</time>
      </trkpt>
      <trkpt lat="43.16108" lon="1.02138">
        <ele>485.2</ele>
        <time>2024-08-12T08:13:05Z</time>
      </trkpt>
      <trkpt lat="43.16106" lon="1.02135">
        <ele>485.6</ele>
        <time>2024-08-12T08:13:06Z</time>
      </trkpt>
      <trkpt lat="43.16105" lon="1.02133">
        <ele>486</ele>
        <time>2024-08-12T08:13:07Z</time>
      </trkpt>
      <trkpt lat="43.16103" lon="1.02131">
        <ele>486.4</ele>
        <time>2024-08-12T08:13:08Z</time>
      </trkpt>
      <trkpt lat="43.16098" lon="1.02125">
        <ele>486.8</ele>
        <time>2024-08-12T08:13:11Z</time>
      </trkpt>
      <trkpt lat="43.16096" lon="1.02123">
        <ele>487.2</ele>
        <time>2024-08-12T08:13:12Z</time>
      </trkpt>
      <trkpt lat="43.16095" lon="1.02122">
        <ele>487.6</ele>
        <time>2024-08-12T08:13:13Z</time>
      </trkpt>
      <trkpt lat="43.16093" lon="1.02121">
        <ele>488</ele>
        <time>2024-08-12T08:13:14Z</time>
      </trkpt>
      <trkpt lat="43.16091" lon="1.02119">
        <ele>488.6</ele>
        <time>2024-08-12T08:13:15Z</time>
      </trkpt>
      <trkpt lat="43.16085" lon="1.02114">
        <ele>489</ele>
        <time>2024-08-12T08:13:20Z</time>
      </trkpt>
      <trkpt lat="43.16084" lon="1.02114">
        <ele>489.4</ele>
        <time>2024-08-12T08:13:21Z</time>
      </trkpt>
      <trkpt lat="43.16082" lon="1.02113">
        <ele>489.8</ele>
        <time>2024-08-12T08:13:22Z</time>
      </trkpt>
      <trkpt lat="43.16081" lon="1.02112">
        <ele>490.2</ele>
        <time>2024-08-12T08:13:23Z</time>
      </trkpt>
      <trkpt lat="43.1608" lon="1.0211">
        <ele>490.6</ele>
        <time>2024-08-12T08:13:24Z</time>
      </trkpt>
      <trkpt lat="43.16076" lon="1.02108">
        <ele>490.6</ele>
        <time>2024-08-12T08:13:27Z</time>
      </trkpt>
      <trkpt lat="43.16068" lon="1.02104">
        <ele>490.6</ele>
        <time>2024-08-12T08:13:32Z</time>
      </trkpt>
      <trkpt lat="43.16058" lon="1.02096">
        <ele>490.6</ele>
        <time>2024-08-12T08:13:38Z</time>
      </trkpt>
      <trkpt lat="43.16053" lon="1.0209">
        <ele>490.6</ele>
        <time>2024-08-12T08:13:41Z</time>
      </trkpt>
      <trkpt lat="43.1605" lon="1.02088">
        <ele>490.6</ele>
        <time>2024-08-12T08:13:43Z</time>
      </trkpt>
      <trkpt lat="43.16048" lon="1.02086">
        <ele>491</ele>
        <time>2024-08-12T08:13:45Z</time>
      </trkpt>
      <trkpt lat="43.16046" lon="1.02085">
        <ele>491.4</ele>
        <time>2024-08-12T08:13:46Z</time>
      </trkpt>
      <trkpt lat="43.16044" lon="1.02085">
        <ele>491.8</ele>
        <time>2024-08-12T08:13:47Z</time>
      </trkpt>
      <trkpt lat="43.16042" lon="1.02084">
        <ele>492.2</ele>
        <time>2024-08-12T08:13:48Z</time>
      </trkpt>
      <trkpt lat="43.1604" lon="1.02084">
        <ele>492.6</ele>
        <time>2024-08-12T08:13:49Z</time>
      </trkpt>
      <trkpt lat="43.16039" lon="1.02084">
        <ele>492.6</ele>
        <time>2024-08-12T08:13:50Z</time>
      </trkpt>
      <trkpt lat="43.16039" lon="1.02084">
        <ele>493.6</ele>
        <time>2024-08-12T08:13:51Z</time>
      </trkpt>
      <trkpt lat="43.16037" lon="1.02083">
        <ele>494</ele>
        <time>2024-08-12T08:13:52Z</time>
      </trkpt>
      <trkpt lat="43.16036" lon="1.02081">
        <ele>494.4</ele>
        <time>2024-08-12T08:13:53Z</time>
      </trkpt>
      <trkpt lat="43.16035" lon="1.0208">
        <ele>495</ele>
        <time>2024-08-12T08:13:54Z</time>
      </trkpt>
      <trkpt lat="43.16033" lon="1.02079">
        <ele>495.4</ele>
        <time>2024-08-12T08:13:55Z</time>
      </trkpt>
      <trkpt lat="43.16032" lon="1.02077">
        <ele>496</ele>
        <time>2024-08-12T08:13:56Z</time>
      </trkpt>
      <trkpt lat="43.1603" lon="1.02076">
        <ele>496.4</ele>
        <time>2024-08-12T08:13:57Z</time>
      </trkpt>
      <trkpt lat="43.16027" lon="1.02074">
        <ele>497</ele>
        <time>2024-08-12T08:13:58Z</time>
      </trkpt>
      <trkpt lat="43.16019" lon="1.0207">
        <ele>497.4</ele>
        <time>2024-08-12T08:14:01Z</time>
      </trkpt>
      <trkpt lat="43.16015" lon="1.0207">
        <ele>497.8</ele>
        <time>2024-08-12T08:14:02Z</time>
      </trkpt>
      <trkpt lat="43.16012" lon="1.0207">
        <ele>498.2</ele>
        <time>2024-08-12T08:14:03Z</time>
      </trkpt>
      <trkpt lat="43.16009" lon="1.02069">
        <ele>498.6</ele>
        <time>2024-08-12T08:14:04Z</time>
      </trkpt>
      <trkpt lat="43.16007" lon="1.02069">
        <ele>499</ele>
        <time>2024-08-12T08:14:05Z</time>
      </trkpt>
      <trkpt lat="43.16004" lon="1.02067">
        <ele>499</ele>
        <time>2024-08-12T08:14:06Z</time>
      </trkpt>
      <trkpt lat="43.15997" lon="1.02061">
        <ele>499.4</ele>
        <time>2024-08-12T08:14:09Z</time>
      </trkpt>
      <trkpt lat="43.15994" lon="1.02061">
        <ele>499.8</ele>
        <time>2024-08-12T08:14:10Z</time>
      </trkpt>
      <trkpt lat="43.15992" lon="1.0206">
        <ele>500.2</ele>
        <time>2024-08-12T08:14:11Z</time>
      </trkpt>
      <trkpt lat="43.15991" lon="1.0206">
        <ele>500.6</ele>
        <time>2024-08-12T08:14:12Z</time>
      </trkpt>
      <trkpt lat="43.15989" lon="1.02057">
        <ele>501</ele>
        <time>2024-08-12T08:14:13Z</time>
      </trkpt>
      <trkpt lat="43.15987" lon="1.02056">
        <ele>501</ele>
        <time>2024-08-12T08:14:14Z</time>
      </trkpt>
      <trkpt lat="43.15982" lon="1.02053">
        <ele>501.6</ele>
        <time>2024-08-12T08:14:16Z</time>
      </trkpt>
      <trkpt lat="43.15979" lon="1.02049">
        <ele>502</ele>
        <time>2024-08-12T08:14:17Z</time>
      </trkpt>
      <trkpt lat="43.15977" lon="1.02047">
        <ele>502.4</ele>
        <time>2024-08-12T08:14:18Z</time>
      </trkpt>
      <trkpt lat="43.15974" lon="1.02046">
        <ele>502.8</ele>
        <time>2024-08-12T08:14:19Z</time>
      </trkpt>
      <trkpt lat="43.15971" lon="1.02045">
        <ele>503.4</ele>
        <time>2024-08-12T08:14:20Z</time>
      </trkpt>
      <trkpt lat="43.15967" lon="1.02041">
        <ele>503.8</ele>
        <time>2024-08-12T08:14:22Z</time>
      </trkpt>
      <trkpt lat="43.15965" lon="1.02041">
        <ele>504.2</ele>
        <time>2024-08-12T08:14:23Z</time>
      </trkpt>
      <trkpt lat="43.15963" lon="1.0204">
        <ele>504.8</ele>
        <time>2024-08-12T08:14:24Z</time>
      </trkpt>
      <trkpt lat="43.15961" lon="1.02039">
        <ele>505.2</ele>
        <time>2024-08-12T08:14:25Z</time>
      </trkpt>
      <trkpt lat="43.15959" lon="1.02038">
        <ele>505.6</ele>
        <time>2024-08-12T08:14:26Z</time>
      </trkpt>
      <trkpt lat="43.15954" lon="1.02036">
        <ele>506</ele>
        <time>2024-08-12T08:14:28Z</time>
      </trkpt>
      <trkpt lat="43.15953" lon="1.02036">
        <ele>506.6</ele>
        <time>2024-08-12T08:14:29Z</time>
      </trkpt>
      <trkpt lat="43.15951" lon="1.02036">
        <ele>507</ele>
        <time>2024-08-12T08:14:30Z</time>
      </trkpt>
      <trkpt lat="43.15949" lon="1.02035">
        <ele>507.4</ele>
        <time>2024-08-12T08:14:31Z</time>
      </trkpt>
      <trkpt lat="43.15946" lon="1.02035">
        <ele>507.8</ele>
        <time>2024-08-12T08:14:32Z</time>
      </trkpt>
      <trkpt lat="43.15944" lon="1.02035">
        <ele>507.8</ele>
        <time>2024-08-12T08:14:33Z</time>
      </trkpt>
      <trkpt lat="43.15943" lon="1.02035">
        <ele>507.8</ele>
        <time>2024-08-12T08:14:34Z</time>
      </trkpt>
      <trkpt lat="43.15939" lon="1.02033">
        <ele>508.2</ele>
        <time>2024-08-12T08:14:36Z</time>
      </trkpt>
      <trkpt lat="43.15938" lon="1.02032">
        <ele>508.6</ele>
        <time>2024-08-12T08:14:37Z</time>
      </trkpt>
      <trkpt lat="43.15936" lon="1.02031">
        <ele>509</ele>
        <time>2024-08-12T08:14:38Z</time>
      </trkpt>
      <trkpt lat="43.15933" lon="1.02031">
        <ele>509.6</ele>
        <time>2024-08-12T08:14:39Z</time>
      </trkpt>
      <trkpt lat="43.15933" lon="1.0203">
        <ele>510</ele>
        <time>2024-08-12T08:14:40Z</time>
      </trkpt>
      <trkpt lat="43.15932" lon="1.02024">
        <ele>510</ele>
        <time>2024-08-12T08:14:43Z</time>
      </trkpt>
      <trkpt lat="43.15934" lon="1.02011">
        <ele>510</ele>
        <time>2024-08-12T08:14:49Z</time>
      </trkpt>
      <trkpt lat="43.15934" lon="1.02007">
        <ele>510.4</ele>
        <time>2024-08-12T08:14:51Z</time>
      </trkpt>
      <trkpt lat="43.15934" lon="1.02006">
        <ele>510.8</ele>
        <time>2024-08-12T08:14:52Z</time>
      </trkpt>
      <trkpt lat="43.15934" lon="1.02004">
        <ele>511.2</ele>
        <time>2024-08-12T08:14:53Z</time>
      </trkpt>
      <trkpt lat="43.15935" lon="1.02001">
        <ele>511.6</ele>
        <time>2024-08-12T08:14:54Z</time>
      </trkpt>
      <trkpt lat="43.15935" lon="1.02">
        <ele>512</ele>
        <time>2024-08-12T08:14:55Z</time>
      </trkpt>
      <trkpt lat="43.15936" lon="1.01998">
        <ele>512</ele>
        <time>2024-08-12T08:14:56Z</time>
      </trkpt>
      <trkpt lat="43.15935" lon="1.01992">
        <ele>512.4</ele>
        <time>2024-08-12T08:14:59Z</time>
      </trkpt>
      <trkpt lat="43.15934" lon="1.0199">
        <ele>513</ele>
        <time>2024-08-12T08:15:00Z</time>
      </trkpt>
      <trkpt lat="43.15934" lon="1.01987">
        <ele>513.4</ele>
        <time>2024-08-12T08:15:01Z</time>
      </trkpt>
      <trkpt lat="43.15934" lon="1.01985">
        <ele>513.8</ele>
        <time>2024-08-12T08:15:02Z</time>
      </trkpt>
      <trkpt lat="43.15935" lon="1.01982">
        <ele>514.2</ele>
        <time>2024-08-12T08:15:03Z</time>
      </trkpt>
      <trkpt lat="43.15935" lon="1.01976">
        <ele>514.6</ele>
        <time>2024-08-12T08:15:05Z</time>
      </trkpt>
      <trkpt lat="43.15935" lon="1.01973">
        <ele>515</ele>
        <time>2024-08-12T08:15:06Z</time>
      </trkpt>
      <trkpt lat="43.15935" lon="1.0197">
        <ele>515.4</ele>
        <time>2024-08-12T08:15:07Z</time>
      </trkpt>
      <trkpt lat="43.15936" lon="1.01967">
        <ele>516</ele>
        <time>2024-08-12T08:15:08Z</time>
      </trkpt>
      <trkpt lat="43.15936" lon="1.01964">
        <ele>516.4</ele>
        <time>2024-08-12T08:15:09Z</time>
      </trkpt>
      <trkpt lat="43.15937" lon="1.01953">
        <ele>516.4</ele>
        <time>2024-08-12T08:15:12Z</time>
      </trkpt>
      <trkpt lat="43.15938" lon="1.01946">
        <ele>516.4</ele>
        <time>2024-08-12T08:15:14Z</time>
      </trkpt>
      <trkpt lat="43.15941" lon="1.01921">
        <ele>516.4</ele>
        <time>2024-08-12T08:15:20Z</time>
      </trkpt>
      <trkpt lat="43.15941" lon="1.01907">
        <ele>516.4</ele>
        <time>2024-08-12T08:15:23Z</time>
      </trkpt>
      <trkpt lat="43.15941" lon="1.01897">
        <ele>516.4</ele>
        <time>2024-08-12T08:15:25Z</time>
      </trkpt>
      <trkpt lat="43.15939" lon="1.01875">
        <ele>516.4</ele>
        <time>2024-08-12T08:15:30Z</time>
      </trkpt>
      <trkpt lat="43.15938" lon="1.0186">
        <ele>516</ele>
        <time>2024-08-12T08:15:33Z</time>
      </trkpt>
      <trkpt lat="43.15937" lon="1.01853">
        <ele>515.6</ele>
        <time>2024-08-12T08:15:34Z</time>
      </trkpt>
      <trkpt lat="43.15936" lon="1.01846">
        <ele>515</ele>
        <time>2024-08-12T08:15:35Z</time>
      </trkpt>
      <trkpt lat="43.15934" lon="1.01839">
        <ele>514.6</ele>
        <time>2024-08-12T08:15:36Z</time>
      </trkpt>
      <trkpt lat="43.15933" lon="1.01834">
        <ele>514.2</ele>
        <time>2024-08-12T08:15:37Z</time>
      </trkpt>
      <trkpt lat="43.15928" lon="1.01814">
        <ele>514.2</ele>
        <time>2024-08-12T08:15:40Z</time>
      </trkpt>
      <trkpt lat="43.15922" lon="1.01801">
        <ele>514.2</ele>
        <time>2024-08-12T08:15:44Z</time>
      </trkpt>
      <trkpt lat="43.15913" lon="1.0178">
        <ele>514.2</ele>
        <time>2024-08-12T08:15:49Z</time>
      </trkpt>
      <trkpt lat="43.15908" lon="1.01768">
        <ele>513.8</ele>
        <time>2024-08-12T08:15:52Z</time>
      </trkpt>
      <trkpt lat="43.15906" lon="1.01765">
        <ele>513.4</ele>
        <time>2024-08-12T08:15:53Z</time>
      </trkpt>
      <trkpt lat="43.15905" lon="1.01762">
        <ele>513</ele>
        <time>2024-08-12T08:15:54Z</time>
      </trkpt>
      <trkpt lat="43.15903" lon="1.01758">
        <ele>512.2</ele>
        <time>2024-08-12T08:15:55Z</time>
      </trkpt>
      <trkpt lat="43.15898" lon="1.01743">
        <ele>512.2</ele>
        <time>2024-08-12T08:16:00Z</time>
      </trkpt>
      <trkpt lat="43.15899" lon="1.0174">
        <ele>512.2</ele>
        <time>2024-08-12T08:16:01Z</time>
      </trkpt>
      <trkpt lat="43.15901" lon="1.01731">
        <ele>512.2</ele>
        <time>2024-08-12T08:16:04Z</time>
      </trkpt>
      <trkpt lat="43.15912" lon="1.01723">
        <ele>512.2</ele>
        <time>2024-08-12T08:16:09Z</time>
      </trkpt>
      <trkpt lat="43.15918" lon="1.01719">
        <ele>512.2</ele>
        <time>2024-08-12T08:16:12Z</time>
      </trkpt>
      <trkpt lat="43.15923" lon="1.01715">
        <ele>512.2</ele>
        <time>2024-08-12T08:16:14Z</time>
      </trkpt>
      <trkpt lat="43.15934" lon="1.01704">
        <ele>512.6</ele>
        <time>2024-08-12T08:16:18Z</time>
      </trkpt>
      <trkpt lat="43.15937" lon="1.017">
        <ele>513.4</ele>
        <time>2024-08-12T08:16:19Z</time>
      </trkpt>
      <trkpt lat="43.15939" lon="1.01698">
        <ele>513.8</ele>
        <time>2024-08-12T08:16:20Z</time>
      </trkpt>
      <trkpt lat="43.15941" lon="1.01694">
        <ele>514.2</ele>
        <time>2024-08-12T08:16:21Z</time>
      </trkpt>
      <trkpt lat="43.1595" lon="1.01678">
        <ele>514.2</ele>
        <time>2024-08-12T08:16:26Z</time>
      </trkpt>
      <trkpt lat="43.15957" lon="1.01662">
        <ele>514.2</ele>
        <time>2024-08-12T08:16:31Z</time>
      </trkpt>
      <trkpt lat="43.15962" lon="1.01643">
        <ele>514.2</ele>
        <time>2024-08-12T08:16:36Z</time>
      </trkpt>
      <trkpt lat="43.15966" lon="1.01621">
        <ele>514.2</ele>
        <time>2024-08-12T08:16:42Z</time>
      </trkpt>
      <trkpt lat="43.15971" lon="1.01601">
        <ele>514.2</ele>
        <time>2024-08-12T08:16:47Z</time>
      </trkpt>
      <trkpt lat="43.15974" lon="1.01579">
        <ele>514.2</ele>
        <time>2024-08-12T08:16:53Z</time>
      </trkpt>
      <trkpt lat="43.15978" lon="1.0156">
        <ele>514.2</ele>
        <time>2024-08-12T08:16:59Z</time>
      </trkpt>
      <trkpt lat="43.15978" lon="1.01554">
        <ele>514.2</ele>
        <time>2024-08-12T08:17:01Z</time>
      </trkpt>
      <trkpt lat="43.15978" lon="1.01545">
        <ele>514.2</ele>
        <time>2024-08-12T08:17:04Z</time>
      </trkpt>
      <trkpt lat="43.15977" lon="1.01536">
        <ele>514.6</ele>
        <time>2024-08-12T08:17:07Z</time>
      </trkpt>
      <trkpt lat="43.15976" lon="1.01534">
        <ele>515</ele>
        <time>2024-08-12T08:17:08Z</time>
      </trkpt>
      <trkpt lat="43.15975" lon="1.01531">
        <ele>515.8</ele>
        <time>2024-08-12T08:17:09Z</time>
      </trkpt>
      <trkpt lat="43.15974" lon="1.01528">
        <ele>516.2</ele>
        <time>2024-08-12T08:17:10Z</time>
      </trkpt>
      <trkpt lat="43.15973" lon="1.01526">
        <ele>516.2</ele>
        <time>2024-08-12T08:17:11Z</time>
      </trkpt>
      <trkpt lat="43.1597" lon="1.01512">
        <ele>516.2</ele>
        <time>2024-08-12T08:17:15Z</time>
      </trkpt>
      <trkpt lat="43.1597" lon="1.01508">
        <ele>516.2</ele>
        <time>2024-08-12T08:17:16Z</time>
      </trkpt>
      <trkpt lat="43.15968" lon="1.01492">
        <ele>516.2</ele>
        <time>2024-08-12T08:17:19Z</time>
      </trkpt>
      <trkpt lat="43.15975" lon="1.01484">
        <ele>516.2</ele>
        <time>2024-08-12T08:17:23Z</time>
      </trkpt>
      <trkpt lat="43.15977" lon="1.01483">
        <ele>516.2</ele>
        <time>2024-08-12T08:17:24Z</time>
      </trkpt>
      <trkpt lat="43.15986" lon="1.01477">
        <ele>516.2</ele>
        <time>2024-08-12T08:17:28Z</time>
      </trkpt>
      <trkpt lat="43.15993" lon="1.01473">
        <ele>516.6</ele>
        <time>2024-08-12T08:17:31Z</time>
      </trkpt>
      <trkpt lat="43.15994" lon="1.01472">
        <ele>517</ele>
        <time>2024-08-12T08:17:32Z</time>
      </trkpt>
      <trkpt lat="43.15996" lon="1.0147">
        <ele>517.4</ele>
        <time>2024-08-12T08:17:33Z</time>
      </trkpt>
      <trkpt lat="43.15998" lon="1.01469">
        <ele>518.2</ele>
        <time>2024-08-12T08:17:34Z</time>
      </trkpt>
      <trkpt lat="43.16" lon="1.01467">
        <ele>518.6</ele>
        <time>2024-08-12T08:17:35Z</time>
      </trkpt>
      <trkpt lat="43.16002" lon="1.01465">
        <ele>519</ele>
        <time>2024-08-12T08:17:36Z</time>
      </trkpt>
      <trkpt lat="43.16005" lon="1.01462">
        <ele>519.6</ele>
        <time>2024-08-12T08:17:37Z</time>
      </trkpt>
      <trkpt lat="43.16006" lon="1.0146">
        <ele>520</ele>
        <time>2024-08-12T08:17:38Z</time>
      </trkpt>
      <trkpt lat="43.16008" lon="1.01458">
        <ele>520.4</ele>
        <time>2024-08-12T08:17:39Z</time>
      </trkpt>
      <trkpt lat="43.1601" lon="1.01456">
        <ele>520.4</ele>
        <time>2024-08-12T08:17:40Z</time>
      </trkpt>
      <trkpt lat="43.1601" lon="1.01454">
        <ele>520.8</ele>
        <time>2024-08-12T08:17:41Z</time>
      </trkpt>
      <trkpt lat="43.1601" lon="1.01453">
        <ele>521.4</ele>
        <time>2024-08-12T08:17:42Z</time>
      </trkpt>
      <trkpt lat="43.16009" lon="1.01451">
        <ele>521.8</ele>
        <time>2024-08-12T08:17:43Z</time>
      </trkpt>
      <trkpt lat="43.16008" lon="1.01449">
        <ele>522.2</ele>
        <time>2024-08-12T08:17:44Z</time>
      </trkpt>
      <trkpt lat="43.16006" lon="1.01448">
        <ele>522.6</ele>
        <time>2024-08-12T08:17:45Z</time>
      </trkpt>
      <trkpt lat="43.16003" lon="1.01445">
        <ele>523</ele>
        <time>2024-08-12T08:17:47Z</time>
      </trkpt>
      <trkpt lat="43.16001" lon="1.01446">
        <ele>523.6</ele>
        <time>2024-08-12T08:17:48Z</time>
      </trkpt>
      <trkpt lat="43.15999" lon="1.01445">
        <ele>524</ele>
        <time>2024-08-12T08:17:49Z</time>
      </trkpt>
      <trkpt lat="43.15997" lon="1.01444">
        <ele>524.6</ele>
        <time>2024-08-12T08:17:50Z</time>
      </trkpt>
      <trkpt lat="43.15995" lon="1.01442">
        <ele>525</ele>
        <time>2024-08-12T08:17:51Z</time>
      </trkpt>
      <trkpt lat="43.15993" lon="1.01441">
        <ele>525.6</ele>
        <time>2024-08-12T08:17:52Z</time>
      </trkpt>
      <trkpt lat="43.15992" lon="1.0144">
        <ele>526</ele>
        <time>2024-08-12T08:17:53Z</time>
      </trkpt>
      <trkpt lat="43.1599" lon="1.01439">
        <ele>526.6</ele>
        <time>2024-08-12T08:17:54Z</time>
      </trkpt>
      <trkpt lat="43.15988" lon="1.01438">
        <ele>527</ele>
        <time>2024-08-12T08:17:55Z</time>
      </trkpt>
      <trkpt lat="43.15986" lon="1.01438">
        <ele>527.6</ele>
        <time>2024-08-12T08:17:56Z</time>
      </trkpt>
      <trkpt lat="43.15986" lon="1.01438">
        <ele>528</ele>
        <time>2024-08-12T08:17:57Z</time>
      </trkpt>
      <trkpt lat="43.15985" lon="1.01437">
        <ele>528.8</ele>
        <time>2024-08-12T08:17:58Z</time>
      </trkpt>
      <trkpt lat="43.15983" lon="1.01436">
        <ele>529.2</ele>
        <time>2024-08-12T08:17:59Z</time>
      </trkpt>
      <trkpt lat="43.15982" lon="1.01435">
        <ele>529.6</ele>
        <time>2024-08-12T08:18:00Z</time>
      </trkpt>
      <trkpt lat="43.15981" lon="1.01431">
        <ele>530</ele>
        <time>2024-08-12T08:18:02Z</time>
      </trkpt>
      <trkpt lat="43.15982" lon="1.01428">
        <ele>530.6</ele>
        <time>2024-08-12T08:18:03Z</time>
      </trkpt>
      <trkpt lat="43.15983" lon="1.01427">
        <ele>531</ele>
        <time>2024-08-12T08:18:04Z</time>
      </trkpt>
      <trkpt lat="43.15984" lon="1.01426">
        <ele>531.4</ele>
        <time>2024-08-12T08:18:05Z</time>
      </trkpt>
      <trkpt lat="43.15985" lon="1.01425">
        <ele>532</ele>
        <time>2024-08-12T08:18:06Z</time>
      </trkpt>
      <trkpt lat="43.15985" lon="1.01425">
        <ele>532.6</ele>
        <time>2024-08-12T08:18:07Z</time>
      </trkpt>
      <trkpt lat="43.15985" lon="1.01425">
        <ele>533.2</ele>
        <time>2024-08-12T08:18:08Z</time>
      </trkpt>
      <trkpt lat="43.15986" lon="1.01425">
        <ele>533.8</ele>
        <time>2024-08-12T08:18:09Z</time>
      </trkpt>
      <trkpt lat="43.16001" lon="1.01399">
        <ele>540.8</ele>
        <time>2024-08-12T08:20:01Z</time>
      </trkpt>
      <trkpt lat="43.16002" lon="1.01398">
        <ele>541.4</ele>
        <time>2024-08-12T08:20:02Z</time>
      </trkpt>
      <trkpt lat="43.16003" lon="1.01396">
        <ele>541.8</ele>
        <time>2024-08-12T08:20:03Z</time>
      </trkpt>
      <trkpt lat="43.16005" lon="1.01395">
        <ele>542.4</ele>
        <time>2024-08-12T08:20:04Z</time>
      </trkpt>
      <trkpt lat="43.16006" lon="1.01392">
        <ele>542.8</ele>
        <time>2024-08-12T08:20:05Z</time>
      </trkpt>
      <trkpt lat="43.16007" lon="1.01391">
        <ele>543.4</ele>
        <time>2024-08-12T08:20:06Z</time>
      </trkpt>
      <trkpt lat="43.16008" lon="1.01389">
        <ele>544</ele>
        <time>2024-08-12T08:20:07Z</time>
      </trkpt>
      <trkpt lat="43.16008" lon="1.01387">
        <ele>544.6</ele>
        <time>2024-08-12T08:20:08Z</time>
      </trkpt>
      <trkpt lat="43.16009" lon="1.01386">
        <ele>545.2</ele>
        <time>2024-08-12T08:20:09Z</time>
      </trkpt>
      <trkpt lat="43.16009" lon="1.01384">
        <ele>545.8</ele>
        <time>2024-08-12T08:20:10Z</time>
      </trkpt>
      <trkpt lat="43.1601" lon="1.01383">
        <ele>546.6</ele>
        <time>2024-08-12T08:20:11Z</time>
      </trkpt>
      <trkpt lat="43.1601" lon="1.0138">
        <ele>547.2</ele>
        <time>2024-08-12T08:20:12Z</time>
      </trkpt>
      <trkpt lat="43.16012" lon="1.01377">
        <ele>547.8</ele>
        <time>2024-08-12T08:20:13Z</time>
      </trkpt>
      <trkpt lat="43.16012" lon="1.01376">
        <ele>548.4</ele>
        <time>2024-08-12T08:20:14Z</time>
      </trkpt>
      <trkpt lat="43.16013" lon="1.01374">
        <ele>549</ele>
        <time>2024-08-12T08:20:15Z</time>
      </trkpt>
      <trkpt lat="43.16013" lon="1.01372">
        <ele>549.8</ele>
        <time>2024-08-12T08:20:16Z</time>
      </trkpt>
      <trkpt lat="43.16014" lon="1.01369">
        <ele>550.4</ele>
        <time>2024-08-12T08:20:17Z</time>
      </trkpt>
      <trkpt lat="43.16015" lon="1.01367">
        <ele>551</ele>
        <time>2024-08-12T08:20:18Z</time>
      </trkpt>
      <trkpt lat="43.16015" lon="1.01364">
        <ele>551.6</ele>
        <time>2024-08-12T08:20:19Z</time>
      </trkpt>
      <trkpt lat="43.16015" lon="1.01362">
        <ele>552.2</ele>
        <time>2024-08-12T08:20:20Z</time>
      </trkpt>
      <trkpt lat="43.16016" lon="1.01359">
        <ele>552.8</ele>
        <time>2024-08-12T08:20:21Z</time>
      </trkpt>
      <trkpt lat="43.16017" lon="1.01356">
        <ele>553.4</ele>
        <time>2024-08-12T08:20:22Z</time>
      </trkpt>
      <trkpt lat="43.16018" lon="1.01354">
        <ele>554</ele>
        <time>2024-08-12T08:20:23Z</time>
      </trkpt>
      <trkpt lat="43.16019" lon="1.01351">
        <ele>554.6</ele>
        <time>2024-08-12T08:20:24Z</time>
      </trkpt>
      <trkpt lat="43.1602" lon="1.01349">
        <ele>555.2</ele>
        <time>2024-08-12T08:20:25Z</time>
      </trkpt>
      <trkpt lat="43.16021" lon="1.01345">
        <ele>556.2</ele>
        <time>2024-08-12T08:20:27Z</time>
      </trkpt>
      <trkpt lat="43.16022" lon="1.01343">
        <ele>556.6</ele>
        <time>2024-08-12T08:20:28Z</time>
      </trkpt>
      <trkpt lat="43.16023" lon="1.01341">
        <ele>557.2</ele>
        <time>2024-08-12T08:20:29Z</time>
      </trkpt>
      <trkpt lat="43.16023" lon="1.01339">
        <ele>557.6</ele>
        <time>2024-08-12T08:20:30Z</time>
      </trkpt>
      <trkpt lat="43.16023" lon="1.01338">
        <ele>557.6</ele>
        <time>2024-08-12T08:20:32Z</time>
      </trkpt>
      <trkpt lat="43.16019" lon="1.01316">
        <ele>558.8</ele>
        <time>2024-08-12T08:20:41Z</time>
      </trkpt>
      <trkpt lat="43.16018" lon="1.01313">
        <ele>559.2</ele>
        <time>2024-08-12T08:20:42Z</time>
      </trkpt>
      <trkpt lat="43.16017" lon="1.01312">
        <ele>559.6</ele>
        <time>2024-08-12T08:20:43Z</time>
      </trkpt>
      <trkpt lat="43.16017" lon="1.01309">
        <ele>559.6</ele>
        <time>2024-08-12T08:20:46Z</time>
      </trkpt>
      <trkpt lat="43.16014" lon="1.01304">
        <ele>559.6</ele>
        <time>2024-08-12T08:24:29Z</time>
      </trkpt>
      <trkpt lat="43.16004" lon="1.01298">
        <ele>559.6</ele>
        <time>2024-08-12T08:24:34Z</time>
      </trkpt>
      <trkpt lat="43.16001" lon="1.01297">
        <ele>559.6</ele>
        <time>2024-08-12T08:24:35Z</time>
      </trkpt>
      <trkpt lat="43.15995" lon="1.01295">
        <ele>559.2</ele>
        <time>2024-08-12T08:24:37Z</time>
      </trkpt>
      <trkpt lat="43.15993" lon="1.01295">
        <ele>558.8</ele>
        <time>2024-08-12T08:24:38Z</time>
      </trkpt>
      <trkpt lat="43.15991" lon="1.01296">
        <ele>558.4</ele>
        <time>2024-08-12T08:24:39Z</time>
      </trkpt>
      <trkpt lat="43.15989" lon="1.01296">
        <ele>558</ele>
        <time>2024-08-12T08:24:40Z</time>
      </trkpt>
      <trkpt lat="43.15987" lon="1.01297">
        <ele>557.6</ele>
        <time>2024-08-12T08:24:41Z</time>
      </trkpt>
      <trkpt lat="43.15981" lon="1.01299">
        <ele>557</ele>
        <time>2024-08-12T08:24:43Z</time>
      </trkpt>
      <trkpt lat="43.15978" lon="1.013">
        <ele>556.6</ele>
        <time>2024-08-12T08:24:44Z</time>
      </trkpt>
      <trkpt lat="43.15976" lon="1.013">
        <ele>556.2</ele>
        <time>2024-08-12T08:24:45Z</time>
      </trkpt>
      <trkpt lat="43.15973" lon="1.01301">
        <ele>555.8</ele>
        <time>2024-08-12T08:24:46Z</time>
      </trkpt>
      <trkpt lat="43.1597" lon="1.01302">
        <ele>555.2</ele>
        <time>2024-08-12T08:24:47Z</time>
      </trkpt>
      <trkpt lat="43.15966" lon="1.01303">
        <ele>554.8</ele>
        <time>2024-08-12T08:24:48Z</time>
      </trkpt>
      <trkpt lat="43.15963" lon="1.01304">
        <ele>554.2</ele>
        <time>2024-08-12T08:24:49Z</time>
      </trkpt>
      <trkpt lat="43.1596" lon="1.01306">
        <ele>553.6</ele>
        <time>2024-08-12T08:24:50Z</time>
      </trkpt>
      <trkpt lat="43.15956" lon="1.01307">
        <ele>553</ele>
        <time>2024-08-12T08:24:51Z</time>
      </trkpt>
      <trkpt lat="43.15952" lon="1.01309">
        <ele>552.4</ele>
        <time>2024-08-12T08:24:52Z</time>
      </trkpt>
      <trkpt lat="43.15949" lon="1.01311">
        <ele>551.2</ele>
        <time>2024-08-12T08:24:53Z</time>
      </trkpt>
      <trkpt lat="43.15945" lon="1.01313">
        <ele>550.6</ele>
        <time>2024-08-12T08:24:54Z</time>
      </trkpt>
      <trkpt lat="43.15941" lon="1.01314">
        <ele>550</ele>
        <time>2024-08-12T08:24:55Z</time>
      </trkpt>
      <trkpt lat="43.15937" lon="1.01315">
        <ele>549.4</ele>
        <time>2024-08-12T08:24:56Z</time>
      </trkpt>
      <trkpt lat="43.15932" lon="1.01317">
        <ele>548.8</ele>
        <time>2024-08-12T08:24:57Z</time>
      </trkpt>
      <trkpt lat="43.15927" lon="1.01318">
        <ele>548.2</ele>
        <time>2024-08-12T08:24:58Z</time>
      </trkpt>
      <trkpt lat="43.15922" lon="1.0132">
        <ele>547.6</ele>
        <time>2024-08-12T08:24:59Z</time>
      </trkpt>
      <trkpt lat="43.15917" lon="1.01322">
        <ele>547</ele>
        <time>2024-08-12T08:25:00Z</time>
      </trkpt>
      <trkpt lat="43.15911" lon="1.01324">
        <ele>546.4</ele>
        <time>2024-08-12T08:25:01Z</time>
      </trkpt>
      <trkpt lat="43.15904" lon="1.01326">
        <ele>545.8</ele>
        <time>2024-08-12T08:25:02Z</time>
      </trkpt>
      <trkpt lat="43.15897" lon="1.01326">
        <ele>545.2</ele>
        <time>2024-08-12T08:25:03Z</time>
      </trkpt>
      <trkpt lat="43.15889" lon="1.01326">
        <ele>544.6</ele>
        <time>2024-08-12T08:25:04Z</time>
      </trkpt>
      <trkpt lat="43.15881" lon="1.01327">
        <ele>544</ele>
        <time>2024-08-12T08:25:05Z</time>
      </trkpt>
      <trkpt lat="43.15873" lon="1.01328">
        <ele>543.4</ele>
        <time>2024-08-12T08:25:06Z</time>
      </trkpt>
      <trkpt lat="43.15865" lon="1.01328">
        <ele>542.8</ele>
        <time>2024-08-12T08:25:07Z</time>
      </trkpt>
      <trkpt lat="43.15858" lon="1.01329">
        <ele>542.2</ele>
        <time>2024-08-12T08:25:08Z</time>
      </trkpt>
      <trkpt lat="43.15851" lon="1.01329">
        <ele>541.6</ele>
        <time>2024-08-12T08:25:09Z</time>
      </trkpt>
      <trkpt lat="43.15844" lon="1.01329">
        <ele>541</ele>
        <time>2024-08-12T08:25:10Z</time>
      </trkpt>
      <trkpt lat="43.15837" lon="1.01328">
        <ele>540.6</ele>
        <time>2024-08-12T08:25:11Z</time>
      </trkpt>
      <trkpt lat="43.15832" lon="1.01329">
        <ele>540</ele>
        <time>2024-08-12T08:25:12Z</time>
      </trkpt>
      <trkpt lat="43.15826" lon="1.01331">
        <ele>539.4</ele>
        <time>2024-08-12T08:25:13Z</time>
      </trkpt>
      <trkpt lat="43.15822" lon="1.01333">
        <ele>539.4</ele>
        <time>2024-08-12T08:25:14Z</time>
      </trkpt>
      <trkpt lat="43.15807" lon="1.01342">
        <ele>539.4</ele>
        <time>2024-08-12T08:25:18Z</time>
      </trkpt>
      <trkpt lat="43.15805" lon="1.01345">
        <ele>539.4</ele>
        <time>2024-08-12T08:25:19Z</time>
      </trkpt>
      <trkpt lat="43.158" lon="1.01357">
        <ele>539.4</ele>
        <time>2024-08-12T08:25:23Z</time>
      </trkpt>
      <trkpt lat="43.15797" lon="1.01372">
        <ele>539.4</ele>
        <time>2024-08-12T08:25:28Z</time>
      </trkpt>
      <trkpt lat="43.15795" lon="1.01391">
        <ele>539.4</ele>
        <time>2024-08-12T08:25:34Z</time>
      </trkpt>
      <trkpt lat="43.1579" lon="1.01409">
        <ele>539.4</ele>
        <time>2024-08-12T08:25:39Z</time>
      </trkpt>
      <trkpt lat="43.15789" lon="1.01412">
        <ele>539.8</ele>
        <time>2024-08-12T08:25:40Z</time>
      </trkpt>
      <trkpt lat="43.15788" lon="1.01415">
        <ele>540.2</ele>
        <time>2024-08-12T08:25:41Z</time>
      </trkpt>
      <trkpt lat="43.15786" lon="1.01419">
        <ele>541</ele>
        <time>2024-08-12T08:25:42Z</time>
      </trkpt>
      <trkpt lat="43.15785" lon="1.01423">
        <ele>541.4</ele>
        <time>2024-08-12T08:25:43Z</time>
      </trkpt>
      <trkpt lat="43.15784" lon="1.01426">
        <ele>541.4</ele>
        <time>2024-08-12T08:25:44Z</time>
      </trkpt>
      <trkpt lat="43.15781" lon="1.01448">
        <ele>541.4</ele>
        <time>2024-08-12T08:25:49Z</time>
      </trkpt>
      <trkpt lat="43.15782" lon="1.01473">
        <ele>541.4</ele>
        <time>2024-08-12T08:25:55Z</time>
      </trkpt>
      <trkpt lat="43.15786" lon="1.01491">
        <ele>541.8</ele>
        <time>2024-08-12T08:26:00Z</time>
      </trkpt>
      <trkpt lat="43.15787" lon="1.01494">
        <ele>542.4</ele>
        <time>2024-08-12T08:26:01Z</time>
      </trkpt>
      <trkpt lat="43.15787" lon="1.01498">
        <ele>542.8</ele>
        <time>2024-08-12T08:26:02Z</time>
      </trkpt>
      <trkpt lat="43.15787" lon="1.01501">
        <ele>543.2</ele>
        <time>2024-08-12T08:26:03Z</time>
      </trkpt>
      <trkpt lat="43.15788" lon="1.01504">
        <ele>543.6</ele>
        <time>2024-08-12T08:26:04Z</time>
      </trkpt>
      <trkpt lat="43.15789" lon="1.01512">
        <ele>543.6</ele>
        <time>2024-08-12T08:26:06Z</time>
      </trkpt>
      <trkpt lat="43.15787" lon="1.01534">
        <ele>544</ele>
        <time>2024-08-12T08:26:12Z</time>
      </trkpt>
      <trkpt lat="43.15787" lon="1.01538">
        <ele>544.4</ele>
        <time>2024-08-12T08:26:13Z</time>
      </trkpt>
      <trkpt lat="43.15786" lon="1.01542">
        <ele>544.8</ele>
        <time>2024-08-12T08:26:14Z</time>
      </trkpt>
      <trkpt lat="43.15786" lon="1.01547">
        <ele>545.2</ele>
        <time>2024-08-12T08:26:15Z</time>
      </trkpt>
      <trkpt lat="43.15786" lon="1.01552">
        <ele>545.6</ele>
        <time>2024-08-12T08:26:16Z</time>
      </trkpt>
      <trkpt lat="43.15785" lon="1.01557">
        <ele>545.6</ele>
        <time>2024-08-12T08:26:17Z</time>
      </trkpt>
      <trkpt lat="43.15781" lon="1.01591">
        <ele>545.6</ele>
        <time>2024-08-12T08:26:24Z</time>
      </trkpt>
      <trkpt lat="43.15777" lon="1.01627">
        <ele>545.6</ele>
        <time>2024-08-12T08:26:31Z</time>
      </trkpt>
      <trkpt lat="43.15774" lon="1.01657">
        <ele>545.6</ele>
        <time>2024-08-12T08:26:37Z</time>
      </trkpt>
      <trkpt lat="43.15772" lon="1.01669">
        <ele>545.2</ele>
        <time>2024-08-12T08:26:39Z</time>
      </trkpt>
      <trkpt lat="43.1577" lon="1.01675">
        <ele>544.8</ele>
        <time>2024-08-12T08:26:40Z</time>
      </trkpt>
      <trkpt lat="43.15767" lon="1.01682">
        <ele>544.4</ele>
        <time>2024-08-12T08:26:41Z</time>
      </trkpt>
      <trkpt lat="43.15765" lon="1.01687">
        <ele>544</ele>
        <time>2024-08-12T08:26:42Z</time>
      </trkpt>
      <trkpt lat="43.15763" lon="1.01693">
        <ele>543.4</ele>
        <time>2024-08-12T08:26:43Z</time>
      </trkpt>
      <trkpt lat="43.15761" lon="1.01698">
        <ele>543</ele>
        <time>2024-08-12T08:26:44Z</time>
      </trkpt>
      <trkpt lat="43.1576" lon="1.01702">
        <ele>542.6</ele>
        <time>2024-08-12T08:26:45Z</time>
      </trkpt>
      <trkpt lat="43.15759" lon="1.01706">
        <ele>542.2</ele>
        <time>2024-08-12T08:26:46Z</time>
      </trkpt>
      <trkpt lat="43.15758" lon="1.0171">
        <ele>541.6</ele>
        <time>2024-08-12T08:26:47Z</time>
      </trkpt>
      <trkpt lat="43.15757" lon="1.01713">
        <ele>541.2</ele>
        <time>2024-08-12T08:26:48Z</time>
      </trkpt>
      <trkpt lat="43.15752" lon="1.01726">
        <ele>540.8</ele>
        <time>2024-08-12T08:26:51Z</time>
      </trkpt>
      <trkpt lat="43.15752" lon="1.0173">
        <ele>540.4</ele>
        <time>2024-08-12T08:26:52Z</time>
      </trkpt>
      <trkpt lat="43.15751" lon="1.01732">
        <ele>540</ele>
        <time>2024-08-12T08:26:53Z</time>
      </trkpt>
      <trkpt lat="43.1575" lon="1.01735">
        <ele>539.6</ele>
        <time>2024-08-12T08:26:54Z</time>
      </trkpt>
      <trkpt lat="43.1575" lon="1.01737">
        <ele>539</ele>
        <time>2024-08-12T08:26:55Z</time>
      </trkpt>
      <trkpt lat="43.15749" lon="1.0175">
        <ele>539</ele>
        <time>2024-08-12T08:26:58Z</time>
      </trkpt>
      <trkpt lat="43.15747" lon="1.01782">
        <ele>539</ele>
        <time>2024-08-12T08:27:04Z</time>
      </trkpt>
      <trkpt lat="43.15749" lon="1.01796">
        <ele>539</ele>
        <time>2024-08-12T08:27:07Z</time>
      </trkpt>
      <trkpt lat="43.15751" lon="1.01798">
        <ele>539</ele>
        <time>2024-08-12T08:27:08Z</time>
      </trkpt>
      <trkpt lat="43.15757" lon="1.01799">
        <ele>539</ele>
        <time>2024-08-12T08:27:11Z</time>
      </trkpt>
      <trkpt lat="43.15759" lon="1.01801">
        <ele>539</ele>
        <time>2024-08-12T08:27:12Z</time>
      </trkpt>
      <trkpt lat="43.15761" lon="1.01804">
        <ele>539</ele>
        <time>2024-08-12T08:27:13Z</time>
      </trkpt>
      <trkpt lat="43.15761" lon="1.01812">
        <ele>539</ele>
        <time>2024-08-12T08:27:15Z</time>
      </trkpt>
      <trkpt lat="43.1576" lon="1.01819">
        <ele>539</ele>
        <time>2024-08-12T08:27:17Z</time>
      </trkpt>
      <trkpt lat="43.15758" lon="1.0183">
        <ele>539</ele>
        <time>2024-08-12T08:27:20Z</time>
      </trkpt>
      <trkpt lat="43.15756" lon="1.01841">
        <ele>539.6</ele>
        <time>2024-08-12T08:27:23Z</time>
      </trkpt>
      <trkpt lat="43.15756" lon="1.01844">
        <ele>540</ele>
        <time>2024-08-12T08:27:24Z</time>
      </trkpt>
      <trkpt lat="43.15756" lon="1.01847">
        <ele>540.4</ele>
        <time>2024-08-12T08:27:25Z</time>
      </trkpt>
      <trkpt lat="43.15756" lon="1.01851">
        <ele>540.8</ele>
        <time>2024-08-12T08:27:26Z</time>
      </trkpt>
      <trkpt lat="43.15756" lon="1.01854">
        <ele>541.4</ele>
        <time>2024-08-12T08:27:27Z</time>
      </trkpt>
      <trkpt lat="43.15755" lon="1.01867">
        <ele>541.4</ele>
        <time>2024-08-12T08:27:31Z</time>
      </trkpt>
      <trkpt lat="43.15755" lon="1.01871">
        <ele>541.8</ele>
        <time>2024-08-12T08:27:32Z</time>
      </trkpt>
      <trkpt lat="43.15755" lon="1.01875">
        <ele>542.2</ele>
        <time>2024-08-12T08:27:33Z</time>
      </trkpt>
      <trkpt lat="43.15754" lon="1.01878">
        <ele>542.6</ele>
        <time>2024-08-12T08:27:34Z</time>
      </trkpt>
      <trkpt lat="43.15754" lon="1.01882">
        <ele>543</ele>
        <time>2024-08-12T08:27:35Z</time>
      </trkpt>
      <trkpt lat="43.15753" lon="1.01886">
        <ele>543.4</ele>
        <time>2024-08-12T08:27:36Z</time>
      </trkpt>
      <trkpt lat="43.15753" lon="1.01893">
        <ele>543.4</ele>
        <time>2024-08-12T08:27:38Z</time>
      </trkpt>
      <trkpt lat="43.15751" lon="1.01912">
        <ele>543.8</ele>
        <time>2024-08-12T08:27:43Z</time>
      </trkpt>
      <trkpt lat="43.15751" lon="1.01916">
        <ele>544.2</ele>
        <time>2024-08-12T08:27:44Z</time>
      </trkpt>
      <trkpt lat="43.1575" lon="1.0192">
        <ele>544.6</ele>
        <time>2024-08-12T08:27:45Z</time>
      </trkpt>
      <trkpt lat="43.1575" lon="1.01925">
        <ele>545.6</ele>
        <time>2024-08-12T08:27:46Z</time>
      </trkpt>
      <trkpt lat="43.1575" lon="1.01944">
        <ele>545.6</ele>
        <time>2024-08-12T08:27:51Z</time>
      </trkpt>
      <trkpt lat="43.1575" lon="1.01959">
        <ele>546</ele>
        <time>2024-08-12T08:27:55Z</time>
      </trkpt>
      <trkpt lat="43.1575" lon="1.01963">
        <ele>546.4</ele>
        <time>2024-08-12T08:27:56Z</time>
      </trkpt>
      <trkpt lat="43.1575" lon="1.01966">
        <ele>546.8</ele>
        <time>2024-08-12T08:27:57Z</time>
      </trkpt>
      <trkpt lat="43.15749" lon="1.0197">
        <ele>547.2</ele>
        <time>2024-08-12T08:27:58Z</time>
      </trkpt>
      <trkpt lat="43.15749" lon="1.01973">
        <ele>547.6</ele>
        <time>2024-08-12T08:27:59Z</time>
      </trkpt>
      <trkpt lat="43.15749" lon="1.01979">
        <ele>547.6</ele>
        <time>2024-08-12T08:28:01Z</time>
      </trkpt>
      <trkpt lat="43.15749" lon="1.01983">
        <ele>547.6</ele>
        <time>2024-08-12T08:28:03Z</time>
      </trkpt>
      <trkpt lat="43.1575" lon="1.01985">
        <ele>547.6</ele>
        <time>2024-08-12T08:28:05Z</time>
      </trkpt>
      <trkpt lat="43.15749" lon="1.01994">
        <ele>547.6</ele>
        <time>2024-08-12T08:33:10Z</time>
      </trkpt>
      <trkpt lat="43.15749" lon="1.01997">
        <ele>547.6</ele>
        <time>2024-08-12T08:33:11Z</time>
      </trkpt>
      <trkpt lat="43.15748" lon="1.02015">
        <ele>547.6</ele>
        <time>2024-08-12T08:33:16Z</time>
      </trkpt>
      <trkpt lat="43.1575" lon="1.02037">
        <ele>547.6</ele>
        <time>2024-08-12T08:33:21Z</time>
      </trkpt>
      <trkpt lat="43.15751" lon="1.02041">
        <ele>547.6</ele>
        <time>2024-08-12T08:33:22Z</time>
      </trkpt>
      <trkpt lat="43.15755" lon="1.02053">
        <ele>547.6</ele>
        <time>2024-08-12T08:33:25Z</time>
      </trkpt>
      <trkpt lat="43.15758" lon="1.02076">
        <ele>547.6</ele>
        <time>2024-08-12T08:33:30Z</time>
      </trkpt>
      <trkpt lat="43.1576" lon="1.02093">
        <ele>547.6</ele>
        <time>2024-08-12T08:33:33Z</time>
      </trkpt>
      <trkpt lat="43.1576" lon="1.02104">
        <ele>547.6</ele>
        <time>2024-08-12T08:33:35Z</time>
      </trkpt>
      <trkpt lat="43.15759" lon="1.02126">
        <ele>547.6</ele>
        <time>2024-08-12T08:33:40Z</time>
      </trkpt>
      <trkpt lat="43.15756" lon="1.02147">
        <ele>547.6</ele>
        <time>2024-08-12T08:33:45Z</time>
      </trkpt>
      <trkpt lat="43.15758" lon="1.02165">
        <ele>547.6</ele>
        <time>2024-08-12T08:33:50Z</time>
      </trkpt>
      <trkpt lat="43.15761" lon="1.02172">
        <ele>548</ele>
        <time>2024-08-12T08:33:53Z</time>
      </trkpt>
      <trkpt lat="43.15762" lon="1.02174">
        <ele>548.4</ele>
        <time>2024-08-12T08:33:54Z</time>
      </trkpt>
      <trkpt lat="43.15764" lon="1.02176">
        <ele>549</ele>
        <time>2024-08-12T08:33:55Z</time>
      </trkpt>
      <trkpt lat="43.15766" lon="1.02178">
        <ele>549.4</ele>
        <time>2024-08-12T08:33:56Z</time>
      </trkpt>
      <trkpt lat="43.15767" lon="1.0218">
        <ele>549.8</ele>
        <time>2024-08-12T08:33:57Z</time>
      </trkpt>
      <trkpt lat="43.15771" lon="1.02185">
        <ele>550.4</ele>
        <time>2024-08-12T08:33:59Z</time>
      </trkpt>
      <trkpt lat="43.15773" lon="1.02187">
        <ele>550.8</ele>
        <time>2024-08-12T08:34:00Z</time>
      </trkpt>
      <trkpt lat="43.15775" lon="1.0219">
        <ele>551.2</ele>
        <time>2024-08-12T08:34:01Z</time>
      </trkpt>
      <trkpt lat="43.15776" lon="1.02191">
        <ele>551.8</ele>
        <time>2024-08-12T08:34:02Z</time>
      </trkpt>
      <trkpt lat="43.15778" lon="1.02193">
        <ele>552.2</ele>
        <time>2024-08-12T08:34:03Z</time>
      </trkpt>
      <trkpt lat="43.15781" lon="1.02197">
        <ele>552.6</ele>
        <time>2024-08-12T08:34:05Z</time>
      </trkpt>
      <trkpt lat="43.15782" lon="1.02198">
        <ele>553</ele>
        <time>2024-08-12T08:34:06Z</time>
      </trkpt>
      <trkpt lat="43.15784" lon="1.02199">
        <ele>553.6</ele>
        <time>2024-08-12T08:34:07Z</time>
      </trkpt>
      <trkpt lat="43.15786" lon="1.02199">
        <ele>554</ele>
        <time>2024-08-12T08:34:08Z</time>
      </trkpt>
      <trkpt lat="43.15788" lon="1.022">
        <ele>554.4</ele>
        <time>2024-08-12T08:34:09Z</time>
      </trkpt>
      <trkpt lat="43.15794" lon="1.02203">
        <ele>554.8</ele>
        <time>2024-08-12T08:34:12Z</time>
      </trkpt>
      <trkpt lat="43.15796" lon="1.02205">
        <ele>555.4</ele>
        <time>2024-08-12T08:34:13Z</time>
      </trkpt>
      <trkpt lat="43.15798" lon="1.02207">
        <ele>555.8</ele>
        <time>2024-08-12T08:34:14Z</time>
      </trkpt>
      <trkpt lat="43.15799" lon="1.02209">
        <ele>556.2</ele>
        <time>2024-08-12T08:34:15Z</time>
      </trkpt>
      <trkpt lat="43.158" lon="1.02211">
        <ele>556.8</ele>
        <time>2024-08-12T08:34:16Z</time>
      </trkpt>
      <trkpt lat="43.15801" lon="1.02213">
        <ele>557.2</ele>
        <time>2024-08-12T08:34:17Z</time>
      </trkpt>
      <trkpt lat="43.15802" lon="1.02215">
        <ele>557.6</ele>
        <time>2024-08-12T08:34:18Z</time>
      </trkpt>
      <trkpt lat="43.15804" lon="1.02217">
        <ele>558</ele>
        <time>2024-08-12T08:34:19Z</time>
      </trkpt>
      <trkpt lat="43.15805" lon="1.02218">
        <ele>558.4</ele>
        <time>2024-08-12T08:34:20Z</time>
      </trkpt>
      <trkpt lat="43.15807" lon="1.02219">
        <ele>558.8</ele>
        <time>2024-08-12T08:34:21Z</time>
      </trkpt>
      <trkpt lat="43.15809" lon="1.02219">
        <ele>559.8</ele>
        <time>2024-08-12T08:34:22Z</time>
      </trkpt>
      <trkpt lat="43.15811" lon="1.02219">
        <ele>560.2</ele>
        <time>2024-08-12T08:34:23Z</time>
      </trkpt>
      <trkpt lat="43.15813" lon="1.02218">
        <ele>560.6</ele>
        <time>2024-08-12T08:34:24Z</time>
      </trkpt>
      <trkpt lat="43.15815" lon="1.02218">
        <ele>561</ele>
        <time>2024-08-12T08:34:25Z</time>
      </trkpt>
      <trkpt lat="43.15818" lon="1.02218">
        <ele>561</ele>
        <time>2024-08-12T08:34:27Z</time>
      </trkpt>
      <trkpt lat="43.15823" lon="1.02219">
        <ele>561.4</ele>
        <time>2024-08-12T08:34:30Z</time>
      </trkpt>
      <trkpt lat="43.15825" lon="1.02219">
        <ele>561.8</ele>
        <time>2024-08-12T08:34:31Z</time>
      </trkpt>
      <trkpt lat="43.15827" lon="1.0222">
        <ele>562.4</ele>
        <time>2024-08-12T08:34:32Z</time>
      </trkpt>
      <trkpt lat="43.15828" lon="1.0222">
        <ele>562.8</ele>
        <time>2024-08-12T08:34:33Z</time>
      </trkpt>
      <trkpt lat="43.1583" lon="1.0222">
        <ele>563.2</ele>
        <time>2024-08-12T08:34:34Z</time>
      </trkpt>
      <trkpt lat="43.15836" lon="1.02224">
        <ele>563.6</ele>
        <time>2024-08-12T08:34:38Z</time>
      </trkpt>
      <trkpt lat="43.15838" lon="1.02225">
        <ele>564</ele>
        <time>2024-08-12T08:34:39Z</time>
      </trkpt>
      <trkpt lat="43.1584" lon="1.02226">
        <ele>564.4</ele>
        <time>2024-08-12T08:34:40Z</time>
      </trkpt>
      <trkpt lat="43.15842" lon="1.02227">
        <ele>564.8</ele>
        <time>2024-08-12T08:34:41Z</time>
      </trkpt>
      <trkpt lat="43.15844" lon="1.02229">
        <ele>565.2</ele>
        <time>2024-08-12T08:34:42Z</time>
      </trkpt>
      <trkpt lat="43.15847" lon="1.02231">
        <ele>565.8</ele>
        <time>2024-08-12T08:34:44Z</time>
      </trkpt>
      <trkpt lat="43.15848" lon="1.02233">
        <ele>566.2</ele>
        <time>2024-08-12T08:34:45Z</time>
      </trkpt>
      <trkpt lat="43.15849" lon="1.02235">
        <ele>566.6</ele>
        <time>2024-08-12T08:34:46Z</time>
      </trkpt>
      <trkpt lat="43.1585" lon="1.02237">
        <ele>567.4</ele>
        <time>2024-08-12T08:34:47Z</time>
      </trkpt>
      <trkpt lat="43.15851" lon="1.02239">
        <ele>567.8</ele>
        <time>2024-08-12T08:34:48Z</time>
      </trkpt>
      <trkpt lat="43.15852" lon="1.02241">
        <ele>568.4</ele>
        <time>2024-08-12T08:34:49Z</time>
      </trkpt>
      <trkpt lat="43.15853" lon="1.02244">
        <ele>568.8</ele>
        <time>2024-08-12T08:34:50Z</time>
      </trkpt>
      <trkpt lat="43.15854" lon="1.02246">
        <ele>569.2</ele>
        <time>2024-08-12T08:34:51Z</time>
      </trkpt>
      <trkpt lat="43.15855" lon="1.02248">
        <ele>569.6</ele>
        <time>2024-08-12T08:34:52Z</time>
      </trkpt>
      <trkpt lat="43.15856" lon="1.0225">
        <ele>570.2</ele>
        <time>2024-08-12T08:34:53Z</time>
      </trkpt>
      <trkpt lat="43.15857" lon="1.02252">
        <ele>570.8</ele>
        <time>2024-08-12T08:34:54Z</time>
      </trkpt>
      <trkpt lat="43.15857" lon="1.02253">
        <ele>571.2</ele>
        <time>2024-08-12T08:34:55Z</time>
      </trkpt>
      <trkpt lat="43.15858" lon="1.02255">
        <ele>571.8</ele>
        <time>2024-08-12T08:34:56Z</time>
      </trkpt>
      <trkpt lat="43.15859" lon="1.02256">
        <ele>572.2</ele>
        <time>2024-08-12T08:34:57Z</time>
      </trkpt>
      <trkpt lat="43.1586" lon="1.02257">
        <ele>572.6</ele>
        <time>2024-08-12T08:34:58Z</time>
      </trkpt>
      <trkpt lat="43.15861" lon="1.02258">
        <ele>573.2</ele>
        <time>2024-08-12T08:34:59Z</time>
      </trkpt>
      <trkpt lat="43.15863" lon="1.02259">
        <ele>573.6</ele>
        <time>2024-08-12T08:35:00Z</time>
      </trkpt>
      <trkpt lat="43.15864" lon="1.0226">
        <ele>574</ele>
        <time>2024-08-12T08:35:01Z</time>
      </trkpt>
      <trkpt lat="43.15866" lon="1.02262">
        <ele>574.6</ele>
        <time>2024-08-12T08:35:03Z</time>
      </trkpt>
      <trkpt lat="43.15867" lon="1.02263">
        <ele>575</ele>
        <time>2024-08-12T08:35:04Z</time>
      </trkpt>
      <trkpt lat="43.15868" lon="1.02264">
        <ele>575.4</ele>
        <time>2024-08-12T08:35:05Z</time>
      </trkpt>
      <trkpt lat="43.1587" lon="1.02265">
        <ele>575.8</ele>
        <time>2024-08-12T08:35:06Z</time>
      </trkpt>
      <trkpt lat="43.15871" lon="1.02266">
        <ele>576.4</ele>
        <time>2024-08-12T08:35:07Z</time>
      </trkpt>
      <trkpt lat="43.15873" lon="1.02268">
        <ele>576.8</ele>
        <time>2024-08-12T08:35:09Z</time>
      </trkpt>
      <trkpt lat="43.15874" lon="1.02269">
        <ele>577.2</ele>
        <time>2024-08-12T08:35:10Z</time>
      </trkpt>
      <trkpt lat="43.15876" lon="1.0227">
        <ele>577.8</ele>
        <time>2024-08-12T08:35:11Z</time>
      </trkpt>
      <trkpt lat="43.15877" lon="1.0227">
        <ele>578.6</ele>
        <time>2024-08-12T08:35:12Z</time>
      </trkpt>
      <trkpt lat="43.1588" lon="1.02272">
        <ele>579</ele>
        <time>2024-08-12T08:35:14Z</time>
      </trkpt>
      <trkpt lat="43.15881" lon="1.02273">
        <ele>579.6</ele>
        <time>2024-08-12T08:35:15Z</time>
      </trkpt>
      <trkpt lat="43.15882" lon="1.02274">
        <ele>580</ele>
        <time>2024-08-12T08:35:16Z</time>
      </trkpt>
      <trkpt lat="43.15883" lon="1.02275">
        <ele>580.4</ele>
        <time>2024-08-12T08:35:17Z</time>
      </trkpt>
      <trkpt lat="43.15885" lon="1.02276">
        <ele>580.8</ele>
        <time>2024-08-12T08:35:18Z</time>
      </trkpt>
      <trkpt lat="43.15887" lon="1.02278">
        <ele>581.2</ele>
        <time>2024-08-12T08:35:20Z</time>
      </trkpt>
      <trkpt lat="43.15888" lon="1.02279">
        <ele>581.6</ele>
        <time>2024-08-12T08:35:21Z</time>
      </trkpt>
      <trkpt lat="43.15889" lon="1.02279">
        <ele>582.2</ele>
        <time>2024-08-12T08:35:22Z</time>
      </trkpt>
      <trkpt lat="43.15891" lon="1.0228">
        <ele>582.6</ele>
        <time>2024-08-12T08:35:23Z</time>
      </trkpt>
      <trkpt lat="43.15893" lon="1.0228">
        <ele>583</ele>
        <time>2024-08-12T08:35:24Z</time>
      </trkpt>
      <trkpt lat="43.15897" lon="1.0228">
        <ele>583.4</ele>
        <time>2024-08-12T08:35:27Z</time>
      </trkpt>
      <trkpt lat="43.15899" lon="1.02281">
        <ele>583.8</ele>
        <time>2024-08-12T08:35:28Z</time>
      </trkpt>
      <trkpt lat="43.159" lon="1.02282">
        <ele>584.2</ele>
        <time>2024-08-12T08:35:29Z</time>
      </trkpt>
      <trkpt lat="43.15902" lon="1.02282">
        <ele>584.6</ele>
        <time>2024-08-12T08:35:30Z</time>
      </trkpt>
      <trkpt lat="43.15904" lon="1.02282">
        <ele>585</ele>
        <time>2024-08-12T08:35:31Z</time>
      </trkpt>
      <trkpt lat="43.1591" lon="1.02281">
        <ele>585</ele>
        <time>2024-08-12T08:35:35Z</time>
      </trkpt>
      <trkpt lat="43.15911" lon="1.02282">
        <ele>585.4</ele>
        <time>2024-08-12T08:35:36Z</time>
      </trkpt>
      <trkpt lat="43.15913" lon="1.02282">
        <ele>586</ele>
        <time>2024-08-12T08:35:37Z</time>
      </trkpt>
      <trkpt lat="43.15914" lon="1.02281">
        <ele>586.4</ele>
        <time>2024-08-12T08:35:38Z</time>
      </trkpt>
      <trkpt lat="43.15916" lon="1.02282">
        <ele>586.8</ele>
        <time>2024-08-12T08:35:39Z</time>
      </trkpt>
      <trkpt lat="43.15918" lon="1.02281">
        <ele>587.4</ele>
        <time>2024-08-12T08:35:40Z</time>
      </trkpt>
      <trkpt lat="43.15927" lon="1.02278">
        <ele>587.8</ele>
        <time>2024-08-12T08:35:45Z</time>
      </trkpt>
      <trkpt lat="43.1593" lon="1.02278">
        <ele>588.2</ele>
        <time>2024-08-12T08:35:46Z</time>
      </trkpt>
      <trkpt lat="43.15931" lon="1.02278">
        <ele>588.6</ele>
        <time>2024-08-12T08:35:47Z</time>
      </trkpt>
      <trkpt lat="43.15933" lon="1.02278">
        <ele>589</ele>
        <time>2024-08-12T08:35:48Z</time>
      </trkpt>
      <trkpt lat="43.15935" lon="1.02279">
        <ele>589.4</ele>
        <time>2024-08-12T08:35:49Z</time>
      </trkpt>
      <trkpt lat="43.15937" lon="1.02281">
        <ele>589.4</ele>
        <time>2024-08-12T08:35:50Z</time>
      </trkpt>
      <trkpt lat="43.15939" lon="1.02284">
        <ele>589.8</ele>
        <time>2024-08-12T08:35:52Z</time>
      </trkpt>
      <trkpt lat="43.1594" lon="1.02285">
        <ele>590.2</ele>
        <time>2024-08-12T08:35:53Z</time>
      </trkpt>
      <trkpt lat="43.15941" lon="1.02287">
        <ele>590.6</ele>
        <time>2024-08-12T08:35:54Z</time>
      </trkpt>
      <trkpt lat="43.15942" lon="1.02288">
        <ele>591.2</ele>
        <time>2024-08-12T08:35:55Z</time>
      </trkpt>
      <trkpt lat="43.15943" lon="1.02289">
        <ele>591.6</ele>
        <time>2024-08-12T08:35:56Z</time>
      </trkpt>
      <trkpt lat="43.15944" lon="1.0229">
        <ele>592.2</ele>
        <time>2024-08-12T08:35:57Z</time>
      </trkpt>
      <trkpt lat="43.15945" lon="1.02291">
        <ele>592.6</ele>
        <time>2024-08-12T08:35:58Z</time>
      </trkpt>
      <trkpt lat="43.15946" lon="1.02291">
        <ele>593.2</ele>
        <time>2024-08-12T08:35:59Z</time>
      </trkpt>
      <trkpt lat="43.15968" lon="1.02356">
        <ele>612.8</ele>
        <time>2024-08-12T08:48:06Z</time>
      </trkpt>
      <trkpt lat="43.15966" lon="1.02357">
        <ele>612.8</ele>
        <time>2024-08-12T08:48:07Z</time>
      </trkpt>
      <trkpt lat="43.15962" lon="1.02362">
        <ele>613.2</ele>
        <time>2024-08-12T08:48:11Z</time>
      </trkpt>
      <trkpt lat="43.15961" lon="1.02364">
        <ele>613.6</ele>
        <time>2024-08-12T08:48:12Z</time>
      </trkpt>
      <trkpt lat="43.15959" lon="1.02364">
        <ele>614</ele>
        <time>2024-08-12T08:48:13Z</time>
      </trkpt>
      <trkpt lat="43.15958" lon="1.02365">
        <ele>614.4</ele>
        <time>2024-08-12T08:48:14Z</time>
      </trkpt>
      <trkpt lat="43.15956" lon="1.02367">
        <ele>614.8</ele>
        <time>2024-08-12T08:48:15Z</time>
      </trkpt>
      <trkpt lat="43.15954" lon="1.0237">
        <ele>614.8</ele>
        <time>2024-08-12T08:48:17Z</time>
      </trkpt>
      <trkpt lat="43.15943" lon="1.02379">
        <ele>614.8</ele>
        <time>2024-08-12T08:48:22Z</time>
      </trkpt>
      <trkpt lat="43.15929" lon="1.02391">
        <ele>614.8</ele>
        <time>2024-08-12T08:48:27Z</time>
      </trkpt>
      <trkpt lat="43.1592" lon="1.02401">
        <ele>614.8</ele>
        <time>2024-08-12T08:48:32Z</time>
      </trkpt>
      <trkpt lat="43.15907" lon="1.02409">
        <ele>614.8</ele>
        <time>2024-08-12T08:48:36Z</time>
      </trkpt>
      <trkpt lat="43.159" lon="1.02415">
        <ele>614.4</ele>
        <time>2024-08-12T08:48:38Z</time>
      </trkpt>
      <trkpt lat="43.15896" lon="1.02417">
        <ele>613.8</ele>
        <time>2024-08-12T08:48:39Z</time>
      </trkpt>
      <trkpt lat="43.15891" lon="1.0242">
        <ele>613.4</ele>
        <time>2024-08-12T08:48:40Z</time>
      </trkpt>
      <trkpt lat="43.15888" lon="1.02426">
        <ele>612.8</ele>
        <time>2024-08-12T08:48:41Z</time>
      </trkpt>
      <trkpt lat="43.15884" lon="1.02432">
        <ele>612.4</ele>
        <time>2024-08-12T08:48:42Z</time>
      </trkpt>
      <trkpt lat="43.15881" lon="1.02436">
        <ele>611.8</ele>
        <time>2024-08-12T08:48:43Z</time>
      </trkpt>
      <trkpt lat="43.15877" lon="1.02439">
        <ele>611.2</ele>
        <time>2024-08-12T08:48:44Z</time>
      </trkpt>
      <trkpt lat="43.15874" lon="1.02442">
        <ele>610.8</ele>
        <time>2024-08-12T08:48:45Z</time>
      </trkpt>
      <trkpt lat="43.1587" lon="1.02446">
        <ele>610.2</ele>
        <time>2024-08-12T08:48:46Z</time>
      </trkpt>
      <trkpt lat="43.15867" lon="1.02451">
        <ele>609.6</ele>
        <time>2024-08-12T08:48:47Z</time>
      </trkpt>
      <trkpt lat="43.15863" lon="1.02455">
        <ele>608.4</ele>
        <time>2024-08-12T08:48:48Z</time>
      </trkpt>
      <trkpt lat="43.15859" lon="1.02461">
        <ele>607.8</ele>
        <time>2024-08-12T08:48:49Z</time>
      </trkpt>
      <trkpt lat="43.15855" lon="1.02466">
        <ele>607.2</ele>
        <time>2024-08-12T08:48:50Z</time>
      </trkpt>
      <trkpt lat="43.15852" lon="1.02472">
        <ele>606.8</ele>
        <time>2024-08-12T08:48:51Z</time>
      </trkpt>
      <trkpt lat="43.15849" lon="1.02479">
        <ele>606.2</ele>
        <time>2024-08-12T08:48:52Z</time>
      </trkpt>
      <trkpt lat="43.15844" lon="1.02485">
        <ele>605.4</ele>
        <time>2024-08-12T08:48:53Z</time>
      </trkpt>
      <trkpt lat="43.1584" lon="1.02491">
        <ele>604.8</ele>
        <time>2024-08-12T08:48:54Z</time>
      </trkpt>
      <trkpt lat="43.15837" lon="1.02496">
        <ele>603.8</ele>
        <time>2024-08-12T08:48:55Z</time>
      </trkpt>
      <trkpt lat="43.15834" lon="1.02501">
        <ele>603</ele>
        <time>2024-08-12T08:48:56Z</time>
      </trkpt>
      <trkpt lat="43.1583" lon="1.02507">
        <ele>602.2</ele>
        <time>2024-08-12T08:48:57Z</time>
      </trkpt>
      <trkpt lat="43.15826" lon="1.02512">
        <ele>601.2</ele>
        <time>2024-08-12T08:48:58Z</time>
      </trkpt>
      <trkpt lat="43.15823" lon="1.02518">
        <ele>600.4</ele>
        <time>2024-08-12T08:48:59Z</time>
      </trkpt>
      <trkpt lat="43.15819" lon="1.02523">
        <ele>599.4</ele>
        <time>2024-08-12T08:49:00Z</time>
      </trkpt>
      <trkpt lat="43.15814" lon="1.02526">
        <ele>598.4</ele>
        <time>2024-08-12T08:49:01Z</time>
      </trkpt>
      <trkpt lat="43.15809" lon="1.0253">
        <ele>597.4</ele>
        <time>2024-08-12T08:49:02Z</time>
      </trkpt>
      <trkpt lat="43.15803" lon="1.02535">
        <ele>596.2</ele>
        <time>2024-08-12T08:49:03Z</time>
      </trkpt>
      <trkpt lat="43.15799" lon="1.02543">
        <ele>595.2</ele>
        <time>2024-08-12T08:49:04Z</time>
      </trkpt>
      <trkpt lat="43.15794" lon="1.02549">
        <ele>594</ele>
        <time>2024-08-12T08:49:05Z</time>
      </trkpt>
      <trkpt lat="43.15789" lon="1.02556">
        <ele>592.8</ele>
        <time>2024-08-12T08:49:06Z</time>
      </trkpt>
      <trkpt lat="43.15784" lon="1.02565">
        <ele>591.8</ele>
        <time>2024-08-12T08:49:07Z</time>
      </trkpt>
      <trkpt lat="43.15779" lon="1.02576">
        <ele>590.6</ele>
        <time>2024-08-12T08:49:08Z</time>
      </trkpt>
      <trkpt lat="43.15774" lon="1.02586">
        <ele>589.4</ele>
        <time>2024-08-12T08:49:09Z</time>
      </trkpt>
      <trkpt lat="43.15771" lon="1.02595">
        <ele>588</ele>
        <time>2024-08-12T08:49:10Z</time>
      </trkpt>
      <trkpt lat="43.15769" lon="1.02605">
        <ele>587</ele>
        <time>2024-08-12T08:49:11Z</time>
      </trkpt>
      <trkpt lat="43.15766" lon="1.02613">
        <ele>586</ele>
        <time>2024-08-12T08:49:12Z</time>
      </trkpt>
      <trkpt lat="43.15761" lon="1.02619">
        <ele>584</ele>
        <time>2024-08-12T08:49:13Z</time>
      </trkpt>
      <trkpt lat="43.15756" lon="1.0262">
        <ele>583</ele>
        <time>2024-08-12T08:49:14Z</time>
      </trkpt>
      <trkpt lat="43.15751" lon="1.02623">
        <ele>582</ele>
        <time>2024-08-12T08:49:15Z</time>
      </trkpt>
      <trkpt lat="43.15745" lon="1.02629">
        <ele>581.2</ele>
        <time>2024-08-12T08:49:16Z</time>
      </trkpt>
      <trkpt lat="43.1574" lon="1.02635">
        <ele>580.2</ele>
        <time>2024-08-12T08:49:17Z</time>
      </trkpt>
      <trkpt lat="43.15734" lon="1.0264">
        <ele>579.2</ele>
        <time>2024-08-12T08:49:18Z</time>
      </trkpt>
      <trkpt lat="43.15727" lon="1.02647">
        <ele>578.2</ele>
        <time>2024-08-12T08:49:19Z</time>
      </trkpt>
      <trkpt lat="43.1572" lon="1.02654">
        <ele>577.2</ele>
        <time>2024-08-12T08:49:20Z</time>
      </trkpt>
      <trkpt lat="43.15713" lon="1.02661">
        <ele>576</ele>
        <time>2024-08-12T08:49:21Z</time>
      </trkpt>
      <trkpt lat="43.15707" lon="1.02666">
        <ele>575</ele>
        <time>2024-08-12T08:49:22Z</time>
      </trkpt>
      <trkpt lat="43.15701" lon="1.02671">
        <ele>573.8</ele>
        <time>2024-08-12T08:49:23Z</time>
      </trkpt>
      <trkpt lat="43.15697" lon="1.02675">
        <ele>572.6</ele>
        <time>2024-08-12T08:49:24Z</time>
      </trkpt>
      <trkpt lat="43.15691" lon="1.0268">
        <ele>571.4</ele>
        <time>2024-08-12T08:49:25Z</time>
      </trkpt>
      <trkpt lat="43.15685" lon="1.02686">
        <ele>570.2</ele>
        <time>2024-08-12T08:49:26Z</time>
      </trkpt>
      <trkpt lat="43.15679" lon="1.02692">
        <ele>569</ele>
        <time>2024-08-12T08:49:27Z</time>
      </trkpt>
      <trkpt lat="43.15673" lon="1.02698">
        <ele>568</ele>
        <time>2024-08-12T08:49:28Z</time>
      </trkpt>
      <trkpt lat="43.15669" lon="1.02704">
        <ele>566.8</ele>
        <time>2024-08-12T08:49:29Z</time>
      </trkpt>
      <trkpt lat="43.15664" lon="1.0271">
        <ele>565.8</ele>
        <time>2024-08-12T08:49:30Z</time>
      </trkpt>
      <trkpt lat="43.15659" lon="1.02716">
        <ele>564.6</ele>
        <time>2024-08-12T08:49:31Z</time>
      </trkpt>
      <trkpt lat="43.15653" lon="1.02722">
        <ele>563.6</ele>
        <time>2024-08-12T08:49:32Z</time>
      </trkpt>
      <trkpt lat="43.15648" lon="1.02729">
        <ele>562.6</ele>
        <time>2024-08-12T08:49:33Z</time>
      </trkpt>
      <trkpt lat="43.15644" lon="1.02735">
        <ele>561.4</ele>
        <time>2024-08-12T08:49:34Z</time>
      </trkpt>
      <trkpt lat="43.15639" lon="1.02741">
        <ele>560.4</ele>
        <time>2024-08-12T08:49:35Z</time>
      </trkpt>
      <trkpt lat="43.15635" lon="1.02746">
        <ele>559.4</ele>
        <time>2024-08-12T08:49:36Z</time>
      </trkpt>
      <trkpt lat="43.15631" lon="1.02751">
        <ele>557.6</ele>
        <time>2024-08-12T08:49:37Z</time>
      </trkpt>
      <trkpt lat="43.15626" lon="1.02757">
        <ele>556.6</ele>
        <time>2024-08-12T08:49:38Z</time>
      </trkpt>
      <trkpt lat="43.15622" lon="1.02763">
        <ele>555.6</ele>
        <time>2024-08-12T08:49:39Z</time>
      </trkpt>
      <trkpt lat="43.15617" lon="1.02767">
        <ele>554.8</ele>
        <time>2024-08-12T08:49:40Z</time>
      </trkpt>
      <trkpt lat="43.15613" lon="1.02771">
        <ele>553.8</ele>
        <time>2024-08-12T08:49:41Z</time>
      </trkpt>
      <trkpt lat="43.15608" lon="1.02777">
        <ele>552.8</ele>
        <time>2024-08-12T08:49:42Z</time>
      </trkpt>
      <trkpt lat="43.15603" lon="1.02784">
        <ele>552</ele>
        <time>2024-08-12T08:49:43Z</time>
      </trkpt>
      <trkpt lat="43.15599" lon="1.0279">
        <ele>551</ele>
        <time>2024-08-12T08:49:44Z</time>
      </trkpt>
      <trkpt lat="43.15595" lon="1.02796">
        <ele>550</ele>
        <time>2024-08-12T08:49:45Z</time>
      </trkpt>
      <trkpt lat="43.15591" lon="1.02803">
        <ele>549</ele>
        <time>2024-08-12T08:49:46Z</time>
      </trkpt>
      <trkpt lat="43.15587" lon="1.02809">
        <ele>548.2</ele>
        <time>2024-08-12T08:49:47Z</time>
      </trkpt>
      <trkpt lat="43.15583" lon="1.02816">
        <ele>547.2</ele>
        <time>2024-08-12T08:49:48Z</time>
      </trkpt>
      <trkpt lat="43.15579" lon="1.02823">
        <ele>546.4</ele>
        <time>2024-08-12T08:49:49Z</time>
      </trkpt>
      <trkpt lat="43.15574" lon="1.0283">
        <ele>545.6</ele>
        <time>2024-08-12T08:49:50Z</time>
      </trkpt>
      <trkpt lat="43.15568" lon="1.02836">
        <ele>544.6</ele>
        <time>2024-08-12T08:49:51Z</time>
      </trkpt>
      <trkpt lat="43.15564" lon="1.02843">
        <ele>543.8</ele>
        <time>2024-08-12T08:49:52Z</time>
      </trkpt>
      <trkpt lat="43.1556" lon="1.0285">
        <ele>542.8</ele>
        <time>2024-08-12T08:49:53Z</time>
      </trkpt>
      <trkpt lat="43.15556" lon="1.02857">
        <ele>541.8</ele>
        <time>2024-08-12T08:49:54Z</time>
      </trkpt>
      <trkpt lat="43.15552" lon="1.02865">
        <ele>540.8</ele>
        <time>2024-08-12T08:49:55Z</time>
      </trkpt>
      <trkpt lat="43.15549" lon="1.02873">
        <ele>539.8</ele>
        <time>2024-08-12T08:49:56Z</time>
      </trkpt>
      <trkpt lat="43.15547" lon="1.0288">
        <ele>538.8</ele>
        <time>2024-08-12T08:49:57Z</time>
      </trkpt>
      <trkpt lat="43.15544" lon="1.02887">
        <ele>538</ele>
        <time>2024-08-12T08:49:58Z</time>
      </trkpt>
      <trkpt lat="43.15541" lon="1.02894">
        <ele>537</ele>
        <time>2024-08-12T08:49:59Z</time>
      </trkpt>
      <trkpt lat="43.15538" lon="1.029">
        <ele>536</ele>
        <time>2024-08-12T08:50:00Z</time>
      </trkpt>
      <trkpt lat="43.15535" lon="1.02906">
        <ele>535.2</ele>
        <time>2024-08-12T08:50:01Z</time>
      </trkpt>
      <trkpt lat="43.15535" lon="1.0291">
        <ele>533.4</ele>
        <time>2024-08-12T08:50:02Z</time>
      </trkpt>
      <trkpt lat="43.15535" lon="1.02915">
        <ele>532.4</ele>
        <time>2024-08-12T08:50:03Z</time>
      </trkpt>
      <trkpt lat="43.15534" lon="1.02918">
        <ele>531.8</ele>
        <time>2024-08-12T08:50:04Z</time>
      </trkpt>
      <trkpt lat="43.15534" lon="1.02921">
        <ele>531.2</ele>
        <time>2024-08-12T08:50:05Z</time>
      </trkpt>
      <trkpt lat="43.15534" lon="1.02924">
        <ele>530.6</ele>
        <time>2024-08-12T08:50:06Z</time>
      </trkpt>
      <trkpt lat="43.15533" lon="1.02927">
        <ele>529.8</ele>
        <time>2024-08-12T08:50:07Z</time>
      </trkpt>
      <trkpt lat="43.15533" lon="1.02931">
        <ele>529.2</ele>
        <time>2024-08-12T08:50:08Z</time>
      </trkpt>
      <trkpt lat="43.15534" lon="1.02935">
        <ele>528.4</ele>
        <time>2024-08-12T08:50:09Z</time>
      </trkpt>
      <trkpt lat="43.15535" lon="1.02936">
        <ele>527.8</ele>
        <time>2024-08-12T08:50:10Z</time>
      </trkpt>
      <trkpt lat="43.15537" lon="1.02938">
        <ele>527</ele>
        <time>2024-08-12T08:50:11Z</time>
      </trkpt>
      <trkpt lat="43.15538" lon="1.0294">
        <ele>526.6</ele>
        <time>2024-08-12T08:50:12Z</time>
      </trkpt>
      <trkpt lat="43.15538" lon="1.02942">
        <ele>526.2</ele>
        <time>2024-08-12T08:50:13Z</time>
      </trkpt>
      <trkpt lat="43.15538" lon="1.02946">
        <ele>525.8</ele>
        <time>2024-08-12T08:50:14Z</time>
      </trkpt>
      <trkpt lat="43.15538" lon="1.0295">
        <ele>525.2</ele>
        <time>2024-08-12T08:50:15Z</time>
      </trkpt>
      <trkpt lat="43.15537" lon="1.02953">
        <ele>524.8</ele>
        <time>2024-08-12T08:50:16Z</time>
      </trkpt>
      <trkpt lat="43.15539" lon="1.02959">
        <ele>524.4</ele>
        <time>2024-08-12T08:50:18Z</time>
      </trkpt>
      <trkpt lat="43.1554" lon="1.02963">
        <ele>524</ele>
        <time>2024-08-12T08:50:19Z</time>
      </trkpt>
      <trkpt lat="43.15541" lon="1.02967">
        <ele>523.6</ele>
        <time>2024-08-12T08:50:20Z</time>
      </trkpt>
      <trkpt lat="43.15543" lon="1.0297">
        <ele>523.2</ele>
        <time>2024-08-12T08:50:21Z</time>
      </trkpt>
      <trkpt lat="43.15545" lon="1.02973">
        <ele>522.6</ele>
        <time>2024-08-12T08:50:22Z</time>
      </trkpt>
      <trkpt lat="43.15553" lon="1.02985">
        <ele>522.6</ele>
        <time>2024-08-12T08:50:26Z</time>
      </trkpt>
      <trkpt lat="43.15561" lon="1.02988">
        <ele>522.2</ele>
        <time>2024-08-12T08:50:29Z</time>
      </trkpt>
      <trkpt lat="43.15563" lon="1.02991">
        <ele>521.8</ele>
        <time>2024-08-12T08:50:30Z</time>
      </trkpt>
      <trkpt lat="43.15565" lon="1.02996">
        <ele>521.4</ele>
        <time>2024-08-12T08:50:31Z</time>
      </trkpt>
      <trkpt lat="43.15567" lon="1.03001">
        <ele>520.8</ele>
        <time>2024-08-12T08:50:32Z</time>
      </trkpt>
      <trkpt lat="43.15569" lon="1.03003">
        <ele>520</ele>
        <time>2024-08-12T08:50:33Z</time>
      </trkpt>
      <trkpt lat="43.15571" lon="1.03007">
        <ele>519.4</ele>
        <time>2024-08-12T08:50:34Z</time>
      </trkpt>
      <trkpt lat="43.15572" lon="1.0301">
        <ele>518.6</ele>
        <time>2024-08-12T08:50:35Z</time>
      </trkpt>
      <trkpt lat="43.15573" lon="1.03014">
        <ele>518</ele>
        <time>2024-08-12T08:50:36Z</time>
      </trkpt>
      <trkpt lat="43.15574" lon="1.03017">
        <ele>517.2</ele>
        <time>2024-08-12T08:50:37Z</time>
      </trkpt>
      <trkpt lat="43.15575" lon="1.03021">
        <ele>516.4</ele>
        <time>2024-08-12T08:50:38Z</time>
      </trkpt>
      <trkpt lat="43.15575" lon="1.03025">
        <ele>515.8</ele>
        <time>2024-08-12T08:50:39Z</time>
      </trkpt>
      <trkpt lat="43.15575" lon="1.03029">
        <ele>515.2</ele>
        <time>2024-08-12T08:50:40Z</time>
      </trkpt>
      <trkpt lat="43.15575" lon="1.03035">
        <ele>514.4</ele>
        <time>2024-08-12T08:50:41Z</time>
      </trkpt>
      <trkpt lat="43.15573" lon="1.0304">
        <ele>513.6</ele>
        <time>2024-08-12T08:50:42Z</time>
      </trkpt>
      <trkpt lat="43.15571" lon="1.03046">
        <ele>513</ele>
        <time>2024-08-12T08:50:43Z</time>
      </trkpt>
      <trkpt lat="43.15571" lon="1.03052">
        <ele>512.2</ele>
        <time>2024-08-12T08:50:44Z</time>
      </trkpt>
      <trkpt lat="43.15569" lon="1.03057">
        <ele>511.4</ele>
        <time>2024-08-12T08:50:45Z</time>
      </trkpt>
      <trkpt lat="43.15568" lon="1.03064">
        <ele>510.6</ele>
        <time>2024-08-12T08:50:46Z</time>
      </trkpt>
      <trkpt lat="43.15566" lon="1.03071">
        <ele>509.8</ele>
        <time>2024-08-12T08:50:47Z</time>
      </trkpt>
      <trkpt lat="43.15564" lon="1.03078">
        <ele>509</ele>
        <time>2024-08-12T08:50:48Z</time>
      </trkpt>
      <trkpt lat="43.15562" lon="1.03085">
        <ele>508.4</ele>
        <time>2024-08-12T08:50:49Z</time>
      </trkpt>
      <trkpt lat="43.15561" lon="1.0309">
        <ele>507.6</ele>
        <time>2024-08-12T08:50:50Z</time>
      </trkpt>
      <trkpt lat="43.15561" lon="1.03096">
        <ele>506.8</ele>
        <time>2024-08-12T08:50:51Z</time>
      </trkpt>
      <trkpt lat="43.15562" lon="1.031">
        <ele>505.4</ele>
        <time>2024-08-12T08:50:52Z</time>
      </trkpt>
      <trkpt lat="43.15564" lon="1.03107">
        <ele>504.8</ele>
        <time>2024-08-12T08:50:53Z</time>
      </trkpt>
      <trkpt lat="43.15565" lon="1.03112">
        <ele>504.2</ele>
        <time>2024-08-12T08:50:54Z</time>
      </trkpt>
      <trkpt lat="43.15564" lon="1.0312">
        <ele>503.4</ele>
        <time>2024-08-12T08:50:55Z</time>
      </trkpt>
      <trkpt lat="43.15562" lon="1.03121">
        <ele>503</ele>
        <time>2024-08-12T08:50:56Z</time>
      </trkpt>
      <trkpt lat="43.15561" lon="1.03122">
        <ele>502.6</ele>
        <time>2024-08-12T08:50:57Z</time>
      </trkpt>
      <trkpt lat="43.15558" lon="1.03122">
        <ele>502.2</ele>
        <time>2024-08-12T08:50:58Z</time>
      </trkpt>
      <trkpt lat="43.15556" lon="1.03121">
        <ele>501.6</ele>
        <time>2024-08-12T08:50:59Z</time>
      </trkpt>
      <trkpt lat="43.15553" lon="1.03116">
        <ele>501</ele>
        <time>2024-08-12T08:51:00Z</time>
      </trkpt>
      <trkpt lat="43.15551" lon="1.03112">
        <ele>500.4</ele>
        <time>2024-08-12T08:51:01Z</time>
      </trkpt>
      <trkpt lat="43.15549" lon="1.0311">
        <ele>500</ele>
        <time>2024-08-12T08:51:02Z</time>
      </trkpt>
      <trkpt lat="43.15547" lon="1.03109">
        <ele>499.4</ele>
        <time>2024-08-12T08:51:03Z</time>
      </trkpt>
      <trkpt lat="43.15545" lon="1.03108">
        <ele>498.8</ele>
        <time>2024-08-12T08:51:04Z</time>
      </trkpt>
      <trkpt lat="43.15541" lon="1.03107">
        <ele>498.8</ele>
        <time>2024-08-12T08:51:05Z</time>
      </trkpt>
      <trkpt lat="43.15525" lon="1.03105">
        <ele>498.8</ele>
        <time>2024-08-12T08:51:10Z</time>
      </trkpt>
      <trkpt lat="43.15514" lon="1.03109">
        <ele>498.8</ele>
        <time>2024-08-12T08:51:15Z</time>
      </trkpt>
      <trkpt lat="43.15494" lon="1.03111">
        <ele>498.8</ele>
        <time>2024-08-12T08:51:22Z</time>
      </trkpt>
      <trkpt lat="43.15472" lon="1.03115">
        <ele>498.8</ele>
        <time>2024-08-12T08:51:30Z</time>
      </trkpt>
      <trkpt lat="43.15462" lon="1.03117">
        <ele>499.2</ele>
        <time>2024-08-12T08:51:34Z</time>
      </trkpt>
      <trkpt lat="43.1546" lon="1.03117">
        <ele>499.6</ele>
        <time>2024-08-12T08:51:35Z</time>
      </trkpt>
      <trkpt lat="43.15457" lon="1.03118">
        <ele>500</ele>
        <time>2024-08-12T08:51:36Z</time>
      </trkpt>
      <trkpt lat="43.15455" lon="1.03118">
        <ele>500.4</ele>
        <time>2024-08-12T08:51:37Z</time>
      </trkpt>
      <trkpt lat="43.15452" lon="1.03118">
        <ele>501</ele>
        <time>2024-08-12T08:51:38Z</time>
      </trkpt>
      <trkpt lat="43.1544" lon="1.03118">
        <ele>501</ele>
        <time>2024-08-12T08:51:42Z</time>
      </trkpt>
      <trkpt lat="43.15432" lon="1.03117">
        <ele>501.4</ele>
        <time>2024-08-12T08:51:45Z</time>
      </trkpt>
      <trkpt lat="43.15429" lon="1.03116">
        <ele>501.8</ele>
        <time>2024-08-12T08:51:46Z</time>
      </trkpt>
      <trkpt lat="43.15427" lon="1.03116">
        <ele>502.2</ele>
        <time>2024-08-12T08:51:47Z</time>
      </trkpt>
      <trkpt lat="43.15424" lon="1.03115">
        <ele>502.6</ele>
        <time>2024-08-12T08:51:48Z</time>
      </trkpt>
      <trkpt lat="43.15422" lon="1.03114">
        <ele>503.2</ele>
        <time>2024-08-12T08:51:49Z</time>
      </trkpt>
      <trkpt lat="43.15419" lon="1.03114">
        <ele>503.2</ele>
        <time>2024-08-12T08:51:50Z</time>
      </trkpt>
      <trkpt lat="43.15409" lon="1.03118">
        <ele>503.6</ele>
        <time>2024-08-12T08:51:54Z</time>
      </trkpt>
      <trkpt lat="43.15407" lon="1.0312">
        <ele>504</ele>
        <time>2024-08-12T08:51:55Z</time>
      </trkpt>
      <trkpt lat="43.15404" lon="1.03121">
        <ele>504.4</ele>
        <time>2024-08-12T08:51:56Z</time>
      </trkpt>
      <trkpt lat="43.15403" lon="1.03123">
        <ele>504.8</ele>
        <time>2024-08-12T08:51:57Z</time>
      </trkpt>
      <trkpt lat="43.154" lon="1.03124">
        <ele>505.2</ele>
        <time>2024-08-12T08:51:58Z</time>
      </trkpt>
      <trkpt lat="43.15396" lon="1.03125">
        <ele>505.2</ele>
        <time>2024-08-12T08:52:00Z</time>
      </trkpt>
      <trkpt lat="43.15394" lon="1.03126">
        <ele>505.2</ele>
        <time>2024-08-12T08:52:01Z</time>
      </trkpt>
      <trkpt lat="43.15386" lon="1.03135">
        <ele>505.2</ele>
        <time>2024-08-12T08:52:05Z</time>
      </trkpt>
      <trkpt lat="43.15378" lon="1.03146">
        <ele>505.2</ele>
        <time>2024-08-12T08:52:10Z</time>
      </trkpt>
      <trkpt lat="43.15374" lon="1.03152">
        <ele>505.6</ele>
        <time>2024-08-12T08:52:12Z</time>
      </trkpt>
      <trkpt lat="43.15373" lon="1.03155">
        <ele>506</ele>
        <time>2024-08-12T08:52:13Z</time>
      </trkpt>
      <trkpt lat="43.15371" lon="1.03156">
        <ele>506.6</ele>
        <time>2024-08-12T08:52:14Z</time>
      </trkpt>
      <trkpt lat="43.15371" lon="1.03158">
        <ele>507</ele>
        <time>2024-08-12T08:52:15Z</time>
      </trkpt>
      <trkpt lat="43.1537" lon="1.03159">
        <ele>507.4</ele>
        <time>2024-08-12T08:52:16Z</time>
      </trkpt>
      <trkpt lat="43.15366" lon="1.0317">
        <ele>507.4</ele>
        <time>2024-08-12T08:52:23Z</time>
      </trkpt>
      <trkpt lat="43.15366" lon="1.03173">
        <ele>507.8</ele>
        <time>2024-08-12T08:52:24Z</time>
      </trkpt>
      <trkpt lat="43.15366" lon="1.03175">
        <ele>508.2</ele>
        <time>2024-08-12T08:52:25Z</time>
      </trkpt>
      <trkpt lat="43.15365" lon="1.03178">
        <ele>508.6</ele>
        <time>2024-08-12T08:52:26Z</time>
      </trkpt>
      <trkpt lat="43.15365" lon="1.03181">
        <ele>509</ele>
        <time>2024-08-12T08:52:27Z</time>
      </trkpt>
      <trkpt lat="43.15365" lon="1.03183">
        <ele>509.4</ele>
        <time>2024-08-12T08:52:28Z</time>
      </trkpt>
      <trkpt lat="43.15365" lon="1.03185">
        <ele>509.4</ele>
        <time>2024-08-12T08:52:29Z</time>
      </trkpt>
      <trkpt lat="43.15364" lon="1.03187">
        <ele>509.4</ele>
        <time>2024-08-12T08:52:30Z</time>
      </trkpt>
      <trkpt lat="43.15361" lon="1.03195">
        <ele>509.4</ele>
        <time>2024-08-12T08:52:35Z</time>
      </trkpt>
      <trkpt lat="43.1536" lon="1.03196">
        <ele>509.4</ele>
        <time>2024-08-12T08:52:36Z</time>
      </trkpt>
      <trkpt lat="43.15358" lon="1.03204">
        <ele>509.8</ele>
        <time>2024-08-12T08:52:40Z</time>
      </trkpt>
      <trkpt lat="43.15358" lon="1.03206">
        <ele>510.2</ele>
        <time>2024-08-12T08:52:41Z</time>
      </trkpt>
      <trkpt lat="43.15357" lon="1.03208">
        <ele>510.6</ele>
        <time>2024-08-12T08:52:42Z</time>
      </trkpt>
      <trkpt lat="43.15357" lon="1.03211">
        <ele>511</ele>
        <time>2024-08-12T08:52:43Z</time>
      </trkpt>
      <trkpt lat="43.15356" lon="1.03214">
        <ele>511.4</ele>
        <time>2024-08-12T08:52:44Z</time>
      </trkpt>
      <trkpt lat="43.15351" lon="1.03221">
        <ele>511.4</ele>
        <time>2024-08-12T08:52:47Z</time>
      </trkpt>
      <trkpt lat="43.15346" lon="1.03229">
        <ele>512</ele>
        <time>2024-08-12T08:52:50Z</time>
      </trkpt>
      <trkpt lat="43.15344" lon="1.03231">
        <ele>512.4</ele>
        <time>2024-08-12T08:52:51Z</time>
      </trkpt>
      <trkpt lat="43.15343" lon="1.03233">
        <ele>512.8</ele>
        <time>2024-08-12T08:52:52Z</time>
      </trkpt>
      <trkpt lat="43.15341" lon="1.03235">
        <ele>513.2</ele>
        <time>2024-08-12T08:52:53Z</time>
      </trkpt>
      <trkpt lat="43.15339" lon="1.03237">
        <ele>513.6</ele>
        <time>2024-08-12T08:52:54Z</time>
      </trkpt>
      <trkpt lat="43.15332" lon="1.03253">
        <ele>513.6</ele>
        <time>2024-08-12T08:53:00Z</time>
      </trkpt>
      <trkpt lat="43.15331" lon="1.03255">
        <ele>513.6</ele>
        <time>2024-08-12T08:53:02Z</time>
      </trkpt>
      <trkpt lat="43.1533" lon="1.03261">
        <ele>513.6</ele>
        <time>2024-08-12T08:53:05Z</time>
      </trkpt>
      <trkpt lat="43.15329" lon="1.03264">
        <ele>514</ele>
        <time>2024-08-12T08:53:07Z</time>
      </trkpt>
      <trkpt lat="43.15328" lon="1.03267">
        <ele>514.4</ele>
        <time>2024-08-12T08:53:08Z</time>
      </trkpt>
      <trkpt lat="43.15327" lon="1.03269">
        <ele>514.8</ele>
        <time>2024-08-12T08:53:09Z</time>
      </trkpt>
      <trkpt lat="43.15327" lon="1.03271">
        <ele>515.2</ele>
        <time>2024-08-12T08:53:10Z</time>
      </trkpt>
      <trkpt lat="43.15326" lon="1.03273">
        <ele>515.8</ele>
        <time>2024-08-12T08:53:11Z</time>
      </trkpt>
      <trkpt lat="43.1532" lon="1.03294">
        <ele>515.8</ele>
        <time>2024-08-12T08:53:19Z</time>
      </trkpt>
      <trkpt lat="43.15317" lon="1.03309">
        <ele>516.2</ele>
        <time>2024-08-12T08:53:24Z</time>
      </trkpt>
      <trkpt lat="43.15317" lon="1.03312">
        <ele>516.6</ele>
        <time>2024-08-12T08:53:25Z</time>
      </trkpt>
      <trkpt lat="43.15316" lon="1.03314">
        <ele>517</ele>
        <time>2024-08-12T08:53:26Z</time>
      </trkpt>
      <trkpt lat="43.15316" lon="1.03316">
        <ele>517.4</ele>
        <time>2024-08-12T08:53:27Z</time>
      </trkpt>
      <trkpt lat="43.15315" lon="1.03319">
        <ele>517.8</ele>
        <time>2024-08-12T08:53:28Z</time>
      </trkpt>
      <trkpt lat="43.15314" lon="1.03328">
        <ele>517.8</ele>
        <time>2024-08-12T08:53:31Z</time>
      </trkpt>
      <trkpt lat="43.15313" lon="1.03331">
        <ele>518.2</ele>
        <time>2024-08-12T08:53:32Z</time>
      </trkpt>
      <trkpt lat="43.15313" lon="1.03333">
        <ele>518.6</ele>
        <time>2024-08-12T08:53:33Z</time>
      </trkpt>
      <trkpt lat="43.15312" lon="1.03336">
        <ele>519.2</ele>
        <time>2024-08-12T08:53:34Z</time>
      </trkpt>
      <trkpt lat="43.15311" lon="1.03338">
        <ele>519.6</ele>
        <time>2024-08-12T08:53:35Z</time>
      </trkpt>
      <trkpt lat="43.1531" lon="1.03341">
        <ele>520</ele>
        <time>2024-08-12T08:53:36Z</time>
      </trkpt>
      <trkpt lat="43.15306" lon="1.03345">
        <ele>520.4</ele>
        <time>2024-08-12T08:53:39Z</time>
      </trkpt>
      <trkpt lat="43.15305" lon="1.03346">
        <ele>520.8</ele>
        <time>2024-08-12T08:53:40Z</time>
      </trkpt>
      <trkpt lat="43.15304" lon="1.03347">
        <ele>521.4</ele>
        <time>2024-08-12T08:53:41Z</time>
      </trkpt>
      <trkpt lat="43.15304" lon="1.03347">
        <ele>521.8</ele>
        <time>2024-08-12T08:53:42Z</time>
      </trkpt>
      <trkpt lat="43.15303" lon="1.03348">
        <ele>522.2</ele>
        <time>2024-08-12T08:53:43Z</time>
      </trkpt>
      <trkpt lat="43.15302" lon="1.03349">
        <ele>522.2</ele>
        <time>2024-08-12T08:53:45Z</time>
      </trkpt>
      <trkpt lat="43.15302" lon="1.03349">
        <ele>522.2</ele>
        <time>2024-08-12T08:54:23Z</time>
      </trkpt>
      <trkpt lat="43.153" lon="1.0335">
        <ele>522.2</ele>
        <time>2024-08-12T08:54:24Z</time>
      </trkpt>
      <trkpt lat="43.15289" lon="1.03359">
        <ele>522.2</ele>
        <time>2024-08-12T08:54:29Z</time>
      </trkpt>
      <trkpt lat="43.15275" lon="1.03369">
        <ele>522.6</ele>
        <time>2024-08-12T08:54:35Z</time>
      </trkpt>
      <trkpt lat="43.15272" lon="1.03372">
        <ele>523</ele>
        <time>2024-08-12T08:54:36Z</time>
      </trkpt>
      <trkpt lat="43.1527" lon="1.03374">
        <ele>523.4</ele>
        <time>2024-08-12T08:54:37Z</time>
      </trkpt>
      <trkpt lat="43.15267" lon="1.03376">
        <ele>523.8</ele>
        <time>2024-08-12T08:54:38Z</time>
      </trkpt>
      <trkpt lat="43.15265" lon="1.03378">
        <ele>524.2</ele>
        <time>2024-08-12T08:54:39Z</time>
      </trkpt>
      <trkpt lat="43.1526" lon="1.03383">
        <ele>524.2</ele>
        <time>2024-08-12T08:54:41Z</time>
      </trkpt>
      <trkpt lat="43.15246" lon="1.03406">
        <ele>524.2</ele>
        <time>2024-08-12T08:54:48Z</time>
      </trkpt>
      <trkpt lat="43.15238" lon="1.0342">
        <ele>524.2</ele>
        <time>2024-08-12T08:54:52Z</time>
      </trkpt>
      <trkpt lat="43.15224" lon="1.03441">
        <ele>524.2</ele>
        <time>2024-08-12T08:54:58Z</time>
      </trkpt>
      <trkpt lat="43.15207" lon="1.03465">
        <ele>524.2</ele>
        <time>2024-08-12T08:55:03Z</time>
      </trkpt>
      <trkpt lat="43.15187" lon="1.0349">
        <ele>524.2</ele>
        <time>2024-08-12T08:55:09Z</time>
      </trkpt>
      <trkpt lat="43.15172" lon="1.035">
        <ele>524.2</ele>
        <time>2024-08-12T08:55:14Z</time>
      </trkpt>
      <trkpt lat="43.15163" lon="1.03502">
        <ele>524.2</ele>
        <time>2024-08-12T08:55:18Z</time>
      </trkpt>
      <trkpt lat="43.15163" lon="1.03492">
        <ele>523.8</ele>
        <time>2024-08-12T08:55:20Z</time>
      </trkpt>
      <trkpt lat="43.15163" lon="1.03485">
        <ele>523.4</ele>
        <time>2024-08-12T08:55:21Z</time>
      </trkpt>
      <trkpt lat="43.15163" lon="1.03477">
        <ele>523</ele>
        <time>2024-08-12T08:55:22Z</time>
      </trkpt>
      <trkpt lat="43.15164" lon="1.03468">
        <ele>522.4</ele>
        <time>2024-08-12T08:55:23Z</time>
      </trkpt>
      <trkpt lat="43.15164" lon="1.03459">
        <ele>520.8</ele>
        <time>2024-08-12T08:55:24Z</time>
      </trkpt>
      <trkpt lat="43.15164" lon="1.03448">
        <ele>519.8</ele>
        <time>2024-08-12T08:55:25Z</time>
      </trkpt>
      <trkpt lat="43.15164" lon="1.03437">
        <ele>518.8</ele>
        <time>2024-08-12T08:55:26Z</time>
      </trkpt>
      <trkpt lat="43.15164" lon="1.03426">
        <ele>518</ele>
        <time>2024-08-12T08:55:27Z</time>
      </trkpt>
      <trkpt lat="43.15164" lon="1.03415">
        <ele>516.8</ele>
        <time>2024-08-12T08:55:28Z</time>
      </trkpt>
      <trkpt lat="43.15163" lon="1.03403">
        <ele>515.8</ele>
        <time>2024-08-12T08:55:29Z</time>
      </trkpt>
      <trkpt lat="43.15162" lon="1.03394">
        <ele>514.4</ele>
        <time>2024-08-12T08:55:30Z</time>
      </trkpt>
      <trkpt lat="43.15161" lon="1.03385">
        <ele>513.2</ele>
        <time>2024-08-12T08:55:31Z</time>
      </trkpt>
      <trkpt lat="43.1516" lon="1.03376">
        <ele>511.8</ele>
        <time>2024-08-12T08:55:32Z</time>
      </trkpt>
      <trkpt lat="43.15159" lon="1.03367">
        <ele>510.6</ele>
        <time>2024-08-12T08:55:33Z</time>
      </trkpt>
      <trkpt lat="43.15158" lon="1.03358">
        <ele>509.2</ele>
        <time>2024-08-12T08:55:34Z</time>
      </trkpt>
      <trkpt lat="43.15157" lon="1.03347">
        <ele>508</ele>
        <time>2024-08-12T08:55:35Z</time>
      </trkpt>
      <trkpt lat="43.15156" lon="1.03337">
        <ele>506.6</ele>
        <time>2024-08-12T08:55:36Z</time>
      </trkpt>
      <trkpt lat="43.15155" lon="1.03326">
        <ele>505.2</ele>
        <time>2024-08-12T08:55:37Z</time>
      </trkpt>
      <trkpt lat="43.15155" lon="1.03316">
        <ele>503.8</ele>
        <time>2024-08-12T08:55:38Z</time>
      </trkpt>
      <trkpt lat="43.15154" lon="1.03305">
        <ele>502.4</ele>
        <time>2024-08-12T08:55:39Z</time>
      </trkpt>
      <trkpt lat="43.15154" lon="1.03295">
        <ele>501.2</ele>
        <time>2024-08-12T08:55:40Z</time>
      </trkpt>
      <trkpt lat="43.15154" lon="1.03284">
        <ele>500</ele>
        <time>2024-08-12T08:55:41Z</time>
      </trkpt>
      <trkpt lat="43.15154" lon="1.03275">
        <ele>498.6</ele>
        <time>2024-08-12T08:55:42Z</time>
      </trkpt>
      <trkpt lat="43.15154" lon="1.03266">
        <ele>497.4</ele>
        <time>2024-08-12T08:55:43Z</time>
      </trkpt>
      <trkpt lat="43.15154" lon="1.03257">
        <ele>496.2</ele>
        <time>2024-08-12T08:55:44Z</time>
      </trkpt>
      <trkpt lat="43.15154" lon="1.03248">
        <ele>494.8</ele>
        <time>2024-08-12T08:55:45Z</time>
      </trkpt>
      <trkpt lat="43.15155" lon="1.0324">
        <ele>493.6</ele>
        <time>2024-08-12T08:55:46Z</time>
      </trkpt>
      <trkpt lat="43.15157" lon="1.0323">
        <ele>492.4</ele>
        <time>2024-08-12T08:55:47Z</time>
      </trkpt>
      <trkpt lat="43.1516" lon="1.0322">
        <ele>490.2</ele>
        <time>2024-08-12T08:55:48Z</time>
      </trkpt>
      <trkpt lat="43.15163" lon="1.03209">
        <ele>489.2</ele>
        <time>2024-08-12T08:55:49Z</time>
      </trkpt>
      <trkpt lat="43.15166" lon="1.03199">
        <ele>488.2</ele>
        <time>2024-08-12T08:55:50Z</time>
      </trkpt>
      <trkpt lat="43.15169" lon="1.03187">
        <ele>487.2</ele>
        <time>2024-08-12T08:55:51Z</time>
      </trkpt>
      <trkpt lat="43.15171" lon="1.03176">
        <ele>486.6</ele>
        <time>2024-08-12T08:55:52Z</time>
      </trkpt>
      <trkpt lat="43.15174" lon="1.03165">
        <ele>485.8</ele>
        <time>2024-08-12T08:55:53Z</time>
      </trkpt>
      <trkpt lat="43.15176" lon="1.03154">
        <ele>485.2</ele>
        <time>2024-08-12T08:55:54Z</time>
      </trkpt>
      <trkpt lat="43.15178" lon="1.03142">
        <ele>484.4</ele>
        <time>2024-08-12T08:55:55Z</time>
      </trkpt>
      <trkpt lat="43.1518" lon="1.03131">
        <ele>484</ele>
        <time>2024-08-12T08:55:56Z</time>
      </trkpt>
      <trkpt lat="43.15181" lon="1.0312">
        <ele>483.4</ele>
        <time>2024-08-12T08:55:57Z</time>
      </trkpt>
      <trkpt lat="43.15183" lon="1.0311">
        <ele>482.8</ele>
        <time>2024-08-12T08:55:58Z</time>
      </trkpt>
      <trkpt lat="43.15185" lon="1.031">
        <ele>482.2</ele>
        <time>2024-08-12T08:55:59Z</time>
      </trkpt>
      <trkpt lat="43.15188" lon="1.03088">
        <ele>481.8</ele>
        <time>2024-08-12T08:56:00Z</time>
      </trkpt>
      <trkpt lat="43.1519" lon="1.03077">
        <ele>481.4</ele>
        <time>2024-08-12T08:56:01Z</time>
      </trkpt>
      <trkpt lat="43.15191" lon="1.03066">
        <ele>480.8</ele>
        <time>2024-08-12T08:56:02Z</time>
      </trkpt>
      <trkpt lat="43.15193" lon="1.03055">
        <ele>480.4</ele>
        <time>2024-08-12T08:56:03Z</time>
      </trkpt>
      <trkpt lat="43.15194" lon="1.03044">
        <ele>480</ele>
        <time>2024-08-12T08:56:04Z</time>
      </trkpt>
      <trkpt lat="43.15195" lon="1.03033">
        <ele>479.6</ele>
        <time>2024-08-12T08:56:05Z</time>
      </trkpt>
      <trkpt lat="43.15196" lon="1.03022">
        <ele>479.2</ele>
        <time>2024-08-12T08:56:06Z</time>
      </trkpt>
      <trkpt lat="43.15198" lon="1.0301">
        <ele>478.6</ele>
        <time>2024-08-12T08:56:07Z</time>
      </trkpt>
      <trkpt lat="43.15199" lon="1.02999">
        <ele>478.2</ele>
        <time>2024-08-12T08:56:08Z</time>
      </trkpt>
      <trkpt lat="43.152" lon="1.02988">
        <ele>477.6</ele>
        <time>2024-08-12T08:56:09Z</time>
      </trkpt>
      <trkpt lat="43.152" lon="1.02977">
        <ele>477.2</ele>
        <time>2024-08-12T08:56:10Z</time>
      </trkpt>
      <trkpt lat="43.15201" lon="1.02966">
        <ele>476.6</ele>
        <time>2024-08-12T08:56:11Z</time>
      </trkpt>
      <trkpt lat="43.15202" lon="1.02955">
        <ele>476</ele>
        <time>2024-08-12T08:56:12Z</time>
      </trkpt>
      <trkpt lat="43.15202" lon="1.02945">
        <ele>474.8</ele>
        <time>2024-08-12T08:56:13Z</time>
      </trkpt>
      <trkpt lat="43.15203" lon="1.02936">
        <ele>474.4</ele>
        <time>2024-08-12T08:56:14Z</time>
      </trkpt>
      <trkpt lat="43.15204" lon="1.02927">
        <ele>474</ele>
        <time>2024-08-12T08:56:15Z</time>
      </trkpt>
      <trkpt lat="43.15205" lon="1.02918">
        <ele>473.6</ele>
        <time>2024-08-12T08:56:16Z</time>
      </trkpt>
      <trkpt lat="43.15206" lon="1.02911">
        <ele>473</ele>
        <time>2024-08-12T08:56:17Z</time>
      </trkpt>
      <trkpt lat="43.15207" lon="1.02906">
        <ele>472.6</ele>
        <time>2024-08-12T08:56:18Z</time>
      </trkpt>
      <trkpt lat="43.15206" lon="1.02902">
        <ele>472.6</ele>
        <time>2024-08-12T08:56:19Z</time>
      </trkpt>
      <trkpt lat="43.15205" lon="1.029">
        <ele>472.2</ele>
        <time>2024-08-12T08:56:20Z</time>
      </trkpt>
      <trkpt lat="43.15204" lon="1.02899">
        <ele>471.8</ele>
        <time>2024-08-12T08:56:21Z</time>
      </trkpt>
      <trkpt lat="43.15202" lon="1.02898">
        <ele>471.4</ele>
        <time>2024-08-12T08:56:22Z</time>
      </trkpt>
      <trkpt lat="43.152" lon="1.02898">
        <ele>471</ele>
        <time>2024-08-12T08:56:23Z</time>
      </trkpt>
      <trkpt lat="43.15199" lon="1.02897">
        <ele>470.4</ele>
        <time>2024-08-12T08:56:24Z</time>
      </trkpt>
      <trkpt lat="43.15197" lon="1.02897">
        <ele>470.4</ele>
        <time>2024-08-12T08:56:25Z</time>
      </trkpt>
      <trkpt lat="43.15195" lon="1.02896">
        <ele>470</ele>
        <time>2024-08-12T08:56:26Z</time>
      </trkpt>
      <trkpt lat="43.15192" lon="1.02895">
        <ele>469.6</ele>
        <time>2024-08-12T08:56:27Z</time>
      </trkpt>
      <trkpt lat="43.15189" lon="1.02894">
        <ele>469</ele>
        <time>2024-08-12T08:56:28Z</time>
      </trkpt>
      <trkpt lat="43.15185" lon="1.02892">
        <ele>468.6</ele>
        <time>2024-08-12T08:56:29Z</time>
      </trkpt>
      <trkpt lat="43.1518" lon="1.02889">
        <ele>468</ele>
        <time>2024-08-12T08:56:30Z</time>
      </trkpt>
      <trkpt lat="43.15175" lon="1.02885">
        <ele>467.4</ele>
        <time>2024-08-12T08:56:31Z</time>
      </trkpt>
      <trkpt lat="43.1517" lon="1.02882">
        <ele>467</ele>
        <time>2024-08-12T08:56:32Z</time>
      </trkpt>
      <trkpt lat="43.15164" lon="1.02879">
        <ele>466.2</ele>
        <time>2024-08-12T08:56:33Z</time>
      </trkpt>
      <trkpt lat="43.1516" lon="1.02875">
        <ele>465.2</ele>
        <time>2024-08-12T08:56:34Z</time>
      </trkpt>
      <trkpt lat="43.15156" lon="1.0287">
        <ele>464.4</ele>
        <time>2024-08-12T08:56:35Z</time>
      </trkpt>
      <trkpt lat="43.15152" lon="1.02864">
        <ele>463.4</ele>
        <time>2024-08-12T08:56:36Z</time>
      </trkpt>
      <trkpt lat="43.15148" lon="1.0286">
        <ele>462.6</ele>
        <time>2024-08-12T08:56:37Z</time>
      </trkpt>
      <trkpt lat="43.15143" lon="1.02856">
        <ele>460.8</ele>
        <time>2024-08-12T08:56:38Z</time>
      </trkpt>
      <trkpt lat="43.15137" lon="1.02853">
        <ele>459.8</ele>
        <time>2024-08-12T08:56:39Z</time>
      </trkpt>
      <trkpt lat="43.15131" lon="1.02851">
        <ele>458.8</ele>
        <time>2024-08-12T08:56:40Z</time>
      </trkpt>
      <trkpt lat="43.15124" lon="1.0285">
        <ele>457.8</ele>
        <time>2024-08-12T08:56:41Z</time>
      </trkpt>
      <trkpt lat="43.15118" lon="1.02849">
        <ele>456.8</ele>
        <time>2024-08-12T08:56:42Z</time>
      </trkpt>
      <trkpt lat="43.15112" lon="1.02848">
        <ele>455.8</ele>
        <time>2024-08-12T08:56:43Z</time>
      </trkpt>
      <trkpt lat="43.15107" lon="1.02844">
        <ele>454.8</ele>
        <time>2024-08-12T08:56:44Z</time>
      </trkpt>
      <trkpt lat="43.15102" lon="1.02839">
        <ele>453.8</ele>
        <time>2024-08-12T08:56:45Z</time>
      </trkpt>
      <trkpt lat="43.15097" lon="1.02832">
        <ele>452.8</ele>
        <time>2024-08-12T08:56:46Z</time>
      </trkpt>
      <trkpt lat="43.15093" lon="1.02823">
        <ele>452</ele>
        <time>2024-08-12T08:56:47Z</time>
      </trkpt>
      <trkpt lat="43.1509" lon="1.02813">
        <ele>451.2</ele>
        <time>2024-08-12T08:56:48Z</time>
      </trkpt>
      <trkpt lat="43.15087" lon="1.02802">
        <ele>450.2</ele>
        <time>2024-08-12T08:56:49Z</time>
      </trkpt>
      <trkpt lat="43.15083" lon="1.02791">
        <ele>449.4</ele>
        <time>2024-08-12T08:56:50Z</time>
      </trkpt>
      <trkpt lat="43.15079" lon="1.0278">
        <ele>448.6</ele>
        <time>2024-08-12T08:56:51Z</time>
      </trkpt>
      <trkpt lat="43.15074" lon="1.02769">
        <ele>447.8</ele>
        <time>2024-08-12T08:56:52Z</time>
      </trkpt>
      <trkpt lat="43.15068" lon="1.02757">
        <ele>447</ele>
        <time>2024-08-12T08:56:53Z</time>
      </trkpt>
      <trkpt lat="43.15062" lon="1.02746">
        <ele>446</ele>
        <time>2024-08-12T08:56:54Z</time>
      </trkpt>
      <trkpt lat="43.15056" lon="1.02735">
        <ele>445</ele>
        <time>2024-08-12T08:56:55Z</time>
      </trkpt>
      <trkpt lat="43.15048" lon="1.02724">
        <ele>443.8</ele>
        <time>2024-08-12T08:56:56Z</time>
      </trkpt>
      <trkpt lat="43.15042" lon="1.02714">
        <ele>442.8</ele>
        <time>2024-08-12T08:56:57Z</time>
      </trkpt>
      <trkpt lat="43.15035" lon="1.02703">
        <ele>441.4</ele>
        <time>2024-08-12T08:56:58Z</time>
      </trkpt>
      <trkpt lat="43.15028" lon="1.02693">
        <ele>440.2</ele>
        <time>2024-08-12T08:56:59Z</time>
      </trkpt>
      <trkpt lat="43.15022" lon="1.02683">
        <ele>439</ele>
        <time>2024-08-12T08:57:00Z</time>
      </trkpt>
      <trkpt lat="43.15015" lon="1.02673">
        <ele>438</ele>
        <time>2024-08-12T08:57:01Z</time>
      </trkpt>
      <trkpt lat="43.15009" lon="1.02663">
        <ele>436.2</ele>
        <time>2024-08-12T08:57:02Z</time>
      </trkpt>
      <trkpt lat="43.15003" lon="1.02653">
        <ele>435.2</ele>
        <time>2024-08-12T08:57:03Z</time>
      </trkpt>
      <trkpt lat="43.14997" lon="1.02642">
        <ele>434.2</ele>
        <time>2024-08-12T08:57:04Z</time>
      </trkpt>
      <trkpt lat="43.14992" lon="1.02631">
        <ele>433.8</ele>
        <time>2024-08-12T08:57:05Z</time>
      </trkpt>
      <trkpt lat="43.14987" lon="1.02621">
        <ele>433.4</ele>
        <time>2024-08-12T08:57:06Z</time>
      </trkpt>
      <trkpt lat="43.14982" lon="1.0261">
        <ele>432.8</ele>
        <time>2024-08-12T08:57:07Z</time>
      </trkpt>
      <trkpt lat="43.14977" lon="1.026">
        <ele>432.4</ele>
        <time>2024-08-12T08:57:08Z</time>
      </trkpt>
      <trkpt lat="43.14972" lon="1.02591">
        <ele>431.8</ele>
        <time>2024-08-12T08:57:09Z</time>
      </trkpt>
      <trkpt lat="43.14966" lon="1.02581">
        <ele>431.4</ele>
        <time>2024-08-12T08:57:10Z</time>
      </trkpt>
      <trkpt lat="43.1496" lon="1.02572">
        <ele>430.8</ele>
        <time>2024-08-12T08:57:11Z</time>
      </trkpt>
      <trkpt lat="43.14953" lon="1.02562">
        <ele>430</ele>
        <time>2024-08-12T08:57:12Z</time>
      </trkpt>
      <trkpt lat="43.14946" lon="1.02552">
        <ele>429.4</ele>
        <time>2024-08-12T08:57:13Z</time>
      </trkpt>
      <trkpt lat="43.1494" lon="1.02545">
        <ele>428.4</ele>
        <time>2024-08-12T08:57:14Z</time>
      </trkpt>
      <trkpt lat="43.14936" lon="1.0254">
        <ele>427.6</ele>
        <time>2024-08-12T08:57:15Z</time>
      </trkpt>
      <trkpt lat="43.14932" lon="1.02537">
        <ele>426.6</ele>
        <time>2024-08-12T08:57:16Z</time>
      </trkpt>
      <trkpt lat="43.14928" lon="1.02537">
        <ele>425.8</ele>
        <time>2024-08-12T08:57:17Z</time>
      </trkpt>
      <trkpt lat="43.14924" lon="1.02539">
        <ele>425</ele>
        <time>2024-08-12T08:57:18Z</time>
      </trkpt>
      <trkpt lat="43.14922" lon="1.02543">
        <ele>424.2</ele>
        <time>2024-08-12T08:57:19Z</time>
      </trkpt>
      <trkpt lat="43.14921" lon="1.02548">
        <ele>423.4</ele>
        <time>2024-08-12T08:57:20Z</time>
      </trkpt>
      <trkpt lat="43.1492" lon="1.02553">
        <ele>422.6</ele>
        <time>2024-08-12T08:57:21Z</time>
      </trkpt>
      <trkpt lat="43.14919" lon="1.02557">
        <ele>422.6</ele>
        <time>2024-08-12T08:57:22Z</time>
      </trkpt>
      <trkpt lat="43.14917" lon="1.02572">
        <ele>422.6</ele>
        <time>2024-08-12T08:57:26Z</time>
      </trkpt>
      <trkpt lat="43.14913" lon="1.02598">
        <ele>422.6</ele>
        <time>2024-08-12T08:57:33Z</time>
      </trkpt>
      <trkpt lat="43.14908" lon="1.0262">
        <ele>422.6</ele>
        <time>2024-08-12T08:57:39Z</time>
      </trkpt>
      <trkpt lat="43.14908" lon="1.02624">
        <ele>423</ele>
        <time>2024-08-12T08:57:40Z</time>
      </trkpt>
      <trkpt lat="43.14907" lon="1.02627">
        <ele>423.4</ele>
        <time>2024-08-12T08:57:41Z</time>
      </trkpt>
      <trkpt lat="43.14906" lon="1.02631">
        <ele>423.8</ele>
        <time>2024-08-12T08:57:42Z</time>
      </trkpt>
      <trkpt lat="43.14904" lon="1.02634">
        <ele>424.2</ele>
        <time>2024-08-12T08:57:43Z</time>
      </trkpt>
      <trkpt lat="43.14903" lon="1.02638">
        <ele>424.6</ele>
        <time>2024-08-12T08:57:44Z</time>
      </trkpt>
      <trkpt lat="43.14902" lon="1.02642">
        <ele>424.6</ele>
        <time>2024-08-12T08:57:45Z</time>
      </trkpt>
      <trkpt lat="43.14897" lon="1.02667">
        <ele>424.6</ele>
        <time>2024-08-12T08:57:49Z</time>
      </trkpt>
      <trkpt lat="43.14896" lon="1.02676">
        <ele>424.2</ele>
        <time>2024-08-12T08:57:50Z</time>
      </trkpt>
      <trkpt lat="43.14895" lon="1.02686">
        <ele>423.2</ele>
        <time>2024-08-12T08:57:51Z</time>
      </trkpt>
      <trkpt lat="43.14895" lon="1.02698">
        <ele>422.4</ele>
        <time>2024-08-12T08:57:52Z</time>
      </trkpt>
      <trkpt lat="43.14896" lon="1.02709">
        <ele>421.6</ele>
        <time>2024-08-12T08:57:53Z</time>
      </trkpt>
      <trkpt lat="43.14896" lon="1.0272">
        <ele>420.4</ele>
        <time>2024-08-12T08:57:54Z</time>
      </trkpt>
      <trkpt lat="43.14896" lon="1.0273">
        <ele>419.4</ele>
        <time>2024-08-12T08:57:55Z</time>
      </trkpt>
      <trkpt lat="43.14895" lon="1.02739">
        <ele>418.4</ele>
        <time>2024-08-12T08:57:56Z</time>
      </trkpt>
      <trkpt lat="43.14894" lon="1.02747">
        <ele>417.4</ele>
        <time>2024-08-12T08:57:57Z</time>
      </trkpt>
      <trkpt lat="43.14892" lon="1.02753">
        <ele>416.4</ele>
        <time>2024-08-12T08:57:58Z</time>
      </trkpt>
      <trkpt lat="43.14891" lon="1.02758">
        <ele>416.4</ele>
        <time>2024-08-12T08:57:59Z</time>
      </trkpt>
      <trkpt lat="43.14883" lon="1.02764">
        <ele>416.4</ele>
        <time>2024-08-12T08:58:02Z</time>
      </trkpt>
      <trkpt lat="43.14876" lon="1.02766">
        <ele>416.4</ele>
        <time>2024-08-12T08:58:05Z</time>
      </trkpt>
      <trkpt lat="43.1487" lon="1.02767">
        <ele>416.4</ele>
        <time>2024-08-12T08:58:08Z</time>
      </trkpt>
      <trkpt lat="43.14867" lon="1.02767">
        <ele>416.8</ele>
        <time>2024-08-12T08:58:09Z</time>
      </trkpt>
      <trkpt lat="43.14865" lon="1.02767">
        <ele>417.2</ele>
        <time>2024-08-12T08:58:10Z</time>
      </trkpt>
      <trkpt lat="43.14862" lon="1.02768">
        <ele>417.8</ele>
        <time>2024-08-12T08:58:11Z</time>
      </trkpt>
      <trkpt lat="43.1486" lon="1.02768">
        <ele>418.2</ele>
        <time>2024-08-12T08:58:12Z</time>
      </trkpt>
      <trkpt lat="43.14857" lon="1.02769">
        <ele>418.6</ele>
        <time>2024-08-12T08:58:13Z</time>
      </trkpt>
      <trkpt lat="43.1484" lon="1.02777">
        <ele>418.6</ele>
        <time>2024-08-12T08:58:19Z</time>
      </trkpt>
      <trkpt lat="43.14829" lon="1.02789">
        <ele>418.6</ele>
        <time>2024-08-12T08:58:23Z</time>
      </trkpt>
      <trkpt lat="43.14827" lon="1.02791">
        <ele>418.6</ele>
        <time>2024-08-12T08:58:25Z</time>
      </trkpt>
      <trkpt lat="43.14819" lon="1.02787">
        <ele>418.6</ele>
        <time>2024-08-12T08:59:12Z</time>
      </trkpt>
      <trkpt lat="43.14817" lon="1.02786">
        <ele>418.6</ele>
        <time>2024-08-12T08:59:13Z</time>
      </trkpt>
      <trkpt lat="43.14811" lon="1.02784">
        <ele>419</ele>
        <time>2024-08-12T08:59:16Z</time>
      </trkpt>
      <trkpt lat="43.14809" lon="1.02782">
        <ele>419.4</ele>
        <time>2024-08-12T08:59:17Z</time>
      </trkpt>
      <trkpt lat="43.14806" lon="1.0278">
        <ele>420</ele>
        <time>2024-08-12T08:59:18Z</time>
      </trkpt>
      <trkpt lat="43.14803" lon="1.02778">
        <ele>420.4</ele>
        <time>2024-08-12T08:59:19Z</time>
      </trkpt>
      <trkpt lat="43.14801" lon="1.02776">
        <ele>420.8</ele>
        <time>2024-08-12T08:59:20Z</time>
      </trkpt>
      <trkpt lat="43.14792" lon="1.0277">
        <ele>421.2</ele>
        <time>2024-08-12T08:59:23Z</time>
      </trkpt>
      <trkpt lat="43.14789" lon="1.02769">
        <ele>421.6</ele>
        <time>2024-08-12T08:59:24Z</time>
      </trkpt>
      <trkpt lat="43.14786" lon="1.02768">
        <ele>422</ele>
        <time>2024-08-12T08:59:25Z</time>
      </trkpt>
      <trkpt lat="43.14782" lon="1.02768">
        <ele>422.4</ele>
        <time>2024-08-12T08:59:26Z</time>
      </trkpt>
      <trkpt lat="43.14779" lon="1.02767">
        <ele>422.8</ele>
        <time>2024-08-12T08:59:27Z</time>
      </trkpt>
      <trkpt lat="43.14773" lon="1.02768">
        <ele>422.8</ele>
        <time>2024-08-12T08:59:31Z</time>
      </trkpt>
      <trkpt lat="43.14769" lon="1.02769">
        <ele>422.8</ele>
        <time>2024-08-12T08:59:38Z</time>
      </trkpt>
      <trkpt lat="43.14763" lon="1.02768">
        <ele>422.8</ele>
        <time>2024-08-12T08:59:41Z</time>
      </trkpt>
      <trkpt lat="43.14744" lon="1.02768">
        <ele>423.4</ele>
        <time>2024-08-12T08:59:47Z</time>
      </trkpt>
      <trkpt lat="43.14743" lon="1.02768">
        <ele>423.8</ele>
        <time>2024-08-12T08:59:48Z</time>
      </trkpt>
      <trkpt lat="43.14743" lon="1.02768">
        <ele>424.2</ele>
        <time>2024-08-12T08:59:49Z</time>
      </trkpt>
      <trkpt lat="43.14738" lon="1.0277">
        <ele>425.2</ele>
        <time>2024-08-12T09:00:49Z</time>
      </trkpt>
      <trkpt lat="43.14736" lon="1.02768">
        <ele>425.2</ele>
        <time>2024-08-12T09:00:50Z</time>
      </trkpt>
      <trkpt lat="43.14725" lon="1.02765">
        <ele>425.6</ele>
        <time>2024-08-12T09:00:56Z</time>
      </trkpt>
      <trkpt lat="43.14724" lon="1.02765">
        <ele>426</ele>
        <time>2024-08-12T09:00:57Z</time>
      </trkpt>
      <trkpt lat="43.14722" lon="1.02766">
        <ele>426.4</ele>
        <time>2024-08-12T09:00:58Z</time>
      </trkpt>
      <trkpt lat="43.1472" lon="1.02766">
        <ele>426.8</ele>
        <time>2024-08-12T09:00:59Z</time>
      </trkpt>
      <trkpt lat="43.14718" lon="1.02766">
        <ele>427.4</ele>
        <time>2024-08-12T09:01:00Z</time>
      </trkpt>
      <trkpt lat="43.1471" lon="1.02767">
        <ele>427.4</ele>
        <time>2024-08-12T09:01:05Z</time>
      </trkpt>
      <trkpt lat="43.14707" lon="1.02767">
        <ele>427.8</ele>
        <time>2024-08-12T09:01:07Z</time>
      </trkpt>
      <trkpt lat="43.14706" lon="1.02767">
        <ele>428.2</ele>
        <time>2024-08-12T09:01:08Z</time>
      </trkpt>
      <trkpt lat="43.14705" lon="1.02766">
        <ele>429</ele>
        <time>2024-08-12T09:01:09Z</time>
      </trkpt>
      <trkpt lat="43.14694" lon="1.02756">
        <ele>429.4</ele>
        <time>2024-08-12T09:01:34Z</time>
      </trkpt>
      <trkpt lat="43.14692" lon="1.02754">
        <ele>429.4</ele>
        <time>2024-08-12T09:01:35Z</time>
      </trkpt>
      <trkpt lat="43.14688" lon="1.02751">
        <ele>429.4</ele>
        <time>2024-08-12T09:01:37Z</time>
      </trkpt>
      <trkpt lat="43.14684" lon="1.02749">
        <ele>429.4</ele>
        <time>2024-08-12T09:01:39Z</time>
      </trkpt>
      <trkpt lat="43.14681" lon="1.02747">
        <ele>429.8</ele>
        <time>2024-08-12T09:01:40Z</time>
      </trkpt>
      <trkpt lat="43.14678" lon="1.02746">
        <ele>430.2</ele>
        <time>2024-08-12T09:01:41Z</time>
      </trkpt>
      <trkpt lat="43.14676" lon="1.02744">
        <ele>430.8</ele>
        <time>2024-08-12T09:01:42Z</time>
      </trkpt>
      <trkpt lat="43.14673" lon="1.02743">
        <ele>431.2</ele>
        <time>2024-08-12T09:01:43Z</time>
      </trkpt>
      <trkpt lat="43.14671" lon="1.02742">
        <ele>431.6</ele>
        <time>2024-08-12T09:01:44Z</time>
      </trkpt>
      <trkpt lat="43.14657" lon="1.02738">
        <ele>431.6</ele>
        <time>2024-08-12T09:01:49Z</time>
      </trkpt>
      <trkpt lat="43.14655" lon="1.02737">
        <ele>432</ele>
        <time>2024-08-12T09:01:50Z</time>
      </trkpt>
      <trkpt lat="43.14652" lon="1.02737">
        <ele>432.4</ele>
        <time>2024-08-12T09:01:51Z</time>
      </trkpt>
      <trkpt lat="43.14649" lon="1.02738">
        <ele>432.8</ele>
        <time>2024-08-12T09:01:52Z</time>
      </trkpt>
      <trkpt lat="43.14646" lon="1.02738">
        <ele>433.2</ele>
        <time>2024-08-12T09:01:53Z</time>
      </trkpt>
      <trkpt lat="43.14644" lon="1.02739">
        <ele>433.6</ele>
        <time>2024-08-12T09:01:54Z</time>
      </trkpt>
      <trkpt lat="43.14639" lon="1.02739">
        <ele>433.6</ele>
        <time>2024-08-12T09:01:56Z</time>
      </trkpt>
      <trkpt lat="43.14628" lon="1.02742">
        <ele>433.6</ele>
        <time>2024-08-12T09:02:00Z</time>
      </trkpt>
      <trkpt lat="43.14626" lon="1.02742">
        <ele>434</ele>
        <time>2024-08-12T09:02:01Z</time>
      </trkpt>
      <trkpt lat="43.14623" lon="1.02742">
        <ele>434.4</ele>
        <time>2024-08-12T09:02:02Z</time>
      </trkpt>
      <trkpt lat="43.14619" lon="1.02742">
        <ele>434.8</ele>
        <time>2024-08-12T09:02:03Z</time>
      </trkpt>
      <trkpt lat="43.14616" lon="1.02741">
        <ele>435.2</ele>
        <time>2024-08-12T09:02:04Z</time>
      </trkpt>
      <trkpt lat="43.14613" lon="1.02742">
        <ele>435.6</ele>
        <time>2024-08-12T09:02:05Z</time>
      </trkpt>
      <trkpt lat="43.14601" lon="1.02745">
        <ele>435.6</ele>
        <time>2024-08-12T09:02:10Z</time>
      </trkpt>
      <trkpt lat="43.14586" lon="1.0275">
        <ele>435.6</ele>
        <time>2024-08-12T09:02:16Z</time>
      </trkpt>
      <trkpt lat="43.1457" lon="1.02756">
        <ele>436</ele>
        <time>2024-08-12T09:02:22Z</time>
      </trkpt>
      <trkpt lat="43.14567" lon="1.02756">
        <ele>437</ele>
        <time>2024-08-12T09:02:23Z</time>
      </trkpt>
      <trkpt lat="43.14565" lon="1.02756">
        <ele>437.4</ele>
        <time>2024-08-12T09:02:24Z</time>
      </trkpt>
      <trkpt lat="43.14562" lon="1.02757">
        <ele>437.8</ele>
        <time>2024-08-12T09:02:25Z</time>
      </trkpt>
      <trkpt lat="43.14555" lon="1.02758">
        <ele>437.8</ele>
        <time>2024-08-12T09:02:28Z</time>
      </trkpt>
      <trkpt lat="43.14551" lon="1.02759">
        <ele>437.8</ele>
        <time>2024-08-12T09:02:30Z</time>
      </trkpt>
      <trkpt lat="43.14546" lon="1.02762">
        <ele>437.8</ele>
        <time>2024-08-12T09:02:33Z</time>
      </trkpt>
      <trkpt lat="43.14534" lon="1.0276">
        <ele>437.8</ele>
        <time>2024-08-12T09:02:37Z</time>
      </trkpt>
      <trkpt lat="43.14522" lon="1.02764">
        <ele>437.8</ele>
        <time>2024-08-12T09:02:41Z</time>
      </trkpt>
      <trkpt lat="43.14508" lon="1.02772">
        <ele>437.8</ele>
        <time>2024-08-12T09:02:45Z</time>
      </trkpt>
      <trkpt lat="43.14494" lon="1.02781">
        <ele>437.8</ele>
        <time>2024-08-12T09:02:51Z</time>
      </trkpt>
      <trkpt lat="43.14478" lon="1.02793">
        <ele>437.8</ele>
        <time>2024-08-12T09:02:58Z</time>
      </trkpt>
      <trkpt lat="43.14476" lon="1.02796">
        <ele>437.4</ele>
        <time>2024-08-12T09:02:59Z</time>
      </trkpt>
      <trkpt lat="43.14474" lon="1.02799">
        <ele>437</ele>
        <time>2024-08-12T09:03:00Z</time>
      </trkpt>
      <trkpt lat="43.14472" lon="1.028">
        <ele>436.6</ele>
        <time>2024-08-12T09:03:01Z</time>
      </trkpt>
      <trkpt lat="43.14469" lon="1.02802">
        <ele>436.2</ele>
        <time>2024-08-12T09:03:02Z</time>
      </trkpt>
      <trkpt lat="43.14466" lon="1.02804">
        <ele>435.8</ele>
        <time>2024-08-12T09:03:03Z</time>
      </trkpt>
      <trkpt lat="43.14456" lon="1.02816">
        <ele>435.8</ele>
        <time>2024-08-12T09:03:07Z</time>
      </trkpt>
      <trkpt lat="43.14454" lon="1.02819">
        <ele>435.2</ele>
        <time>2024-08-12T09:03:08Z</time>
      </trkpt>
      <trkpt lat="43.14453" lon="1.02821">
        <ele>434.8</ele>
        <time>2024-08-12T09:03:09Z</time>
      </trkpt>
      <trkpt lat="43.1445" lon="1.02825">
        <ele>434.4</ele>
        <time>2024-08-12T09:03:10Z</time>
      </trkpt>
      <trkpt lat="43.14448" lon="1.02828">
        <ele>434</ele>
        <time>2024-08-12T09:03:11Z</time>
      </trkpt>
      <trkpt lat="43.14445" lon="1.02832">
        <ele>433.6</ele>
        <time>2024-08-12T09:03:12Z</time>
      </trkpt>
      <trkpt lat="43.14433" lon="1.02847">
        <ele>433.2</ele>
        <time>2024-08-12T09:03:16Z</time>
      </trkpt>
      <trkpt lat="43.1443" lon="1.0285">
        <ele>432.6</ele>
        <time>2024-08-12T09:03:17Z</time>
      </trkpt>
      <trkpt lat="43.14428" lon="1.02853">
        <ele>432.2</ele>
        <time>2024-08-12T09:03:18Z</time>
      </trkpt>
      <trkpt lat="43.14425" lon="1.02857">
        <ele>431.6</ele>
        <time>2024-08-12T09:03:19Z</time>
      </trkpt>
      <trkpt lat="43.14423" lon="1.0286">
        <ele>431.2</ele>
        <time>2024-08-12T09:03:20Z</time>
      </trkpt>
      <trkpt lat="43.14421" lon="1.02865">
        <ele>430.6</ele>
        <time>2024-08-12T09:03:21Z</time>
      </trkpt>
      <trkpt lat="43.14418" lon="1.02869">
        <ele>430.2</ele>
        <time>2024-08-12T09:03:22Z</time>
      </trkpt>
      <trkpt lat="43.14416" lon="1.02874">
        <ele>429.6</ele>
        <time>2024-08-12T09:03:23Z</time>
      </trkpt>
      <trkpt lat="43.14413" lon="1.0288">
        <ele>429.2</ele>
        <time>2024-08-12T09:03:24Z</time>
      </trkpt>
      <trkpt lat="43.14409" lon="1.02885">
        <ele>428.8</ele>
        <time>2024-08-12T09:03:25Z</time>
      </trkpt>
      <trkpt lat="43.14406" lon="1.0289">
        <ele>428.2</ele>
        <time>2024-08-12T09:03:26Z</time>
      </trkpt>
      <trkpt lat="43.14403" lon="1.02895">
        <ele>427.8</ele>
        <time>2024-08-12T09:03:27Z</time>
      </trkpt>
      <trkpt lat="43.14401" lon="1.02899">
        <ele>427.4</ele>
        <time>2024-08-12T09:03:28Z</time>
      </trkpt>
      <trkpt lat="43.14399" lon="1.02903">
        <ele>427</ele>
        <time>2024-08-12T09:03:29Z</time>
      </trkpt>
      <trkpt lat="43.14394" lon="1.02919">
        <ele>427</ele>
        <time>2024-08-12T09:03:34Z</time>
      </trkpt>
      <trkpt lat="43.14387" lon="1.0294">
        <ele>426.4</ele>
        <time>2024-08-12T09:03:39Z</time>
      </trkpt>
      <trkpt lat="43.14385" lon="1.02945">
        <ele>426</ele>
        <time>2024-08-12T09:03:40Z</time>
      </trkpt>
      <trkpt lat="43.14384" lon="1.02949">
        <ele>425.6</ele>
        <time>2024-08-12T09:03:41Z</time>
      </trkpt>
      <trkpt lat="43.14382" lon="1.02954">
        <ele>425.2</ele>
        <time>2024-08-12T09:03:42Z</time>
      </trkpt>
      <trkpt lat="43.1438" lon="1.02958">
        <ele>424.8</ele>
        <time>2024-08-12T09:03:43Z</time>
      </trkpt>
      <trkpt lat="43.14378" lon="1.02964">
        <ele>424.8</ele>
        <time>2024-08-12T09:03:44Z</time>
      </trkpt>
      <trkpt lat="43.14374" lon="1.0298">
        <ele>424.4</ele>
        <time>2024-08-12T09:03:47Z</time>
      </trkpt>
      <trkpt lat="43.14374" lon="1.02985">
        <ele>424</ele>
        <time>2024-08-12T09:03:48Z</time>
      </trkpt>
      <trkpt lat="43.14373" lon="1.0299">
        <ele>423.4</ele>
        <time>2024-08-12T09:03:49Z</time>
      </trkpt>
      <trkpt lat="43.14373" lon="1.02995">
        <ele>423</ele>
        <time>2024-08-12T09:03:50Z</time>
      </trkpt>
      <trkpt lat="43.14372" lon="1.02999">
        <ele>422.6</ele>
        <time>2024-08-12T09:03:51Z</time>
      </trkpt>
      <trkpt lat="43.14371" lon="1.03007">
        <ele>422.6</ele>
        <time>2024-08-12T09:03:53Z</time>
      </trkpt>
      <trkpt lat="43.14369" lon="1.03012">
        <ele>422.6</ele>
        <time>2024-08-12T09:03:54Z</time>
      </trkpt>
      <trkpt lat="43.14364" lon="1.03021">
        <ele>422.6</ele>
        <time>2024-08-12T09:03:56Z</time>
      </trkpt>
      <trkpt lat="43.14359" lon="1.0303">
        <ele>422.2</ele>
        <time>2024-08-12T09:03:58Z</time>
      </trkpt>
      <trkpt lat="43.14357" lon="1.03034">
        <ele>421.8</ele>
        <time>2024-08-12T09:03:59Z</time>
      </trkpt>
      <trkpt lat="43.14354" lon="1.03039">
        <ele>421.4</ele>
        <time>2024-08-12T09:04:00Z</time>
      </trkpt>
      <trkpt lat="43.14353" lon="1.03044">
        <ele>421</ele>
        <time>2024-08-12T09:04:01Z</time>
      </trkpt>
      <trkpt lat="43.1435" lon="1.03046">
        <ele>420.2</ele>
        <time>2024-08-12T09:04:02Z</time>
      </trkpt>
      <trkpt lat="43.14347" lon="1.03047">
        <ele>419.8</ele>
        <time>2024-08-12T09:04:03Z</time>
      </trkpt>
      <trkpt lat="43.14345" lon="1.03049">
        <ele>419.4</ele>
        <time>2024-08-12T09:04:04Z</time>
      </trkpt>
      <trkpt lat="43.14343" lon="1.0305">
        <ele>418.8</ele>
        <time>2024-08-12T09:04:05Z</time>
      </trkpt>
      <trkpt lat="43.14341" lon="1.03052">
        <ele>418.4</ele>
        <time>2024-08-12T09:04:06Z</time>
      </trkpt>
      <trkpt lat="43.14336" lon="1.03051">
        <ele>418.4</ele>
        <time>2024-08-12T09:04:08Z</time>
      </trkpt>
      <trkpt lat="43.14333" lon="1.03049">
        <ele>418.4</ele>
        <time>2024-08-12T09:04:09Z</time>
      </trkpt>
      <trkpt lat="43.14322" lon="1.03038">
        <ele>418.4</ele>
        <time>2024-08-12T09:04:14Z</time>
      </trkpt>
      <trkpt lat="43.14319" lon="1.03032">
        <ele>419</ele>
        <time>2024-08-12T09:04:16Z</time>
      </trkpt>
      <trkpt lat="43.14318" lon="1.03028">
        <ele>419.4</ele>
        <time>2024-08-12T09:04:17Z</time>
      </trkpt>
      <trkpt lat="43.14317" lon="1.03025">
        <ele>419.8</ele>
        <time>2024-08-12T09:04:18Z</time>
      </trkpt>
      <trkpt lat="43.14315" lon="1.03021">
        <ele>420.2</ele>
        <time>2024-08-12T09:04:19Z</time>
      </trkpt>
      <trkpt lat="43.14314" lon="1.03018">
        <ele>420.6</ele>
        <time>2024-08-12T09:04:20Z</time>
      </trkpt>
      <trkpt lat="43.14303" lon="1.03005">
        <ele>420.6</ele>
        <time>2024-08-12T09:04:25Z</time>
      </trkpt>
      <trkpt lat="43.14302" lon="1.03005">
        <ele>420.6</ele>
        <time>2024-08-12T09:04:26Z</time>
      </trkpt>
      <trkpt lat="43.14298" lon="1.03009">
        <ele>420.6</ele>
        <time>2024-08-12T09:04:28Z</time>
      </trkpt>
      <trkpt lat="43.14284" lon="1.03021">
        <ele>420.6</ele>
        <time>2024-08-12T09:04:32Z</time>
      </trkpt>
      <trkpt lat="43.14281" lon="1.03025">
        <ele>420.6</ele>
        <time>2024-08-12T09:04:33Z</time>
      </trkpt>
      <trkpt lat="43.14274" lon="1.03034">
        <ele>420.6</ele>
        <time>2024-08-12T09:04:35Z</time>
      </trkpt>
      <trkpt lat="43.14267" lon="1.03046">
        <ele>420.2</ele>
        <time>2024-08-12T09:04:37Z</time>
      </trkpt>
      <trkpt lat="43.14264" lon="1.03053">
        <ele>419.8</ele>
        <time>2024-08-12T09:04:38Z</time>
      </trkpt>
      <trkpt lat="43.14261" lon="1.03059">
        <ele>419.2</ele>
        <time>2024-08-12T09:04:39Z</time>
      </trkpt>
      <trkpt lat="43.14258" lon="1.03065">
        <ele>418.8</ele>
        <time>2024-08-12T09:04:40Z</time>
      </trkpt>
      <trkpt lat="43.14255" lon="1.03071">
        <ele>418.2</ele>
        <time>2024-08-12T09:04:41Z</time>
      </trkpt>
      <trkpt lat="43.1425" lon="1.03075">
        <ele>417.8</ele>
        <time>2024-08-12T09:04:42Z</time>
      </trkpt>
      <trkpt lat="43.14246" lon="1.03079">
        <ele>417.2</ele>
        <time>2024-08-12T09:04:43Z</time>
      </trkpt>
      <trkpt lat="43.14241" lon="1.03082">
        <ele>416.6</ele>
        <time>2024-08-12T09:04:44Z</time>
      </trkpt>
      <trkpt lat="43.14236" lon="1.03086">
        <ele>416</ele>
        <time>2024-08-12T09:04:45Z</time>
      </trkpt>
      <trkpt lat="43.14232" lon="1.0309">
        <ele>416</ele>
        <time>2024-08-12T09:04:46Z</time>
      </trkpt>
      <trkpt lat="43.14222" lon="1.03089">
        <ele>416</ele>
        <time>2024-08-12T09:04:49Z</time>
      </trkpt>
      <trkpt lat="43.14211" lon="1.03078">
        <ele>416</ele>
        <time>2024-08-12T09:04:53Z</time>
      </trkpt>
      <trkpt lat="43.14204" lon="1.03063">
        <ele>416</ele>
        <time>2024-08-12T09:04:56Z</time>
      </trkpt>
      <trkpt lat="43.14195" lon="1.03047">
        <ele>416</ele>
        <time>2024-08-12T09:05:00Z</time>
      </trkpt>
      <trkpt lat="43.14186" lon="1.03021">
        <ele>416</ele>
        <time>2024-08-12T09:05:06Z</time>
      </trkpt>
      <trkpt lat="43.1418" lon="1.02998">
        <ele>416</ele>
        <time>2024-08-12T09:05:11Z</time>
      </trkpt>
      <trkpt lat="43.14171" lon="1.02967">
        <ele>416</ele>
        <time>2024-08-12T09:05:18Z</time>
      </trkpt>
      <trkpt lat="43.14162" lon="1.02938">
        <ele>416</ele>
        <time>2024-08-12T09:05:25Z</time>
      </trkpt>
      <trkpt lat="43.14161" lon="1.02934">
        <ele>416.4</ele>
        <time>2024-08-12T09:05:26Z</time>
      </trkpt>
      <trkpt lat="43.1416" lon="1.0293">
        <ele>417</ele>
        <time>2024-08-12T09:05:27Z</time>
      </trkpt>
      <trkpt lat="43.14158" lon="1.02927">
        <ele>417.4</ele>
        <time>2024-08-12T09:05:28Z</time>
      </trkpt>
      <trkpt lat="43.14158" lon="1.02923">
        <ele>417.8</ele>
        <time>2024-08-12T09:05:29Z</time>
      </trkpt>
      <trkpt lat="43.14157" lon="1.0292">
        <ele>418.2</ele>
        <time>2024-08-12T09:05:30Z</time>
      </trkpt>
      <trkpt lat="43.14155" lon="1.02916">
        <ele>418.2</ele>
        <time>2024-08-12T09:05:31Z</time>
      </trkpt>
      <trkpt lat="43.14143" lon="1.02889">
        <ele>418.2</ele>
        <time>2024-08-12T09:05:37Z</time>
      </trkpt>
      <trkpt lat="43.14127" lon="1.02853">
        <ele>418.2</ele>
        <time>2024-08-12T09:05:45Z</time>
      </trkpt>
      <trkpt lat="43.14119" lon="1.02831">
        <ele>418.2</ele>
        <time>2024-08-12T09:05:49Z</time>
      </trkpt>
      <trkpt lat="43.14112" lon="1.02815">
        <ele>418.2</ele>
        <time>2024-08-12T09:05:52Z</time>
      </trkpt>
      <trkpt lat="43.14107" lon="1.0281">
        <ele>418.2</ele>
        <time>2024-08-12T09:05:54Z</time>
      </trkpt>
      <trkpt lat="43.14105" lon="1.02812">
        <ele>418.2</ele>
        <time>2024-08-12T09:05:55Z</time>
      </trkpt>
      <trkpt lat="43.14102" lon="1.02821">
        <ele>418.2</ele>
        <time>2024-08-12T09:05:58Z</time>
      </trkpt>
      <trkpt lat="43.14105" lon="1.02835">
        <ele>418.2</ele>
        <time>2024-08-12T09:06:03Z</time>
      </trkpt>
      <trkpt lat="43.14108" lon="1.02847">
        <ele>418.6</ele>
        <time>2024-08-12T09:06:07Z</time>
      </trkpt>
      <trkpt lat="43.14108" lon="1.02851">
        <ele>419</ele>
        <time>2024-08-12T09:06:08Z</time>
      </trkpt>
      <trkpt lat="43.14108" lon="1.02854">
        <ele>419.6</ele>
        <time>2024-08-12T09:06:09Z</time>
      </trkpt>
      <trkpt lat="43.14108" lon="1.02857">
        <ele>420</ele>
        <time>2024-08-12T09:06:10Z</time>
      </trkpt>
      <trkpt lat="43.14109" lon="1.0286">
        <ele>420.4</ele>
        <time>2024-08-12T09:06:11Z</time>
      </trkpt>
      <trkpt lat="43.14108" lon="1.02868">
        <ele>420.8</ele>
        <time>2024-08-12T09:06:14Z</time>
      </trkpt>
      <trkpt lat="43.14108" lon="1.02871">
        <ele>421.4</ele>
        <time>2024-08-12T09:06:15Z</time>
      </trkpt>
      <trkpt lat="43.14108" lon="1.02874">
        <ele>421.8</ele>
        <time>2024-08-12T09:06:16Z</time>
      </trkpt>
      <trkpt lat="43.14109" lon="1.02878">
        <ele>422.2</ele>
        <time>2024-08-12T09:06:17Z</time>
      </trkpt>
      <trkpt lat="43.14109" lon="1.02881">
        <ele>422.8</ele>
        <time>2024-08-12T09:06:18Z</time>
      </trkpt>
      <trkpt lat="43.14111" lon="1.02886">
        <ele>422.8</ele>
        <time>2024-08-12T09:06:20Z</time>
      </trkpt>
      <trkpt lat="43.14111" lon="1.02892">
        <ele>423.2</ele>
        <time>2024-08-12T09:06:22Z</time>
      </trkpt>
      <trkpt lat="43.14111" lon="1.02895">
        <ele>423.6</ele>
        <time>2024-08-12T09:06:23Z</time>
      </trkpt>
      <trkpt lat="43.14111" lon="1.02898">
        <ele>424.2</ele>
        <time>2024-08-12T09:06:24Z</time>
      </trkpt>
      <trkpt lat="43.14111" lon="1.02901">
        <ele>424.6</ele>
        <time>2024-08-12T09:06:25Z</time>
      </trkpt>
      <trkpt lat="43.14112" lon="1.02905">
        <ele>425</ele>
        <time>2024-08-12T09:06:26Z</time>
      </trkpt>
      <trkpt lat="43.14112" lon="1.02914">
        <ele>425.4</ele>
        <time>2024-08-12T09:06:29Z</time>
      </trkpt>
      <trkpt lat="43.14112" lon="1.02917">
        <ele>426.2</ele>
        <time>2024-08-12T09:06:30Z</time>
      </trkpt>
      <trkpt lat="43.14112" lon="1.0292">
        <ele>426.8</ele>
        <time>2024-08-12T09:06:31Z</time>
      </trkpt>
      <trkpt lat="43.14113" lon="1.02923">
        <ele>427.2</ele>
        <time>2024-08-12T09:06:32Z</time>
      </trkpt>
      <trkpt lat="43.14115" lon="1.02932">
        <ele>427.6</ele>
        <time>2024-08-12T09:06:35Z</time>
      </trkpt>
      <trkpt lat="43.14116" lon="1.02935">
        <ele>428</ele>
        <time>2024-08-12T09:06:36Z</time>
      </trkpt>
      <trkpt lat="43.14117" lon="1.02938">
        <ele>428.4</ele>
        <time>2024-08-12T09:06:37Z</time>
      </trkpt>
      <trkpt lat="43.14117" lon="1.02941">
        <ele>428.8</ele>
        <time>2024-08-12T09:06:38Z</time>
      </trkpt>
      <trkpt lat="43.14117" lon="1.02944">
        <ele>429.2</ele>
        <time>2024-08-12T09:06:39Z</time>
      </trkpt>
      <trkpt lat="43.14117" lon="1.02953">
        <ele>429.6</ele>
        <time>2024-08-12T09:06:42Z</time>
      </trkpt>
      <trkpt lat="43.14117" lon="1.02956">
        <ele>430.2</ele>
        <time>2024-08-12T09:06:43Z</time>
      </trkpt>
      <trkpt lat="43.14117" lon="1.02959">
        <ele>430.6</ele>
        <time>2024-08-12T09:06:44Z</time>
      </trkpt>
      <trkpt lat="43.14118" lon="1.02961">
        <ele>431</ele>
        <time>2024-08-12T09:06:45Z</time>
      </trkpt>
      <trkpt lat="43.14118" lon="1.02964">
        <ele>431.6</ele>
        <time>2024-08-12T09:06:46Z</time>
      </trkpt>
      <trkpt lat="43.1412" lon="1.02973">
        <ele>432</ele>
        <time>2024-08-12T09:06:49Z</time>
      </trkpt>
      <trkpt lat="43.1412" lon="1.02975">
        <ele>432.4</ele>
        <time>2024-08-12T09:06:50Z</time>
      </trkpt>
      <trkpt lat="43.1412" lon="1.02978">
        <ele>432.8</ele>
        <time>2024-08-12T09:06:51Z</time>
      </trkpt>
      <trkpt lat="43.14121" lon="1.02981">
        <ele>433.2</ele>
        <time>2024-08-12T09:06:52Z</time>
      </trkpt>
      <trkpt lat="43.14122" lon="1.02985">
        <ele>433.6</ele>
        <time>2024-08-12T09:06:53Z</time>
      </trkpt>
      <trkpt lat="43.14122" lon="1.02987">
        <ele>433.6</ele>
        <time>2024-08-12T09:06:54Z</time>
      </trkpt>
      <trkpt lat="43.14123" lon="1.0299">
        <ele>434</ele>
        <time>2024-08-12T09:06:55Z</time>
      </trkpt>
      <trkpt lat="43.14124" lon="1.02993">
        <ele>434.6</ele>
        <time>2024-08-12T09:06:56Z</time>
      </trkpt>
      <trkpt lat="43.14125" lon="1.02996">
        <ele>435</ele>
        <time>2024-08-12T09:06:57Z</time>
      </trkpt>
      <trkpt lat="43.14126" lon="1.02999">
        <ele>435.4</ele>
        <time>2024-08-12T09:06:58Z</time>
      </trkpt>
      <trkpt lat="43.14126" lon="1.03001">
        <ele>435.8</ele>
        <time>2024-08-12T09:06:59Z</time>
      </trkpt>
      <trkpt lat="43.14127" lon="1.03008">
        <ele>435.8</ele>
        <time>2024-08-12T09:07:01Z</time>
      </trkpt>
      <trkpt lat="43.14127" lon="1.03011">
        <ele>436.2</ele>
        <time>2024-08-12T09:07:02Z</time>
      </trkpt>
      <trkpt lat="43.14127" lon="1.03014">
        <ele>436.8</ele>
        <time>2024-08-12T09:07:03Z</time>
      </trkpt>
      <trkpt lat="43.14127" lon="1.03016">
        <ele>437.2</ele>
        <time>2024-08-12T09:07:04Z</time>
      </trkpt>
      <trkpt lat="43.14127" lon="1.03019">
        <ele>437.6</ele>
        <time>2024-08-12T09:07:05Z</time>
      </trkpt>
      <trkpt lat="43.14127" lon="1.03022">
        <ele>438</ele>
        <time>2024-08-12T09:07:06Z</time>
      </trkpt>
      <trkpt lat="43.14127" lon="1.03025">
        <ele>438</ele>
        <time>2024-08-12T09:07:07Z</time>
      </trkpt>
      <trkpt lat="43.14127" lon="1.03031">
        <ele>438.4</ele>
        <time>2024-08-12T09:07:09Z</time>
      </trkpt>
      <trkpt lat="43.14128" lon="1.03034">
        <ele>438.8</ele>
        <time>2024-08-12T09:07:10Z</time>
      </trkpt>
      <trkpt lat="43.14128" lon="1.03037">
        <ele>439.2</ele>
        <time>2024-08-12T09:07:11Z</time>
      </trkpt>
      <trkpt lat="43.14128" lon="1.0304">
        <ele>439.8</ele>
        <time>2024-08-12T09:07:12Z</time>
      </trkpt>
      <trkpt lat="43.14128" lon="1.03043">
        <ele>440.2</ele>
        <time>2024-08-12T09:07:13Z</time>
      </trkpt>
      <trkpt lat="43.1413" lon="1.03056">
        <ele>440.6</ele>
        <time>2024-08-12T09:07:17Z</time>
      </trkpt>
      <trkpt lat="43.1413" lon="1.03059">
        <ele>441</ele>
        <time>2024-08-12T09:07:18Z</time>
      </trkpt>
      <trkpt lat="43.14131" lon="1.03062">
        <ele>441.8</ele>
        <time>2024-08-12T09:07:19Z</time>
      </trkpt>
      <trkpt lat="43.14132" lon="1.03065">
        <ele>442.4</ele>
        <time>2024-08-12T09:07:20Z</time>
      </trkpt>
      <trkpt lat="43.14133" lon="1.03074">
        <ele>442.8</ele>
        <time>2024-08-12T09:07:23Z</time>
      </trkpt>
      <trkpt lat="43.14133" lon="1.03076">
        <ele>443.2</ele>
        <time>2024-08-12T09:07:24Z</time>
      </trkpt>
      <trkpt lat="43.14134" lon="1.03079">
        <ele>443.8</ele>
        <time>2024-08-12T09:07:25Z</time>
      </trkpt>
      <trkpt lat="43.14134" lon="1.03081">
        <ele>444.2</ele>
        <time>2024-08-12T09:07:26Z</time>
      </trkpt>
      <trkpt lat="43.14135" lon="1.03084">
        <ele>444.6</ele>
        <time>2024-08-12T09:07:27Z</time>
      </trkpt>
      <trkpt lat="43.14135" lon="1.03093">
        <ele>445</ele>
        <time>2024-08-12T09:07:30Z</time>
      </trkpt>
      <trkpt lat="43.14135" lon="1.03096">
        <ele>445.6</ele>
        <time>2024-08-12T09:07:31Z</time>
      </trkpt>
      <trkpt lat="43.14135" lon="1.03099">
        <ele>446</ele>
        <time>2024-08-12T09:07:32Z</time>
      </trkpt>
      <trkpt lat="43.14135" lon="1.03102">
        <ele>446.4</ele>
        <time>2024-08-12T09:07:33Z</time>
      </trkpt>
      <trkpt lat="43.14135" lon="1.03105">
        <ele>446.8</ele>
        <time>2024-08-12T09:07:34Z</time>
      </trkpt>
      <trkpt lat="43.14136" lon="1.03118">
        <ele>447.2</ele>
        <time>2024-08-12T09:07:38Z</time>
      </trkpt>
      <trkpt lat="43.14136" lon="1.03121">
        <ele>447.6</ele>
        <time>2024-08-12T09:07:39Z</time>
      </trkpt>
      <trkpt lat="43.14136" lon="1.03124">
        <ele>448</ele>
        <time>2024-08-12T09:07:40Z</time>
      </trkpt>
      <trkpt lat="43.14137" lon="1.03127">
        <ele>448.4</ele>
        <time>2024-08-12T09:07:41Z</time>
      </trkpt>
      <trkpt lat="43.14137" lon="1.0313">
        <ele>448.8</ele>
        <time>2024-08-12T09:07:42Z</time>
      </trkpt>
      <trkpt lat="43.14138" lon="1.03137">
        <ele>448.8</ele>
        <time>2024-08-12T09:07:44Z</time>
      </trkpt>
      <trkpt lat="43.14138" lon="1.03141">
        <ele>449.2</ele>
        <time>2024-08-12T09:07:45Z</time>
      </trkpt>
      <trkpt lat="43.14138" lon="1.03143">
        <ele>449.6</ele>
        <time>2024-08-12T09:07:46Z</time>
      </trkpt>
      <trkpt lat="43.14138" lon="1.03146">
        <ele>450.2</ele>
        <time>2024-08-12T09:07:47Z</time>
      </trkpt>
      <trkpt lat="43.14139" lon="1.03149">
        <ele>450.6</ele>
        <time>2024-08-12T09:07:48Z</time>
      </trkpt>
      <trkpt lat="43.14139" lon="1.03151">
        <ele>451</ele>
        <time>2024-08-12T09:07:49Z</time>
      </trkpt>
      <trkpt lat="43.1414" lon="1.03156">
        <ele>451</ele>
        <time>2024-08-12T09:07:51Z</time>
      </trkpt>
      <trkpt lat="43.1414" lon="1.0316">
        <ele>451.4</ele>
        <time>2024-08-12T09:07:53Z</time>
      </trkpt>
      <trkpt lat="43.14141" lon="1.03164">
        <ele>451.8</ele>
        <time>2024-08-12T09:07:54Z</time>
      </trkpt>
      <trkpt lat="43.14141" lon="1.03166">
        <ele>452.2</ele>
        <time>2024-08-12T09:07:55Z</time>
      </trkpt>
      <trkpt lat="43.14142" lon="1.03169">
        <ele>452.6</ele>
        <time>2024-08-12T09:07:56Z</time>
      </trkpt>
      <trkpt lat="43.14142" lon="1.03172">
        <ele>453</ele>
        <time>2024-08-12T09:07:57Z</time>
      </trkpt>
      <trkpt lat="43.14145" lon="1.03183">
        <ele>453.4</ele>
        <time>2024-08-12T09:08:01Z</time>
      </trkpt>
      <trkpt lat="43.14146" lon="1.03186">
        <ele>453.8</ele>
        <time>2024-08-12T09:08:02Z</time>
      </trkpt>
      <trkpt lat="43.14146" lon="1.03189">
        <ele>454.2</ele>
        <time>2024-08-12T09:08:03Z</time>
      </trkpt>
      <trkpt lat="43.14146" lon="1.03192">
        <ele>454.6</ele>
        <time>2024-08-12T09:08:04Z</time>
      </trkpt>
      <trkpt lat="43.14146" lon="1.03195">
        <ele>455</ele>
        <time>2024-08-12T09:08:05Z</time>
      </trkpt>
      <trkpt lat="43.14147" lon="1.0321">
        <ele>455.6</ele>
        <time>2024-08-12T09:08:10Z</time>
      </trkpt>
      <trkpt lat="43.14147" lon="1.03213">
        <ele>456</ele>
        <time>2024-08-12T09:08:11Z</time>
      </trkpt>
      <trkpt lat="43.14147" lon="1.03216">
        <ele>456.4</ele>
        <time>2024-08-12T09:08:12Z</time>
      </trkpt>
      <trkpt lat="43.14147" lon="1.03219">
        <ele>456.8</ele>
        <time>2024-08-12T09:08:13Z</time>
      </trkpt>
      <trkpt lat="43.14147" lon="1.03222">
        <ele>457.2</ele>
        <time>2024-08-12T09:08:14Z</time>
      </trkpt>
      <trkpt lat="43.14147" lon="1.0324">
        <ele>457.2</ele>
        <time>2024-08-12T09:08:19Z</time>
      </trkpt>
      <trkpt lat="43.14147" lon="1.03264">
        <ele>457.6</ele>
        <time>2024-08-12T09:08:25Z</time>
      </trkpt>
      <trkpt lat="43.14147" lon="1.03267">
        <ele>458</ele>
        <time>2024-08-12T09:08:26Z</time>
      </trkpt>
      <trkpt lat="43.14147" lon="1.03271">
        <ele>458.4</ele>
        <time>2024-08-12T09:08:27Z</time>
      </trkpt>
      <trkpt lat="43.14147" lon="1.03274">
        <ele>458.8</ele>
        <time>2024-08-12T09:08:28Z</time>
      </trkpt>
      <trkpt lat="43.14147" lon="1.03276">
        <ele>459.2</ele>
        <time>2024-08-12T09:08:29Z</time>
      </trkpt>
      <trkpt lat="43.14147" lon="1.03281">
        <ele>459.2</ele>
        <time>2024-08-12T09:08:31Z</time>
      </trkpt>
      <trkpt lat="43.14146" lon="1.03283">
        <ele>459.2</ele>
        <time>2024-08-12T09:08:34Z</time>
      </trkpt>
      <trkpt lat="43.14146" lon="1.03283">
        <ele>459.2</ele>
        <time>2024-08-12T09:08:35Z</time>
      </trkpt>
      <trkpt lat="43.14145" lon="1.03285">
        <ele>459.2</ele>
        <time>2024-08-12T09:10:38Z</time>
      </trkpt>
      <trkpt lat="43.14143" lon="1.03285">
        <ele>459.2</ele>
        <time>2024-08-12T09:10:39Z</time>
      </trkpt>
      <trkpt lat="43.14133" lon="1.0328">
        <ele>459.2</ele>
        <time>2024-08-12T09:10:43Z</time>
      </trkpt>
      <trkpt lat="43.14126" lon="1.03283">
        <ele>458.6</ele>
        <time>2024-08-12T09:10:45Z</time>
      </trkpt>
      <trkpt lat="43.14123" lon="1.03284">
        <ele>458.2</ele>
        <time>2024-08-12T09:10:46Z</time>
      </trkpt>
      <trkpt lat="43.14121" lon="1.03284">
        <ele>457.6</ele>
        <time>2024-08-12T09:10:47Z</time>
      </trkpt>
      <trkpt lat="43.14118" lon="1.03283">
        <ele>457</ele>
        <time>2024-08-12T09:10:48Z</time>
      </trkpt>
      <trkpt lat="43.14115" lon="1.03281">
        <ele>456.2</ele>
        <time>2024-08-12T09:10:49Z</time>
      </trkpt>
      <trkpt lat="43.14112" lon="1.03278">
        <ele>455.4</ele>
        <time>2024-08-12T09:10:50Z</time>
      </trkpt>
      <trkpt lat="43.14109" lon="1.03275">
        <ele>454.8</ele>
        <time>2024-08-12T09:10:51Z</time>
      </trkpt>
      <trkpt lat="43.14107" lon="1.03272">
        <ele>454</ele>
        <time>2024-08-12T09:10:52Z</time>
      </trkpt>
      <trkpt lat="43.14105" lon="1.03271">
        <ele>453.4</ele>
        <time>2024-08-12T09:10:53Z</time>
      </trkpt>
      <trkpt lat="43.14104" lon="1.0327">
        <ele>452.6</ele>
        <time>2024-08-12T09:10:54Z</time>
      </trkpt>
      <trkpt lat="43.14103" lon="1.03269">
        <ele>452</ele>
        <time>2024-08-12T09:10:55Z</time>
      </trkpt>
      <trkpt lat="43.14102" lon="1.03267">
        <ele>451.4</ele>
        <time>2024-08-12T09:10:56Z</time>
      </trkpt>
      <trkpt lat="43.14101" lon="1.03266">
        <ele>451</ele>
        <time>2024-08-12T09:10:57Z</time>
      </trkpt>
      <trkpt lat="43.141" lon="1.03264">
        <ele>450.4</ele>
        <time>2024-08-12T09:10:58Z</time>
      </trkpt>
      <trkpt lat="43.14099" lon="1.03261">
        <ele>449.8</ele>
        <time>2024-08-12T09:10:59Z</time>
      </trkpt>
      <trkpt lat="43.14099" lon="1.03259">
        <ele>449.2</ele>
        <time>2024-08-12T09:11:00Z</time>
      </trkpt>
      <trkpt lat="43.14099" lon="1.03259">
        <ele>448.8</ele>
        <time>2024-08-12T09:11:01Z</time>
      </trkpt>
      <trkpt lat="43.14099" lon="1.03257">
        <ele>447.4</ele>
        <time>2024-08-12T09:11:35Z</time>
      </trkpt>
      <trkpt lat="43.141" lon="1.03251">
        <ele>447.4</ele>
        <time>2024-08-12T09:11:37Z</time>
      </trkpt>
      <trkpt lat="43.14101" lon="1.03237">
        <ele>447.4</ele>
        <time>2024-08-12T09:11:43Z</time>
      </trkpt>
      <trkpt lat="43.14101" lon="1.03217">
        <ele>447</ele>
        <time>2024-08-12T09:11:49Z</time>
      </trkpt>
      <trkpt lat="43.14101" lon="1.03215">
        <ele>446.6</ele>
        <time>2024-08-12T09:11:50Z</time>
      </trkpt>
      <trkpt lat="43.14101" lon="1.03211">
        <ele>445.6</ele>
        <time>2024-08-12T09:11:51Z</time>
      </trkpt>
      <trkpt lat="43.14102" lon="1.03208">
        <ele>445.2</ele>
        <time>2024-08-12T09:11:52Z</time>
      </trkpt>
      <trkpt lat="43.14104" lon="1.03203">
        <ele>445.2</ele>
        <time>2024-08-12T09:11:53Z</time>
      </trkpt>
      <trkpt lat="43.14103" lon="1.03196">
        <ele>445.2</ele>
        <time>2024-08-12T09:11:56Z</time>
      </trkpt>
      <trkpt lat="43.14109" lon="1.03186">
        <ele>445.2</ele>
        <time>2024-08-12T09:12:01Z</time>
      </trkpt>
      <trkpt lat="43.14111" lon="1.03181">
        <ele>445.2</ele>
        <time>2024-08-12T09:12:03Z</time>
      </trkpt>
      <trkpt lat="43.14108" lon="1.03175">
        <ele>445.2</ele>
        <time>2024-08-12T09:12:05Z</time>
      </trkpt>
      <trkpt lat="43.14105" lon="1.0317">
        <ele>445.2</ele>
        <time>2024-08-12T09:12:09Z</time>
      </trkpt>
      <trkpt lat="43.14104" lon="1.03169">
        <ele>445.2</ele>
        <time>2024-08-12T09:12:18Z</time>
      </trkpt>
      <trkpt lat="43.14102" lon="1.03162">
        <ele>445.2</ele>
        <time>2024-08-12T09:12:24Z</time>
      </trkpt>
      <trkpt lat="43.14098" lon="1.03167">
        <ele>443.2</ele>
        <time>2024-08-12T09:12:33Z</time>
      </trkpt>
      <trkpt lat="43.14097" lon="1.03173">
        <ele>443.2</ele>
        <time>2024-08-12T09:12:36Z</time>
      </trkpt>
      <trkpt lat="43.14097" lon="1.0318">
        <ele>442.6</ele>
        <time>2024-08-12T09:12:38Z</time>
      </trkpt>
      <trkpt lat="43.14096" lon="1.03183">
        <ele>442.2</ele>
        <time>2024-08-12T09:12:39Z</time>
      </trkpt>
      <trkpt lat="43.14095" lon="1.03185">
        <ele>441.8</ele>
        <time>2024-08-12T09:12:40Z</time>
      </trkpt>
      <trkpt lat="43.14094" lon="1.03188">
        <ele>440.8</ele>
        <time>2024-08-12T09:12:41Z</time>
      </trkpt>
      <trkpt lat="43.14093" lon="1.03191">
        <ele>440.8</ele>
        <time>2024-08-12T09:12:42Z</time>
      </trkpt>
      <trkpt lat="43.14092" lon="1.03193">
        <ele>440.4</ele>
        <time>2024-08-12T09:12:43Z</time>
      </trkpt>
      <trkpt lat="43.14091" lon="1.03197">
        <ele>440</ele>
        <time>2024-08-12T09:12:44Z</time>
      </trkpt>
      <trkpt lat="43.14089" lon="1.03199">
        <ele>439.4</ele>
        <time>2024-08-12T09:12:45Z</time>
      </trkpt>
      <trkpt lat="43.14089" lon="1.032">
        <ele>439</ele>
        <time>2024-08-12T09:12:46Z</time>
      </trkpt>
      <trkpt lat="43.14088" lon="1.032">
        <ele>438.6</ele>
        <time>2024-08-12T09:12:47Z</time>
      </trkpt>
      <trkpt lat="43.14088" lon="1.032">
        <ele>438.6</ele>
        <time>2024-08-12T09:12:48Z</time>
      </trkpt>
      <trkpt lat="43.14081" lon="1.03192">
        <ele>434</ele>
        <time>2024-08-12T09:12:59Z</time>
      </trkpt>
      <trkpt lat="43.1408" lon="1.0319">
        <ele>433.4</ele>
        <time>2024-08-12T09:13:00Z</time>
      </trkpt>
      <trkpt lat="43.14079" lon="1.03189">
        <ele>432.8</ele>
        <time>2024-08-12T09:13:01Z</time>
      </trkpt>
      <trkpt lat="43.14079" lon="1.03184">
        <ele>429.4</ele>
        <time>2024-08-12T09:13:06Z</time>
      </trkpt>
      <trkpt lat="43.14081" lon="1.03183">
        <ele>429.4</ele>
        <time>2024-08-12T09:13:09Z</time>
      </trkpt>
      <trkpt lat="43.14086" lon="1.0317">
        <ele>429.4</ele>
        <time>2024-08-12T09:13:16Z</time>
      </trkpt>
      <trkpt lat="43.14089" lon="1.03167">
        <ele>429.4</ele>
        <time>2024-08-12T09:13:44Z</time>
      </trkpt>
      <trkpt lat="43.14092" lon="1.03154">
        <ele>429.8</ele>
        <time>2024-08-12T09:13:47Z</time>
      </trkpt>
      <trkpt lat="43.14092" lon="1.03153">
        <ele>430.2</ele>
        <time>2024-08-12T09:13:48Z</time>
      </trkpt>
      <trkpt lat="43.1409" lon="1.03151">
        <ele>430.6</ele>
        <time>2024-08-12T09:13:49Z</time>
      </trkpt>
      <trkpt lat="43.14089" lon="1.03148">
        <ele>431</ele>
        <time>2024-08-12T09:13:50Z</time>
      </trkpt>
      <trkpt lat="43.14089" lon="1.03145">
        <ele>431.4</ele>
        <time>2024-08-12T09:13:51Z</time>
      </trkpt>
      <trkpt lat="43.14089" lon="1.03142">
        <ele>431.4</ele>
        <time>2024-08-12T09:13:53Z</time>
      </trkpt>
      <trkpt lat="43.14088" lon="1.03136">
        <ele>432</ele>
        <time>2024-08-12T09:13:56Z</time>
      </trkpt>
      <trkpt lat="43.14088" lon="1.03133">
        <ele>432.4</ele>
        <time>2024-08-12T09:13:57Z</time>
      </trkpt>
      <trkpt lat="43.1409" lon="1.03131">
        <ele>432.8</ele>
        <time>2024-08-12T09:13:58Z</time>
      </trkpt>
      <trkpt lat="43.14091" lon="1.03129">
        <ele>433.2</ele>
        <time>2024-08-12T09:13:59Z</time>
      </trkpt>
      <trkpt lat="43.14091" lon="1.03129">
        <ele>433.8</ele>
        <time>2024-08-12T09:14:00Z</time>
      </trkpt>
      <trkpt lat="43.14086" lon="1.03104">
        <ele>438.2</ele>
        <time>2024-08-12T09:17:11Z</time>
      </trkpt>
      <trkpt lat="43.14086" lon="1.03103">
        <ele>438.6</ele>
        <time>2024-08-12T09:17:12Z</time>
      </trkpt>
      <trkpt lat="43.14087" lon="1.03101">
        <ele>439.4</ele>
        <time>2024-08-12T09:17:13Z</time>
      </trkpt>
      <trkpt lat="43.14087" lon="1.03101">
        <ele>439.8</ele>
        <time>2024-08-12T09:17:14Z</time>
      </trkpt>
      <trkpt lat="43.14085" lon="1.03098">
        <ele>439.8</ele>
        <time>2024-08-12T09:17:21Z</time>
      </trkpt>
      <trkpt lat="43.14084" lon="1.03096">
        <ele>439.8</ele>
        <time>2024-08-12T09:17:22Z</time>
      </trkpt>
      <trkpt lat="43.14079" lon="1.03087">
        <ele>439.4</ele>
        <time>2024-08-12T09:17:24Z</time>
      </trkpt>
      <trkpt lat="43.14077" lon="1.03082">
        <ele>438.8</ele>
        <time>2024-08-12T09:17:25Z</time>
      </trkpt>
      <trkpt lat="43.14075" lon="1.03077">
        <ele>438</ele>
        <time>2024-08-12T09:17:26Z</time>
      </trkpt>
      <trkpt lat="43.14074" lon="1.03076">
        <ele>437</ele>
        <time>2024-08-12T09:17:27Z</time>
      </trkpt>
      <trkpt lat="43.14073" lon="1.03078">
        <ele>436</ele>
        <time>2024-08-12T09:17:28Z</time>
      </trkpt>
      <trkpt lat="43.14072" lon="1.0308">
        <ele>435.2</ele>
        <time>2024-08-12T09:17:29Z</time>
      </trkpt>
      <trkpt lat="43.14072" lon="1.03083">
        <ele>434.4</ele>
        <time>2024-08-12T09:17:30Z</time>
      </trkpt>
      <trkpt lat="43.14073" lon="1.03086">
        <ele>433.4</ele>
        <time>2024-08-12T09:17:31Z</time>
      </trkpt>
      <trkpt lat="43.14073" lon="1.03088">
        <ele>432.6</ele>
        <time>2024-08-12T09:17:32Z</time>
      </trkpt>
      <trkpt lat="43.14073" lon="1.03091">
        <ele>431.8</ele>
        <time>2024-08-12T09:17:33Z</time>
      </trkpt>
      <trkpt lat="43.14073" lon="1.03094">
        <ele>431.8</ele>
        <time>2024-08-12T09:17:34Z</time>
      </trkpt>
      <trkpt lat="43.14068" lon="1.03103">
        <ele>431.8</ele>
        <time>2024-08-12T09:17:39Z</time>
      </trkpt>
      <trkpt lat="43.14058" lon="1.03116">
        <ele>431.8</ele>
        <time>2024-08-12T09:17:44Z</time>
      </trkpt>
      <trkpt lat="43.14055" lon="1.03122">
        <ele>431.8</ele>
        <time>2024-08-12T09:17:47Z</time>
      </trkpt>
      <trkpt lat="43.14055" lon="1.03123">
        <ele>431.8</ele>
        <time>2024-08-12T09:17:48Z</time>
      </trkpt>
      <trkpt lat="43.14046" lon="1.03134">
        <ele>431.8</ele>
        <time>2024-08-12T09:17:53Z</time>
      </trkpt>
      <trkpt lat="43.14037" lon="1.03141">
        <ele>431.8</ele>
        <time>2024-08-12T09:17:55Z</time>
      </trkpt>
      <trkpt lat="43.14028" lon="1.03149">
        <ele>431.8</ele>
        <time>2024-08-12T09:17:57Z</time>
      </trkpt>
      <trkpt lat="43.14023" lon="1.03155">
        <ele>431.8</ele>
        <time>2024-08-12T09:17:58Z</time>
      </trkpt>
      <trkpt lat="43.14018" lon="1.03158">
        <ele>431.4</ele>
        <time>2024-08-12T09:17:59Z</time>
      </trkpt>
      <trkpt lat="43.14013" lon="1.03162">
        <ele>431</ele>
        <time>2024-08-12T09:18:00Z</time>
      </trkpt>
      <trkpt lat="43.1401" lon="1.03166">
        <ele>430.6</ele>
        <time>2024-08-12T09:18:01Z</time>
      </trkpt>
      <trkpt lat="43.14006" lon="1.03171">
        <ele>430.2</ele>
        <time>2024-08-12T09:18:02Z</time>
      </trkpt>
      <trkpt lat="43.14003" lon="1.03176">
        <ele>429.8</ele>
        <time>2024-08-12T09:18:03Z</time>
      </trkpt>
      <trkpt lat="43.13999" lon="1.03183">
        <ele>429.8</ele>
        <time>2024-08-12T09:18:05Z</time>
      </trkpt>
      <trkpt lat="43.13998" lon="1.03187">
        <ele>429.8</ele>
        <time>2024-08-12T09:18:06Z</time>
      </trkpt>
      <trkpt lat="43.13997" lon="1.03191">
        <ele>429.4</ele>
        <time>2024-08-12T09:18:07Z</time>
      </trkpt>
      <trkpt lat="43.13995" lon="1.03194">
        <ele>429</ele>
        <time>2024-08-12T09:18:08Z</time>
      </trkpt>
      <trkpt lat="43.13993" lon="1.03195">
        <ele>428.6</ele>
        <time>2024-08-12T09:18:09Z</time>
      </trkpt>
      <trkpt lat="43.1399" lon="1.03195">
        <ele>428.2</ele>
        <time>2024-08-12T09:18:10Z</time>
      </trkpt>
      <trkpt lat="43.13987" lon="1.03196">
        <ele>427.8</ele>
        <time>2024-08-12T09:18:11Z</time>
      </trkpt>
      <trkpt lat="43.13979" lon="1.03199">
        <ele>427.4</ele>
        <time>2024-08-12T09:18:13Z</time>
      </trkpt>
      <trkpt lat="43.13974" lon="1.03201">
        <ele>426.8</ele>
        <time>2024-08-12T09:18:14Z</time>
      </trkpt>
      <trkpt lat="43.13969" lon="1.03203">
        <ele>426.4</ele>
        <time>2024-08-12T09:18:15Z</time>
      </trkpt>
      <trkpt lat="43.13964" lon="1.03206">
        <ele>426</ele>
        <time>2024-08-12T09:18:16Z</time>
      </trkpt>
      <trkpt lat="43.13959" lon="1.03207">
        <ele>425.4</ele>
        <time>2024-08-12T09:18:17Z</time>
      </trkpt>
      <trkpt lat="43.13953" lon="1.03207">
        <ele>424.8</ele>
        <time>2024-08-12T09:18:18Z</time>
      </trkpt>
      <trkpt lat="43.13948" lon="1.0321">
        <ele>424.2</ele>
        <time>2024-08-12T09:18:19Z</time>
      </trkpt>
      <trkpt lat="43.13944" lon="1.03217">
        <ele>423.6</ele>
        <time>2024-08-12T09:18:20Z</time>
      </trkpt>
      <trkpt lat="43.13941" lon="1.03224">
        <ele>422.8</ele>
        <time>2024-08-12T09:18:21Z</time>
      </trkpt>
      <trkpt lat="43.13939" lon="1.03232">
        <ele>422.2</ele>
        <time>2024-08-12T09:18:22Z</time>
      </trkpt>
      <trkpt lat="43.13937" lon="1.0324">
        <ele>421.4</ele>
        <time>2024-08-12T09:18:23Z</time>
      </trkpt>
      <trkpt lat="43.13934" lon="1.03246">
        <ele>420.6</ele>
        <time>2024-08-12T09:18:24Z</time>
      </trkpt>
      <trkpt lat="43.13932" lon="1.03251">
        <ele>420.2</ele>
        <time>2024-08-12T09:18:25Z</time>
      </trkpt>
      <trkpt lat="43.13929" lon="1.03254">
        <ele>419.8</ele>
        <time>2024-08-12T09:18:26Z</time>
      </trkpt>
      <trkpt lat="43.13925" lon="1.03256">
        <ele>419</ele>
        <time>2024-08-12T09:18:27Z</time>
      </trkpt>
      <trkpt lat="43.13921" lon="1.03256">
        <ele>418.4</ele>
        <time>2024-08-12T09:18:28Z</time>
      </trkpt>
      <trkpt lat="43.13915" lon="1.03254">
        <ele>418</ele>
        <time>2024-08-12T09:18:29Z</time>
      </trkpt>
      <trkpt lat="43.13909" lon="1.03253">
        <ele>417.6</ele>
        <time>2024-08-12T09:18:30Z</time>
      </trkpt>
      <trkpt lat="43.13902" lon="1.03253">
        <ele>417.2</ele>
        <time>2024-08-12T09:18:31Z</time>
      </trkpt>
      <trkpt lat="43.13896" lon="1.03252">
        <ele>416.6</ele>
        <time>2024-08-12T09:18:32Z</time>
      </trkpt>
      <trkpt lat="43.13889" lon="1.0325">
        <ele>416</ele>
        <time>2024-08-12T09:18:33Z</time>
      </trkpt>
      <trkpt lat="43.13883" lon="1.03249">
        <ele>415.4</ele>
        <time>2024-08-12T09:18:34Z</time>
      </trkpt>
      <trkpt lat="43.13877" lon="1.03247">
        <ele>414.8</ele>
        <time>2024-08-12T09:18:35Z</time>
      </trkpt>
      <trkpt lat="43.13871" lon="1.03246">
        <ele>414.2</ele>
        <time>2024-08-12T09:18:36Z</time>
      </trkpt>
      <trkpt lat="43.13865" lon="1.03245">
        <ele>413.8</ele>
        <time>2024-08-12T09:18:37Z</time>
      </trkpt>
      <trkpt lat="43.13859" lon="1.03243">
        <ele>413.4</ele>
        <time>2024-08-12T09:18:38Z</time>
      </trkpt>
      <trkpt lat="43.13853" lon="1.03242">
        <ele>413</ele>
        <time>2024-08-12T09:18:39Z</time>
      </trkpt>
      <trkpt lat="43.13848" lon="1.03241">
        <ele>412.4</ele>
        <time>2024-08-12T09:18:40Z</time>
      </trkpt>
      <trkpt lat="43.13842" lon="1.03239">
        <ele>411.8</ele>
        <time>2024-08-12T09:18:41Z</time>
      </trkpt>
      <trkpt lat="43.13837" lon="1.03237">
        <ele>411.2</ele>
        <time>2024-08-12T09:18:42Z</time>
      </trkpt>
      <trkpt lat="43.13833" lon="1.03236">
        <ele>410.6</ele>
        <time>2024-08-12T09:18:43Z</time>
      </trkpt>
      <trkpt lat="43.13831" lon="1.03235">
        <ele>410</ele>
        <time>2024-08-12T09:18:44Z</time>
      </trkpt>
      <trkpt lat="43.13829" lon="1.03234">
        <ele>409.2</ele>
        <time>2024-08-12T09:18:45Z</time>
      </trkpt>
      <trkpt lat="43.13827" lon="1.03233">
        <ele>408.6</ele>
        <time>2024-08-12T09:18:46Z</time>
      </trkpt>
      <trkpt lat="43.13826" lon="1.03232">
        <ele>408</ele>
        <time>2024-08-12T09:18:47Z</time>
      </trkpt>
      <trkpt lat="43.13825" lon="1.03231">
        <ele>407.2</ele>
        <time>2024-08-12T09:18:48Z</time>
      </trkpt>
      <trkpt lat="43.13825" lon="1.03231">
        <ele>406.8</ele>
        <time>2024-08-12T09:18:49Z</time>
      </trkpt>
      <trkpt lat="43.13824" lon="1.0323">
        <ele>405.2</ele>
        <time>2024-08-12T09:19:35Z</time>
      </trkpt>
      <trkpt lat="43.13821" lon="1.03223">
        <ele>405.2</ele>
        <time>2024-08-12T09:19:37Z</time>
      </trkpt>
      <trkpt lat="43.13822" lon="1.03221">
        <ele>405.2</ele>
        <time>2024-08-12T09:19:38Z</time>
      </trkpt>
      <trkpt lat="43.13822" lon="1.03214">
        <ele>405.2</ele>
        <time>2024-08-12T09:19:41Z</time>
      </trkpt>
      <trkpt lat="43.1382" lon="1.0321">
        <ele>405.2</ele>
        <time>2024-08-12T09:19:43Z</time>
      </trkpt>
      <trkpt lat="43.13815" lon="1.03197">
        <ele>405.2</ele>
        <time>2024-08-12T09:19:49Z</time>
      </trkpt>
      <trkpt lat="43.13809" lon="1.03182">
        <ele>405.2</ele>
        <time>2024-08-12T09:19:56Z</time>
      </trkpt>
      <trkpt lat="43.13808" lon="1.0318">
        <ele>405.2</ele>
        <time>2024-08-12T09:19:58Z</time>
      </trkpt>
      <trkpt lat="43.13808" lon="1.03175">
        <ele>405.2</ele>
        <time>2024-08-12T09:20:01Z</time>
      </trkpt>
      <trkpt lat="43.13807" lon="1.03173">
        <ele>405.2</ele>
        <time>2024-08-12T09:20:02Z</time>
      </trkpt>
      <trkpt lat="43.13805" lon="1.03169">
        <ele>405.2</ele>
        <time>2024-08-12T09:20:06Z</time>
      </trkpt>
      <trkpt lat="43.13803" lon="1.03172">
        <ele>405.2</ele>
        <time>2024-08-12T09:20:10Z</time>
      </trkpt>
      <trkpt lat="43.13804" lon="1.03176">
        <ele>405.2</ele>
        <time>2024-08-12T09:20:12Z</time>
      </trkpt>
      <trkpt lat="43.13804" lon="1.0318">
        <ele>404.8</ele>
        <time>2024-08-12T09:20:14Z</time>
      </trkpt>
      <trkpt lat="43.13804" lon="1.03183">
        <ele>404.4</ele>
        <time>2024-08-12T09:20:15Z</time>
      </trkpt>
      <trkpt lat="43.13804" lon="1.03185">
        <ele>404</ele>
        <time>2024-08-12T09:20:16Z</time>
      </trkpt>
      <trkpt lat="43.13804" lon="1.03186">
        <ele>403.6</ele>
        <time>2024-08-12T09:20:17Z</time>
      </trkpt>
      <trkpt lat="43.13804" lon="1.03188">
        <ele>403.2</ele>
        <time>2024-08-12T09:20:18Z</time>
      </trkpt>
      <trkpt lat="43.13806" lon="1.03194">
        <ele>403.2</ele>
        <time>2024-08-12T09:20:21Z</time>
      </trkpt>
      <trkpt lat="43.13808" lon="1.03194">
        <ele>403.2</ele>
        <time>2024-08-12T09:20:22Z</time>
      </trkpt>
      <trkpt lat="43.13812" lon="1.03196">
        <ele>403.2</ele>
        <time>2024-08-12T09:20:24Z</time>
      </trkpt>
      <trkpt lat="43.13815" lon="1.03202">
        <ele>403.2</ele>
        <time>2024-08-12T09:20:27Z</time>
      </trkpt>
      <trkpt lat="43.13819" lon="1.03211">
        <ele>403.2</ele>
        <time>2024-08-12T09:20:30Z</time>
      </trkpt>
      <trkpt lat="43.1382" lon="1.03217">
        <ele>403.2</ele>
        <time>2024-08-12T09:20:33Z</time>
      </trkpt>
      <trkpt lat="43.13818" lon="1.03234">
        <ele>403.2</ele>
        <time>2024-08-12T09:20:38Z</time>
      </trkpt>
      <trkpt lat="43.13818" lon="1.03251">
        <ele>403.2</ele>
        <time>2024-08-12T09:20:43Z</time>
      </trkpt>
      <trkpt lat="43.13815" lon="1.03274">
        <ele>403.2</ele>
        <time>2024-08-12T09:20:49Z</time>
      </trkpt>
      <trkpt lat="43.13816" lon="1.03278">
        <ele>403.2</ele>
        <time>2024-08-12T09:20:50Z</time>
      </trkpt>
      <trkpt lat="43.1382" lon="1.03286">
        <ele>403.2</ele>
        <time>2024-08-12T09:20:52Z</time>
      </trkpt>
      <trkpt lat="43.13823" lon="1.03293">
        <ele>403.2</ele>
        <time>2024-08-12T09:20:54Z</time>
      </trkpt>
      <trkpt lat="43.1383" lon="1.03304">
        <ele>403.2</ele>
        <time>2024-08-12T09:20:57Z</time>
      </trkpt>
      <trkpt lat="43.13834" lon="1.03312">
        <ele>403.6</ele>
        <time>2024-08-12T09:20:59Z</time>
      </trkpt>
      <trkpt lat="43.13835" lon="1.03316">
        <ele>404.2</ele>
        <time>2024-08-12T09:21:00Z</time>
      </trkpt>
      <trkpt lat="43.13837" lon="1.0332">
        <ele>404.6</ele>
        <time>2024-08-12T09:21:01Z</time>
      </trkpt>
      <trkpt lat="43.13837" lon="1.03324">
        <ele>405</ele>
        <time>2024-08-12T09:21:02Z</time>
      </trkpt>
      <trkpt lat="43.13837" lon="1.03327">
        <ele>405.6</ele>
        <time>2024-08-12T09:21:03Z</time>
      </trkpt>
      <trkpt lat="43.13831" lon="1.03345">
        <ele>405.6</ele>
        <time>2024-08-12T09:21:08Z</time>
      </trkpt>
      <trkpt lat="43.13815" lon="1.03367">
        <ele>405.6</ele>
        <time>2024-08-12T09:21:12Z</time>
      </trkpt>
      <trkpt lat="43.13805" lon="1.03379">
        <ele>405</ele>
        <time>2024-08-12T09:21:14Z</time>
      </trkpt>
      <trkpt lat="43.13799" lon="1.03385">
        <ele>404.4</ele>
        <time>2024-08-12T09:21:15Z</time>
      </trkpt>
      <trkpt lat="43.13795" lon="1.03394">
        <ele>404</ele>
        <time>2024-08-12T09:21:16Z</time>
      </trkpt>
      <trkpt lat="43.13792" lon="1.03403">
        <ele>403.4</ele>
        <time>2024-08-12T09:21:17Z</time>
      </trkpt>
      <trkpt lat="43.13791" lon="1.03413">
        <ele>402.8</ele>
        <time>2024-08-12T09:21:18Z</time>
      </trkpt>
      <trkpt lat="43.1379" lon="1.03422">
        <ele>402.2</ele>
        <time>2024-08-12T09:21:19Z</time>
      </trkpt>
      <trkpt lat="43.13788" lon="1.03431">
        <ele>401.6</ele>
        <time>2024-08-12T09:21:20Z</time>
      </trkpt>
      <trkpt lat="43.13787" lon="1.03439">
        <ele>400.6</ele>
        <time>2024-08-12T09:21:21Z</time>
      </trkpt>
      <trkpt lat="43.13783" lon="1.03454">
        <ele>400.6</ele>
        <time>2024-08-12T09:21:23Z</time>
      </trkpt>
      <trkpt lat="43.1378" lon="1.03465">
        <ele>400.2</ele>
        <time>2024-08-12T09:21:25Z</time>
      </trkpt>
      <trkpt lat="43.13777" lon="1.03466">
        <ele>399.6</ele>
        <time>2024-08-12T09:21:26Z</time>
      </trkpt>
      <trkpt lat="43.13774" lon="1.03463">
        <ele>399.2</ele>
        <time>2024-08-12T09:21:27Z</time>
      </trkpt>
      <trkpt lat="43.13771" lon="1.0346">
        <ele>398.8</ele>
        <time>2024-08-12T09:21:28Z</time>
      </trkpt>
      <trkpt lat="43.13767" lon="1.0346">
        <ele>398.4</ele>
        <time>2024-08-12T09:21:29Z</time>
      </trkpt>
      <trkpt lat="43.13763" lon="1.03463">
        <ele>398.4</ele>
        <time>2024-08-12T09:21:30Z</time>
      </trkpt>
      <trkpt lat="43.13757" lon="1.03473">
        <ele>398</ele>
        <time>2024-08-12T09:21:32Z</time>
      </trkpt>
      <trkpt lat="43.13755" lon="1.0348">
        <ele>397.6</ele>
        <time>2024-08-12T09:21:33Z</time>
      </trkpt>
      <trkpt lat="43.13754" lon="1.03487">
        <ele>397.2</ele>
        <time>2024-08-12T09:21:34Z</time>
      </trkpt>
      <trkpt lat="43.13752" lon="1.03494">
        <ele>396.8</ele>
        <time>2024-08-12T09:21:35Z</time>
      </trkpt>
      <trkpt lat="43.1375" lon="1.035">
        <ele>396.4</ele>
        <time>2024-08-12T09:21:36Z</time>
      </trkpt>
      <trkpt lat="43.13749" lon="1.03508">
        <ele>396.4</ele>
        <time>2024-08-12T09:21:37Z</time>
      </trkpt>
      <trkpt lat="43.13749" lon="1.03515">
        <ele>396</ele>
        <time>2024-08-12T09:21:38Z</time>
      </trkpt>
      <trkpt lat="43.13749" lon="1.03523">
        <ele>395.6</ele>
        <time>2024-08-12T09:21:39Z</time>
      </trkpt>
      <trkpt lat="43.13748" lon="1.0353">
        <ele>395.2</ele>
        <time>2024-08-12T09:21:40Z</time>
      </trkpt>
      <trkpt lat="43.1375" lon="1.03537">
        <ele>394.8</ele>
        <time>2024-08-12T09:21:41Z</time>
      </trkpt>
      <trkpt lat="43.13751" lon="1.03543">
        <ele>394.4</ele>
        <time>2024-08-12T09:21:42Z</time>
      </trkpt>
      <trkpt lat="43.13752" lon="1.03548">
        <ele>394.4</ele>
        <time>2024-08-12T09:21:43Z</time>
      </trkpt>
      <trkpt lat="43.13755" lon="1.03563">
        <ele>394.4</ele>
        <time>2024-08-12T09:21:47Z</time>
      </trkpt>
      <trkpt lat="43.13758" lon="1.0357">
        <ele>394.4</ele>
        <time>2024-08-12T09:21:50Z</time>
      </trkpt>
      <trkpt lat="43.13757" lon="1.03572">
        <ele>394.4</ele>
        <time>2024-08-12T09:21:51Z</time>
      </trkpt>
      <trkpt lat="43.13752" lon="1.0358">
        <ele>393.8</ele>
        <time>2024-08-12T09:21:54Z</time>
      </trkpt>
      <trkpt lat="43.13752" lon="1.03584">
        <ele>393.4</ele>
        <time>2024-08-12T09:21:55Z</time>
      </trkpt>
      <trkpt lat="43.13753" lon="1.03587">
        <ele>393</ele>
        <time>2024-08-12T09:21:56Z</time>
      </trkpt>
      <trkpt lat="43.13754" lon="1.0359">
        <ele>392.6</ele>
        <time>2024-08-12T09:21:57Z</time>
      </trkpt>
      <trkpt lat="43.13755" lon="1.03592">
        <ele>392</ele>
        <time>2024-08-12T09:21:58Z</time>
      </trkpt>
      <trkpt lat="43.13757" lon="1.03594">
        <ele>392</ele>
        <time>2024-08-12T09:21:59Z</time>
      </trkpt>
      <trkpt lat="43.13759" lon="1.03597">
        <ele>392</ele>
        <time>2024-08-12T09:22:00Z</time>
      </trkpt>
      <trkpt lat="43.13767" lon="1.03607">
        <ele>392</ele>
        <time>2024-08-12T09:22:05Z</time>
      </trkpt>
      <trkpt lat="43.13766" lon="1.03624">
        <ele>391.2</ele>
        <time>2024-08-12T09:22:10Z</time>
      </trkpt>
      <trkpt lat="43.13764" lon="1.03628">
        <ele>390.8</ele>
        <time>2024-08-12T09:22:11Z</time>
      </trkpt>
      <trkpt lat="43.13763" lon="1.03632">
        <ele>390.2</ele>
        <time>2024-08-12T09:22:12Z</time>
      </trkpt>
      <trkpt lat="43.13761" lon="1.03637">
        <ele>389.6</ele>
        <time>2024-08-12T09:22:13Z</time>
      </trkpt>
      <trkpt lat="43.13759" lon="1.03641">
        <ele>388.8</ele>
        <time>2024-08-12T09:22:14Z</time>
      </trkpt>
      <trkpt lat="43.13756" lon="1.03645">
        <ele>388</ele>
        <time>2024-08-12T09:22:15Z</time>
      </trkpt>
      <trkpt lat="43.13753" lon="1.03649">
        <ele>387.2</ele>
        <time>2024-08-12T09:22:16Z</time>
      </trkpt>
      <trkpt lat="43.13752" lon="1.03652">
        <ele>386.2</ele>
        <time>2024-08-12T09:22:17Z</time>
      </trkpt>
      <trkpt lat="43.13752" lon="1.03654">
        <ele>385.4</ele>
        <time>2024-08-12T09:22:18Z</time>
      </trkpt>
      <trkpt lat="43.1375" lon="1.03656">
        <ele>384.6</ele>
        <time>2024-08-12T09:22:19Z</time>
      </trkpt>
      <trkpt lat="43.13748" lon="1.03656">
        <ele>383.8</ele>
        <time>2024-08-12T09:22:20Z</time>
      </trkpt>
      <trkpt lat="43.13746" lon="1.03656">
        <ele>382.8</ele>
        <time>2024-08-12T09:22:21Z</time>
      </trkpt>
      <trkpt lat="43.13745" lon="1.03656">
        <ele>382</ele>
        <time>2024-08-12T09:22:22Z</time>
      </trkpt>
      <trkpt lat="43.13745" lon="1.03656">
        <ele>381.2</ele>
        <time>2024-08-12T09:22:23Z</time>
      </trkpt>
      <trkpt lat="43.13744" lon="1.03656">
        <ele>380.4</ele>
        <time>2024-08-12T09:22:24Z</time>
      </trkpt>
      <trkpt lat="43.13737" lon="1.03651">
        <ele>380.4</ele>
        <time>2024-08-12T09:22:27Z</time>
      </trkpt>
      <trkpt lat="43.13731" lon="1.0365">
        <ele>380.4</ele>
        <time>2024-08-12T09:22:29Z</time>
      </trkpt>
      <trkpt lat="43.13723" lon="1.03648">
        <ele>380.4</ele>
        <time>2024-08-12T09:22:31Z</time>
      </trkpt>
      <trkpt lat="43.13707" lon="1.03645">
        <ele>380.4</ele>
        <time>2024-08-12T09:22:35Z</time>
      </trkpt>
      <trkpt lat="43.13693" lon="1.03633">
        <ele>380.4</ele>
        <time>2024-08-12T09:22:40Z</time>
      </trkpt>
      <trkpt lat="43.13665" lon="1.03618">
        <ele>380.4</ele>
        <time>2024-08-12T09:22:47Z</time>
      </trkpt>
      <trkpt lat="43.13651" lon="1.03606">
        <ele>380.4</ele>
        <time>2024-08-12T09:22:52Z</time>
      </trkpt>
      <trkpt lat="43.13633" lon="1.03588">
        <ele>380.4</ele>
        <time>2024-08-12T09:22:58Z</time>
      </trkpt>
      <trkpt lat="43.13631" lon="1.03589">
        <ele>380.4</ele>
        <time>2024-08-12T09:23:00Z</time>
      </trkpt>
      <trkpt lat="43.1363" lon="1.03592">
        <ele>380.4</ele>
        <time>2024-08-12T09:23:01Z</time>
      </trkpt>
      <trkpt lat="43.13625" lon="1.03607">
        <ele>380.4</ele>
        <time>2024-08-12T09:23:06Z</time>
      </trkpt>
      <trkpt lat="43.13623" lon="1.03611">
        <ele>380</ele>
        <time>2024-08-12T09:23:07Z</time>
      </trkpt>
      <trkpt lat="43.13622" lon="1.03616">
        <ele>379.4</ele>
        <time>2024-08-12T09:23:08Z</time>
      </trkpt>
      <trkpt lat="43.13621" lon="1.03622">
        <ele>379</ele>
        <time>2024-08-12T09:23:09Z</time>
      </trkpt>
      <trkpt lat="43.13621" lon="1.03629">
        <ele>378.6</ele>
        <time>2024-08-12T09:23:10Z</time>
      </trkpt>
      <trkpt lat="43.1362" lon="1.03636">
        <ele>378</ele>
        <time>2024-08-12T09:23:11Z</time>
      </trkpt>
      <trkpt lat="43.13619" lon="1.03643">
        <ele>377.6</ele>
        <time>2024-08-12T09:23:12Z</time>
      </trkpt>
      <trkpt lat="43.13618" lon="1.03651">
        <ele>377</ele>
        <time>2024-08-12T09:23:13Z</time>
      </trkpt>
      <trkpt lat="43.13618" lon="1.03658">
        <ele>376.6</ele>
        <time>2024-08-12T09:23:14Z</time>
      </trkpt>
      <trkpt lat="43.13617" lon="1.03665">
        <ele>376</ele>
        <time>2024-08-12T09:23:15Z</time>
      </trkpt>
      <trkpt lat="43.13617" lon="1.03678">
        <ele>376</ele>
        <time>2024-08-12T09:23:17Z</time>
      </trkpt>
      <trkpt lat="43.13617" lon="1.03693">
        <ele>376</ele>
        <time>2024-08-12T09:23:21Z</time>
      </trkpt>
      <trkpt lat="43.13616" lon="1.03693">
        <ele>376</ele>
        <time>2024-08-12T09:23:22Z</time>
      </trkpt>
      <trkpt lat="43.13616" lon="1.03697">
        <ele>376</ele>
        <time>2024-08-12T09:23:43Z</time>
      </trkpt>
      <trkpt lat="43.13616" lon="1.03702">
        <ele>376</ele>
        <time>2024-08-12T09:23:45Z</time>
      </trkpt>
      <trkpt lat="43.13616" lon="1.03716">
        <ele>376</ele>
        <time>2024-08-12T09:23:51Z</time>
      </trkpt>
      <trkpt lat="43.13616" lon="1.03719">
        <ele>376</ele>
        <time>2024-08-12T09:23:55Z</time>
      </trkpt>
      <trkpt lat="43.13616" lon="1.03723">
        <ele>376</ele>
        <time>2024-08-12T09:24:04Z</time>
      </trkpt>
      <trkpt lat="43.13615" lon="1.03747">
        <ele>376</ele>
        <time>2024-08-12T09:24:09Z</time>
      </trkpt>
      <trkpt lat="43.13613" lon="1.03771">
        <ele>376</ele>
        <time>2024-08-12T09:24:15Z</time>
      </trkpt>
      <trkpt lat="43.13611" lon="1.03799">
        <ele>376</ele>
        <time>2024-08-12T09:24:22Z</time>
      </trkpt>
      <trkpt lat="43.13606" lon="1.03821">
        <ele>376.4</ele>
        <time>2024-08-12T09:24:28Z</time>
      </trkpt>
      <trkpt lat="43.13604" lon="1.03825">
        <ele>376.8</ele>
        <time>2024-08-12T09:24:29Z</time>
      </trkpt>
      <trkpt lat="43.13602" lon="1.03828">
        <ele>377.2</ele>
        <time>2024-08-12T09:24:30Z</time>
      </trkpt>
      <trkpt lat="43.13599" lon="1.03831">
        <ele>377.6</ele>
        <time>2024-08-12T09:24:31Z</time>
      </trkpt>
      <trkpt lat="43.13597" lon="1.03834">
        <ele>378</ele>
        <time>2024-08-12T09:24:32Z</time>
      </trkpt>
      <trkpt lat="43.13584" lon="1.03852">
        <ele>378</ele>
        <time>2024-08-12T09:24:38Z</time>
      </trkpt>
      <trkpt lat="43.1358" lon="1.03858">
        <ele>378.4</ele>
        <time>2024-08-12T09:24:41Z</time>
      </trkpt>
      <trkpt lat="43.13579" lon="1.03861">
        <ele>378.8</ele>
        <time>2024-08-12T09:24:42Z</time>
      </trkpt>
      <trkpt lat="43.13578" lon="1.03864">
        <ele>379.2</ele>
        <time>2024-08-12T09:24:43Z</time>
      </trkpt>
      <trkpt lat="43.13577" lon="1.03867">
        <ele>379.6</ele>
        <time>2024-08-12T09:24:44Z</time>
      </trkpt>
      <trkpt lat="43.13576" lon="1.03871">
        <ele>380</ele>
        <time>2024-08-12T09:24:45Z</time>
      </trkpt>
      <trkpt lat="43.13574" lon="1.03883">
        <ele>380</ele>
        <time>2024-08-12T09:24:48Z</time>
      </trkpt>
      <trkpt lat="43.13572" lon="1.03909">
        <ele>380.4</ele>
        <time>2024-08-12T09:24:54Z</time>
      </trkpt>
      <trkpt lat="43.13573" lon="1.03913">
        <ele>381</ele>
        <time>2024-08-12T09:24:55Z</time>
      </trkpt>
      <trkpt lat="43.13573" lon="1.03916">
        <ele>381.4</ele>
        <time>2024-08-12T09:24:56Z</time>
      </trkpt>
      <trkpt lat="43.13572" lon="1.0392">
        <ele>381.8</ele>
        <time>2024-08-12T09:24:57Z</time>
      </trkpt>
      <trkpt lat="43.13572" lon="1.03924">
        <ele>382.2</ele>
        <time>2024-08-12T09:24:58Z</time>
      </trkpt>
      <trkpt lat="43.13571" lon="1.0394">
        <ele>382.2</ele>
        <time>2024-08-12T09:25:02Z</time>
      </trkpt>
      <trkpt lat="43.13571" lon="1.0397">
        <ele>382.6</ele>
        <time>2024-08-12T09:25:09Z</time>
      </trkpt>
      <trkpt lat="43.13571" lon="1.03972">
        <ele>383.2</ele>
        <time>2024-08-12T09:25:10Z</time>
      </trkpt>
      <trkpt lat="43.13571" lon="1.03976">
        <ele>383.6</ele>
        <time>2024-08-12T09:25:11Z</time>
      </trkpt>
      <trkpt lat="43.13571" lon="1.0398">
        <ele>384</ele>
        <time>2024-08-12T09:25:12Z</time>
      </trkpt>
      <trkpt lat="43.13571" lon="1.03984">
        <ele>384.4</ele>
        <time>2024-08-12T09:25:13Z</time>
      </trkpt>
      <trkpt lat="43.1357" lon="1.04008">
        <ele>384.4</ele>
        <time>2024-08-12T09:25:19Z</time>
      </trkpt>
      <trkpt lat="43.13569" lon="1.04019">
        <ele>384.8</ele>
        <time>2024-08-12T09:25:22Z</time>
      </trkpt>
      <trkpt lat="43.1357" lon="1.04023">
        <ele>385.2</ele>
        <time>2024-08-12T09:25:23Z</time>
      </trkpt>
      <trkpt lat="43.1357" lon="1.04027">
        <ele>385.6</ele>
        <time>2024-08-12T09:25:24Z</time>
      </trkpt>
      <trkpt lat="43.1357" lon="1.0403">
        <ele>386.2</ele>
        <time>2024-08-12T09:25:25Z</time>
      </trkpt>
      <trkpt lat="43.1357" lon="1.04034">
        <ele>386.6</ele>
        <time>2024-08-12T09:25:26Z</time>
      </trkpt>
      <trkpt lat="43.1357" lon="1.04051">
        <ele>387</ele>
        <time>2024-08-12T09:25:31Z</time>
      </trkpt>
      <trkpt lat="43.1357" lon="1.04055">
        <ele>387.4</ele>
        <time>2024-08-12T09:25:32Z</time>
      </trkpt>
      <trkpt lat="43.1357" lon="1.04059">
        <ele>387.8</ele>
        <time>2024-08-12T09:25:33Z</time>
      </trkpt>
      <trkpt lat="43.1357" lon="1.04063">
        <ele>388.2</ele>
        <time>2024-08-12T09:25:34Z</time>
      </trkpt>
      <trkpt lat="43.13571" lon="1.04066">
        <ele>388.6</ele>
        <time>2024-08-12T09:25:35Z</time>
      </trkpt>
      <trkpt lat="43.13572" lon="1.04081">
        <ele>388.6</ele>
        <time>2024-08-12T09:25:39Z</time>
      </trkpt>
      <trkpt lat="43.13573" lon="1.04096">
        <ele>389</ele>
        <time>2024-08-12T09:25:43Z</time>
      </trkpt>
      <trkpt lat="43.13573" lon="1.041">
        <ele>389.4</ele>
        <time>2024-08-12T09:25:44Z</time>
      </trkpt>
      <trkpt lat="43.13573" lon="1.04105">
        <ele>389.8</ele>
        <time>2024-08-12T09:25:45Z</time>
      </trkpt>
      <trkpt lat="43.13574" lon="1.04109">
        <ele>390.2</ele>
        <time>2024-08-12T09:25:46Z</time>
      </trkpt>
      <trkpt lat="43.13574" lon="1.04112">
        <ele>390.8</ele>
        <time>2024-08-12T09:25:47Z</time>
      </trkpt>
      <trkpt lat="43.13576" lon="1.04131">
        <ele>390.8</ele>
        <time>2024-08-12T09:25:52Z</time>
      </trkpt>
      <trkpt lat="43.13576" lon="1.04135">
        <ele>391.2</ele>
        <time>2024-08-12T09:25:53Z</time>
      </trkpt>
      <trkpt lat="43.13576" lon="1.04139">
        <ele>391.6</ele>
        <time>2024-08-12T09:25:54Z</time>
      </trkpt>
      <trkpt lat="43.13576" lon="1.04143">
        <ele>392</ele>
        <time>2024-08-12T09:25:55Z</time>
      </trkpt>
      <trkpt lat="43.13575" lon="1.04146">
        <ele>392.4</ele>
        <time>2024-08-12T09:25:56Z</time>
      </trkpt>
      <trkpt lat="43.13576" lon="1.0415">
        <ele>392.8</ele>
        <time>2024-08-12T09:25:57Z</time>
      </trkpt>
      <trkpt lat="43.13576" lon="1.04153">
        <ele>392.8</ele>
        <time>2024-08-12T09:25:58Z</time>
      </trkpt>
      <trkpt lat="43.13576" lon="1.04176">
        <ele>393.2</ele>
        <time>2024-08-12T09:26:04Z</time>
      </trkpt>
      <trkpt lat="43.13576" lon="1.04179">
        <ele>393.8</ele>
        <time>2024-08-12T09:26:05Z</time>
      </trkpt>
      <trkpt lat="43.13577" lon="1.04183">
        <ele>394.2</ele>
        <time>2024-08-12T09:26:06Z</time>
      </trkpt>
      <trkpt lat="43.13576" lon="1.04186">
        <ele>394.6</ele>
        <time>2024-08-12T09:26:07Z</time>
      </trkpt>
      <trkpt lat="43.13577" lon="1.0419">
        <ele>395.2</ele>
        <time>2024-08-12T09:26:08Z</time>
      </trkpt>
      <trkpt lat="43.13578" lon="1.04201">
        <ele>395.2</ele>
        <time>2024-08-12T09:26:11Z</time>
      </trkpt>
      <trkpt lat="43.13578" lon="1.04211">
        <ele>395.6</ele>
        <time>2024-08-12T09:26:14Z</time>
      </trkpt>
      <trkpt lat="43.13578" lon="1.04214">
        <ele>396</ele>
        <time>2024-08-12T09:26:15Z</time>
      </trkpt>
      <trkpt lat="43.13578" lon="1.04217">
        <ele>396.4</ele>
        <time>2024-08-12T09:26:16Z</time>
      </trkpt>
      <trkpt lat="43.13577" lon="1.04221">
        <ele>397.2</ele>
        <time>2024-08-12T09:26:17Z</time>
      </trkpt>
      <trkpt lat="43.13577" lon="1.04227">
        <ele>397.2</ele>
        <time>2024-08-12T09:26:19Z</time>
      </trkpt>
      <trkpt lat="43.13577" lon="1.04255">
        <ele>397.6</ele>
        <time>2024-08-12T09:26:27Z</time>
      </trkpt>
      <trkpt lat="43.13577" lon="1.04258">
        <ele>398.2</ele>
        <time>2024-08-12T09:26:28Z</time>
      </trkpt>
      <trkpt lat="43.13577" lon="1.04262">
        <ele>398.6</ele>
        <time>2024-08-12T09:26:29Z</time>
      </trkpt>
      <trkpt lat="43.13577" lon="1.04265">
        <ele>399</ele>
        <time>2024-08-12T09:26:30Z</time>
      </trkpt>
      <trkpt lat="43.13578" lon="1.04269">
        <ele>399.4</ele>
        <time>2024-08-12T09:26:31Z</time>
      </trkpt>
      <trkpt lat="43.13578" lon="1.04278">
        <ele>399.4</ele>
        <time>2024-08-12T09:26:34Z</time>
      </trkpt>
      <trkpt lat="43.13579" lon="1.04289">
        <ele>399.8</ele>
        <time>2024-08-12T09:26:37Z</time>
      </trkpt>
      <trkpt lat="43.13579" lon="1.04293">
        <ele>400.2</ele>
        <time>2024-08-12T09:26:38Z</time>
      </trkpt>
      <trkpt lat="43.13578" lon="1.04296">
        <ele>400.6</ele>
        <time>2024-08-12T09:26:39Z</time>
      </trkpt>
      <trkpt lat="43.13578" lon="1.04299">
        <ele>401.2</ele>
        <time>2024-08-12T09:26:40Z</time>
      </trkpt>
      <trkpt lat="43.13577" lon="1.04303">
        <ele>401.6</ele>
        <time>2024-08-12T09:26:41Z</time>
      </trkpt>
      <trkpt lat="43.13576" lon="1.0432">
        <ele>401.6</ele>
        <time>2024-08-12T09:26:46Z</time>
      </trkpt>
      <trkpt lat="43.13577" lon="1.04331">
        <ele>402</ele>
        <time>2024-08-12T09:26:49Z</time>
      </trkpt>
      <trkpt lat="43.13577" lon="1.04334">
        <ele>402.4</ele>
        <time>2024-08-12T09:26:50Z</time>
      </trkpt>
      <trkpt lat="43.13576" lon="1.04337">
        <ele>402.8</ele>
        <time>2024-08-12T09:26:51Z</time>
      </trkpt>
      <trkpt lat="43.13576" lon="1.04341">
        <ele>403.2</ele>
        <time>2024-08-12T09:26:52Z</time>
      </trkpt>
      <trkpt lat="43.13575" lon="1.04344">
        <ele>403.6</ele>
        <time>2024-08-12T09:26:53Z</time>
      </trkpt>
      <trkpt lat="43.13576" lon="1.04361">
        <ele>404</ele>
        <time>2024-08-12T09:26:58Z</time>
      </trkpt>
      <trkpt lat="43.13577" lon="1.04364">
        <ele>404.4</ele>
        <time>2024-08-12T09:26:59Z</time>
      </trkpt>
      <trkpt lat="43.13577" lon="1.04367">
        <ele>405</ele>
        <time>2024-08-12T09:27:00Z</time>
      </trkpt>
      <trkpt lat="43.13577" lon="1.0437">
        <ele>405.4</ele>
        <time>2024-08-12T09:27:01Z</time>
      </trkpt>
      <trkpt lat="43.13577" lon="1.04373">
        <ele>405.8</ele>
        <time>2024-08-12T09:27:02Z</time>
      </trkpt>
      <trkpt lat="43.13577" lon="1.04389">
        <ele>406.2</ele>
        <time>2024-08-12T09:27:07Z</time>
      </trkpt>
      <trkpt lat="43.13577" lon="1.04393">
        <ele>406.6</ele>
        <time>2024-08-12T09:27:08Z</time>
      </trkpt>
      <trkpt lat="43.13577" lon="1.04396">
        <ele>407</ele>
        <time>2024-08-12T09:27:09Z</time>
      </trkpt>
      <trkpt lat="43.13577" lon="1.04399">
        <ele>407.4</ele>
        <time>2024-08-12T09:27:10Z</time>
      </trkpt>
      <trkpt lat="43.13576" lon="1.04403">
        <ele>407.8</ele>
        <time>2024-08-12T09:27:11Z</time>
      </trkpt>
      <trkpt lat="43.13576" lon="1.0441">
        <ele>407.8</ele>
        <time>2024-08-12T09:27:13Z</time>
      </trkpt>
      <trkpt lat="43.13574" lon="1.04427">
        <ele>408.4</ele>
        <time>2024-08-12T09:27:19Z</time>
      </trkpt>
      <trkpt lat="43.13573" lon="1.0443">
        <ele>408.8</ele>
        <time>2024-08-12T09:27:20Z</time>
      </trkpt>
      <trkpt lat="43.13572" lon="1.04433">
        <ele>409.2</ele>
        <time>2024-08-12T09:27:21Z</time>
      </trkpt>
      <trkpt lat="43.13571" lon="1.04436">
        <ele>409.6</ele>
        <time>2024-08-12T09:27:22Z</time>
      </trkpt>
      <trkpt lat="43.13569" lon="1.0444">
        <ele>410</ele>
        <time>2024-08-12T09:27:23Z</time>
      </trkpt>
      <trkpt lat="43.13562" lon="1.04456">
        <ele>410</ele>
        <time>2024-08-12T09:27:28Z</time>
      </trkpt>
      <trkpt lat="43.13553" lon="1.04477">
        <ele>410</ele>
        <time>2024-08-12T09:27:33Z</time>
      </trkpt>
      <trkpt lat="43.13546" lon="1.04494">
        <ele>409.6</ele>
        <time>2024-08-12T09:27:36Z</time>
      </trkpt>
      <trkpt lat="43.13543" lon="1.045">
        <ele>409</ele>
        <time>2024-08-12T09:27:37Z</time>
      </trkpt>
      <trkpt lat="43.1354" lon="1.04505">
        <ele>408.6</ele>
        <time>2024-08-12T09:27:38Z</time>
      </trkpt>
      <trkpt lat="43.13536" lon="1.04511">
        <ele>408.2</ele>
        <time>2024-08-12T09:27:39Z</time>
      </trkpt>
      <trkpt lat="43.13531" lon="1.04517">
        <ele>407.6</ele>
        <time>2024-08-12T09:27:40Z</time>
      </trkpt>
      <trkpt lat="43.13525" lon="1.04524">
        <ele>407.2</ele>
        <time>2024-08-12T09:27:41Z</time>
      </trkpt>
      <trkpt lat="43.1352" lon="1.0453">
        <ele>406.6</ele>
        <time>2024-08-12T09:27:42Z</time>
      </trkpt>
      <trkpt lat="43.13515" lon="1.04537">
        <ele>406</ele>
        <time>2024-08-12T09:27:43Z</time>
      </trkpt>
      <trkpt lat="43.13511" lon="1.04543">
        <ele>405.6</ele>
        <time>2024-08-12T09:27:44Z</time>
      </trkpt>
      <trkpt lat="43.13508" lon="1.04549">
        <ele>405</ele>
        <time>2024-08-12T09:27:45Z</time>
      </trkpt>
      <trkpt lat="43.13505" lon="1.04555">
        <ele>405</ele>
        <time>2024-08-12T09:27:46Z</time>
      </trkpt>
      <trkpt lat="43.13489" lon="1.04584">
        <ele>405</ele>
        <time>2024-08-12T09:27:52Z</time>
      </trkpt>
      <trkpt lat="43.13479" lon="1.04609">
        <ele>405.4</ele>
        <time>2024-08-12T09:27:58Z</time>
      </trkpt>
      <trkpt lat="43.13478" lon="1.04613">
        <ele>405.8</ele>
        <time>2024-08-12T09:27:59Z</time>
      </trkpt>
      <trkpt lat="43.13477" lon="1.04617">
        <ele>406.4</ele>
        <time>2024-08-12T09:28:00Z</time>
      </trkpt>
      <trkpt lat="43.13476" lon="1.04621">
        <ele>406.8</ele>
        <time>2024-08-12T09:28:01Z</time>
      </trkpt>
      <trkpt lat="43.13475" lon="1.04625">
        <ele>407.2</ele>
        <time>2024-08-12T09:28:02Z</time>
      </trkpt>
      <trkpt lat="43.13474" lon="1.04633">
        <ele>407.2</ele>
        <time>2024-08-12T09:28:04Z</time>
      </trkpt>
      <trkpt lat="43.13473" lon="1.04645">
        <ele>407.6</ele>
        <time>2024-08-12T09:28:07Z</time>
      </trkpt>
      <trkpt lat="43.13473" lon="1.04649">
        <ele>408</ele>
        <time>2024-08-12T09:28:08Z</time>
      </trkpt>
      <trkpt lat="43.13473" lon="1.04654">
        <ele>408.4</ele>
        <time>2024-08-12T09:28:09Z</time>
      </trkpt>
      <trkpt lat="43.13472" lon="1.04658">
        <ele>408.8</ele>
        <time>2024-08-12T09:28:10Z</time>
      </trkpt>
      <trkpt lat="43.13472" lon="1.04662">
        <ele>409.2</ele>
        <time>2024-08-12T09:28:11Z</time>
      </trkpt>
      <trkpt lat="43.1347" lon="1.04678">
        <ele>409.6</ele>
        <time>2024-08-12T09:28:15Z</time>
      </trkpt>
      <trkpt lat="43.1347" lon="1.04682">
        <ele>410</ele>
        <time>2024-08-12T09:28:16Z</time>
      </trkpt>
      <trkpt lat="43.13469" lon="1.04686">
        <ele>410.4</ele>
        <time>2024-08-12T09:28:17Z</time>
      </trkpt>
      <trkpt lat="43.13469" lon="1.0469">
        <ele>410.8</ele>
        <time>2024-08-12T09:28:18Z</time>
      </trkpt>
      <trkpt lat="43.13468" lon="1.04694">
        <ele>411.2</ele>
        <time>2024-08-12T09:28:19Z</time>
      </trkpt>
      <trkpt lat="43.13465" lon="1.04719">
        <ele>411.6</ele>
        <time>2024-08-12T09:28:25Z</time>
      </trkpt>
      <trkpt lat="43.13464" lon="1.04723">
        <ele>412</ele>
        <time>2024-08-12T09:28:26Z</time>
      </trkpt>
      <trkpt lat="43.13463" lon="1.04726">
        <ele>412.6</ele>
        <time>2024-08-12T09:28:27Z</time>
      </trkpt>
      <trkpt lat="43.13463" lon="1.0473">
        <ele>413</ele>
        <time>2024-08-12T09:28:28Z</time>
      </trkpt>
      <trkpt lat="43.13462" lon="1.04734">
        <ele>413.4</ele>
        <time>2024-08-12T09:28:29Z</time>
      </trkpt>
      <trkpt lat="43.13459" lon="1.04757">
        <ele>413.4</ele>
        <time>2024-08-12T09:28:35Z</time>
      </trkpt>
      <trkpt lat="43.13458" lon="1.04773">
        <ele>413.8</ele>
        <time>2024-08-12T09:28:39Z</time>
      </trkpt>
      <trkpt lat="43.13457" lon="1.04776">
        <ele>414.2</ele>
        <time>2024-08-12T09:28:40Z</time>
      </trkpt>
      <trkpt lat="43.13457" lon="1.0478">
        <ele>414.6</ele>
        <time>2024-08-12T09:28:41Z</time>
      </trkpt>
      <trkpt lat="43.13456" lon="1.04784">
        <ele>415</ele>
        <time>2024-08-12T09:28:42Z</time>
      </trkpt>
      <trkpt lat="43.13456" lon="1.04788">
        <ele>415.4</ele>
        <time>2024-08-12T09:28:43Z</time>
      </trkpt>
      <trkpt lat="43.13453" lon="1.04814">
        <ele>415.4</ele>
        <time>2024-08-12T09:28:49Z</time>
      </trkpt>
      <trkpt lat="43.13448" lon="1.0484">
        <ele>415.4</ele>
        <time>2024-08-12T09:28:55Z</time>
      </trkpt>
      <trkpt lat="43.13445" lon="1.04874">
        <ele>415.4</ele>
        <time>2024-08-12T09:29:02Z</time>
      </trkpt>
      <trkpt lat="43.1344" lon="1.04905">
        <ele>415.4</ele>
        <time>2024-08-12T09:29:08Z</time>
      </trkpt>
      <trkpt lat="43.13432" lon="1.04943">
        <ele>415.4</ele>
        <time>2024-08-12T09:29:15Z</time>
      </trkpt>
      <trkpt lat="43.13422" lon="1.04985">
        <ele>415.4</ele>
        <time>2024-08-12T09:29:23Z</time>
      </trkpt>
      <trkpt lat="43.13415" lon="1.05027">
        <ele>415.4</ele>
        <time>2024-08-12T09:29:30Z</time>
      </trkpt>
      <trkpt lat="43.13408" lon="1.05074">
        <ele>415.4</ele>
        <time>2024-08-12T09:29:36Z</time>
      </trkpt>
      <trkpt lat="43.13402" lon="1.05103">
        <ele>415</ele>
        <time>2024-08-12T09:29:39Z</time>
      </trkpt>
      <trkpt lat="43.13399" lon="1.05112">
        <ele>414.6</ele>
        <time>2024-08-12T09:29:40Z</time>
      </trkpt>
      <trkpt lat="43.13397" lon="1.05122">
        <ele>414.2</ele>
        <time>2024-08-12T09:29:41Z</time>
      </trkpt>
      <trkpt lat="43.13395" lon="1.05132">
        <ele>413.6</ele>
        <time>2024-08-12T09:29:42Z</time>
      </trkpt>
      <trkpt lat="43.13392" lon="1.05142">
        <ele>413.2</ele>
        <time>2024-08-12T09:29:43Z</time>
      </trkpt>
      <trkpt lat="43.13389" lon="1.05153">
        <ele>412.8</ele>
        <time>2024-08-12T09:29:44Z</time>
      </trkpt>
      <trkpt lat="43.13385" lon="1.05164">
        <ele>412.2</ele>
        <time>2024-08-12T09:29:45Z</time>
      </trkpt>
      <trkpt lat="43.13381" lon="1.05174">
        <ele>411.8</ele>
        <time>2024-08-12T09:29:46Z</time>
      </trkpt>
      <trkpt lat="43.13377" lon="1.05184">
        <ele>411.4</ele>
        <time>2024-08-12T09:29:47Z</time>
      </trkpt>
      <trkpt lat="43.13373" lon="1.05194">
        <ele>410.8</ele>
        <time>2024-08-12T09:29:48Z</time>
      </trkpt>
      <trkpt lat="43.1337" lon="1.05205">
        <ele>410.8</ele>
        <time>2024-08-12T09:29:49Z</time>
      </trkpt>
      <trkpt lat="43.13367" lon="1.05216">
        <ele>410.4</ele>
        <time>2024-08-12T09:29:50Z</time>
      </trkpt>
      <trkpt lat="43.13365" lon="1.05227">
        <ele>409.8</ele>
        <time>2024-08-12T09:29:51Z</time>
      </trkpt>
      <trkpt lat="43.13362" lon="1.05238">
        <ele>409.4</ele>
        <time>2024-08-12T09:29:52Z</time>
      </trkpt>
      <trkpt lat="43.13358" lon="1.05249">
        <ele>408.8</ele>
        <time>2024-08-12T09:29:53Z</time>
      </trkpt>
      <trkpt lat="43.13355" lon="1.05259">
        <ele>408.4</ele>
        <time>2024-08-12T09:29:54Z</time>
      </trkpt>
      <trkpt lat="43.13346" lon="1.05292">
        <ele>407.8</ele>
        <time>2024-08-12T09:29:57Z</time>
      </trkpt>
      <trkpt lat="43.13342" lon="1.05303">
        <ele>407.4</ele>
        <time>2024-08-12T09:29:58Z</time>
      </trkpt>
      <trkpt lat="43.13339" lon="1.05314">
        <ele>406.8</ele>
        <time>2024-08-12T09:29:59Z</time>
      </trkpt>
      <trkpt lat="43.13336" lon="1.05326">
        <ele>405.8</ele>
        <time>2024-08-12T09:30:00Z</time>
      </trkpt>
      <trkpt lat="43.13333" lon="1.05337">
        <ele>405.4</ele>
        <time>2024-08-12T09:30:01Z</time>
      </trkpt>
      <trkpt lat="43.1333" lon="1.05347">
        <ele>404.8</ele>
        <time>2024-08-12T09:30:02Z</time>
      </trkpt>
      <trkpt lat="43.13327" lon="1.05357">
        <ele>404.4</ele>
        <time>2024-08-12T09:30:03Z</time>
      </trkpt>
      <trkpt lat="43.13323" lon="1.05366">
        <ele>403.8</ele>
        <time>2024-08-12T09:30:04Z</time>
      </trkpt>
      <trkpt lat="43.13317" lon="1.05384">
        <ele>403.4</ele>
        <time>2024-08-12T09:30:06Z</time>
      </trkpt>
      <trkpt lat="43.13313" lon="1.05394">
        <ele>403</ele>
        <time>2024-08-12T09:30:07Z</time>
      </trkpt>
      <trkpt lat="43.1331" lon="1.05404">
        <ele>402.6</ele>
        <time>2024-08-12T09:30:08Z</time>
      </trkpt>
      <trkpt lat="43.13306" lon="1.05414">
        <ele>402</ele>
        <time>2024-08-12T09:30:09Z</time>
      </trkpt>
      <trkpt lat="43.13302" lon="1.05423">
        <ele>401.6</ele>
        <time>2024-08-12T09:30:10Z</time>
      </trkpt>
      <trkpt lat="43.13298" lon="1.05433">
        <ele>401</ele>
        <time>2024-08-12T09:30:11Z</time>
      </trkpt>
      <trkpt lat="43.13294" lon="1.05443">
        <ele>400.6</ele>
        <time>2024-08-12T09:30:12Z</time>
      </trkpt>
      <trkpt lat="43.1329" lon="1.05453">
        <ele>400</ele>
        <time>2024-08-12T09:30:13Z</time>
      </trkpt>
      <trkpt lat="43.13286" lon="1.05462">
        <ele>399.6</ele>
        <time>2024-08-12T09:30:14Z</time>
      </trkpt>
      <trkpt lat="43.13272" lon="1.05489">
        <ele>399.2</ele>
        <time>2024-08-12T09:30:17Z</time>
      </trkpt>
      <trkpt lat="43.13268" lon="1.05497">
        <ele>398.6</ele>
        <time>2024-08-12T09:30:18Z</time>
      </trkpt>
      <trkpt lat="43.13264" lon="1.05505">
        <ele>398.2</ele>
        <time>2024-08-12T09:30:19Z</time>
      </trkpt>
      <trkpt lat="43.1326" lon="1.05513">
        <ele>397.8</ele>
        <time>2024-08-12T09:30:20Z</time>
      </trkpt>
      <trkpt lat="43.13257" lon="1.05521">
        <ele>397.4</ele>
        <time>2024-08-12T09:30:21Z</time>
      </trkpt>
      <trkpt lat="43.13244" lon="1.05543">
        <ele>397.4</ele>
        <time>2024-08-12T09:30:24Z</time>
      </trkpt>
      <trkpt lat="43.13232" lon="1.05562">
        <ele>397</ele>
        <time>2024-08-12T09:30:27Z</time>
      </trkpt>
      <trkpt lat="43.13227" lon="1.05568">
        <ele>396.6</ele>
        <time>2024-08-12T09:30:28Z</time>
      </trkpt>
      <trkpt lat="43.13223" lon="1.05574">
        <ele>396.2</ele>
        <time>2024-08-12T09:30:29Z</time>
      </trkpt>
      <trkpt lat="43.13219" lon="1.0558">
        <ele>395.8</ele>
        <time>2024-08-12T09:30:30Z</time>
      </trkpt>
      <trkpt lat="43.13214" lon="1.05586">
        <ele>395.4</ele>
        <time>2024-08-12T09:30:31Z</time>
      </trkpt>
      <trkpt lat="43.13183" lon="1.05628">
        <ele>395</ele>
        <time>2024-08-12T09:30:38Z</time>
      </trkpt>
      <trkpt lat="43.13178" lon="1.05634">
        <ele>394.6</ele>
        <time>2024-08-12T09:30:39Z</time>
      </trkpt>
      <trkpt lat="43.13173" lon="1.05641">
        <ele>394.2</ele>
        <time>2024-08-12T09:30:40Z</time>
      </trkpt>
      <trkpt lat="43.13168" lon="1.05648">
        <ele>393.8</ele>
        <time>2024-08-12T09:30:41Z</time>
      </trkpt>
      <trkpt lat="43.13162" lon="1.05656">
        <ele>393.4</ele>
        <time>2024-08-12T09:30:42Z</time>
      </trkpt>
      <trkpt lat="43.13157" lon="1.05665">
        <ele>392.8</ele>
        <time>2024-08-12T09:30:43Z</time>
      </trkpt>
      <trkpt lat="43.13152" lon="1.05673">
        <ele>392.2</ele>
        <time>2024-08-12T09:30:44Z</time>
      </trkpt>
      <trkpt lat="43.13146" lon="1.05683">
        <ele>391.6</ele>
        <time>2024-08-12T09:30:45Z</time>
      </trkpt>
      <trkpt lat="43.13141" lon="1.05693">
        <ele>391</ele>
        <time>2024-08-12T09:30:46Z</time>
      </trkpt>
      <trkpt lat="43.13135" lon="1.05703">
        <ele>390.4</ele>
        <time>2024-08-12T09:30:47Z</time>
      </trkpt>
      <trkpt lat="43.1313" lon="1.05712">
        <ele>389.8</ele>
        <time>2024-08-12T09:30:48Z</time>
      </trkpt>
      <trkpt lat="43.13124" lon="1.05722">
        <ele>389.2</ele>
        <time>2024-08-12T09:30:49Z</time>
      </trkpt>
      <trkpt lat="43.13119" lon="1.05733">
        <ele>388</ele>
        <time>2024-08-12T09:30:50Z</time>
      </trkpt>
      <trkpt lat="43.13114" lon="1.05743">
        <ele>387.4</ele>
        <time>2024-08-12T09:30:51Z</time>
      </trkpt>
      <trkpt lat="43.13108" lon="1.05753">
        <ele>386.8</ele>
        <time>2024-08-12T09:30:52Z</time>
      </trkpt>
      <trkpt lat="43.13102" lon="1.05762">
        <ele>386.2</ele>
        <time>2024-08-12T09:30:53Z</time>
      </trkpt>
      <trkpt lat="43.13096" lon="1.05773">
        <ele>385.6</ele>
        <time>2024-08-12T09:30:54Z</time>
      </trkpt>
      <trkpt lat="43.1309" lon="1.05783">
        <ele>384.8</ele>
        <time>2024-08-12T09:30:55Z</time>
      </trkpt>
      <trkpt lat="43.13084" lon="1.05794">
        <ele>384</ele>
        <time>2024-08-12T09:30:56Z</time>
      </trkpt>
      <trkpt lat="43.13078" lon="1.05805">
        <ele>383.2</ele>
        <time>2024-08-12T09:30:57Z</time>
      </trkpt>
      <trkpt lat="43.13072" lon="1.05818">
        <ele>382.4</ele>
        <time>2024-08-12T09:30:58Z</time>
      </trkpt>
      <trkpt lat="43.13067" lon="1.05831">
        <ele>381.6</ele>
        <time>2024-08-12T09:30:59Z</time>
      </trkpt>
      <trkpt lat="43.13062" lon="1.05846">
        <ele>380.6</ele>
        <time>2024-08-12T09:31:00Z</time>
      </trkpt>
      <trkpt lat="43.13057" lon="1.05861">
        <ele>379.6</ele>
        <time>2024-08-12T09:31:01Z</time>
      </trkpt>
      <trkpt lat="43.13051" lon="1.05874">
        <ele>378.4</ele>
        <time>2024-08-12T09:31:02Z</time>
      </trkpt>
      <trkpt lat="43.13046" lon="1.05888">
        <ele>377.4</ele>
        <time>2024-08-12T09:31:03Z</time>
      </trkpt>
      <trkpt lat="43.13041" lon="1.059">
        <ele>376.4</ele>
        <time>2024-08-12T09:31:04Z</time>
      </trkpt>
      <trkpt lat="43.13036" lon="1.05913">
        <ele>375.4</ele>
        <time>2024-08-12T09:31:05Z</time>
      </trkpt>
      <trkpt lat="43.13031" lon="1.05924">
        <ele>374.2</ele>
        <time>2024-08-12T09:31:06Z</time>
      </trkpt>
      <trkpt lat="43.13019" lon="1.05957">
        <ele>374.2</ele>
        <time>2024-08-12T09:31:09Z</time>
      </trkpt>
      <trkpt lat="43.13012" lon="1.0598">
        <ele>374.2</ele>
        <time>2024-08-12T09:31:12Z</time>
      </trkpt>
      <trkpt lat="43.13008" lon="1.05992">
        <ele>374.8</ele>
        <time>2024-08-12T09:31:14Z</time>
      </trkpt>
      <trkpt lat="43.13007" lon="1.05999">
        <ele>375.8</ele>
        <time>2024-08-12T09:31:15Z</time>
      </trkpt>
      <trkpt lat="43.13005" lon="1.06005">
        <ele>376.2</ele>
        <time>2024-08-12T09:31:16Z</time>
      </trkpt>
      <trkpt lat="43.13003" lon="1.06011">
        <ele>376.8</ele>
        <time>2024-08-12T09:31:17Z</time>
      </trkpt>
      <trkpt lat="43.12999" lon="1.06022">
        <ele>377.2</ele>
        <time>2024-08-12T09:31:19Z</time>
      </trkpt>
      <trkpt lat="43.12998" lon="1.06027">
        <ele>377.6</ele>
        <time>2024-08-12T09:31:20Z</time>
      </trkpt>
      <trkpt lat="43.12999" lon="1.06031">
        <ele>378</ele>
        <time>2024-08-12T09:31:21Z</time>
      </trkpt>
      <trkpt lat="43.13002" lon="1.06033">
        <ele>378.6</ele>
        <time>2024-08-12T09:31:22Z</time>
      </trkpt>
      <trkpt lat="43.13005" lon="1.06034">
        <ele>379</ele>
        <time>2024-08-12T09:31:23Z</time>
      </trkpt>
      <trkpt lat="43.13018" lon="1.06037">
        <ele>379</ele>
        <time>2024-08-12T09:31:26Z</time>
      </trkpt>
      <trkpt lat="43.13027" lon="1.06041">
        <ele>379</ele>
        <time>2024-08-12T09:31:28Z</time>
      </trkpt>
      <trkpt lat="43.13048" lon="1.06049">
        <ele>379</ele>
        <time>2024-08-12T09:31:33Z</time>
      </trkpt>
      <trkpt lat="43.13051" lon="1.0605">
        <ele>379</ele>
        <time>2024-08-12T09:31:34Z</time>
      </trkpt>
      <trkpt lat="43.1307" lon="1.06058">
        <ele>379</ele>
        <time>2024-08-12T09:31:39Z</time>
      </trkpt>
      <trkpt lat="43.13077" lon="1.0606">
        <ele>379.4</ele>
        <time>2024-08-12T09:31:41Z</time>
      </trkpt>
      <trkpt lat="43.1308" lon="1.06061">
        <ele>379.8</ele>
        <time>2024-08-12T09:31:42Z</time>
      </trkpt>
      <trkpt lat="43.13084" lon="1.06061">
        <ele>380.2</ele>
        <time>2024-08-12T09:31:43Z</time>
      </trkpt>
      <trkpt lat="43.13087" lon="1.06061">
        <ele>380.8</ele>
        <time>2024-08-12T09:31:44Z</time>
      </trkpt>
      <trkpt lat="43.1309" lon="1.06061">
        <ele>381.2</ele>
        <time>2024-08-12T09:31:45Z</time>
      </trkpt>
      <trkpt lat="43.13094" lon="1.0606">
        <ele>381.2</ele>
        <time>2024-08-12T09:31:46Z</time>
      </trkpt>
      <trkpt lat="43.13108" lon="1.0605">
        <ele>381.6</ele>
        <time>2024-08-12T09:31:51Z</time>
      </trkpt>
      <trkpt lat="43.13111" lon="1.06046">
        <ele>382</ele>
        <time>2024-08-12T09:31:52Z</time>
      </trkpt>
      <trkpt lat="43.13113" lon="1.06043">
        <ele>382.4</ele>
        <time>2024-08-12T09:31:53Z</time>
      </trkpt>
      <trkpt lat="43.13116" lon="1.06039">
        <ele>382.8</ele>
        <time>2024-08-12T09:31:54Z</time>
      </trkpt>
      <trkpt lat="43.13118" lon="1.06036">
        <ele>383.2</ele>
        <time>2024-08-12T09:31:55Z</time>
      </trkpt>
      <trkpt lat="43.13126" lon="1.06024">
        <ele>383.2</ele>
        <time>2024-08-12T09:31:58Z</time>
      </trkpt>
      <trkpt lat="43.13148" lon="1.05994">
        <ele>383.2</ele>
        <time>2024-08-12T09:32:07Z</time>
      </trkpt>
      <trkpt lat="43.13164" lon="1.05983">
        <ele>383.6</ele>
        <time>2024-08-12T09:32:12Z</time>
      </trkpt>
      <trkpt lat="43.13167" lon="1.05982">
        <ele>384</ele>
        <time>2024-08-12T09:32:13Z</time>
      </trkpt>
      <trkpt lat="43.13171" lon="1.0598">
        <ele>384.4</ele>
        <time>2024-08-12T09:32:14Z</time>
      </trkpt>
      <trkpt lat="43.13175" lon="1.05979">
        <ele>384.8</ele>
        <time>2024-08-12T09:32:15Z</time>
      </trkpt>
      <trkpt lat="43.13178" lon="1.05978">
        <ele>385.2</ele>
        <time>2024-08-12T09:32:16Z</time>
      </trkpt>
      <trkpt lat="43.13192" lon="1.05974">
        <ele>385.2</ele>
        <time>2024-08-12T09:32:20Z</time>
      </trkpt>
      <trkpt lat="43.13217" lon="1.05974">
        <ele>385.2</ele>
        <time>2024-08-12T09:32:27Z</time>
      </trkpt>
      <trkpt lat="43.13239" lon="1.05971">
        <ele>385.2</ele>
        <time>2024-08-12T09:32:33Z</time>
      </trkpt>
      <trkpt lat="43.13247" lon="1.05965">
        <ele>385.8</ele>
        <time>2024-08-12T09:32:36Z</time>
      </trkpt>
      <trkpt lat="43.1325" lon="1.05963">
        <ele>386.2</ele>
        <time>2024-08-12T09:32:37Z</time>
      </trkpt>
      <trkpt lat="43.13253" lon="1.05962">
        <ele>386.6</ele>
        <time>2024-08-12T09:32:38Z</time>
      </trkpt>
      <trkpt lat="43.13257" lon="1.0596">
        <ele>387</ele>
        <time>2024-08-12T09:32:39Z</time>
      </trkpt>
      <trkpt lat="43.1326" lon="1.05959">
        <ele>387.4</ele>
        <time>2024-08-12T09:32:40Z</time>
      </trkpt>
      <trkpt lat="43.13274" lon="1.05957">
        <ele>387.4</ele>
        <time>2024-08-12T09:32:44Z</time>
      </trkpt>
      <trkpt lat="43.13286" lon="1.05968">
        <ele>387.4</ele>
        <time>2024-08-12T09:32:48Z</time>
      </trkpt>
      <trkpt lat="43.13301" lon="1.05993">
        <ele>387.4</ele>
        <time>2024-08-12T09:32:54Z</time>
      </trkpt>
      <trkpt lat="43.13307" lon="1.06">
        <ele>387.4</ele>
        <time>2024-08-12T09:32:56Z</time>
      </trkpt>
      <trkpt lat="43.13321" lon="1.0601">
        <ele>387.4</ele>
        <time>2024-08-12T09:33:00Z</time>
      </trkpt>
      <trkpt lat="43.13338" lon="1.06015">
        <ele>387.4</ele>
        <time>2024-08-12T09:33:05Z</time>
      </trkpt>
      <trkpt lat="43.13361" lon="1.06013">
        <ele>387.8</ele>
        <time>2024-08-12T09:33:11Z</time>
      </trkpt>
      <trkpt lat="43.13365" lon="1.06013">
        <ele>388.2</ele>
        <time>2024-08-12T09:33:12Z</time>
      </trkpt>
      <trkpt lat="43.13369" lon="1.06012">
        <ele>388.6</ele>
        <time>2024-08-12T09:33:13Z</time>
      </trkpt>
      <trkpt lat="43.13373" lon="1.06012">
        <ele>389</ele>
        <time>2024-08-12T09:33:14Z</time>
      </trkpt>
      <trkpt lat="43.13376" lon="1.06011">
        <ele>389.4</ele>
        <time>2024-08-12T09:33:15Z</time>
      </trkpt>
      <trkpt lat="43.13384" lon="1.06009">
        <ele>389.4</ele>
        <time>2024-08-12T09:33:17Z</time>
      </trkpt>
      <trkpt lat="43.13407" lon="1.06008">
        <ele>389.4</ele>
        <time>2024-08-12T09:33:23Z</time>
      </trkpt>
      <trkpt lat="43.1342" lon="1.06022">
        <ele>389.4</ele>
        <time>2024-08-12T09:33:27Z</time>
      </trkpt>
      <trkpt lat="43.13427" lon="1.06049">
        <ele>389.4</ele>
        <time>2024-08-12T09:33:32Z</time>
      </trkpt>
      <trkpt lat="43.13435" lon="1.06092">
        <ele>389.4</ele>
        <time>2024-08-12T09:33:40Z</time>
      </trkpt>
      <trkpt lat="43.13443" lon="1.06113">
        <ele>389.4</ele>
        <time>2024-08-12T09:33:44Z</time>
      </trkpt>
      <trkpt lat="43.13449" lon="1.0612">
        <ele>389.4</ele>
        <time>2024-08-12T09:33:46Z</time>
      </trkpt>
      <trkpt lat="43.13468" lon="1.06127">
        <ele>389.4</ele>
        <time>2024-08-12T09:33:51Z</time>
      </trkpt>
      <trkpt lat="43.13479" lon="1.06126">
        <ele>389.4</ele>
        <time>2024-08-12T09:33:54Z</time>
      </trkpt>
      <trkpt lat="43.13483" lon="1.06125">
        <ele>390</ele>
        <time>2024-08-12T09:33:55Z</time>
      </trkpt>
      <trkpt lat="43.13487" lon="1.06124">
        <ele>390.4</ele>
        <time>2024-08-12T09:33:56Z</time>
      </trkpt>
      <trkpt lat="43.1349" lon="1.06123">
        <ele>390.8</ele>
        <time>2024-08-12T09:33:57Z</time>
      </trkpt>
      <trkpt lat="43.13493" lon="1.06122">
        <ele>391.2</ele>
        <time>2024-08-12T09:33:58Z</time>
      </trkpt>
      <trkpt lat="43.13497" lon="1.0612">
        <ele>391.6</ele>
        <time>2024-08-12T09:33:59Z</time>
      </trkpt>
      <trkpt lat="43.13512" lon="1.06116">
        <ele>391.6</ele>
        <time>2024-08-12T09:34:04Z</time>
      </trkpt>
      <trkpt lat="43.13518" lon="1.06114">
        <ele>392.2</ele>
        <time>2024-08-12T09:34:06Z</time>
      </trkpt>
      <trkpt lat="43.13521" lon="1.06113">
        <ele>393</ele>
        <time>2024-08-12T09:34:07Z</time>
      </trkpt>
      <trkpt lat="43.13524" lon="1.06112">
        <ele>393.4</ele>
        <time>2024-08-12T09:34:08Z</time>
      </trkpt>
      <trkpt lat="43.13526" lon="1.06111">
        <ele>393.8</ele>
        <time>2024-08-12T09:34:09Z</time>
      </trkpt>
      <trkpt lat="43.13532" lon="1.06108">
        <ele>393.8</ele>
        <time>2024-08-12T09:34:11Z</time>
      </trkpt>
      <trkpt lat="43.13548" lon="1.06097">
        <ele>394.2</ele>
        <time>2024-08-12T09:34:17Z</time>
      </trkpt>
      <trkpt lat="43.1355" lon="1.06095">
        <ele>394.8</ele>
        <time>2024-08-12T09:34:18Z</time>
      </trkpt>
      <trkpt lat="43.13553" lon="1.06093">
        <ele>395.2</ele>
        <time>2024-08-12T09:34:19Z</time>
      </trkpt>
      <trkpt lat="43.13555" lon="1.06091">
        <ele>395.6</ele>
        <time>2024-08-12T09:34:20Z</time>
      </trkpt>
      <trkpt lat="43.13557" lon="1.06089">
        <ele>396</ele>
        <time>2024-08-12T09:34:21Z</time>
      </trkpt>
      <trkpt lat="43.13567" lon="1.06081">
        <ele>396</ele>
        <time>2024-08-12T09:34:26Z</time>
      </trkpt>
      <trkpt lat="43.13575" lon="1.06077">
        <ele>396.4</ele>
        <time>2024-08-12T09:34:29Z</time>
      </trkpt>
      <trkpt lat="43.13577" lon="1.06076">
        <ele>396.8</ele>
        <time>2024-08-12T09:34:30Z</time>
      </trkpt>
      <trkpt lat="43.1358" lon="1.06076">
        <ele>397.2</ele>
        <time>2024-08-12T09:34:31Z</time>
      </trkpt>
      <trkpt lat="43.13582" lon="1.06076">
        <ele>398.2</ele>
        <time>2024-08-12T09:34:32Z</time>
      </trkpt>
      <trkpt lat="43.13585" lon="1.06076">
        <ele>398.2</ele>
        <time>2024-08-12T09:34:33Z</time>
      </trkpt>
      <trkpt lat="43.13605" lon="1.06076">
        <ele>398.2</ele>
        <time>2024-08-12T09:34:40Z</time>
      </trkpt>
      <trkpt lat="43.13613" lon="1.06071">
        <ele>398.6</ele>
        <time>2024-08-12T09:34:43Z</time>
      </trkpt>
      <trkpt lat="43.13615" lon="1.06069">
        <ele>399</ele>
        <time>2024-08-12T09:34:44Z</time>
      </trkpt>
      <trkpt lat="43.13618" lon="1.06067">
        <ele>399.4</ele>
        <time>2024-08-12T09:34:45Z</time>
      </trkpt>
      <trkpt lat="43.1362" lon="1.06066">
        <ele>399.8</ele>
        <time>2024-08-12T09:34:46Z</time>
      </trkpt>
      <trkpt lat="43.13622" lon="1.06064">
        <ele>400.4</ele>
        <time>2024-08-12T09:34:47Z</time>
      </trkpt>
      <trkpt lat="43.13637" lon="1.06052">
        <ele>400.4</ele>
        <time>2024-08-12T09:34:53Z</time>
      </trkpt>
      <trkpt lat="43.13643" lon="1.06049">
        <ele>400.8</ele>
        <time>2024-08-12T09:34:55Z</time>
      </trkpt>
      <trkpt lat="43.13646" lon="1.06048">
        <ele>401.2</ele>
        <time>2024-08-12T09:34:56Z</time>
      </trkpt>
      <trkpt lat="43.13649" lon="1.06047">
        <ele>402</ele>
        <time>2024-08-12T09:34:57Z</time>
      </trkpt>
      <trkpt lat="43.13653" lon="1.06046">
        <ele>402.4</ele>
        <time>2024-08-12T09:34:58Z</time>
      </trkpt>
      <trkpt lat="43.13656" lon="1.06045">
        <ele>402.4</ele>
        <time>2024-08-12T09:34:59Z</time>
      </trkpt>
      <trkpt lat="43.13673" lon="1.06039">
        <ele>402.4</ele>
        <time>2024-08-12T09:35:05Z</time>
      </trkpt>
      <trkpt lat="43.13679" lon="1.06039">
        <ele>402.8</ele>
        <time>2024-08-12T09:35:07Z</time>
      </trkpt>
      <trkpt lat="43.13681" lon="1.06038">
        <ele>403.2</ele>
        <time>2024-08-12T09:35:08Z</time>
      </trkpt>
      <trkpt lat="43.13684" lon="1.06038">
        <ele>403.6</ele>
        <time>2024-08-12T09:35:09Z</time>
      </trkpt>
      <trkpt lat="43.13686" lon="1.06037">
        <ele>404.2</ele>
        <time>2024-08-12T09:35:10Z</time>
      </trkpt>
      <trkpt lat="43.13689" lon="1.06036">
        <ele>404.6</ele>
        <time>2024-08-12T09:35:11Z</time>
      </trkpt>
      <trkpt lat="43.13691" lon="1.06036">
        <ele>404.6</ele>
        <time>2024-08-12T09:35:12Z</time>
      </trkpt>
      <trkpt lat="43.13707" lon="1.0603">
        <ele>405</ele>
        <time>2024-08-12T09:35:18Z</time>
      </trkpt>
      <trkpt lat="43.1371" lon="1.06029">
        <ele>405.4</ele>
        <time>2024-08-12T09:35:19Z</time>
      </trkpt>
      <trkpt lat="43.13713" lon="1.06028">
        <ele>405.8</ele>
        <time>2024-08-12T09:35:20Z</time>
      </trkpt>
      <trkpt lat="43.13716" lon="1.06026">
        <ele>406.2</ele>
        <time>2024-08-12T09:35:21Z</time>
      </trkpt>
      <trkpt lat="43.13719" lon="1.06025">
        <ele>406.6</ele>
        <time>2024-08-12T09:35:22Z</time>
      </trkpt>
      <trkpt lat="43.13727" lon="1.0602">
        <ele>406.6</ele>
        <time>2024-08-12T09:35:25Z</time>
      </trkpt>
      <trkpt lat="43.13744" lon="1.06013">
        <ele>407</ele>
        <time>2024-08-12T09:35:31Z</time>
      </trkpt>
      <trkpt lat="43.13747" lon="1.06012">
        <ele>407.4</ele>
        <time>2024-08-12T09:35:32Z</time>
      </trkpt>
      <trkpt lat="43.13749" lon="1.06011">
        <ele>407.8</ele>
        <time>2024-08-12T09:35:33Z</time>
      </trkpt>
      <trkpt lat="43.13752" lon="1.0601">
        <ele>408.2</ele>
        <time>2024-08-12T09:35:34Z</time>
      </trkpt>
      <trkpt lat="43.13754" lon="1.0601">
        <ele>408.6</ele>
        <time>2024-08-12T09:35:35Z</time>
      </trkpt>
      <trkpt lat="43.13762" lon="1.06009">
        <ele>408.6</ele>
        <time>2024-08-12T09:35:38Z</time>
      </trkpt>
      <trkpt lat="43.13773" lon="1.06009">
        <ele>409</ele>
        <time>2024-08-12T09:35:42Z</time>
      </trkpt>
      <trkpt lat="43.13776" lon="1.06009">
        <ele>409.4</ele>
        <time>2024-08-12T09:35:43Z</time>
      </trkpt>
      <trkpt lat="43.13778" lon="1.0601">
        <ele>409.8</ele>
        <time>2024-08-12T09:35:44Z</time>
      </trkpt>
      <trkpt lat="43.13781" lon="1.06011">
        <ele>410.2</ele>
        <time>2024-08-12T09:35:45Z</time>
      </trkpt>
      <trkpt lat="43.13783" lon="1.06012">
        <ele>410.6</ele>
        <time>2024-08-12T09:35:46Z</time>
      </trkpt>
      <trkpt lat="43.13792" lon="1.06018">
        <ele>410.6</ele>
        <time>2024-08-12T09:35:50Z</time>
      </trkpt>
      <trkpt lat="43.13802" lon="1.0603">
        <ele>411</ele>
        <time>2024-08-12T09:35:55Z</time>
      </trkpt>
      <trkpt lat="43.13804" lon="1.06033">
        <ele>411.4</ele>
        <time>2024-08-12T09:35:56Z</time>
      </trkpt>
      <trkpt lat="43.13806" lon="1.06036">
        <ele>412</ele>
        <time>2024-08-12T09:35:57Z</time>
      </trkpt>
      <trkpt lat="43.13808" lon="1.06039">
        <ele>412.4</ele>
        <time>2024-08-12T09:35:58Z</time>
      </trkpt>
      <trkpt lat="43.13809" lon="1.06042">
        <ele>412.8</ele>
        <time>2024-08-12T09:35:59Z</time>
      </trkpt>
      <trkpt lat="43.13826" lon="1.06066">
        <ele>412.8</ele>
        <time>2024-08-12T09:36:07Z</time>
      </trkpt>
      <trkpt lat="43.13831" lon="1.0607">
        <ele>413.2</ele>
        <time>2024-08-12T09:36:09Z</time>
      </trkpt>
      <trkpt lat="43.13833" lon="1.06071">
        <ele>413.6</ele>
        <time>2024-08-12T09:36:10Z</time>
      </trkpt>
      <trkpt lat="43.13836" lon="1.06072">
        <ele>414.4</ele>
        <time>2024-08-12T09:36:11Z</time>
      </trkpt>
      <trkpt lat="43.13839" lon="1.06073">
        <ele>414.8</ele>
        <time>2024-08-12T09:36:12Z</time>
      </trkpt>
      <trkpt lat="43.13841" lon="1.06074">
        <ele>414.8</ele>
        <time>2024-08-12T09:36:13Z</time>
      </trkpt>
      <trkpt lat="43.13857" lon="1.06075">
        <ele>415.2</ele>
        <time>2024-08-12T09:36:19Z</time>
      </trkpt>
      <trkpt lat="43.13859" lon="1.06075">
        <ele>415.6</ele>
        <time>2024-08-12T09:36:20Z</time>
      </trkpt>
      <trkpt lat="43.13862" lon="1.06075">
        <ele>416</ele>
        <time>2024-08-12T09:36:21Z</time>
      </trkpt>
      <trkpt lat="43.13865" lon="1.06074">
        <ele>416.4</ele>
        <time>2024-08-12T09:36:22Z</time>
      </trkpt>
      <trkpt lat="43.13868" lon="1.06074">
        <ele>417</ele>
        <time>2024-08-12T09:36:23Z</time>
      </trkpt>
      <trkpt lat="43.13878" lon="1.06074">
        <ele>417</ele>
        <time>2024-08-12T09:36:27Z</time>
      </trkpt>
      <trkpt lat="43.13883" lon="1.06074">
        <ele>417.4</ele>
        <time>2024-08-12T09:36:29Z</time>
      </trkpt>
      <trkpt lat="43.13886" lon="1.06074">
        <ele>417.8</ele>
        <time>2024-08-12T09:36:30Z</time>
      </trkpt>
      <trkpt lat="43.13889" lon="1.06074">
        <ele>418.2</ele>
        <time>2024-08-12T09:36:31Z</time>
      </trkpt>
      <trkpt lat="43.13892" lon="1.06074">
        <ele>418.6</ele>
        <time>2024-08-12T09:36:32Z</time>
      </trkpt>
      <trkpt lat="43.13894" lon="1.06074">
        <ele>419</ele>
        <time>2024-08-12T09:36:33Z</time>
      </trkpt>
      <trkpt lat="43.139" lon="1.06074">
        <ele>419</ele>
        <time>2024-08-12T09:36:35Z</time>
      </trkpt>
      <trkpt lat="43.13911" lon="1.06076">
        <ele>419.6</ele>
        <time>2024-08-12T09:36:39Z</time>
      </trkpt>
      <trkpt lat="43.13913" lon="1.06077">
        <ele>420</ele>
        <time>2024-08-12T09:36:40Z</time>
      </trkpt>
      <trkpt lat="43.13916" lon="1.06078">
        <ele>420.4</ele>
        <time>2024-08-12T09:36:41Z</time>
      </trkpt>
      <trkpt lat="43.13919" lon="1.06078">
        <ele>420.8</ele>
        <time>2024-08-12T09:36:42Z</time>
      </trkpt>
      <trkpt lat="43.13922" lon="1.06078">
        <ele>421.2</ele>
        <time>2024-08-12T09:36:43Z</time>
      </trkpt>
      <trkpt lat="43.13937" lon="1.06082">
        <ele>421.2</ele>
        <time>2024-08-12T09:36:49Z</time>
      </trkpt>
      <trkpt lat="43.13939" lon="1.06083">
        <ele>421.6</ele>
        <time>2024-08-12T09:36:50Z</time>
      </trkpt>
      <trkpt lat="43.13942" lon="1.06083">
        <ele>422</ele>
        <time>2024-08-12T09:36:51Z</time>
      </trkpt>
      <trkpt lat="43.13945" lon="1.06084">
        <ele>422.6</ele>
        <time>2024-08-12T09:36:52Z</time>
      </trkpt>
      <trkpt lat="43.13947" lon="1.06085">
        <ele>423</ele>
        <time>2024-08-12T09:36:53Z</time>
      </trkpt>
      <trkpt lat="43.1395" lon="1.06085">
        <ele>423.4</ele>
        <time>2024-08-12T09:36:54Z</time>
      </trkpt>
      <trkpt lat="43.13957" lon="1.06086">
        <ele>423.4</ele>
        <time>2024-08-12T09:36:57Z</time>
      </trkpt>
      <trkpt lat="43.13967" lon="1.06087">
        <ele>424.2</ele>
        <time>2024-08-12T09:37:01Z</time>
      </trkpt>
      <trkpt lat="43.1397" lon="1.06087">
        <ele>424.6</ele>
        <time>2024-08-12T09:37:02Z</time>
      </trkpt>
      <trkpt lat="43.13972" lon="1.06087">
        <ele>425</ele>
        <time>2024-08-12T09:37:03Z</time>
      </trkpt>
      <trkpt lat="43.13975" lon="1.06087">
        <ele>425.4</ele>
        <time>2024-08-12T09:37:04Z</time>
      </trkpt>
      <trkpt lat="43.13977" lon="1.06087">
        <ele>425.4</ele>
        <time>2024-08-12T09:37:05Z</time>
      </trkpt>
      <trkpt lat="43.13984" lon="1.06088">
        <ele>425.4</ele>
        <time>2024-08-12T09:37:08Z</time>
      </trkpt>
      <trkpt lat="43.13989" lon="1.06088">
        <ele>426</ele>
        <time>2024-08-12T09:37:10Z</time>
      </trkpt>
      <trkpt lat="43.13991" lon="1.06088">
        <ele>426.4</ele>
        <time>2024-08-12T09:37:11Z</time>
      </trkpt>
      <trkpt lat="43.13994" lon="1.06088">
        <ele>426.8</ele>
        <time>2024-08-12T09:37:12Z</time>
      </trkpt>
      <trkpt lat="43.13997" lon="1.06088">
        <ele>427.2</ele>
        <time>2024-08-12T09:37:13Z</time>
      </trkpt>
      <trkpt lat="43.13999" lon="1.06088">
        <ele>427.6</ele>
        <time>2024-08-12T09:37:14Z</time>
      </trkpt>
      <trkpt lat="43.14007" lon="1.06087">
        <ele>427.6</ele>
        <time>2024-08-12T09:37:17Z</time>
      </trkpt>
      <trkpt lat="43.14014" lon="1.06088">
        <ele>428</ele>
        <time>2024-08-12T09:37:20Z</time>
      </trkpt>
      <trkpt lat="43.14016" lon="1.06089">
        <ele>428.4</ele>
        <time>2024-08-12T09:37:21Z</time>
      </trkpt>
      <trkpt lat="43.14019" lon="1.0609">
        <ele>428.8</ele>
        <time>2024-08-12T09:37:22Z</time>
      </trkpt>
      <trkpt lat="43.14021" lon="1.0609">
        <ele>429.2</ele>
        <time>2024-08-12T09:37:23Z</time>
      </trkpt>
      <trkpt lat="43.14024" lon="1.0609">
        <ele>429.6</ele>
        <time>2024-08-12T09:37:24Z</time>
      </trkpt>
      <trkpt lat="43.14036" lon="1.06094">
        <ele>430</ele>
        <time>2024-08-12T09:37:29Z</time>
      </trkpt>
      <trkpt lat="43.14039" lon="1.06095">
        <ele>430.4</ele>
        <time>2024-08-12T09:37:30Z</time>
      </trkpt>
      <trkpt lat="43.14041" lon="1.06097">
        <ele>431</ele>
        <time>2024-08-12T09:37:31Z</time>
      </trkpt>
      <trkpt lat="43.14043" lon="1.06098">
        <ele>431.4</ele>
        <time>2024-08-12T09:37:32Z</time>
      </trkpt>
      <trkpt lat="43.14045" lon="1.061">
        <ele>431.8</ele>
        <time>2024-08-12T09:37:33Z</time>
      </trkpt>
      <trkpt lat="43.14059" lon="1.06113">
        <ele>432.2</ele>
        <time>2024-08-12T09:37:39Z</time>
      </trkpt>
      <trkpt lat="43.14061" lon="1.06116">
        <ele>432.6</ele>
        <time>2024-08-12T09:37:40Z</time>
      </trkpt>
      <trkpt lat="43.14063" lon="1.06118">
        <ele>433</ele>
        <time>2024-08-12T09:37:41Z</time>
      </trkpt>
      <trkpt lat="43.14065" lon="1.06121">
        <ele>433.4</ele>
        <time>2024-08-12T09:37:42Z</time>
      </trkpt>
      <trkpt lat="43.14067" lon="1.06124">
        <ele>433.8</ele>
        <time>2024-08-12T09:37:43Z</time>
      </trkpt>
      <trkpt lat="43.14072" lon="1.06132">
        <ele>433.8</ele>
        <time>2024-08-12T09:37:46Z</time>
      </trkpt>
      <trkpt lat="43.14079" lon="1.06142">
        <ele>434.6</ele>
        <time>2024-08-12T09:37:50Z</time>
      </trkpt>
      <trkpt lat="43.14081" lon="1.06144">
        <ele>435</ele>
        <time>2024-08-12T09:37:51Z</time>
      </trkpt>
      <trkpt lat="43.14082" lon="1.06147">
        <ele>435.4</ele>
        <time>2024-08-12T09:37:52Z</time>
      </trkpt>
      <trkpt lat="43.14084" lon="1.06149">
        <ele>435.8</ele>
        <time>2024-08-12T09:37:53Z</time>
      </trkpt>
      <trkpt lat="43.14089" lon="1.06152">
        <ele>435.8</ele>
        <time>2024-08-12T09:37:55Z</time>
      </trkpt>
      <trkpt lat="43.14097" lon="1.06164">
        <ele>436.4</ele>
        <time>2024-08-12T09:38:00Z</time>
      </trkpt>
      <trkpt lat="43.14099" lon="1.06167">
        <ele>436.8</ele>
        <time>2024-08-12T09:38:01Z</time>
      </trkpt>
      <trkpt lat="43.141" lon="1.06169">
        <ele>437.2</ele>
        <time>2024-08-12T09:38:02Z</time>
      </trkpt>
      <trkpt lat="43.14102" lon="1.06172">
        <ele>437.6</ele>
        <time>2024-08-12T09:38:03Z</time>
      </trkpt>
      <trkpt lat="43.14104" lon="1.06174">
        <ele>438</ele>
        <time>2024-08-12T09:38:04Z</time>
      </trkpt>
      <trkpt lat="43.1411" lon="1.06176">
        <ele>438</ele>
        <time>2024-08-12T09:38:07Z</time>
      </trkpt>
      <trkpt lat="43.1412" lon="1.06179">
        <ele>438.4</ele>
        <time>2024-08-12T09:38:11Z</time>
      </trkpt>
      <trkpt lat="43.14122" lon="1.06178">
        <ele>438.8</ele>
        <time>2024-08-12T09:38:12Z</time>
      </trkpt>
      <trkpt lat="43.14124" lon="1.06177">
        <ele>439.4</ele>
        <time>2024-08-12T09:38:13Z</time>
      </trkpt>
      <trkpt lat="43.14126" lon="1.06177">
        <ele>439.8</ele>
        <time>2024-08-12T09:38:14Z</time>
      </trkpt>
      <trkpt lat="43.14129" lon="1.06176">
        <ele>440.2</ele>
        <time>2024-08-12T09:38:15Z</time>
      </trkpt>
      <trkpt lat="43.14134" lon="1.06173">
        <ele>440.2</ele>
        <time>2024-08-12T09:38:17Z</time>
      </trkpt>
      <trkpt lat="43.1414" lon="1.06169">
        <ele>440.6</ele>
        <time>2024-08-12T09:38:20Z</time>
      </trkpt>
      <trkpt lat="43.14142" lon="1.06167">
        <ele>441</ele>
        <time>2024-08-12T09:38:21Z</time>
      </trkpt>
      <trkpt lat="43.14144" lon="1.06165">
        <ele>441.4</ele>
        <time>2024-08-12T09:38:22Z</time>
      </trkpt>
      <trkpt lat="43.14146" lon="1.06162">
        <ele>441.8</ele>
        <time>2024-08-12T09:38:23Z</time>
      </trkpt>
      <trkpt lat="43.14148" lon="1.0616">
        <ele>442.2</ele>
        <time>2024-08-12T09:38:24Z</time>
      </trkpt>
      <trkpt lat="43.1416" lon="1.06141">
        <ele>442.8</ele>
        <time>2024-08-12T09:38:31Z</time>
      </trkpt>
      <trkpt lat="43.14162" lon="1.06138">
        <ele>443.2</ele>
        <time>2024-08-12T09:38:32Z</time>
      </trkpt>
      <trkpt lat="43.14164" lon="1.06136">
        <ele>443.6</ele>
        <time>2024-08-12T09:38:33Z</time>
      </trkpt>
      <trkpt lat="43.14166" lon="1.06134">
        <ele>444</ele>
        <time>2024-08-12T09:38:34Z</time>
      </trkpt>
      <trkpt lat="43.14167" lon="1.06131">
        <ele>444.4</ele>
        <time>2024-08-12T09:38:35Z</time>
      </trkpt>
      <trkpt lat="43.14174" lon="1.06121">
        <ele>444.4</ele>
        <time>2024-08-12T09:38:39Z</time>
      </trkpt>
      <trkpt lat="43.14179" lon="1.06114">
        <ele>444.8</ele>
        <time>2024-08-12T09:38:42Z</time>
      </trkpt>
      <trkpt lat="43.1418" lon="1.06111">
        <ele>445.2</ele>
        <time>2024-08-12T09:38:43Z</time>
      </trkpt>
      <trkpt lat="43.14182" lon="1.06109">
        <ele>445.6</ele>
        <time>2024-08-12T09:38:44Z</time>
      </trkpt>
      <trkpt lat="43.14183" lon="1.06106">
        <ele>446.2</ele>
        <time>2024-08-12T09:38:45Z</time>
      </trkpt>
      <trkpt lat="43.14185" lon="1.06104">
        <ele>446.6</ele>
        <time>2024-08-12T09:38:46Z</time>
      </trkpt>
      <trkpt lat="43.14195" lon="1.06092">
        <ele>446.6</ele>
        <time>2024-08-12T09:38:51Z</time>
      </trkpt>
      <trkpt lat="43.14198" lon="1.06087">
        <ele>447</ele>
        <time>2024-08-12T09:38:53Z</time>
      </trkpt>
      <trkpt lat="43.142" lon="1.06084">
        <ele>447.4</ele>
        <time>2024-08-12T09:38:54Z</time>
      </trkpt>
      <trkpt lat="43.14202" lon="1.06081">
        <ele>447.8</ele>
        <time>2024-08-12T09:38:55Z</time>
      </trkpt>
      <trkpt lat="43.14203" lon="1.06079">
        <ele>448.2</ele>
        <time>2024-08-12T09:38:56Z</time>
      </trkpt>
      <trkpt lat="43.14205" lon="1.06077">
        <ele>448.6</ele>
        <time>2024-08-12T09:38:57Z</time>
      </trkpt>
      <trkpt lat="43.14207" lon="1.06075">
        <ele>448.6</ele>
        <time>2024-08-12T09:38:58Z</time>
      </trkpt>
      <trkpt lat="43.14218" lon="1.06059">
        <ele>449.2</ele>
        <time>2024-08-12T09:39:04Z</time>
      </trkpt>
      <trkpt lat="43.1422" lon="1.06056">
        <ele>450</ele>
        <time>2024-08-12T09:39:05Z</time>
      </trkpt>
      <trkpt lat="43.14222" lon="1.06053">
        <ele>450.4</ele>
        <time>2024-08-12T09:39:06Z</time>
      </trkpt>
      <trkpt lat="43.14223" lon="1.06051">
        <ele>450.8</ele>
        <time>2024-08-12T09:39:07Z</time>
      </trkpt>
      <trkpt lat="43.14233" lon="1.06039">
        <ele>451.2</ele>
        <time>2024-08-12T09:39:12Z</time>
      </trkpt>
      <trkpt lat="43.14235" lon="1.06037">
        <ele>451.6</ele>
        <time>2024-08-12T09:39:13Z</time>
      </trkpt>
      <trkpt lat="43.14237" lon="1.06035">
        <ele>452</ele>
        <time>2024-08-12T09:39:14Z</time>
      </trkpt>
      <trkpt lat="43.14239" lon="1.06033">
        <ele>452.4</ele>
        <time>2024-08-12T09:39:15Z</time>
      </trkpt>
      <trkpt lat="43.14241" lon="1.06031">
        <ele>452.8</ele>
        <time>2024-08-12T09:39:16Z</time>
      </trkpt>
      <trkpt lat="43.14251" lon="1.06024">
        <ele>452.8</ele>
        <time>2024-08-12T09:39:20Z</time>
      </trkpt>
      <trkpt lat="43.14256" lon="1.06021">
        <ele>453.2</ele>
        <time>2024-08-12T09:39:22Z</time>
      </trkpt>
      <trkpt lat="43.14258" lon="1.0602">
        <ele>453.8</ele>
        <time>2024-08-12T09:39:23Z</time>
      </trkpt>
      <trkpt lat="43.1426" lon="1.06019">
        <ele>454.2</ele>
        <time>2024-08-12T09:39:24Z</time>
      </trkpt>
      <trkpt lat="43.14263" lon="1.06018">
        <ele>454.6</ele>
        <time>2024-08-12T09:39:25Z</time>
      </trkpt>
      <trkpt lat="43.14265" lon="1.06017">
        <ele>455</ele>
        <time>2024-08-12T09:39:26Z</time>
      </trkpt>
      <trkpt lat="43.14268" lon="1.06017">
        <ele>455</ele>
        <time>2024-08-12T09:39:27Z</time>
      </trkpt>
      <trkpt lat="43.14281" lon="1.06016">
        <ele>455.4</ele>
        <time>2024-08-12T09:39:32Z</time>
      </trkpt>
      <trkpt lat="43.14284" lon="1.06017">
        <ele>455.8</ele>
        <time>2024-08-12T09:39:33Z</time>
      </trkpt>
      <trkpt lat="43.14286" lon="1.06017">
        <ele>456.2</ele>
        <time>2024-08-12T09:39:34Z</time>
      </trkpt>
      <trkpt lat="43.14289" lon="1.06017">
        <ele>456.6</ele>
        <time>2024-08-12T09:39:35Z</time>
      </trkpt>
      <trkpt lat="43.14292" lon="1.06016">
        <ele>457</ele>
        <time>2024-08-12T09:39:36Z</time>
      </trkpt>
      <trkpt lat="43.14302" lon="1.06018">
        <ele>457</ele>
        <time>2024-08-12T09:39:40Z</time>
      </trkpt>
      <trkpt lat="43.14307" lon="1.06018">
        <ele>457.6</ele>
        <time>2024-08-12T09:39:42Z</time>
      </trkpt>
      <trkpt lat="43.14309" lon="1.06019">
        <ele>458</ele>
        <time>2024-08-12T09:39:43Z</time>
      </trkpt>
      <trkpt lat="43.14311" lon="1.06019">
        <ele>458.4</ele>
        <time>2024-08-12T09:39:44Z</time>
      </trkpt>
      <trkpt lat="43.14314" lon="1.06019">
        <ele>458.8</ele>
        <time>2024-08-12T09:39:45Z</time>
      </trkpt>
      <trkpt lat="43.14316" lon="1.06019">
        <ele>459.2</ele>
        <time>2024-08-12T09:39:46Z</time>
      </trkpt>
      <trkpt lat="43.14322" lon="1.0602">
        <ele>459.2</ele>
        <time>2024-08-12T09:39:48Z</time>
      </trkpt>
      <trkpt lat="43.14332" lon="1.06019">
        <ele>459.6</ele>
        <time>2024-08-12T09:39:52Z</time>
      </trkpt>
      <trkpt lat="43.14334" lon="1.06019">
        <ele>460</ele>
        <time>2024-08-12T09:39:53Z</time>
      </trkpt>
      <trkpt lat="43.14337" lon="1.06019">
        <ele>460.8</ele>
        <time>2024-08-12T09:39:54Z</time>
      </trkpt>
      <trkpt lat="43.14339" lon="1.06018">
        <ele>461.2</ele>
        <time>2024-08-12T09:39:55Z</time>
      </trkpt>
      <trkpt lat="43.14353" lon="1.06011">
        <ele>461.2</ele>
        <time>2024-08-12T09:40:00Z</time>
      </trkpt>
      <trkpt lat="43.14355" lon="1.06009">
        <ele>461.8</ele>
        <time>2024-08-12T09:40:01Z</time>
      </trkpt>
      <trkpt lat="43.14358" lon="1.06006">
        <ele>462.2</ele>
        <time>2024-08-12T09:40:02Z</time>
      </trkpt>
      <trkpt lat="43.14359" lon="1.06003">
        <ele>462.6</ele>
        <time>2024-08-12T09:40:03Z</time>
      </trkpt>
      <trkpt lat="43.14361" lon="1.05999">
        <ele>463</ele>
        <time>2024-08-12T09:40:04Z</time>
      </trkpt>
      <trkpt lat="43.14362" lon="1.05995">
        <ele>463.4</ele>
        <time>2024-08-12T09:40:05Z</time>
      </trkpt>
      <trkpt lat="43.14368" lon="1.05976">
        <ele>463.8</ele>
        <time>2024-08-12T09:40:10Z</time>
      </trkpt>
      <trkpt lat="43.14369" lon="1.05973">
        <ele>464.4</ele>
        <time>2024-08-12T09:40:11Z</time>
      </trkpt>
      <trkpt lat="43.1437" lon="1.05969">
        <ele>464.8</ele>
        <time>2024-08-12T09:40:12Z</time>
      </trkpt>
      <trkpt lat="43.14371" lon="1.05965">
        <ele>465.2</ele>
        <time>2024-08-12T09:40:13Z</time>
      </trkpt>
      <trkpt lat="43.14372" lon="1.05961">
        <ele>465.6</ele>
        <time>2024-08-12T09:40:14Z</time>
      </trkpt>
      <trkpt lat="43.14375" lon="1.05951">
        <ele>465.6</ele>
        <time>2024-08-12T09:40:17Z</time>
      </trkpt>
      <trkpt lat="43.14377" lon="1.05944">
        <ele>466</ele>
        <time>2024-08-12T09:40:19Z</time>
      </trkpt>
      <trkpt lat="43.14378" lon="1.05941">
        <ele>466.6</ele>
        <time>2024-08-12T09:40:20Z</time>
      </trkpt>
      <trkpt lat="43.14379" lon="1.05938">
        <ele>467</ele>
        <time>2024-08-12T09:40:21Z</time>
      </trkpt>
      <trkpt lat="43.14381" lon="1.05935">
        <ele>467.4</ele>
        <time>2024-08-12T09:40:22Z</time>
      </trkpt>
      <trkpt lat="43.14382" lon="1.05932">
        <ele>467.8</ele>
        <time>2024-08-12T09:40:23Z</time>
      </trkpt>
      <trkpt lat="43.14384" lon="1.05929">
        <ele>467.8</ele>
        <time>2024-08-12T09:40:24Z</time>
      </trkpt>
      <trkpt lat="43.14391" lon="1.05914">
        <ele>468.2</ele>
        <time>2024-08-12T09:40:29Z</time>
      </trkpt>
      <trkpt lat="43.14392" lon="1.05911">
        <ele>468.8</ele>
        <time>2024-08-12T09:40:30Z</time>
      </trkpt>
      <trkpt lat="43.14394" lon="1.05909">
        <ele>469.2</ele>
        <time>2024-08-12T09:40:31Z</time>
      </trkpt>
      <trkpt lat="43.14395" lon="1.05906">
        <ele>469.6</ele>
        <time>2024-08-12T09:40:32Z</time>
      </trkpt>
      <trkpt lat="43.14396" lon="1.05903">
        <ele>470</ele>
        <time>2024-08-12T09:40:33Z</time>
      </trkpt>
      <trkpt lat="43.14402" lon="1.05893">
        <ele>470</ele>
        <time>2024-08-12T09:40:37Z</time>
      </trkpt>
      <trkpt lat="43.14406" lon="1.05885">
        <ele>470.4</ele>
        <time>2024-08-12T09:40:40Z</time>
      </trkpt>
      <trkpt lat="43.14408" lon="1.05882">
        <ele>470.8</ele>
        <time>2024-08-12T09:40:41Z</time>
      </trkpt>
      <trkpt lat="43.14409" lon="1.0588">
        <ele>471.2</ele>
        <time>2024-08-12T09:40:42Z</time>
      </trkpt>
      <trkpt lat="43.14411" lon="1.05877">
        <ele>471.6</ele>
        <time>2024-08-12T09:40:43Z</time>
      </trkpt>
      <trkpt lat="43.14413" lon="1.05874">
        <ele>472</ele>
        <time>2024-08-12T09:40:44Z</time>
      </trkpt>
      <trkpt lat="43.14422" lon="1.05861">
        <ele>472.4</ele>
        <time>2024-08-12T09:40:49Z</time>
      </trkpt>
      <trkpt lat="43.14423" lon="1.05858">
        <ele>472.8</ele>
        <time>2024-08-12T09:40:50Z</time>
      </trkpt>
      <trkpt lat="43.14425" lon="1.05855">
        <ele>473.2</ele>
        <time>2024-08-12T09:40:51Z</time>
      </trkpt>
      <trkpt lat="43.14426" lon="1.05853">
        <ele>473.6</ele>
        <time>2024-08-12T09:40:52Z</time>
      </trkpt>
      <trkpt lat="43.14427" lon="1.0585">
        <ele>474</ele>
        <time>2024-08-12T09:40:53Z</time>
      </trkpt>
      <trkpt lat="43.14432" lon="1.05841">
        <ele>474</ele>
        <time>2024-08-12T09:40:57Z</time>
      </trkpt>
      <trkpt lat="43.14433" lon="1.05837">
        <ele>474.4</ele>
        <time>2024-08-12T09:40:58Z</time>
      </trkpt>
      <trkpt lat="43.14435" lon="1.05834">
        <ele>474.8</ele>
        <time>2024-08-12T09:40:59Z</time>
      </trkpt>
      <trkpt lat="43.14436" lon="1.05831">
        <ele>475.2</ele>
        <time>2024-08-12T09:41:00Z</time>
      </trkpt>
      <trkpt lat="43.14438" lon="1.05828">
        <ele>475.6</ele>
        <time>2024-08-12T09:41:01Z</time>
      </trkpt>
      <trkpt lat="43.14439" lon="1.05825">
        <ele>476</ele>
        <time>2024-08-12T09:41:02Z</time>
      </trkpt>
      <trkpt lat="43.14441" lon="1.05822">
        <ele>476</ele>
        <time>2024-08-12T09:41:03Z</time>
      </trkpt>
      <trkpt lat="43.14446" lon="1.05808">
        <ele>476.6</ele>
        <time>2024-08-12T09:41:07Z</time>
      </trkpt>
      <trkpt lat="43.14447" lon="1.05804">
        <ele>477</ele>
        <time>2024-08-12T09:41:08Z</time>
      </trkpt>
      <trkpt lat="43.14448" lon="1.058">
        <ele>477.8</ele>
        <time>2024-08-12T09:41:09Z</time>
      </trkpt>
      <trkpt lat="43.1445" lon="1.05797">
        <ele>478.2</ele>
        <time>2024-08-12T09:41:10Z</time>
      </trkpt>
      <trkpt lat="43.14455" lon="1.05783">
        <ele>478.6</ele>
        <time>2024-08-12T09:41:14Z</time>
      </trkpt>
      <trkpt lat="43.14456" lon="1.05779">
        <ele>479.2</ele>
        <time>2024-08-12T09:41:15Z</time>
      </trkpt>
      <trkpt lat="43.14457" lon="1.05775">
        <ele>479.6</ele>
        <time>2024-08-12T09:41:16Z</time>
      </trkpt>
      <trkpt lat="43.14458" lon="1.05772">
        <ele>480</ele>
        <time>2024-08-12T09:41:17Z</time>
      </trkpt>
      <trkpt lat="43.14459" lon="1.05768">
        <ele>480.4</ele>
        <time>2024-08-12T09:41:18Z</time>
      </trkpt>
      <trkpt lat="43.14465" lon="1.05746">
        <ele>480.8</ele>
        <time>2024-08-12T09:41:24Z</time>
      </trkpt>
      <trkpt lat="43.14467" lon="1.05742">
        <ele>481.2</ele>
        <time>2024-08-12T09:41:25Z</time>
      </trkpt>
      <trkpt lat="43.14469" lon="1.05738">
        <ele>481.6</ele>
        <time>2024-08-12T09:41:26Z</time>
      </trkpt>
      <trkpt lat="43.1447" lon="1.05734">
        <ele>482</ele>
        <time>2024-08-12T09:41:27Z</time>
      </trkpt>
      <trkpt lat="43.14472" lon="1.0573">
        <ele>482.4</ele>
        <time>2024-08-12T09:41:28Z</time>
      </trkpt>
      <trkpt lat="43.14473" lon="1.05726">
        <ele>482.4</ele>
        <time>2024-08-12T09:41:29Z</time>
      </trkpt>
      <trkpt lat="43.14477" lon="1.05713">
        <ele>483.2</ele>
        <time>2024-08-12T09:41:33Z</time>
      </trkpt>
      <trkpt lat="43.14477" lon="1.05711">
        <ele>483.8</ele>
        <time>2024-08-12T09:41:34Z</time>
      </trkpt>
      <trkpt lat="43.14478" lon="1.05709">
        <ele>484.2</ele>
        <time>2024-08-12T09:41:35Z</time>
      </trkpt>
      <trkpt lat="43.14479" lon="1.05705">
        <ele>484.6</ele>
        <time>2024-08-12T09:41:36Z</time>
      </trkpt>
      <trkpt lat="43.14488" lon="1.05686">
        <ele>485</ele>
        <time>2024-08-12T09:41:42Z</time>
      </trkpt>
      <trkpt lat="43.14489" lon="1.05682">
        <ele>485.4</ele>
        <time>2024-08-12T09:41:43Z</time>
      </trkpt>
      <trkpt lat="43.1449" lon="1.05679">
        <ele>485.8</ele>
        <time>2024-08-12T09:41:44Z</time>
      </trkpt>
      <trkpt lat="43.14492" lon="1.05677">
        <ele>486.4</ele>
        <time>2024-08-12T09:41:45Z</time>
      </trkpt>
      <trkpt lat="43.14494" lon="1.05673">
        <ele>486.8</ele>
        <time>2024-08-12T09:41:46Z</time>
      </trkpt>
      <trkpt lat="43.14495" lon="1.05671">
        <ele>486.8</ele>
        <time>2024-08-12T09:41:47Z</time>
      </trkpt>
      <trkpt lat="43.14504" lon="1.05656">
        <ele>487.2</ele>
        <time>2024-08-12T09:41:52Z</time>
      </trkpt>
      <trkpt lat="43.14506" lon="1.05654">
        <ele>487.6</ele>
        <time>2024-08-12T09:41:53Z</time>
      </trkpt>
      <trkpt lat="43.14508" lon="1.05651">
        <ele>488</ele>
        <time>2024-08-12T09:41:54Z</time>
      </trkpt>
      <trkpt lat="43.1451" lon="1.05648">
        <ele>488.4</ele>
        <time>2024-08-12T09:41:55Z</time>
      </trkpt>
      <trkpt lat="43.14511" lon="1.05645">
        <ele>488.8</ele>
        <time>2024-08-12T09:41:56Z</time>
      </trkpt>
      <trkpt lat="43.14519" lon="1.05637">
        <ele>488.8</ele>
        <time>2024-08-12T09:41:59Z</time>
      </trkpt>
      <trkpt lat="43.14533" lon="1.05619">
        <ele>488.8</ele>
        <time>2024-08-12T09:42:04Z</time>
      </trkpt>
      <trkpt lat="43.1455" lon="1.05601">
        <ele>488.4</ele>
        <time>2024-08-12T09:42:08Z</time>
      </trkpt>
      <trkpt lat="43.14555" lon="1.05597">
        <ele>487.8</ele>
        <time>2024-08-12T09:42:09Z</time>
      </trkpt>
      <trkpt lat="43.1456" lon="1.05594">
        <ele>487.4</ele>
        <time>2024-08-12T09:42:10Z</time>
      </trkpt>
      <trkpt lat="43.14565" lon="1.05592">
        <ele>487</ele>
        <time>2024-08-12T09:42:11Z</time>
      </trkpt>
      <trkpt lat="43.1457" lon="1.05591">
        <ele>486.4</ele>
        <time>2024-08-12T09:42:12Z</time>
      </trkpt>
      <trkpt lat="43.14576" lon="1.05592">
        <ele>485.8</ele>
        <time>2024-08-12T09:42:13Z</time>
      </trkpt>
      <trkpt lat="43.14582" lon="1.05593">
        <ele>485.4</ele>
        <time>2024-08-12T09:42:14Z</time>
      </trkpt>
      <trkpt lat="43.14587" lon="1.05595">
        <ele>484.8</ele>
        <time>2024-08-12T09:42:15Z</time>
      </trkpt>
      <trkpt lat="43.14593" lon="1.05598">
        <ele>484.2</ele>
        <time>2024-08-12T09:42:16Z</time>
      </trkpt>
      <trkpt lat="43.14598" lon="1.05601">
        <ele>483.8</ele>
        <time>2024-08-12T09:42:17Z</time>
      </trkpt>
      <trkpt lat="43.14603" lon="1.05605">
        <ele>483.4</ele>
        <time>2024-08-12T09:42:18Z</time>
      </trkpt>
      <trkpt lat="43.14608" lon="1.05609">
        <ele>483</ele>
        <time>2024-08-12T09:42:19Z</time>
      </trkpt>
      <trkpt lat="43.14613" lon="1.05615">
        <ele>482.6</ele>
        <time>2024-08-12T09:42:20Z</time>
      </trkpt>
      <trkpt lat="43.14618" lon="1.0562">
        <ele>482.2</ele>
        <time>2024-08-12T09:42:21Z</time>
      </trkpt>
      <trkpt lat="43.14623" lon="1.05626">
        <ele>481.6</ele>
        <time>2024-08-12T09:42:22Z</time>
      </trkpt>
      <trkpt lat="43.14627" lon="1.05633">
        <ele>480.8</ele>
        <time>2024-08-12T09:42:23Z</time>
      </trkpt>
      <trkpt lat="43.14631" lon="1.0564">
        <ele>480.2</ele>
        <time>2024-08-12T09:42:24Z</time>
      </trkpt>
      <trkpt lat="43.14634" lon="1.05647">
        <ele>479.8</ele>
        <time>2024-08-12T09:42:25Z</time>
      </trkpt>
      <trkpt lat="43.1464" lon="1.05663">
        <ele>479.4</ele>
        <time>2024-08-12T09:42:27Z</time>
      </trkpt>
      <trkpt lat="43.14642" lon="1.05671">
        <ele>478.8</ele>
        <time>2024-08-12T09:42:28Z</time>
      </trkpt>
      <trkpt lat="43.14644" lon="1.0568">
        <ele>478.4</ele>
        <time>2024-08-12T09:42:29Z</time>
      </trkpt>
      <trkpt lat="43.14645" lon="1.05689">
        <ele>477.8</ele>
        <time>2024-08-12T09:42:30Z</time>
      </trkpt>
      <trkpt lat="43.14646" lon="1.05699">
        <ele>477.2</ele>
        <time>2024-08-12T09:42:31Z</time>
      </trkpt>
      <trkpt lat="43.14647" lon="1.05709">
        <ele>476.6</ele>
        <time>2024-08-12T09:42:32Z</time>
      </trkpt>
      <trkpt lat="43.14648" lon="1.05719">
        <ele>476</ele>
        <time>2024-08-12T09:42:33Z</time>
      </trkpt>
      <trkpt lat="43.14649" lon="1.05729">
        <ele>475.4</ele>
        <time>2024-08-12T09:42:34Z</time>
      </trkpt>
      <trkpt lat="43.14649" lon="1.05739">
        <ele>474.8</ele>
        <time>2024-08-12T09:42:35Z</time>
      </trkpt>
      <trkpt lat="43.1465" lon="1.0575">
        <ele>474.4</ele>
        <time>2024-08-12T09:42:36Z</time>
      </trkpt>
      <trkpt lat="43.14652" lon="1.05759">
        <ele>473.8</ele>
        <time>2024-08-12T09:42:37Z</time>
      </trkpt>
      <trkpt lat="43.14653" lon="1.05768">
        <ele>473.2</ele>
        <time>2024-08-12T09:42:38Z</time>
      </trkpt>
      <trkpt lat="43.14657" lon="1.05775">
        <ele>472.8</ele>
        <time>2024-08-12T09:42:39Z</time>
      </trkpt>
      <trkpt lat="43.14662" lon="1.0578">
        <ele>472.2</ele>
        <time>2024-08-12T09:42:40Z</time>
      </trkpt>
      <trkpt lat="43.14668" lon="1.05782">
        <ele>471.8</ele>
        <time>2024-08-12T09:42:41Z</time>
      </trkpt>
      <trkpt lat="43.14673" lon="1.05781">
        <ele>471.2</ele>
        <time>2024-08-12T09:42:42Z</time>
      </trkpt>
      <trkpt lat="43.14681" lon="1.05776">
        <ele>470.6</ele>
        <time>2024-08-12T09:42:43Z</time>
      </trkpt>
      <trkpt lat="43.14689" lon="1.05768">
        <ele>470</ele>
        <time>2024-08-12T09:42:44Z</time>
      </trkpt>
      <trkpt lat="43.14697" lon="1.05761">
        <ele>469.4</ele>
        <time>2024-08-12T09:42:45Z</time>
      </trkpt>
      <trkpt lat="43.14706" lon="1.05753">
        <ele>468.8</ele>
        <time>2024-08-12T09:42:46Z</time>
      </trkpt>
      <trkpt lat="43.14713" lon="1.05745">
        <ele>467.6</ele>
        <time>2024-08-12T09:42:47Z</time>
      </trkpt>
      <trkpt lat="43.1472" lon="1.05737">
        <ele>466.8</ele>
        <time>2024-08-12T09:42:48Z</time>
      </trkpt>
      <trkpt lat="43.14724" lon="1.05726">
        <ele>466.2</ele>
        <time>2024-08-12T09:42:49Z</time>
      </trkpt>
      <trkpt lat="43.14727" lon="1.05714">
        <ele>465.4</ele>
        <time>2024-08-12T09:42:50Z</time>
      </trkpt>
      <trkpt lat="43.14729" lon="1.05702">
        <ele>464.6</ele>
        <time>2024-08-12T09:42:51Z</time>
      </trkpt>
      <trkpt lat="43.14729" lon="1.05688">
        <ele>463.8</ele>
        <time>2024-08-12T09:42:52Z</time>
      </trkpt>
      <trkpt lat="43.14728" lon="1.05675">
        <ele>463</ele>
        <time>2024-08-12T09:42:53Z</time>
      </trkpt>
      <trkpt lat="43.14725" lon="1.05663">
        <ele>462.2</ele>
        <time>2024-08-12T09:42:54Z</time>
      </trkpt>
      <trkpt lat="43.14722" lon="1.05652">
        <ele>461.4</ele>
        <time>2024-08-12T09:42:55Z</time>
      </trkpt>
      <trkpt lat="43.14722" lon="1.05642">
        <ele>460.6</ele>
        <time>2024-08-12T09:42:56Z</time>
      </trkpt>
      <trkpt lat="43.14724" lon="1.05632">
        <ele>459.8</ele>
        <time>2024-08-12T09:42:57Z</time>
      </trkpt>
      <trkpt lat="43.14729" lon="1.05624">
        <ele>459</ele>
        <time>2024-08-12T09:42:58Z</time>
      </trkpt>
      <trkpt lat="43.14735" lon="1.05617">
        <ele>458.4</ele>
        <time>2024-08-12T09:42:59Z</time>
      </trkpt>
      <trkpt lat="43.14743" lon="1.05612">
        <ele>457.8</ele>
        <time>2024-08-12T09:43:00Z</time>
      </trkpt>
      <trkpt lat="43.14751" lon="1.05607">
        <ele>457</ele>
        <time>2024-08-12T09:43:01Z</time>
      </trkpt>
      <trkpt lat="43.14759" lon="1.05603">
        <ele>456.6</ele>
        <time>2024-08-12T09:43:02Z</time>
      </trkpt>
      <trkpt lat="43.14768" lon="1.05598">
        <ele>456</ele>
        <time>2024-08-12T09:43:03Z</time>
      </trkpt>
      <trkpt lat="43.14777" lon="1.05595">
        <ele>455.4</ele>
        <time>2024-08-12T09:43:04Z</time>
      </trkpt>
      <trkpt lat="43.14787" lon="1.05592">
        <ele>454.8</ele>
        <time>2024-08-12T09:43:05Z</time>
      </trkpt>
      <trkpt lat="43.14797" lon="1.0559">
        <ele>454</ele>
        <time>2024-08-12T09:43:06Z</time>
      </trkpt>
      <trkpt lat="43.14807" lon="1.05588">
        <ele>453.4</ele>
        <time>2024-08-12T09:43:07Z</time>
      </trkpt>
      <trkpt lat="43.14817" lon="1.05584">
        <ele>452.6</ele>
        <time>2024-08-12T09:43:08Z</time>
      </trkpt>
      <trkpt lat="43.14826" lon="1.05579">
        <ele>452</ele>
        <time>2024-08-12T09:43:09Z</time>
      </trkpt>
      <trkpt lat="43.14836" lon="1.05573">
        <ele>451.2</ele>
        <time>2024-08-12T09:43:10Z</time>
      </trkpt>
      <trkpt lat="43.14846" lon="1.05567">
        <ele>450.4</ele>
        <time>2024-08-12T09:43:11Z</time>
      </trkpt>
      <trkpt lat="43.14857" lon="1.05562">
        <ele>448.6</ele>
        <time>2024-08-12T09:43:12Z</time>
      </trkpt>
      <trkpt lat="43.14868" lon="1.05559">
        <ele>447.8</ele>
        <time>2024-08-12T09:43:13Z</time>
      </trkpt>
      <trkpt lat="43.1488" lon="1.05558">
        <ele>447</ele>
        <time>2024-08-12T09:43:14Z</time>
      </trkpt>
      <trkpt lat="43.14891" lon="1.05556">
        <ele>446.2</ele>
        <time>2024-08-12T09:43:15Z</time>
      </trkpt>
      <trkpt lat="43.14901" lon="1.0555">
        <ele>445.4</ele>
        <time>2024-08-12T09:43:16Z</time>
      </trkpt>
      <trkpt lat="43.14909" lon="1.0554">
        <ele>444.6</ele>
        <time>2024-08-12T09:43:17Z</time>
      </trkpt>
      <trkpt lat="43.14917" lon="1.05529">
        <ele>444</ele>
        <time>2024-08-12T09:43:18Z</time>
      </trkpt>
      <trkpt lat="43.14924" lon="1.05518">
        <ele>443.2</ele>
        <time>2024-08-12T09:43:19Z</time>
      </trkpt>
      <trkpt lat="43.14932" lon="1.05506">
        <ele>442.4</ele>
        <time>2024-08-12T09:43:20Z</time>
      </trkpt>
      <trkpt lat="43.14939" lon="1.05493">
        <ele>441.6</ele>
        <time>2024-08-12T09:43:21Z</time>
      </trkpt>
      <trkpt lat="43.14946" lon="1.05481">
        <ele>440.8</ele>
        <time>2024-08-12T09:43:22Z</time>
      </trkpt>
      <trkpt lat="43.14954" lon="1.05469">
        <ele>440</ele>
        <time>2024-08-12T09:43:23Z</time>
      </trkpt>
      <trkpt lat="43.14964" lon="1.05461">
        <ele>439.2</ele>
        <time>2024-08-12T09:43:24Z</time>
      </trkpt>
      <trkpt lat="43.14975" lon="1.05455">
        <ele>438.4</ele>
        <time>2024-08-12T09:43:25Z</time>
      </trkpt>
      <trkpt lat="43.14985" lon="1.0545">
        <ele>437.6</ele>
        <time>2024-08-12T09:43:26Z</time>
      </trkpt>
      <trkpt lat="43.14996" lon="1.05446">
        <ele>436.8</ele>
        <time>2024-08-12T09:43:27Z</time>
      </trkpt>
      <trkpt lat="43.15005" lon="1.05444">
        <ele>436</ele>
        <time>2024-08-12T09:43:28Z</time>
      </trkpt>
      <trkpt lat="43.15012" lon="1.05442">
        <ele>435.2</ele>
        <time>2024-08-12T09:43:29Z</time>
      </trkpt>
      <trkpt lat="43.15018" lon="1.05441">
        <ele>434.4</ele>
        <time>2024-08-12T09:43:30Z</time>
      </trkpt>
      <trkpt lat="43.15022" lon="1.05442">
        <ele>433.6</ele>
        <time>2024-08-12T09:43:31Z</time>
      </trkpt>
      <trkpt lat="43.15023" lon="1.05444">
        <ele>432.8</ele>
        <time>2024-08-12T09:43:32Z</time>
      </trkpt>
      <trkpt lat="43.15024" lon="1.05447">
        <ele>432</ele>
        <time>2024-08-12T09:43:33Z</time>
      </trkpt>
      <trkpt lat="43.15024" lon="1.0545">
        <ele>431.6</ele>
        <time>2024-08-12T09:43:34Z</time>
      </trkpt>
      <trkpt lat="43.15023" lon="1.05452">
        <ele>431</ele>
        <time>2024-08-12T09:43:35Z</time>
      </trkpt>
      <trkpt lat="43.1502" lon="1.05457">
        <ele>430.6</ele>
        <time>2024-08-12T09:43:36Z</time>
      </trkpt>
      <trkpt lat="43.15017" lon="1.05462">
        <ele>429.4</ele>
        <time>2024-08-12T09:43:37Z</time>
      </trkpt>
      <trkpt lat="43.15015" lon="1.05467">
        <ele>428.6</ele>
        <time>2024-08-12T09:43:38Z</time>
      </trkpt>
      <trkpt lat="43.15014" lon="1.05472">
        <ele>427.8</ele>
        <time>2024-08-12T09:43:39Z</time>
      </trkpt>
      <trkpt lat="43.15014" lon="1.05475">
        <ele>427</ele>
        <time>2024-08-12T09:43:40Z</time>
      </trkpt>
      <trkpt lat="43.15015" lon="1.05477">
        <ele>426.2</ele>
        <time>2024-08-12T09:43:41Z</time>
      </trkpt>
      <trkpt lat="43.15017" lon="1.05476">
        <ele>425.4</ele>
        <time>2024-08-12T09:43:42Z</time>
      </trkpt>
      <trkpt lat="43.15019" lon="1.05476">
        <ele>424.6</ele>
        <time>2024-08-12T09:43:43Z</time>
      </trkpt>
      <trkpt lat="43.15021" lon="1.05476">
        <ele>423.8</ele>
        <time>2024-08-12T09:43:44Z</time>
      </trkpt>
      <trkpt lat="43.15023" lon="1.05477">
        <ele>423</ele>
        <time>2024-08-12T09:43:45Z</time>
      </trkpt>
      <trkpt lat="43.15029" lon="1.05478">
        <ele>422.6</ele>
        <time>2024-08-12T09:43:48Z</time>
      </trkpt>
      <trkpt lat="43.15033" lon="1.05477">
        <ele>422.2</ele>
        <time>2024-08-12T09:43:49Z</time>
      </trkpt>
      <trkpt lat="43.15038" lon="1.05477">
        <ele>421.8</ele>
        <time>2024-08-12T09:43:50Z</time>
      </trkpt>
      <trkpt lat="43.15042" lon="1.05478">
        <ele>421.4</ele>
        <time>2024-08-12T09:43:51Z</time>
      </trkpt>
      <trkpt lat="43.15046" lon="1.05478">
        <ele>421</ele>
        <time>2024-08-12T09:43:52Z</time>
      </trkpt>
      <trkpt lat="43.15049" lon="1.05478">
        <ele>420.4</ele>
        <time>2024-08-12T09:43:53Z</time>
      </trkpt>
      <trkpt lat="43.15053" lon="1.05478">
        <ele>420</ele>
        <time>2024-08-12T09:43:54Z</time>
      </trkpt>
      <trkpt lat="43.15057" lon="1.05478">
        <ele>419.6</ele>
        <time>2024-08-12T09:43:55Z</time>
      </trkpt>
      <trkpt lat="43.15061" lon="1.05478">
        <ele>419.2</ele>
        <time>2024-08-12T09:43:56Z</time>
      </trkpt>
      <trkpt lat="43.15064" lon="1.05478">
        <ele>418.8</ele>
        <time>2024-08-12T09:43:57Z</time>
      </trkpt>
      <trkpt lat="43.15072" lon="1.05477">
        <ele>418.2</ele>
        <time>2024-08-12T09:43:59Z</time>
      </trkpt>
      <trkpt lat="43.15077" lon="1.05477">
        <ele>417.8</ele>
        <time>2024-08-12T09:44:00Z</time>
      </trkpt>
      <trkpt lat="43.15082" lon="1.05475">
        <ele>416.6</ele>
        <time>2024-08-12T09:44:01Z</time>
      </trkpt>
      <trkpt lat="43.15087" lon="1.05475">
        <ele>416</ele>
        <time>2024-08-12T09:44:02Z</time>
      </trkpt>
      <trkpt lat="43.15093" lon="1.05472">
        <ele>415.4</ele>
        <time>2024-08-12T09:44:03Z</time>
      </trkpt>
      <trkpt lat="43.15099" lon="1.05469">
        <ele>414.6</ele>
        <time>2024-08-12T09:44:04Z</time>
      </trkpt>
      <trkpt lat="43.15106" lon="1.05465">
        <ele>413.8</ele>
        <time>2024-08-12T09:44:05Z</time>
      </trkpt>
      <trkpt lat="43.15113" lon="1.05461">
        <ele>413</ele>
        <time>2024-08-12T09:44:06Z</time>
      </trkpt>
      <trkpt lat="43.15121" lon="1.05457">
        <ele>412</ele>
        <time>2024-08-12T09:44:07Z</time>
      </trkpt>
      <trkpt lat="43.15129" lon="1.05453">
        <ele>411.2</ele>
        <time>2024-08-12T09:44:08Z</time>
      </trkpt>
      <trkpt lat="43.15138" lon="1.05447">
        <ele>410</ele>
        <time>2024-08-12T09:44:09Z</time>
      </trkpt>
      <trkpt lat="43.15146" lon="1.05443">
        <ele>409</ele>
        <time>2024-08-12T09:44:10Z</time>
      </trkpt>
      <trkpt lat="43.15154" lon="1.05439">
        <ele>407.8</ele>
        <time>2024-08-12T09:44:11Z</time>
      </trkpt>
      <trkpt lat="43.15161" lon="1.05434">
        <ele>406.6</ele>
        <time>2024-08-12T09:44:12Z</time>
      </trkpt>
      <trkpt lat="43.15168" lon="1.0543">
        <ele>405.4</ele>
        <time>2024-08-12T09:44:13Z</time>
      </trkpt>
      <trkpt lat="43.15176" lon="1.05426">
        <ele>404.4</ele>
        <time>2024-08-12T09:44:14Z</time>
      </trkpt>
      <trkpt lat="43.15183" lon="1.05421">
        <ele>403.2</ele>
        <time>2024-08-12T09:44:15Z</time>
      </trkpt>
      <trkpt lat="43.1519" lon="1.05417">
        <ele>402.2</ele>
        <time>2024-08-12T09:44:16Z</time>
      </trkpt>
      <trkpt lat="43.15197" lon="1.05414">
        <ele>401.2</ele>
        <time>2024-08-12T09:44:17Z</time>
      </trkpt>
      <trkpt lat="43.15205" lon="1.05412">
        <ele>400.2</ele>
        <time>2024-08-12T09:44:18Z</time>
      </trkpt>
      <trkpt lat="43.15213" lon="1.0541">
        <ele>399.2</ele>
        <time>2024-08-12T09:44:19Z</time>
      </trkpt>
      <trkpt lat="43.1522" lon="1.05409">
        <ele>398.4</ele>
        <time>2024-08-12T09:44:20Z</time>
      </trkpt>
      <trkpt lat="43.15229" lon="1.05407">
        <ele>397.6</ele>
        <time>2024-08-12T09:44:21Z</time>
      </trkpt>
      <trkpt lat="43.15237" lon="1.05407">
        <ele>397</ele>
        <time>2024-08-12T09:44:22Z</time>
      </trkpt>
      <trkpt lat="43.15243" lon="1.05407">
        <ele>396.4</ele>
        <time>2024-08-12T09:44:23Z</time>
      </trkpt>
      <trkpt lat="43.15249" lon="1.05407">
        <ele>395.6</ele>
        <time>2024-08-12T09:44:24Z</time>
      </trkpt>
      <trkpt lat="43.15254" lon="1.05408">
        <ele>394.8</ele>
        <time>2024-08-12T09:44:25Z</time>
      </trkpt>
      <trkpt lat="43.15258" lon="1.05409">
        <ele>393.4</ele>
        <time>2024-08-12T09:44:26Z</time>
      </trkpt>
      <trkpt lat="43.15263" lon="1.0541">
        <ele>392.8</ele>
        <time>2024-08-12T09:44:27Z</time>
      </trkpt>
      <trkpt lat="43.15268" lon="1.05412">
        <ele>392.4</ele>
        <time>2024-08-12T09:44:28Z</time>
      </trkpt>
      <trkpt lat="43.15274" lon="1.05412">
        <ele>391.8</ele>
        <time>2024-08-12T09:44:29Z</time>
      </trkpt>
      <trkpt lat="43.1528" lon="1.05412">
        <ele>391.2</ele>
        <time>2024-08-12T09:44:30Z</time>
      </trkpt>
      <trkpt lat="43.15288" lon="1.05411">
        <ele>390.6</ele>
        <time>2024-08-12T09:44:31Z</time>
      </trkpt>
      <trkpt lat="43.15311" lon="1.05417">
        <ele>390.2</ele>
        <time>2024-08-12T09:44:34Z</time>
      </trkpt>
      <trkpt lat="43.15319" lon="1.05421">
        <ele>389.8</ele>
        <time>2024-08-12T09:44:35Z</time>
      </trkpt>
      <trkpt lat="43.15327" lon="1.05424">
        <ele>389.4</ele>
        <time>2024-08-12T09:44:36Z</time>
      </trkpt>
      <trkpt lat="43.15335" lon="1.05427">
        <ele>389</ele>
        <time>2024-08-12T09:44:37Z</time>
      </trkpt>
      <trkpt lat="43.15343" lon="1.05431">
        <ele>388.6</ele>
        <time>2024-08-12T09:44:38Z</time>
      </trkpt>
      <trkpt lat="43.15351" lon="1.05436">
        <ele>388.2</ele>
        <time>2024-08-12T09:44:39Z</time>
      </trkpt>
      <trkpt lat="43.15359" lon="1.05442">
        <ele>387.8</ele>
        <time>2024-08-12T09:44:40Z</time>
      </trkpt>
      <trkpt lat="43.15367" lon="1.05448">
        <ele>387.4</ele>
        <time>2024-08-12T09:44:41Z</time>
      </trkpt>
      <trkpt lat="43.15374" lon="1.05455">
        <ele>386.8</ele>
        <time>2024-08-12T09:44:42Z</time>
      </trkpt>
      <trkpt lat="43.15381" lon="1.05462">
        <ele>386.4</ele>
        <time>2024-08-12T09:44:43Z</time>
      </trkpt>
      <trkpt lat="43.15388" lon="1.0547">
        <ele>386.4</ele>
        <time>2024-08-12T09:44:44Z</time>
      </trkpt>
      <trkpt lat="43.15402" lon="1.05485">
        <ele>386</ele>
        <time>2024-08-12T09:44:46Z</time>
      </trkpt>
      <trkpt lat="43.15409" lon="1.05493">
        <ele>385.6</ele>
        <time>2024-08-12T09:44:47Z</time>
      </trkpt>
      <trkpt lat="43.15416" lon="1.055">
        <ele>385</ele>
        <time>2024-08-12T09:44:48Z</time>
      </trkpt>
      <trkpt lat="43.15422" lon="1.05507">
        <ele>384.6</ele>
        <time>2024-08-12T09:44:49Z</time>
      </trkpt>
      <trkpt lat="43.15428" lon="1.05514">
        <ele>384.2</ele>
        <time>2024-08-12T09:44:50Z</time>
      </trkpt>
      <trkpt lat="43.15434" lon="1.05521">
        <ele>383.6</ele>
        <time>2024-08-12T09:44:51Z</time>
      </trkpt>
      <trkpt lat="43.15441" lon="1.05528">
        <ele>383.2</ele>
        <time>2024-08-12T09:44:52Z</time>
      </trkpt>
      <trkpt lat="43.15447" lon="1.05535">
        <ele>382.8</ele>
        <time>2024-08-12T09:44:53Z</time>
      </trkpt>
      <trkpt lat="43.15453" lon="1.05541">
        <ele>382.4</ele>
        <time>2024-08-12T09:44:54Z</time>
      </trkpt>
      <trkpt lat="43.15459" lon="1.05548">
        <ele>381.6</ele>
        <time>2024-08-12T09:44:55Z</time>
      </trkpt>
      <trkpt lat="43.15465" lon="1.05554">
        <ele>381</ele>
        <time>2024-08-12T09:44:56Z</time>
      </trkpt>
      <trkpt lat="43.15471" lon="1.05561">
        <ele>380.4</ele>
        <time>2024-08-12T09:44:57Z</time>
      </trkpt>
      <trkpt lat="43.15476" lon="1.05567">
        <ele>379.6</ele>
        <time>2024-08-12T09:44:58Z</time>
      </trkpt>
      <trkpt lat="43.15482" lon="1.05574">
        <ele>379</ele>
        <time>2024-08-12T09:44:59Z</time>
      </trkpt>
      <trkpt lat="43.15487" lon="1.05582">
        <ele>379</ele>
        <time>2024-08-12T09:45:00Z</time>
      </trkpt>
      <trkpt lat="43.15506" lon="1.05622">
        <ele>379</ele>
        <time>2024-08-12T09:45:05Z</time>
      </trkpt>
      <trkpt lat="43.15522" lon="1.05669">
        <ele>379</ele>
        <time>2024-08-12T09:45:11Z</time>
      </trkpt>
      <trkpt lat="43.15542" lon="1.05718">
        <ele>379</ele>
        <time>2024-08-12T09:45:18Z</time>
      </trkpt>
      <trkpt lat="43.15544" lon="1.05724">
        <ele>379</ele>
        <time>2024-08-12T09:45:19Z</time>
      </trkpt>
      <trkpt lat="43.15556" lon="1.05746">
        <ele>379</ele>
        <time>2024-08-12T09:45:23Z</time>
      </trkpt>
      <trkpt lat="43.15576" lon="1.05777">
        <ele>379</ele>
        <time>2024-08-12T09:45:30Z</time>
      </trkpt>
      <trkpt lat="43.15589" lon="1.05789">
        <ele>379</ele>
        <time>2024-08-12T09:45:35Z</time>
      </trkpt>
      <trkpt lat="43.15596" lon="1.05781">
        <ele>379</ele>
        <time>2024-08-12T09:45:38Z</time>
      </trkpt>
      <trkpt lat="43.15598" lon="1.05777">
        <ele>378.6</ele>
        <time>2024-08-12T09:45:39Z</time>
      </trkpt>
      <trkpt lat="43.15601" lon="1.05774">
        <ele>377.6</ele>
        <time>2024-08-12T09:45:40Z</time>
      </trkpt>
      <trkpt lat="43.15604" lon="1.0577">
        <ele>377.2</ele>
        <time>2024-08-12T09:45:41Z</time>
      </trkpt>
      <trkpt lat="43.15607" lon="1.05767">
        <ele>376.8</ele>
        <time>2024-08-12T09:45:42Z</time>
      </trkpt>
      <trkpt lat="43.1561" lon="1.05764">
        <ele>376.8</ele>
        <time>2024-08-12T09:45:43Z</time>
      </trkpt>
      <trkpt lat="43.15613" lon="1.05759">
        <ele>376.8</ele>
        <time>2024-08-12T09:45:44Z</time>
      </trkpt>
      <trkpt lat="43.15631" lon="1.05737">
        <ele>376.8</ele>
        <time>2024-08-12T09:45:50Z</time>
      </trkpt>
      <trkpt lat="43.15634" lon="1.05734">
        <ele>376.4</ele>
        <time>2024-08-12T09:45:51Z</time>
      </trkpt>
      <trkpt lat="43.15636" lon="1.05729">
        <ele>376</ele>
        <time>2024-08-12T09:45:52Z</time>
      </trkpt>
      <trkpt lat="43.15639" lon="1.05725">
        <ele>375.6</ele>
        <time>2024-08-12T09:45:53Z</time>
      </trkpt>
      <trkpt lat="43.15641" lon="1.05719">
        <ele>375.2</ele>
        <time>2024-08-12T09:45:54Z</time>
      </trkpt>
      <trkpt lat="43.15644" lon="1.05713">
        <ele>374.8</ele>
        <time>2024-08-12T09:45:55Z</time>
      </trkpt>
      <trkpt lat="43.1565" lon="1.05703">
        <ele>374.8</ele>
        <time>2024-08-12T09:45:57Z</time>
      </trkpt>
      <trkpt lat="43.15658" lon="1.05694">
        <ele>374.8</ele>
        <time>2024-08-12T09:45:59Z</time>
      </trkpt>
      <trkpt lat="43.15665" lon="1.05687">
        <ele>374.8</ele>
        <time>2024-08-12T09:46:01Z</time>
      </trkpt>
      <trkpt lat="43.15671" lon="1.05673">
        <ele>374.8</ele>
        <time>2024-08-12T09:46:05Z</time>
      </trkpt>
      <trkpt lat="43.1567" lon="1.05669">
        <ele>374</ele>
        <time>2024-08-12T09:46:06Z</time>
      </trkpt>
      <trkpt lat="43.1567" lon="1.05663">
        <ele>373.6</ele>
        <time>2024-08-12T09:46:07Z</time>
      </trkpt>
      <trkpt lat="43.15669" lon="1.05658">
        <ele>373.2</ele>
        <time>2024-08-12T09:46:08Z</time>
      </trkpt>
      <trkpt lat="43.15669" lon="1.05652">
        <ele>372.8</ele>
        <time>2024-08-12T09:46:09Z</time>
      </trkpt>
      <trkpt lat="43.15665" lon="1.05634">
        <ele>372.8</ele>
        <time>2024-08-12T09:46:12Z</time>
      </trkpt>
      <trkpt lat="43.15661" lon="1.05631">
        <ele>372.2</ele>
        <time>2024-08-12T09:46:13Z</time>
      </trkpt>
      <trkpt lat="43.15655" lon="1.05629">
        <ele>371.8</ele>
        <time>2024-08-12T09:46:14Z</time>
      </trkpt>
      <trkpt lat="43.15651" lon="1.05629">
        <ele>371.2</ele>
        <time>2024-08-12T09:46:15Z</time>
      </trkpt>
      <trkpt lat="43.15646" lon="1.05627">
        <ele>370.8</ele>
        <time>2024-08-12T09:46:16Z</time>
      </trkpt>
      <trkpt lat="43.15643" lon="1.05623">
        <ele>370.4</ele>
        <time>2024-08-12T09:46:17Z</time>
      </trkpt>
      <trkpt lat="43.15636" lon="1.05613">
        <ele>370.4</ele>
        <time>2024-08-12T09:46:19Z</time>
      </trkpt>
      <trkpt lat="43.15633" lon="1.05607">
        <ele>370.4</ele>
        <time>2024-08-12T09:46:20Z</time>
      </trkpt>
      <trkpt lat="43.15632" lon="1.0559">
        <ele>370.4</ele>
        <time>2024-08-12T09:46:23Z</time>
      </trkpt>
      <trkpt lat="43.15633" lon="1.05585">
        <ele>370.4</ele>
        <time>2024-08-12T09:46:24Z</time>
      </trkpt>
      <trkpt lat="43.15637" lon="1.05573">
        <ele>370.4</ele>
        <time>2024-08-12T09:46:27Z</time>
      </trkpt>
      <trkpt lat="43.15646" lon="1.05555">
        <ele>370.4</ele>
        <time>2024-08-12T09:46:32Z</time>
      </trkpt>
      <trkpt lat="43.15658" lon="1.05534">
        <ele>370.4</ele>
        <time>2024-08-12T09:46:38Z</time>
      </trkpt>
      <trkpt lat="43.15668" lon="1.05517">
        <ele>370.4</ele>
        <time>2024-08-12T09:46:43Z</time>
      </trkpt>
      <trkpt lat="43.15679" lon="1.05508">
        <ele>370.4</ele>
        <time>2024-08-12T09:46:46Z</time>
      </trkpt>
      <trkpt lat="43.15683" lon="1.05505">
        <ele>370.4</ele>
        <time>2024-08-12T09:46:47Z</time>
      </trkpt>
      <trkpt lat="43.15696" lon="1.05492">
        <ele>370.4</ele>
        <time>2024-08-12T09:46:51Z</time>
      </trkpt>
      <trkpt lat="43.1571" lon="1.05476">
        <ele>370.4</ele>
        <time>2024-08-12T09:46:56Z</time>
      </trkpt>
      <trkpt lat="43.15732" lon="1.05456">
        <ele>370.4</ele>
        <time>2024-08-12T09:47:02Z</time>
      </trkpt>
      <trkpt lat="43.15739" lon="1.0545">
        <ele>370.4</ele>
        <time>2024-08-12T09:47:04Z</time>
      </trkpt>
      <trkpt lat="43.15757" lon="1.05432">
        <ele>370.4</ele>
        <time>2024-08-12T09:47:09Z</time>
      </trkpt>
      <trkpt lat="43.15784" lon="1.05406">
        <ele>370.4</ele>
        <time>2024-08-12T09:47:16Z</time>
      </trkpt>
      <trkpt lat="43.15787" lon="1.05396">
        <ele>370.4</ele>
        <time>2024-08-12T09:47:18Z</time>
      </trkpt>
      <trkpt lat="43.15786" lon="1.05391">
        <ele>370.4</ele>
        <time>2024-08-12T09:47:19Z</time>
      </trkpt>
      <trkpt lat="43.15784" lon="1.05375">
        <ele>370.4</ele>
        <time>2024-08-12T09:47:22Z</time>
      </trkpt>
      <trkpt lat="43.15782" lon="1.05366">
        <ele>370.4</ele>
        <time>2024-08-12T09:47:24Z</time>
      </trkpt>
      <trkpt lat="43.1578" lon="1.05361">
        <ele>370.8</ele>
        <time>2024-08-12T09:47:25Z</time>
      </trkpt>
      <trkpt lat="43.15778" lon="1.05357">
        <ele>371.2</ele>
        <time>2024-08-12T09:47:26Z</time>
      </trkpt>
      <trkpt lat="43.15777" lon="1.05351">
        <ele>371.6</ele>
        <time>2024-08-12T09:47:27Z</time>
      </trkpt>
      <trkpt lat="43.15777" lon="1.05347">
        <ele>372</ele>
        <time>2024-08-12T09:47:28Z</time>
      </trkpt>
      <trkpt lat="43.15776" lon="1.05343">
        <ele>372.4</ele>
        <time>2024-08-12T09:47:29Z</time>
      </trkpt>
      <trkpt lat="43.15775" lon="1.0534">
        <ele>372.4</ele>
        <time>2024-08-12T09:47:30Z</time>
      </trkpt>
      <trkpt lat="43.1577" lon="1.05325">
        <ele>372.4</ele>
        <time>2024-08-12T09:47:34Z</time>
      </trkpt>
      <trkpt lat="43.15771" lon="1.05309">
        <ele>372.4</ele>
        <time>2024-08-12T09:47:39Z</time>
      </trkpt>
      <trkpt lat="43.15784" lon="1.05293">
        <ele>372.4</ele>
        <time>2024-08-12T09:47:44Z</time>
      </trkpt>
      <trkpt lat="43.15803" lon="1.05278">
        <ele>372.4</ele>
        <time>2024-08-12T09:47:49Z</time>
      </trkpt>
      <trkpt lat="43.15811" lon="1.05272">
        <ele>372.4</ele>
        <time>2024-08-12T09:47:51Z</time>
      </trkpt>
      <trkpt lat="43.15821" lon="1.05262">
        <ele>372.4</ele>
        <time>2024-08-12T09:47:54Z</time>
      </trkpt>
      <trkpt lat="43.15838" lon="1.05237">
        <ele>372.4</ele>
        <time>2024-08-12T09:48:00Z</time>
      </trkpt>
      <trkpt lat="43.15848" lon="1.05215">
        <ele>372.4</ele>
        <time>2024-08-12T09:48:04Z</time>
      </trkpt>
      <trkpt lat="43.15862" lon="1.05192">
        <ele>372.4</ele>
        <time>2024-08-12T09:48:08Z</time>
      </trkpt>
      <trkpt lat="43.15871" lon="1.05184">
        <ele>372.4</ele>
        <time>2024-08-12T09:48:10Z</time>
      </trkpt>
      <trkpt lat="43.15898" lon="1.05162">
        <ele>372.4</ele>
        <time>2024-08-12T09:48:16Z</time>
      </trkpt>
      <trkpt lat="43.15907" lon="1.05154">
        <ele>372.4</ele>
        <time>2024-08-12T09:48:18Z</time>
      </trkpt>
      <trkpt lat="43.15915" lon="1.05147">
        <ele>372.4</ele>
        <time>2024-08-12T09:48:20Z</time>
      </trkpt>
      <trkpt lat="43.15926" lon="1.05136">
        <ele>372.4</ele>
        <time>2024-08-12T09:48:24Z</time>
      </trkpt>
      <trkpt lat="43.15929" lon="1.05133">
        <ele>372.4</ele>
        <time>2024-08-12T09:48:25Z</time>
      </trkpt>
      <trkpt lat="43.15944" lon="1.05119">
        <ele>372.4</ele>
        <time>2024-08-12T09:48:30Z</time>
      </trkpt>
      <trkpt lat="43.15953" lon="1.05113">
        <ele>372.8</ele>
        <time>2024-08-12T09:48:33Z</time>
      </trkpt>
      <trkpt lat="43.15956" lon="1.05111">
        <ele>373.6</ele>
        <time>2024-08-12T09:48:34Z</time>
      </trkpt>
      <trkpt lat="43.1596" lon="1.05109">
        <ele>374</ele>
        <time>2024-08-12T09:48:35Z</time>
      </trkpt>
      <trkpt lat="43.15963" lon="1.05105">
        <ele>374.4</ele>
        <time>2024-08-12T09:48:36Z</time>
      </trkpt>
      <trkpt lat="43.15978" lon="1.05092">
        <ele>374.4</ele>
        <time>2024-08-12T09:48:40Z</time>
      </trkpt>
      <trkpt lat="43.15996" lon="1.05075">
        <ele>374.4</ele>
        <time>2024-08-12T09:48:46Z</time>
      </trkpt>
      <trkpt lat="43.16001" lon="1.0507">
        <ele>374.8</ele>
        <time>2024-08-12T09:48:48Z</time>
      </trkpt>
      <trkpt lat="43.16003" lon="1.05068">
        <ele>375.2</ele>
        <time>2024-08-12T09:48:49Z</time>
      </trkpt>
      <trkpt lat="43.16005" lon="1.05066">
        <ele>375.8</ele>
        <time>2024-08-12T09:48:50Z</time>
      </trkpt>
      <trkpt lat="43.16008" lon="1.05065">
        <ele>376.2</ele>
        <time>2024-08-12T09:48:51Z</time>
      </trkpt>
      <trkpt lat="43.16011" lon="1.05063">
        <ele>376.6</ele>
        <time>2024-08-12T09:48:52Z</time>
      </trkpt>
      <trkpt lat="43.16021" lon="1.05057">
        <ele>376.6</ele>
        <time>2024-08-12T09:48:56Z</time>
      </trkpt>
      <trkpt lat="43.16033" lon="1.05061">
        <ele>376.6</ele>
        <time>2024-08-12T09:49:00Z</time>
      </trkpt>
      <trkpt lat="43.16034" lon="1.05062">
        <ele>377</ele>
        <time>2024-08-12T09:49:01Z</time>
      </trkpt>
      <trkpt lat="43.16036" lon="1.05063">
        <ele>377.4</ele>
        <time>2024-08-12T09:49:02Z</time>
      </trkpt>
      <trkpt lat="43.16038" lon="1.05063">
        <ele>377.8</ele>
        <time>2024-08-12T09:49:03Z</time>
      </trkpt>
      <trkpt lat="43.1604" lon="1.05064">
        <ele>378.2</ele>
        <time>2024-08-12T09:49:04Z</time>
      </trkpt>
      <trkpt lat="43.16041" lon="1.05064">
        <ele>378.6</ele>
        <time>2024-08-12T09:49:05Z</time>
      </trkpt>
      <trkpt lat="43.16051" lon="1.05064">
        <ele>378.6</ele>
        <time>2024-08-12T09:49:11Z</time>
      </trkpt>
      <trkpt lat="43.16065" lon="1.0506">
        <ele>378.6</ele>
        <time>2024-08-12T09:49:18Z</time>
      </trkpt>
      <trkpt lat="43.16066" lon="1.05057">
        <ele>378.6</ele>
        <time>2024-08-12T09:49:19Z</time>
      </trkpt>
      <trkpt lat="43.16069" lon="1.05048">
        <ele>378.6</ele>
        <time>2024-08-12T09:49:22Z</time>
      </trkpt>
      <trkpt lat="43.16069" lon="1.05038">
        <ele>378.6</ele>
        <time>2024-08-12T09:49:24Z</time>
      </trkpt>
      <trkpt lat="43.16071" lon="1.0503">
        <ele>379.2</ele>
        <time>2024-08-12T09:49:26Z</time>
      </trkpt>
      <trkpt lat="43.16072" lon="1.05026">
        <ele>379.6</ele>
        <time>2024-08-12T09:49:27Z</time>
      </trkpt>
      <trkpt lat="43.16074" lon="1.05023">
        <ele>380</ele>
        <time>2024-08-12T09:49:28Z</time>
      </trkpt>
      <trkpt lat="43.16077" lon="1.05021">
        <ele>380.4</ele>
        <time>2024-08-12T09:49:29Z</time>
      </trkpt>
      <trkpt lat="43.16079" lon="1.05019">
        <ele>381</ele>
        <time>2024-08-12T09:49:30Z</time>
      </trkpt>
      <trkpt lat="43.1609" lon="1.05009">
        <ele>381</ele>
        <time>2024-08-12T09:49:34Z</time>
      </trkpt>
      <trkpt lat="43.16102" lon="1.05001">
        <ele>381.4</ele>
        <time>2024-08-12T09:49:37Z</time>
      </trkpt>
      <trkpt lat="43.16106" lon="1.04999">
        <ele>381.8</ele>
        <time>2024-08-12T09:49:38Z</time>
      </trkpt>
      <trkpt lat="43.1611" lon="1.04997">
        <ele>382.2</ele>
        <time>2024-08-12T09:49:39Z</time>
      </trkpt>
      <trkpt lat="43.16114" lon="1.04996">
        <ele>382.6</ele>
        <time>2024-08-12T09:49:40Z</time>
      </trkpt>
      <trkpt lat="43.16118" lon="1.04994">
        <ele>383.2</ele>
        <time>2024-08-12T09:49:41Z</time>
      </trkpt>
      <trkpt lat="43.16131" lon="1.04987">
        <ele>383.6</ele>
        <time>2024-08-12T09:49:44Z</time>
      </trkpt>
      <trkpt lat="43.16134" lon="1.04984">
        <ele>384</ele>
        <time>2024-08-12T09:49:45Z</time>
      </trkpt>
      <trkpt lat="43.16137" lon="1.04982">
        <ele>384.4</ele>
        <time>2024-08-12T09:49:46Z</time>
      </trkpt>
      <trkpt lat="43.16139" lon="1.04979">
        <ele>385.4</ele>
        <time>2024-08-12T09:49:47Z</time>
      </trkpt>
      <trkpt lat="43.16146" lon="1.04971">
        <ele>385.4</ele>
        <time>2024-08-12T09:49:50Z</time>
      </trkpt>
      <trkpt lat="43.1616" lon="1.04957">
        <ele>385.8</ele>
        <time>2024-08-12T09:49:55Z</time>
      </trkpt>
      <trkpt lat="43.16162" lon="1.04953">
        <ele>386.2</ele>
        <time>2024-08-12T09:49:56Z</time>
      </trkpt>
      <trkpt lat="43.16164" lon="1.04949">
        <ele>386.6</ele>
        <time>2024-08-12T09:49:57Z</time>
      </trkpt>
      <trkpt lat="43.16167" lon="1.04946">
        <ele>387</ele>
        <time>2024-08-12T09:49:58Z</time>
      </trkpt>
      <trkpt lat="43.16169" lon="1.04942">
        <ele>387.4</ele>
        <time>2024-08-12T09:49:59Z</time>
      </trkpt>
      <trkpt lat="43.16177" lon="1.04932">
        <ele>387.4</ele>
        <time>2024-08-12T09:50:02Z</time>
      </trkpt>
      <trkpt lat="43.16194" lon="1.04916">
        <ele>387.8</ele>
        <time>2024-08-12T09:50:07Z</time>
      </trkpt>
      <trkpt lat="43.16198" lon="1.04913">
        <ele>388.2</ele>
        <time>2024-08-12T09:50:08Z</time>
      </trkpt>
      <trkpt lat="43.16202" lon="1.04908">
        <ele>388.6</ele>
        <time>2024-08-12T09:50:09Z</time>
      </trkpt>
      <trkpt lat="43.16205" lon="1.04903">
        <ele>389</ele>
        <time>2024-08-12T09:50:10Z</time>
      </trkpt>
      <trkpt lat="43.16208" lon="1.04899">
        <ele>389.4</ele>
        <time>2024-08-12T09:50:11Z</time>
      </trkpt>
      <trkpt lat="43.16222" lon="1.04873">
        <ele>389.4</ele>
        <time>2024-08-12T09:50:17Z</time>
      </trkpt>
      <trkpt lat="43.16233" lon="1.04849">
        <ele>389.4</ele>
        <time>2024-08-12T09:50:22Z</time>
      </trkpt>
      <trkpt lat="43.16245" lon="1.04828">
        <ele>389.4</ele>
        <time>2024-08-12T09:50:27Z</time>
      </trkpt>
      <trkpt lat="43.16248" lon="1.04824">
        <ele>390</ele>
        <time>2024-08-12T09:50:28Z</time>
      </trkpt>
      <trkpt lat="43.16249" lon="1.0482">
        <ele>390.4</ele>
        <time>2024-08-12T09:50:29Z</time>
      </trkpt>
      <trkpt lat="43.16252" lon="1.04815">
        <ele>390.8</ele>
        <time>2024-08-12T09:50:30Z</time>
      </trkpt>
      <trkpt lat="43.16255" lon="1.04809">
        <ele>391.2</ele>
        <time>2024-08-12T09:50:31Z</time>
      </trkpt>
      <trkpt lat="43.16257" lon="1.04802">
        <ele>391.6</ele>
        <time>2024-08-12T09:50:32Z</time>
      </trkpt>
      <trkpt lat="43.16266" lon="1.04777">
        <ele>391.6</ele>
        <time>2024-08-12T09:50:36Z</time>
      </trkpt>
      <trkpt lat="43.16283" lon="1.0476">
        <ele>391.6</ele>
        <time>2024-08-12T09:50:41Z</time>
      </trkpt>
      <trkpt lat="43.16308" lon="1.0474">
        <ele>391.6</ele>
        <time>2024-08-12T09:50:48Z</time>
      </trkpt>
      <trkpt lat="43.16321" lon="1.04735">
        <ele>391.2</ele>
        <time>2024-08-12T09:50:51Z</time>
      </trkpt>
      <trkpt lat="43.16325" lon="1.04733">
        <ele>390.8</ele>
        <time>2024-08-12T09:50:52Z</time>
      </trkpt>
      <trkpt lat="43.16329" lon="1.0473">
        <ele>390.4</ele>
        <time>2024-08-12T09:50:53Z</time>
      </trkpt>
      <trkpt lat="43.16334" lon="1.04727">
        <ele>389.8</ele>
        <time>2024-08-12T09:50:54Z</time>
      </trkpt>
      <trkpt lat="43.16339" lon="1.04723">
        <ele>389.4</ele>
        <time>2024-08-12T09:50:55Z</time>
      </trkpt>
      <trkpt lat="43.1635" lon="1.04716">
        <ele>389</ele>
        <time>2024-08-12T09:50:57Z</time>
      </trkpt>
      <trkpt lat="43.16356" lon="1.04715">
        <ele>388.6</ele>
        <time>2024-08-12T09:50:58Z</time>
      </trkpt>
      <trkpt lat="43.16362" lon="1.04715">
        <ele>388.2</ele>
        <time>2024-08-12T09:50:59Z</time>
      </trkpt>
      <trkpt lat="43.16369" lon="1.04715">
        <ele>387.8</ele>
        <time>2024-08-12T09:51:00Z</time>
      </trkpt>
      <trkpt lat="43.16378" lon="1.04715">
        <ele>387.4</ele>
        <time>2024-08-12T09:51:01Z</time>
      </trkpt>
      <trkpt lat="43.16394" lon="1.04715">
        <ele>387.4</ele>
        <time>2024-08-12T09:51:03Z</time>
      </trkpt>
      <trkpt lat="43.16401" lon="1.04717">
        <ele>387.4</ele>
        <time>2024-08-12T09:51:04Z</time>
      </trkpt>
      <trkpt lat="43.16429" lon="1.04728">
        <ele>387.4</ele>
        <time>2024-08-12T09:51:08Z</time>
      </trkpt>
      <trkpt lat="43.16446" lon="1.04735">
        <ele>387.4</ele>
        <time>2024-08-12T09:51:11Z</time>
      </trkpt>
      <trkpt lat="43.16452" lon="1.04738">
        <ele>387.4</ele>
        <time>2024-08-12T09:51:12Z</time>
      </trkpt>
      <trkpt lat="43.16458" lon="1.04742">
        <ele>387</ele>
        <time>2024-08-12T09:51:13Z</time>
      </trkpt>
      <trkpt lat="43.16463" lon="1.04747">
        <ele>386.6</ele>
        <time>2024-08-12T09:51:14Z</time>
      </trkpt>
      <trkpt lat="43.16468" lon="1.04753">
        <ele>386</ele>
        <time>2024-08-12T09:51:15Z</time>
      </trkpt>
      <trkpt lat="43.16474" lon="1.0476">
        <ele>385.6</ele>
        <time>2024-08-12T09:51:16Z</time>
      </trkpt>
      <trkpt lat="43.16479" lon="1.04766">
        <ele>385.2</ele>
        <time>2024-08-12T09:51:17Z</time>
      </trkpt>
      <trkpt lat="43.16484" lon="1.04772">
        <ele>384.8</ele>
        <time>2024-08-12T09:51:18Z</time>
      </trkpt>
      <trkpt lat="43.16491" lon="1.04777">
        <ele>384.2</ele>
        <time>2024-08-12T09:51:19Z</time>
      </trkpt>
      <trkpt lat="43.16499" lon="1.04782">
        <ele>383.8</ele>
        <time>2024-08-12T09:51:20Z</time>
      </trkpt>
      <trkpt lat="43.16507" lon="1.04787">
        <ele>383.4</ele>
        <time>2024-08-12T09:51:21Z</time>
      </trkpt>
      <trkpt lat="43.16514" lon="1.04794">
        <ele>382.8</ele>
        <time>2024-08-12T09:51:22Z</time>
      </trkpt>
      <trkpt lat="43.16519" lon="1.04803">
        <ele>382.8</ele>
        <time>2024-08-12T09:51:23Z</time>
      </trkpt>
      <trkpt lat="43.16523" lon="1.04811">
        <ele>382.4</ele>
        <time>2024-08-12T09:51:24Z</time>
      </trkpt>
      <trkpt lat="43.16527" lon="1.04818">
        <ele>382</ele>
        <time>2024-08-12T09:51:25Z</time>
      </trkpt>
      <trkpt lat="43.1653" lon="1.04827">
        <ele>381.2</ele>
        <time>2024-08-12T09:51:26Z</time>
      </trkpt>
      <trkpt lat="43.16532" lon="1.04837">
        <ele>380.8</ele>
        <time>2024-08-12T09:51:27Z</time>
      </trkpt>
      <trkpt lat="43.16539" lon="1.04854">
        <ele>380.8</ele>
        <time>2024-08-12T09:51:29Z</time>
      </trkpt>
      <trkpt lat="43.16548" lon="1.04864">
        <ele>380.8</ele>
        <time>2024-08-12T09:51:31Z</time>
      </trkpt>
      <trkpt lat="43.1656" lon="1.04871">
        <ele>380.8</ele>
        <time>2024-08-12T09:51:33Z</time>
      </trkpt>
      <trkpt lat="43.16566" lon="1.04875">
        <ele>380.8</ele>
        <time>2024-08-12T09:51:34Z</time>
      </trkpt>
      <trkpt lat="43.16571" lon="1.04879">
        <ele>380.4</ele>
        <time>2024-08-12T09:51:35Z</time>
      </trkpt>
      <trkpt lat="43.16576" lon="1.04885">
        <ele>380</ele>
        <time>2024-08-12T09:51:36Z</time>
      </trkpt>
      <trkpt lat="43.16582" lon="1.04891">
        <ele>379.6</ele>
        <time>2024-08-12T09:51:37Z</time>
      </trkpt>
      <trkpt lat="43.16588" lon="1.04898">
        <ele>379.2</ele>
        <time>2024-08-12T09:51:38Z</time>
      </trkpt>
      <trkpt lat="43.16594" lon="1.04905">
        <ele>378.6</ele>
        <time>2024-08-12T09:51:39Z</time>
      </trkpt>
      <trkpt lat="43.16599" lon="1.04912">
        <ele>378</ele>
        <time>2024-08-12T09:51:40Z</time>
      </trkpt>
      <trkpt lat="43.16606" lon="1.0492">
        <ele>377.6</ele>
        <time>2024-08-12T09:51:41Z</time>
      </trkpt>
      <trkpt lat="43.16614" lon="1.04927">
        <ele>376.8</ele>
        <time>2024-08-12T09:51:42Z</time>
      </trkpt>
      <trkpt lat="43.16622" lon="1.04935">
        <ele>376</ele>
        <time>2024-08-12T09:51:43Z</time>
      </trkpt>
      <trkpt lat="43.16629" lon="1.04943">
        <ele>375</ele>
        <time>2024-08-12T09:51:44Z</time>
      </trkpt>
      <trkpt lat="43.16635" lon="1.04949">
        <ele>374</ele>
        <time>2024-08-12T09:51:45Z</time>
      </trkpt>
      <trkpt lat="43.16642" lon="1.04956">
        <ele>373.2</ele>
        <time>2024-08-12T09:51:46Z</time>
      </trkpt>
      <trkpt lat="43.16648" lon="1.04963">
        <ele>372.2</ele>
        <time>2024-08-12T09:51:47Z</time>
      </trkpt>
      <trkpt lat="43.16654" lon="1.04973">
        <ele>371.4</ele>
        <time>2024-08-12T09:51:48Z</time>
      </trkpt>
      <trkpt lat="43.1666" lon="1.04981">
        <ele>370.4</ele>
        <time>2024-08-12T09:51:49Z</time>
      </trkpt>
      <trkpt lat="43.16667" lon="1.04989">
        <ele>369.4</ele>
        <time>2024-08-12T09:51:50Z</time>
      </trkpt>
      <trkpt lat="43.16673" lon="1.04995">
        <ele>367.4</ele>
        <time>2024-08-12T09:51:51Z</time>
      </trkpt>
      <trkpt lat="43.1668" lon="1.05002">
        <ele>366.2</ele>
        <time>2024-08-12T09:51:52Z</time>
      </trkpt>
      <trkpt lat="43.16688" lon="1.05008">
        <ele>364.8</ele>
        <time>2024-08-12T09:51:53Z</time>
      </trkpt>
      <trkpt lat="43.16695" lon="1.05015">
        <ele>363.4</ele>
        <time>2024-08-12T09:51:54Z</time>
      </trkpt>
      <trkpt lat="43.16701" lon="1.05022">
        <ele>362</ele>
        <time>2024-08-12T09:51:55Z</time>
      </trkpt>
      <trkpt lat="43.16707" lon="1.05028">
        <ele>360.6</ele>
        <time>2024-08-12T09:51:56Z</time>
      </trkpt>
      <trkpt lat="43.16713" lon="1.05035">
        <ele>359.2</ele>
        <time>2024-08-12T09:51:57Z</time>
      </trkpt>
      <trkpt lat="43.16719" lon="1.05041">
        <ele>357.8</ele>
        <time>2024-08-12T09:51:58Z</time>
      </trkpt>
      <trkpt lat="43.16725" lon="1.0505">
        <ele>356.6</ele>
        <time>2024-08-12T09:51:59Z</time>
      </trkpt>
      <trkpt lat="43.1673" lon="1.05059">
        <ele>355.6</ele>
        <time>2024-08-12T09:52:00Z</time>
      </trkpt>
      <trkpt lat="43.16736" lon="1.05069">
        <ele>354.6</ele>
        <time>2024-08-12T09:52:01Z</time>
      </trkpt>
      <trkpt lat="43.1674" lon="1.05078">
        <ele>353.4</ele>
        <time>2024-08-12T09:52:02Z</time>
      </trkpt>
      <trkpt lat="43.16745" lon="1.05085">
        <ele>352.4</ele>
        <time>2024-08-12T09:52:03Z</time>
      </trkpt>
      <trkpt lat="43.16749" lon="1.0509">
        <ele>351.4</ele>
        <time>2024-08-12T09:52:04Z</time>
      </trkpt>
      <trkpt lat="43.16755" lon="1.05097">
        <ele>351</ele>
        <time>2024-08-12T09:52:05Z</time>
      </trkpt>
      <trkpt lat="43.16761" lon="1.05104">
        <ele>350.4</ele>
        <time>2024-08-12T09:52:06Z</time>
      </trkpt>
      <trkpt lat="43.16767" lon="1.05111">
        <ele>349.8</ele>
        <time>2024-08-12T09:52:07Z</time>
      </trkpt>
      <trkpt lat="43.16772" lon="1.05118">
        <ele>349.2</ele>
        <time>2024-08-12T09:52:08Z</time>
      </trkpt>
      <trkpt lat="43.16777" lon="1.05124">
        <ele>348.4</ele>
        <time>2024-08-12T09:52:09Z</time>
      </trkpt>
      <trkpt lat="43.16783" lon="1.05131">
        <ele>347.8</ele>
        <time>2024-08-12T09:52:10Z</time>
      </trkpt>
      <trkpt lat="43.16788" lon="1.05139">
        <ele>347</ele>
        <time>2024-08-12T09:52:11Z</time>
      </trkpt>
      <trkpt lat="43.16792" lon="1.05146">
        <ele>346.4</ele>
        <time>2024-08-12T09:52:12Z</time>
      </trkpt>
      <trkpt lat="43.16796" lon="1.05153">
        <ele>345.8</ele>
        <time>2024-08-12T09:52:13Z</time>
      </trkpt>
      <trkpt lat="43.16799" lon="1.05159">
        <ele>345.2</ele>
        <time>2024-08-12T09:52:14Z</time>
      </trkpt>
      <trkpt lat="43.16802" lon="1.05164">
        <ele>344</ele>
        <time>2024-08-12T09:52:15Z</time>
      </trkpt>
      <trkpt lat="43.16805" lon="1.05168">
        <ele>344</ele>
        <time>2024-08-12T09:52:16Z</time>
      </trkpt>
      <trkpt lat="43.16819" lon="1.05178">
        <ele>344</ele>
        <time>2024-08-12T09:52:20Z</time>
      </trkpt>
      <trkpt lat="43.16824" lon="1.05181">
        <ele>344</ele>
        <time>2024-08-12T09:52:21Z</time>
      </trkpt>
      <trkpt lat="43.16832" lon="1.05188">
        <ele>344</ele>
        <time>2024-08-12T09:52:23Z</time>
      </trkpt>
      <trkpt lat="43.16837" lon="1.05189">
        <ele>344.4</ele>
        <time>2024-08-12T09:52:24Z</time>
      </trkpt>
      <trkpt lat="43.16841" lon="1.0519">
        <ele>345</ele>
        <time>2024-08-12T09:52:25Z</time>
      </trkpt>
      <trkpt lat="43.16845" lon="1.05188">
        <ele>345.4</ele>
        <time>2024-08-12T09:52:26Z</time>
      </trkpt>
      <trkpt lat="43.16848" lon="1.05186">
        <ele>345.8</ele>
        <time>2024-08-12T09:52:27Z</time>
      </trkpt>
      <trkpt lat="43.16852" lon="1.05187">
        <ele>346.2</ele>
        <time>2024-08-12T09:52:28Z</time>
      </trkpt>
      <trkpt lat="43.16855" lon="1.05189">
        <ele>346.6</ele>
        <time>2024-08-12T09:52:29Z</time>
      </trkpt>
      <trkpt lat="43.16858" lon="1.05188">
        <ele>347.2</ele>
        <time>2024-08-12T09:52:30Z</time>
      </trkpt>
      <trkpt lat="43.1686" lon="1.05188">
        <ele>347.6</ele>
        <time>2024-08-12T09:52:31Z</time>
      </trkpt>
      <trkpt lat="43.16862" lon="1.05189">
        <ele>348.2</ele>
        <time>2024-08-12T09:52:32Z</time>
      </trkpt>
      <trkpt lat="43.16865" lon="1.0519">
        <ele>348.6</ele>
        <time>2024-08-12T09:52:33Z</time>
      </trkpt>
      <trkpt lat="43.16871" lon="1.05195">
        <ele>348.6</ele>
        <time>2024-08-12T09:52:35Z</time>
      </trkpt>
      <trkpt lat="43.16874" lon="1.05197">
        <ele>348.6</ele>
        <time>2024-08-12T09:52:36Z</time>
      </trkpt>
      <trkpt lat="43.16883" lon="1.052">
        <ele>348.6</ele>
        <time>2024-08-12T09:52:39Z</time>
      </trkpt>
      <trkpt lat="43.16886" lon="1.05198">
        <ele>348.6</ele>
        <time>2024-08-12T09:52:40Z</time>
      </trkpt>
      <trkpt lat="43.16894" lon="1.05186">
        <ele>348.6</ele>
        <time>2024-08-12T09:52:44Z</time>
      </trkpt>
      <trkpt lat="43.16905" lon="1.05167">
        <ele>348.6</ele>
        <time>2024-08-12T09:52:49Z</time>
      </trkpt>
      <trkpt lat="43.1692" lon="1.05149">
        <ele>348.6</ele>
        <time>2024-08-12T09:52:53Z</time>
      </trkpt>
      <trkpt lat="43.16924" lon="1.05142">
        <ele>348.6</ele>
        <time>2024-08-12T09:52:54Z</time>
      </trkpt>
      <trkpt lat="43.16938" lon="1.05121">
        <ele>348</ele>
        <time>2024-08-12T09:52:57Z</time>
      </trkpt>
      <trkpt lat="43.16943" lon="1.05115">
        <ele>347.4</ele>
        <time>2024-08-12T09:52:58Z</time>
      </trkpt>
      <trkpt lat="43.16948" lon="1.05107">
        <ele>347</ele>
        <time>2024-08-12T09:52:59Z</time>
      </trkpt>
      <trkpt lat="43.16951" lon="1.05098">
        <ele>346</ele>
        <time>2024-08-12T09:53:00Z</time>
      </trkpt>
      <trkpt lat="43.16955" lon="1.05089">
        <ele>345.2</ele>
        <time>2024-08-12T09:53:01Z</time>
      </trkpt>
      <trkpt lat="43.16959" lon="1.0508">
        <ele>344.2</ele>
        <time>2024-08-12T09:53:02Z</time>
      </trkpt>
      <trkpt lat="43.16962" lon="1.05072">
        <ele>343.2</ele>
        <time>2024-08-12T09:53:03Z</time>
      </trkpt>
      <trkpt lat="43.16964" lon="1.05064">
        <ele>342.2</ele>
        <time>2024-08-12T09:53:04Z</time>
      </trkpt>
      <trkpt lat="43.16968" lon="1.05058">
        <ele>340</ele>
        <time>2024-08-12T09:53:05Z</time>
      </trkpt>
      <trkpt lat="43.16971" lon="1.05052">
        <ele>339.2</ele>
        <time>2024-08-12T09:53:06Z</time>
      </trkpt>
      <trkpt lat="43.16975" lon="1.05047">
        <ele>338.2</ele>
        <time>2024-08-12T09:53:07Z</time>
      </trkpt>
      <trkpt lat="43.16979" lon="1.05044">
        <ele>337.2</ele>
        <time>2024-08-12T09:53:08Z</time>
      </trkpt>
      <trkpt lat="43.16983" lon="1.05043">
        <ele>336.2</ele>
        <time>2024-08-12T09:53:09Z</time>
      </trkpt>
      <trkpt lat="43.16985" lon="1.05044">
        <ele>335.2</ele>
        <time>2024-08-12T09:53:10Z</time>
      </trkpt>
      <trkpt lat="43.16986" lon="1.05044">
        <ele>334.2</ele>
        <time>2024-08-12T09:53:11Z</time>
      </trkpt>
      <trkpt lat="43.16987" lon="1.05043">
        <ele>333.2</ele>
        <time>2024-08-12T09:53:12Z</time>
      </trkpt>
      <trkpt lat="43.16989" lon="1.05037">
        <ele>333.2</ele>
        <time>2024-08-12T09:53:14Z</time>
      </trkpt>
      <trkpt lat="43.16989" lon="1.05034">
        <ele>333.2</ele>
        <time>2024-08-12T09:53:15Z</time>
      </trkpt>
      <trkpt lat="43.16987" lon="1.0501">
        <ele>333.2</ele>
        <time>2024-08-12T09:53:20Z</time>
      </trkpt>
      <trkpt lat="43.16983" lon="1.04985">
        <ele>333.2</ele>
        <time>2024-08-12T09:53:26Z</time>
      </trkpt>
      <trkpt lat="43.16983" lon="1.04973">
        <ele>333.2</ele>
        <time>2024-08-12T09:53:31Z</time>
      </trkpt>
      <trkpt lat="43.16979" lon="1.04954">
        <ele>333.2</ele>
        <time>2024-08-12T09:53:37Z</time>
      </trkpt>
      <trkpt lat="43.16978" lon="1.04935">
        <ele>333.2</ele>
        <time>2024-08-12T09:53:42Z</time>
      </trkpt>
      <trkpt lat="43.16975" lon="1.04915">
        <ele>333.2</ele>
        <time>2024-08-12T09:53:47Z</time>
      </trkpt>
      <trkpt lat="43.16973" lon="1.0489">
        <ele>333.2</ele>
        <time>2024-08-12T09:53:53Z</time>
      </trkpt>
      <trkpt lat="43.16968" lon="1.04866">
        <ele>333.2</ele>
        <time>2024-08-12T09:53:58Z</time>
      </trkpt>
      <trkpt lat="43.16966" lon="1.0485">
        <ele>333.6</ele>
        <time>2024-08-12T09:54:01Z</time>
      </trkpt>
      <trkpt lat="43.16965" lon="1.04845">
        <ele>334</ele>
        <time>2024-08-12T09:54:02Z</time>
      </trkpt>
      <trkpt lat="43.16965" lon="1.04841">
        <ele>334.4</ele>
        <time>2024-08-12T09:54:03Z</time>
      </trkpt>
      <trkpt lat="43.16964" lon="1.04836">
        <ele>334.8</ele>
        <time>2024-08-12T09:54:04Z</time>
      </trkpt>
      <trkpt lat="43.16963" lon="1.04832">
        <ele>335.2</ele>
        <time>2024-08-12T09:54:05Z</time>
      </trkpt>
      <trkpt lat="43.1696" lon="1.04805">
        <ele>335.2</ele>
        <time>2024-08-12T09:54:11Z</time>
      </trkpt>
      <trkpt lat="43.16959" lon="1.048">
        <ele>335.6</ele>
        <time>2024-08-12T09:54:12Z</time>
      </trkpt>
      <trkpt lat="43.16959" lon="1.04795">
        <ele>336.2</ele>
        <time>2024-08-12T09:54:13Z</time>
      </trkpt>
      <trkpt lat="43.16958" lon="1.0479">
        <ele>336.6</ele>
        <time>2024-08-12T09:54:14Z</time>
      </trkpt>
      <trkpt lat="43.16957" lon="1.04785">
        <ele>337</ele>
        <time>2024-08-12T09:54:15Z</time>
      </trkpt>
      <trkpt lat="43.16956" lon="1.0478">
        <ele>337.4</ele>
        <time>2024-08-12T09:54:16Z</time>
      </trkpt>
      <trkpt lat="43.16956" lon="1.04771">
        <ele>337.4</ele>
        <time>2024-08-12T09:54:18Z</time>
      </trkpt>
      <trkpt lat="43.16954" lon="1.04752">
        <ele>337.8</ele>
        <time>2024-08-12T09:54:22Z</time>
      </trkpt>
      <trkpt lat="43.16953" lon="1.04748">
        <ele>338.2</ele>
        <time>2024-08-12T09:54:23Z</time>
      </trkpt>
      <trkpt lat="43.16953" lon="1.04743">
        <ele>338.6</ele>
        <time>2024-08-12T09:54:24Z</time>
      </trkpt>
      <trkpt lat="43.16952" lon="1.04739">
        <ele>339</ele>
        <time>2024-08-12T09:54:25Z</time>
      </trkpt>
      <trkpt lat="43.16952" lon="1.04734">
        <ele>339.4</ele>
        <time>2024-08-12T09:54:26Z</time>
      </trkpt>
      <trkpt lat="43.16949" lon="1.04716">
        <ele>339.4</ele>
        <time>2024-08-12T09:54:30Z</time>
      </trkpt>
      <trkpt lat="43.16947" lon="1.04702">
        <ele>339.8</ele>
        <time>2024-08-12T09:54:33Z</time>
      </trkpt>
      <trkpt lat="43.16947" lon="1.04697">
        <ele>340.2</ele>
        <time>2024-08-12T09:54:34Z</time>
      </trkpt>
      <trkpt lat="43.16946" lon="1.04693">
        <ele>340.8</ele>
        <time>2024-08-12T09:54:35Z</time>
      </trkpt>
      <trkpt lat="43.16946" lon="1.04688">
        <ele>341.2</ele>
        <time>2024-08-12T09:54:36Z</time>
      </trkpt>
      <trkpt lat="43.16945" lon="1.04683">
        <ele>341.6</ele>
        <time>2024-08-12T09:54:37Z</time>
      </trkpt>
      <trkpt lat="43.1694" lon="1.04662">
        <ele>342</ele>
        <time>2024-08-12T09:54:42Z</time>
      </trkpt>
      <trkpt lat="43.1694" lon="1.04657">
        <ele>342.4</ele>
        <time>2024-08-12T09:54:43Z</time>
      </trkpt>
      <trkpt lat="43.16939" lon="1.04653">
        <ele>343.2</ele>
        <time>2024-08-12T09:54:44Z</time>
      </trkpt>
      <trkpt lat="43.16938" lon="1.04649">
        <ele>343.6</ele>
        <time>2024-08-12T09:54:45Z</time>
      </trkpt>
      <trkpt lat="43.16936" lon="1.04629">
        <ele>344</ele>
        <time>2024-08-12T09:54:49Z</time>
      </trkpt>
      <trkpt lat="43.16937" lon="1.04625">
        <ele>344.4</ele>
        <time>2024-08-12T09:54:50Z</time>
      </trkpt>
      <trkpt lat="43.16937" lon="1.04621">
        <ele>344.8</ele>
        <time>2024-08-12T09:54:51Z</time>
      </trkpt>
      <trkpt lat="43.16937" lon="1.04616">
        <ele>345.4</ele>
        <time>2024-08-12T09:54:52Z</time>
      </trkpt>
      <trkpt lat="43.16936" lon="1.04612">
        <ele>345.8</ele>
        <time>2024-08-12T09:54:53Z</time>
      </trkpt>
      <trkpt lat="43.16934" lon="1.04599">
        <ele>345.8</ele>
        <time>2024-08-12T09:54:56Z</time>
      </trkpt>
      <trkpt lat="43.16933" lon="1.0459">
        <ele>346.2</ele>
        <time>2024-08-12T09:54:58Z</time>
      </trkpt>
      <trkpt lat="43.16933" lon="1.04586">
        <ele>346.6</ele>
        <time>2024-08-12T09:54:59Z</time>
      </trkpt>
      <trkpt lat="43.16932" lon="1.04582">
        <ele>347</ele>
        <time>2024-08-12T09:55:00Z</time>
      </trkpt>
      <trkpt lat="43.16932" lon="1.04578">
        <ele>347.6</ele>
        <time>2024-08-12T09:55:01Z</time>
      </trkpt>
      <trkpt lat="43.16932" lon="1.04574">
        <ele>348</ele>
        <time>2024-08-12T09:55:02Z</time>
      </trkpt>
      <trkpt lat="43.16929" lon="1.04553">
        <ele>348.4</ele>
        <time>2024-08-12T09:55:07Z</time>
      </trkpt>
      <trkpt lat="43.16928" lon="1.04549">
        <ele>348.8</ele>
        <time>2024-08-12T09:55:08Z</time>
      </trkpt>
      <trkpt lat="43.16928" lon="1.04545">
        <ele>349.6</ele>
        <time>2024-08-12T09:55:09Z</time>
      </trkpt>
      <trkpt lat="43.16927" lon="1.04541">
        <ele>350</ele>
        <time>2024-08-12T09:55:10Z</time>
      </trkpt>
      <trkpt lat="43.16925" lon="1.0452">
        <ele>350.4</ele>
        <time>2024-08-12T09:55:15Z</time>
      </trkpt>
      <trkpt lat="43.16925" lon="1.04516">
        <ele>350.8</ele>
        <time>2024-08-12T09:55:16Z</time>
      </trkpt>
      <trkpt lat="43.16925" lon="1.04512">
        <ele>351.2</ele>
        <time>2024-08-12T09:55:17Z</time>
      </trkpt>
      <trkpt lat="43.16926" lon="1.04508">
        <ele>351.6</ele>
        <time>2024-08-12T09:55:18Z</time>
      </trkpt>
      <trkpt lat="43.16926" lon="1.04503">
        <ele>352</ele>
        <time>2024-08-12T09:55:19Z</time>
      </trkpt>
      <trkpt lat="43.16924" lon="1.0448">
        <ele>352.4</ele>
        <time>2024-08-12T09:55:25Z</time>
      </trkpt>
      <trkpt lat="43.16924" lon="1.04476">
        <ele>353</ele>
        <time>2024-08-12T09:55:26Z</time>
      </trkpt>
      <trkpt lat="43.16924" lon="1.04472">
        <ele>353.4</ele>
        <time>2024-08-12T09:55:27Z</time>
      </trkpt>
      <trkpt lat="43.16924" lon="1.04468">
        <ele>353.8</ele>
        <time>2024-08-12T09:55:28Z</time>
      </trkpt>
      <trkpt lat="43.16924" lon="1.04464">
        <ele>354.2</ele>
        <time>2024-08-12T09:55:29Z</time>
      </trkpt>
      <trkpt lat="43.16923" lon="1.04455">
        <ele>354.2</ele>
        <time>2024-08-12T09:55:31Z</time>
      </trkpt>
      <trkpt lat="43.16923" lon="1.04443">
        <ele>354.6</ele>
        <time>2024-08-12T09:55:34Z</time>
      </trkpt>
      <trkpt lat="43.16923" lon="1.04439">
        <ele>355.2</ele>
        <time>2024-08-12T09:55:35Z</time>
      </trkpt>
      <trkpt lat="43.16923" lon="1.04435">
        <ele>355.6</ele>
        <time>2024-08-12T09:55:36Z</time>
      </trkpt>
      <trkpt lat="43.16923" lon="1.04431">
        <ele>356</ele>
        <time>2024-08-12T09:55:37Z</time>
      </trkpt>
      <trkpt lat="43.16923" lon="1.04427">
        <ele>356.4</ele>
        <time>2024-08-12T09:55:38Z</time>
      </trkpt>
      <trkpt lat="43.16924" lon="1.04419">
        <ele>356.4</ele>
        <time>2024-08-12T09:55:40Z</time>
      </trkpt>
      <trkpt lat="43.16925" lon="1.04402">
        <ele>356.8</ele>
        <time>2024-08-12T09:55:44Z</time>
      </trkpt>
      <trkpt lat="43.16926" lon="1.04398">
        <ele>357.2</ele>
        <time>2024-08-12T09:55:45Z</time>
      </trkpt>
      <trkpt lat="43.16926" lon="1.04393">
        <ele>357.6</ele>
        <time>2024-08-12T09:55:46Z</time>
      </trkpt>
      <trkpt lat="43.16926" lon="1.04388">
        <ele>358.2</ele>
        <time>2024-08-12T09:55:47Z</time>
      </trkpt>
      <trkpt lat="43.16927" lon="1.04384">
        <ele>358.6</ele>
        <time>2024-08-12T09:55:48Z</time>
      </trkpt>
      <trkpt lat="43.1693" lon="1.0436">
        <ele>359</ele>
        <time>2024-08-12T09:55:54Z</time>
      </trkpt>
      <trkpt lat="43.1693" lon="1.04356">
        <ele>359.4</ele>
        <time>2024-08-12T09:55:55Z</time>
      </trkpt>
      <trkpt lat="43.16931" lon="1.04352">
        <ele>360</ele>
        <time>2024-08-12T09:55:56Z</time>
      </trkpt>
      <trkpt lat="43.16932" lon="1.04348">
        <ele>360.4</ele>
        <time>2024-08-12T09:55:57Z</time>
      </trkpt>
      <trkpt lat="43.16932" lon="1.04345">
        <ele>360.8</ele>
        <time>2024-08-12T09:55:58Z</time>
      </trkpt>
      <trkpt lat="43.16936" lon="1.04327">
        <ele>361.2</ele>
        <time>2024-08-12T09:56:03Z</time>
      </trkpt>
      <trkpt lat="43.16937" lon="1.04323">
        <ele>361.6</ele>
        <time>2024-08-12T09:56:04Z</time>
      </trkpt>
      <trkpt lat="43.16939" lon="1.0432">
        <ele>362</ele>
        <time>2024-08-12T09:56:05Z</time>
      </trkpt>
      <trkpt lat="43.1694" lon="1.04316">
        <ele>362.4</ele>
        <time>2024-08-12T09:56:06Z</time>
      </trkpt>
      <trkpt lat="43.16941" lon="1.04312">
        <ele>363</ele>
        <time>2024-08-12T09:56:07Z</time>
      </trkpt>
      <trkpt lat="43.16944" lon="1.043">
        <ele>363</ele>
        <time>2024-08-12T09:56:10Z</time>
      </trkpt>
      <trkpt lat="43.16947" lon="1.04289">
        <ele>363.4</ele>
        <time>2024-08-12T09:56:13Z</time>
      </trkpt>
      <trkpt lat="43.16948" lon="1.04285">
        <ele>363.8</ele>
        <time>2024-08-12T09:56:14Z</time>
      </trkpt>
      <trkpt lat="43.16949" lon="1.04282">
        <ele>364.2</ele>
        <time>2024-08-12T09:56:15Z</time>
      </trkpt>
      <trkpt lat="43.16949" lon="1.04278">
        <ele>364.6</ele>
        <time>2024-08-12T09:56:16Z</time>
      </trkpt>
      <trkpt lat="43.1695" lon="1.04274">
        <ele>365</ele>
        <time>2024-08-12T09:56:17Z</time>
      </trkpt>
      <trkpt lat="43.16957" lon="1.04252">
        <ele>365.4</ele>
        <time>2024-08-12T09:56:23Z</time>
      </trkpt>
      <trkpt lat="43.16958" lon="1.04248">
        <ele>365.8</ele>
        <time>2024-08-12T09:56:24Z</time>
      </trkpt>
      <trkpt lat="43.16959" lon="1.04244">
        <ele>366.2</ele>
        <time>2024-08-12T09:56:25Z</time>
      </trkpt>
      <trkpt lat="43.1696" lon="1.04239">
        <ele>366.6</ele>
        <time>2024-08-12T09:56:26Z</time>
      </trkpt>
      <trkpt lat="43.16961" lon="1.04236">
        <ele>367</ele>
        <time>2024-08-12T09:56:27Z</time>
      </trkpt>
      <trkpt lat="43.16966" lon="1.04221">
        <ele>367</ele>
        <time>2024-08-12T09:56:31Z</time>
      </trkpt>
      <trkpt lat="43.16968" lon="1.04212">
        <ele>367.4</ele>
        <time>2024-08-12T09:56:33Z</time>
      </trkpt>
      <trkpt lat="43.16969" lon="1.04209">
        <ele>367.8</ele>
        <time>2024-08-12T09:56:34Z</time>
      </trkpt>
      <trkpt lat="43.16971" lon="1.04205">
        <ele>368.2</ele>
        <time>2024-08-12T09:56:35Z</time>
      </trkpt>
      <trkpt lat="43.16973" lon="1.04201">
        <ele>368.6</ele>
        <time>2024-08-12T09:56:36Z</time>
      </trkpt>
      <trkpt lat="43.16974" lon="1.04197">
        <ele>369</ele>
        <time>2024-08-12T09:56:37Z</time>
      </trkpt>
      <trkpt lat="43.16983" lon="1.04174">
        <ele>369</ele>
        <time>2024-08-12T09:56:43Z</time>
      </trkpt>
      <trkpt lat="43.16989" lon="1.04159">
        <ele>370</ele>
        <time>2024-08-12T09:56:47Z</time>
      </trkpt>
      <trkpt lat="43.1699" lon="1.04155">
        <ele>370.4</ele>
        <time>2024-08-12T09:56:48Z</time>
      </trkpt>
      <trkpt lat="43.16991" lon="1.04151">
        <ele>370.8</ele>
        <time>2024-08-12T09:56:49Z</time>
      </trkpt>
      <trkpt lat="43.16992" lon="1.04147">
        <ele>371.2</ele>
        <time>2024-08-12T09:56:50Z</time>
      </trkpt>
      <trkpt lat="43.16997" lon="1.04125">
        <ele>371.2</ele>
        <time>2024-08-12T09:56:55Z</time>
      </trkpt>
      <trkpt lat="43.1701" lon="1.04088">
        <ele>371.2</ele>
        <time>2024-08-12T09:57:04Z</time>
      </trkpt>
      <trkpt lat="43.17018" lon="1.04063">
        <ele>371.2</ele>
        <time>2024-08-12T09:57:10Z</time>
      </trkpt>
      <trkpt lat="43.17025" lon="1.04032">
        <ele>371.2</ele>
        <time>2024-08-12T09:57:17Z</time>
      </trkpt>
      <trkpt lat="43.17038" lon="1.03993">
        <ele>371.2</ele>
        <time>2024-08-12T09:57:24Z</time>
      </trkpt>
      <trkpt lat="43.17044" lon="1.03973">
        <ele>371.2</ele>
        <time>2024-08-12T09:57:27Z</time>
      </trkpt>
      <trkpt lat="43.17051" lon="1.03952">
        <ele>371.2</ele>
        <time>2024-08-12T09:57:30Z</time>
      </trkpt>
      <trkpt lat="43.17054" lon="1.03945">
        <ele>370.8</ele>
        <time>2024-08-12T09:57:31Z</time>
      </trkpt>
      <trkpt lat="43.17057" lon="1.03939">
        <ele>370.4</ele>
        <time>2024-08-12T09:57:32Z</time>
      </trkpt>
      <trkpt lat="43.17061" lon="1.03931">
        <ele>370</ele>
        <time>2024-08-12T09:57:33Z</time>
      </trkpt>
      <trkpt lat="43.17066" lon="1.03925">
        <ele>369.4</ele>
        <time>2024-08-12T09:57:34Z</time>
      </trkpt>
      <trkpt lat="43.17071" lon="1.03922">
        <ele>369</ele>
        <time>2024-08-12T09:57:35Z</time>
      </trkpt>
      <trkpt lat="43.17076" lon="1.0392">
        <ele>368.6</ele>
        <time>2024-08-12T09:57:36Z</time>
      </trkpt>
      <trkpt lat="43.17082" lon="1.03919">
        <ele>367.8</ele>
        <time>2024-08-12T09:57:37Z</time>
      </trkpt>
      <trkpt lat="43.17088" lon="1.03918">
        <ele>367.4</ele>
        <time>2024-08-12T09:57:38Z</time>
      </trkpt>
      <trkpt lat="43.17094" lon="1.03918">
        <ele>367</ele>
        <time>2024-08-12T09:57:39Z</time>
      </trkpt>
      <trkpt lat="43.17122" lon="1.03917">
        <ele>367</ele>
        <time>2024-08-12T09:57:44Z</time>
      </trkpt>
      <trkpt lat="43.17154" lon="1.03913">
        <ele>367</ele>
        <time>2024-08-12T09:57:50Z</time>
      </trkpt>
      <trkpt lat="43.17173" lon="1.03911">
        <ele>367</ele>
        <time>2024-08-12T09:57:54Z</time>
      </trkpt>
      <trkpt lat="43.17183" lon="1.0391">
        <ele>367</ele>
        <time>2024-08-12T09:57:56Z</time>
      </trkpt>
      <trkpt lat="43.17209" lon="1.0391">
        <ele>366.6</ele>
        <time>2024-08-12T09:58:01Z</time>
      </trkpt>
      <trkpt lat="43.17214" lon="1.03909">
        <ele>366.2</ele>
        <time>2024-08-12T09:58:02Z</time>
      </trkpt>
      <trkpt lat="43.17219" lon="1.0391">
        <ele>365.6</ele>
        <time>2024-08-12T09:58:03Z</time>
      </trkpt>
      <trkpt lat="43.17225" lon="1.03911">
        <ele>365.2</ele>
        <time>2024-08-12T09:58:04Z</time>
      </trkpt>
      <trkpt lat="43.1723" lon="1.03912">
        <ele>364.8</ele>
        <time>2024-08-12T09:58:05Z</time>
      </trkpt>
      <trkpt lat="43.17253" lon="1.03919">
        <ele>364.8</ele>
        <time>2024-08-12T09:58:09Z</time>
      </trkpt>
      <trkpt lat="43.17259" lon="1.03922">
        <ele>364.4</ele>
        <time>2024-08-12T09:58:10Z</time>
      </trkpt>
      <trkpt lat="43.17265" lon="1.03926">
        <ele>364</ele>
        <time>2024-08-12T09:58:11Z</time>
      </trkpt>
      <trkpt lat="43.1727" lon="1.0393">
        <ele>363.6</ele>
        <time>2024-08-12T09:58:12Z</time>
      </trkpt>
      <trkpt lat="43.17276" lon="1.03933">
        <ele>363</ele>
        <time>2024-08-12T09:58:13Z</time>
      </trkpt>
      <trkpt lat="43.17282" lon="1.03937">
        <ele>362.6</ele>
        <time>2024-08-12T09:58:14Z</time>
      </trkpt>
      <trkpt lat="43.17319" lon="1.03958">
        <ele>362.2</ele>
        <time>2024-08-12T09:58:20Z</time>
      </trkpt>
      <trkpt lat="43.17324" lon="1.03962">
        <ele>361.8</ele>
        <time>2024-08-12T09:58:21Z</time>
      </trkpt>
      <trkpt lat="43.1733" lon="1.03965">
        <ele>361.4</ele>
        <time>2024-08-12T09:58:22Z</time>
      </trkpt>
      <trkpt lat="43.17336" lon="1.0397">
        <ele>361</ele>
        <time>2024-08-12T09:58:23Z</time>
      </trkpt>
      <trkpt lat="43.17341" lon="1.03973">
        <ele>360.6</ele>
        <time>2024-08-12T09:58:24Z</time>
      </trkpt>
      <trkpt lat="43.17347" lon="1.03977">
        <ele>360.6</ele>
        <time>2024-08-12T09:58:25Z</time>
      </trkpt>
      <trkpt lat="43.1737" lon="1.03991">
        <ele>360.2</ele>
        <time>2024-08-12T09:58:29Z</time>
      </trkpt>
      <trkpt lat="43.17375" lon="1.03994">
        <ele>359.8</ele>
        <time>2024-08-12T09:58:30Z</time>
      </trkpt>
      <trkpt lat="43.17381" lon="1.03997">
        <ele>359.4</ele>
        <time>2024-08-12T09:58:31Z</time>
      </trkpt>
      <trkpt lat="43.17387" lon="1.03999">
        <ele>359</ele>
        <time>2024-08-12T09:58:32Z</time>
      </trkpt>
      <trkpt lat="43.17394" lon="1.04003">
        <ele>358.6</ele>
        <time>2024-08-12T09:58:33Z</time>
      </trkpt>
      <trkpt lat="43.17405" lon="1.04007">
        <ele>358</ele>
        <time>2024-08-12T09:58:35Z</time>
      </trkpt>
      <trkpt lat="43.17411" lon="1.04009">
        <ele>357.6</ele>
        <time>2024-08-12T09:58:36Z</time>
      </trkpt>
      <trkpt lat="43.17418" lon="1.04011">
        <ele>357.2</ele>
        <time>2024-08-12T09:58:37Z</time>
      </trkpt>
      <trkpt lat="43.17425" lon="1.04013">
        <ele>356.8</ele>
        <time>2024-08-12T09:58:38Z</time>
      </trkpt>
      <trkpt lat="43.17431" lon="1.04015">
        <ele>356.4</ele>
        <time>2024-08-12T09:58:39Z</time>
      </trkpt>
      <trkpt lat="43.17445" lon="1.04019">
        <ele>356</ele>
        <time>2024-08-12T09:58:41Z</time>
      </trkpt>
      <trkpt lat="43.17452" lon="1.0402">
        <ele>355.6</ele>
        <time>2024-08-12T09:58:42Z</time>
      </trkpt>
      <trkpt lat="43.17458" lon="1.04021">
        <ele>355.2</ele>
        <time>2024-08-12T09:58:43Z</time>
      </trkpt>
      <trkpt lat="43.17464" lon="1.04021">
        <ele>354.8</ele>
        <time>2024-08-12T09:58:44Z</time>
      </trkpt>
      <trkpt lat="43.1747" lon="1.04022">
        <ele>354.4</ele>
        <time>2024-08-12T09:58:45Z</time>
      </trkpt>
      <trkpt lat="43.17478" lon="1.04021">
        <ele>354.4</ele>
        <time>2024-08-12T09:58:46Z</time>
      </trkpt>
      <trkpt lat="43.17487" lon="1.04019">
        <ele>354.4</ele>
        <time>2024-08-12T09:58:47Z</time>
      </trkpt>
      <trkpt lat="43.17516" lon="1.04012">
        <ele>354.4</ele>
        <time>2024-08-12T09:58:51Z</time>
      </trkpt>
      <trkpt lat="43.17528" lon="1.04008">
        <ele>354.4</ele>
        <time>2024-08-12T09:58:53Z</time>
      </trkpt>
      <trkpt lat="43.17562" lon="1.03996">
        <ele>354.4</ele>
        <time>2024-08-12T09:58:59Z</time>
      </trkpt>
      <trkpt lat="43.1758" lon="1.0399">
        <ele>354.4</ele>
        <time>2024-08-12T09:59:03Z</time>
      </trkpt>
      <trkpt lat="43.17589" lon="1.03986">
        <ele>354.4</ele>
        <time>2024-08-12T09:59:05Z</time>
      </trkpt>
      <trkpt lat="43.17593" lon="1.03984">
        <ele>354</ele>
        <time>2024-08-12T09:59:06Z</time>
      </trkpt>
      <trkpt lat="43.17598" lon="1.03983">
        <ele>353.6</ele>
        <time>2024-08-12T09:59:07Z</time>
      </trkpt>
      <trkpt lat="43.17602" lon="1.03981">
        <ele>353.2</ele>
        <time>2024-08-12T09:59:08Z</time>
      </trkpt>
      <trkpt lat="43.17606" lon="1.0398">
        <ele>352.6</ele>
        <time>2024-08-12T09:59:09Z</time>
      </trkpt>
      <trkpt lat="43.17611" lon="1.03978">
        <ele>352.2</ele>
        <time>2024-08-12T09:59:10Z</time>
      </trkpt>
      <trkpt lat="43.17616" lon="1.03975">
        <ele>352.2</ele>
        <time>2024-08-12T09:59:11Z</time>
      </trkpt>
      <trkpt lat="43.1765" lon="1.03961">
        <ele>352.2</ele>
        <time>2024-08-12T09:59:18Z</time>
      </trkpt>
      <trkpt lat="43.17679" lon="1.0395">
        <ele>352.2</ele>
        <time>2024-08-12T09:59:24Z</time>
      </trkpt>
      <trkpt lat="43.17688" lon="1.03946">
        <ele>352.2</ele>
        <time>2024-08-12T09:59:26Z</time>
      </trkpt>
      <trkpt lat="43.17692" lon="1.03944">
        <ele>351.8</ele>
        <time>2024-08-12T09:59:27Z</time>
      </trkpt>
      <trkpt lat="43.17697" lon="1.03942">
        <ele>351.4</ele>
        <time>2024-08-12T09:59:28Z</time>
      </trkpt>
      <trkpt lat="43.17701" lon="1.0394">
        <ele>351</ele>
        <time>2024-08-12T09:59:29Z</time>
      </trkpt>
      <trkpt lat="43.17706" lon="1.03938">
        <ele>350.6</ele>
        <time>2024-08-12T09:59:30Z</time>
      </trkpt>
      <trkpt lat="43.17711" lon="1.03937">
        <ele>350.2</ele>
        <time>2024-08-12T09:59:31Z</time>
      </trkpt>
      <trkpt lat="43.17744" lon="1.03924">
        <ele>350.2</ele>
        <time>2024-08-12T09:59:38Z</time>
      </trkpt>
      <trkpt lat="43.17772" lon="1.0391">
        <ele>349.8</ele>
        <time>2024-08-12T09:59:43Z</time>
      </trkpt>
      <trkpt lat="43.17777" lon="1.03908">
        <ele>349.4</ele>
        <time>2024-08-12T09:59:44Z</time>
      </trkpt>
      <trkpt lat="43.17782" lon="1.03906">
        <ele>349</ele>
        <time>2024-08-12T09:59:45Z</time>
      </trkpt>
      <trkpt lat="43.17788" lon="1.03904">
        <ele>348.4</ele>
        <time>2024-08-12T09:59:46Z</time>
      </trkpt>
      <trkpt lat="43.17793" lon="1.03901">
        <ele>348</ele>
        <time>2024-08-12T09:59:47Z</time>
      </trkpt>
      <trkpt lat="43.17804" lon="1.03895">
        <ele>348</ele>
        <time>2024-08-12T09:59:49Z</time>
      </trkpt>
      <trkpt lat="43.17813" lon="1.03888">
        <ele>348</ele>
        <time>2024-08-12T09:59:51Z</time>
      </trkpt>
      <trkpt lat="43.17826" lon="1.03877">
        <ele>348</ele>
        <time>2024-08-12T09:59:54Z</time>
      </trkpt>
      <trkpt lat="43.17831" lon="1.03875">
        <ele>348</ele>
        <time>2024-08-12T09:59:55Z</time>
      </trkpt>
      <trkpt lat="43.17842" lon="1.03864">
        <ele>348</ele>
        <time>2024-08-12T09:59:58Z</time>
      </trkpt>
      <trkpt lat="43.17846" lon="1.03861">
        <ele>348</ele>
        <time>2024-08-12T09:59:59Z</time>
      </trkpt>
      <trkpt lat="43.17859" lon="1.03853">
        <ele>348</ele>
        <time>2024-08-12T10:00:04Z</time>
      </trkpt>
      <trkpt lat="43.1786" lon="1.03856">
        <ele>347.6</ele>
        <time>2024-08-12T10:00:05Z</time>
      </trkpt>
      <trkpt lat="43.1786" lon="1.0386">
        <ele>347.2</ele>
        <time>2024-08-12T10:00:06Z</time>
      </trkpt>
      <trkpt lat="43.17861" lon="1.03867">
        <ele>346.8</ele>
        <time>2024-08-12T10:00:07Z</time>
      </trkpt>
      <trkpt lat="43.17863" lon="1.03873">
        <ele>346.4</ele>
        <time>2024-08-12T10:00:08Z</time>
      </trkpt>
      <trkpt lat="43.17864" lon="1.03876">
        <ele>346</ele>
        <time>2024-08-12T10:00:09Z</time>
      </trkpt>
      <trkpt lat="43.17867" lon="1.03879">
        <ele>345.4</ele>
        <time>2024-08-12T10:00:10Z</time>
      </trkpt>
      <trkpt lat="43.1787" lon="1.0388">
        <ele>344.8</ele>
        <time>2024-08-12T10:00:11Z</time>
      </trkpt>
      <trkpt lat="43.17873" lon="1.0388">
        <ele>344.4</ele>
        <time>2024-08-12T10:00:12Z</time>
      </trkpt>
      <trkpt lat="43.17876" lon="1.03878">
        <ele>343.8</ele>
        <time>2024-08-12T10:00:13Z</time>
      </trkpt>
      <trkpt lat="43.17883" lon="1.03876">
        <ele>343.8</ele>
        <time>2024-08-12T10:00:15Z</time>
      </trkpt>
      <trkpt lat="43.17896" lon="1.03878">
        <ele>343.8</ele>
        <time>2024-08-12T10:00:18Z</time>
      </trkpt>
      <trkpt lat="43.17919" lon="1.03891">
        <ele>343.8</ele>
        <time>2024-08-12T10:00:23Z</time>
      </trkpt>
      <trkpt lat="43.17924" lon="1.03895">
        <ele>343.8</ele>
        <time>2024-08-12T10:00:24Z</time>
      </trkpt>
      <trkpt lat="43.17933" lon="1.03902">
        <ele>343.4</ele>
        <time>2024-08-12T10:00:26Z</time>
      </trkpt>
      <trkpt lat="43.17936" lon="1.03905">
        <ele>343</ele>
        <time>2024-08-12T10:00:27Z</time>
      </trkpt>
      <trkpt lat="43.17938" lon="1.03905">
        <ele>342.6</ele>
        <time>2024-08-12T10:00:28Z</time>
      </trkpt>
      <trkpt lat="43.17941" lon="1.03908">
        <ele>342.2</ele>
        <time>2024-08-12T10:00:29Z</time>
      </trkpt>
      <trkpt lat="43.17943" lon="1.03911">
        <ele>341.8</ele>
        <time>2024-08-12T10:00:30Z</time>
      </trkpt>
      <trkpt lat="43.17945" lon="1.03913">
        <ele>341.8</ele>
        <time>2024-08-12T10:00:32Z</time>
      </trkpt>
      <trkpt lat="43.1795" lon="1.03914">
        <ele>341.8</ele>
        <time>2024-08-12T10:00:34Z</time>
      </trkpt>
      <trkpt lat="43.17961" lon="1.03915">
        <ele>341.8</ele>
        <time>2024-08-12T10:00:37Z</time>
      </trkpt>
      <trkpt lat="43.17991" lon="1.0391">
        <ele>341.8</ele>
        <time>2024-08-12T10:00:42Z</time>
      </trkpt>
      <trkpt lat="43.18003" lon="1.03908">
        <ele>341.8</ele>
        <time>2024-08-12T10:00:44Z</time>
      </trkpt>
      <trkpt lat="43.18013" lon="1.03905">
        <ele>341.8</ele>
        <time>2024-08-12T10:00:46Z</time>
      </trkpt>
      <trkpt lat="43.18022" lon="1.03898">
        <ele>341.4</ele>
        <time>2024-08-12T10:00:48Z</time>
      </trkpt>
      <trkpt lat="43.18027" lon="1.03895">
        <ele>341</ele>
        <time>2024-08-12T10:00:49Z</time>
      </trkpt>
      <trkpt lat="43.18031" lon="1.03892">
        <ele>340.4</ele>
        <time>2024-08-12T10:00:50Z</time>
      </trkpt>
      <trkpt lat="43.18037" lon="1.0389">
        <ele>340</ele>
        <time>2024-08-12T10:00:51Z</time>
      </trkpt>
      <trkpt lat="43.18042" lon="1.0389">
        <ele>339.6</ele>
        <time>2024-08-12T10:00:52Z</time>
      </trkpt>
      <trkpt lat="43.18055" lon="1.03894">
        <ele>339.6</ele>
        <time>2024-08-12T10:00:54Z</time>
      </trkpt>
      <trkpt lat="43.1806" lon="1.03896">
        <ele>339</ele>
        <time>2024-08-12T10:00:55Z</time>
      </trkpt>
      <trkpt lat="43.18069" lon="1.03897">
        <ele>338.6</ele>
        <time>2024-08-12T10:00:56Z</time>
      </trkpt>
      <trkpt lat="43.18077" lon="1.03898">
        <ele>338.2</ele>
        <time>2024-08-12T10:00:57Z</time>
      </trkpt>
      <trkpt lat="43.18086" lon="1.03899">
        <ele>337.8</ele>
        <time>2024-08-12T10:00:58Z</time>
      </trkpt>
      <trkpt lat="43.18095" lon="1.039">
        <ele>337.2</ele>
        <time>2024-08-12T10:00:59Z</time>
      </trkpt>
      <trkpt lat="43.18101" lon="1.03899">
        <ele>337.2</ele>
        <time>2024-08-12T10:01:00Z</time>
      </trkpt>
      <trkpt lat="43.18119" lon="1.03897">
        <ele>337.2</ele>
        <time>2024-08-12T10:01:03Z</time>
      </trkpt>
      <trkpt lat="43.18125" lon="1.03898">
        <ele>336.8</ele>
        <time>2024-08-12T10:01:04Z</time>
      </trkpt>
      <trkpt lat="43.18133" lon="1.039">
        <ele>336.4</ele>
        <time>2024-08-12T10:01:05Z</time>
      </trkpt>
      <trkpt lat="43.18141" lon="1.03902">
        <ele>336</ele>
        <time>2024-08-12T10:01:06Z</time>
      </trkpt>
      <trkpt lat="43.18149" lon="1.03903">
        <ele>335.6</ele>
        <time>2024-08-12T10:01:07Z</time>
      </trkpt>
      <trkpt lat="43.18155" lon="1.03904">
        <ele>335</ele>
        <time>2024-08-12T10:01:08Z</time>
      </trkpt>
      <trkpt lat="43.18163" lon="1.03909">
        <ele>334.4</ele>
        <time>2024-08-12T10:01:09Z</time>
      </trkpt>
      <trkpt lat="43.18169" lon="1.03915">
        <ele>333.8</ele>
        <time>2024-08-12T10:01:10Z</time>
      </trkpt>
      <trkpt lat="43.18174" lon="1.03922">
        <ele>333.2</ele>
        <time>2024-08-12T10:01:11Z</time>
      </trkpt>
      <trkpt lat="43.18179" lon="1.03927">
        <ele>332.6</ele>
        <time>2024-08-12T10:01:12Z</time>
      </trkpt>
      <trkpt lat="43.18182" lon="1.03935">
        <ele>332.6</ele>
        <time>2024-08-12T10:01:13Z</time>
      </trkpt>
      <trkpt lat="43.18187" lon="1.03951">
        <ele>332.2</ele>
        <time>2024-08-12T10:01:15Z</time>
      </trkpt>
      <trkpt lat="43.18189" lon="1.0396">
        <ele>331.8</ele>
        <time>2024-08-12T10:01:16Z</time>
      </trkpt>
      <trkpt lat="43.18192" lon="1.03967">
        <ele>331.4</ele>
        <time>2024-08-12T10:01:17Z</time>
      </trkpt>
      <trkpt lat="43.18193" lon="1.03974">
        <ele>331</ele>
        <time>2024-08-12T10:01:18Z</time>
      </trkpt>
      <trkpt lat="43.18195" lon="1.03982">
        <ele>330.6</ele>
        <time>2024-08-12T10:01:19Z</time>
      </trkpt>
      <trkpt lat="43.18197" lon="1.0399">
        <ele>330.6</ele>
        <time>2024-08-12T10:01:20Z</time>
      </trkpt>
      <trkpt lat="43.18205" lon="1.04016">
        <ele>330.6</ele>
        <time>2024-08-12T10:01:24Z</time>
      </trkpt>
      <trkpt lat="43.1822" lon="1.04036">
        <ele>330.6</ele>
        <time>2024-08-12T10:01:28Z</time>
      </trkpt>
      <trkpt lat="43.18239" lon="1.04048">
        <ele>330.2</ele>
        <time>2024-08-12T10:01:31Z</time>
      </trkpt>
      <trkpt lat="43.18245" lon="1.04052">
        <ele>329.8</ele>
        <time>2024-08-12T10:01:32Z</time>
      </trkpt>
      <trkpt lat="43.18251" lon="1.04056">
        <ele>329.4</ele>
        <time>2024-08-12T10:01:33Z</time>
      </trkpt>
      <trkpt lat="43.18255" lon="1.04058">
        <ele>328.6</ele>
        <time>2024-08-12T10:01:34Z</time>
      </trkpt>
      <trkpt lat="43.1826" lon="1.0406">
        <ele>327.8</ele>
        <time>2024-08-12T10:01:35Z</time>
      </trkpt>
      <trkpt lat="43.18264" lon="1.04063">
        <ele>327</ele>
        <time>2024-08-12T10:01:36Z</time>
      </trkpt>
      <trkpt lat="43.18265" lon="1.04066">
        <ele>326.4</ele>
        <time>2024-08-12T10:01:37Z</time>
      </trkpt>
      <trkpt lat="43.18266" lon="1.04067">
        <ele>325.6</ele>
        <time>2024-08-12T10:01:38Z</time>
      </trkpt>
      <trkpt lat="43.18267" lon="1.04067">
        <ele>325</ele>
        <time>2024-08-12T10:01:39Z</time>
      </trkpt>
      <trkpt lat="43.18269" lon="1.04068">
        <ele>324.2</ele>
        <time>2024-08-12T10:01:40Z</time>
      </trkpt>
      <trkpt lat="43.1827" lon="1.04069">
        <ele>323.6</ele>
        <time>2024-08-12T10:01:41Z</time>
      </trkpt>
      <trkpt lat="43.1827" lon="1.04074">
        <ele>323.6</ele>
        <time>2024-08-12T10:01:43Z</time>
      </trkpt>
      <trkpt lat="43.18273" lon="1.04079">
        <ele>323.6</ele>
        <time>2024-08-12T10:01:45Z</time>
      </trkpt>
      <trkpt lat="43.18274" lon="1.04083">
        <ele>323.6</ele>
        <time>2024-08-12T10:01:47Z</time>
      </trkpt>
      <trkpt lat="43.18278" lon="1.0409">
        <ele>323</ele>
        <time>2024-08-12T10:01:52Z</time>
      </trkpt>
      <trkpt lat="43.1828" lon="1.04093">
        <ele>322.6</ele>
        <time>2024-08-12T10:01:53Z</time>
      </trkpt>
      <trkpt lat="43.1828" lon="1.04096">
        <ele>322.2</ele>
        <time>2024-08-12T10:01:54Z</time>
      </trkpt>
      <trkpt lat="43.18282" lon="1.04099">
        <ele>321.8</ele>
        <time>2024-08-12T10:01:55Z</time>
      </trkpt>
      <trkpt lat="43.18284" lon="1.04103">
        <ele>321.4</ele>
        <time>2024-08-12T10:01:56Z</time>
      </trkpt>
      <trkpt lat="43.1829" lon="1.04121">
        <ele>321.4</ele>
        <time>2024-08-12T10:02:00Z</time>
      </trkpt>
      <trkpt lat="43.18291" lon="1.04127">
        <ele>321</ele>
        <time>2024-08-12T10:02:01Z</time>
      </trkpt>
      <trkpt lat="43.18291" lon="1.04132">
        <ele>320.6</ele>
        <time>2024-08-12T10:02:02Z</time>
      </trkpt>
      <trkpt lat="43.18291" lon="1.04142">
        <ele>320.2</ele>
        <time>2024-08-12T10:02:03Z</time>
      </trkpt>
      <trkpt lat="43.18291" lon="1.04149">
        <ele>319.8</ele>
        <time>2024-08-12T10:02:04Z</time>
      </trkpt>
      <trkpt lat="43.18292" lon="1.04155">
        <ele>319.4</ele>
        <time>2024-08-12T10:02:05Z</time>
      </trkpt>
      <trkpt lat="43.18295" lon="1.04168">
        <ele>319.4</ele>
        <time>2024-08-12T10:02:06Z</time>
      </trkpt>
      <trkpt lat="43.18299" lon="1.04188">
        <ele>319.4</ele>
        <time>2024-08-12T10:02:08Z</time>
      </trkpt>
      <trkpt lat="43.18307" lon="1.04229">
        <ele>319.4</ele>
        <time>2024-08-12T10:02:13Z</time>
      </trkpt>
      <trkpt lat="43.18311" lon="1.04238">
        <ele>319.4</ele>
        <time>2024-08-12T10:02:14Z</time>
      </trkpt>
      <trkpt lat="43.18326" lon="1.0427">
        <ele>319.4</ele>
        <time>2024-08-12T10:02:18Z</time>
      </trkpt>
      <trkpt lat="43.18332" lon="1.04294">
        <ele>319.4</ele>
        <time>2024-08-12T10:02:21Z</time>
      </trkpt>
      <trkpt lat="43.18333" lon="1.04301">
        <ele>319.4</ele>
        <time>2024-08-12T10:02:22Z</time>
      </trkpt>
      <trkpt lat="43.18334" lon="1.04339">
        <ele>319.4</ele>
        <time>2024-08-12T10:02:26Z</time>
      </trkpt>
      <trkpt lat="43.18337" lon="1.04371">
        <ele>319.4</ele>
        <time>2024-08-12T10:02:30Z</time>
      </trkpt>
      <trkpt lat="43.18338" lon="1.04378">
        <ele>319.4</ele>
        <time>2024-08-12T10:02:31Z</time>
      </trkpt>
      <trkpt lat="43.18341" lon="1.04402">
        <ele>319.4</ele>
        <time>2024-08-12T10:02:34Z</time>
      </trkpt>
      <trkpt lat="43.18346" lon="1.04445">
        <ele>319.4</ele>
        <time>2024-08-12T10:02:39Z</time>
      </trkpt>
      <trkpt lat="43.18346" lon="1.04452">
        <ele>319.4</ele>
        <time>2024-08-12T10:02:40Z</time>
      </trkpt>
      <trkpt lat="43.18353" lon="1.0448">
        <ele>319.4</ele>
        <time>2024-08-12T10:02:44Z</time>
      </trkpt>
      <trkpt lat="43.1836" lon="1.04506">
        <ele>319.4</ele>
        <time>2024-08-12T10:02:48Z</time>
      </trkpt>
      <trkpt lat="43.18365" lon="1.04521">
        <ele>319.8</ele>
        <time>2024-08-12T10:02:51Z</time>
      </trkpt>
      <trkpt lat="43.18366" lon="1.04524">
        <ele>320.2</ele>
        <time>2024-08-12T10:02:52Z</time>
      </trkpt>
      <trkpt lat="43.18367" lon="1.04528">
        <ele>320.6</ele>
        <time>2024-08-12T10:02:53Z</time>
      </trkpt>
      <trkpt lat="43.18368" lon="1.0453">
        <ele>321.2</ele>
        <time>2024-08-12T10:02:54Z</time>
      </trkpt>
      <trkpt lat="43.18369" lon="1.04533">
        <ele>321.6</ele>
        <time>2024-08-12T10:02:55Z</time>
      </trkpt>
      <trkpt lat="43.1837" lon="1.04541">
        <ele>322</ele>
        <time>2024-08-12T10:02:57Z</time>
      </trkpt>
      <trkpt lat="43.18371" lon="1.04546">
        <ele>322.8</ele>
        <time>2024-08-12T10:02:58Z</time>
      </trkpt>
      <trkpt lat="43.18372" lon="1.04552">
        <ele>323.2</ele>
        <time>2024-08-12T10:02:59Z</time>
      </trkpt>
      <trkpt lat="43.18372" lon="1.04558">
        <ele>323.6</ele>
        <time>2024-08-12T10:03:00Z</time>
      </trkpt>
      <trkpt lat="43.18371" lon="1.04564">
        <ele>323.6</ele>
        <time>2024-08-12T10:03:01Z</time>
      </trkpt>
      <trkpt lat="43.18371" lon="1.04605">
        <ele>323.6</ele>
        <time>2024-08-12T10:03:07Z</time>
      </trkpt>
      <trkpt lat="43.1837" lon="1.04612">
        <ele>324</ele>
        <time>2024-08-12T10:03:08Z</time>
      </trkpt>
      <trkpt lat="43.1837" lon="1.04619">
        <ele>324.4</ele>
        <time>2024-08-12T10:03:09Z</time>
      </trkpt>
      <trkpt lat="43.1837" lon="1.04626">
        <ele>324.8</ele>
        <time>2024-08-12T10:03:10Z</time>
      </trkpt>
      <trkpt lat="43.18369" lon="1.04633">
        <ele>325.2</ele>
        <time>2024-08-12T10:03:11Z</time>
      </trkpt>
      <trkpt lat="43.18368" lon="1.04639">
        <ele>325.6</ele>
        <time>2024-08-12T10:03:12Z</time>
      </trkpt>
      <trkpt lat="43.18365" lon="1.04671">
        <ele>325.6</ele>
        <time>2024-08-12T10:03:17Z</time>
      </trkpt>
      <trkpt lat="43.18364" lon="1.04685">
        <ele>326</ele>
        <time>2024-08-12T10:03:19Z</time>
      </trkpt>
      <trkpt lat="43.18364" lon="1.04692">
        <ele>326.6</ele>
        <time>2024-08-12T10:03:20Z</time>
      </trkpt>
      <trkpt lat="43.18363" lon="1.04699">
        <ele>327</ele>
        <time>2024-08-12T10:03:21Z</time>
      </trkpt>
      <trkpt lat="43.18362" lon="1.04705">
        <ele>327.4</ele>
        <time>2024-08-12T10:03:22Z</time>
      </trkpt>
      <trkpt lat="43.18361" lon="1.04711">
        <ele>327.8</ele>
        <time>2024-08-12T10:03:23Z</time>
      </trkpt>
      <trkpt lat="43.1836" lon="1.04722">
        <ele>327.8</ele>
        <time>2024-08-12T10:03:25Z</time>
      </trkpt>
      <trkpt lat="43.18355" lon="1.04765">
        <ele>327.8</ele>
        <time>2024-08-12T10:03:32Z</time>
      </trkpt>
      <trkpt lat="43.18353" lon="1.04772">
        <ele>327.8</ele>
        <time>2024-08-12T10:03:33Z</time>
      </trkpt>
      <trkpt lat="43.1835" lon="1.04788">
        <ele>327.4</ele>
        <time>2024-08-12T10:03:35Z</time>
      </trkpt>
      <trkpt lat="43.18349" lon="1.04795">
        <ele>326.8</ele>
        <time>2024-08-12T10:03:36Z</time>
      </trkpt>
      <trkpt lat="43.18347" lon="1.04802">
        <ele>326.4</ele>
        <time>2024-08-12T10:03:37Z</time>
      </trkpt>
      <trkpt lat="43.18346" lon="1.04807">
        <ele>326</ele>
        <time>2024-08-12T10:03:38Z</time>
      </trkpt>
      <trkpt lat="43.18344" lon="1.04812">
        <ele>325.6</ele>
        <time>2024-08-12T10:03:39Z</time>
      </trkpt>
      <trkpt lat="43.18342" lon="1.04819">
        <ele>325.6</ele>
        <time>2024-08-12T10:03:40Z</time>
      </trkpt>
      <trkpt lat="43.1834" lon="1.04831">
        <ele>325.2</ele>
        <time>2024-08-12T10:03:42Z</time>
      </trkpt>
      <trkpt lat="43.18339" lon="1.04837">
        <ele>324.6</ele>
        <time>2024-08-12T10:03:43Z</time>
      </trkpt>
      <trkpt lat="43.18336" lon="1.04845">
        <ele>324</ele>
        <time>2024-08-12T10:03:44Z</time>
      </trkpt>
      <trkpt lat="43.18334" lon="1.04852">
        <ele>323.2</ele>
        <time>2024-08-12T10:03:45Z</time>
      </trkpt>
      <trkpt lat="43.18331" lon="1.0486">
        <ele>322.6</ele>
        <time>2024-08-12T10:03:46Z</time>
      </trkpt>
      <trkpt lat="43.1833" lon="1.04868">
        <ele>320.6</ele>
        <time>2024-08-12T10:03:47Z</time>
      </trkpt>
      <trkpt lat="43.18327" lon="1.04877">
        <ele>319.4</ele>
        <time>2024-08-12T10:03:48Z</time>
      </trkpt>
      <trkpt lat="43.18325" lon="1.04888">
        <ele>318.2</ele>
        <time>2024-08-12T10:03:49Z</time>
      </trkpt>
      <trkpt lat="43.18323" lon="1.04898">
        <ele>317</ele>
        <time>2024-08-12T10:03:50Z</time>
      </trkpt>
      <trkpt lat="43.1832" lon="1.04908">
        <ele>315.6</ele>
        <time>2024-08-12T10:03:51Z</time>
      </trkpt>
      <trkpt lat="43.18318" lon="1.04919">
        <ele>314.4</ele>
        <time>2024-08-12T10:03:52Z</time>
      </trkpt>
      <trkpt lat="43.18316" lon="1.04928">
        <ele>313.2</ele>
        <time>2024-08-12T10:03:53Z</time>
      </trkpt>
      <trkpt lat="43.18315" lon="1.04938">
        <ele>312</ele>
        <time>2024-08-12T10:03:54Z</time>
      </trkpt>
      <trkpt lat="43.18313" lon="1.04948">
        <ele>310.8</ele>
        <time>2024-08-12T10:03:55Z</time>
      </trkpt>
      <trkpt lat="43.18312" lon="1.04956">
        <ele>309.6</ele>
        <time>2024-08-12T10:03:56Z</time>
      </trkpt>
      <trkpt lat="43.18312" lon="1.04965">
        <ele>308.4</ele>
        <time>2024-08-12T10:03:57Z</time>
      </trkpt>
      <trkpt lat="43.18313" lon="1.04973">
        <ele>307.2</ele>
        <time>2024-08-12T10:03:58Z</time>
      </trkpt>
      <trkpt lat="43.18318" lon="1.0499">
        <ele>307.2</ele>
        <time>2024-08-12T10:04:01Z</time>
      </trkpt>
      <trkpt lat="43.18319" lon="1.04996">
        <ele>307.2</ele>
        <time>2024-08-12T10:04:02Z</time>
      </trkpt>
      <trkpt lat="43.18329" lon="1.05023">
        <ele>307.8</ele>
        <time>2024-08-12T10:04:06Z</time>
      </trkpt>
      <trkpt lat="43.18332" lon="1.0503">
        <ele>308.2</ele>
        <time>2024-08-12T10:04:07Z</time>
      </trkpt>
      <trkpt lat="43.18334" lon="1.05036">
        <ele>308.8</ele>
        <time>2024-08-12T10:04:08Z</time>
      </trkpt>
      <trkpt lat="43.18337" lon="1.05043">
        <ele>309.2</ele>
        <time>2024-08-12T10:04:09Z</time>
      </trkpt>
      <trkpt lat="43.1834" lon="1.05049">
        <ele>309.8</ele>
        <time>2024-08-12T10:04:10Z</time>
      </trkpt>
      <trkpt lat="43.18343" lon="1.05056">
        <ele>310.2</ele>
        <time>2024-08-12T10:04:11Z</time>
      </trkpt>
      <trkpt lat="43.18345" lon="1.05061">
        <ele>311.2</ele>
        <time>2024-08-12T10:04:12Z</time>
      </trkpt>
      <trkpt lat="43.18347" lon="1.05067">
        <ele>311.6</ele>
        <time>2024-08-12T10:04:13Z</time>
      </trkpt>
      <trkpt lat="43.18348" lon="1.05074">
        <ele>312</ele>
        <time>2024-08-12T10:04:14Z</time>
      </trkpt>
      <trkpt lat="43.18351" lon="1.05089">
        <ele>312</ele>
        <time>2024-08-12T10:04:16Z</time>
      </trkpt>
      <trkpt lat="43.18353" lon="1.05109">
        <ele>312</ele>
        <time>2024-08-12T10:04:19Z</time>
      </trkpt>
      <trkpt lat="43.18354" lon="1.05115">
        <ele>312.4</ele>
        <time>2024-08-12T10:04:20Z</time>
      </trkpt>
      <trkpt lat="43.18354" lon="1.05122">
        <ele>312.8</ele>
        <time>2024-08-12T10:04:21Z</time>
      </trkpt>
      <trkpt lat="43.18354" lon="1.05129">
        <ele>313.4</ele>
        <time>2024-08-12T10:04:22Z</time>
      </trkpt>
      <trkpt lat="43.18355" lon="1.05136">
        <ele>313.8</ele>
        <time>2024-08-12T10:04:23Z</time>
      </trkpt>
      <trkpt lat="43.18356" lon="1.05141">
        <ele>314.2</ele>
        <time>2024-08-12T10:04:24Z</time>
      </trkpt>
      <trkpt lat="43.18357" lon="1.05147">
        <ele>314.8</ele>
        <time>2024-08-12T10:04:25Z</time>
      </trkpt>
      <trkpt lat="43.18358" lon="1.05151">
        <ele>315.2</ele>
        <time>2024-08-12T10:04:26Z</time>
      </trkpt>
      <trkpt lat="43.1836" lon="1.05157">
        <ele>315.6</ele>
        <time>2024-08-12T10:04:27Z</time>
      </trkpt>
      <trkpt lat="43.18362" lon="1.05161">
        <ele>316.2</ele>
        <time>2024-08-12T10:04:28Z</time>
      </trkpt>
      <trkpt lat="43.18363" lon="1.05165">
        <ele>316.6</ele>
        <time>2024-08-12T10:04:29Z</time>
      </trkpt>
      <trkpt lat="43.18365" lon="1.05169">
        <ele>317.2</ele>
        <time>2024-08-12T10:04:30Z</time>
      </trkpt>
      <trkpt lat="43.18368" lon="1.05172">
        <ele>317.8</ele>
        <time>2024-08-12T10:04:31Z</time>
      </trkpt>
      <trkpt lat="43.18371" lon="1.05175">
        <ele>318.2</ele>
        <time>2024-08-12T10:04:32Z</time>
      </trkpt>
      <trkpt lat="43.18373" lon="1.05178">
        <ele>318.8</ele>
        <time>2024-08-12T10:04:33Z</time>
      </trkpt>
      <trkpt lat="43.18375" lon="1.05182">
        <ele>319.2</ele>
        <time>2024-08-12T10:04:34Z</time>
      </trkpt>
      <trkpt lat="43.18376" lon="1.05185">
        <ele>319.8</ele>
        <time>2024-08-12T10:04:35Z</time>
      </trkpt>
      <trkpt lat="43.18377" lon="1.05189">
        <ele>320.4</ele>
        <time>2024-08-12T10:04:36Z</time>
      </trkpt>
      <trkpt lat="43.18379" lon="1.05193">
        <ele>320.8</ele>
        <time>2024-08-12T10:04:37Z</time>
      </trkpt>
      <trkpt lat="43.18381" lon="1.05197">
        <ele>321.2</ele>
        <time>2024-08-12T10:04:38Z</time>
      </trkpt>
      <trkpt lat="43.18382" lon="1.052">
        <ele>321.8</ele>
        <time>2024-08-12T10:04:39Z</time>
      </trkpt>
      <trkpt lat="43.18385" lon="1.05204">
        <ele>322.2</ele>
        <time>2024-08-12T10:04:40Z</time>
      </trkpt>
      <trkpt lat="43.18387" lon="1.05208">
        <ele>322.6</ele>
        <time>2024-08-12T10:04:41Z</time>
      </trkpt>
      <trkpt lat="43.1839" lon="1.05211">
        <ele>323</ele>
        <time>2024-08-12T10:04:42Z</time>
      </trkpt>
      <trkpt lat="43.18392" lon="1.05214">
        <ele>323.4</ele>
        <time>2024-08-12T10:04:43Z</time>
      </trkpt>
      <trkpt lat="43.18394" lon="1.05218">
        <ele>323.8</ele>
        <time>2024-08-12T10:04:44Z</time>
      </trkpt>
      <trkpt lat="43.18397" lon="1.05221">
        <ele>324.2</ele>
        <time>2024-08-12T10:04:45Z</time>
      </trkpt>
      <trkpt lat="43.18399" lon="1.05224">
        <ele>324.6</ele>
        <time>2024-08-12T10:04:46Z</time>
      </trkpt>
      <trkpt lat="43.18401" lon="1.05228">
        <ele>325</ele>
        <time>2024-08-12T10:04:47Z</time>
      </trkpt>
      <trkpt lat="43.18409" lon="1.05237">
        <ele>325</ele>
        <time>2024-08-12T10:04:51Z</time>
      </trkpt>
      <trkpt lat="43.18413" lon="1.05239">
        <ele>325.4</ele>
        <time>2024-08-12T10:04:52Z</time>
      </trkpt>
      <trkpt lat="43.18417" lon="1.0524">
        <ele>326</ele>
        <time>2024-08-12T10:04:53Z</time>
      </trkpt>
      <trkpt lat="43.18421" lon="1.05241">
        <ele>326.4</ele>
        <time>2024-08-12T10:04:54Z</time>
      </trkpt>
      <trkpt lat="43.18425" lon="1.05243">
        <ele>326.8</ele>
        <time>2024-08-12T10:04:55Z</time>
      </trkpt>
      <trkpt lat="43.18429" lon="1.05245">
        <ele>327.2</ele>
        <time>2024-08-12T10:04:56Z</time>
      </trkpt>
      <trkpt lat="43.18459" lon="1.05254">
        <ele>327.2</ele>
        <time>2024-08-12T10:05:01Z</time>
      </trkpt>
      <trkpt lat="43.18471" lon="1.05256">
        <ele>326.8</ele>
        <time>2024-08-12T10:05:03Z</time>
      </trkpt>
      <trkpt lat="43.18477" lon="1.05259">
        <ele>326.4</ele>
        <time>2024-08-12T10:05:04Z</time>
      </trkpt>
      <trkpt lat="43.18482" lon="1.05264">
        <ele>326</ele>
        <time>2024-08-12T10:05:05Z</time>
      </trkpt>
      <trkpt lat="43.18486" lon="1.0527">
        <ele>325.6</ele>
        <time>2024-08-12T10:05:06Z</time>
      </trkpt>
      <trkpt lat="43.18491" lon="1.05276">
        <ele>325.2</ele>
        <time>2024-08-12T10:05:07Z</time>
      </trkpt>
      <trkpt lat="43.18501" lon="1.05287">
        <ele>324.6</ele>
        <time>2024-08-12T10:05:09Z</time>
      </trkpt>
      <trkpt lat="43.18507" lon="1.05291">
        <ele>324.2</ele>
        <time>2024-08-12T10:05:10Z</time>
      </trkpt>
      <trkpt lat="43.18513" lon="1.05296">
        <ele>323.4</ele>
        <time>2024-08-12T10:05:11Z</time>
      </trkpt>
      <trkpt lat="43.18521" lon="1.05303">
        <ele>322.6</ele>
        <time>2024-08-12T10:05:12Z</time>
      </trkpt>
      <trkpt lat="43.18528" lon="1.05312">
        <ele>321.6</ele>
        <time>2024-08-12T10:05:13Z</time>
      </trkpt>
      <trkpt lat="43.18535" lon="1.05321">
        <ele>320.6</ele>
        <time>2024-08-12T10:05:14Z</time>
      </trkpt>
      <trkpt lat="43.18543" lon="1.0533">
        <ele>319.4</ele>
        <time>2024-08-12T10:05:15Z</time>
      </trkpt>
      <trkpt lat="43.18551" lon="1.05337">
        <ele>318.2</ele>
        <time>2024-08-12T10:05:16Z</time>
      </trkpt>
      <trkpt lat="43.18558" lon="1.05346">
        <ele>317</ele>
        <time>2024-08-12T10:05:17Z</time>
      </trkpt>
      <trkpt lat="43.18563" lon="1.05358">
        <ele>316</ele>
        <time>2024-08-12T10:05:18Z</time>
      </trkpt>
      <trkpt lat="43.18567" lon="1.05368">
        <ele>314.8</ele>
        <time>2024-08-12T10:05:19Z</time>
      </trkpt>
      <trkpt lat="43.18569" lon="1.0538">
        <ele>313.6</ele>
        <time>2024-08-12T10:05:20Z</time>
      </trkpt>
      <trkpt lat="43.18571" lon="1.05391">
        <ele>312.4</ele>
        <time>2024-08-12T10:05:21Z</time>
      </trkpt>
      <trkpt lat="43.18574" lon="1.054">
        <ele>312.4</ele>
        <time>2024-08-12T10:05:22Z</time>
      </trkpt>
      <trkpt lat="43.18578" lon="1.05409">
        <ele>312</ele>
        <time>2024-08-12T10:05:23Z</time>
      </trkpt>
      <trkpt lat="43.18582" lon="1.05419">
        <ele>311.6</ele>
        <time>2024-08-12T10:05:24Z</time>
      </trkpt>
      <trkpt lat="43.18584" lon="1.0543">
        <ele>311.2</ele>
        <time>2024-08-12T10:05:25Z</time>
      </trkpt>
      <trkpt lat="43.18587" lon="1.0544">
        <ele>310.4</ele>
        <time>2024-08-12T10:05:26Z</time>
      </trkpt>
      <trkpt lat="43.1859" lon="1.05451">
        <ele>310.4</ele>
        <time>2024-08-12T10:05:27Z</time>
      </trkpt>
      <trkpt lat="43.18595" lon="1.05471">
        <ele>310</ele>
        <time>2024-08-12T10:05:29Z</time>
      </trkpt>
      <trkpt lat="43.18597" lon="1.05482">
        <ele>309.4</ele>
        <time>2024-08-12T10:05:30Z</time>
      </trkpt>
      <trkpt lat="43.18599" lon="1.05493">
        <ele>309</ele>
        <time>2024-08-12T10:05:31Z</time>
      </trkpt>
      <trkpt lat="43.18602" lon="1.05504">
        <ele>308.6</ele>
        <time>2024-08-12T10:05:32Z</time>
      </trkpt>
      <trkpt lat="43.18604" lon="1.05515">
        <ele>308.2</ele>
        <time>2024-08-12T10:05:33Z</time>
      </trkpt>
      <trkpt lat="43.18607" lon="1.05526">
        <ele>307.8</ele>
        <time>2024-08-12T10:05:34Z</time>
      </trkpt>
      <trkpt lat="43.18608" lon="1.05536">
        <ele>307.4</ele>
        <time>2024-08-12T10:05:35Z</time>
      </trkpt>
      <trkpt lat="43.1861" lon="1.05547">
        <ele>306.8</ele>
        <time>2024-08-12T10:05:36Z</time>
      </trkpt>
      <trkpt lat="43.18611" lon="1.05558">
        <ele>306.4</ele>
        <time>2024-08-12T10:05:37Z</time>
      </trkpt>
      <trkpt lat="43.18611" lon="1.0557">
        <ele>306</ele>
        <time>2024-08-12T10:05:38Z</time>
      </trkpt>
      <trkpt lat="43.18613" lon="1.05591">
        <ele>305.6</ele>
        <time>2024-08-12T10:05:40Z</time>
      </trkpt>
      <trkpt lat="43.18615" lon="1.056">
        <ele>305.2</ele>
        <time>2024-08-12T10:05:41Z</time>
      </trkpt>
      <trkpt lat="43.18617" lon="1.0561">
        <ele>304.8</ele>
        <time>2024-08-12T10:05:42Z</time>
      </trkpt>
      <trkpt lat="43.18619" lon="1.05619">
        <ele>304.4</ele>
        <time>2024-08-12T10:05:43Z</time>
      </trkpt>
      <trkpt lat="43.18623" lon="1.05627">
        <ele>303.8</ele>
        <time>2024-08-12T10:05:44Z</time>
      </trkpt>
      <trkpt lat="43.1863" lon="1.05645">
        <ele>303.4</ele>
        <time>2024-08-12T10:05:46Z</time>
      </trkpt>
      <trkpt lat="43.18633" lon="1.05654">
        <ele>303</ele>
        <time>2024-08-12T10:05:47Z</time>
      </trkpt>
      <trkpt lat="43.18636" lon="1.05663">
        <ele>302.2</ele>
        <time>2024-08-12T10:05:48Z</time>
      </trkpt>
      <trkpt lat="43.18638" lon="1.05672">
        <ele>301.6</ele>
        <time>2024-08-12T10:05:49Z</time>
      </trkpt>
      <trkpt lat="43.1864" lon="1.05681">
        <ele>300.6</ele>
        <time>2024-08-12T10:05:50Z</time>
      </trkpt>
      <trkpt lat="43.18641" lon="1.0569">
        <ele>299</ele>
        <time>2024-08-12T10:05:51Z</time>
      </trkpt>
      <trkpt lat="43.1864" lon="1.057">
        <ele>298</ele>
        <time>2024-08-12T10:05:52Z</time>
      </trkpt>
      <trkpt lat="43.1864" lon="1.0571">
        <ele>297</ele>
        <time>2024-08-12T10:05:53Z</time>
      </trkpt>
      <trkpt lat="43.18641" lon="1.05722">
        <ele>296</ele>
        <time>2024-08-12T10:05:54Z</time>
      </trkpt>
      <trkpt lat="43.18642" lon="1.05731">
        <ele>295</ele>
        <time>2024-08-12T10:05:55Z</time>
      </trkpt>
      <trkpt lat="43.18644" lon="1.05739">
        <ele>294</ele>
        <time>2024-08-12T10:05:56Z</time>
      </trkpt>
      <trkpt lat="43.18648" lon="1.05744">
        <ele>292.8</ele>
        <time>2024-08-12T10:05:57Z</time>
      </trkpt>
      <trkpt lat="43.18654" lon="1.05748">
        <ele>291.8</ele>
        <time>2024-08-12T10:05:58Z</time>
      </trkpt>
      <trkpt lat="43.18661" lon="1.05751">
        <ele>291.2</ele>
        <time>2024-08-12T10:05:59Z</time>
      </trkpt>
      <trkpt lat="43.18669" lon="1.05748">
        <ele>290.4</ele>
        <time>2024-08-12T10:06:00Z</time>
      </trkpt>
      <trkpt lat="43.18677" lon="1.05747">
        <ele>289.8</ele>
        <time>2024-08-12T10:06:01Z</time>
      </trkpt>
      <trkpt lat="43.18686" lon="1.05745">
        <ele>289</ele>
        <time>2024-08-12T10:06:02Z</time>
      </trkpt>
      <trkpt lat="43.18694" lon="1.05741">
        <ele>288</ele>
        <time>2024-08-12T10:06:03Z</time>
      </trkpt>
      <trkpt lat="43.18702" lon="1.05737">
        <ele>287.2</ele>
        <time>2024-08-12T10:06:04Z</time>
      </trkpt>
      <trkpt lat="43.1871" lon="1.05733">
        <ele>286.2</ele>
        <time>2024-08-12T10:06:05Z</time>
      </trkpt>
      <trkpt lat="43.18718" lon="1.0573">
        <ele>285.2</ele>
        <time>2024-08-12T10:06:06Z</time>
      </trkpt>
      <trkpt lat="43.18725" lon="1.05728">
        <ele>284.4</ele>
        <time>2024-08-12T10:06:07Z</time>
      </trkpt>
      <trkpt lat="43.18731" lon="1.05728">
        <ele>283.4</ele>
        <time>2024-08-12T10:06:08Z</time>
      </trkpt>
      <trkpt lat="43.18738" lon="1.05733">
        <ele>282.6</ele>
        <time>2024-08-12T10:06:09Z</time>
      </trkpt>
      <trkpt lat="43.18742" lon="1.05741">
        <ele>281.8</ele>
        <time>2024-08-12T10:06:10Z</time>
      </trkpt>
      <trkpt lat="43.18746" lon="1.05748">
        <ele>280.8</ele>
        <time>2024-08-12T10:06:11Z</time>
      </trkpt>
      <trkpt lat="43.18752" lon="1.05765">
        <ele>280.8</ele>
        <time>2024-08-12T10:06:13Z</time>
      </trkpt>
      <trkpt lat="43.18754" lon="1.05773">
        <ele>280.4</ele>
        <time>2024-08-12T10:06:14Z</time>
      </trkpt>
      <trkpt lat="43.18758" lon="1.05781">
        <ele>279.6</ele>
        <time>2024-08-12T10:06:15Z</time>
      </trkpt>
      <trkpt lat="43.18761" lon="1.05788">
        <ele>279.2</ele>
        <time>2024-08-12T10:06:16Z</time>
      </trkpt>
      <trkpt lat="43.18764" lon="1.05795">
        <ele>278.8</ele>
        <time>2024-08-12T10:06:17Z</time>
      </trkpt>
      <trkpt lat="43.18767" lon="1.05801">
        <ele>278.8</ele>
        <time>2024-08-12T10:06:18Z</time>
      </trkpt>
      <trkpt lat="43.18771" lon="1.05807">
        <ele>278.8</ele>
        <time>2024-08-12T10:06:19Z</time>
      </trkpt>
      <trkpt lat="43.18776" lon="1.05812">
        <ele>278.8</ele>
        <time>2024-08-12T10:06:20Z</time>
      </trkpt>
      <trkpt lat="43.18784" lon="1.05822">
        <ele>278.8</ele>
        <time>2024-08-12T10:06:22Z</time>
      </trkpt>
      <trkpt lat="43.18789" lon="1.05827">
        <ele>278.4</ele>
        <time>2024-08-12T10:06:23Z</time>
      </trkpt>
      <trkpt lat="43.18793" lon="1.05832">
        <ele>278</ele>
        <time>2024-08-12T10:06:24Z</time>
      </trkpt>
      <trkpt lat="43.18799" lon="1.05835">
        <ele>277.4</ele>
        <time>2024-08-12T10:06:25Z</time>
      </trkpt>
      <trkpt lat="43.18805" lon="1.05838">
        <ele>277</ele>
        <time>2024-08-12T10:06:26Z</time>
      </trkpt>
      <trkpt lat="43.18811" lon="1.0584">
        <ele>276.6</ele>
        <time>2024-08-12T10:06:27Z</time>
      </trkpt>
      <trkpt lat="43.18818" lon="1.05842">
        <ele>276.6</ele>
        <time>2024-08-12T10:06:28Z</time>
      </trkpt>
      <trkpt lat="43.18826" lon="1.05843">
        <ele>276.2</ele>
        <time>2024-08-12T10:06:29Z</time>
      </trkpt>
      <trkpt lat="43.18834" lon="1.05844">
        <ele>275.8</ele>
        <time>2024-08-12T10:06:30Z</time>
      </trkpt>
      <trkpt lat="43.18842" lon="1.05843">
        <ele>275</ele>
        <time>2024-08-12T10:06:31Z</time>
      </trkpt>
      <trkpt lat="43.1885" lon="1.05842">
        <ele>274.4</ele>
        <time>2024-08-12T10:06:32Z</time>
      </trkpt>
      <trkpt lat="43.18858" lon="1.0584">
        <ele>273.6</ele>
        <time>2024-08-12T10:06:33Z</time>
      </trkpt>
      <trkpt lat="43.18866" lon="1.05838">
        <ele>272.8</ele>
        <time>2024-08-12T10:06:34Z</time>
      </trkpt>
      <trkpt lat="43.18874" lon="1.05834">
        <ele>272</ele>
        <time>2024-08-12T10:06:35Z</time>
      </trkpt>
      <trkpt lat="43.18881" lon="1.05829">
        <ele>271</ele>
        <time>2024-08-12T10:06:36Z</time>
      </trkpt>
      <trkpt lat="43.18889" lon="1.05823">
        <ele>270</ele>
        <time>2024-08-12T10:06:37Z</time>
      </trkpt>
      <trkpt lat="43.18897" lon="1.05814">
        <ele>268.8</ele>
        <time>2024-08-12T10:06:38Z</time>
      </trkpt>
      <trkpt lat="43.18905" lon="1.05805">
        <ele>267.6</ele>
        <time>2024-08-12T10:06:39Z</time>
      </trkpt>
      <trkpt lat="43.18912" lon="1.05796">
        <ele>265</ele>
        <time>2024-08-12T10:06:40Z</time>
      </trkpt>
      <trkpt lat="43.18919" lon="1.05788">
        <ele>263.6</ele>
        <time>2024-08-12T10:06:41Z</time>
      </trkpt>
      <trkpt lat="43.18925" lon="1.05781">
        <ele>262.4</ele>
        <time>2024-08-12T10:06:42Z</time>
      </trkpt>
      <trkpt lat="43.18929" lon="1.05775">
        <ele>261.2</ele>
        <time>2024-08-12T10:06:43Z</time>
      </trkpt>
      <trkpt lat="43.18934" lon="1.05771">
        <ele>260</ele>
        <time>2024-08-12T10:06:44Z</time>
      </trkpt>
      <trkpt lat="43.18937" lon="1.05768">
        <ele>258.8</ele>
        <time>2024-08-12T10:06:45Z</time>
      </trkpt>
      <trkpt lat="43.18946" lon="1.0577">
        <ele>258.4</ele>
        <time>2024-08-12T10:06:47Z</time>
      </trkpt>
      <trkpt lat="43.1895" lon="1.05775">
        <ele>258</ele>
        <time>2024-08-12T10:06:48Z</time>
      </trkpt>
      <trkpt lat="43.18955" lon="1.0578">
        <ele>257.6</ele>
        <time>2024-08-12T10:06:49Z</time>
      </trkpt>
      <trkpt lat="43.18959" lon="1.05785">
        <ele>257.2</ele>
        <time>2024-08-12T10:06:50Z</time>
      </trkpt>
      <trkpt lat="43.18965" lon="1.05789">
        <ele>256.8</ele>
        <time>2024-08-12T10:06:51Z</time>
      </trkpt>
      <trkpt lat="43.1897" lon="1.05794">
        <ele>256.8</ele>
        <time>2024-08-12T10:06:52Z</time>
      </trkpt>
      <trkpt lat="43.18985" lon="1.05809">
        <ele>256.8</ele>
        <time>2024-08-12T10:06:55Z</time>
      </trkpt>
      <trkpt lat="43.1899" lon="1.05814">
        <ele>256.2</ele>
        <time>2024-08-12T10:06:56Z</time>
      </trkpt>
      <trkpt lat="43.18995" lon="1.05819">
        <ele>255.8</ele>
        <time>2024-08-12T10:06:57Z</time>
      </trkpt>
      <trkpt lat="43.19001" lon="1.05823">
        <ele>255.4</ele>
        <time>2024-08-12T10:06:58Z</time>
      </trkpt>
      <trkpt lat="43.19006" lon="1.05827">
        <ele>255</ele>
        <time>2024-08-12T10:06:59Z</time>
      </trkpt>
      <trkpt lat="43.19011" lon="1.05831">
        <ele>254.4</ele>
        <time>2024-08-12T10:07:00Z</time>
      </trkpt>
      <trkpt lat="43.19039" lon="1.05855">
        <ele>254.4</ele>
        <time>2024-08-12T10:07:06Z</time>
      </trkpt>
      <trkpt lat="43.19057" lon="1.05871">
        <ele>254.4</ele>
        <time>2024-08-12T10:07:10Z</time>
      </trkpt>
      <trkpt lat="43.19065" lon="1.05882">
        <ele>254.4</ele>
        <time>2024-08-12T10:07:12Z</time>
      </trkpt>
      <trkpt lat="43.19068" lon="1.05887">
        <ele>254</ele>
        <time>2024-08-12T10:07:13Z</time>
      </trkpt>
      <trkpt lat="43.19072" lon="1.05893">
        <ele>253.6</ele>
        <time>2024-08-12T10:07:14Z</time>
      </trkpt>
      <trkpt lat="43.19075" lon="1.05899">
        <ele>253.2</ele>
        <time>2024-08-12T10:07:15Z</time>
      </trkpt>
      <trkpt lat="43.19079" lon="1.05906">
        <ele>252.8</ele>
        <time>2024-08-12T10:07:16Z</time>
      </trkpt>
      <trkpt lat="43.19082" lon="1.05913">
        <ele>252.4</ele>
        <time>2024-08-12T10:07:17Z</time>
      </trkpt>
      <trkpt lat="43.19087" lon="1.0592">
        <ele>252.4</ele>
        <time>2024-08-12T10:07:18Z</time>
      </trkpt>
      <trkpt lat="43.19113" lon="1.05948">
        <ele>252.4</ele>
        <time>2024-08-12T10:07:23Z</time>
      </trkpt>
      <trkpt lat="43.19129" lon="1.05962">
        <ele>252</ele>
        <time>2024-08-12T10:07:26Z</time>
      </trkpt>
      <trkpt lat="43.19134" lon="1.05966">
        <ele>251.6</ele>
        <time>2024-08-12T10:07:27Z</time>
      </trkpt>
      <trkpt lat="43.1914" lon="1.05971">
        <ele>251</ele>
        <time>2024-08-12T10:07:28Z</time>
      </trkpt>
      <trkpt lat="43.19145" lon="1.05975">
        <ele>250.6</ele>
        <time>2024-08-12T10:07:29Z</time>
      </trkpt>
      <trkpt lat="43.19149" lon="1.05979">
        <ele>250.2</ele>
        <time>2024-08-12T10:07:30Z</time>
      </trkpt>
      <trkpt lat="43.19186" lon="1.06013">
        <ele>250.2</ele>
        <time>2024-08-12T10:07:38Z</time>
      </trkpt>
      <trkpt lat="43.1922" lon="1.06049">
        <ele>249.8</ele>
        <time>2024-08-12T10:07:46Z</time>
      </trkpt>
      <trkpt lat="43.19225" lon="1.06054">
        <ele>249.4</ele>
        <time>2024-08-12T10:07:47Z</time>
      </trkpt>
      <trkpt lat="43.19229" lon="1.06058">
        <ele>249</ele>
        <time>2024-08-12T10:07:48Z</time>
      </trkpt>
      <trkpt lat="43.19233" lon="1.06063">
        <ele>248.6</ele>
        <time>2024-08-12T10:07:49Z</time>
      </trkpt>
      <trkpt lat="43.19238" lon="1.06067">
        <ele>248.2</ele>
        <time>2024-08-12T10:07:50Z</time>
      </trkpt>
      <trkpt lat="43.19246" lon="1.06076">
        <ele>248.2</ele>
        <time>2024-08-12T10:07:52Z</time>
      </trkpt>
      <trkpt lat="43.19249" lon="1.06081">
        <ele>248.2</ele>
        <time>2024-08-12T10:07:53Z</time>
      </trkpt>
      <trkpt lat="43.19276" lon="1.06112">
        <ele>248.2</ele>
        <time>2024-08-12T10:08:00Z</time>
      </trkpt>
      <trkpt lat="43.19304" lon="1.06157">
        <ele>248.2</ele>
        <time>2024-08-12T10:08:08Z</time>
      </trkpt>
      <trkpt lat="43.19326" lon="1.06188">
        <ele>248.2</ele>
        <time>2024-08-12T10:08:14Z</time>
      </trkpt>
      <trkpt lat="43.19335" lon="1.06196">
        <ele>247.8</ele>
        <time>2024-08-12T10:08:16Z</time>
      </trkpt>
      <trkpt lat="43.1934" lon="1.062">
        <ele>247.4</ele>
        <time>2024-08-12T10:08:17Z</time>
      </trkpt>
      <trkpt lat="43.19344" lon="1.06204">
        <ele>247</ele>
        <time>2024-08-12T10:08:18Z</time>
      </trkpt>
      <trkpt lat="43.19349" lon="1.06207">
        <ele>246.6</ele>
        <time>2024-08-12T10:08:19Z</time>
      </trkpt>
      <trkpt lat="43.19354" lon="1.0621">
        <ele>246.2</ele>
        <time>2024-08-12T10:08:20Z</time>
      </trkpt>
      <trkpt lat="43.1939" lon="1.06227">
        <ele>246.2</ele>
        <time>2024-08-12T10:08:27Z</time>
      </trkpt>
      <trkpt lat="43.19426" lon="1.06238">
        <ele>246.2</ele>
        <time>2024-08-12T10:08:34Z</time>
      </trkpt>
      <trkpt lat="43.19457" lon="1.06248">
        <ele>246.2</ele>
        <time>2024-08-12T10:08:40Z</time>
      </trkpt>
      <trkpt lat="43.19462" lon="1.0625">
        <ele>245.8</ele>
        <time>2024-08-12T10:08:41Z</time>
      </trkpt>
      <trkpt lat="43.19468" lon="1.06254">
        <ele>245.4</ele>
        <time>2024-08-12T10:08:42Z</time>
      </trkpt>
      <trkpt lat="43.19474" lon="1.06257">
        <ele>245</ele>
        <time>2024-08-12T10:08:43Z</time>
      </trkpt>
      <trkpt lat="43.19479" lon="1.06259">
        <ele>244</ele>
        <time>2024-08-12T10:08:44Z</time>
      </trkpt>
      <trkpt lat="43.19484" lon="1.06263">
        <ele>244</ele>
        <time>2024-08-12T10:08:45Z</time>
      </trkpt>
      <trkpt lat="43.19514" lon="1.06287">
        <ele>244</ele>
        <time>2024-08-12T10:08:51Z</time>
      </trkpt>
      <trkpt lat="43.19545" lon="1.06318">
        <ele>244</ele>
        <time>2024-08-12T10:08:58Z</time>
      </trkpt>
      <trkpt lat="43.19569" lon="1.06343">
        <ele>244</ele>
        <time>2024-08-12T10:09:04Z</time>
      </trkpt>
      <trkpt lat="43.19572" lon="1.06347">
        <ele>244</ele>
        <time>2024-08-12T10:09:05Z</time>
      </trkpt>
      <trkpt lat="43.19577" lon="1.06355">
        <ele>243.6</ele>
        <time>2024-08-12T10:09:07Z</time>
      </trkpt>
      <trkpt lat="43.1958" lon="1.0636">
        <ele>243.2</ele>
        <time>2024-08-12T10:09:08Z</time>
      </trkpt>
      <trkpt lat="43.19583" lon="1.06365">
        <ele>242.4</ele>
        <time>2024-08-12T10:09:09Z</time>
      </trkpt>
      <trkpt lat="43.19585" lon="1.0637">
        <ele>242</ele>
        <time>2024-08-12T10:09:10Z</time>
      </trkpt>
      <trkpt lat="43.1959" lon="1.0638">
        <ele>242</ele>
        <time>2024-08-12T10:09:12Z</time>
      </trkpt>
      <trkpt lat="43.19611" lon="1.06415">
        <ele>242</ele>
        <time>2024-08-12T10:09:19Z</time>
      </trkpt>
      <trkpt lat="43.1962" lon="1.06427">
        <ele>242</ele>
        <time>2024-08-12T10:09:22Z</time>
      </trkpt>
      <trkpt lat="43.19628" lon="1.06436">
        <ele>242</ele>
        <time>2024-08-12T10:09:24Z</time>
      </trkpt>
      <trkpt lat="43.19631" lon="1.06441">
        <ele>242</ele>
        <time>2024-08-12T10:09:25Z</time>
      </trkpt>
      <trkpt lat="43.19639" lon="1.06458">
        <ele>242</ele>
        <time>2024-08-12T10:09:28Z</time>
      </trkpt>
      <trkpt lat="43.19642" lon="1.06469">
        <ele>242</ele>
        <time>2024-08-12T10:09:30Z</time>
      </trkpt>
      <trkpt lat="43.19646" lon="1.06491">
        <ele>242</ele>
        <time>2024-08-12T10:09:34Z</time>
      </trkpt>
      <trkpt lat="43.19651" lon="1.06525">
        <ele>242</ele>
        <time>2024-08-12T10:09:41Z</time>
      </trkpt>
      <trkpt lat="43.19653" lon="1.06536">
        <ele>242</ele>
        <time>2024-08-12T10:09:43Z</time>
      </trkpt>
      <trkpt lat="43.19655" lon="1.06547">
        <ele>242</ele>
        <time>2024-08-12T10:09:45Z</time>
      </trkpt>
      <trkpt lat="43.19656" lon="1.0656">
        <ele>242</ele>
        <time>2024-08-12T10:09:47Z</time>
      </trkpt>
      <trkpt lat="43.19666" lon="1.06608">
        <ele>242</ele>
        <time>2024-08-12T10:09:55Z</time>
      </trkpt>
      <trkpt lat="43.19674" lon="1.06647">
        <ele>242</ele>
        <time>2024-08-12T10:10:01Z</time>
      </trkpt>
      <trkpt lat="43.19676" lon="1.0666">
        <ele>241.6</ele>
        <time>2024-08-12T10:10:03Z</time>
      </trkpt>
      <trkpt lat="43.19677" lon="1.06667">
        <ele>241.2</ele>
        <time>2024-08-12T10:10:04Z</time>
      </trkpt>
      <trkpt lat="43.19678" lon="1.06674">
        <ele>240.8</ele>
        <time>2024-08-12T10:10:05Z</time>
      </trkpt>
      <trkpt lat="43.1968" lon="1.06681">
        <ele>240.4</ele>
        <time>2024-08-12T10:10:06Z</time>
      </trkpt>
      <trkpt lat="43.1968" lon="1.06688">
        <ele>240</ele>
        <time>2024-08-12T10:10:07Z</time>
      </trkpt>
      <trkpt lat="43.19683" lon="1.06708">
        <ele>240</ele>
        <time>2024-08-12T10:10:10Z</time>
      </trkpt>
      <trkpt lat="43.19687" lon="1.06734">
        <ele>240</ele>
        <time>2024-08-12T10:10:14Z</time>
      </trkpt>
      <trkpt lat="43.19688" lon="1.06738">
        <ele>240</ele>
        <time>2024-08-12T10:10:15Z</time>
      </trkpt>
      <trkpt lat="43.19694" lon="1.06738">
        <ele>240</ele>
        <time>2024-08-12T10:10:17Z</time>
      </trkpt>
      <trkpt lat="43.19696" lon="1.06735">
        <ele>240</ele>
        <time>2024-08-12T10:10:18Z</time>
      </trkpt>
      <trkpt lat="43.19703" lon="1.0673">
        <ele>240</ele>
        <time>2024-08-12T10:10:20Z</time>
      </trkpt>
      <trkpt lat="43.19706" lon="1.0673">
        <ele>240</ele>
        <time>2024-08-12T10:10:21Z</time>
      </trkpt>
      <trkpt lat="43.19714" lon="1.06729">
        <ele>240</ele>
        <time>2024-08-12T10:10:25Z</time>
      </trkpt>
      <trkpt lat="43.19714" lon="1.06727">
        <ele>240</ele>
        <time>2024-08-12T10:10:26Z</time>
      </trkpt>
      <trkpt lat="43.19714" lon="1.0672">
        <ele>240</ele>
        <time>2024-08-12T10:10:30Z</time>
      </trkpt>
      <trkpt lat="43.19714" lon="1.06712">
        <ele>240</ele>
        <time>2024-08-12T10:10:36Z</time>
      </trkpt>
      <trkpt lat="43.19715" lon="1.06698">
        <ele>240</ele>
        <time>2024-08-12T10:10:40Z</time>
      </trkpt>
      <trkpt lat="43.19719" lon="1.06673">
        <ele>240</ele>
        <time>2024-08-12T10:10:46Z</time>
      </trkpt>
      <trkpt lat="43.19726" lon="1.06668">
        <ele>240</ele>
        <time>2024-08-12T10:10:49Z</time>
      </trkpt>
      <trkpt lat="43.19728" lon="1.06669">
        <ele>240</ele>
        <time>2024-08-12T10:10:50Z</time>
      </trkpt>
      <trkpt lat="43.19742" lon="1.06669">
        <ele>240</ele>
        <time>2024-08-12T10:10:55Z</time>
      </trkpt>
      <trkpt lat="43.19752" lon="1.06681">
        <ele>240</ele>
        <time>2024-08-12T10:10:59Z</time>
      </trkpt>
      <trkpt lat="43.19767" lon="1.06698">
        <ele>240</ele>
        <time>2024-08-12T10:11:04Z</time>
      </trkpt>
      <trkpt lat="43.19786" lon="1.06702">
        <ele>240</ele>
        <time>2024-08-12T10:11:09Z</time>
      </trkpt>
      <trkpt lat="43.19809" lon="1.06703">
        <ele>240</ele>
        <time>2024-08-12T10:11:15Z</time>
      </trkpt>
      <trkpt lat="43.19831" lon="1.06704">
        <ele>240</ele>
        <time>2024-08-12T10:11:21Z</time>
      </trkpt>
      <trkpt lat="43.19852" lon="1.06698">
        <ele>240</ele>
        <time>2024-08-12T10:11:27Z</time>
      </trkpt>
      <trkpt lat="43.19871" lon="1.06698">
        <ele>240</ele>
        <time>2024-08-12T10:11:32Z</time>
      </trkpt>
      <trkpt lat="43.19876" lon="1.06703">
        <ele>240</ele>
        <time>2024-08-12T10:11:34Z</time>
      </trkpt>
      <trkpt lat="43.19879" lon="1.06712">
        <ele>240</ele>
        <time>2024-08-12T10:11:36Z</time>
      </trkpt>
      <trkpt lat="43.19878" lon="1.06732">
        <ele>240</ele>
        <time>2024-08-12T10:11:40Z</time>
      </trkpt>
      <trkpt lat="43.19885" lon="1.06746">
        <ele>240</ele>
        <time>2024-08-12T10:11:44Z</time>
      </trkpt>
      <trkpt lat="43.19902" lon="1.06749">
        <ele>240</ele>
        <time>2024-08-12T10:11:48Z</time>
      </trkpt>
      <trkpt lat="43.19913" lon="1.06764">
        <ele>240</ele>
        <time>2024-08-12T10:11:52Z</time>
      </trkpt>
      <trkpt lat="43.19915" lon="1.0678">
        <ele>240</ele>
        <time>2024-08-12T10:11:55Z</time>
      </trkpt>
      <trkpt lat="43.19917" lon="1.06788">
        <ele>240</ele>
        <time>2024-08-12T10:11:57Z</time>
      </trkpt>
      <trkpt lat="43.19929" lon="1.06797">
        <ele>240</ele>
        <time>2024-08-12T10:12:01Z</time>
      </trkpt>
      <trkpt lat="43.19945" lon="1.06808">
        <ele>240</ele>
        <time>2024-08-12T10:12:08Z</time>
      </trkpt>
      <trkpt lat="43.19959" lon="1.06814">
        <ele>240</ele>
        <time>2024-08-12T10:12:14Z</time>
      </trkpt>
      <trkpt lat="43.19967" lon="1.06816">
        <ele>240</ele>
        <time>2024-08-12T10:12:20Z</time>
      </trkpt>
      <trkpt lat="43.1997" lon="1.06815">
        <ele>240</ele>
        <time>2024-08-12T10:12:22Z</time>
      </trkpt>
      <trkpt lat="43.19974" lon="1.06818">
        <ele>240</ele>
        <time>2024-08-12T10:12:24Z</time>
      </trkpt>
      <trkpt lat="43.19978" lon="1.06823">
        <ele>240</ele>
        <time>2024-08-12T10:12:26Z</time>
      </trkpt>
      <trkpt lat="43.19984" lon="1.06829">
        <ele>240</ele>
        <time>2024-08-12T10:12:30Z</time>
      </trkpt>
      <trkpt lat="43.19984" lon="1.06847">
        <ele>240</ele>
        <time>2024-08-12T10:12:35Z</time>
      </trkpt>
      <trkpt lat="43.19988" lon="1.06865">
        <ele>240</ele>
        <time>2024-08-12T10:12:40Z</time>
      </trkpt>
      <trkpt lat="43.19994" lon="1.06885">
        <ele>240</ele>
        <time>2024-08-12T10:12:45Z</time>
      </trkpt>
      <trkpt lat="43.20003" lon="1.069">
        <ele>240</ele>
        <time>2024-08-12T10:12:50Z</time>
      </trkpt>
      <trkpt lat="43.20013" lon="1.06919">
        <ele>239.6</ele>
        <time>2024-08-12T10:12:55Z</time>
      </trkpt>
      <trkpt lat="43.20015" lon="1.06923">
        <ele>239.2</ele>
        <time>2024-08-12T10:12:56Z</time>
      </trkpt>
      <trkpt lat="43.20016" lon="1.06928">
        <ele>238.8</ele>
        <time>2024-08-12T10:12:57Z</time>
      </trkpt>
      <trkpt lat="43.20017" lon="1.06932">
        <ele>238.4</ele>
        <time>2024-08-12T10:12:58Z</time>
      </trkpt>
      <trkpt lat="43.20018" lon="1.06937">
        <ele>238</ele>
        <time>2024-08-12T10:12:59Z</time>
      </trkpt>
      <trkpt lat="43.2002" lon="1.06941">
        <ele>238</ele>
        <time>2024-08-12T10:13:00Z</time>
      </trkpt>
      <trkpt lat="43.20033" lon="1.0697">
        <ele>238</ele>
        <time>2024-08-12T10:13:06Z</time>
      </trkpt>
      <trkpt lat="43.2004" lon="1.07005">
        <ele>238</ele>
        <time>2024-08-12T10:13:12Z</time>
      </trkpt>
      <trkpt lat="43.20041" lon="1.07015">
        <ele>238</ele>
        <time>2024-08-12T10:13:14Z</time>
      </trkpt>
      <trkpt lat="43.20043" lon="1.07035">
        <ele>238</ele>
        <time>2024-08-12T10:13:18Z</time>
      </trkpt>
      <trkpt lat="43.20044" lon="1.07055">
        <ele>238</ele>
        <time>2024-08-12T10:13:23Z</time>
      </trkpt>
      <trkpt lat="43.20045" lon="1.0706">
        <ele>238</ele>
        <time>2024-08-12T10:13:25Z</time>
      </trkpt>
      <trkpt lat="43.20045" lon="1.07064">
        <ele>238</ele>
        <time>2024-08-12T10:13:27Z</time>
      </trkpt>
      <trkpt lat="43.20043" lon="1.07067">
        <ele>238</ele>
        <time>2024-08-12T10:13:29Z</time>
      </trkpt>
      <trkpt lat="43.20038" lon="1.07067">
        <ele>238</ele>
        <time>2024-08-12T10:13:31Z</time>
      </trkpt>
      <trkpt lat="43.20021" lon="1.07061">
        <ele>238</ele>
        <time>2024-08-12T10:13:36Z</time>
      </trkpt>
      <trkpt lat="43.20006" lon="1.07062">
        <ele>238</ele>
        <time>2024-08-12T10:13:40Z</time>
      </trkpt>
      <trkpt lat="43.19999" lon="1.07073">
        <ele>238</ele>
        <time>2024-08-12T10:13:43Z</time>
      </trkpt>
      <trkpt lat="43.19999" lon="1.07094">
        <ele>238</ele>
        <time>2024-08-12T10:13:47Z</time>
      </trkpt>
      <trkpt lat="43.20001" lon="1.07109">
        <ele>238</ele>
        <time>2024-08-12T10:13:49Z</time>
      </trkpt>
      <trkpt lat="43.20007" lon="1.07145">
        <ele>238</ele>
        <time>2024-08-12T10:13:54Z</time>
      </trkpt>
      <trkpt lat="43.20012" lon="1.07169">
        <ele>238</ele>
        <time>2024-08-12T10:13:58Z</time>
      </trkpt>
      <trkpt lat="43.20015" lon="1.07181">
        <ele>238</ele>
        <time>2024-08-12T10:14:00Z</time>
      </trkpt>
      <trkpt lat="43.20021" lon="1.07202">
        <ele>238</ele>
        <time>2024-08-12T10:14:04Z</time>
      </trkpt>
      <trkpt lat="43.20022" lon="1.07208">
        <ele>238</ele>
        <time>2024-08-12T10:14:05Z</time>
      </trkpt>
      <trkpt lat="43.20026" lon="1.07237">
        <ele>238</ele>
        <time>2024-08-12T10:14:10Z</time>
      </trkpt>
      <trkpt lat="43.20028" lon="1.07254">
        <ele>238</ele>
        <time>2024-08-12T10:14:13Z</time>
      </trkpt>
      <trkpt lat="43.20028" lon="1.07261">
        <ele>238</ele>
        <time>2024-08-12T10:14:14Z</time>
      </trkpt>
      <trkpt lat="43.20027" lon="1.07294">
        <ele>238</ele>
        <time>2024-08-12T10:14:20Z</time>
      </trkpt>
      <trkpt lat="43.20028" lon="1.073">
        <ele>238</ele>
        <time>2024-08-12T10:14:22Z</time>
      </trkpt>
      <trkpt lat="43.20027" lon="1.07304">
        <ele>238</ele>
        <time>2024-08-12T10:14:24Z</time>
      </trkpt>
      <trkpt lat="43.20026" lon="1.07309">
        <ele>238</ele>
        <time>2024-08-12T10:14:26Z</time>
      </trkpt>
      <trkpt lat="43.20025" lon="1.07316">
        <ele>238</ele>
        <time>2024-08-12T10:14:28Z</time>
      </trkpt>
      <trkpt lat="43.20026" lon="1.07339">
        <ele>238</ele>
        <time>2024-08-12T10:14:33Z</time>
      </trkpt>
      <trkpt lat="43.20023" lon="1.07356">
        <ele>238</ele>
        <time>2024-08-12T10:14:36Z</time>
      </trkpt>
      <trkpt lat="43.20021" lon="1.07361">
        <ele>238</ele>
        <time>2024-08-12T10:14:37Z</time>
      </trkpt>
      <trkpt lat="43.20011" lon="1.07387">
        <ele>238</ele>
        <time>2024-08-12T10:14:42Z</time>
      </trkpt>
      <trkpt lat="43.20009" lon="1.07393">
        <ele>238</ele>
        <time>2024-08-12T10:14:43Z</time>
      </trkpt>
      <trkpt lat="43.2" lon="1.07423">
        <ele>238</ele>
        <time>2024-08-12T10:14:48Z</time>
      </trkpt>
      <trkpt lat="43.19997" lon="1.0743">
        <ele>238</ele>
        <time>2024-08-12T10:14:49Z</time>
      </trkpt>
      <trkpt lat="43.19996" lon="1.07444">
        <ele>238</ele>
        <time>2024-08-12T10:14:52Z</time>
      </trkpt>
      <trkpt lat="43.20003" lon="1.07447">
        <ele>238</ele>
        <time>2024-08-12T10:14:55Z</time>
      </trkpt>
      <trkpt lat="43.20012" lon="1.07443">
        <ele>238</ele>
        <time>2024-08-12T10:14:58Z</time>
      </trkpt>
      <trkpt lat="43.20017" lon="1.0744">
        <ele>238</ele>
        <time>2024-08-12T10:15:00Z</time>
      </trkpt>
      <trkpt lat="43.20027" lon="1.07449">
        <ele>238</ele>
        <time>2024-08-12T10:15:03Z</time>
      </trkpt>
      <trkpt lat="43.2003" lon="1.07454">
        <ele>238</ele>
        <time>2024-08-12T10:15:04Z</time>
      </trkpt>
      <trkpt lat="43.20033" lon="1.07459">
        <ele>238</ele>
        <time>2024-08-12T10:15:05Z</time>
      </trkpt>
      <trkpt lat="43.20043" lon="1.07462">
        <ele>238</ele>
        <time>2024-08-12T10:15:07Z</time>
      </trkpt>
      <trkpt lat="43.20062" lon="1.07449">
        <ele>238</ele>
        <time>2024-08-12T10:15:11Z</time>
      </trkpt>
      <trkpt lat="43.20066" lon="1.07447">
        <ele>237.6</ele>
        <time>2024-08-12T10:15:12Z</time>
      </trkpt>
      <trkpt lat="43.2007" lon="1.07446">
        <ele>237.2</ele>
        <time>2024-08-12T10:15:13Z</time>
      </trkpt>
      <trkpt lat="43.20074" lon="1.07447">
        <ele>236.8</ele>
        <time>2024-08-12T10:15:14Z</time>
      </trkpt>
      <trkpt lat="43.20078" lon="1.07449">
        <ele>236.4</ele>
        <time>2024-08-12T10:15:15Z</time>
      </trkpt>
      <trkpt lat="43.20082" lon="1.07451">
        <ele>236</ele>
        <time>2024-08-12T10:15:16Z</time>
      </trkpt>
      <trkpt lat="43.20089" lon="1.0746">
        <ele>236</ele>
        <time>2024-08-12T10:15:18Z</time>
      </trkpt>
      <trkpt lat="43.20091" lon="1.0748">
        <ele>236</ele>
        <time>2024-08-12T10:15:21Z</time>
      </trkpt>
      <trkpt lat="43.20092" lon="1.07488">
        <ele>236</ele>
        <time>2024-08-12T10:15:22Z</time>
      </trkpt>
      <trkpt lat="43.20092" lon="1.07502">
        <ele>236</ele>
        <time>2024-08-12T10:15:24Z</time>
      </trkpt>
      <trkpt lat="43.20092" lon="1.07517">
        <ele>236</ele>
        <time>2024-08-12T10:15:26Z</time>
      </trkpt>
      <trkpt lat="43.20093" lon="1.07525">
        <ele>236</ele>
        <time>2024-08-12T10:15:27Z</time>
      </trkpt>
      <trkpt lat="43.20094" lon="1.07537">
        <ele>236</ele>
        <time>2024-08-12T10:15:29Z</time>
      </trkpt>
      <trkpt lat="43.20093" lon="1.07543">
        <ele>236</ele>
        <time>2024-08-12T10:15:30Z</time>
      </trkpt>
      <trkpt lat="43.20089" lon="1.07555">
        <ele>236</ele>
        <time>2024-08-12T10:15:32Z</time>
      </trkpt>
      <trkpt lat="43.20088" lon="1.07569">
        <ele>236</ele>
        <time>2024-08-12T10:15:34Z</time>
      </trkpt>
      <trkpt lat="43.20089" lon="1.07606">
        <ele>236</ele>
        <time>2024-08-12T10:15:39Z</time>
      </trkpt>
      <trkpt lat="43.20088" lon="1.07614">
        <ele>236</ele>
        <time>2024-08-12T10:15:40Z</time>
      </trkpt>
      <trkpt lat="43.20084" lon="1.07627">
        <ele>236</ele>
        <time>2024-08-12T10:15:42Z</time>
      </trkpt>
      <trkpt lat="43.2008" lon="1.07653">
        <ele>236</ele>
        <time>2024-08-12T10:15:46Z</time>
      </trkpt>
      <trkpt lat="43.20076" lon="1.07675">
        <ele>236</ele>
        <time>2024-08-12T10:15:49Z</time>
      </trkpt>
      <trkpt lat="43.20079" lon="1.07687">
        <ele>236</ele>
        <time>2024-08-12T10:15:51Z</time>
      </trkpt>
      <trkpt lat="43.20079" lon="1.07693">
        <ele>236</ele>
        <time>2024-08-12T10:15:52Z</time>
      </trkpt>
      <trkpt lat="43.20078" lon="1.07699">
        <ele>236</ele>
        <time>2024-08-12T10:15:53Z</time>
      </trkpt>
      <trkpt lat="43.20076" lon="1.07711">
        <ele>236</ele>
        <time>2024-08-12T10:15:55Z</time>
      </trkpt>
      <trkpt lat="43.2007" lon="1.07729">
        <ele>236</ele>
        <time>2024-08-12T10:15:58Z</time>
      </trkpt>
      <trkpt lat="43.20063" lon="1.07759">
        <ele>236</ele>
        <time>2024-08-12T10:16:03Z</time>
      </trkpt>
      <trkpt lat="43.20061" lon="1.07765">
        <ele>236</ele>
        <time>2024-08-12T10:16:04Z</time>
      </trkpt>
      <trkpt lat="43.20053" lon="1.07793">
        <ele>236</ele>
        <time>2024-08-12T10:16:09Z</time>
      </trkpt>
      <trkpt lat="43.20045" lon="1.07807">
        <ele>236</ele>
        <time>2024-08-12T10:16:12Z</time>
      </trkpt>
      <trkpt lat="43.20044" lon="1.07816">
        <ele>236</ele>
        <time>2024-08-12T10:16:13Z</time>
      </trkpt>
      <trkpt lat="43.20043" lon="1.07834">
        <ele>236</ele>
        <time>2024-08-12T10:16:15Z</time>
      </trkpt>
      <trkpt lat="43.20042" lon="1.07852">
        <ele>236</ele>
        <time>2024-08-12T10:16:17Z</time>
      </trkpt>
      <trkpt lat="43.20036" lon="1.07903">
        <ele>236</ele>
        <time>2024-08-12T10:16:23Z</time>
      </trkpt>
      <trkpt lat="43.20032" lon="1.07929">
        <ele>236</ele>
        <time>2024-08-12T10:16:26Z</time>
      </trkpt>
      <trkpt lat="43.2003" lon="1.07953">
        <ele>236</ele>
        <time>2024-08-12T10:16:29Z</time>
      </trkpt>
      <trkpt lat="43.20029" lon="1.07975">
        <ele>236</ele>
        <time>2024-08-12T10:16:33Z</time>
      </trkpt>
      <trkpt lat="43.20028" lon="1.07982">
        <ele>235.6</ele>
        <time>2024-08-12T10:16:34Z</time>
      </trkpt>
      <trkpt lat="43.20027" lon="1.07989">
        <ele>235</ele>
        <time>2024-08-12T10:16:35Z</time>
      </trkpt>
      <trkpt lat="43.20026" lon="1.07997">
        <ele>234.6</ele>
        <time>2024-08-12T10:16:36Z</time>
      </trkpt>
      <trkpt lat="43.20025" lon="1.08004">
        <ele>234.2</ele>
        <time>2024-08-12T10:16:37Z</time>
      </trkpt>
      <trkpt lat="43.20023" lon="1.08011">
        <ele>233.8</ele>
        <time>2024-08-12T10:16:38Z</time>
      </trkpt>
      <trkpt lat="43.20015" lon="1.08046">
        <ele>233.8</ele>
        <time>2024-08-12T10:16:43Z</time>
      </trkpt>
      <trkpt lat="43.20013" lon="1.08057">
        <ele>233.8</ele>
        <time>2024-08-12T10:16:45Z</time>
      </trkpt>
      <trkpt lat="43.20012" lon="1.0807">
        <ele>233.8</ele>
        <time>2024-08-12T10:16:47Z</time>
      </trkpt>
      <trkpt lat="43.20007" lon="1.08086">
        <ele>233.8</ele>
        <time>2024-08-12T10:16:50Z</time>
      </trkpt>
      <trkpt lat="43.20005" lon="1.08096">
        <ele>233.8</ele>
        <time>2024-08-12T10:16:52Z</time>
      </trkpt>
      <trkpt lat="43.2" lon="1.08115">
        <ele>233.8</ele>
        <time>2024-08-12T10:16:55Z</time>
      </trkpt>
      <trkpt lat="43.19999" lon="1.08142">
        <ele>233.8</ele>
        <time>2024-08-12T10:16:59Z</time>
      </trkpt>
      <trkpt lat="43.19998" lon="1.08158">
        <ele>233.8</ele>
        <time>2024-08-12T10:17:01Z</time>
      </trkpt>
      <trkpt lat="43.19995" lon="1.08173">
        <ele>233.8</ele>
        <time>2024-08-12T10:17:03Z</time>
      </trkpt>
      <trkpt lat="43.19993" lon="1.08188">
        <ele>233.8</ele>
        <time>2024-08-12T10:17:05Z</time>
      </trkpt>
      <trkpt lat="43.19994" lon="1.08198">
        <ele>233.8</ele>
        <time>2024-08-12T10:17:07Z</time>
      </trkpt>
      <trkpt lat="43.19991" lon="1.08223">
        <ele>233.8</ele>
        <time>2024-08-12T10:17:13Z</time>
      </trkpt>
      <trkpt lat="43.19987" lon="1.08243">
        <ele>233.8</ele>
        <time>2024-08-12T10:17:18Z</time>
      </trkpt>
      <trkpt lat="43.19986" lon="1.08268">
        <ele>233.8</ele>
        <time>2024-08-12T10:17:23Z</time>
      </trkpt>
      <trkpt lat="43.19987" lon="1.08284">
        <ele>233.8</ele>
        <time>2024-08-12T10:17:26Z</time>
      </trkpt>
      <trkpt lat="43.19986" lon="1.08292">
        <ele>233.8</ele>
        <time>2024-08-12T10:17:28Z</time>
      </trkpt>
      <trkpt lat="43.19985" lon="1.08306">
        <ele>233.8</ele>
        <time>2024-08-12T10:17:31Z</time>
      </trkpt>
      <trkpt lat="43.19984" lon="1.08318">
        <ele>233.8</ele>
        <time>2024-08-12T10:17:33Z</time>
      </trkpt>
      <trkpt lat="43.19984" lon="1.0834">
        <ele>233.8</ele>
        <time>2024-08-12T10:17:37Z</time>
      </trkpt>
      <trkpt lat="43.19984" lon="1.08367">
        <ele>233.8</ele>
        <time>2024-08-12T10:17:42Z</time>
      </trkpt>
      <trkpt lat="43.19984" lon="1.08374">
        <ele>233.8</ele>
        <time>2024-08-12T10:17:43Z</time>
      </trkpt>
      <trkpt lat="43.19985" lon="1.08395">
        <ele>233.8</ele>
        <time>2024-08-12T10:17:46Z</time>
      </trkpt>
      <trkpt lat="43.19985" lon="1.08415">
        <ele>233.8</ele>
        <time>2024-08-12T10:17:50Z</time>
      </trkpt>
      <trkpt lat="43.1999" lon="1.08445">
        <ele>233.8</ele>
        <time>2024-08-12T10:17:54Z</time>
      </trkpt>
      <trkpt lat="43.19991" lon="1.08452">
        <ele>233.8</ele>
        <time>2024-08-12T10:17:55Z</time>
      </trkpt>
      <trkpt lat="43.19995" lon="1.08487">
        <ele>233.8</ele>
        <time>2024-08-12T10:18:01Z</time>
      </trkpt>
      <trkpt lat="43.20002" lon="1.08515">
        <ele>233.8</ele>
        <time>2024-08-12T10:18:05Z</time>
      </trkpt>
      <trkpt lat="43.20005" lon="1.08521">
        <ele>233.8</ele>
        <time>2024-08-12T10:18:06Z</time>
      </trkpt>
      <trkpt lat="43.20013" lon="1.0855">
        <ele>233.8</ele>
        <time>2024-08-12T10:18:11Z</time>
      </trkpt>
      <trkpt lat="43.20016" lon="1.0857">
        <ele>233.8</ele>
        <time>2024-08-12T10:18:15Z</time>
      </trkpt>
      <trkpt lat="43.20016" lon="1.08592">
        <ele>233.8</ele>
        <time>2024-08-12T10:18:19Z</time>
      </trkpt>
      <trkpt lat="43.20017" lon="1.08595">
        <ele>233.8</ele>
        <time>2024-08-12T10:18:20Z</time>
      </trkpt>
      <trkpt lat="43.20023" lon="1.08614">
        <ele>233.8</ele>
        <time>2024-08-12T10:18:24Z</time>
      </trkpt>
      <trkpt lat="43.20025" lon="1.08622">
        <ele>233.8</ele>
        <time>2024-08-12T10:18:25Z</time>
      </trkpt>
      <trkpt lat="43.2003" lon="1.08638">
        <ele>233.8</ele>
        <time>2024-08-12T10:18:28Z</time>
      </trkpt>
      <trkpt lat="43.20031" lon="1.08643">
        <ele>233.8</ele>
        <time>2024-08-12T10:18:29Z</time>
      </trkpt>
      <trkpt lat="43.20034" lon="1.08671">
        <ele>233.8</ele>
        <time>2024-08-12T10:18:33Z</time>
      </trkpt>
      <trkpt lat="43.20027" lon="1.08691">
        <ele>233.4</ele>
        <time>2024-08-12T10:18:38Z</time>
      </trkpt>
      <trkpt lat="43.20024" lon="1.08694">
        <ele>233</ele>
        <time>2024-08-12T10:18:39Z</time>
      </trkpt>
      <trkpt lat="43.2002" lon="1.08697">
        <ele>232.6</ele>
        <time>2024-08-12T10:18:40Z</time>
      </trkpt>
      <trkpt lat="43.20016" lon="1.08699">
        <ele>232.2</ele>
        <time>2024-08-12T10:18:41Z</time>
      </trkpt>
      <trkpt lat="43.20012" lon="1.08699">
        <ele>231.8</ele>
        <time>2024-08-12T10:18:42Z</time>
      </trkpt>
      <trkpt lat="43.2001" lon="1.08699">
        <ele>231.8</ele>
        <time>2024-08-12T10:18:43Z</time>
      </trkpt>
      <trkpt lat="43.20007" lon="1.08698">
        <ele>231.8</ele>
        <time>2024-08-12T10:18:45Z</time>
      </trkpt>
      <trkpt lat="43.20006" lon="1.08698">
        <ele>231.8</ele>
        <time>2024-08-12T10:18:47Z</time>
      </trkpt>
      <trkpt lat="43.20002" lon="1.08703">
        <ele>231.8</ele>
        <time>2024-08-12T10:19:03Z</time>
      </trkpt>
      <trkpt lat="43.2" lon="1.08702">
        <ele>231.8</ele>
        <time>2024-08-12T10:19:04Z</time>
      </trkpt>
      <trkpt lat="43.19995" lon="1.08694">
        <ele>231.8</ele>
        <time>2024-08-12T10:19:06Z</time>
      </trkpt>
      <trkpt lat="43.19985" lon="1.08678">
        <ele>231.8</ele>
        <time>2024-08-12T10:19:10Z</time>
      </trkpt>
      <trkpt lat="43.19979" lon="1.08663">
        <ele>231.8</ele>
        <time>2024-08-12T10:19:14Z</time>
      </trkpt>
      <trkpt lat="43.19971" lon="1.08643">
        <ele>231.8</ele>
        <time>2024-08-12T10:19:20Z</time>
      </trkpt>
      <trkpt lat="43.19962" lon="1.08628">
        <ele>231.8</ele>
        <time>2024-08-12T10:19:23Z</time>
      </trkpt>
      <trkpt lat="43.19957" lon="1.08622">
        <ele>231.8</ele>
        <time>2024-08-12T10:19:24Z</time>
      </trkpt>
      <trkpt lat="43.19951" lon="1.08615">
        <ele>231.8</ele>
        <time>2024-08-12T10:19:25Z</time>
      </trkpt>
      <trkpt lat="43.19937" lon="1.08599">
        <ele>231.8</ele>
        <time>2024-08-12T10:19:28Z</time>
      </trkpt>
      <trkpt lat="43.19926" lon="1.08578">
        <ele>231.8</ele>
        <time>2024-08-12T10:19:31Z</time>
      </trkpt>
      <trkpt lat="43.19922" lon="1.08571">
        <ele>231.8</ele>
        <time>2024-08-12T10:19:32Z</time>
      </trkpt>
      <trkpt lat="43.19915" lon="1.08558">
        <ele>231.8</ele>
        <time>2024-08-12T10:19:34Z</time>
      </trkpt>
      <trkpt lat="43.19909" lon="1.08546">
        <ele>231.8</ele>
        <time>2024-08-12T10:19:36Z</time>
      </trkpt>
      <trkpt lat="43.19897" lon="1.08532">
        <ele>231.8</ele>
        <time>2024-08-12T10:19:40Z</time>
      </trkpt>
      <trkpt lat="43.1989" lon="1.08527">
        <ele>231.8</ele>
        <time>2024-08-12T10:19:43Z</time>
      </trkpt>
      <trkpt lat="43.19868" lon="1.08518">
        <ele>231.8</ele>
        <time>2024-08-12T10:20:05Z</time>
      </trkpt>
      <trkpt lat="43.19866" lon="1.08534">
        <ele>231.8</ele>
        <time>2024-08-12T10:20:09Z</time>
      </trkpt>
      <trkpt lat="43.19867" lon="1.08551">
        <ele>231.8</ele>
        <time>2024-08-12T10:20:12Z</time>
      </trkpt>
      <trkpt lat="43.19869" lon="1.08559">
        <ele>231.8</ele>
        <time>2024-08-12T10:20:14Z</time>
      </trkpt>
      <trkpt lat="43.19878" lon="1.08578">
        <ele>231.8</ele>
        <time>2024-08-12T10:20:19Z</time>
      </trkpt>
      <trkpt lat="43.19889" lon="1.08601">
        <ele>231.8</ele>
        <time>2024-08-12T10:20:25Z</time>
      </trkpt>
      <trkpt lat="43.19908" lon="1.08641">
        <ele>231.8</ele>
        <time>2024-08-12T10:20:34Z</time>
      </trkpt>
      <trkpt lat="43.19917" lon="1.08674">
        <ele>231.8</ele>
        <time>2024-08-12T10:20:40Z</time>
      </trkpt>
      <trkpt lat="43.19916" lon="1.08702">
        <ele>231.8</ele>
        <time>2024-08-12T10:20:45Z</time>
      </trkpt>
      <trkpt lat="43.19915" lon="1.08707">
        <ele>231.8</ele>
        <time>2024-08-12T10:20:46Z</time>
      </trkpt>
      <trkpt lat="43.19909" lon="1.08716">
        <ele>231.8</ele>
        <time>2024-08-12T10:20:48Z</time>
      </trkpt>
      <trkpt lat="43.19896" lon="1.08716">
        <ele>231.8</ele>
        <time>2024-08-12T10:20:51Z</time>
      </trkpt>
      <trkpt lat="43.19884" lon="1.08704">
        <ele>231.8</ele>
        <time>2024-08-12T10:20:54Z</time>
      </trkpt>
      <trkpt lat="43.19881" lon="1.087">
        <ele>231.8</ele>
        <time>2024-08-12T10:20:55Z</time>
      </trkpt>
      <trkpt lat="43.19851" lon="1.08667">
        <ele>231.8</ele>
        <time>2024-08-12T10:21:03Z</time>
      </trkpt>
      <trkpt lat="43.19828" lon="1.08641">
        <ele>231.8</ele>
        <time>2024-08-12T10:21:10Z</time>
      </trkpt>
      <trkpt lat="43.19816" lon="1.08625">
        <ele>231.8</ele>
        <time>2024-08-12T10:21:14Z</time>
      </trkpt>
      <trkpt lat="43.19808" lon="1.08619">
        <ele>231.8</ele>
        <time>2024-08-12T10:21:16Z</time>
      </trkpt>
      <trkpt lat="43.19799" lon="1.08619">
        <ele>232.2</ele>
        <time>2024-08-12T10:21:18Z</time>
      </trkpt>
      <trkpt lat="43.19796" lon="1.08622">
        <ele>232.6</ele>
        <time>2024-08-12T10:21:19Z</time>
      </trkpt>
      <trkpt lat="43.19792" lon="1.08627">
        <ele>233</ele>
        <time>2024-08-12T10:21:20Z</time>
      </trkpt>
      <trkpt lat="43.1979" lon="1.08632">
        <ele>233.4</ele>
        <time>2024-08-12T10:21:21Z</time>
      </trkpt>
      <trkpt lat="43.19788" lon="1.08637">
        <ele>233.8</ele>
        <time>2024-08-12T10:21:22Z</time>
      </trkpt>
      <trkpt lat="43.19787" lon="1.08643">
        <ele>233.8</ele>
        <time>2024-08-12T10:21:23Z</time>
      </trkpt>
      <trkpt lat="43.19784" lon="1.08653">
        <ele>233.8</ele>
        <time>2024-08-12T10:21:25Z</time>
      </trkpt>
      <trkpt lat="43.19779" lon="1.0866">
        <ele>233.8</ele>
        <time>2024-08-12T10:21:27Z</time>
      </trkpt>
      <trkpt lat="43.19775" lon="1.08662">
        <ele>233.8</ele>
        <time>2024-08-12T10:21:28Z</time>
      </trkpt>
      <trkpt lat="43.19763" lon="1.08655">
        <ele>233.8</ele>
        <time>2024-08-12T10:21:31Z</time>
      </trkpt>
      <trkpt lat="43.1976" lon="1.08651">
        <ele>234.4</ele>
        <time>2024-08-12T10:21:32Z</time>
      </trkpt>
      <trkpt lat="43.19758" lon="1.08647">
        <ele>234.8</ele>
        <time>2024-08-12T10:21:33Z</time>
      </trkpt>
      <trkpt lat="43.19755" lon="1.08642">
        <ele>235.2</ele>
        <time>2024-08-12T10:21:34Z</time>
      </trkpt>
      <trkpt lat="43.19752" lon="1.08638">
        <ele>235.6</ele>
        <time>2024-08-12T10:21:35Z</time>
      </trkpt>
      <trkpt lat="43.19749" lon="1.08633">
        <ele>236</ele>
        <time>2024-08-12T10:21:36Z</time>
      </trkpt>
      <trkpt lat="43.19731" lon="1.08606">
        <ele>236</ele>
        <time>2024-08-12T10:21:42Z</time>
      </trkpt>
      <trkpt lat="43.19715" lon="1.08585">
        <ele>236</ele>
        <time>2024-08-12T10:21:47Z</time>
      </trkpt>
      <trkpt lat="43.1971" lon="1.08583">
        <ele>236</ele>
        <time>2024-08-12T10:21:48Z</time>
      </trkpt>
      <trkpt lat="43.19706" lon="1.08583">
        <ele>236.4</ele>
        <time>2024-08-12T10:21:49Z</time>
      </trkpt>
      <trkpt lat="43.19702" lon="1.08586">
        <ele>236.8</ele>
        <time>2024-08-12T10:21:50Z</time>
      </trkpt>
      <trkpt lat="43.19698" lon="1.0859">
        <ele>237.2</ele>
        <time>2024-08-12T10:21:51Z</time>
      </trkpt>
      <trkpt lat="43.19694" lon="1.08594">
        <ele>237.6</ele>
        <time>2024-08-12T10:21:52Z</time>
      </trkpt>
      <trkpt lat="43.19691" lon="1.08598">
        <ele>238</ele>
        <time>2024-08-12T10:21:53Z</time>
      </trkpt>
      <trkpt lat="43.19675" lon="1.08611">
        <ele>238</ele>
        <time>2024-08-12T10:21:57Z</time>
      </trkpt>
      <trkpt lat="43.1967" lon="1.08613">
        <ele>238</ele>
        <time>2024-08-12T10:21:58Z</time>
      </trkpt>
      <trkpt lat="43.19666" lon="1.08614">
        <ele>238.4</ele>
        <time>2024-08-12T10:21:59Z</time>
      </trkpt>
      <trkpt lat="43.19661" lon="1.08613">
        <ele>238.8</ele>
        <time>2024-08-12T10:22:00Z</time>
      </trkpt>
      <trkpt lat="43.19656" lon="1.08611">
        <ele>239.2</ele>
        <time>2024-08-12T10:22:01Z</time>
      </trkpt>
      <trkpt lat="43.19652" lon="1.0861">
        <ele>239.6</ele>
        <time>2024-08-12T10:22:02Z</time>
      </trkpt>
      <trkpt lat="43.19647" lon="1.08608">
        <ele>240</ele>
        <time>2024-08-12T10:22:03Z</time>
      </trkpt>
      <trkpt lat="43.19629" lon="1.08601">
        <ele>240.4</ele>
        <time>2024-08-12T10:22:07Z</time>
      </trkpt>
      <trkpt lat="43.19624" lon="1.086">
        <ele>240.8</ele>
        <time>2024-08-12T10:22:08Z</time>
      </trkpt>
      <trkpt lat="43.1962" lon="1.08599">
        <ele>241.2</ele>
        <time>2024-08-12T10:22:09Z</time>
      </trkpt>
      <trkpt lat="43.19615" lon="1.08597">
        <ele>241.8</ele>
        <time>2024-08-12T10:22:10Z</time>
      </trkpt>
      <trkpt lat="43.19611" lon="1.08595">
        <ele>242.2</ele>
        <time>2024-08-12T10:22:11Z</time>
      </trkpt>
      <trkpt lat="43.19602" lon="1.08592">
        <ele>242.6</ele>
        <time>2024-08-12T10:22:13Z</time>
      </trkpt>
      <trkpt lat="43.19597" lon="1.0859">
        <ele>243</ele>
        <time>2024-08-12T10:22:14Z</time>
      </trkpt>
      <trkpt lat="43.19592" lon="1.08589">
        <ele>243.4</ele>
        <time>2024-08-12T10:22:15Z</time>
      </trkpt>
      <trkpt lat="43.19588" lon="1.08587">
        <ele>243.8</ele>
        <time>2024-08-12T10:22:16Z</time>
      </trkpt>
      <trkpt lat="43.19583" lon="1.08587">
        <ele>244.2</ele>
        <time>2024-08-12T10:22:17Z</time>
      </trkpt>
      <trkpt lat="43.19578" lon="1.08586">
        <ele>244.2</ele>
        <time>2024-08-12T10:22:18Z</time>
      </trkpt>
      <trkpt lat="43.19564" lon="1.08583">
        <ele>244.2</ele>
        <time>2024-08-12T10:22:21Z</time>
      </trkpt>
      <trkpt lat="43.1955" lon="1.08577">
        <ele>244.2</ele>
        <time>2024-08-12T10:22:24Z</time>
      </trkpt>
      <trkpt lat="43.19545" lon="1.08574">
        <ele>244.6</ele>
        <time>2024-08-12T10:22:25Z</time>
      </trkpt>
      <trkpt lat="43.1954" lon="1.08572">
        <ele>245</ele>
        <time>2024-08-12T10:22:26Z</time>
      </trkpt>
      <trkpt lat="43.19535" lon="1.0857">
        <ele>245.6</ele>
        <time>2024-08-12T10:22:27Z</time>
      </trkpt>
      <trkpt lat="43.1953" lon="1.08569">
        <ele>246</ele>
        <time>2024-08-12T10:22:28Z</time>
      </trkpt>
      <trkpt lat="43.19526" lon="1.08568">
        <ele>246.4</ele>
        <time>2024-08-12T10:22:29Z</time>
      </trkpt>
      <trkpt lat="43.19517" lon="1.08566">
        <ele>246.4</ele>
        <time>2024-08-12T10:22:31Z</time>
      </trkpt>
      <trkpt lat="43.19508" lon="1.08564">
        <ele>246.8</ele>
        <time>2024-08-12T10:22:33Z</time>
      </trkpt>
      <trkpt lat="43.19503" lon="1.08564">
        <ele>247.4</ele>
        <time>2024-08-12T10:22:34Z</time>
      </trkpt>
      <trkpt lat="43.19499" lon="1.08563">
        <ele>247.8</ele>
        <time>2024-08-12T10:22:35Z</time>
      </trkpt>
      <trkpt lat="43.19494" lon="1.08562">
        <ele>248.2</ele>
        <time>2024-08-12T10:22:36Z</time>
      </trkpt>
      <trkpt lat="43.1949" lon="1.08561">
        <ele>248.8</ele>
        <time>2024-08-12T10:22:37Z</time>
      </trkpt>
      <trkpt lat="43.19481" lon="1.0856">
        <ele>248.8</ele>
        <time>2024-08-12T10:22:39Z</time>
      </trkpt>
      <trkpt lat="43.19476" lon="1.08559">
        <ele>249.2</ele>
        <time>2024-08-12T10:22:40Z</time>
      </trkpt>
      <trkpt lat="43.19471" lon="1.08558">
        <ele>249.6</ele>
        <time>2024-08-12T10:22:41Z</time>
      </trkpt>
      <trkpt lat="43.19467" lon="1.08556">
        <ele>250</ele>
        <time>2024-08-12T10:22:42Z</time>
      </trkpt>
      <trkpt lat="43.19463" lon="1.08554">
        <ele>250.4</ele>
        <time>2024-08-12T10:22:43Z</time>
      </trkpt>
      <trkpt lat="43.19458" lon="1.08552">
        <ele>250.8</ele>
        <time>2024-08-12T10:22:44Z</time>
      </trkpt>
      <trkpt lat="43.19454" lon="1.0855">
        <ele>250.8</ele>
        <time>2024-08-12T10:22:45Z</time>
      </trkpt>
      <trkpt lat="43.19442" lon="1.08542">
        <ele>251.4</ele>
        <time>2024-08-12T10:22:48Z</time>
      </trkpt>
      <trkpt lat="43.19438" lon="1.0854">
        <ele>251.8</ele>
        <time>2024-08-12T10:22:49Z</time>
      </trkpt>
      <trkpt lat="43.19434" lon="1.08537">
        <ele>252.2</ele>
        <time>2024-08-12T10:22:50Z</time>
      </trkpt>
      <trkpt lat="43.19429" lon="1.08534">
        <ele>252.6</ele>
        <time>2024-08-12T10:22:51Z</time>
      </trkpt>
      <trkpt lat="43.19425" lon="1.08531">
        <ele>253</ele>
        <time>2024-08-12T10:22:52Z</time>
      </trkpt>
      <trkpt lat="43.19404" lon="1.08517">
        <ele>253</ele>
        <time>2024-08-12T10:22:58Z</time>
      </trkpt>
      <trkpt lat="43.19401" lon="1.08516">
        <ele>253</ele>
        <time>2024-08-12T10:22:59Z</time>
      </trkpt>
      <trkpt lat="43.19395" lon="1.0852">
        <ele>253</ele>
        <time>2024-08-12T10:23:01Z</time>
      </trkpt>
      <trkpt lat="43.19391" lon="1.08526">
        <ele>253</ele>
        <time>2024-08-12T10:23:03Z</time>
      </trkpt>
      <trkpt lat="43.19389" lon="1.08529">
        <ele>253.6</ele>
        <time>2024-08-12T10:23:04Z</time>
      </trkpt>
      <trkpt lat="43.19387" lon="1.08532">
        <ele>254</ele>
        <time>2024-08-12T10:23:05Z</time>
      </trkpt>
      <trkpt lat="43.19385" lon="1.08535">
        <ele>254.4</ele>
        <time>2024-08-12T10:23:06Z</time>
      </trkpt>
      <trkpt lat="43.19384" lon="1.08538">
        <ele>255</ele>
        <time>2024-08-12T10:23:07Z</time>
      </trkpt>
      <trkpt lat="43.19382" lon="1.0854">
        <ele>255.4</ele>
        <time>2024-08-12T10:23:08Z</time>
      </trkpt>
      <trkpt lat="43.1938" lon="1.08543">
        <ele>256</ele>
        <time>2024-08-12T10:23:09Z</time>
      </trkpt>
      <trkpt lat="43.19378" lon="1.08546">
        <ele>256.6</ele>
        <time>2024-08-12T10:23:10Z</time>
      </trkpt>
      <trkpt lat="43.19376" lon="1.08549">
        <ele>257</ele>
        <time>2024-08-12T10:23:11Z</time>
      </trkpt>
      <trkpt lat="43.19375" lon="1.08551">
        <ele>257.6</ele>
        <time>2024-08-12T10:23:12Z</time>
      </trkpt>
      <trkpt lat="43.19373" lon="1.08554">
        <ele>258.2</ele>
        <time>2024-08-12T10:23:13Z</time>
      </trkpt>
      <trkpt lat="43.19371" lon="1.08556">
        <ele>258.8</ele>
        <time>2024-08-12T10:23:14Z</time>
      </trkpt>
      <trkpt lat="43.19369" lon="1.08559">
        <ele>259.4</ele>
        <time>2024-08-12T10:23:15Z</time>
      </trkpt>
      <trkpt lat="43.19367" lon="1.08561">
        <ele>259.8</ele>
        <time>2024-08-12T10:23:16Z</time>
      </trkpt>
      <trkpt lat="43.19365" lon="1.08564">
        <ele>260.4</ele>
        <time>2024-08-12T10:23:17Z</time>
      </trkpt>
      <trkpt lat="43.19363" lon="1.08566">
        <ele>261</ele>
        <time>2024-08-12T10:23:18Z</time>
      </trkpt>
      <trkpt lat="43.19362" lon="1.08568">
        <ele>261.6</ele>
        <time>2024-08-12T10:23:19Z</time>
      </trkpt>
      <trkpt lat="43.1936" lon="1.08572">
        <ele>262</ele>
        <time>2024-08-12T10:23:20Z</time>
      </trkpt>
      <trkpt lat="43.19357" lon="1.08574">
        <ele>262.6</ele>
        <time>2024-08-12T10:23:21Z</time>
      </trkpt>
      <trkpt lat="43.19355" lon="1.08577">
        <ele>263.2</ele>
        <time>2024-08-12T10:23:22Z</time>
      </trkpt>
      <trkpt lat="43.19353" lon="1.08581">
        <ele>263.8</ele>
        <time>2024-08-12T10:23:23Z</time>
      </trkpt>
      <trkpt lat="43.19351" lon="1.08584">
        <ele>264.4</ele>
        <time>2024-08-12T10:23:24Z</time>
      </trkpt>
      <trkpt lat="43.19349" lon="1.08588">
        <ele>265</ele>
        <time>2024-08-12T10:23:25Z</time>
      </trkpt>
      <trkpt lat="43.19346" lon="1.0859">
        <ele>265.4</ele>
        <time>2024-08-12T10:23:26Z</time>
      </trkpt>
      <trkpt lat="43.19344" lon="1.0859">
        <ele>266.6</ele>
        <time>2024-08-12T10:23:27Z</time>
      </trkpt>
      <trkpt lat="43.19341" lon="1.08591">
        <ele>267</ele>
        <time>2024-08-12T10:23:28Z</time>
      </trkpt>
      <trkpt lat="43.19339" lon="1.0859">
        <ele>267.4</ele>
        <time>2024-08-12T10:23:29Z</time>
      </trkpt>
      <trkpt lat="43.19335" lon="1.0859">
        <ele>267.8</ele>
        <time>2024-08-12T10:23:30Z</time>
      </trkpt>
      <trkpt lat="43.19332" lon="1.0859">
        <ele>268.4</ele>
        <time>2024-08-12T10:23:31Z</time>
      </trkpt>
      <trkpt lat="43.19329" lon="1.0859">
        <ele>268.8</ele>
        <time>2024-08-12T10:23:32Z</time>
      </trkpt>
      <trkpt lat="43.19326" lon="1.08592">
        <ele>269.2</ele>
        <time>2024-08-12T10:23:33Z</time>
      </trkpt>
      <trkpt lat="43.19323" lon="1.08593">
        <ele>269.8</ele>
        <time>2024-08-12T10:23:34Z</time>
      </trkpt>
      <trkpt lat="43.19319" lon="1.08594">
        <ele>270.2</ele>
        <time>2024-08-12T10:23:35Z</time>
      </trkpt>
      <trkpt lat="43.19317" lon="1.08596">
        <ele>270.8</ele>
        <time>2024-08-12T10:23:36Z</time>
      </trkpt>
      <trkpt lat="43.19314" lon="1.08598">
        <ele>271.2</ele>
        <time>2024-08-12T10:23:37Z</time>
      </trkpt>
      <trkpt lat="43.19312" lon="1.08599">
        <ele>271.8</ele>
        <time>2024-08-12T10:23:38Z</time>
      </trkpt>
      <trkpt lat="43.1931" lon="1.08601">
        <ele>272.4</ele>
        <time>2024-08-12T10:23:39Z</time>
      </trkpt>
      <trkpt lat="43.19307" lon="1.08603">
        <ele>272.8</ele>
        <time>2024-08-12T10:23:40Z</time>
      </trkpt>
      <trkpt lat="43.19305" lon="1.08605">
        <ele>273.4</ele>
        <time>2024-08-12T10:23:41Z</time>
      </trkpt>
      <trkpt lat="43.19303" lon="1.08606">
        <ele>274</ele>
        <time>2024-08-12T10:23:42Z</time>
      </trkpt>
      <trkpt lat="43.19301" lon="1.08607">
        <ele>274.6</ele>
        <time>2024-08-12T10:23:43Z</time>
      </trkpt>
      <trkpt lat="43.19299" lon="1.08608">
        <ele>275</ele>
        <time>2024-08-12T10:23:44Z</time>
      </trkpt>
      <trkpt lat="43.19296" lon="1.0861">
        <ele>275.6</ele>
        <time>2024-08-12T10:23:45Z</time>
      </trkpt>
      <trkpt lat="43.19294" lon="1.08611">
        <ele>276</ele>
        <time>2024-08-12T10:23:46Z</time>
      </trkpt>
      <trkpt lat="43.19293" lon="1.08612">
        <ele>276.6</ele>
        <time>2024-08-12T10:23:47Z</time>
      </trkpt>
      <trkpt lat="43.1929" lon="1.08614">
        <ele>277</ele>
        <time>2024-08-12T10:23:48Z</time>
      </trkpt>
      <trkpt lat="43.19289" lon="1.08615">
        <ele>277.4</ele>
        <time>2024-08-12T10:23:49Z</time>
      </trkpt>
      <trkpt lat="43.19287" lon="1.08618">
        <ele>277.8</ele>
        <time>2024-08-12T10:23:50Z</time>
      </trkpt>
      <trkpt lat="43.19286" lon="1.0862">
        <ele>278.4</ele>
        <time>2024-08-12T10:23:51Z</time>
      </trkpt>
      <trkpt lat="43.19285" lon="1.08622">
        <ele>279.4</ele>
        <time>2024-08-12T10:23:52Z</time>
      </trkpt>
      <trkpt lat="43.19283" lon="1.08624">
        <ele>279.8</ele>
        <time>2024-08-12T10:23:53Z</time>
      </trkpt>
      <trkpt lat="43.1928" lon="1.08625">
        <ele>280.4</ele>
        <time>2024-08-12T10:23:54Z</time>
      </trkpt>
      <trkpt lat="43.19279" lon="1.08627">
        <ele>281</ele>
        <time>2024-08-12T10:23:55Z</time>
      </trkpt>
      <trkpt lat="43.19277" lon="1.0863">
        <ele>281.4</ele>
        <time>2024-08-12T10:23:56Z</time>
      </trkpt>
      <trkpt lat="43.19276" lon="1.08632">
        <ele>282</ele>
        <time>2024-08-12T10:23:57Z</time>
      </trkpt>
      <trkpt lat="43.19274" lon="1.08635">
        <ele>282.6</ele>
        <time>2024-08-12T10:23:58Z</time>
      </trkpt>
      <trkpt lat="43.19272" lon="1.08637">
        <ele>283</ele>
        <time>2024-08-12T10:23:59Z</time>
      </trkpt>
      <trkpt lat="43.19272" lon="1.0864">
        <ele>283.4</ele>
        <time>2024-08-12T10:24:00Z</time>
      </trkpt>
      <trkpt lat="43.1927" lon="1.08641">
        <ele>283.8</ele>
        <time>2024-08-12T10:24:01Z</time>
      </trkpt>
      <trkpt lat="43.19269" lon="1.08642">
        <ele>284.2</ele>
        <time>2024-08-12T10:24:02Z</time>
      </trkpt>
      <trkpt lat="43.19268" lon="1.08643">
        <ele>284.8</ele>
        <time>2024-08-12T10:24:03Z</time>
      </trkpt>
      <trkpt lat="43.19267" lon="1.08645">
        <ele>285.4</ele>
        <time>2024-08-12T10:24:04Z</time>
      </trkpt>
      <trkpt lat="43.19266" lon="1.08646">
        <ele>285.8</ele>
        <time>2024-08-12T10:24:05Z</time>
      </trkpt>
      <trkpt lat="43.19266" lon="1.08648">
        <ele>286.4</ele>
        <time>2024-08-12T10:24:06Z</time>
      </trkpt>
      <trkpt lat="43.19265" lon="1.08648">
        <ele>286.8</ele>
        <time>2024-08-12T10:24:07Z</time>
      </trkpt>
      <trkpt lat="43.19265" lon="1.0865">
        <ele>287.4</ele>
        <time>2024-08-12T10:24:08Z</time>
      </trkpt>
      <trkpt lat="43.19265" lon="1.08651">
        <ele>288</ele>
        <time>2024-08-12T10:24:09Z</time>
      </trkpt>
      <trkpt lat="43.19264" lon="1.08652">
        <ele>288.4</ele>
        <time>2024-08-12T10:24:10Z</time>
      </trkpt>
      <trkpt lat="43.19264" lon="1.08652">
        <ele>289</ele>
        <time>2024-08-12T10:24:11Z</time>
      </trkpt>
      <trkpt lat="43.19263" lon="1.08653">
        <ele>289.4</ele>
        <time>2024-08-12T10:24:12Z</time>
      </trkpt>
      <trkpt lat="43.19262" lon="1.08654">
        <ele>289.8</ele>
        <time>2024-08-12T10:24:13Z</time>
      </trkpt>
      <trkpt lat="43.1926" lon="1.08655">
        <ele>290.2</ele>
        <time>2024-08-12T10:24:14Z</time>
      </trkpt>
      <trkpt lat="43.19258" lon="1.08656">
        <ele>290.8</ele>
        <time>2024-08-12T10:24:15Z</time>
      </trkpt>
      <trkpt lat="43.19255" lon="1.08657">
        <ele>291.2</ele>
        <time>2024-08-12T10:24:16Z</time>
      </trkpt>
      <trkpt lat="43.19251" lon="1.08657">
        <ele>292</ele>
        <time>2024-08-12T10:24:17Z</time>
      </trkpt>
      <trkpt lat="43.1925" lon="1.08657">
        <ele>292.4</ele>
        <time>2024-08-12T10:24:18Z</time>
      </trkpt>
      <trkpt lat="43.19248" lon="1.08659">
        <ele>292.8</ele>
        <time>2024-08-12T10:24:19Z</time>
      </trkpt>
      <trkpt lat="43.19243" lon="1.08658">
        <ele>293.2</ele>
        <time>2024-08-12T10:24:20Z</time>
      </trkpt>
      <trkpt lat="43.19232" lon="1.08657">
        <ele>293.8</ele>
        <time>2024-08-12T10:24:23Z</time>
      </trkpt>
      <trkpt lat="43.19228" lon="1.08656">
        <ele>294.2</ele>
        <time>2024-08-12T10:24:24Z</time>
      </trkpt>
      <trkpt lat="43.19224" lon="1.08657">
        <ele>294.6</ele>
        <time>2024-08-12T10:24:25Z</time>
      </trkpt>
      <trkpt lat="43.19221" lon="1.08657">
        <ele>295</ele>
        <time>2024-08-12T10:24:26Z</time>
      </trkpt>
      <trkpt lat="43.19217" lon="1.08657">
        <ele>295.4</ele>
        <time>2024-08-12T10:24:27Z</time>
      </trkpt>
      <trkpt lat="43.19201" lon="1.08656">
        <ele>295.4</ele>
        <time>2024-08-12T10:24:31Z</time>
      </trkpt>
      <trkpt lat="43.19197" lon="1.08656">
        <ele>295.8</ele>
        <time>2024-08-12T10:24:32Z</time>
      </trkpt>
      <trkpt lat="43.19194" lon="1.08656">
        <ele>296.2</ele>
        <time>2024-08-12T10:24:33Z</time>
      </trkpt>
      <trkpt lat="43.19191" lon="1.08657">
        <ele>296.6</ele>
        <time>2024-08-12T10:24:34Z</time>
      </trkpt>
      <trkpt lat="43.19187" lon="1.08657">
        <ele>297</ele>
        <time>2024-08-12T10:24:35Z</time>
      </trkpt>
      <trkpt lat="43.19183" lon="1.08657">
        <ele>297.4</ele>
        <time>2024-08-12T10:24:36Z</time>
      </trkpt>
      <trkpt lat="43.19179" lon="1.08658">
        <ele>297.4</ele>
        <time>2024-08-12T10:24:37Z</time>
      </trkpt>
      <trkpt lat="43.19156" lon="1.08658">
        <ele>297.4</ele>
        <time>2024-08-12T10:24:43Z</time>
      </trkpt>
      <trkpt lat="43.19132" lon="1.0866">
        <ele>298</ele>
        <time>2024-08-12T10:24:50Z</time>
      </trkpt>
      <trkpt lat="43.1913" lon="1.0866">
        <ele>298.4</ele>
        <time>2024-08-12T10:24:51Z</time>
      </trkpt>
      <trkpt lat="43.19127" lon="1.08661">
        <ele>298.8</ele>
        <time>2024-08-12T10:24:52Z</time>
      </trkpt>
      <trkpt lat="43.19121" lon="1.08661">
        <ele>299.2</ele>
        <time>2024-08-12T10:24:53Z</time>
      </trkpt>
      <trkpt lat="43.19116" lon="1.08662">
        <ele>299.6</ele>
        <time>2024-08-12T10:24:54Z</time>
      </trkpt>
      <trkpt lat="43.19111" lon="1.08662">
        <ele>299.6</ele>
        <time>2024-08-12T10:24:55Z</time>
      </trkpt>
      <trkpt lat="43.1909" lon="1.08663">
        <ele>299.6</ele>
        <time>2024-08-12T10:25:00Z</time>
      </trkpt>
      <trkpt lat="43.19078" lon="1.08655">
        <ele>300</ele>
        <time>2024-08-12T10:25:03Z</time>
      </trkpt>
      <trkpt lat="43.19074" lon="1.08653">
        <ele>300.4</ele>
        <time>2024-08-12T10:25:04Z</time>
      </trkpt>
      <trkpt lat="43.1907" lon="1.08651">
        <ele>300.8</ele>
        <time>2024-08-12T10:25:05Z</time>
      </trkpt>
      <trkpt lat="43.19067" lon="1.08649">
        <ele>301.6</ele>
        <time>2024-08-12T10:25:06Z</time>
      </trkpt>
      <trkpt lat="43.19064" lon="1.08646">
        <ele>301.6</ele>
        <time>2024-08-12T10:25:07Z</time>
      </trkpt>
      <trkpt lat="43.19041" lon="1.08629">
        <ele>301.6</ele>
        <time>2024-08-12T10:25:14Z</time>
      </trkpt>
      <trkpt lat="43.19015" lon="1.08603">
        <ele>301.6</ele>
        <time>2024-08-12T10:25:23Z</time>
      </trkpt>
      <trkpt lat="43.18991" lon="1.08582">
        <ele>302</ele>
        <time>2024-08-12T10:25:31Z</time>
      </trkpt>
      <trkpt lat="43.18988" lon="1.0858">
        <ele>302.8</ele>
        <time>2024-08-12T10:25:32Z</time>
      </trkpt>
      <trkpt lat="43.18985" lon="1.08578">
        <ele>303.2</ele>
        <time>2024-08-12T10:25:33Z</time>
      </trkpt>
      <trkpt lat="43.18982" lon="1.08576">
        <ele>303.6</ele>
        <time>2024-08-12T10:25:34Z</time>
      </trkpt>
      <trkpt lat="43.18967" lon="1.08566">
        <ele>303.6</ele>
        <time>2024-08-12T10:25:39Z</time>
      </trkpt>
      <trkpt lat="43.18943" lon="1.08552">
        <ele>303.6</ele>
        <time>2024-08-12T10:25:47Z</time>
      </trkpt>
      <trkpt lat="43.18919" lon="1.0854">
        <ele>303.6</ele>
        <time>2024-08-12T10:25:55Z</time>
      </trkpt>
      <trkpt lat="43.18912" lon="1.08536">
        <ele>304.4</ele>
        <time>2024-08-12T10:25:57Z</time>
      </trkpt>
      <trkpt lat="43.18909" lon="1.08534">
        <ele>304.8</ele>
        <time>2024-08-12T10:25:58Z</time>
      </trkpt>
      <trkpt lat="43.18906" lon="1.08532">
        <ele>305.2</ele>
        <time>2024-08-12T10:25:59Z</time>
      </trkpt>
      <trkpt lat="43.18902" lon="1.0853">
        <ele>305.8</ele>
        <time>2024-08-12T10:26:00Z</time>
      </trkpt>
      <trkpt lat="43.1889" lon="1.08524">
        <ele>305.8</ele>
        <time>2024-08-12T10:26:04Z</time>
      </trkpt>
      <trkpt lat="43.18864" lon="1.08516">
        <ele>305.8</ele>
        <time>2024-08-12T10:26:12Z</time>
      </trkpt>
      <trkpt lat="43.18844" lon="1.08514">
        <ele>306.2</ele>
        <time>2024-08-12T10:26:18Z</time>
      </trkpt>
      <trkpt lat="43.1884" lon="1.08515">
        <ele>306.6</ele>
        <time>2024-08-12T10:26:19Z</time>
      </trkpt>
      <trkpt lat="43.18837" lon="1.08514">
        <ele>307</ele>
        <time>2024-08-12T10:26:20Z</time>
      </trkpt>
      <trkpt lat="43.18834" lon="1.08515">
        <ele>307.8</ele>
        <time>2024-08-12T10:26:21Z</time>
      </trkpt>
      <trkpt lat="43.18812" lon="1.08516">
        <ele>307.8</ele>
        <time>2024-08-12T10:26:27Z</time>
      </trkpt>
      <trkpt lat="43.18791" lon="1.08516">
        <ele>307.8</ele>
        <time>2024-08-12T10:26:33Z</time>
      </trkpt>
      <trkpt lat="43.18761" lon="1.08516">
        <ele>307.8</ele>
        <time>2024-08-12T10:26:41Z</time>
      </trkpt>
      <trkpt lat="43.18751" lon="1.08516">
        <ele>308.2</ele>
        <time>2024-08-12T10:26:44Z</time>
      </trkpt>
      <trkpt lat="43.18747" lon="1.08516">
        <ele>308.6</ele>
        <time>2024-08-12T10:26:45Z</time>
      </trkpt>
      <trkpt lat="43.18743" lon="1.08516">
        <ele>309.4</ele>
        <time>2024-08-12T10:26:46Z</time>
      </trkpt>
      <trkpt lat="43.18739" lon="1.08516">
        <ele>309.8</ele>
        <time>2024-08-12T10:26:47Z</time>
      </trkpt>
      <trkpt lat="43.18731" lon="1.08516">
        <ele>309.8</ele>
        <time>2024-08-12T10:26:49Z</time>
      </trkpt>
      <trkpt lat="43.18707" lon="1.08515">
        <ele>309.8</ele>
        <time>2024-08-12T10:26:55Z</time>
      </trkpt>
      <trkpt lat="43.18684" lon="1.08514">
        <ele>309.8</ele>
        <time>2024-08-12T10:27:01Z</time>
      </trkpt>
      <trkpt lat="43.18662" lon="1.08513">
        <ele>309.8</ele>
        <time>2024-08-12T10:27:07Z</time>
      </trkpt>
      <trkpt lat="43.18642" lon="1.08512">
        <ele>309.8</ele>
        <time>2024-08-12T10:27:12Z</time>
      </trkpt>
      <trkpt lat="43.18609" lon="1.08511">
        <ele>309.8</ele>
        <time>2024-08-12T10:27:21Z</time>
      </trkpt>
      <trkpt lat="43.18582" lon="1.08512">
        <ele>309.8</ele>
        <time>2024-08-12T10:27:29Z</time>
      </trkpt>
      <trkpt lat="43.1855" lon="1.0851">
        <ele>309.8</ele>
        <time>2024-08-12T10:27:38Z</time>
      </trkpt>
      <trkpt lat="43.18546" lon="1.0851">
        <ele>310.2</ele>
        <time>2024-08-12T10:27:39Z</time>
      </trkpt>
      <trkpt lat="43.18543" lon="1.08508">
        <ele>310.6</ele>
        <time>2024-08-12T10:27:40Z</time>
      </trkpt>
      <trkpt lat="43.1854" lon="1.08507">
        <ele>311</ele>
        <time>2024-08-12T10:27:41Z</time>
      </trkpt>
      <trkpt lat="43.18537" lon="1.08507">
        <ele>311.4</ele>
        <time>2024-08-12T10:27:42Z</time>
      </trkpt>
      <trkpt lat="43.18533" lon="1.08505">
        <ele>311.8</ele>
        <time>2024-08-12T10:27:43Z</time>
      </trkpt>
      <trkpt lat="43.1853" lon="1.08504">
        <ele>311.8</ele>
        <time>2024-08-12T10:27:44Z</time>
      </trkpt>
      <trkpt lat="43.18505" lon="1.08504">
        <ele>311.8</ele>
        <time>2024-08-12T10:27:51Z</time>
      </trkpt>
      <trkpt lat="43.18487" lon="1.0851">
        <ele>311.8</ele>
        <time>2024-08-12T10:27:56Z</time>
      </trkpt>
      <trkpt lat="43.18471" lon="1.08515">
        <ele>311.8</ele>
        <time>2024-08-12T10:28:00Z</time>
      </trkpt>
      <trkpt lat="43.18463" lon="1.08513">
        <ele>311.8</ele>
        <time>2024-08-12T10:28:02Z</time>
      </trkpt>
      <trkpt lat="43.18455" lon="1.08511">
        <ele>312.4</ele>
        <time>2024-08-12T10:28:04Z</time>
      </trkpt>
      <trkpt lat="43.18452" lon="1.08511">
        <ele>312.8</ele>
        <time>2024-08-12T10:28:05Z</time>
      </trkpt>
      <trkpt lat="43.18448" lon="1.0851">
        <ele>313.2</ele>
        <time>2024-08-12T10:28:06Z</time>
      </trkpt>
      <trkpt lat="43.18444" lon="1.0851">
        <ele>313.8</ele>
        <time>2024-08-12T10:28:07Z</time>
      </trkpt>
      <trkpt lat="43.18441" lon="1.08509">
        <ele>314.2</ele>
        <time>2024-08-12T10:28:08Z</time>
      </trkpt>
      <trkpt lat="43.18415" lon="1.08505">
        <ele>314.2</ele>
        <time>2024-08-12T10:28:15Z</time>
      </trkpt>
      <trkpt lat="43.184" lon="1.08502">
        <ele>314.6</ele>
        <time>2024-08-12T10:28:19Z</time>
      </trkpt>
      <trkpt lat="43.18396" lon="1.08501">
        <ele>315</ele>
        <time>2024-08-12T10:28:20Z</time>
      </trkpt>
      <trkpt lat="43.18393" lon="1.08501">
        <ele>315.4</ele>
        <time>2024-08-12T10:28:21Z</time>
      </trkpt>
      <trkpt lat="43.18389" lon="1.085">
        <ele>315.8</ele>
        <time>2024-08-12T10:28:22Z</time>
      </trkpt>
      <trkpt lat="43.18385" lon="1.085">
        <ele>316.2</ele>
        <time>2024-08-12T10:28:23Z</time>
      </trkpt>
      <trkpt lat="43.18364" lon="1.08498">
        <ele>316.2</ele>
        <time>2024-08-12T10:28:29Z</time>
      </trkpt>
      <trkpt lat="43.18344" lon="1.08497">
        <ele>316.6</ele>
        <time>2024-08-12T10:28:35Z</time>
      </trkpt>
      <trkpt lat="43.1834" lon="1.08497">
        <ele>317</ele>
        <time>2024-08-12T10:28:36Z</time>
      </trkpt>
      <trkpt lat="43.18337" lon="1.08497">
        <ele>317.4</ele>
        <time>2024-08-12T10:28:37Z</time>
      </trkpt>
      <trkpt lat="43.18333" lon="1.08497">
        <ele>318</ele>
        <time>2024-08-12T10:28:38Z</time>
      </trkpt>
      <trkpt lat="43.18329" lon="1.08497">
        <ele>318.4</ele>
        <time>2024-08-12T10:28:39Z</time>
      </trkpt>
      <trkpt lat="43.18319" lon="1.08497">
        <ele>318.4</ele>
        <time>2024-08-12T10:28:42Z</time>
      </trkpt>
      <trkpt lat="43.18291" lon="1.08495">
        <ele>318.4</ele>
        <time>2024-08-12T10:28:50Z</time>
      </trkpt>
      <trkpt lat="43.18288" lon="1.08495">
        <ele>318.8</ele>
        <time>2024-08-12T10:28:51Z</time>
      </trkpt>
      <trkpt lat="43.18285" lon="1.08495">
        <ele>319.2</ele>
        <time>2024-08-12T10:28:52Z</time>
      </trkpt>
      <trkpt lat="43.18281" lon="1.08495">
        <ele>319.6</ele>
        <time>2024-08-12T10:28:53Z</time>
      </trkpt>
      <trkpt lat="43.18277" lon="1.08495">
        <ele>320</ele>
        <time>2024-08-12T10:28:54Z</time>
      </trkpt>
      <trkpt lat="43.18274" lon="1.08495">
        <ele>320.4</ele>
        <time>2024-08-12T10:28:55Z</time>
      </trkpt>
      <trkpt lat="43.18264" lon="1.08496">
        <ele>320.4</ele>
        <time>2024-08-12T10:28:58Z</time>
      </trkpt>
      <trkpt lat="43.18239" lon="1.08496">
        <ele>320.4</ele>
        <time>2024-08-12T10:29:05Z</time>
      </trkpt>
      <trkpt lat="43.18221" lon="1.08494">
        <ele>320.8</ele>
        <time>2024-08-12T10:29:10Z</time>
      </trkpt>
      <trkpt lat="43.18217" lon="1.08493">
        <ele>321.2</ele>
        <time>2024-08-12T10:29:11Z</time>
      </trkpt>
      <trkpt lat="43.18214" lon="1.08493">
        <ele>321.8</ele>
        <time>2024-08-12T10:29:12Z</time>
      </trkpt>
      <trkpt lat="43.18211" lon="1.08493">
        <ele>322.2</ele>
        <time>2024-08-12T10:29:13Z</time>
      </trkpt>
      <trkpt lat="43.18207" lon="1.08494">
        <ele>322.6</ele>
        <time>2024-08-12T10:29:14Z</time>
      </trkpt>
      <trkpt lat="43.18185" lon="1.08495">
        <ele>322.6</ele>
        <time>2024-08-12T10:29:20Z</time>
      </trkpt>
      <trkpt lat="43.18179" lon="1.08494">
        <ele>323</ele>
        <time>2024-08-12T10:29:22Z</time>
      </trkpt>
      <trkpt lat="43.18175" lon="1.08494">
        <ele>323.4</ele>
        <time>2024-08-12T10:29:23Z</time>
      </trkpt>
      <trkpt lat="43.18171" lon="1.08494">
        <ele>323.8</ele>
        <time>2024-08-12T10:29:24Z</time>
      </trkpt>
      <trkpt lat="43.18167" lon="1.08493">
        <ele>324.2</ele>
        <time>2024-08-12T10:29:25Z</time>
      </trkpt>
      <trkpt lat="43.18164" lon="1.08492">
        <ele>324.6</ele>
        <time>2024-08-12T10:29:26Z</time>
      </trkpt>
      <trkpt lat="43.18138" lon="1.08486">
        <ele>324.6</ele>
        <time>2024-08-12T10:29:33Z</time>
      </trkpt>
      <trkpt lat="43.18124" lon="1.08482">
        <ele>325</ele>
        <time>2024-08-12T10:29:37Z</time>
      </trkpt>
      <trkpt lat="43.18121" lon="1.08482">
        <ele>325.4</ele>
        <time>2024-08-12T10:29:38Z</time>
      </trkpt>
      <trkpt lat="43.18118" lon="1.0848">
        <ele>326.2</ele>
        <time>2024-08-12T10:29:39Z</time>
      </trkpt>
      <trkpt lat="43.18115" lon="1.08479">
        <ele>326.6</ele>
        <time>2024-08-12T10:29:40Z</time>
      </trkpt>
      <trkpt lat="43.18101" lon="1.08475">
        <ele>326.6</ele>
        <time>2024-08-12T10:29:45Z</time>
      </trkpt>
      <trkpt lat="43.18093" lon="1.08476">
        <ele>326.6</ele>
        <time>2024-08-12T10:29:48Z</time>
      </trkpt>
      <trkpt lat="43.18086" lon="1.08473">
        <ele>326.6</ele>
        <time>2024-08-12T10:29:50Z</time>
      </trkpt>
      <trkpt lat="43.18082" lon="1.08471">
        <ele>327.2</ele>
        <time>2024-08-12T10:29:51Z</time>
      </trkpt>
      <trkpt lat="43.18078" lon="1.08469">
        <ele>327.6</ele>
        <time>2024-08-12T10:29:52Z</time>
      </trkpt>
      <trkpt lat="43.18074" lon="1.08468">
        <ele>328</ele>
        <time>2024-08-12T10:29:53Z</time>
      </trkpt>
      <trkpt lat="43.1807" lon="1.08468">
        <ele>328.6</ele>
        <time>2024-08-12T10:29:54Z</time>
      </trkpt>
      <trkpt lat="43.18066" lon="1.08468">
        <ele>329</ele>
        <time>2024-08-12T10:29:55Z</time>
      </trkpt>
      <trkpt lat="43.18048" lon="1.08465">
        <ele>329.4</ele>
        <time>2024-08-12T10:30:00Z</time>
      </trkpt>
      <trkpt lat="43.18045" lon="1.08464">
        <ele>329.8</ele>
        <time>2024-08-12T10:30:01Z</time>
      </trkpt>
      <trkpt lat="43.18041" lon="1.08463">
        <ele>330.2</ele>
        <time>2024-08-12T10:30:02Z</time>
      </trkpt>
      <trkpt lat="43.18038" lon="1.08463">
        <ele>331.2</ele>
        <time>2024-08-12T10:30:03Z</time>
      </trkpt>
      <trkpt lat="43.18024" lon="1.08463">
        <ele>331.6</ele>
        <time>2024-08-12T10:30:07Z</time>
      </trkpt>
      <trkpt lat="43.1802" lon="1.08461">
        <ele>332</ele>
        <time>2024-08-12T10:30:08Z</time>
      </trkpt>
      <trkpt lat="43.18017" lon="1.08461">
        <ele>332.4</ele>
        <time>2024-08-12T10:30:09Z</time>
      </trkpt>
      <trkpt lat="43.18013" lon="1.08461">
        <ele>332.8</ele>
        <time>2024-08-12T10:30:10Z</time>
      </trkpt>
      <trkpt lat="43.18009" lon="1.0846">
        <ele>333.2</ele>
        <time>2024-08-12T10:30:11Z</time>
      </trkpt>
      <trkpt lat="43.18002" lon="1.08458">
        <ele>333.2</ele>
        <time>2024-08-12T10:30:13Z</time>
      </trkpt>
      <trkpt lat="43.17991" lon="1.08456">
        <ele>333.8</ele>
        <time>2024-08-12T10:30:16Z</time>
      </trkpt>
      <trkpt lat="43.17987" lon="1.08455">
        <ele>334.2</ele>
        <time>2024-08-12T10:30:17Z</time>
      </trkpt>
      <trkpt lat="43.17984" lon="1.08454">
        <ele>334.6</ele>
        <time>2024-08-12T10:30:18Z</time>
      </trkpt>
      <trkpt lat="43.1798" lon="1.08454">
        <ele>335</ele>
        <time>2024-08-12T10:30:19Z</time>
      </trkpt>
      <trkpt lat="43.17976" lon="1.08452">
        <ele>335.4</ele>
        <time>2024-08-12T10:30:20Z</time>
      </trkpt>
      <trkpt lat="43.17972" lon="1.08449">
        <ele>335.4</ele>
        <time>2024-08-12T10:30:21Z</time>
      </trkpt>
      <trkpt lat="43.1795" lon="1.08437">
        <ele>335.8</ele>
        <time>2024-08-12T10:30:27Z</time>
      </trkpt>
      <trkpt lat="43.17946" lon="1.08435">
        <ele>336.6</ele>
        <time>2024-08-12T10:30:28Z</time>
      </trkpt>
      <trkpt lat="43.17943" lon="1.08434">
        <ele>337</ele>
        <time>2024-08-12T10:30:29Z</time>
      </trkpt>
      <trkpt lat="43.17939" lon="1.08432">
        <ele>337.4</ele>
        <time>2024-08-12T10:30:30Z</time>
      </trkpt>
      <trkpt lat="43.17917" lon="1.0842">
        <ele>337.4</ele>
        <time>2024-08-12T10:30:36Z</time>
      </trkpt>
      <trkpt lat="43.17888" lon="1.08406">
        <ele>337.4</ele>
        <time>2024-08-12T10:30:43Z</time>
      </trkpt>
      <trkpt lat="43.1788" lon="1.08401">
        <ele>337.8</ele>
        <time>2024-08-12T10:30:45Z</time>
      </trkpt>
      <trkpt lat="43.17875" lon="1.08399">
        <ele>338.2</ele>
        <time>2024-08-12T10:30:46Z</time>
      </trkpt>
      <trkpt lat="43.17871" lon="1.08397">
        <ele>338.6</ele>
        <time>2024-08-12T10:30:47Z</time>
      </trkpt>
      <trkpt lat="43.17866" lon="1.08395">
        <ele>339.2</ele>
        <time>2024-08-12T10:30:48Z</time>
      </trkpt>
      <trkpt lat="43.17862" lon="1.08393">
        <ele>339.6</ele>
        <time>2024-08-12T10:30:49Z</time>
      </trkpt>
      <trkpt lat="43.1785" lon="1.08387">
        <ele>340</ele>
        <time>2024-08-12T10:30:52Z</time>
      </trkpt>
      <trkpt lat="43.17847" lon="1.08385">
        <ele>341</ele>
        <time>2024-08-12T10:30:53Z</time>
      </trkpt>
      <trkpt lat="43.17843" lon="1.08384">
        <ele>341.4</ele>
        <time>2024-08-12T10:30:54Z</time>
      </trkpt>
      <trkpt lat="43.17839" lon="1.08383">
        <ele>342</ele>
        <time>2024-08-12T10:30:55Z</time>
      </trkpt>
      <trkpt lat="43.17836" lon="1.08382">
        <ele>342.4</ele>
        <time>2024-08-12T10:30:56Z</time>
      </trkpt>
      <trkpt lat="43.17831" lon="1.08381">
        <ele>342.8</ele>
        <time>2024-08-12T10:30:57Z</time>
      </trkpt>
      <trkpt lat="43.17827" lon="1.0838">
        <ele>343.2</ele>
        <time>2024-08-12T10:30:58Z</time>
      </trkpt>
      <trkpt lat="43.17823" lon="1.08381">
        <ele>343.6</ele>
        <time>2024-08-12T10:30:59Z</time>
      </trkpt>
      <trkpt lat="43.17819" lon="1.0838">
        <ele>344.2</ele>
        <time>2024-08-12T10:31:00Z</time>
      </trkpt>
      <trkpt lat="43.17814" lon="1.08381">
        <ele>344.6</ele>
        <time>2024-08-12T10:31:01Z</time>
      </trkpt>
      <trkpt lat="43.17811" lon="1.0838">
        <ele>345</ele>
        <time>2024-08-12T10:31:02Z</time>
      </trkpt>
      <trkpt lat="43.17807" lon="1.08381">
        <ele>345.6</ele>
        <time>2024-08-12T10:31:03Z</time>
      </trkpt>
      <trkpt lat="43.17803" lon="1.08381">
        <ele>346</ele>
        <time>2024-08-12T10:31:04Z</time>
      </trkpt>
      <trkpt lat="43.17799" lon="1.0838">
        <ele>346.6</ele>
        <time>2024-08-12T10:31:05Z</time>
      </trkpt>
      <trkpt lat="43.17795" lon="1.0838">
        <ele>347.2</ele>
        <time>2024-08-12T10:31:06Z</time>
      </trkpt>
      <trkpt lat="43.17791" lon="1.0838">
        <ele>347.6</ele>
        <time>2024-08-12T10:31:07Z</time>
      </trkpt>
      <trkpt lat="43.17787" lon="1.08379">
        <ele>348.2</ele>
        <time>2024-08-12T10:31:08Z</time>
      </trkpt>
      <trkpt lat="43.17783" lon="1.08378">
        <ele>348.6</ele>
        <time>2024-08-12T10:31:09Z</time>
      </trkpt>
      <trkpt lat="43.17779" lon="1.08377">
        <ele>349</ele>
        <time>2024-08-12T10:31:10Z</time>
      </trkpt>
      <trkpt lat="43.17775" lon="1.08375">
        <ele>349.4</ele>
        <time>2024-08-12T10:31:11Z</time>
      </trkpt>
      <trkpt lat="43.17772" lon="1.08374">
        <ele>350</ele>
        <time>2024-08-12T10:31:12Z</time>
      </trkpt>
      <trkpt lat="43.17768" lon="1.08372">
        <ele>350.4</ele>
        <time>2024-08-12T10:31:13Z</time>
      </trkpt>
      <trkpt lat="43.17764" lon="1.0837">
        <ele>350.8</ele>
        <time>2024-08-12T10:31:14Z</time>
      </trkpt>
      <trkpt lat="43.17761" lon="1.08369">
        <ele>351.4</ele>
        <time>2024-08-12T10:31:15Z</time>
      </trkpt>
      <trkpt lat="43.17759" lon="1.08367">
        <ele>352</ele>
        <time>2024-08-12T10:31:16Z</time>
      </trkpt>
      <trkpt lat="43.17752" lon="1.08364">
        <ele>353.4</ele>
        <time>2024-08-12T10:31:17Z</time>
      </trkpt>
      <trkpt lat="43.17749" lon="1.08363">
        <ele>354</ele>
        <time>2024-08-12T10:31:19Z</time>
      </trkpt>
      <trkpt lat="43.17746" lon="1.08362">
        <ele>354.4</ele>
        <time>2024-08-12T10:31:20Z</time>
      </trkpt>
      <trkpt lat="43.17743" lon="1.0836">
        <ele>355</ele>
        <time>2024-08-12T10:31:21Z</time>
      </trkpt>
      <trkpt lat="43.1774" lon="1.08358">
        <ele>355.4</ele>
        <time>2024-08-12T10:31:22Z</time>
      </trkpt>
      <trkpt lat="43.17736" lon="1.08357">
        <ele>356</ele>
        <time>2024-08-12T10:31:23Z</time>
      </trkpt>
      <trkpt lat="43.17732" lon="1.08355">
        <ele>356.4</ele>
        <time>2024-08-12T10:31:24Z</time>
      </trkpt>
      <trkpt lat="43.17728" lon="1.08354">
        <ele>357</ele>
        <time>2024-08-12T10:31:25Z</time>
      </trkpt>
      <trkpt lat="43.17725" lon="1.08353">
        <ele>357.4</ele>
        <time>2024-08-12T10:31:26Z</time>
      </trkpt>
      <trkpt lat="43.17721" lon="1.08351">
        <ele>357.8</ele>
        <time>2024-08-12T10:31:27Z</time>
      </trkpt>
      <trkpt lat="43.17717" lon="1.0835">
        <ele>358.2</ele>
        <time>2024-08-12T10:31:28Z</time>
      </trkpt>
      <trkpt lat="43.17713" lon="1.08349">
        <ele>358.8</ele>
        <time>2024-08-12T10:31:29Z</time>
      </trkpt>
      <trkpt lat="43.17709" lon="1.08348">
        <ele>359.2</ele>
        <time>2024-08-12T10:31:30Z</time>
      </trkpt>
      <trkpt lat="43.17706" lon="1.08348">
        <ele>359.6</ele>
        <time>2024-08-12T10:31:31Z</time>
      </trkpt>
      <trkpt lat="43.17687" lon="1.08344">
        <ele>359.6</ele>
        <time>2024-08-12T10:31:36Z</time>
        <extensions>
          <visugpx:TrkExtension xmlns:visugpx="https://www.visugpx.com/editgpx/">
            <visugpx:node>2</visugpx:node>
            </visugpx:TrkExtension>
        </extensions>
      </trkpt>
      <trkpt lat="43.17656" lon="1.08345">
        <ele>363</ele>
        <time>2024-08-12T06:34:25Z</time>
      </trkpt>
      <trkpt lat="43.17652" lon="1.08347">
        <ele>362.6</ele>
        <time>2024-08-12T06:34:26Z</time>
      </trkpt>
      <trkpt lat="43.17647" lon="1.08349">
        <ele>362.2</ele>
        <time>2024-08-12T06:34:27Z</time>
      </trkpt>
      <trkpt lat="43.17642" lon="1.0835">
        <ele>361.8</ele>
        <time>2024-08-12T06:34:28Z</time>
      </trkpt>
      <trkpt lat="43.17637" lon="1.08351">
        <ele>361.4</ele>
        <time>2024-08-12T06:34:29Z</time>
      </trkpt>
      <trkpt lat="43.17631" lon="1.08352">
        <ele>361</ele>
        <time>2024-08-12T06:34:30Z</time>
      </trkpt>
      <trkpt lat="43.17621" lon="1.08351">
        <ele>361</ele>
        <time>2024-08-12T06:34:32Z</time>
      </trkpt>
      <trkpt lat="43.17617" lon="1.08348">
        <ele>360.6</ele>
        <time>2024-08-12T06:34:33Z</time>
      </trkpt>
      <trkpt lat="43.17611" lon="1.08347">
        <ele>360.2</ele>
        <time>2024-08-12T06:34:34Z</time>
      </trkpt>
      <trkpt lat="43.17606" lon="1.08346">
        <ele>359.8</ele>
        <time>2024-08-12T06:34:35Z</time>
      </trkpt>
      <trkpt lat="43.176" lon="1.08345">
        <ele>359.4</ele>
        <time>2024-08-12T06:34:36Z</time>
      </trkpt>
      <trkpt lat="43.17594" lon="1.08343">
        <ele>359</ele>
        <time>2024-08-12T06:34:37Z</time>
      </trkpt>
      <trkpt lat="43.17581" lon="1.08338">
        <ele>358.4</ele>
        <time>2024-08-12T06:34:39Z</time>
      </trkpt>
      <trkpt lat="43.17574" lon="1.08335">
        <ele>358</ele>
        <time>2024-08-12T06:34:40Z</time>
      </trkpt>
      <trkpt lat="43.17567" lon="1.08331">
        <ele>356.8</ele>
        <time>2024-08-12T06:34:41Z</time>
      </trkpt>
      <trkpt lat="43.1756" lon="1.08327">
        <ele>356</ele>
        <time>2024-08-12T06:34:42Z</time>
      </trkpt>
      <trkpt lat="43.17553" lon="1.08322">
        <ele>355.2</ele>
        <time>2024-08-12T06:34:43Z</time>
      </trkpt>
      <trkpt lat="43.17546" lon="1.08318">
        <ele>354.4</ele>
        <time>2024-08-12T06:34:44Z</time>
      </trkpt>
      <trkpt lat="43.17539" lon="1.08313">
        <ele>353.6</ele>
        <time>2024-08-12T06:34:45Z</time>
      </trkpt>
      <trkpt lat="43.17531" lon="1.08308">
        <ele>352.8</ele>
        <time>2024-08-12T06:34:46Z</time>
      </trkpt>
      <trkpt lat="43.17524" lon="1.08304">
        <ele>352</ele>
        <time>2024-08-12T06:34:47Z</time>
      </trkpt>
      <trkpt lat="43.17505" lon="1.08291">
        <ele>351.4</ele>
        <time>2024-08-12T06:34:50Z</time>
      </trkpt>
      <trkpt lat="43.175" lon="1.08287">
        <ele>351</ele>
        <time>2024-08-12T06:34:51Z</time>
      </trkpt>
      <trkpt lat="43.17496" lon="1.08284">
        <ele>350.6</ele>
        <time>2024-08-12T06:34:52Z</time>
      </trkpt>
      <trkpt lat="43.17491" lon="1.08281">
        <ele>350</ele>
        <time>2024-08-12T06:34:53Z</time>
      </trkpt>
      <trkpt lat="43.17488" lon="1.08278">
        <ele>349.6</ele>
        <time>2024-08-12T06:34:54Z</time>
      </trkpt>
      <trkpt lat="43.17485" lon="1.08275">
        <ele>349.6</ele>
        <time>2024-08-12T06:34:55Z</time>
      </trkpt>
      <trkpt lat="43.1748" lon="1.08269">
        <ele>349.6</ele>
        <time>2024-08-12T06:34:57Z</time>
      </trkpt>
      <trkpt lat="43.17476" lon="1.08266">
        <ele>350</ele>
        <time>2024-08-12T06:34:59Z</time>
      </trkpt>
      <trkpt lat="43.17474" lon="1.08264">
        <ele>350.4</ele>
        <time>2024-08-12T06:35:00Z</time>
      </trkpt>
      <trkpt lat="43.17472" lon="1.08262">
        <ele>351</ele>
        <time>2024-08-12T06:35:01Z</time>
      </trkpt>
      <trkpt lat="43.1747" lon="1.0826">
        <ele>351.4</ele>
        <time>2024-08-12T06:35:02Z</time>
      </trkpt>
      <trkpt lat="43.17469" lon="1.0826">
        <ele>351.8</ele>
        <time>2024-08-12T06:35:03Z</time>
      </trkpt>
      <trkpt lat="43.17467" lon="1.08259">
        <ele>352.4</ele>
        <time>2024-08-12T06:35:04Z</time>
      </trkpt>
      <trkpt lat="43.17465" lon="1.08259">
        <ele>352.8</ele>
        <time>2024-08-12T06:35:05Z</time>
      </trkpt>
      <trkpt lat="43.17463" lon="1.08258">
        <ele>354</ele>
        <time>2024-08-12T06:35:06Z</time>
      </trkpt>
      <trkpt lat="43.17461" lon="1.08258">
        <ele>354.4</ele>
        <time>2024-08-12T06:35:07Z</time>
      </trkpt>
      <trkpt lat="43.17457" lon="1.08259">
        <ele>354.4</ele>
        <time>2024-08-12T06:35:09Z</time>
      </trkpt>
      <trkpt lat="43.17453" lon="1.0826">
        <ele>354.8</ele>
        <time>2024-08-12T06:35:11Z</time>
      </trkpt>
      <trkpt lat="43.17451" lon="1.0826">
        <ele>355.2</ele>
        <time>2024-08-12T06:35:12Z</time>
      </trkpt>
      <trkpt lat="43.1745" lon="1.0826">
        <ele>355.6</ele>
        <time>2024-08-12T06:35:13Z</time>
      </trkpt>
      <trkpt lat="43.17448" lon="1.0826">
        <ele>356.2</ele>
        <time>2024-08-12T06:35:14Z</time>
      </trkpt>
      <trkpt lat="43.17446" lon="1.08261">
        <ele>356.6</ele>
        <time>2024-08-12T06:35:15Z</time>
      </trkpt>
      <trkpt lat="43.17434" lon="1.08262">
        <ele>357</ele>
        <time>2024-08-12T06:35:20Z</time>
      </trkpt>
      <trkpt lat="43.17431" lon="1.08262">
        <ele>357.4</ele>
        <time>2024-08-12T06:35:21Z</time>
      </trkpt>
      <trkpt lat="43.1743" lon="1.08262">
        <ele>357.8</ele>
        <time>2024-08-12T06:35:22Z</time>
      </trkpt>
      <trkpt lat="43.17428" lon="1.08263">
        <ele>358.4</ele>
        <time>2024-08-12T06:35:23Z</time>
      </trkpt>
      <trkpt lat="43.17426" lon="1.08264">
        <ele>358.8</ele>
        <time>2024-08-12T06:35:24Z</time>
      </trkpt>
      <trkpt lat="43.17424" lon="1.08264">
        <ele>359.4</ele>
        <time>2024-08-12T06:35:25Z</time>
      </trkpt>
      <trkpt lat="43.17422" lon="1.08264">
        <ele>359.8</ele>
        <time>2024-08-12T06:35:26Z</time>
      </trkpt>
      <trkpt lat="43.17419" lon="1.08264">
        <ele>360.4</ele>
        <time>2024-08-12T06:35:27Z</time>
      </trkpt>
      <trkpt lat="43.17417" lon="1.08264">
        <ele>360.8</ele>
        <time>2024-08-12T06:35:28Z</time>
      </trkpt>
      <trkpt lat="43.17415" lon="1.08265">
        <ele>361.4</ele>
        <time>2024-08-12T06:35:29Z</time>
      </trkpt>
      <trkpt lat="43.17413" lon="1.08266">
        <ele>362.4</ele>
        <time>2024-08-12T06:35:30Z</time>
      </trkpt>
      <trkpt lat="43.17411" lon="1.08267">
        <ele>363</ele>
        <time>2024-08-12T06:35:31Z</time>
      </trkpt>
      <trkpt lat="43.17409" lon="1.08267">
        <ele>363.4</ele>
        <time>2024-08-12T06:35:32Z</time>
      </trkpt>
      <trkpt lat="43.17406" lon="1.08268">
        <ele>364</ele>
        <time>2024-08-12T06:35:33Z</time>
      </trkpt>
      <trkpt lat="43.17405" lon="1.08268">
        <ele>364.4</ele>
        <time>2024-08-12T06:35:34Z</time>
      </trkpt>
      <trkpt lat="43.17403" lon="1.08269">
        <ele>365</ele>
        <time>2024-08-12T06:35:35Z</time>
      </trkpt>
      <trkpt lat="43.17401" lon="1.08269">
        <ele>365.4</ele>
        <time>2024-08-12T06:35:36Z</time>
      </trkpt>
      <trkpt lat="43.17399" lon="1.08269">
        <ele>365.8</ele>
        <time>2024-08-12T06:35:37Z</time>
      </trkpt>
      <trkpt lat="43.17396" lon="1.0827">
        <ele>366.2</ele>
        <time>2024-08-12T06:35:38Z</time>
      </trkpt>
      <trkpt lat="43.17395" lon="1.08269">
        <ele>366.6</ele>
        <time>2024-08-12T06:35:39Z</time>
      </trkpt>
      <trkpt lat="43.17393" lon="1.08269">
        <ele>367.2</ele>
        <time>2024-08-12T06:35:40Z</time>
      </trkpt>
      <trkpt lat="43.1739" lon="1.08269">
        <ele>367.6</ele>
        <time>2024-08-12T06:35:42Z</time>
      </trkpt>
      <trkpt lat="43.17388" lon="1.08269">
        <ele>368</ele>
        <time>2024-08-12T06:35:43Z</time>
      </trkpt>
      <trkpt lat="43.17387" lon="1.08269">
        <ele>368.4</ele>
        <time>2024-08-12T06:35:44Z</time>
      </trkpt>
      <trkpt lat="43.17384" lon="1.08269">
        <ele>369</ele>
        <time>2024-08-12T06:35:45Z</time>
      </trkpt>
      <trkpt lat="43.17382" lon="1.08269">
        <ele>369.4</ele>
        <time>2024-08-12T06:35:46Z</time>
      </trkpt>
      <trkpt lat="43.17379" lon="1.08269">
        <ele>369.8</ele>
        <time>2024-08-12T06:35:47Z</time>
      </trkpt>
      <trkpt lat="43.17377" lon="1.0827">
        <ele>370.2</ele>
        <time>2024-08-12T06:35:48Z</time>
      </trkpt>
      <trkpt lat="43.17376" lon="1.08269">
        <ele>370.6</ele>
        <time>2024-08-12T06:35:49Z</time>
      </trkpt>
      <trkpt lat="43.17374" lon="1.08267">
        <ele>371</ele>
        <time>2024-08-12T06:35:50Z</time>
      </trkpt>
      <trkpt lat="43.17373" lon="1.08265">
        <ele>371.4</ele>
        <time>2024-08-12T06:35:51Z</time>
      </trkpt>
      <trkpt lat="43.17373" lon="1.08262">
        <ele>372</ele>
        <time>2024-08-12T06:35:52Z</time>
      </trkpt>
      <trkpt lat="43.17374" lon="1.08259">
        <ele>372.4</ele>
        <time>2024-08-12T06:35:53Z</time>
      </trkpt>
      <trkpt lat="43.17375" lon="1.08257">
        <ele>372.8</ele>
        <time>2024-08-12T06:35:54Z</time>
      </trkpt>
      <trkpt lat="43.17376" lon="1.08254">
        <ele>373.6</ele>
        <time>2024-08-12T06:35:55Z</time>
      </trkpt>
      <trkpt lat="43.17378" lon="1.08245">
        <ele>373.6</ele>
        <time>2024-08-12T06:35:58Z</time>
      </trkpt>
      <trkpt lat="43.17381" lon="1.08235">
        <ele>374</ele>
        <time>2024-08-12T06:36:01Z</time>
      </trkpt>
      <trkpt lat="43.17382" lon="1.08231">
        <ele>374.6</ele>
        <time>2024-08-12T06:36:02Z</time>
      </trkpt>
      <trkpt lat="43.17382" lon="1.08228">
        <ele>375</ele>
        <time>2024-08-12T06:36:03Z</time>
      </trkpt>
      <trkpt lat="43.17382" lon="1.08225">
        <ele>375.4</ele>
        <time>2024-08-12T06:36:04Z</time>
      </trkpt>
      <trkpt lat="43.17382" lon="1.08222">
        <ele>375.8</ele>
        <time>2024-08-12T06:36:05Z</time>
      </trkpt>
      <trkpt lat="43.17382" lon="1.08213">
        <ele>376.2</ele>
        <time>2024-08-12T06:36:08Z</time>
      </trkpt>
      <trkpt lat="43.17382" lon="1.0821">
        <ele>376.6</ele>
        <time>2024-08-12T06:36:09Z</time>
      </trkpt>
      <trkpt lat="43.17382" lon="1.08206">
        <ele>377</ele>
        <time>2024-08-12T06:36:10Z</time>
      </trkpt>
      <trkpt lat="43.17382" lon="1.08204">
        <ele>377.4</ele>
        <time>2024-08-12T06:36:11Z</time>
      </trkpt>
      <trkpt lat="43.17381" lon="1.08202">
        <ele>377.8</ele>
        <time>2024-08-12T06:36:12Z</time>
      </trkpt>
      <trkpt lat="43.1738" lon="1.082">
        <ele>377.8</ele>
        <time>2024-08-12T06:36:13Z</time>
      </trkpt>
      <trkpt lat="43.17379" lon="1.08199">
        <ele>378.2</ele>
        <time>2024-08-12T06:36:14Z</time>
      </trkpt>
      <trkpt lat="43.17377" lon="1.08197">
        <ele>378.8</ele>
        <time>2024-08-12T06:36:15Z</time>
      </trkpt>
      <trkpt lat="43.17376" lon="1.08197">
        <ele>379.2</ele>
        <time>2024-08-12T06:36:16Z</time>
      </trkpt>
      <trkpt lat="43.17375" lon="1.08196">
        <ele>379.6</ele>
        <time>2024-08-12T06:36:17Z</time>
      </trkpt>
      <trkpt lat="43.17374" lon="1.08195">
        <ele>380</ele>
        <time>2024-08-12T06:36:18Z</time>
      </trkpt>
      <trkpt lat="43.17372" lon="1.08194">
        <ele>380.6</ele>
        <time>2024-08-12T06:36:19Z</time>
      </trkpt>
      <trkpt lat="43.1737" lon="1.08193">
        <ele>381.6</ele>
        <time>2024-08-12T06:36:20Z</time>
      </trkpt>
      <trkpt lat="43.17368" lon="1.08193">
        <ele>382</ele>
        <time>2024-08-12T06:36:21Z</time>
      </trkpt>
      <trkpt lat="43.17366" lon="1.08193">
        <ele>382.6</ele>
        <time>2024-08-12T06:36:22Z</time>
      </trkpt>
      <trkpt lat="43.17364" lon="1.08193">
        <ele>383</ele>
        <time>2024-08-12T06:36:23Z</time>
      </trkpt>
      <trkpt lat="43.17361" lon="1.08193">
        <ele>383.4</ele>
        <time>2024-08-12T06:36:24Z</time>
      </trkpt>
      <trkpt lat="43.17359" lon="1.08193">
        <ele>383.8</ele>
        <time>2024-08-12T06:36:25Z</time>
      </trkpt>
      <trkpt lat="43.17357" lon="1.08194">
        <ele>384.4</ele>
        <time>2024-08-12T06:36:26Z</time>
      </trkpt>
      <trkpt lat="43.17353" lon="1.08197">
        <ele>384.4</ele>
        <time>2024-08-12T06:36:28Z</time>
      </trkpt>
      <trkpt lat="43.17349" lon="1.08199">
        <ele>384.8</ele>
        <time>2024-08-12T06:36:30Z</time>
      </trkpt>
      <trkpt lat="43.17347" lon="1.082">
        <ele>385.2</ele>
        <time>2024-08-12T06:36:31Z</time>
      </trkpt>
      <trkpt lat="43.17345" lon="1.082">
        <ele>385.6</ele>
        <time>2024-08-12T06:36:32Z</time>
      </trkpt>
      <trkpt lat="43.17342" lon="1.082">
        <ele>386</ele>
        <time>2024-08-12T06:36:33Z</time>
      </trkpt>
      <trkpt lat="43.1734" lon="1.08199">
        <ele>386.4</ele>
        <time>2024-08-12T06:36:34Z</time>
      </trkpt>
      <trkpt lat="43.17328" lon="1.08198">
        <ele>387</ele>
        <time>2024-08-12T06:36:39Z</time>
      </trkpt>
      <trkpt lat="43.17325" lon="1.08199">
        <ele>387.4</ele>
        <time>2024-08-12T06:36:40Z</time>
      </trkpt>
      <trkpt lat="43.17323" lon="1.08199">
        <ele>387.8</ele>
        <time>2024-08-12T06:36:41Z</time>
      </trkpt>
      <trkpt lat="43.17321" lon="1.08199">
        <ele>388.2</ele>
        <time>2024-08-12T06:36:42Z</time>
      </trkpt>
      <trkpt lat="43.17318" lon="1.082">
        <ele>388.8</ele>
        <time>2024-08-12T06:36:43Z</time>
      </trkpt>
      <trkpt lat="43.17311" lon="1.08199">
        <ele>389.2</ele>
        <time>2024-08-12T06:36:46Z</time>
      </trkpt>
      <trkpt lat="43.17309" lon="1.08198">
        <ele>389.6</ele>
        <time>2024-08-12T06:36:47Z</time>
      </trkpt>
      <trkpt lat="43.17307" lon="1.08198">
        <ele>390</ele>
        <time>2024-08-12T06:36:48Z</time>
      </trkpt>
      <trkpt lat="43.17306" lon="1.08198">
        <ele>390.4</ele>
        <time>2024-08-12T06:36:49Z</time>
      </trkpt>
      <trkpt lat="43.17304" lon="1.08197">
        <ele>390.8</ele>
        <time>2024-08-12T06:36:50Z</time>
      </trkpt>
      <trkpt lat="43.17303" lon="1.08196">
        <ele>390.8</ele>
        <time>2024-08-12T06:36:51Z</time>
      </trkpt>
      <trkpt lat="43.17302" lon="1.08195">
        <ele>390.8</ele>
        <time>2024-08-12T06:36:52Z</time>
      </trkpt>
      <trkpt lat="43.173" lon="1.08194">
        <ele>391.2</ele>
        <time>2024-08-12T06:36:53Z</time>
      </trkpt>
      <trkpt lat="43.17299" lon="1.08193">
        <ele>391.6</ele>
        <time>2024-08-12T06:36:54Z</time>
      </trkpt>
      <trkpt lat="43.17297" lon="1.08192">
        <ele>392.2</ele>
        <time>2024-08-12T06:36:55Z</time>
      </trkpt>
      <trkpt lat="43.17296" lon="1.0819">
        <ele>392.6</ele>
        <time>2024-08-12T06:36:56Z</time>
      </trkpt>
      <trkpt lat="43.17294" lon="1.08188">
        <ele>393</ele>
        <time>2024-08-12T06:36:57Z</time>
      </trkpt>
      <trkpt lat="43.17292" lon="1.08184">
        <ele>393.4</ele>
        <time>2024-08-12T06:36:59Z</time>
      </trkpt>
      <trkpt lat="43.17291" lon="1.08181">
        <ele>393.8</ele>
        <time>2024-08-12T06:37:00Z</time>
      </trkpt>
      <trkpt lat="43.17291" lon="1.08178">
        <ele>394.2</ele>
        <time>2024-08-12T06:37:01Z</time>
      </trkpt>
      <trkpt lat="43.17291" lon="1.08175">
        <ele>394.8</ele>
        <time>2024-08-12T06:37:02Z</time>
      </trkpt>
      <trkpt lat="43.17291" lon="1.08172">
        <ele>395.2</ele>
        <time>2024-08-12T06:37:03Z</time>
      </trkpt>
      <trkpt lat="43.17291" lon="1.08166">
        <ele>395.6</ele>
        <time>2024-08-12T06:37:05Z</time>
      </trkpt>
      <trkpt lat="43.1729" lon="1.08163">
        <ele>396</ele>
        <time>2024-08-12T06:37:06Z</time>
      </trkpt>
      <trkpt lat="43.1729" lon="1.0816">
        <ele>396.4</ele>
        <time>2024-08-12T06:37:07Z</time>
      </trkpt>
      <trkpt lat="43.1729" lon="1.08157">
        <ele>396.8</ele>
        <time>2024-08-12T06:37:08Z</time>
      </trkpt>
      <trkpt lat="43.17289" lon="1.08154">
        <ele>397.8</ele>
        <time>2024-08-12T06:37:09Z</time>
      </trkpt>
      <trkpt lat="43.17289" lon="1.08152">
        <ele>398.2</ele>
        <time>2024-08-12T06:37:10Z</time>
      </trkpt>
      <trkpt lat="43.17289" lon="1.0815">
        <ele>398.6</ele>
        <time>2024-08-12T06:37:11Z</time>
      </trkpt>
      <trkpt lat="43.17288" lon="1.08147">
        <ele>399</ele>
        <time>2024-08-12T06:37:12Z</time>
      </trkpt>
      <trkpt lat="43.17288" lon="1.08144">
        <ele>399.6</ele>
        <time>2024-08-12T06:37:13Z</time>
      </trkpt>
      <trkpt lat="43.17288" lon="1.08142">
        <ele>400</ele>
        <time>2024-08-12T06:37:14Z</time>
      </trkpt>
      <trkpt lat="43.17287" lon="1.08139">
        <ele>400.4</ele>
        <time>2024-08-12T06:37:15Z</time>
      </trkpt>
      <trkpt lat="43.17287" lon="1.08136">
        <ele>400.8</ele>
        <time>2024-08-12T06:37:16Z</time>
      </trkpt>
      <trkpt lat="43.17288" lon="1.08134">
        <ele>401.4</ele>
        <time>2024-08-12T06:37:17Z</time>
      </trkpt>
      <trkpt lat="43.17288" lon="1.08132">
        <ele>401.8</ele>
        <time>2024-08-12T06:37:18Z</time>
      </trkpt>
      <trkpt lat="43.17289" lon="1.08129">
        <ele>402.2</ele>
        <time>2024-08-12T06:37:19Z</time>
      </trkpt>
      <trkpt lat="43.1729" lon="1.08127">
        <ele>402.6</ele>
        <time>2024-08-12T06:37:20Z</time>
      </trkpt>
      <trkpt lat="43.17291" lon="1.08126">
        <ele>403</ele>
        <time>2024-08-12T06:37:21Z</time>
      </trkpt>
      <trkpt lat="43.17292" lon="1.08124">
        <ele>403.4</ele>
        <time>2024-08-12T06:37:22Z</time>
      </trkpt>
      <trkpt lat="43.17293" lon="1.08122">
        <ele>404</ele>
        <time>2024-08-12T06:37:23Z</time>
      </trkpt>
      <trkpt lat="43.17295" lon="1.08117">
        <ele>404.4</ele>
        <time>2024-08-12T06:37:25Z</time>
      </trkpt>
      <trkpt lat="43.17296" lon="1.08114">
        <ele>404.8</ele>
        <time>2024-08-12T06:37:26Z</time>
      </trkpt>
      <trkpt lat="43.17296" lon="1.08112">
        <ele>405.2</ele>
        <time>2024-08-12T06:37:27Z</time>
      </trkpt>
      <trkpt lat="43.17297" lon="1.08109">
        <ele>405.8</ele>
        <time>2024-08-12T06:37:28Z</time>
      </trkpt>
      <trkpt lat="43.17298" lon="1.08107">
        <ele>406.2</ele>
        <time>2024-08-12T06:37:29Z</time>
      </trkpt>
      <trkpt lat="43.173" lon="1.08103">
        <ele>406.6</ele>
        <time>2024-08-12T06:37:31Z</time>
      </trkpt>
      <trkpt lat="43.17301" lon="1.08101">
        <ele>407</ele>
        <time>2024-08-12T06:37:32Z</time>
      </trkpt>
      <trkpt lat="43.17301" lon="1.08098">
        <ele>407.4</ele>
        <time>2024-08-12T06:37:33Z</time>
      </trkpt>
      <trkpt lat="43.17302" lon="1.08097">
        <ele>408.2</ele>
        <time>2024-08-12T06:37:34Z</time>
      </trkpt>
      <trkpt lat="43.17303" lon="1.08092">
        <ele>408.6</ele>
        <time>2024-08-12T06:37:36Z</time>
      </trkpt>
      <trkpt lat="43.17303" lon="1.0809">
        <ele>409.2</ele>
        <time>2024-08-12T06:37:37Z</time>
      </trkpt>
      <trkpt lat="43.17304" lon="1.08087">
        <ele>409.6</ele>
        <time>2024-08-12T06:37:38Z</time>
      </trkpt>
      <trkpt lat="43.17305" lon="1.08084">
        <ele>410</ele>
        <time>2024-08-12T06:37:39Z</time>
      </trkpt>
      <trkpt lat="43.17305" lon="1.08082">
        <ele>410.6</ele>
        <time>2024-08-12T06:37:40Z</time>
      </trkpt>
      <trkpt lat="43.17304" lon="1.08078">
        <ele>411</ele>
        <time>2024-08-12T06:37:42Z</time>
      </trkpt>
      <trkpt lat="43.17302" lon="1.08076">
        <ele>411.4</ele>
        <time>2024-08-12T06:37:43Z</time>
      </trkpt>
      <trkpt lat="43.17301" lon="1.08072">
        <ele>411.8</ele>
        <time>2024-08-12T06:37:44Z</time>
      </trkpt>
      <trkpt lat="43.173" lon="1.08068">
        <ele>412.2</ele>
        <time>2024-08-12T06:37:45Z</time>
      </trkpt>
      <trkpt lat="43.173" lon="1.08065">
        <ele>412.6</ele>
        <time>2024-08-12T06:37:46Z</time>
      </trkpt>
      <trkpt lat="43.17302" lon="1.08051">
        <ele>412.6</ele>
        <time>2024-08-12T06:37:50Z</time>
      </trkpt>
      <trkpt lat="43.17303" lon="1.08048">
        <ele>412.6</ele>
        <time>2024-08-12T06:37:51Z</time>
      </trkpt>
      <trkpt lat="43.17307" lon="1.08034">
        <ele>412.6</ele>
        <time>2024-08-12T06:37:56Z</time>
      </trkpt>
      <trkpt lat="43.1731" lon="1.08023">
        <ele>413.4</ele>
        <time>2024-08-12T06:37:59Z</time>
      </trkpt>
      <trkpt lat="43.1731" lon="1.0802">
        <ele>413.8</ele>
        <time>2024-08-12T06:38:00Z</time>
      </trkpt>
      <trkpt lat="43.17311" lon="1.08016">
        <ele>414.4</ele>
        <time>2024-08-12T06:38:01Z</time>
      </trkpt>
      <trkpt lat="43.17311" lon="1.08013">
        <ele>414.8</ele>
        <time>2024-08-12T06:38:02Z</time>
      </trkpt>
      <trkpt lat="43.1731" lon="1.0801">
        <ele>414.8</ele>
        <time>2024-08-12T06:38:03Z</time>
      </trkpt>
      <trkpt lat="43.17306" lon="1.08003">
        <ele>414.8</ele>
        <time>2024-08-12T06:38:06Z</time>
      </trkpt>
      <trkpt lat="43.17304" lon="1.08001">
        <ele>414.8</ele>
        <time>2024-08-12T06:38:07Z</time>
      </trkpt>
      <trkpt lat="43.17285" lon="1.07988">
        <ele>414.2</ele>
        <time>2024-08-12T06:38:12Z</time>
      </trkpt>
      <trkpt lat="43.17279" lon="1.07984">
        <ele>413.8</ele>
        <time>2024-08-12T06:38:13Z</time>
      </trkpt>
      <trkpt lat="43.17272" lon="1.07979">
        <ele>413.2</ele>
        <time>2024-08-12T06:38:14Z</time>
      </trkpt>
      <trkpt lat="43.17266" lon="1.07974">
        <ele>412.6</ele>
        <time>2024-08-12T06:38:15Z</time>
      </trkpt>
      <trkpt lat="43.1726" lon="1.0797">
        <ele>411.8</ele>
        <time>2024-08-12T06:38:16Z</time>
      </trkpt>
      <trkpt lat="43.17254" lon="1.07966">
        <ele>411.2</ele>
        <time>2024-08-12T06:38:17Z</time>
      </trkpt>
      <trkpt lat="43.17249" lon="1.07962">
        <ele>410.4</ele>
        <time>2024-08-12T06:38:18Z</time>
      </trkpt>
      <trkpt lat="43.17244" lon="1.07958">
        <ele>409.8</ele>
        <time>2024-08-12T06:38:19Z</time>
      </trkpt>
      <trkpt lat="43.17233" lon="1.07949">
        <ele>409.8</ele>
        <time>2024-08-12T06:38:22Z</time>
      </trkpt>
      <trkpt lat="43.17226" lon="1.07941">
        <ele>409.8</ele>
        <time>2024-08-12T06:38:25Z</time>
      </trkpt>
      <trkpt lat="43.17226" lon="1.07932">
        <ele>410.2</ele>
        <time>2024-08-12T06:38:27Z</time>
      </trkpt>
      <trkpt lat="43.17227" lon="1.07928">
        <ele>410.6</ele>
        <time>2024-08-12T06:38:28Z</time>
      </trkpt>
      <trkpt lat="43.17228" lon="1.07924">
        <ele>411.2</ele>
        <time>2024-08-12T06:38:29Z</time>
      </trkpt>
      <trkpt lat="43.17229" lon="1.0792">
        <ele>411.6</ele>
        <time>2024-08-12T06:38:30Z</time>
      </trkpt>
      <trkpt lat="43.17231" lon="1.07915">
        <ele>412.2</ele>
        <time>2024-08-12T06:38:31Z</time>
      </trkpt>
      <trkpt lat="43.17233" lon="1.07912">
        <ele>412.2</ele>
        <time>2024-08-12T06:38:32Z</time>
      </trkpt>
      <trkpt lat="43.17234" lon="1.07907">
        <ele>412.2</ele>
        <time>2024-08-12T06:38:34Z</time>
      </trkpt>
      <trkpt lat="43.17233" lon="1.07901">
        <ele>412.2</ele>
        <time>2024-08-12T06:38:37Z</time>
      </trkpt>
      <trkpt lat="43.17234" lon="1.07896">
        <ele>412.2</ele>
        <time>2024-08-12T06:38:42Z</time>
      </trkpt>
      <trkpt lat="43.17238" lon="1.0789">
        <ele>412.2</ele>
        <time>2024-08-12T06:38:46Z</time>
      </trkpt>
      <trkpt lat="43.17242" lon="1.07885">
        <ele>412.2</ele>
        <time>2024-08-12T06:38:48Z</time>
      </trkpt>
      <trkpt lat="43.17248" lon="1.07878">
        <ele>412.2</ele>
        <time>2024-08-12T06:38:50Z</time>
      </trkpt>
      <trkpt lat="43.17249" lon="1.07874">
        <ele>412.2</ele>
        <time>2024-08-12T06:38:51Z</time>
      </trkpt>
      <trkpt lat="43.17249" lon="1.07865">
        <ele>412.2</ele>
        <time>2024-08-12T06:38:55Z</time>
      </trkpt>
      <trkpt lat="43.1725" lon="1.07861">
        <ele>412.2</ele>
        <time>2024-08-12T06:38:56Z</time>
      </trkpt>
      <trkpt lat="43.17253" lon="1.07853">
        <ele>412.2</ele>
        <time>2024-08-12T06:38:58Z</time>
      </trkpt>
      <trkpt lat="43.17257" lon="1.07837">
        <ele>412.2</ele>
        <time>2024-08-12T06:39:02Z</time>
      </trkpt>
      <trkpt lat="43.17268" lon="1.07814">
        <ele>412.2</ele>
        <time>2024-08-12T06:39:06Z</time>
      </trkpt>
      <trkpt lat="43.17272" lon="1.07806">
        <ele>411.6</ele>
        <time>2024-08-12T06:39:07Z</time>
      </trkpt>
      <trkpt lat="43.17275" lon="1.07799">
        <ele>411.2</ele>
        <time>2024-08-12T06:39:08Z</time>
      </trkpt>
      <trkpt lat="43.17278" lon="1.07792">
        <ele>410.6</ele>
        <time>2024-08-12T06:39:09Z</time>
      </trkpt>
      <trkpt lat="43.17281" lon="1.07785">
        <ele>409.8</ele>
        <time>2024-08-12T06:39:10Z</time>
      </trkpt>
      <trkpt lat="43.17283" lon="1.07778">
        <ele>409.2</ele>
        <time>2024-08-12T06:39:11Z</time>
      </trkpt>
      <trkpt lat="43.17287" lon="1.0777">
        <ele>408.4</ele>
        <time>2024-08-12T06:39:12Z</time>
      </trkpt>
      <trkpt lat="43.17289" lon="1.07762">
        <ele>406.6</ele>
        <time>2024-08-12T06:39:13Z</time>
      </trkpt>
      <trkpt lat="43.17292" lon="1.07754">
        <ele>405.8</ele>
        <time>2024-08-12T06:39:14Z</time>
      </trkpt>
      <trkpt lat="43.17294" lon="1.07746">
        <ele>404.8</ele>
        <time>2024-08-12T06:39:15Z</time>
      </trkpt>
      <trkpt lat="43.17297" lon="1.07738">
        <ele>403.8</ele>
        <time>2024-08-12T06:39:16Z</time>
      </trkpt>
      <trkpt lat="43.17298" lon="1.07729">
        <ele>402.8</ele>
        <time>2024-08-12T06:39:17Z</time>
      </trkpt>
      <trkpt lat="43.17299" lon="1.07721">
        <ele>401.8</ele>
        <time>2024-08-12T06:39:18Z</time>
      </trkpt>
      <trkpt lat="43.173" lon="1.07713">
        <ele>401</ele>
        <time>2024-08-12T06:39:19Z</time>
      </trkpt>
      <trkpt lat="43.17301" lon="1.07705">
        <ele>400.2</ele>
        <time>2024-08-12T06:39:20Z</time>
      </trkpt>
      <trkpt lat="43.17303" lon="1.07698">
        <ele>399.4</ele>
        <time>2024-08-12T06:39:21Z</time>
      </trkpt>
      <trkpt lat="43.17304" lon="1.07691">
        <ele>398.6</ele>
        <time>2024-08-12T06:39:22Z</time>
      </trkpt>
      <trkpt lat="43.17305" lon="1.07683">
        <ele>397.8</ele>
        <time>2024-08-12T06:39:23Z</time>
      </trkpt>
      <trkpt lat="43.17304" lon="1.07675">
        <ele>397.2</ele>
        <time>2024-08-12T06:39:24Z</time>
      </trkpt>
      <trkpt lat="43.17305" lon="1.07667">
        <ele>396.4</ele>
        <time>2024-08-12T06:39:25Z</time>
      </trkpt>
      <trkpt lat="43.17304" lon="1.07658">
        <ele>395.8</ele>
        <time>2024-08-12T06:39:26Z</time>
      </trkpt>
      <trkpt lat="43.17304" lon="1.0765">
        <ele>395</ele>
        <time>2024-08-12T06:39:27Z</time>
      </trkpt>
      <trkpt lat="43.17306" lon="1.07641">
        <ele>394.2</ele>
        <time>2024-08-12T06:39:28Z</time>
      </trkpt>
      <trkpt lat="43.17307" lon="1.07632">
        <ele>393.6</ele>
        <time>2024-08-12T06:39:29Z</time>
      </trkpt>
      <trkpt lat="43.1731" lon="1.07625">
        <ele>392.8</ele>
        <time>2024-08-12T06:39:30Z</time>
      </trkpt>
      <trkpt lat="43.17314" lon="1.07618">
        <ele>391.8</ele>
        <time>2024-08-12T06:39:31Z</time>
      </trkpt>
      <trkpt lat="43.17318" lon="1.07612">
        <ele>391</ele>
        <time>2024-08-12T06:39:32Z</time>
      </trkpt>
      <trkpt lat="43.17321" lon="1.07607">
        <ele>390</ele>
        <time>2024-08-12T06:39:33Z</time>
      </trkpt>
      <trkpt lat="43.17325" lon="1.07601">
        <ele>389.2</ele>
        <time>2024-08-12T06:39:34Z</time>
      </trkpt>
      <trkpt lat="43.17329" lon="1.07595">
        <ele>388.2</ele>
        <time>2024-08-12T06:39:35Z</time>
      </trkpt>
      <trkpt lat="43.17334" lon="1.07588">
        <ele>387.2</ele>
        <time>2024-08-12T06:39:36Z</time>
      </trkpt>
      <trkpt lat="43.17338" lon="1.07582">
        <ele>386.2</ele>
        <time>2024-08-12T06:39:37Z</time>
      </trkpt>
      <trkpt lat="43.17343" lon="1.07575">
        <ele>384.4</ele>
        <time>2024-08-12T06:39:38Z</time>
      </trkpt>
      <trkpt lat="43.17348" lon="1.07569">
        <ele>383.6</ele>
        <time>2024-08-12T06:39:39Z</time>
      </trkpt>
      <trkpt lat="43.17352" lon="1.07562">
        <ele>382.6</ele>
        <time>2024-08-12T06:39:40Z</time>
      </trkpt>
      <trkpt lat="43.17357" lon="1.07554">
        <ele>381.8</ele>
        <time>2024-08-12T06:39:41Z</time>
      </trkpt>
      <trkpt lat="43.17361" lon="1.07548">
        <ele>380.8</ele>
        <time>2024-08-12T06:39:42Z</time>
      </trkpt>
      <trkpt lat="43.17366" lon="1.07542">
        <ele>379.8</ele>
        <time>2024-08-12T06:39:43Z</time>
      </trkpt>
      <trkpt lat="43.17371" lon="1.07534">
        <ele>378.8</ele>
        <time>2024-08-12T06:39:44Z</time>
      </trkpt>
      <trkpt lat="43.17375" lon="1.07527">
        <ele>377.8</ele>
        <time>2024-08-12T06:39:45Z</time>
      </trkpt>
      <trkpt lat="43.17378" lon="1.07519">
        <ele>376.8</ele>
        <time>2024-08-12T06:39:46Z</time>
      </trkpt>
      <trkpt lat="43.17381" lon="1.07512">
        <ele>375.6</ele>
        <time>2024-08-12T06:39:47Z</time>
      </trkpt>
      <trkpt lat="43.17385" lon="1.07504">
        <ele>374.6</ele>
        <time>2024-08-12T06:39:48Z</time>
      </trkpt>
      <trkpt lat="43.17387" lon="1.07498">
        <ele>373.6</ele>
        <time>2024-08-12T06:39:49Z</time>
      </trkpt>
      <trkpt lat="43.17389" lon="1.07491">
        <ele>372.4</ele>
        <time>2024-08-12T06:39:50Z</time>
      </trkpt>
      <trkpt lat="43.17392" lon="1.07484">
        <ele>371.4</ele>
        <time>2024-08-12T06:39:51Z</time>
      </trkpt>
      <trkpt lat="43.17395" lon="1.07476">
        <ele>370.6</ele>
        <time>2024-08-12T06:39:52Z</time>
      </trkpt>
      <trkpt lat="43.17399" lon="1.07469">
        <ele>369.6</ele>
        <time>2024-08-12T06:39:53Z</time>
      </trkpt>
      <trkpt lat="43.17404" lon="1.07462">
        <ele>368.6</ele>
        <time>2024-08-12T06:39:54Z</time>
      </trkpt>
      <trkpt lat="43.17409" lon="1.07455">
        <ele>367.6</ele>
        <time>2024-08-12T06:39:55Z</time>
      </trkpt>
      <trkpt lat="43.17413" lon="1.07449">
        <ele>366.4</ele>
        <time>2024-08-12T06:39:56Z</time>
      </trkpt>
      <trkpt lat="43.17417" lon="1.07442">
        <ele>365.2</ele>
        <time>2024-08-12T06:39:57Z</time>
      </trkpt>
      <trkpt lat="43.17421" lon="1.07434">
        <ele>364</ele>
        <time>2024-08-12T06:39:58Z</time>
      </trkpt>
      <trkpt lat="43.17424" lon="1.07427">
        <ele>362.8</ele>
        <time>2024-08-12T06:39:59Z</time>
      </trkpt>
      <trkpt lat="43.17427" lon="1.07421">
        <ele>361.6</ele>
        <time>2024-08-12T06:40:00Z</time>
      </trkpt>
      <trkpt lat="43.17429" lon="1.07415">
        <ele>360.2</ele>
        <time>2024-08-12T06:40:01Z</time>
      </trkpt>
      <trkpt lat="43.17431" lon="1.07408">
        <ele>359</ele>
        <time>2024-08-12T06:40:02Z</time>
      </trkpt>
      <trkpt lat="43.17433" lon="1.07401">
        <ele>356.6</ele>
        <time>2024-08-12T06:40:03Z</time>
      </trkpt>
      <trkpt lat="43.17435" lon="1.07394">
        <ele>355.2</ele>
        <time>2024-08-12T06:40:04Z</time>
      </trkpt>
      <trkpt lat="43.17439" lon="1.07385">
        <ele>354</ele>
        <time>2024-08-12T06:40:05Z</time>
      </trkpt>
      <trkpt lat="43.17442" lon="1.07378">
        <ele>352.6</ele>
        <time>2024-08-12T06:40:06Z</time>
      </trkpt>
      <trkpt lat="43.17444" lon="1.07372">
        <ele>351.2</ele>
        <time>2024-08-12T06:40:07Z</time>
      </trkpt>
      <trkpt lat="43.17446" lon="1.07368">
        <ele>349.8</ele>
        <time>2024-08-12T06:40:08Z</time>
      </trkpt>
      <trkpt lat="43.17448" lon="1.07364">
        <ele>348.4</ele>
        <time>2024-08-12T06:40:09Z</time>
      </trkpt>
      <trkpt lat="43.17451" lon="1.07358">
        <ele>347.2</ele>
        <time>2024-08-12T06:40:10Z</time>
      </trkpt>
      <trkpt lat="43.17456" lon="1.07352">
        <ele>345.8</ele>
        <time>2024-08-12T06:40:11Z</time>
      </trkpt>
      <trkpt lat="43.1746" lon="1.07345">
        <ele>344.4</ele>
        <time>2024-08-12T06:40:12Z</time>
      </trkpt>
      <trkpt lat="43.17464" lon="1.07339">
        <ele>343</ele>
        <time>2024-08-12T06:40:13Z</time>
      </trkpt>
      <trkpt lat="43.17468" lon="1.07332">
        <ele>341.6</ele>
        <time>2024-08-12T06:40:14Z</time>
      </trkpt>
      <trkpt lat="43.17471" lon="1.07326">
        <ele>340.4</ele>
        <time>2024-08-12T06:40:15Z</time>
      </trkpt>
      <trkpt lat="43.17474" lon="1.0732">
        <ele>339.2</ele>
        <time>2024-08-12T06:40:16Z</time>
      </trkpt>
      <trkpt lat="43.17474" lon="1.07316">
        <ele>337.8</ele>
        <time>2024-08-12T06:40:17Z</time>
      </trkpt>
      <trkpt lat="43.17474" lon="1.07313">
        <ele>336.6</ele>
        <time>2024-08-12T06:40:18Z</time>
      </trkpt>
      <trkpt lat="43.17474" lon="1.07311">
        <ele>335.8</ele>
        <time>2024-08-12T06:40:19Z</time>
      </trkpt>
      <trkpt lat="43.17473" lon="1.07306">
        <ele>335.2</ele>
        <time>2024-08-12T06:40:20Z</time>
      </trkpt>
      <trkpt lat="43.17474" lon="1.07301">
        <ele>334.4</ele>
        <time>2024-08-12T06:40:21Z</time>
      </trkpt>
      <trkpt lat="43.17475" lon="1.07296">
        <ele>333.8</ele>
        <time>2024-08-12T06:40:22Z</time>
      </trkpt>
      <trkpt lat="43.17476" lon="1.07291">
        <ele>333</ele>
        <time>2024-08-12T06:40:23Z</time>
      </trkpt>
      <trkpt lat="43.17478" lon="1.07286">
        <ele>332.2</ele>
        <time>2024-08-12T06:40:24Z</time>
      </trkpt>
      <trkpt lat="43.17481" lon="1.0728">
        <ele>331.2</ele>
        <time>2024-08-12T06:40:25Z</time>
      </trkpt>
      <trkpt lat="43.17484" lon="1.07274">
        <ele>330.2</ele>
        <time>2024-08-12T06:40:26Z</time>
      </trkpt>
      <trkpt lat="43.17483" lon="1.07271">
        <ele>328.2</ele>
        <time>2024-08-12T06:40:27Z</time>
      </trkpt>
      <trkpt lat="43.17484" lon="1.07268">
        <ele>327.2</ele>
        <time>2024-08-12T06:40:28Z</time>
      </trkpt>
      <trkpt lat="43.17484" lon="1.07265">
        <ele>326.2</ele>
        <time>2024-08-12T06:40:29Z</time>
      </trkpt>
      <trkpt lat="43.17484" lon="1.07263">
        <ele>325.6</ele>
        <time>2024-08-12T06:40:30Z</time>
      </trkpt>
      <trkpt lat="43.17485" lon="1.07263">
        <ele>325</ele>
        <time>2024-08-12T06:40:31Z</time>
      </trkpt>
      <trkpt lat="43.17483" lon="1.07262">
        <ele>324.4</ele>
        <time>2024-08-12T06:40:32Z</time>
      </trkpt>
      <trkpt lat="43.17485" lon="1.0725">
        <ele>320.8</ele>
        <time>2024-08-12T06:40:39Z</time>
      </trkpt>
      <trkpt lat="43.17485" lon="1.07248">
        <ele>320.4</ele>
        <time>2024-08-12T06:40:40Z</time>
      </trkpt>
      <trkpt lat="43.17485" lon="1.07246">
        <ele>320</ele>
        <time>2024-08-12T06:40:41Z</time>
      </trkpt>
      <trkpt lat="43.17486" lon="1.07243">
        <ele>319.6</ele>
        <time>2024-08-12T06:40:42Z</time>
      </trkpt>
      <trkpt lat="43.17485" lon="1.07243">
        <ele>319.2</ele>
        <time>2024-08-12T06:40:43Z</time>
      </trkpt>
      <trkpt lat="43.17485" lon="1.07242">
        <ele>318.8</ele>
        <time>2024-08-12T06:40:44Z</time>
      </trkpt>
      <trkpt lat="43.17481" lon="1.07216">
        <ele>313.8</ele>
        <time>2024-08-12T06:40:55Z</time>
      </trkpt>
      <trkpt lat="43.17481" lon="1.07213">
        <ele>313.4</ele>
        <time>2024-08-12T06:40:56Z</time>
      </trkpt>
      <trkpt lat="43.1748" lon="1.0721">
        <ele>313</ele>
        <time>2024-08-12T06:40:57Z</time>
      </trkpt>
      <trkpt lat="43.1748" lon="1.07208">
        <ele>312.6</ele>
        <time>2024-08-12T06:40:58Z</time>
      </trkpt>
      <trkpt lat="43.17481" lon="1.07205">
        <ele>312.2</ele>
        <time>2024-08-12T06:40:59Z</time>
      </trkpt>
      <trkpt lat="43.17481" lon="1.07204">
        <ele>311.8</ele>
        <time>2024-08-12T06:41:00Z</time>
      </trkpt>
      <trkpt lat="43.17482" lon="1.07202">
        <ele>311.2</ele>
        <time>2024-08-12T06:41:01Z</time>
      </trkpt>
      <trkpt lat="43.17482" lon="1.072">
        <ele>310.8</ele>
        <time>2024-08-12T06:41:02Z</time>
      </trkpt>
      <trkpt lat="43.17481" lon="1.07199">
        <ele>310.4</ele>
        <time>2024-08-12T06:41:03Z</time>
      </trkpt>
      <trkpt lat="43.17479" lon="1.07196">
        <ele>309.8</ele>
        <time>2024-08-12T06:41:04Z</time>
      </trkpt>
      <trkpt lat="43.17478" lon="1.07192">
        <ele>309.4</ele>
        <time>2024-08-12T06:41:05Z</time>
      </trkpt>
      <trkpt lat="43.17476" lon="1.07189">
        <ele>309</ele>
        <time>2024-08-12T06:41:06Z</time>
      </trkpt>
      <trkpt lat="43.17475" lon="1.07186">
        <ele>308.2</ele>
        <time>2024-08-12T06:41:07Z</time>
      </trkpt>
      <trkpt lat="43.17474" lon="1.07181">
        <ele>307.6</ele>
        <time>2024-08-12T06:41:08Z</time>
      </trkpt>
      <trkpt lat="43.17474" lon="1.07178">
        <ele>307</ele>
        <time>2024-08-12T06:41:09Z</time>
      </trkpt>
      <trkpt lat="43.17473" lon="1.07175">
        <ele>306.4</ele>
        <time>2024-08-12T06:41:10Z</time>
      </trkpt>
      <trkpt lat="43.17473" lon="1.07174">
        <ele>305.8</ele>
        <time>2024-08-12T06:41:11Z</time>
      </trkpt>
      <trkpt lat="43.17472" lon="1.07172">
        <ele>305</ele>
        <time>2024-08-12T06:41:12Z</time>
      </trkpt>
      <trkpt lat="43.1747" lon="1.0717">
        <ele>304.4</ele>
        <time>2024-08-12T06:41:13Z</time>
      </trkpt>
      <trkpt lat="43.17466" lon="1.07169">
        <ele>303.8</ele>
        <time>2024-08-12T06:41:14Z</time>
      </trkpt>
      <trkpt lat="43.17464" lon="1.07167">
        <ele>303.8</ele>
        <time>2024-08-12T06:41:15Z</time>
      </trkpt>
      <trkpt lat="43.17463" lon="1.07165">
        <ele>303.8</ele>
        <time>2024-08-12T06:41:16Z</time>
      </trkpt>
      <trkpt lat="43.17461" lon="1.0716">
        <ele>303.8</ele>
        <time>2024-08-12T06:41:18Z</time>
      </trkpt>
      <trkpt lat="43.1746" lon="1.07158">
        <ele>303.8</ele>
        <time>2024-08-12T06:41:19Z</time>
      </trkpt>
      <trkpt lat="43.17455" lon="1.0715">
        <ele>303.8</ele>
        <time>2024-08-12T06:41:24Z</time>
      </trkpt>
      <trkpt lat="43.17437" lon="1.07118">
        <ele>305.8</ele>
        <time>2024-08-12T06:41:57Z</time>
      </trkpt>
      <trkpt lat="43.1743" lon="1.07109">
        <ele>305.8</ele>
        <time>2024-08-12T06:42:02Z</time>
      </trkpt>
      <trkpt lat="43.1743" lon="1.07107">
        <ele>305.8</ele>
        <time>2024-08-12T06:42:03Z</time>
      </trkpt>
      <trkpt lat="43.17424" lon="1.07099">
        <ele>305.8</ele>
        <time>2024-08-12T06:42:07Z</time>
      </trkpt>
      <trkpt lat="43.17422" lon="1.07098">
        <ele>305.8</ele>
        <time>2024-08-12T06:42:08Z</time>
      </trkpt>
      <trkpt lat="43.17421" lon="1.07096">
        <ele>305.8</ele>
        <time>2024-08-12T06:42:09Z</time>
      </trkpt>
      <trkpt lat="43.17417" lon="1.07091">
        <ele>306.2</ele>
        <time>2024-08-12T06:42:11Z</time>
      </trkpt>
      <trkpt lat="43.17415" lon="1.07089">
        <ele>306.6</ele>
        <time>2024-08-12T06:42:12Z</time>
      </trkpt>
      <trkpt lat="43.17412" lon="1.07086">
        <ele>307</ele>
        <time>2024-08-12T06:42:13Z</time>
      </trkpt>
      <trkpt lat="43.1741" lon="1.07084">
        <ele>307.4</ele>
        <time>2024-08-12T06:42:14Z</time>
      </trkpt>
      <trkpt lat="43.17409" lon="1.07083">
        <ele>307.8</ele>
        <time>2024-08-12T06:42:15Z</time>
      </trkpt>
      <trkpt lat="43.17407" lon="1.07081">
        <ele>307.8</ele>
        <time>2024-08-12T06:42:16Z</time>
      </trkpt>
      <trkpt lat="43.17399" lon="1.07077">
        <ele>307.8</ele>
        <time>2024-08-12T06:42:21Z</time>
      </trkpt>
      <trkpt lat="43.17381" lon="1.07074">
        <ele>307.8</ele>
        <time>2024-08-12T06:42:27Z</time>
      </trkpt>
      <trkpt lat="43.1737" lon="1.07075">
        <ele>307.8</ele>
        <time>2024-08-12T06:42:32Z</time>
      </trkpt>
      <trkpt lat="43.17358" lon="1.07078">
        <ele>307.8</ele>
        <time>2024-08-12T06:42:37Z</time>
      </trkpt>
      <trkpt lat="43.17348" lon="1.07083">
        <ele>307.8</ele>
        <time>2024-08-12T06:42:43Z</time>
      </trkpt>
      <trkpt lat="43.17343" lon="1.07081">
        <ele>307.8</ele>
        <time>2024-08-12T06:42:47Z</time>
      </trkpt>
      <trkpt lat="43.17343" lon="1.07081">
        <ele>307.8</ele>
        <time>2024-08-12T06:42:48Z</time>
      </trkpt>
      <trkpt lat="43.17343" lon="1.07078">
        <ele>307.8</ele>
        <time>2024-08-12T06:42:50Z</time>
      </trkpt>
      <trkpt lat="43.17341" lon="1.07076">
        <ele>307.4</ele>
        <time>2024-08-12T06:42:51Z</time>
      </trkpt>
      <trkpt lat="43.17339" lon="1.07073">
        <ele>307</ele>
        <time>2024-08-12T06:42:52Z</time>
      </trkpt>
      <trkpt lat="43.17339" lon="1.0707">
        <ele>306.6</ele>
        <time>2024-08-12T06:42:53Z</time>
      </trkpt>
      <trkpt lat="43.17339" lon="1.07067">
        <ele>306.2</ele>
        <time>2024-08-12T06:42:54Z</time>
      </trkpt>
      <trkpt lat="43.17339" lon="1.07066">
        <ele>305.8</ele>
        <time>2024-08-12T06:42:55Z</time>
      </trkpt>
      <trkpt lat="43.17339" lon="1.07066">
        <ele>305.8</ele>
        <time>2024-08-12T06:42:56Z</time>
      </trkpt>
      <trkpt lat="43.17338" lon="1.07063">
        <ele>306.2</ele>
        <time>2024-08-12T06:42:57Z</time>
      </trkpt>
      <trkpt lat="43.17337" lon="1.07062">
        <ele>306.8</ele>
        <time>2024-08-12T06:42:58Z</time>
      </trkpt>
      <trkpt lat="43.17336" lon="1.0706">
        <ele>307.2</ele>
        <time>2024-08-12T06:42:59Z</time>
      </trkpt>
      <trkpt lat="43.17335" lon="1.07059">
        <ele>307.6</ele>
        <time>2024-08-12T06:43:00Z</time>
      </trkpt>
      <trkpt lat="43.17334" lon="1.07058">
        <ele>308</ele>
        <time>2024-08-12T06:43:01Z</time>
      </trkpt>
      <trkpt lat="43.17331" lon="1.07057">
        <ele>308.4</ele>
        <time>2024-08-12T06:43:05Z</time>
      </trkpt>
      <trkpt lat="43.17329" lon="1.07057">
        <ele>308.8</ele>
        <time>2024-08-12T06:43:06Z</time>
      </trkpt>
      <trkpt lat="43.17328" lon="1.07057">
        <ele>309.2</ele>
        <time>2024-08-12T06:43:07Z</time>
      </trkpt>
      <trkpt lat="43.17326" lon="1.07057">
        <ele>309.6</ele>
        <time>2024-08-12T06:43:08Z</time>
      </trkpt>
      <trkpt lat="43.17324" lon="1.07056">
        <ele>310</ele>
        <time>2024-08-12T06:43:09Z</time>
      </trkpt>
      <trkpt lat="43.17319" lon="1.07052">
        <ele>310</ele>
        <time>2024-08-12T06:43:11Z</time>
      </trkpt>
      <trkpt lat="43.17313" lon="1.0705">
        <ele>310.4</ele>
        <time>2024-08-12T06:43:13Z</time>
      </trkpt>
      <trkpt lat="43.17311" lon="1.07048">
        <ele>310.8</ele>
        <time>2024-08-12T06:43:14Z</time>
      </trkpt>
      <trkpt lat="43.17308" lon="1.07046">
        <ele>311.2</ele>
        <time>2024-08-12T06:43:15Z</time>
      </trkpt>
      <trkpt lat="43.17307" lon="1.07045">
        <ele>311.6</ele>
        <time>2024-08-12T06:43:16Z</time>
      </trkpt>
      <trkpt lat="43.17305" lon="1.07043">
        <ele>312</ele>
        <time>2024-08-12T06:43:17Z</time>
      </trkpt>
      <trkpt lat="43.17301" lon="1.07041">
        <ele>312</ele>
        <time>2024-08-12T06:43:19Z</time>
      </trkpt>
      <trkpt lat="43.17299" lon="1.0704">
        <ele>313</ele>
        <time>2024-08-12T06:43:20Z</time>
      </trkpt>
      <trkpt lat="43.17297" lon="1.0704">
        <ele>313.4</ele>
        <time>2024-08-12T06:43:21Z</time>
      </trkpt>
      <trkpt lat="43.17295" lon="1.07039">
        <ele>313.8</ele>
        <time>2024-08-12T06:43:22Z</time>
      </trkpt>
      <trkpt lat="43.17293" lon="1.07039">
        <ele>314.4</ele>
        <time>2024-08-12T06:43:23Z</time>
      </trkpt>
      <trkpt lat="43.17286" lon="1.07037">
        <ele>314.8</ele>
        <time>2024-08-12T06:43:25Z</time>
      </trkpt>
      <trkpt lat="43.17283" lon="1.07035">
        <ele>315.2</ele>
        <time>2024-08-12T06:43:26Z</time>
      </trkpt>
      <trkpt lat="43.17281" lon="1.07034">
        <ele>315.8</ele>
        <time>2024-08-12T06:43:27Z</time>
      </trkpt>
      <trkpt lat="43.17278" lon="1.07035">
        <ele>316.2</ele>
        <time>2024-08-12T06:43:28Z</time>
      </trkpt>
      <trkpt lat="43.17276" lon="1.07034">
        <ele>316.8</ele>
        <time>2024-08-12T06:43:29Z</time>
      </trkpt>
      <trkpt lat="43.17275" lon="1.07033">
        <ele>317.2</ele>
        <time>2024-08-12T06:43:30Z</time>
      </trkpt>
      <trkpt lat="43.17273" lon="1.07032">
        <ele>317.6</ele>
        <time>2024-08-12T06:43:31Z</time>
      </trkpt>
      <trkpt lat="43.1727" lon="1.07029">
        <ele>318</ele>
        <time>2024-08-12T06:43:32Z</time>
      </trkpt>
      <trkpt lat="43.1727" lon="1.07029">
        <ele>318.4</ele>
        <time>2024-08-12T06:43:33Z</time>
      </trkpt>
      <trkpt lat="43.1727" lon="1.07026">
        <ele>318.8</ele>
        <time>2024-08-12T06:43:34Z</time>
      </trkpt>
      <trkpt lat="43.17263" lon="1.07016">
        <ele>318.8</ele>
        <time>2024-08-12T06:43:38Z</time>
      </trkpt>
      <trkpt lat="43.17261" lon="1.07013">
        <ele>319.2</ele>
        <time>2024-08-12T06:43:39Z</time>
      </trkpt>
      <trkpt lat="43.17261" lon="1.0701">
        <ele>319.8</ele>
        <time>2024-08-12T06:43:40Z</time>
      </trkpt>
      <trkpt lat="43.1726" lon="1.07007">
        <ele>320.2</ele>
        <time>2024-08-12T06:43:41Z</time>
      </trkpt>
      <trkpt lat="43.17258" lon="1.07004">
        <ele>320.6</ele>
        <time>2024-08-12T06:43:42Z</time>
      </trkpt>
      <trkpt lat="43.17257" lon="1.07001">
        <ele>321</ele>
        <time>2024-08-12T06:43:43Z</time>
      </trkpt>
      <trkpt lat="43.17256" lon="1.06999">
        <ele>321</ele>
        <time>2024-08-12T06:43:44Z</time>
      </trkpt>
      <trkpt lat="43.17253" lon="1.06991">
        <ele>321.4</ele>
        <time>2024-08-12T06:43:47Z</time>
      </trkpt>
      <trkpt lat="43.17253" lon="1.06987">
        <ele>322</ele>
        <time>2024-08-12T06:43:48Z</time>
      </trkpt>
      <trkpt lat="43.17252" lon="1.06983">
        <ele>322.4</ele>
        <time>2024-08-12T06:43:49Z</time>
      </trkpt>
      <trkpt lat="43.17251" lon="1.06981">
        <ele>322.8</ele>
        <time>2024-08-12T06:43:50Z</time>
      </trkpt>
      <trkpt lat="43.1725" lon="1.06977">
        <ele>323.2</ele>
        <time>2024-08-12T06:43:51Z</time>
      </trkpt>
      <trkpt lat="43.17247" lon="1.06967">
        <ele>323.2</ele>
        <time>2024-08-12T06:43:54Z</time>
      </trkpt>
      <trkpt lat="43.17246" lon="1.06961">
        <ele>323.6</ele>
        <time>2024-08-12T06:43:56Z</time>
      </trkpt>
      <trkpt lat="43.17245" lon="1.06959">
        <ele>324.2</ele>
        <time>2024-08-12T06:43:57Z</time>
      </trkpt>
      <trkpt lat="43.17244" lon="1.06955">
        <ele>324.6</ele>
        <time>2024-08-12T06:43:58Z</time>
      </trkpt>
      <trkpt lat="43.17244" lon="1.06952">
        <ele>325</ele>
        <time>2024-08-12T06:43:59Z</time>
      </trkpt>
      <trkpt lat="43.17243" lon="1.06949">
        <ele>325.4</ele>
        <time>2024-08-12T06:44:00Z</time>
      </trkpt>
      <trkpt lat="43.17241" lon="1.06937">
        <ele>325.8</ele>
        <time>2024-08-12T06:44:04Z</time>
      </trkpt>
      <trkpt lat="43.17241" lon="1.06934">
        <ele>326.2</ele>
        <time>2024-08-12T06:44:05Z</time>
      </trkpt>
      <trkpt lat="43.17241" lon="1.0693">
        <ele>326.6</ele>
        <time>2024-08-12T06:44:06Z</time>
      </trkpt>
      <trkpt lat="43.17241" lon="1.06927">
        <ele>327</ele>
        <time>2024-08-12T06:44:07Z</time>
      </trkpt>
      <trkpt lat="43.1724" lon="1.06923">
        <ele>327.4</ele>
        <time>2024-08-12T06:44:08Z</time>
      </trkpt>
      <trkpt lat="43.1724" lon="1.06918">
        <ele>328.4</ele>
        <time>2024-08-12T06:44:10Z</time>
      </trkpt>
      <trkpt lat="43.17239" lon="1.06916">
        <ele>328.8</ele>
        <time>2024-08-12T06:44:11Z</time>
      </trkpt>
      <trkpt lat="43.17239" lon="1.06914">
        <ele>329.2</ele>
        <time>2024-08-12T06:44:12Z</time>
      </trkpt>
      <trkpt lat="43.17238" lon="1.06912">
        <ele>329.6</ele>
        <time>2024-08-12T06:44:13Z</time>
      </trkpt>
      <trkpt lat="43.17238" lon="1.06899">
        <ele>330</ele>
        <time>2024-08-12T06:44:17Z</time>
      </trkpt>
      <trkpt lat="43.17238" lon="1.06896">
        <ele>330.4</ele>
        <time>2024-08-12T06:44:18Z</time>
      </trkpt>
      <trkpt lat="43.17238" lon="1.06893">
        <ele>330.8</ele>
        <time>2024-08-12T06:44:19Z</time>
      </trkpt>
      <trkpt lat="43.17239" lon="1.0689">
        <ele>331.2</ele>
        <time>2024-08-12T06:44:20Z</time>
      </trkpt>
      <trkpt lat="43.17239" lon="1.06888">
        <ele>331.8</ele>
        <time>2024-08-12T06:44:21Z</time>
      </trkpt>
      <trkpt lat="43.1724" lon="1.06878">
        <ele>331.8</ele>
        <time>2024-08-12T06:44:26Z</time>
      </trkpt>
      <trkpt lat="43.1724" lon="1.06871">
        <ele>332.2</ele>
        <time>2024-08-12T06:44:28Z</time>
      </trkpt>
      <trkpt lat="43.17241" lon="1.06868">
        <ele>332.6</ele>
        <time>2024-08-12T06:44:29Z</time>
      </trkpt>
      <trkpt lat="43.17241" lon="1.06865">
        <ele>333</ele>
        <time>2024-08-12T06:44:30Z</time>
      </trkpt>
      <trkpt lat="43.17242" lon="1.06862">
        <ele>333.4</ele>
        <time>2024-08-12T06:44:31Z</time>
      </trkpt>
      <trkpt lat="43.17243" lon="1.06859">
        <ele>334</ele>
        <time>2024-08-12T06:44:32Z</time>
      </trkpt>
      <trkpt lat="43.17245" lon="1.06848">
        <ele>334</ele>
        <time>2024-08-12T06:44:36Z</time>
      </trkpt>
      <trkpt lat="43.17245" lon="1.06846">
        <ele>334.4</ele>
        <time>2024-08-12T06:44:37Z</time>
      </trkpt>
      <trkpt lat="43.17245" lon="1.06843">
        <ele>334.8</ele>
        <time>2024-08-12T06:44:38Z</time>
      </trkpt>
      <trkpt lat="43.17244" lon="1.06841">
        <ele>335.2</ele>
        <time>2024-08-12T06:44:39Z</time>
      </trkpt>
      <trkpt lat="43.17242" lon="1.06836">
        <ele>335.6</ele>
        <time>2024-08-12T06:44:40Z</time>
      </trkpt>
      <trkpt lat="43.1724" lon="1.0683">
        <ele>336</ele>
        <time>2024-08-12T06:44:41Z</time>
      </trkpt>
      <trkpt lat="43.17234" lon="1.06817">
        <ele>335.4</ele>
        <time>2024-08-12T06:44:43Z</time>
      </trkpt>
      <trkpt lat="43.17232" lon="1.0681">
        <ele>335</ele>
        <time>2024-08-12T06:44:44Z</time>
      </trkpt>
      <trkpt lat="43.1723" lon="1.06804">
        <ele>334.4</ele>
        <time>2024-08-12T06:44:45Z</time>
      </trkpt>
      <trkpt lat="43.17228" lon="1.06798">
        <ele>333.8</ele>
        <time>2024-08-12T06:44:46Z</time>
      </trkpt>
      <trkpt lat="43.17227" lon="1.06791">
        <ele>333.2</ele>
        <time>2024-08-12T06:44:47Z</time>
      </trkpt>
      <trkpt lat="43.17227" lon="1.06785">
        <ele>332.6</ele>
        <time>2024-08-12T06:44:48Z</time>
      </trkpt>
      <trkpt lat="43.17227" lon="1.06782">
        <ele>332</ele>
        <time>2024-08-12T06:44:49Z</time>
      </trkpt>
      <trkpt lat="43.17229" lon="1.06779">
        <ele>331.4</ele>
        <time>2024-08-12T06:44:50Z</time>
      </trkpt>
      <trkpt lat="43.17231" lon="1.06772">
        <ele>331.4</ele>
        <time>2024-08-12T06:44:52Z</time>
      </trkpt>
      <trkpt lat="43.17232" lon="1.06769">
        <ele>331.4</ele>
        <time>2024-08-12T06:44:53Z</time>
      </trkpt>
      <trkpt lat="43.17232" lon="1.06765">
        <ele>331.4</ele>
        <time>2024-08-12T06:44:54Z</time>
      </trkpt>
      <trkpt lat="43.17231" lon="1.06758">
        <ele>331.8</ele>
        <time>2024-08-12T06:44:56Z</time>
      </trkpt>
      <trkpt lat="43.17231" lon="1.06754">
        <ele>332.2</ele>
        <time>2024-08-12T06:44:57Z</time>
      </trkpt>
      <trkpt lat="43.17231" lon="1.06751">
        <ele>332.8</ele>
        <time>2024-08-12T06:44:58Z</time>
      </trkpt>
      <trkpt lat="43.17231" lon="1.06747">
        <ele>333.6</ele>
        <time>2024-08-12T06:44:59Z</time>
      </trkpt>
      <trkpt lat="43.17231" lon="1.06745">
        <ele>333.6</ele>
        <time>2024-08-12T06:45:00Z</time>
      </trkpt>
      <trkpt lat="43.17233" lon="1.06735">
        <ele>333.6</ele>
        <time>2024-08-12T06:45:03Z</time>
      </trkpt>
      <trkpt lat="43.17233" lon="1.06726">
        <ele>334</ele>
        <time>2024-08-12T06:45:06Z</time>
      </trkpt>
      <trkpt lat="43.17234" lon="1.06723">
        <ele>334.6</ele>
        <time>2024-08-12T06:45:07Z</time>
      </trkpt>
      <trkpt lat="43.17234" lon="1.06719">
        <ele>335</ele>
        <time>2024-08-12T06:45:08Z</time>
      </trkpt>
      <trkpt lat="43.17234" lon="1.06716">
        <ele>335.4</ele>
        <time>2024-08-12T06:45:09Z</time>
      </trkpt>
      <trkpt lat="43.17235" lon="1.06712">
        <ele>335.8</ele>
        <time>2024-08-12T06:45:10Z</time>
      </trkpt>
      <trkpt lat="43.17238" lon="1.06699">
        <ele>336.4</ele>
        <time>2024-08-12T06:45:14Z</time>
      </trkpt>
      <trkpt lat="43.17238" lon="1.06698">
        <ele>336.8</ele>
        <time>2024-08-12T06:45:15Z</time>
      </trkpt>
      <trkpt lat="43.17239" lon="1.06694">
        <ele>337.2</ele>
        <time>2024-08-12T06:45:16Z</time>
      </trkpt>
      <trkpt lat="43.1724" lon="1.06689">
        <ele>337.8</ele>
        <time>2024-08-12T06:45:17Z</time>
      </trkpt>
      <trkpt lat="43.17241" lon="1.06685">
        <ele>338.2</ele>
        <time>2024-08-12T06:45:18Z</time>
      </trkpt>
      <trkpt lat="43.17241" lon="1.06683">
        <ele>338.2</ele>
        <time>2024-08-12T06:45:19Z</time>
      </trkpt>
      <trkpt lat="43.17242" lon="1.06681">
        <ele>338.6</ele>
        <time>2024-08-12T06:45:20Z</time>
      </trkpt>
      <trkpt lat="43.17242" lon="1.06681">
        <ele>339.2</ele>
        <time>2024-08-12T06:45:21Z</time>
      </trkpt>
      <trkpt lat="43.17243" lon="1.06664">
        <ele>340.6</ele>
        <time>2024-08-12T06:45:54Z</time>
      </trkpt>
      <trkpt lat="43.17242" lon="1.06661">
        <ele>340.6</ele>
        <time>2024-08-12T06:45:55Z</time>
      </trkpt>
      <trkpt lat="43.17238" lon="1.06652">
        <ele>340.6</ele>
        <time>2024-08-12T06:45:58Z</time>
      </trkpt>
      <trkpt lat="43.17236" lon="1.0665">
        <ele>340.6</ele>
        <time>2024-08-12T06:45:59Z</time>
      </trkpt>
      <trkpt lat="43.17224" lon="1.06639">
        <ele>340.6</ele>
        <time>2024-08-12T06:46:03Z</time>
      </trkpt>
      <trkpt lat="43.1721" lon="1.06629">
        <ele>340.6</ele>
        <time>2024-08-12T06:46:07Z</time>
      </trkpt>
      <trkpt lat="43.17209" lon="1.06623">
        <ele>340.6</ele>
        <time>2024-08-12T06:46:08Z</time>
      </trkpt>
      <trkpt lat="43.1721" lon="1.06607">
        <ele>340.6</ele>
        <time>2024-08-12T06:46:11Z</time>
      </trkpt>
      <trkpt lat="43.1721" lon="1.06604">
        <ele>341</ele>
        <time>2024-08-12T06:46:12Z</time>
      </trkpt>
      <trkpt lat="43.1721" lon="1.06603">
        <ele>341.4</ele>
        <time>2024-08-12T06:46:13Z</time>
      </trkpt>
      <trkpt lat="43.1721" lon="1.06602">
        <ele>341.8</ele>
        <time>2024-08-12T06:46:14Z</time>
      </trkpt>
      <trkpt lat="43.17212" lon="1.06592">
        <ele>342.6</ele>
        <time>2024-08-12T06:49:49Z</time>
      </trkpt>
      <trkpt lat="43.17216" lon="1.06573">
        <ele>342.6</ele>
        <time>2024-08-12T06:49:56Z</time>
      </trkpt>
      <trkpt lat="43.17222" lon="1.06553">
        <ele>342.6</ele>
        <time>2024-08-12T06:50:01Z</time>
      </trkpt>
      <trkpt lat="43.17224" lon="1.06547">
        <ele>342.6</ele>
        <time>2024-08-12T06:50:02Z</time>
      </trkpt>
      <trkpt lat="43.17228" lon="1.06534">
        <ele>342.6</ele>
        <time>2024-08-12T06:50:04Z</time>
      </trkpt>
      <trkpt lat="43.1723" lon="1.06527">
        <ele>342.6</ele>
        <time>2024-08-12T06:50:05Z</time>
      </trkpt>
      <trkpt lat="43.17235" lon="1.06515">
        <ele>342.6</ele>
        <time>2024-08-12T06:50:07Z</time>
      </trkpt>
      <trkpt lat="43.17238" lon="1.06502">
        <ele>342.2</ele>
        <time>2024-08-12T06:50:09Z</time>
      </trkpt>
      <trkpt lat="43.1724" lon="1.06495">
        <ele>341.8</ele>
        <time>2024-08-12T06:50:10Z</time>
      </trkpt>
      <trkpt lat="43.17242" lon="1.06487">
        <ele>341.4</ele>
        <time>2024-08-12T06:50:11Z</time>
      </trkpt>
      <trkpt lat="43.17244" lon="1.0648">
        <ele>340.8</ele>
        <time>2024-08-12T06:50:12Z</time>
      </trkpt>
      <trkpt lat="43.17246" lon="1.06471">
        <ele>340.4</ele>
        <time>2024-08-12T06:50:13Z</time>
      </trkpt>
      <trkpt lat="43.17251" lon="1.06448">
        <ele>340.4</ele>
        <time>2024-08-12T06:50:16Z</time>
      </trkpt>
      <trkpt lat="43.17252" lon="1.06441">
        <ele>340</ele>
        <time>2024-08-12T06:50:17Z</time>
      </trkpt>
      <trkpt lat="43.17253" lon="1.06434">
        <ele>339.6</ele>
        <time>2024-08-12T06:50:18Z</time>
      </trkpt>
      <trkpt lat="43.17254" lon="1.06427">
        <ele>339.2</ele>
        <time>2024-08-12T06:50:19Z</time>
      </trkpt>
      <trkpt lat="43.17257" lon="1.06419">
        <ele>338.8</ele>
        <time>2024-08-12T06:50:20Z</time>
      </trkpt>
      <trkpt lat="43.1726" lon="1.06411">
        <ele>338.4</ele>
        <time>2024-08-12T06:50:21Z</time>
      </trkpt>
      <trkpt lat="43.1727" lon="1.06396">
        <ele>338</ele>
        <time>2024-08-12T06:50:23Z</time>
      </trkpt>
      <trkpt lat="43.17274" lon="1.06388">
        <ele>337.4</ele>
        <time>2024-08-12T06:50:24Z</time>
      </trkpt>
      <trkpt lat="43.1728" lon="1.0638">
        <ele>336.8</ele>
        <time>2024-08-12T06:50:25Z</time>
      </trkpt>
      <trkpt lat="43.17285" lon="1.06371">
        <ele>336</ele>
        <time>2024-08-12T06:50:26Z</time>
      </trkpt>
      <trkpt lat="43.17291" lon="1.0636">
        <ele>335.2</ele>
        <time>2024-08-12T06:50:27Z</time>
      </trkpt>
      <trkpt lat="43.17296" lon="1.06349">
        <ele>334.2</ele>
        <time>2024-08-12T06:50:28Z</time>
      </trkpt>
      <trkpt lat="43.17302" lon="1.06338">
        <ele>333.4</ele>
        <time>2024-08-12T06:50:29Z</time>
      </trkpt>
      <trkpt lat="43.17308" lon="1.06327">
        <ele>332.4</ele>
        <time>2024-08-12T06:50:30Z</time>
      </trkpt>
      <trkpt lat="43.17313" lon="1.06316">
        <ele>331.4</ele>
        <time>2024-08-12T06:50:31Z</time>
      </trkpt>
      <trkpt lat="43.17319" lon="1.06307">
        <ele>330.4</ele>
        <time>2024-08-12T06:50:32Z</time>
      </trkpt>
      <trkpt lat="43.17324" lon="1.06298">
        <ele>329.6</ele>
        <time>2024-08-12T06:50:33Z</time>
      </trkpt>
      <trkpt lat="43.1733" lon="1.0629">
        <ele>328.8</ele>
        <time>2024-08-12T06:50:34Z</time>
      </trkpt>
      <trkpt lat="43.17336" lon="1.06281">
        <ele>327.8</ele>
        <time>2024-08-12T06:50:35Z</time>
      </trkpt>
      <trkpt lat="43.17342" lon="1.06272">
        <ele>327</ele>
        <time>2024-08-12T06:50:36Z</time>
      </trkpt>
      <trkpt lat="43.17347" lon="1.06264">
        <ele>326</ele>
        <time>2024-08-12T06:50:37Z</time>
      </trkpt>
      <trkpt lat="43.17353" lon="1.06255">
        <ele>325.6</ele>
        <time>2024-08-12T06:50:38Z</time>
      </trkpt>
      <trkpt lat="43.17359" lon="1.06245">
        <ele>325</ele>
        <time>2024-08-12T06:50:39Z</time>
      </trkpt>
      <trkpt lat="43.17364" lon="1.06235">
        <ele>324.6</ele>
        <time>2024-08-12T06:50:40Z</time>
      </trkpt>
      <trkpt lat="43.17369" lon="1.06226">
        <ele>324.2</ele>
        <time>2024-08-12T06:50:41Z</time>
      </trkpt>
      <trkpt lat="43.17373" lon="1.06216">
        <ele>323.8</ele>
        <time>2024-08-12T06:50:42Z</time>
      </trkpt>
      <trkpt lat="43.17377" lon="1.06206">
        <ele>323.4</ele>
        <time>2024-08-12T06:50:43Z</time>
      </trkpt>
      <trkpt lat="43.17381" lon="1.06197">
        <ele>323</ele>
        <time>2024-08-12T06:50:44Z</time>
      </trkpt>
      <trkpt lat="43.17386" lon="1.06189">
        <ele>322.6</ele>
        <time>2024-08-12T06:50:45Z</time>
      </trkpt>
      <trkpt lat="43.17395" lon="1.06174">
        <ele>322.6</ele>
        <time>2024-08-12T06:50:47Z</time>
      </trkpt>
      <trkpt lat="43.17406" lon="1.06154">
        <ele>322.6</ele>
        <time>2024-08-12T06:50:50Z</time>
      </trkpt>
      <trkpt lat="43.17409" lon="1.06147">
        <ele>322.6</ele>
        <time>2024-08-12T06:50:51Z</time>
      </trkpt>
      <trkpt lat="43.17412" lon="1.06141">
        <ele>322.6</ele>
        <time>2024-08-12T06:50:52Z</time>
      </trkpt>
      <trkpt lat="43.17416" lon="1.06118">
        <ele>322.6</ele>
        <time>2024-08-12T06:50:55Z</time>
      </trkpt>
      <trkpt lat="43.1742" lon="1.06103">
        <ele>322.2</ele>
        <time>2024-08-12T06:50:57Z</time>
      </trkpt>
      <trkpt lat="43.17423" lon="1.06094">
        <ele>321.6</ele>
        <time>2024-08-12T06:50:58Z</time>
      </trkpt>
      <trkpt lat="43.17425" lon="1.06086">
        <ele>321.2</ele>
        <time>2024-08-12T06:50:59Z</time>
      </trkpt>
      <trkpt lat="43.17426" lon="1.06077">
        <ele>320.8</ele>
        <time>2024-08-12T06:51:00Z</time>
      </trkpt>
      <trkpt lat="43.17429" lon="1.06069">
        <ele>320.4</ele>
        <time>2024-08-12T06:51:01Z</time>
      </trkpt>
      <trkpt lat="43.17431" lon="1.06061">
        <ele>320.4</ele>
        <time>2024-08-12T06:51:02Z</time>
      </trkpt>
      <trkpt lat="43.17434" lon="1.06044">
        <ele>320.4</ele>
        <time>2024-08-12T06:51:04Z</time>
      </trkpt>
      <trkpt lat="43.17435" lon="1.06036">
        <ele>320.4</ele>
        <time>2024-08-12T06:51:05Z</time>
      </trkpt>
      <trkpt lat="43.17443" lon="1.0601">
        <ele>320.4</ele>
        <time>2024-08-12T06:51:08Z</time>
      </trkpt>
      <trkpt lat="43.17445" lon="1.06001">
        <ele>320.4</ele>
        <time>2024-08-12T06:51:09Z</time>
      </trkpt>
      <trkpt lat="43.17447" lon="1.05993">
        <ele>320</ele>
        <time>2024-08-12T06:51:10Z</time>
      </trkpt>
      <trkpt lat="43.1745" lon="1.05985">
        <ele>319.4</ele>
        <time>2024-08-12T06:51:11Z</time>
      </trkpt>
      <trkpt lat="43.17453" lon="1.05977">
        <ele>319</ele>
        <time>2024-08-12T06:51:12Z</time>
      </trkpt>
      <trkpt lat="43.17457" lon="1.05969">
        <ele>318.6</ele>
        <time>2024-08-12T06:51:13Z</time>
      </trkpt>
      <trkpt lat="43.17461" lon="1.05961">
        <ele>318.2</ele>
        <time>2024-08-12T06:51:14Z</time>
      </trkpt>
      <trkpt lat="43.17474" lon="1.05934">
        <ele>317.6</ele>
        <time>2024-08-12T06:51:17Z</time>
      </trkpt>
      <trkpt lat="43.17477" lon="1.05923">
        <ele>317.2</ele>
        <time>2024-08-12T06:51:18Z</time>
      </trkpt>
      <trkpt lat="43.1748" lon="1.05912">
        <ele>316.6</ele>
        <time>2024-08-12T06:51:19Z</time>
      </trkpt>
      <trkpt lat="43.17482" lon="1.05901">
        <ele>316</ele>
        <time>2024-08-12T06:51:20Z</time>
      </trkpt>
      <trkpt lat="43.17485" lon="1.0589">
        <ele>315.4</ele>
        <time>2024-08-12T06:51:21Z</time>
      </trkpt>
      <trkpt lat="43.17488" lon="1.05879">
        <ele>314.8</ele>
        <time>2024-08-12T06:51:22Z</time>
      </trkpt>
      <trkpt lat="43.1749" lon="1.05869">
        <ele>314.2</ele>
        <time>2024-08-12T06:51:23Z</time>
      </trkpt>
      <trkpt lat="43.17492" lon="1.05859">
        <ele>313.4</ele>
        <time>2024-08-12T06:51:24Z</time>
      </trkpt>
      <trkpt lat="43.17495" lon="1.0585">
        <ele>312.2</ele>
        <time>2024-08-12T06:51:25Z</time>
      </trkpt>
      <trkpt lat="43.17499" lon="1.05841">
        <ele>311.6</ele>
        <time>2024-08-12T06:51:26Z</time>
      </trkpt>
      <trkpt lat="43.17503" lon="1.05834">
        <ele>311.6</ele>
        <time>2024-08-12T06:51:27Z</time>
      </trkpt>
      <trkpt lat="43.17517" lon="1.05817">
        <ele>311.6</ele>
        <time>2024-08-12T06:51:30Z</time>
      </trkpt>
      <trkpt lat="43.17522" lon="1.05814">
        <ele>311.6</ele>
        <time>2024-08-12T06:51:31Z</time>
      </trkpt>
      <trkpt lat="43.17537" lon="1.05807">
        <ele>311.6</ele>
        <time>2024-08-12T06:51:34Z</time>
      </trkpt>
      <trkpt lat="43.17548" lon="1.05806">
        <ele>311.6</ele>
        <time>2024-08-12T06:51:36Z</time>
      </trkpt>
      <trkpt lat="43.17554" lon="1.05807">
        <ele>311.6</ele>
        <time>2024-08-12T06:51:37Z</time>
      </trkpt>
      <trkpt lat="43.17566" lon="1.05811">
        <ele>311</ele>
        <time>2024-08-12T06:51:39Z</time>
      </trkpt>
      <trkpt lat="43.17572" lon="1.05813">
        <ele>310.6</ele>
        <time>2024-08-12T06:51:40Z</time>
      </trkpt>
      <trkpt lat="43.1758" lon="1.05813">
        <ele>310.2</ele>
        <time>2024-08-12T06:51:41Z</time>
      </trkpt>
      <trkpt lat="43.17586" lon="1.05812">
        <ele>309.8</ele>
        <time>2024-08-12T06:51:42Z</time>
      </trkpt>
      <trkpt lat="43.17593" lon="1.05812">
        <ele>309.2</ele>
        <time>2024-08-12T06:51:43Z</time>
      </trkpt>
      <trkpt lat="43.17614" lon="1.05813">
        <ele>309.2</ele>
        <time>2024-08-12T06:51:46Z</time>
      </trkpt>
      <trkpt lat="43.17626" lon="1.05809">
        <ele>309.2</ele>
        <time>2024-08-12T06:51:48Z</time>
      </trkpt>
      <trkpt lat="43.17642" lon="1.058">
        <ele>309.2</ele>
        <time>2024-08-12T06:51:51Z</time>
      </trkpt>
      <trkpt lat="43.1765" lon="1.0579">
        <ele>309.2</ele>
        <time>2024-08-12T06:51:53Z</time>
      </trkpt>
      <trkpt lat="43.17655" lon="1.05779">
        <ele>309.2</ele>
        <time>2024-08-12T06:51:55Z</time>
      </trkpt>
      <trkpt lat="43.17662" lon="1.05764">
        <ele>309.2</ele>
        <time>2024-08-12T06:51:58Z</time>
      </trkpt>
      <trkpt lat="43.17669" lon="1.0575">
        <ele>309.2</ele>
        <time>2024-08-12T06:52:01Z</time>
      </trkpt>
      <trkpt lat="43.17676" lon="1.05738">
        <ele>309.2</ele>
        <time>2024-08-12T06:52:04Z</time>
      </trkpt>
      <trkpt lat="43.17684" lon="1.05726">
        <ele>309.8</ele>
        <time>2024-08-12T06:52:07Z</time>
      </trkpt>
      <trkpt lat="43.17686" lon="1.05722">
        <ele>310.2</ele>
        <time>2024-08-12T06:52:08Z</time>
      </trkpt>
      <trkpt lat="43.17689" lon="1.05718">
        <ele>310.6</ele>
        <time>2024-08-12T06:52:09Z</time>
      </trkpt>
      <trkpt lat="43.17691" lon="1.05715">
        <ele>311</ele>
        <time>2024-08-12T06:52:10Z</time>
      </trkpt>
      <trkpt lat="43.17694" lon="1.05712">
        <ele>311.4</ele>
        <time>2024-08-12T06:52:11Z</time>
      </trkpt>
      <trkpt lat="43.17697" lon="1.05709">
        <ele>311.8</ele>
        <time>2024-08-12T06:52:12Z</time>
      </trkpt>
      <trkpt lat="43.177" lon="1.05706">
        <ele>312.4</ele>
        <time>2024-08-12T06:52:13Z</time>
      </trkpt>
      <trkpt lat="43.17703" lon="1.05704">
        <ele>312.8</ele>
        <time>2024-08-12T06:52:14Z</time>
      </trkpt>
      <trkpt lat="43.17705" lon="1.05702">
        <ele>313.8</ele>
        <time>2024-08-12T06:52:15Z</time>
      </trkpt>
      <trkpt lat="43.17708" lon="1.057">
        <ele>314.2</ele>
        <time>2024-08-12T06:52:16Z</time>
      </trkpt>
      <trkpt lat="43.1771" lon="1.05697">
        <ele>314.6</ele>
        <time>2024-08-12T06:52:17Z</time>
      </trkpt>
      <trkpt lat="43.17712" lon="1.05695">
        <ele>315</ele>
        <time>2024-08-12T06:52:18Z</time>
      </trkpt>
      <trkpt lat="43.17715" lon="1.05692">
        <ele>315.6</ele>
        <time>2024-08-12T06:52:19Z</time>
      </trkpt>
      <trkpt lat="43.17717" lon="1.0569">
        <ele>316</ele>
        <time>2024-08-12T06:52:20Z</time>
      </trkpt>
      <trkpt lat="43.17721" lon="1.05685">
        <ele>316.4</ele>
        <time>2024-08-12T06:52:22Z</time>
      </trkpt>
      <trkpt lat="43.17723" lon="1.05682">
        <ele>316.8</ele>
        <time>2024-08-12T06:52:23Z</time>
      </trkpt>
      <trkpt lat="43.17724" lon="1.0568">
        <ele>317.2</ele>
        <time>2024-08-12T06:52:24Z</time>
      </trkpt>
      <trkpt lat="43.17726" lon="1.05678">
        <ele>317.6</ele>
        <time>2024-08-12T06:52:25Z</time>
      </trkpt>
      <trkpt lat="43.17728" lon="1.05676">
        <ele>318.2</ele>
        <time>2024-08-12T06:52:26Z</time>
      </trkpt>
      <trkpt lat="43.1773" lon="1.05674">
        <ele>318.2</ele>
        <time>2024-08-12T06:52:27Z</time>
      </trkpt>
      <trkpt lat="43.17732" lon="1.05672">
        <ele>318.6</ele>
        <time>2024-08-12T06:52:28Z</time>
      </trkpt>
      <trkpt lat="43.17733" lon="1.05669">
        <ele>319</ele>
        <time>2024-08-12T06:52:29Z</time>
      </trkpt>
      <trkpt lat="43.17733" lon="1.05666">
        <ele>319.4</ele>
        <time>2024-08-12T06:52:30Z</time>
      </trkpt>
      <trkpt lat="43.17733" lon="1.05663">
        <ele>319.8</ele>
        <time>2024-08-12T06:52:31Z</time>
      </trkpt>
      <trkpt lat="43.17735" lon="1.05661">
        <ele>320.4</ele>
        <time>2024-08-12T06:52:32Z</time>
      </trkpt>
      <trkpt lat="43.17736" lon="1.05659">
        <ele>320.8</ele>
        <time>2024-08-12T06:52:33Z</time>
      </trkpt>
      <trkpt lat="43.17737" lon="1.05657">
        <ele>321.2</ele>
        <time>2024-08-12T06:52:34Z</time>
      </trkpt>
      <trkpt lat="43.17739" lon="1.05654">
        <ele>321.8</ele>
        <time>2024-08-12T06:52:35Z</time>
      </trkpt>
      <trkpt lat="43.1774" lon="1.05652">
        <ele>322.2</ele>
        <time>2024-08-12T06:52:36Z</time>
      </trkpt>
      <trkpt lat="43.17741" lon="1.05649">
        <ele>322.8</ele>
        <time>2024-08-12T06:52:37Z</time>
      </trkpt>
      <trkpt lat="43.17741" lon="1.05646">
        <ele>323.2</ele>
        <time>2024-08-12T06:52:38Z</time>
      </trkpt>
      <trkpt lat="43.17742" lon="1.05643">
        <ele>324.2</ele>
        <time>2024-08-12T06:52:39Z</time>
      </trkpt>
      <trkpt lat="43.17742" lon="1.0564">
        <ele>324.8</ele>
        <time>2024-08-12T06:52:40Z</time>
      </trkpt>
      <trkpt lat="43.17743" lon="1.05638">
        <ele>325.2</ele>
        <time>2024-08-12T06:52:41Z</time>
      </trkpt>
      <trkpt lat="43.17744" lon="1.05635">
        <ele>325.8</ele>
        <time>2024-08-12T06:52:42Z</time>
      </trkpt>
      <trkpt lat="43.17745" lon="1.05632">
        <ele>326.2</ele>
        <time>2024-08-12T06:52:43Z</time>
      </trkpt>
      <trkpt lat="43.17746" lon="1.05629">
        <ele>326.6</ele>
        <time>2024-08-12T06:52:44Z</time>
      </trkpt>
      <trkpt lat="43.17747" lon="1.05626">
        <ele>327.2</ele>
        <time>2024-08-12T06:52:45Z</time>
      </trkpt>
      <trkpt lat="43.17749" lon="1.0562">
        <ele>327.6</ele>
        <time>2024-08-12T06:52:47Z</time>
      </trkpt>
      <trkpt lat="43.17749" lon="1.05617">
        <ele>328</ele>
        <time>2024-08-12T06:52:48Z</time>
      </trkpt>
      <trkpt lat="43.1775" lon="1.05613">
        <ele>328.4</ele>
        <time>2024-08-12T06:52:49Z</time>
      </trkpt>
      <trkpt lat="43.17751" lon="1.0561">
        <ele>329</ele>
        <time>2024-08-12T06:52:50Z</time>
      </trkpt>
      <trkpt lat="43.17753" lon="1.05607">
        <ele>329.4</ele>
        <time>2024-08-12T06:52:51Z</time>
      </trkpt>
      <trkpt lat="43.17756" lon="1.05603">
        <ele>329.8</ele>
        <time>2024-08-12T06:52:53Z</time>
      </trkpt>
      <trkpt lat="43.17758" lon="1.056">
        <ele>330.2</ele>
        <time>2024-08-12T06:52:54Z</time>
      </trkpt>
      <trkpt lat="43.1776" lon="1.05597">
        <ele>330.6</ele>
        <time>2024-08-12T06:52:55Z</time>
      </trkpt>
      <trkpt lat="43.17761" lon="1.05595">
        <ele>331.2</ele>
        <time>2024-08-12T06:52:56Z</time>
      </trkpt>
      <trkpt lat="43.17763" lon="1.05592">
        <ele>331.6</ele>
        <time>2024-08-12T06:52:57Z</time>
      </trkpt>
      <trkpt lat="43.17765" lon="1.05586">
        <ele>332</ele>
        <time>2024-08-12T06:52:59Z</time>
      </trkpt>
      <trkpt lat="43.17767" lon="1.05583">
        <ele>332.4</ele>
        <time>2024-08-12T06:53:00Z</time>
      </trkpt>
      <trkpt lat="43.17769" lon="1.05581">
        <ele>332.8</ele>
        <time>2024-08-12T06:53:01Z</time>
      </trkpt>
      <trkpt lat="43.1777" lon="1.05578">
        <ele>333.2</ele>
        <time>2024-08-12T06:53:02Z</time>
      </trkpt>
      <trkpt lat="43.17772" lon="1.05575">
        <ele>333.6</ele>
        <time>2024-08-12T06:53:03Z</time>
      </trkpt>
      <trkpt lat="43.17775" lon="1.05568">
        <ele>333.6</ele>
        <time>2024-08-12T06:53:05Z</time>
      </trkpt>
      <trkpt lat="43.17783" lon="1.05549">
        <ele>333.6</ele>
        <time>2024-08-12T06:53:11Z</time>
      </trkpt>
      <trkpt lat="43.17792" lon="1.05533">
        <ele>333.6</ele>
        <time>2024-08-12T06:53:15Z</time>
      </trkpt>
      <trkpt lat="43.17807" lon="1.05506">
        <ele>333.6</ele>
        <time>2024-08-12T06:53:20Z</time>
      </trkpt>
      <trkpt lat="43.1781" lon="1.05501">
        <ele>333.6</ele>
        <time>2024-08-12T06:53:21Z</time>
      </trkpt>
      <trkpt lat="43.1782" lon="1.05487">
        <ele>333.6</ele>
        <time>2024-08-12T06:53:24Z</time>
      </trkpt>
      <trkpt lat="43.17823" lon="1.05477">
        <ele>333.6</ele>
        <time>2024-08-12T06:53:26Z</time>
      </trkpt>
      <trkpt lat="43.17827" lon="1.05465">
        <ele>334</ele>
        <time>2024-08-12T06:53:29Z</time>
      </trkpt>
      <trkpt lat="43.17828" lon="1.05461">
        <ele>334.4</ele>
        <time>2024-08-12T06:53:30Z</time>
      </trkpt>
      <trkpt lat="43.17829" lon="1.05457">
        <ele>335</ele>
        <time>2024-08-12T06:53:31Z</time>
      </trkpt>
      <trkpt lat="43.1783" lon="1.05452">
        <ele>335.4</ele>
        <time>2024-08-12T06:53:32Z</time>
      </trkpt>
      <trkpt lat="43.17831" lon="1.05448">
        <ele>335.8</ele>
        <time>2024-08-12T06:53:33Z</time>
      </trkpt>
      <trkpt lat="43.17839" lon="1.05428">
        <ele>335.8</ele>
        <time>2024-08-12T06:53:38Z</time>
      </trkpt>
      <trkpt lat="43.17842" lon="1.05418">
        <ele>336.2</ele>
        <time>2024-08-12T06:53:41Z</time>
      </trkpt>
      <trkpt lat="43.17843" lon="1.05414">
        <ele>336.6</ele>
        <time>2024-08-12T06:53:42Z</time>
      </trkpt>
      <trkpt lat="43.17844" lon="1.05411">
        <ele>337.2</ele>
        <time>2024-08-12T06:53:43Z</time>
      </trkpt>
      <trkpt lat="43.17844" lon="1.05407">
        <ele>337.6</ele>
        <time>2024-08-12T06:53:44Z</time>
      </trkpt>
      <trkpt lat="43.17846" lon="1.05404">
        <ele>338</ele>
        <time>2024-08-12T06:53:45Z</time>
      </trkpt>
      <trkpt lat="43.17849" lon="1.05395">
        <ele>338.4</ele>
        <time>2024-08-12T06:53:48Z</time>
      </trkpt>
      <trkpt lat="43.1785" lon="1.05392">
        <ele>338.8</ele>
        <time>2024-08-12T06:53:49Z</time>
      </trkpt>
      <trkpt lat="43.17851" lon="1.05389">
        <ele>339.2</ele>
        <time>2024-08-12T06:53:50Z</time>
      </trkpt>
      <trkpt lat="43.17853" lon="1.05387">
        <ele>339.6</ele>
        <time>2024-08-12T06:53:51Z</time>
      </trkpt>
      <trkpt lat="43.17854" lon="1.05384">
        <ele>340</ele>
        <time>2024-08-12T06:53:52Z</time>
      </trkpt>
      <trkpt lat="43.17857" lon="1.05379">
        <ele>340.8</ele>
        <time>2024-08-12T06:53:54Z</time>
      </trkpt>
      <trkpt lat="43.17859" lon="1.05376">
        <ele>341.2</ele>
        <time>2024-08-12T06:53:55Z</time>
      </trkpt>
      <trkpt lat="43.1786" lon="1.05373">
        <ele>341.6</ele>
        <time>2024-08-12T06:53:56Z</time>
      </trkpt>
      <trkpt lat="43.17861" lon="1.05369">
        <ele>342.2</ele>
        <time>2024-08-12T06:53:57Z</time>
      </trkpt>
      <trkpt lat="43.17863" lon="1.05358">
        <ele>342.2</ele>
        <time>2024-08-12T06:54:00Z</time>
      </trkpt>
      <trkpt lat="43.17865" lon="1.05346">
        <ele>342.6</ele>
        <time>2024-08-12T06:54:03Z</time>
      </trkpt>
      <trkpt lat="43.17866" lon="1.05343">
        <ele>343</ele>
        <time>2024-08-12T06:54:04Z</time>
      </trkpt>
      <trkpt lat="43.17867" lon="1.05339">
        <ele>343.4</ele>
        <time>2024-08-12T06:54:05Z</time>
      </trkpt>
      <trkpt lat="43.17867" lon="1.05336">
        <ele>343.8</ele>
        <time>2024-08-12T06:54:06Z</time>
      </trkpt>
      <trkpt lat="43.17868" lon="1.05333">
        <ele>344.2</ele>
        <time>2024-08-12T06:54:07Z</time>
      </trkpt>
      <trkpt lat="43.17869" lon="1.05328">
        <ele>344.6</ele>
        <time>2024-08-12T06:54:09Z</time>
      </trkpt>
      <trkpt lat="43.17869" lon="1.05326">
        <ele>345</ele>
        <time>2024-08-12T06:54:10Z</time>
      </trkpt>
      <trkpt lat="43.1787" lon="1.05323">
        <ele>345.4</ele>
        <time>2024-08-12T06:54:11Z</time>
      </trkpt>
      <trkpt lat="43.17871" lon="1.0532">
        <ele>345.8</ele>
        <time>2024-08-12T06:54:12Z</time>
      </trkpt>
      <trkpt lat="43.17872" lon="1.05317">
        <ele>346.2</ele>
        <time>2024-08-12T06:54:13Z</time>
      </trkpt>
      <trkpt lat="43.17873" lon="1.05312">
        <ele>346.6</ele>
        <time>2024-08-12T06:54:15Z</time>
      </trkpt>
      <trkpt lat="43.17873" lon="1.0531">
        <ele>347.2</ele>
        <time>2024-08-12T06:54:16Z</time>
      </trkpt>
      <trkpt lat="43.17873" lon="1.05307">
        <ele>347.6</ele>
        <time>2024-08-12T06:54:17Z</time>
      </trkpt>
      <trkpt lat="43.17873" lon="1.05304">
        <ele>348</ele>
        <time>2024-08-12T06:54:18Z</time>
      </trkpt>
      <trkpt lat="43.17874" lon="1.05301">
        <ele>348.6</ele>
        <time>2024-08-12T06:54:19Z</time>
      </trkpt>
      <trkpt lat="43.17875" lon="1.05298">
        <ele>349</ele>
        <time>2024-08-12T06:54:20Z</time>
      </trkpt>
      <trkpt lat="43.17876" lon="1.05296">
        <ele>349.4</ele>
        <time>2024-08-12T06:54:21Z</time>
      </trkpt>
      <trkpt lat="43.17877" lon="1.05293">
        <ele>349.8</ele>
        <time>2024-08-12T06:54:22Z</time>
      </trkpt>
      <trkpt lat="43.17878" lon="1.0529">
        <ele>350.2</ele>
        <time>2024-08-12T06:54:23Z</time>
      </trkpt>
      <trkpt lat="43.17879" lon="1.05287">
        <ele>350.8</ele>
        <time>2024-08-12T06:54:24Z</time>
      </trkpt>
      <trkpt lat="43.1788" lon="1.05282">
        <ele>351.2</ele>
        <time>2024-08-12T06:54:26Z</time>
      </trkpt>
      <trkpt lat="43.17881" lon="1.0528">
        <ele>351.6</ele>
        <time>2024-08-12T06:54:27Z</time>
      </trkpt>
      <trkpt lat="43.17881" lon="1.05277">
        <ele>352</ele>
        <time>2024-08-12T06:54:28Z</time>
      </trkpt>
      <trkpt lat="43.17882" lon="1.05274">
        <ele>352.4</ele>
        <time>2024-08-12T06:54:29Z</time>
      </trkpt>
      <trkpt lat="43.17883" lon="1.05271">
        <ele>352.8</ele>
        <time>2024-08-12T06:54:30Z</time>
      </trkpt>
      <trkpt lat="43.1789" lon="1.05263">
        <ele>352.8</ele>
        <time>2024-08-12T06:54:33Z</time>
      </trkpt>
      <trkpt lat="43.17899" lon="1.05253">
        <ele>352.4</ele>
        <time>2024-08-12T06:54:35Z</time>
      </trkpt>
      <trkpt lat="43.17906" lon="1.05247">
        <ele>352</ele>
        <time>2024-08-12T06:54:36Z</time>
      </trkpt>
      <trkpt lat="43.17914" lon="1.05241">
        <ele>351</ele>
        <time>2024-08-12T06:54:37Z</time>
      </trkpt>
      <trkpt lat="43.17921" lon="1.05237">
        <ele>350.2</ele>
        <time>2024-08-12T06:54:38Z</time>
      </trkpt>
      <trkpt lat="43.17929" lon="1.05234">
        <ele>349.4</ele>
        <time>2024-08-12T06:54:39Z</time>
      </trkpt>
      <trkpt lat="43.17938" lon="1.05231">
        <ele>348.6</ele>
        <time>2024-08-12T06:54:40Z</time>
      </trkpt>
      <trkpt lat="43.17946" lon="1.05228">
        <ele>347.8</ele>
        <time>2024-08-12T06:54:41Z</time>
      </trkpt>
      <trkpt lat="43.17953" lon="1.05225">
        <ele>347</ele>
        <time>2024-08-12T06:54:42Z</time>
      </trkpt>
      <trkpt lat="43.1796" lon="1.05222">
        <ele>345.2</ele>
        <time>2024-08-12T06:54:43Z</time>
      </trkpt>
      <trkpt lat="43.17967" lon="1.05218">
        <ele>344.2</ele>
        <time>2024-08-12T06:54:44Z</time>
      </trkpt>
      <trkpt lat="43.17974" lon="1.05213">
        <ele>343.2</ele>
        <time>2024-08-12T06:54:45Z</time>
      </trkpt>
      <trkpt lat="43.17981" lon="1.05208">
        <ele>342</ele>
        <time>2024-08-12T06:54:46Z</time>
      </trkpt>
      <trkpt lat="43.17988" lon="1.05204">
        <ele>341</ele>
        <time>2024-08-12T06:54:47Z</time>
      </trkpt>
      <trkpt lat="43.17995" lon="1.05204">
        <ele>340</ele>
        <time>2024-08-12T06:54:48Z</time>
      </trkpt>
      <trkpt lat="43.18003" lon="1.05203">
        <ele>338.8</ele>
        <time>2024-08-12T06:54:49Z</time>
      </trkpt>
      <trkpt lat="43.18011" lon="1.05203">
        <ele>337.8</ele>
        <time>2024-08-12T06:54:50Z</time>
      </trkpt>
      <trkpt lat="43.18019" lon="1.052">
        <ele>337.4</ele>
        <time>2024-08-12T06:54:51Z</time>
      </trkpt>
      <trkpt lat="43.18025" lon="1.05195">
        <ele>337</ele>
        <time>2024-08-12T06:54:52Z</time>
      </trkpt>
      <trkpt lat="43.18031" lon="1.05189">
        <ele>336.6</ele>
        <time>2024-08-12T06:54:53Z</time>
      </trkpt>
      <trkpt lat="43.18035" lon="1.0518">
        <ele>336</ele>
        <time>2024-08-12T06:54:54Z</time>
      </trkpt>
      <trkpt lat="43.18037" lon="1.05173">
        <ele>335.6</ele>
        <time>2024-08-12T06:54:55Z</time>
      </trkpt>
      <trkpt lat="43.1804" lon="1.05165">
        <ele>335.6</ele>
        <time>2024-08-12T06:54:56Z</time>
      </trkpt>
      <trkpt lat="43.18043" lon="1.05157">
        <ele>335.6</ele>
        <time>2024-08-12T06:54:57Z</time>
      </trkpt>
      <trkpt lat="43.18047" lon="1.0515">
        <ele>335.6</ele>
        <time>2024-08-12T06:54:58Z</time>
      </trkpt>
      <trkpt lat="43.18054" lon="1.05147">
        <ele>335.2</ele>
        <time>2024-08-12T06:54:59Z</time>
      </trkpt>
      <trkpt lat="43.18061" lon="1.05147">
        <ele>334.8</ele>
        <time>2024-08-12T06:55:00Z</time>
      </trkpt>
      <trkpt lat="43.18068" lon="1.05147">
        <ele>334.2</ele>
        <time>2024-08-12T06:55:01Z</time>
      </trkpt>
      <trkpt lat="43.18074" lon="1.05148">
        <ele>333.8</ele>
        <time>2024-08-12T06:55:02Z</time>
      </trkpt>
      <trkpt lat="43.1808" lon="1.05148">
        <ele>333.4</ele>
        <time>2024-08-12T06:55:03Z</time>
      </trkpt>
      <trkpt lat="43.18096" lon="1.05143">
        <ele>333.4</ele>
        <time>2024-08-12T06:55:06Z</time>
      </trkpt>
      <trkpt lat="43.18118" lon="1.05142">
        <ele>333.4</ele>
        <time>2024-08-12T06:55:10Z</time>
      </trkpt>
      <trkpt lat="43.18123" lon="1.0514">
        <ele>333.4</ele>
        <time>2024-08-12T06:55:11Z</time>
      </trkpt>
      <trkpt lat="43.18133" lon="1.05134">
        <ele>333.4</ele>
        <time>2024-08-12T06:55:13Z</time>
      </trkpt>
      <trkpt lat="43.18138" lon="1.0513">
        <ele>333</ele>
        <time>2024-08-12T06:55:14Z</time>
      </trkpt>
      <trkpt lat="43.18143" lon="1.05125">
        <ele>332.6</ele>
        <time>2024-08-12T06:55:15Z</time>
      </trkpt>
      <trkpt lat="43.18148" lon="1.05121">
        <ele>332.2</ele>
        <time>2024-08-12T06:55:16Z</time>
      </trkpt>
      <trkpt lat="43.18154" lon="1.05118">
        <ele>331.8</ele>
        <time>2024-08-12T06:55:17Z</time>
      </trkpt>
      <trkpt lat="43.1816" lon="1.05116">
        <ele>331.4</ele>
        <time>2024-08-12T06:55:18Z</time>
      </trkpt>
      <trkpt lat="43.18171" lon="1.05112">
        <ele>331.4</ele>
        <time>2024-08-12T06:55:20Z</time>
      </trkpt>
      <trkpt lat="43.18177" lon="1.05111">
        <ele>331.4</ele>
        <time>2024-08-12T06:55:21Z</time>
      </trkpt>
      <trkpt lat="43.18194" lon="1.05107">
        <ele>331</ele>
        <time>2024-08-12T06:55:24Z</time>
      </trkpt>
      <trkpt lat="43.18199" lon="1.05106">
        <ele>330.4</ele>
        <time>2024-08-12T06:55:25Z</time>
      </trkpt>
      <trkpt lat="43.18204" lon="1.05104">
        <ele>330</ele>
        <time>2024-08-12T06:55:26Z</time>
      </trkpt>
      <trkpt lat="43.18209" lon="1.05101">
        <ele>329.6</ele>
        <time>2024-08-12T06:55:27Z</time>
      </trkpt>
      <trkpt lat="43.18213" lon="1.05096">
        <ele>329.2</ele>
        <time>2024-08-12T06:55:28Z</time>
      </trkpt>
      <trkpt lat="43.18216" lon="1.0509">
        <ele>329.2</ele>
        <time>2024-08-12T06:55:29Z</time>
      </trkpt>
      <trkpt lat="43.18219" lon="1.05083">
        <ele>328.8</ele>
        <time>2024-08-12T06:55:30Z</time>
      </trkpt>
      <trkpt lat="43.18221" lon="1.0508">
        <ele>328.4</ele>
        <time>2024-08-12T06:55:31Z</time>
      </trkpt>
      <trkpt lat="43.18221" lon="1.05077">
        <ele>327.4</ele>
        <time>2024-08-12T06:55:32Z</time>
      </trkpt>
      <trkpt lat="43.18221" lon="1.05076">
        <ele>327</ele>
        <time>2024-08-12T06:55:33Z</time>
      </trkpt>
      <trkpt lat="43.18226" lon="1.05078">
        <ele>327</ele>
        <time>2024-08-12T06:55:36Z</time>
      </trkpt>
      <trkpt lat="43.18228" lon="1.05081">
        <ele>327</ele>
        <time>2024-08-12T06:55:37Z</time>
      </trkpt>
      <trkpt lat="43.1823" lon="1.05083">
        <ele>326.6</ele>
        <time>2024-08-12T06:55:38Z</time>
      </trkpt>
      <trkpt lat="43.18231" lon="1.05085">
        <ele>326</ele>
        <time>2024-08-12T06:55:39Z</time>
      </trkpt>
      <trkpt lat="43.18234" lon="1.05087">
        <ele>325.6</ele>
        <time>2024-08-12T06:55:40Z</time>
      </trkpt>
      <trkpt lat="43.18236" lon="1.0509">
        <ele>325</ele>
        <time>2024-08-12T06:55:41Z</time>
      </trkpt>
      <trkpt lat="43.1824" lon="1.05093">
        <ele>324.2</ele>
        <time>2024-08-12T06:55:42Z</time>
      </trkpt>
      <trkpt lat="43.18241" lon="1.05096">
        <ele>323.6</ele>
        <time>2024-08-12T06:55:43Z</time>
      </trkpt>
      <trkpt lat="43.18242" lon="1.05099">
        <ele>322.8</ele>
        <time>2024-08-12T06:55:44Z</time>
      </trkpt>
      <trkpt lat="43.18243" lon="1.05103">
        <ele>322.2</ele>
        <time>2024-08-12T06:55:45Z</time>
      </trkpt>
      <trkpt lat="43.18245" lon="1.05107">
        <ele>321.4</ele>
        <time>2024-08-12T06:55:46Z</time>
      </trkpt>
      <trkpt lat="43.18247" lon="1.05111">
        <ele>320.6</ele>
        <time>2024-08-12T06:55:47Z</time>
      </trkpt>
      <trkpt lat="43.18247" lon="1.05117">
        <ele>319.6</ele>
        <time>2024-08-12T06:55:48Z</time>
      </trkpt>
      <trkpt lat="43.18248" lon="1.05124">
        <ele>318.8</ele>
        <time>2024-08-12T06:55:49Z</time>
      </trkpt>
      <trkpt lat="43.18249" lon="1.05131">
        <ele>317.8</ele>
        <time>2024-08-12T06:55:50Z</time>
      </trkpt>
      <trkpt lat="43.1825" lon="1.05138">
        <ele>316.8</ele>
        <time>2024-08-12T06:55:51Z</time>
      </trkpt>
      <trkpt lat="43.18251" lon="1.05144">
        <ele>315.8</ele>
        <time>2024-08-12T06:55:52Z</time>
      </trkpt>
      <trkpt lat="43.18252" lon="1.0515">
        <ele>314.8</ele>
        <time>2024-08-12T06:55:53Z</time>
      </trkpt>
      <trkpt lat="43.18252" lon="1.05156">
        <ele>313.8</ele>
        <time>2024-08-12T06:55:54Z</time>
      </trkpt>
      <trkpt lat="43.18253" lon="1.0516">
        <ele>312.8</ele>
        <time>2024-08-12T06:55:55Z</time>
      </trkpt>
      <trkpt lat="43.18254" lon="1.05165">
        <ele>311.8</ele>
        <time>2024-08-12T06:55:56Z</time>
      </trkpt>
      <trkpt lat="43.18255" lon="1.05173">
        <ele>309.8</ele>
        <time>2024-08-12T06:55:57Z</time>
      </trkpt>
      <trkpt lat="43.18256" lon="1.05179">
        <ele>308.6</ele>
        <time>2024-08-12T06:55:58Z</time>
      </trkpt>
      <trkpt lat="43.18258" lon="1.05186">
        <ele>307.6</ele>
        <time>2024-08-12T06:55:59Z</time>
      </trkpt>
      <trkpt lat="43.18259" lon="1.05193">
        <ele>306.6</ele>
        <time>2024-08-12T06:56:00Z</time>
      </trkpt>
      <trkpt lat="43.1826" lon="1.05199">
        <ele>305.6</ele>
        <time>2024-08-12T06:56:01Z</time>
      </trkpt>
      <trkpt lat="43.1826" lon="1.05205">
        <ele>304.4</ele>
        <time>2024-08-12T06:56:02Z</time>
      </trkpt>
      <trkpt lat="43.18259" lon="1.0521">
        <ele>303.2</ele>
        <time>2024-08-12T06:56:03Z</time>
      </trkpt>
      <trkpt lat="43.18259" lon="1.05216">
        <ele>302.2</ele>
        <time>2024-08-12T06:56:04Z</time>
      </trkpt>
      <trkpt lat="43.18259" lon="1.05221">
        <ele>301</ele>
        <time>2024-08-12T06:56:05Z</time>
      </trkpt>
      <trkpt lat="43.1826" lon="1.05226">
        <ele>300</ele>
        <time>2024-08-12T06:56:06Z</time>
      </trkpt>
      <trkpt lat="43.18261" lon="1.0523">
        <ele>299.2</ele>
        <time>2024-08-12T06:56:07Z</time>
      </trkpt>
      <trkpt lat="43.1826" lon="1.05236">
        <ele>298.2</ele>
        <time>2024-08-12T06:56:08Z</time>
      </trkpt>
      <trkpt lat="43.18258" lon="1.05243">
        <ele>297.4</ele>
        <time>2024-08-12T06:56:09Z</time>
      </trkpt>
      <trkpt lat="43.18258" lon="1.0525">
        <ele>296.6</ele>
        <time>2024-08-12T06:56:10Z</time>
      </trkpt>
      <trkpt lat="43.18258" lon="1.05257">
        <ele>295.8</ele>
        <time>2024-08-12T06:56:11Z</time>
      </trkpt>
      <trkpt lat="43.18262" lon="1.05263">
        <ele>294.8</ele>
        <time>2024-08-12T06:56:12Z</time>
      </trkpt>
      <trkpt lat="43.18266" lon="1.05268">
        <ele>294</ele>
        <time>2024-08-12T06:56:13Z</time>
      </trkpt>
      <trkpt lat="43.1827" lon="1.05271">
        <ele>293</ele>
        <time>2024-08-12T06:56:14Z</time>
      </trkpt>
      <trkpt lat="43.18275" lon="1.05274">
        <ele>292.2</ele>
        <time>2024-08-12T06:56:15Z</time>
      </trkpt>
      <trkpt lat="43.1828" lon="1.05274">
        <ele>291.4</ele>
        <time>2024-08-12T06:56:16Z</time>
      </trkpt>
      <trkpt lat="43.18284" lon="1.05276">
        <ele>290.6</ele>
        <time>2024-08-12T06:56:17Z</time>
      </trkpt>
      <trkpt lat="43.18286" lon="1.05276">
        <ele>289.8</ele>
        <time>2024-08-12T06:56:18Z</time>
      </trkpt>
      <trkpt lat="43.18289" lon="1.05279">
        <ele>289</ele>
        <time>2024-08-12T06:56:19Z</time>
      </trkpt>
      <trkpt lat="43.18292" lon="1.05281">
        <ele>288.2</ele>
        <time>2024-08-12T06:56:20Z</time>
      </trkpt>
      <trkpt lat="43.18301" lon="1.0529">
        <ele>288.2</ele>
        <time>2024-08-12T06:56:24Z</time>
      </trkpt>
      <trkpt lat="43.18315" lon="1.05302">
        <ele>288.2</ele>
        <time>2024-08-12T06:56:30Z</time>
      </trkpt>
      <trkpt lat="43.1832" lon="1.05306">
        <ele>288.6</ele>
        <time>2024-08-12T06:56:32Z</time>
      </trkpt>
      <trkpt lat="43.18323" lon="1.05309">
        <ele>289.2</ele>
        <time>2024-08-12T06:56:33Z</time>
      </trkpt>
      <trkpt lat="43.18326" lon="1.05311">
        <ele>289.6</ele>
        <time>2024-08-12T06:56:34Z</time>
      </trkpt>
      <trkpt lat="43.18329" lon="1.05313">
        <ele>290</ele>
        <time>2024-08-12T06:56:35Z</time>
      </trkpt>
      <trkpt lat="43.18331" lon="1.05315">
        <ele>290.4</ele>
        <time>2024-08-12T06:56:36Z</time>
      </trkpt>
      <trkpt lat="43.1834" lon="1.05326">
        <ele>290.4</ele>
        <time>2024-08-12T06:56:40Z</time>
      </trkpt>
      <trkpt lat="43.18351" lon="1.0535">
        <ele>290.4</ele>
        <time>2024-08-12T06:56:47Z</time>
      </trkpt>
      <trkpt lat="43.18354" lon="1.05372">
        <ele>290.4</ele>
        <time>2024-08-12T06:56:52Z</time>
      </trkpt>
      <trkpt lat="43.18361" lon="1.05394">
        <ele>290.4</ele>
        <time>2024-08-12T06:56:57Z</time>
      </trkpt>
      <trkpt lat="43.18372" lon="1.05417">
        <ele>290.4</ele>
        <time>2024-08-12T06:57:03Z</time>
      </trkpt>
      <trkpt lat="43.1839" lon="1.05438">
        <ele>290.4</ele>
        <time>2024-08-12T06:57:09Z</time>
      </trkpt>
      <trkpt lat="43.18404" lon="1.05454">
        <ele>290.4</ele>
        <time>2024-08-12T06:57:14Z</time>
      </trkpt>
      <trkpt lat="43.18428" lon="1.05478">
        <ele>290.4</ele>
        <time>2024-08-12T06:57:21Z</time>
      </trkpt>
      <trkpt lat="43.18431" lon="1.05479">
        <ele>290.4</ele>
        <time>2024-08-12T06:57:22Z</time>
      </trkpt>
      <trkpt lat="43.18436" lon="1.05477">
        <ele>290.4</ele>
        <time>2024-08-12T06:57:24Z</time>
      </trkpt>
      <trkpt lat="43.18452" lon="1.0547">
        <ele>290.8</ele>
        <time>2024-08-12T06:57:30Z</time>
      </trkpt>
      <trkpt lat="43.18455" lon="1.0547">
        <ele>291.4</ele>
        <time>2024-08-12T06:57:31Z</time>
      </trkpt>
      <trkpt lat="43.18458" lon="1.0547">
        <ele>291.8</ele>
        <time>2024-08-12T06:57:32Z</time>
      </trkpt>
      <trkpt lat="43.1846" lon="1.0547">
        <ele>292.2</ele>
        <time>2024-08-12T06:57:33Z</time>
      </trkpt>
      <trkpt lat="43.18463" lon="1.0547">
        <ele>292.6</ele>
        <time>2024-08-12T06:57:34Z</time>
      </trkpt>
      <trkpt lat="43.18465" lon="1.05469">
        <ele>292.6</ele>
        <time>2024-08-12T06:57:35Z</time>
      </trkpt>
      <trkpt lat="43.18471" lon="1.05469">
        <ele>293</ele>
        <time>2024-08-12T06:57:37Z</time>
      </trkpt>
      <trkpt lat="43.18473" lon="1.05468">
        <ele>293.4</ele>
        <time>2024-08-12T06:57:38Z</time>
      </trkpt>
      <trkpt lat="43.18476" lon="1.05468">
        <ele>294</ele>
        <time>2024-08-12T06:57:39Z</time>
      </trkpt>
      <trkpt lat="43.18478" lon="1.05468">
        <ele>294.4</ele>
        <time>2024-08-12T06:57:40Z</time>
      </trkpt>
      <trkpt lat="43.18481" lon="1.05467">
        <ele>294.8</ele>
        <time>2024-08-12T06:57:41Z</time>
      </trkpt>
      <trkpt lat="43.18486" lon="1.05467">
        <ele>294.8</ele>
        <time>2024-08-12T06:57:43Z</time>
      </trkpt>
      <trkpt lat="43.1849" lon="1.05466">
        <ele>295.2</ele>
        <time>2024-08-12T06:57:45Z</time>
      </trkpt>
      <trkpt lat="43.18493" lon="1.05464">
        <ele>295.6</ele>
        <time>2024-08-12T06:57:46Z</time>
      </trkpt>
      <trkpt lat="43.18495" lon="1.05463">
        <ele>296.2</ele>
        <time>2024-08-12T06:57:47Z</time>
      </trkpt>
      <trkpt lat="43.18498" lon="1.05462">
        <ele>296.6</ele>
        <time>2024-08-12T06:57:48Z</time>
      </trkpt>
      <trkpt lat="43.185" lon="1.05461">
        <ele>297</ele>
        <time>2024-08-12T06:57:49Z</time>
      </trkpt>
      <trkpt lat="43.18505" lon="1.05459">
        <ele>297.4</ele>
        <time>2024-08-12T06:57:51Z</time>
      </trkpt>
      <trkpt lat="43.18508" lon="1.05457">
        <ele>298</ele>
        <time>2024-08-12T06:57:52Z</time>
      </trkpt>
      <trkpt lat="43.1851" lon="1.05456">
        <ele>298.4</ele>
        <time>2024-08-12T06:57:53Z</time>
      </trkpt>
      <trkpt lat="43.18513" lon="1.05455">
        <ele>298.8</ele>
        <time>2024-08-12T06:57:54Z</time>
      </trkpt>
      <trkpt lat="43.18515" lon="1.05453">
        <ele>299.2</ele>
        <time>2024-08-12T06:57:55Z</time>
      </trkpt>
      <trkpt lat="43.18517" lon="1.05452">
        <ele>299.2</ele>
        <time>2024-08-12T06:57:56Z</time>
      </trkpt>
      <trkpt lat="43.18519" lon="1.05451">
        <ele>299.6</ele>
        <time>2024-08-12T06:57:57Z</time>
      </trkpt>
      <trkpt lat="43.18522" lon="1.0545">
        <ele>300</ele>
        <time>2024-08-12T06:57:58Z</time>
      </trkpt>
      <trkpt lat="43.18524" lon="1.05449">
        <ele>300.6</ele>
        <time>2024-08-12T06:57:59Z</time>
      </trkpt>
      <trkpt lat="43.18526" lon="1.05448">
        <ele>301</ele>
        <time>2024-08-12T06:58:00Z</time>
      </trkpt>
      <trkpt lat="43.18529" lon="1.05447">
        <ele>301.4</ele>
        <time>2024-08-12T06:58:01Z</time>
      </trkpt>
      <trkpt lat="43.18531" lon="1.05445">
        <ele>301.8</ele>
        <time>2024-08-12T06:58:02Z</time>
      </trkpt>
      <trkpt lat="43.18534" lon="1.05444">
        <ele>302.2</ele>
        <time>2024-08-12T06:58:03Z</time>
      </trkpt>
      <trkpt lat="43.18536" lon="1.05443">
        <ele>302.8</ele>
        <time>2024-08-12T06:58:04Z</time>
      </trkpt>
      <trkpt lat="43.18539" lon="1.05442">
        <ele>303.2</ele>
        <time>2024-08-12T06:58:05Z</time>
      </trkpt>
      <trkpt lat="43.18541" lon="1.05441">
        <ele>303.6</ele>
        <time>2024-08-12T06:58:06Z</time>
      </trkpt>
      <trkpt lat="43.18548" lon="1.05437">
        <ele>304.2</ele>
        <time>2024-08-12T06:58:09Z</time>
      </trkpt>
      <trkpt lat="43.18551" lon="1.05435">
        <ele>304.6</ele>
        <time>2024-08-12T06:58:10Z</time>
      </trkpt>
      <trkpt lat="43.18553" lon="1.05434">
        <ele>305</ele>
        <time>2024-08-12T06:58:11Z</time>
      </trkpt>
      <trkpt lat="43.18555" lon="1.05433">
        <ele>305.6</ele>
        <time>2024-08-12T06:58:12Z</time>
      </trkpt>
      <trkpt lat="43.18557" lon="1.05432">
        <ele>306</ele>
        <time>2024-08-12T06:58:13Z</time>
      </trkpt>
      <trkpt lat="43.18562" lon="1.05431">
        <ele>306</ele>
        <time>2024-08-12T06:58:15Z</time>
      </trkpt>
      <trkpt lat="43.18565" lon="1.0543">
        <ele>306.4</ele>
        <time>2024-08-12T06:58:16Z</time>
      </trkpt>
      <trkpt lat="43.18567" lon="1.05429">
        <ele>306.8</ele>
        <time>2024-08-12T06:58:17Z</time>
      </trkpt>
      <trkpt lat="43.1857" lon="1.05429">
        <ele>307.2</ele>
        <time>2024-08-12T06:58:18Z</time>
      </trkpt>
      <trkpt lat="43.18572" lon="1.05429">
        <ele>307.6</ele>
        <time>2024-08-12T06:58:19Z</time>
      </trkpt>
      <trkpt lat="43.18575" lon="1.0543">
        <ele>308.2</ele>
        <time>2024-08-12T06:58:20Z</time>
      </trkpt>
      <trkpt lat="43.18577" lon="1.0543">
        <ele>308.2</ele>
        <time>2024-08-12T06:58:21Z</time>
      </trkpt>
      <trkpt lat="43.1858" lon="1.0543">
        <ele>308.2</ele>
        <time>2024-08-12T06:58:22Z</time>
      </trkpt>
      <trkpt lat="43.18582" lon="1.05424">
        <ele>308.2</ele>
        <time>2024-08-12T06:58:24Z</time>
      </trkpt>
      <trkpt lat="43.18581" lon="1.05418">
        <ele>308.6</ele>
        <time>2024-08-12T06:58:26Z</time>
      </trkpt>
      <trkpt lat="43.1858" lon="1.05415">
        <ele>309</ele>
        <time>2024-08-12T06:58:27Z</time>
      </trkpt>
      <trkpt lat="43.18579" lon="1.05411">
        <ele>309.4</ele>
        <time>2024-08-12T06:58:28Z</time>
      </trkpt>
      <trkpt lat="43.18577" lon="1.05408">
        <ele>309.8</ele>
        <time>2024-08-12T06:58:29Z</time>
      </trkpt>
      <trkpt lat="43.18576" lon="1.05405">
        <ele>310.2</ele>
        <time>2024-08-12T06:58:30Z</time>
      </trkpt>
      <trkpt lat="43.1857" lon="1.05391">
        <ele>310.2</ele>
        <time>2024-08-12T06:58:34Z</time>
      </trkpt>
      <trkpt lat="43.18565" lon="1.05366">
        <ele>310.2</ele>
        <time>2024-08-12T06:58:40Z</time>
      </trkpt>
      <trkpt lat="43.18554" lon="1.05344">
        <ele>310.2</ele>
        <time>2024-08-12T06:58:46Z</time>
      </trkpt>
      <trkpt lat="43.18549" lon="1.05338">
        <ele>310.6</ele>
        <time>2024-08-12T06:58:48Z</time>
      </trkpt>
      <trkpt lat="43.18546" lon="1.05335">
        <ele>311</ele>
        <time>2024-08-12T06:58:49Z</time>
      </trkpt>
      <trkpt lat="43.18544" lon="1.05332">
        <ele>311.8</ele>
        <time>2024-08-12T06:58:50Z</time>
      </trkpt>
      <trkpt lat="43.18542" lon="1.05329">
        <ele>312.2</ele>
        <time>2024-08-12T06:58:51Z</time>
      </trkpt>
      <trkpt lat="43.1854" lon="1.05327">
        <ele>312.2</ele>
        <time>2024-08-12T06:58:52Z</time>
      </trkpt>
      <trkpt lat="43.18531" lon="1.05317">
        <ele>312.6</ele>
        <time>2024-08-12T06:58:56Z</time>
      </trkpt>
      <trkpt lat="43.1853" lon="1.05314">
        <ele>313</ele>
        <time>2024-08-12T06:58:57Z</time>
      </trkpt>
      <trkpt lat="43.18528" lon="1.05312">
        <ele>313.4</ele>
        <time>2024-08-12T06:58:58Z</time>
      </trkpt>
      <trkpt lat="43.18527" lon="1.0531">
        <ele>313.8</ele>
        <time>2024-08-12T06:58:59Z</time>
      </trkpt>
      <trkpt lat="43.18525" lon="1.05309">
        <ele>314.2</ele>
        <time>2024-08-12T06:59:00Z</time>
      </trkpt>
      <trkpt lat="43.18523" lon="1.05305">
        <ele>314.8</ele>
        <time>2024-08-12T06:59:02Z</time>
      </trkpt>
      <trkpt lat="43.18522" lon="1.05303">
        <ele>315.2</ele>
        <time>2024-08-12T06:59:03Z</time>
      </trkpt>
      <trkpt lat="43.18521" lon="1.05302">
        <ele>315.6</ele>
        <time>2024-08-12T06:59:04Z</time>
      </trkpt>
      <trkpt lat="43.18519" lon="1.053">
        <ele>316</ele>
        <time>2024-08-12T06:59:05Z</time>
      </trkpt>
      <trkpt lat="43.18517" lon="1.05298">
        <ele>316.4</ele>
        <time>2024-08-12T06:59:06Z</time>
      </trkpt>
      <trkpt lat="43.18516" lon="1.05296">
        <ele>317</ele>
        <time>2024-08-12T06:59:07Z</time>
      </trkpt>
      <trkpt lat="43.18514" lon="1.05295">
        <ele>317.4</ele>
        <time>2024-08-12T06:59:08Z</time>
      </trkpt>
      <trkpt lat="43.18512" lon="1.05293">
        <ele>317.8</ele>
        <time>2024-08-12T06:59:09Z</time>
      </trkpt>
      <trkpt lat="43.1851" lon="1.05291">
        <ele>318.2</ele>
        <time>2024-08-12T06:59:10Z</time>
      </trkpt>
      <trkpt lat="43.18509" lon="1.0529">
        <ele>318.6</ele>
        <time>2024-08-12T06:59:11Z</time>
      </trkpt>
      <trkpt lat="43.18507" lon="1.05289">
        <ele>319</ele>
        <time>2024-08-12T06:59:12Z</time>
      </trkpt>
      <trkpt lat="43.18505" lon="1.05288">
        <ele>319.4</ele>
        <time>2024-08-12T06:59:13Z</time>
      </trkpt>
      <trkpt lat="43.18503" lon="1.05286">
        <ele>319.8</ele>
        <time>2024-08-12T06:59:14Z</time>
      </trkpt>
      <trkpt lat="43.18501" lon="1.05285">
        <ele>320.6</ele>
        <time>2024-08-12T06:59:15Z</time>
      </trkpt>
      <trkpt lat="43.18499" lon="1.05283">
        <ele>320.6</ele>
        <time>2024-08-12T06:59:16Z</time>
      </trkpt>
      <trkpt lat="43.18493" lon="1.05277">
        <ele>321.2</ele>
        <time>2024-08-12T06:59:19Z</time>
      </trkpt>
      <trkpt lat="43.18492" lon="1.05274">
        <ele>321.6</ele>
        <time>2024-08-12T06:59:20Z</time>
      </trkpt>
      <trkpt lat="43.1849" lon="1.05272">
        <ele>322</ele>
        <time>2024-08-12T06:59:21Z</time>
      </trkpt>
      <trkpt lat="43.18488" lon="1.0527">
        <ele>322.4</ele>
        <time>2024-08-12T06:59:22Z</time>
      </trkpt>
      <trkpt lat="43.18486" lon="1.05268">
        <ele>323</ele>
        <time>2024-08-12T06:59:23Z</time>
      </trkpt>
      <trkpt lat="43.18474" lon="1.0526">
        <ele>323.4</ele>
        <time>2024-08-12T06:59:28Z</time>
      </trkpt>
      <trkpt lat="43.18471" lon="1.05259">
        <ele>323.8</ele>
        <time>2024-08-12T06:59:29Z</time>
      </trkpt>
      <trkpt lat="43.18467" lon="1.05258">
        <ele>324.2</ele>
        <time>2024-08-12T06:59:30Z</time>
      </trkpt>
      <trkpt lat="43.18464" lon="1.05257">
        <ele>324.6</ele>
        <time>2024-08-12T06:59:31Z</time>
      </trkpt>
      <trkpt lat="43.18461" lon="1.05256">
        <ele>325.2</ele>
        <time>2024-08-12T06:59:32Z</time>
      </trkpt>
      <trkpt lat="43.18443" lon="1.05251">
        <ele>325.2</ele>
        <time>2024-08-12T06:59:38Z</time>
      </trkpt>
      <trkpt lat="43.1843" lon="1.05247">
        <ele>325.6</ele>
        <time>2024-08-12T06:59:43Z</time>
      </trkpt>
      <trkpt lat="43.18428" lon="1.05246">
        <ele>326</ele>
        <time>2024-08-12T06:59:44Z</time>
      </trkpt>
      <trkpt lat="43.18425" lon="1.05245">
        <ele>326.4</ele>
        <time>2024-08-12T06:59:45Z</time>
      </trkpt>
      <trkpt lat="43.18423" lon="1.05244">
        <ele>326.8</ele>
        <time>2024-08-12T06:59:46Z</time>
      </trkpt>
      <trkpt lat="43.18421" lon="1.05242">
        <ele>327.4</ele>
        <time>2024-08-12T06:59:47Z</time>
      </trkpt>
      <trkpt lat="43.18418" lon="1.05236">
        <ele>327.4</ele>
        <time>2024-08-12T06:59:49Z</time>
      </trkpt>
      <trkpt lat="43.18411" lon="1.05211">
        <ele>327.4</ele>
        <time>2024-08-12T06:59:55Z</time>
      </trkpt>
      <trkpt lat="43.18409" lon="1.05184">
        <ele>327.4</ele>
        <time>2024-08-12T07:00:01Z</time>
      </trkpt>
      <trkpt lat="43.18416" lon="1.05169">
        <ele>327.8</ele>
        <time>2024-08-12T07:00:05Z</time>
      </trkpt>
      <trkpt lat="43.18417" lon="1.05166">
        <ele>328.2</ele>
        <time>2024-08-12T07:00:06Z</time>
      </trkpt>
      <trkpt lat="43.18419" lon="1.05162">
        <ele>328.6</ele>
        <time>2024-08-12T07:00:07Z</time>
      </trkpt>
      <trkpt lat="43.18421" lon="1.05159">
        <ele>329</ele>
        <time>2024-08-12T07:00:08Z</time>
      </trkpt>
      <trkpt lat="43.18422" lon="1.05156">
        <ele>329.4</ele>
        <time>2024-08-12T07:00:09Z</time>
      </trkpt>
      <trkpt lat="43.18424" lon="1.05153">
        <ele>329.4</ele>
        <time>2024-08-12T07:00:10Z</time>
      </trkpt>
      <trkpt lat="43.18431" lon="1.05136">
        <ele>329.4</ele>
        <time>2024-08-12T07:00:15Z</time>
      </trkpt>
      <trkpt lat="43.18435" lon="1.05116">
        <ele>329.8</ele>
        <time>2024-08-12T07:00:20Z</time>
      </trkpt>
      <trkpt lat="43.18436" lon="1.05112">
        <ele>330.2</ele>
        <time>2024-08-12T07:00:21Z</time>
      </trkpt>
      <trkpt lat="43.18436" lon="1.05107">
        <ele>330.6</ele>
        <time>2024-08-12T07:00:22Z</time>
      </trkpt>
      <trkpt lat="43.18436" lon="1.05102">
        <ele>331</ele>
        <time>2024-08-12T07:00:23Z</time>
      </trkpt>
      <trkpt lat="43.18437" lon="1.05098">
        <ele>331.6</ele>
        <time>2024-08-12T07:00:24Z</time>
      </trkpt>
      <trkpt lat="43.18436" lon="1.05084">
        <ele>331.6</ele>
        <time>2024-08-12T07:00:27Z</time>
      </trkpt>
      <trkpt lat="43.18442" lon="1.05066">
        <ele>331.6</ele>
        <time>2024-08-12T07:00:32Z</time>
      </trkpt>
      <trkpt lat="43.18453" lon="1.05044">
        <ele>332</ele>
        <time>2024-08-12T07:00:38Z</time>
      </trkpt>
      <trkpt lat="43.18455" lon="1.0504">
        <ele>332.4</ele>
        <time>2024-08-12T07:00:39Z</time>
      </trkpt>
      <trkpt lat="43.18456" lon="1.05036">
        <ele>332.8</ele>
        <time>2024-08-12T07:00:40Z</time>
      </trkpt>
      <trkpt lat="43.18458" lon="1.05032">
        <ele>333.2</ele>
        <time>2024-08-12T07:00:41Z</time>
      </trkpt>
      <trkpt lat="43.18459" lon="1.05027">
        <ele>333.6</ele>
        <time>2024-08-12T07:00:42Z</time>
      </trkpt>
      <trkpt lat="43.18464" lon="1.05014">
        <ele>333.6</ele>
        <time>2024-08-12T07:00:45Z</time>
      </trkpt>
      <trkpt lat="43.18466" lon="1.05004">
        <ele>334.2</ele>
        <time>2024-08-12T07:00:47Z</time>
      </trkpt>
      <trkpt lat="43.18468" lon="1.05">
        <ele>334.6</ele>
        <time>2024-08-12T07:00:48Z</time>
      </trkpt>
      <trkpt lat="43.18468" lon="1.04995">
        <ele>335</ele>
        <time>2024-08-12T07:00:49Z</time>
      </trkpt>
      <trkpt lat="43.18469" lon="1.04991">
        <ele>335.4</ele>
        <time>2024-08-12T07:00:50Z</time>
      </trkpt>
      <trkpt lat="43.18471" lon="1.04987">
        <ele>336</ele>
        <time>2024-08-12T07:00:51Z</time>
      </trkpt>
      <trkpt lat="43.18472" lon="1.04983">
        <ele>336.4</ele>
        <time>2024-08-12T07:00:52Z</time>
      </trkpt>
      <trkpt lat="43.18473" lon="1.04979">
        <ele>336.8</ele>
        <time>2024-08-12T07:00:53Z</time>
      </trkpt>
      <trkpt lat="43.18474" lon="1.04976">
        <ele>337.4</ele>
        <time>2024-08-12T07:00:54Z</time>
      </trkpt>
      <trkpt lat="43.18474" lon="1.04972">
        <ele>337.8</ele>
        <time>2024-08-12T07:00:55Z</time>
      </trkpt>
      <trkpt lat="43.18474" lon="1.04969">
        <ele>338.4</ele>
        <time>2024-08-12T07:00:56Z</time>
      </trkpt>
      <trkpt lat="43.18475" lon="1.04964">
        <ele>338.8</ele>
        <time>2024-08-12T07:00:57Z</time>
      </trkpt>
      <trkpt lat="43.18475" lon="1.0496">
        <ele>339.2</ele>
        <time>2024-08-12T07:00:58Z</time>
      </trkpt>
      <trkpt lat="43.18475" lon="1.04957">
        <ele>339.6</ele>
        <time>2024-08-12T07:00:59Z</time>
      </trkpt>
      <trkpt lat="43.18476" lon="1.04953">
        <ele>340</ele>
        <time>2024-08-12T07:01:00Z</time>
      </trkpt>
      <trkpt lat="43.18477" lon="1.04945">
        <ele>340.4</ele>
        <time>2024-08-12T07:01:02Z</time>
      </trkpt>
      <trkpt lat="43.18477" lon="1.04942">
        <ele>341</ele>
        <time>2024-08-12T07:01:03Z</time>
      </trkpt>
      <trkpt lat="43.18478" lon="1.04938">
        <ele>341.4</ele>
        <time>2024-08-12T07:01:04Z</time>
      </trkpt>
      <trkpt lat="43.18478" lon="1.04934">
        <ele>341.8</ele>
        <time>2024-08-12T07:01:05Z</time>
      </trkpt>
      <trkpt lat="43.18478" lon="1.0493">
        <ele>342.2</ele>
        <time>2024-08-12T07:01:06Z</time>
      </trkpt>
      <trkpt lat="43.18479" lon="1.04924">
        <ele>342.6</ele>
        <time>2024-08-12T07:01:08Z</time>
      </trkpt>
      <trkpt lat="43.18479" lon="1.0492">
        <ele>343</ele>
        <time>2024-08-12T07:01:09Z</time>
      </trkpt>
      <trkpt lat="43.1848" lon="1.04917">
        <ele>343.4</ele>
        <time>2024-08-12T07:01:10Z</time>
      </trkpt>
      <trkpt lat="43.1848" lon="1.04914">
        <ele>344</ele>
        <time>2024-08-12T07:01:11Z</time>
      </trkpt>
      <trkpt lat="43.1848" lon="1.0491">
        <ele>344.4</ele>
        <time>2024-08-12T07:01:12Z</time>
      </trkpt>
      <trkpt lat="43.18482" lon="1.04901">
        <ele>344.8</ele>
        <time>2024-08-12T07:01:15Z</time>
      </trkpt>
      <trkpt lat="43.18483" lon="1.04897">
        <ele>345.2</ele>
        <time>2024-08-12T07:01:16Z</time>
      </trkpt>
      <trkpt lat="43.18484" lon="1.04895">
        <ele>345.6</ele>
        <time>2024-08-12T07:01:17Z</time>
      </trkpt>
      <trkpt lat="43.18485" lon="1.04892">
        <ele>346</ele>
        <time>2024-08-12T07:01:18Z</time>
      </trkpt>
      <trkpt lat="43.18485" lon="1.04888">
        <ele>346.6</ele>
        <time>2024-08-12T07:01:19Z</time>
      </trkpt>
      <trkpt lat="43.18486" lon="1.04882">
        <ele>346.6</ele>
        <time>2024-08-12T07:01:21Z</time>
      </trkpt>
      <trkpt lat="43.18487" lon="1.04879">
        <ele>346.6</ele>
        <time>2024-08-12T07:01:22Z</time>
      </trkpt>
      <trkpt lat="43.18488" lon="1.04873">
        <ele>347</ele>
        <time>2024-08-12T07:01:24Z</time>
      </trkpt>
      <trkpt lat="43.18489" lon="1.0487">
        <ele>347.4</ele>
        <time>2024-08-12T07:01:25Z</time>
      </trkpt>
      <trkpt lat="43.18489" lon="1.04867">
        <ele>347.8</ele>
        <time>2024-08-12T07:01:26Z</time>
      </trkpt>
      <trkpt lat="43.18489" lon="1.04864">
        <ele>348.2</ele>
        <time>2024-08-12T07:01:27Z</time>
      </trkpt>
      <trkpt lat="43.18488" lon="1.0486">
        <ele>348.8</ele>
        <time>2024-08-12T07:01:28Z</time>
      </trkpt>
      <trkpt lat="43.18488" lon="1.04852">
        <ele>348.8</ele>
        <time>2024-08-12T07:01:30Z</time>
      </trkpt>
      <trkpt lat="43.1849" lon="1.04827">
        <ele>348.8</ele>
        <time>2024-08-12T07:01:36Z</time>
      </trkpt>
      <trkpt lat="43.18491" lon="1.04815">
        <ele>349.2</ele>
        <time>2024-08-12T07:01:39Z</time>
      </trkpt>
      <trkpt lat="43.18492" lon="1.04811">
        <ele>349.6</ele>
        <time>2024-08-12T07:01:40Z</time>
      </trkpt>
      <trkpt lat="43.18493" lon="1.04806">
        <ele>350</ele>
        <time>2024-08-12T07:01:41Z</time>
      </trkpt>
      <trkpt lat="43.18493" lon="1.04802">
        <ele>350.4</ele>
        <time>2024-08-12T07:01:42Z</time>
      </trkpt>
      <trkpt lat="43.18494" lon="1.04798">
        <ele>350.8</ele>
        <time>2024-08-12T07:01:43Z</time>
      </trkpt>
      <trkpt lat="43.18499" lon="1.0477">
        <ele>350.8</ele>
        <time>2024-08-12T07:01:49Z</time>
      </trkpt>
      <trkpt lat="43.18505" lon="1.04736">
        <ele>350.8</ele>
        <time>2024-08-12T07:01:56Z</time>
      </trkpt>
      <trkpt lat="43.1851" lon="1.04709">
        <ele>350.8</ele>
        <time>2024-08-12T07:02:02Z</time>
      </trkpt>
      <trkpt lat="43.1851" lon="1.04679">
        <ele>350.8</ele>
        <time>2024-08-12T07:02:08Z</time>
      </trkpt>
      <trkpt lat="43.18508" lon="1.04668">
        <ele>350.8</ele>
        <time>2024-08-12T07:02:10Z</time>
      </trkpt>
      <trkpt lat="43.18508" lon="1.04648">
        <ele>350.8</ele>
        <time>2024-08-12T07:02:13Z</time>
      </trkpt>
      <trkpt lat="43.18511" lon="1.04616">
        <ele>350.8</ele>
        <time>2024-08-12T07:02:19Z</time>
      </trkpt>
      <trkpt lat="43.18513" lon="1.04614">
        <ele>350.8</ele>
        <time>2024-08-12T07:02:20Z</time>
      </trkpt>
      <trkpt lat="43.18517" lon="1.04617">
        <ele>350.8</ele>
        <time>2024-08-12T07:02:22Z</time>
      </trkpt>
      <trkpt lat="43.18523" lon="1.04622">
        <ele>350.8</ele>
        <time>2024-08-12T07:02:26Z</time>
      </trkpt>
      <trkpt lat="43.18524" lon="1.04624">
        <ele>350.8</ele>
        <time>2024-08-12T07:02:27Z</time>
      </trkpt>
      <trkpt lat="43.18528" lon="1.04633">
        <ele>351.2</ele>
        <time>2024-08-12T07:02:31Z</time>
      </trkpt>
      <trkpt lat="43.1853" lon="1.04635">
        <ele>351.8</ele>
        <time>2024-08-12T07:02:32Z</time>
      </trkpt>
      <trkpt lat="43.18531" lon="1.04637">
        <ele>352.2</ele>
        <time>2024-08-12T07:02:33Z</time>
      </trkpt>
      <trkpt lat="43.18532" lon="1.0464">
        <ele>353</ele>
        <time>2024-08-12T07:02:34Z</time>
      </trkpt>
      <trkpt lat="43.18531" lon="1.04649">
        <ele>353.4</ele>
        <time>2024-08-12T07:02:37Z</time>
      </trkpt>
      <trkpt lat="43.18531" lon="1.04652">
        <ele>353.8</ele>
        <time>2024-08-12T07:02:38Z</time>
      </trkpt>
      <trkpt lat="43.18531" lon="1.04655">
        <ele>354.2</ele>
        <time>2024-08-12T07:02:39Z</time>
      </trkpt>
      <trkpt lat="43.1853" lon="1.04658">
        <ele>354.6</ele>
        <time>2024-08-12T07:02:40Z</time>
      </trkpt>
      <trkpt lat="43.1853" lon="1.04661">
        <ele>355</ele>
        <time>2024-08-12T07:02:41Z</time>
      </trkpt>
      <trkpt lat="43.18531" lon="1.04673">
        <ele>355</ele>
        <time>2024-08-12T07:02:45Z</time>
      </trkpt>
      <trkpt lat="43.18532" lon="1.04682">
        <ele>355.4</ele>
        <time>2024-08-12T07:02:48Z</time>
      </trkpt>
      <trkpt lat="43.18532" lon="1.04684">
        <ele>356</ele>
        <time>2024-08-12T07:02:49Z</time>
      </trkpt>
      <trkpt lat="43.18534" lon="1.04684">
        <ele>356.4</ele>
        <time>2024-08-12T07:02:50Z</time>
      </trkpt>
      <trkpt lat="43.18535" lon="1.04683">
        <ele>356.8</ele>
        <time>2024-08-12T07:02:51Z</time>
      </trkpt>
      <trkpt lat="43.18535" lon="1.04681">
        <ele>357.2</ele>
        <time>2024-08-12T07:02:52Z</time>
      </trkpt>
      <trkpt lat="43.18538" lon="1.04677">
        <ele>357.2</ele>
        <time>2024-08-12T07:02:55Z</time>
      </trkpt>
      <trkpt lat="43.18542" lon="1.04673">
        <ele>357.6</ele>
        <time>2024-08-12T07:02:57Z</time>
      </trkpt>
      <trkpt lat="43.18543" lon="1.04672">
        <ele>358.6</ele>
        <time>2024-08-12T07:02:58Z</time>
      </trkpt>
      <trkpt lat="43.18545" lon="1.0467">
        <ele>359</ele>
        <time>2024-08-12T07:02:59Z</time>
      </trkpt>
      <trkpt lat="43.18546" lon="1.04668">
        <ele>359.4</ele>
        <time>2024-08-12T07:03:00Z</time>
      </trkpt>
      <trkpt lat="43.18547" lon="1.04666">
        <ele>359.4</ele>
        <time>2024-08-12T07:03:01Z</time>
      </trkpt>
      <trkpt lat="43.18552" lon="1.04658">
        <ele>359.8</ele>
        <time>2024-08-12T07:03:04Z</time>
      </trkpt>
      <trkpt lat="43.18553" lon="1.04655">
        <ele>360.2</ele>
        <time>2024-08-12T07:03:05Z</time>
      </trkpt>
      <trkpt lat="43.18555" lon="1.04653">
        <ele>360.6</ele>
        <time>2024-08-12T07:03:06Z</time>
      </trkpt>
      <trkpt lat="43.18556" lon="1.04651">
        <ele>361</ele>
        <time>2024-08-12T07:03:07Z</time>
      </trkpt>
      <trkpt lat="43.18557" lon="1.04649">
        <ele>361.4</ele>
        <time>2024-08-12T07:03:08Z</time>
      </trkpt>
      <trkpt lat="43.18562" lon="1.04643">
        <ele>362</ele>
        <time>2024-08-12T07:03:11Z</time>
      </trkpt>
      <trkpt lat="43.18564" lon="1.0464">
        <ele>362.4</ele>
        <time>2024-08-12T07:03:12Z</time>
      </trkpt>
      <trkpt lat="43.18565" lon="1.04638">
        <ele>362.8</ele>
        <time>2024-08-12T07:03:13Z</time>
      </trkpt>
      <trkpt lat="43.18565" lon="1.04636">
        <ele>363.2</ele>
        <time>2024-08-12T07:03:14Z</time>
      </trkpt>
      <trkpt lat="43.18566" lon="1.04634">
        <ele>363.6</ele>
        <time>2024-08-12T07:03:15Z</time>
      </trkpt>
      <trkpt lat="43.18568" lon="1.04629">
        <ele>363.6</ele>
        <time>2024-08-12T07:03:17Z</time>
      </trkpt>
      <trkpt lat="43.18572" lon="1.04621">
        <ele>364</ele>
        <time>2024-08-12T07:03:20Z</time>
      </trkpt>
      <trkpt lat="43.18572" lon="1.0462">
        <ele>364.6</ele>
        <time>2024-08-12T07:03:21Z</time>
      </trkpt>
      <trkpt lat="43.18573" lon="1.04617">
        <ele>365</ele>
        <time>2024-08-12T07:03:22Z</time>
      </trkpt>
      <trkpt lat="43.18574" lon="1.04614">
        <ele>365.8</ele>
        <time>2024-08-12T07:03:23Z</time>
      </trkpt>
      <trkpt lat="43.1858" lon="1.04604">
        <ele>366.2</ele>
        <time>2024-08-12T07:03:27Z</time>
      </trkpt>
      <trkpt lat="43.18582" lon="1.04602">
        <ele>366.6</ele>
        <time>2024-08-12T07:03:28Z</time>
      </trkpt>
      <trkpt lat="43.18584" lon="1.046">
        <ele>367</ele>
        <time>2024-08-12T07:03:29Z</time>
      </trkpt>
      <trkpt lat="43.18585" lon="1.04598">
        <ele>367.6</ele>
        <time>2024-08-12T07:03:30Z</time>
      </trkpt>
      <trkpt lat="43.18585" lon="1.04594">
        <ele>368</ele>
        <time>2024-08-12T07:03:31Z</time>
      </trkpt>
      <trkpt lat="43.18584" lon="1.04588">
        <ele>368</ele>
        <time>2024-08-12T07:03:33Z</time>
      </trkpt>
      <trkpt lat="43.1858" lon="1.04577">
        <ele>368</ele>
        <time>2024-08-12T07:03:38Z</time>
      </trkpt>
      <trkpt lat="43.18583" lon="1.04583">
        <ele>368</ele>
        <time>2024-08-12T07:03:41Z</time>
      </trkpt>
      <trkpt lat="43.18592" lon="1.04583">
        <ele>368</ele>
        <time>2024-08-12T07:03:44Z</time>
      </trkpt>
      <trkpt lat="43.18604" lon="1.04579">
        <ele>368</ele>
        <time>2024-08-12T07:03:48Z</time>
      </trkpt>
      <trkpt lat="43.18606" lon="1.04572">
        <ele>368</ele>
        <time>2024-08-12T07:03:51Z</time>
      </trkpt>
      <trkpt lat="43.18606" lon="1.04568">
        <ele>368</ele>
        <time>2024-08-12T07:03:52Z</time>
      </trkpt>
      <trkpt lat="43.18608" lon="1.04564">
        <ele>368</ele>
        <time>2024-08-12T07:03:53Z</time>
      </trkpt>
      <trkpt lat="43.18609" lon="1.04557">
        <ele>368</ele>
        <time>2024-08-12T07:03:55Z</time>
      </trkpt>
      <trkpt lat="43.18613" lon="1.04535">
        <ele>368</ele>
        <time>2024-08-12T07:04:00Z</time>
      </trkpt>
      <trkpt lat="43.18619" lon="1.04506">
        <ele>368</ele>
        <time>2024-08-12T07:04:06Z</time>
      </trkpt>
      <trkpt lat="43.18621" lon="1.04493">
        <ele>368</ele>
        <time>2024-08-12T07:04:08Z</time>
      </trkpt>
      <trkpt lat="43.18622" lon="1.04484">
        <ele>368</ele>
        <time>2024-08-12T07:04:10Z</time>
      </trkpt>
      <trkpt lat="43.18624" lon="1.0446">
        <ele>367.4</ele>
        <time>2024-08-12T07:04:14Z</time>
      </trkpt>
      <trkpt lat="43.18625" lon="1.04454">
        <ele>367</ele>
        <time>2024-08-12T07:04:15Z</time>
      </trkpt>
      <trkpt lat="43.18625" lon="1.04448">
        <ele>366.6</ele>
        <time>2024-08-12T07:04:16Z</time>
      </trkpt>
      <trkpt lat="43.18625" lon="1.04443">
        <ele>366</ele>
        <time>2024-08-12T07:04:17Z</time>
      </trkpt>
      <trkpt lat="43.18624" lon="1.04439">
        <ele>365.6</ele>
        <time>2024-08-12T07:04:18Z</time>
      </trkpt>
      <trkpt lat="43.18625" lon="1.04436">
        <ele>365.6</ele>
        <time>2024-08-12T07:04:19Z</time>
      </trkpt>
      <trkpt lat="43.18629" lon="1.04419">
        <ele>365.6</ele>
        <time>2024-08-12T07:04:23Z</time>
      </trkpt>
      <trkpt lat="43.18636" lon="1.0442">
        <ele>365</ele>
        <time>2024-08-12T07:04:26Z</time>
      </trkpt>
      <trkpt lat="43.18641" lon="1.04422">
        <ele>364.6</ele>
        <time>2024-08-12T07:04:27Z</time>
      </trkpt>
      <trkpt lat="43.18645" lon="1.04422">
        <ele>364</ele>
        <time>2024-08-12T07:04:28Z</time>
      </trkpt>
      <trkpt lat="43.18649" lon="1.04422">
        <ele>363.2</ele>
        <time>2024-08-12T07:04:29Z</time>
      </trkpt>
      <trkpt lat="43.18652" lon="1.04424">
        <ele>362.4</ele>
        <time>2024-08-12T07:04:30Z</time>
      </trkpt>
      <trkpt lat="43.18656" lon="1.04427">
        <ele>361.6</ele>
        <time>2024-08-12T07:04:31Z</time>
      </trkpt>
      <trkpt lat="43.18659" lon="1.04429">
        <ele>360.8</ele>
        <time>2024-08-12T07:04:32Z</time>
      </trkpt>
      <trkpt lat="43.18663" lon="1.04429">
        <ele>360</ele>
        <time>2024-08-12T07:04:33Z</time>
      </trkpt>
      <trkpt lat="43.18665" lon="1.04427">
        <ele>359.2</ele>
        <time>2024-08-12T07:04:34Z</time>
      </trkpt>
      <trkpt lat="43.18667" lon="1.04423">
        <ele>358.6</ele>
        <time>2024-08-12T07:04:35Z</time>
      </trkpt>
      <trkpt lat="43.18669" lon="1.04416">
        <ele>357.8</ele>
        <time>2024-08-12T07:04:36Z</time>
      </trkpt>
      <trkpt lat="43.1867" lon="1.0441">
        <ele>356.8</ele>
        <time>2024-08-12T07:04:37Z</time>
      </trkpt>
      <trkpt lat="43.1867" lon="1.04403">
        <ele>356.4</ele>
        <time>2024-08-12T07:04:38Z</time>
      </trkpt>
      <trkpt lat="43.18671" lon="1.04395">
        <ele>356</ele>
        <time>2024-08-12T07:04:39Z</time>
      </trkpt>
      <trkpt lat="43.18671" lon="1.04389">
        <ele>355.4</ele>
        <time>2024-08-12T07:04:40Z</time>
      </trkpt>
      <trkpt lat="43.18672" lon="1.04382">
        <ele>355</ele>
        <time>2024-08-12T07:04:41Z</time>
      </trkpt>
      <trkpt lat="43.18672" lon="1.04375">
        <ele>354.4</ele>
        <time>2024-08-12T07:04:42Z</time>
      </trkpt>
      <trkpt lat="43.18673" lon="1.04367">
        <ele>354</ele>
        <time>2024-08-12T07:04:43Z</time>
      </trkpt>
      <trkpt lat="43.18674" lon="1.04359">
        <ele>353.4</ele>
        <time>2024-08-12T07:04:44Z</time>
      </trkpt>
      <trkpt lat="43.18674" lon="1.0435">
        <ele>353</ele>
        <time>2024-08-12T07:04:45Z</time>
      </trkpt>
      <trkpt lat="43.18674" lon="1.04344">
        <ele>352.6</ele>
        <time>2024-08-12T07:04:46Z</time>
      </trkpt>
      <trkpt lat="43.18675" lon="1.04337">
        <ele>352</ele>
        <time>2024-08-12T07:04:47Z</time>
      </trkpt>
      <trkpt lat="43.18677" lon="1.04331">
        <ele>351.6</ele>
        <time>2024-08-12T07:04:48Z</time>
      </trkpt>
      <trkpt lat="43.1868" lon="1.04326">
        <ele>351.2</ele>
        <time>2024-08-12T07:04:49Z</time>
      </trkpt>
      <trkpt lat="43.18683" lon="1.0432">
        <ele>350.6</ele>
        <time>2024-08-12T07:04:50Z</time>
      </trkpt>
      <trkpt lat="43.18684" lon="1.04313">
        <ele>350.2</ele>
        <time>2024-08-12T07:04:51Z</time>
      </trkpt>
      <trkpt lat="43.18685" lon="1.04306">
        <ele>349.8</ele>
        <time>2024-08-12T07:04:52Z</time>
      </trkpt>
      <trkpt lat="43.18686" lon="1.04298">
        <ele>349</ele>
        <time>2024-08-12T07:04:53Z</time>
      </trkpt>
      <trkpt lat="43.18687" lon="1.0429">
        <ele>348.4</ele>
        <time>2024-08-12T07:04:54Z</time>
      </trkpt>
      <trkpt lat="43.18688" lon="1.04281">
        <ele>347.6</ele>
        <time>2024-08-12T07:04:55Z</time>
      </trkpt>
      <trkpt lat="43.18688" lon="1.04274">
        <ele>346.8</ele>
        <time>2024-08-12T07:04:56Z</time>
      </trkpt>
      <trkpt lat="43.18688" lon="1.04269">
        <ele>346</ele>
        <time>2024-08-12T07:04:57Z</time>
      </trkpt>
      <trkpt lat="43.18687" lon="1.04266">
        <ele>345.2</ele>
        <time>2024-08-12T07:04:58Z</time>
      </trkpt>
      <trkpt lat="43.18689" lon="1.04262">
        <ele>344.4</ele>
        <time>2024-08-12T07:04:59Z</time>
      </trkpt>
      <trkpt lat="43.18692" lon="1.0426">
        <ele>343.8</ele>
        <time>2024-08-12T07:05:00Z</time>
      </trkpt>
      <trkpt lat="43.18694" lon="1.04257">
        <ele>343.2</ele>
        <time>2024-08-12T07:05:01Z</time>
      </trkpt>
      <trkpt lat="43.18698" lon="1.04253">
        <ele>342</ele>
        <time>2024-08-12T07:05:02Z</time>
      </trkpt>
      <trkpt lat="43.18702" lon="1.04248">
        <ele>341.4</ele>
        <time>2024-08-12T07:05:03Z</time>
      </trkpt>
      <trkpt lat="43.18705" lon="1.04245">
        <ele>340.8</ele>
        <time>2024-08-12T07:05:04Z</time>
      </trkpt>
      <trkpt lat="43.1871" lon="1.04241">
        <ele>340.4</ele>
        <time>2024-08-12T07:05:05Z</time>
      </trkpt>
      <trkpt lat="43.18715" lon="1.04238">
        <ele>339.8</ele>
        <time>2024-08-12T07:05:06Z</time>
      </trkpt>
      <trkpt lat="43.18719" lon="1.04233">
        <ele>339.2</ele>
        <time>2024-08-12T07:05:07Z</time>
      </trkpt>
      <trkpt lat="43.18723" lon="1.04231">
        <ele>338.6</ele>
        <time>2024-08-12T07:05:08Z</time>
      </trkpt>
      <trkpt lat="43.18727" lon="1.04229">
        <ele>338</ele>
        <time>2024-08-12T07:05:09Z</time>
      </trkpt>
      <trkpt lat="43.18731" lon="1.04228">
        <ele>337.4</ele>
        <time>2024-08-12T07:05:10Z</time>
      </trkpt>
      <trkpt lat="43.18733" lon="1.04228">
        <ele>336.8</ele>
        <time>2024-08-12T07:05:11Z</time>
      </trkpt>
      <trkpt lat="43.18735" lon="1.04229">
        <ele>336.2</ele>
        <time>2024-08-12T07:05:12Z</time>
      </trkpt>
      <trkpt lat="43.18738" lon="1.0423">
        <ele>335.6</ele>
        <time>2024-08-12T07:05:13Z</time>
      </trkpt>
      <trkpt lat="43.18741" lon="1.04233">
        <ele>335</ele>
        <time>2024-08-12T07:05:14Z</time>
      </trkpt>
      <trkpt lat="43.18744" lon="1.04234">
        <ele>334.4</ele>
        <time>2024-08-12T07:05:15Z</time>
      </trkpt>
      <trkpt lat="43.18749" lon="1.04233">
        <ele>334.4</ele>
        <time>2024-08-12T07:05:17Z</time>
      </trkpt>
      <trkpt lat="43.18754" lon="1.0423">
        <ele>334.8</ele>
        <time>2024-08-12T07:05:19Z</time>
      </trkpt>
      <trkpt lat="43.18756" lon="1.0423">
        <ele>335.2</ele>
        <time>2024-08-12T07:05:20Z</time>
      </trkpt>
      <trkpt lat="43.18759" lon="1.04229">
        <ele>335.6</ele>
        <time>2024-08-12T07:05:21Z</time>
      </trkpt>
      <trkpt lat="43.18761" lon="1.04226">
        <ele>336</ele>
        <time>2024-08-12T07:05:22Z</time>
      </trkpt>
      <trkpt lat="43.18763" lon="1.04224">
        <ele>336.4</ele>
        <time>2024-08-12T07:05:23Z</time>
      </trkpt>
      <trkpt lat="43.18769" lon="1.04217">
        <ele>337</ele>
        <time>2024-08-12T07:05:26Z</time>
      </trkpt>
      <trkpt lat="43.18771" lon="1.04215">
        <ele>337.8</ele>
        <time>2024-08-12T07:05:27Z</time>
      </trkpt>
      <trkpt lat="43.18773" lon="1.04214">
        <ele>338.2</ele>
        <time>2024-08-12T07:05:28Z</time>
      </trkpt>
      <trkpt lat="43.18775" lon="1.04211">
        <ele>338.6</ele>
        <time>2024-08-12T07:05:29Z</time>
      </trkpt>
      <trkpt lat="43.18788" lon="1.04189">
        <ele>338.6</ele>
        <time>2024-08-12T07:05:36Z</time>
      </trkpt>
      <trkpt lat="43.18796" lon="1.04178">
        <ele>339</ele>
        <time>2024-08-12T07:05:40Z</time>
      </trkpt>
      <trkpt lat="43.18799" lon="1.04175">
        <ele>339.4</ele>
        <time>2024-08-12T07:05:41Z</time>
      </trkpt>
      <trkpt lat="43.188" lon="1.04172">
        <ele>340</ele>
        <time>2024-08-12T07:05:42Z</time>
      </trkpt>
      <trkpt lat="43.18801" lon="1.04169">
        <ele>340.4</ele>
        <time>2024-08-12T07:05:43Z</time>
      </trkpt>
      <trkpt lat="43.18803" lon="1.04167">
        <ele>340.8</ele>
        <time>2024-08-12T07:05:44Z</time>
      </trkpt>
      <trkpt lat="43.18804" lon="1.04164">
        <ele>340.8</ele>
        <time>2024-08-12T07:05:45Z</time>
      </trkpt>
      <trkpt lat="43.18807" lon="1.04161">
        <ele>341.2</ele>
        <time>2024-08-12T07:05:47Z</time>
      </trkpt>
      <trkpt lat="43.18807" lon="1.04159">
        <ele>341.6</ele>
        <time>2024-08-12T07:05:48Z</time>
      </trkpt>
      <trkpt lat="43.1881" lon="1.04159">
        <ele>342.2</ele>
        <time>2024-08-12T07:05:49Z</time>
      </trkpt>
      <trkpt lat="43.18812" lon="1.04159">
        <ele>342.6</ele>
        <time>2024-08-12T07:05:50Z</time>
      </trkpt>
      <trkpt lat="43.18813" lon="1.0416">
        <ele>343</ele>
        <time>2024-08-12T07:05:51Z</time>
      </trkpt>
      <trkpt lat="43.18817" lon="1.04164">
        <ele>343.4</ele>
        <time>2024-08-12T07:05:54Z</time>
      </trkpt>
      <trkpt lat="43.18818" lon="1.04166">
        <ele>344</ele>
        <time>2024-08-12T07:05:55Z</time>
      </trkpt>
      <trkpt lat="43.18819" lon="1.04168">
        <ele>344.4</ele>
        <time>2024-08-12T07:05:56Z</time>
      </trkpt>
      <trkpt lat="43.18819" lon="1.0417">
        <ele>344.8</ele>
        <time>2024-08-12T07:05:57Z</time>
      </trkpt>
      <trkpt lat="43.1882" lon="1.04173">
        <ele>345.2</ele>
        <time>2024-08-12T07:05:58Z</time>
      </trkpt>
      <trkpt lat="43.1882" lon="1.04182">
        <ele>345.8</ele>
        <time>2024-08-12T07:06:01Z</time>
      </trkpt>
      <trkpt lat="43.18821" lon="1.04185">
        <ele>346.2</ele>
        <time>2024-08-12T07:06:02Z</time>
      </trkpt>
      <trkpt lat="43.18821" lon="1.04188">
        <ele>346.6</ele>
        <time>2024-08-12T07:06:03Z</time>
      </trkpt>
      <trkpt lat="43.18821" lon="1.0419">
        <ele>347.2</ele>
        <time>2024-08-12T07:06:04Z</time>
      </trkpt>
      <trkpt lat="43.18821" lon="1.04194">
        <ele>347.6</ele>
        <time>2024-08-12T07:06:05Z</time>
      </trkpt>
      <trkpt lat="43.18822" lon="1.04199">
        <ele>348</ele>
        <time>2024-08-12T07:06:07Z</time>
      </trkpt>
      <trkpt lat="43.18822" lon="1.04202">
        <ele>348.6</ele>
        <time>2024-08-12T07:06:08Z</time>
      </trkpt>
      <trkpt lat="43.18822" lon="1.04205">
        <ele>349</ele>
        <time>2024-08-12T07:06:09Z</time>
      </trkpt>
      <trkpt lat="43.18823" lon="1.04208">
        <ele>349.4</ele>
        <time>2024-08-12T07:06:10Z</time>
      </trkpt>
      <trkpt lat="43.18824" lon="1.04211">
        <ele>350</ele>
        <time>2024-08-12T07:06:11Z</time>
      </trkpt>
      <trkpt lat="43.18825" lon="1.0422">
        <ele>350.4</ele>
        <time>2024-08-12T07:06:14Z</time>
      </trkpt>
      <trkpt lat="43.18825" lon="1.04222">
        <ele>350.8</ele>
        <time>2024-08-12T07:06:15Z</time>
      </trkpt>
      <trkpt lat="43.18825" lon="1.04225">
        <ele>351.6</ele>
        <time>2024-08-12T07:06:16Z</time>
      </trkpt>
      <trkpt lat="43.18825" lon="1.04227">
        <ele>352</ele>
        <time>2024-08-12T07:06:17Z</time>
      </trkpt>
      <trkpt lat="43.18828" lon="1.04237">
        <ele>352.4</ele>
        <time>2024-08-12T07:06:20Z</time>
      </trkpt>
      <trkpt lat="43.18828" lon="1.04241">
        <ele>352.8</ele>
        <time>2024-08-12T07:06:21Z</time>
      </trkpt>
      <trkpt lat="43.18829" lon="1.04244">
        <ele>353.2</ele>
        <time>2024-08-12T07:06:22Z</time>
      </trkpt>
      <trkpt lat="43.18828" lon="1.04247">
        <ele>353.6</ele>
        <time>2024-08-12T07:06:23Z</time>
      </trkpt>
      <trkpt lat="43.18829" lon="1.0425">
        <ele>354</ele>
        <time>2024-08-12T07:06:24Z</time>
      </trkpt>
      <trkpt lat="43.18829" lon="1.04259">
        <ele>354</ele>
        <time>2024-08-12T07:06:27Z</time>
      </trkpt>
      <trkpt lat="43.1883" lon="1.04265">
        <ele>354.4</ele>
        <time>2024-08-12T07:06:29Z</time>
      </trkpt>
      <trkpt lat="43.1883" lon="1.04267">
        <ele>354.8</ele>
        <time>2024-08-12T07:06:30Z</time>
      </trkpt>
      <trkpt lat="43.1883" lon="1.0427">
        <ele>355.4</ele>
        <time>2024-08-12T07:06:31Z</time>
      </trkpt>
      <trkpt lat="43.18831" lon="1.04273">
        <ele>355.8</ele>
        <time>2024-08-12T07:06:32Z</time>
      </trkpt>
      <trkpt lat="43.18831" lon="1.04276">
        <ele>356.2</ele>
        <time>2024-08-12T07:06:33Z</time>
      </trkpt>
      <trkpt lat="43.18831" lon="1.04279">
        <ele>356.2</ele>
        <time>2024-08-12T07:06:34Z</time>
      </trkpt>
      <trkpt lat="43.18833" lon="1.04283">
        <ele>356.6</ele>
        <time>2024-08-12T07:06:36Z</time>
      </trkpt>
      <trkpt lat="43.18833" lon="1.04286">
        <ele>357</ele>
        <time>2024-08-12T07:06:37Z</time>
      </trkpt>
      <trkpt lat="43.18832" lon="1.04288">
        <ele>357.4</ele>
        <time>2024-08-12T07:06:38Z</time>
      </trkpt>
      <trkpt lat="43.18832" lon="1.0429">
        <ele>357.8</ele>
        <time>2024-08-12T07:06:39Z</time>
      </trkpt>
      <trkpt lat="43.18832" lon="1.04291">
        <ele>358.2</ele>
        <time>2024-08-12T07:06:40Z</time>
      </trkpt>
      <trkpt lat="43.18834" lon="1.04295">
        <ele>358.6</ele>
        <time>2024-08-12T07:06:42Z</time>
      </trkpt>
      <trkpt lat="43.18834" lon="1.04297">
        <ele>359.2</ele>
        <time>2024-08-12T07:06:43Z</time>
      </trkpt>
      <trkpt lat="43.18835" lon="1.043">
        <ele>359.6</ele>
        <time>2024-08-12T07:06:44Z</time>
      </trkpt>
      <trkpt lat="43.18836" lon="1.04303">
        <ele>360</ele>
        <time>2024-08-12T07:06:45Z</time>
      </trkpt>
      <trkpt lat="43.18837" lon="1.04305">
        <ele>360.4</ele>
        <time>2024-08-12T07:06:46Z</time>
      </trkpt>
      <trkpt lat="43.18838" lon="1.04307">
        <ele>360.8</ele>
        <time>2024-08-12T07:06:47Z</time>
      </trkpt>
      <trkpt lat="43.18838" lon="1.0431">
        <ele>361.2</ele>
        <time>2024-08-12T07:06:48Z</time>
      </trkpt>
      <trkpt lat="43.18838" lon="1.04312">
        <ele>361.6</ele>
        <time>2024-08-12T07:06:49Z</time>
      </trkpt>
      <trkpt lat="43.18838" lon="1.04315">
        <ele>362.2</ele>
        <time>2024-08-12T07:06:50Z</time>
      </trkpt>
      <trkpt lat="43.18839" lon="1.04318">
        <ele>362.6</ele>
        <time>2024-08-12T07:06:51Z</time>
      </trkpt>
      <trkpt lat="43.1884" lon="1.04324">
        <ele>363</ele>
        <time>2024-08-12T07:06:53Z</time>
      </trkpt>
      <trkpt lat="43.1884" lon="1.04326">
        <ele>363.4</ele>
        <time>2024-08-12T07:06:54Z</time>
      </trkpt>
      <trkpt lat="43.1884" lon="1.04327">
        <ele>363.8</ele>
        <time>2024-08-12T07:06:55Z</time>
      </trkpt>
      <trkpt lat="43.18841" lon="1.04328">
        <ele>364.2</ele>
        <time>2024-08-12T07:06:56Z</time>
      </trkpt>
      <trkpt lat="43.18843" lon="1.04327">
        <ele>364.6</ele>
        <time>2024-08-12T07:06:57Z</time>
      </trkpt>
      <trkpt lat="43.18845" lon="1.04328">
        <ele>364.6</ele>
        <time>2024-08-12T07:06:58Z</time>
      </trkpt>
      <trkpt lat="43.1885" lon="1.0433">
        <ele>364.6</ele>
        <time>2024-08-12T07:07:01Z</time>
      </trkpt>
      <trkpt lat="43.18852" lon="1.04331">
        <ele>364.6</ele>
        <time>2024-08-12T07:07:02Z</time>
      </trkpt>
      <trkpt lat="43.18853" lon="1.04332">
        <ele>365</ele>
        <time>2024-08-12T07:07:03Z</time>
      </trkpt>
      <trkpt lat="43.18854" lon="1.04336">
        <ele>365.4</ele>
        <time>2024-08-12T07:07:04Z</time>
      </trkpt>
      <trkpt lat="43.18858" lon="1.0434">
        <ele>365.8</ele>
        <time>2024-08-12T07:07:05Z</time>
      </trkpt>
      <trkpt lat="43.1886" lon="1.04342">
        <ele>366.6</ele>
        <time>2024-08-12T07:07:06Z</time>
      </trkpt>
      <trkpt lat="43.18864" lon="1.04345">
        <ele>366</ele>
        <time>2024-08-12T07:07:07Z</time>
      </trkpt>
      <trkpt lat="43.18868" lon="1.04348">
        <ele>365.4</ele>
        <time>2024-08-12T07:07:08Z</time>
      </trkpt>
      <trkpt lat="43.18872" lon="1.04346">
        <ele>365</ele>
        <time>2024-08-12T07:07:09Z</time>
      </trkpt>
      <trkpt lat="43.18875" lon="1.04342">
        <ele>364.2</ele>
        <time>2024-08-12T07:07:10Z</time>
      </trkpt>
      <trkpt lat="43.18878" lon="1.04338">
        <ele>363.6</ele>
        <time>2024-08-12T07:07:11Z</time>
      </trkpt>
      <trkpt lat="43.18883" lon="1.04335">
        <ele>363</ele>
        <time>2024-08-12T07:07:12Z</time>
      </trkpt>
      <trkpt lat="43.18887" lon="1.0433">
        <ele>362.4</ele>
        <time>2024-08-12T07:07:13Z</time>
      </trkpt>
      <trkpt lat="43.18889" lon="1.04325">
        <ele>361.6</ele>
        <time>2024-08-12T07:07:14Z</time>
      </trkpt>
      <trkpt lat="43.18887" lon="1.04314">
        <ele>361</ele>
        <time>2024-08-12T07:07:16Z</time>
      </trkpt>
      <trkpt lat="43.18883" lon="1.04308">
        <ele>360.4</ele>
        <time>2024-08-12T07:07:17Z</time>
      </trkpt>
      <trkpt lat="43.18879" lon="1.04301">
        <ele>359.6</ele>
        <time>2024-08-12T07:07:18Z</time>
      </trkpt>
      <trkpt lat="43.18876" lon="1.04293">
        <ele>358.8</ele>
        <time>2024-08-12T07:07:19Z</time>
      </trkpt>
      <trkpt lat="43.18875" lon="1.04283">
        <ele>358</ele>
        <time>2024-08-12T07:07:20Z</time>
      </trkpt>
      <trkpt lat="43.18874" lon="1.04273">
        <ele>357</ele>
        <time>2024-08-12T07:07:21Z</time>
      </trkpt>
      <trkpt lat="43.18872" lon="1.04263">
        <ele>356</ele>
        <time>2024-08-12T07:07:22Z</time>
      </trkpt>
      <trkpt lat="43.18872" lon="1.04253">
        <ele>355</ele>
        <time>2024-08-12T07:07:23Z</time>
      </trkpt>
      <trkpt lat="43.18873" lon="1.04242">
        <ele>354</ele>
        <time>2024-08-12T07:07:24Z</time>
      </trkpt>
      <trkpt lat="43.18874" lon="1.04232">
        <ele>352.8</ele>
        <time>2024-08-12T07:07:25Z</time>
      </trkpt>
      <trkpt lat="43.18875" lon="1.04222">
        <ele>351.8</ele>
        <time>2024-08-12T07:07:26Z</time>
      </trkpt>
      <trkpt lat="43.18876" lon="1.04212">
        <ele>350.6</ele>
        <time>2024-08-12T07:07:27Z</time>
      </trkpt>
      <trkpt lat="43.18875" lon="1.04201">
        <ele>349.2</ele>
        <time>2024-08-12T07:07:28Z</time>
      </trkpt>
      <trkpt lat="43.18873" lon="1.0419">
        <ele>347.8</ele>
        <time>2024-08-12T07:07:29Z</time>
      </trkpt>
      <trkpt lat="43.18871" lon="1.04181">
        <ele>346.2</ele>
        <time>2024-08-12T07:07:30Z</time>
      </trkpt>
      <trkpt lat="43.18872" lon="1.04171">
        <ele>343.2</ele>
        <time>2024-08-12T07:07:31Z</time>
      </trkpt>
      <trkpt lat="43.18874" lon="1.0416">
        <ele>341.8</ele>
        <time>2024-08-12T07:07:32Z</time>
      </trkpt>
      <trkpt lat="43.18876" lon="1.04151">
        <ele>340.4</ele>
        <time>2024-08-12T07:07:33Z</time>
      </trkpt>
      <trkpt lat="43.18876" lon="1.04143">
        <ele>339</ele>
        <time>2024-08-12T07:07:34Z</time>
      </trkpt>
      <trkpt lat="43.18875" lon="1.04138">
        <ele>337.6</ele>
        <time>2024-08-12T07:07:35Z</time>
      </trkpt>
      <trkpt lat="43.18872" lon="1.04132">
        <ele>336.4</ele>
        <time>2024-08-12T07:07:36Z</time>
      </trkpt>
      <trkpt lat="43.18868" lon="1.0413">
        <ele>335</ele>
        <time>2024-08-12T07:07:37Z</time>
      </trkpt>
      <trkpt lat="43.18865" lon="1.04129">
        <ele>333.6</ele>
        <time>2024-08-12T07:07:38Z</time>
      </trkpt>
      <trkpt lat="43.18855" lon="1.04115">
        <ele>333.6</ele>
        <time>2024-08-12T07:07:42Z</time>
      </trkpt>
      <trkpt lat="43.18845" lon="1.04113">
        <ele>333.6</ele>
        <time>2024-08-12T07:07:45Z</time>
      </trkpt>
      <trkpt lat="43.18841" lon="1.04111">
        <ele>333.6</ele>
        <time>2024-08-12T07:07:46Z</time>
      </trkpt>
      <trkpt lat="43.18829" lon="1.04096">
        <ele>333.2</ele>
        <time>2024-08-12T07:07:49Z</time>
      </trkpt>
      <trkpt lat="43.18828" lon="1.04086">
        <ele>332.8</ele>
        <time>2024-08-12T07:07:50Z</time>
      </trkpt>
      <trkpt lat="43.18828" lon="1.04074">
        <ele>332.4</ele>
        <time>2024-08-12T07:07:51Z</time>
      </trkpt>
      <trkpt lat="43.18831" lon="1.04065">
        <ele>331.6</ele>
        <time>2024-08-12T07:07:52Z</time>
      </trkpt>
      <trkpt lat="43.18833" lon="1.04057">
        <ele>331</ele>
        <time>2024-08-12T07:07:53Z</time>
      </trkpt>
      <trkpt lat="43.18833" lon="1.04048">
        <ele>330.4</ele>
        <time>2024-08-12T07:07:54Z</time>
      </trkpt>
      <trkpt lat="43.18834" lon="1.04038">
        <ele>329</ele>
        <time>2024-08-12T07:07:55Z</time>
      </trkpt>
      <trkpt lat="43.18834" lon="1.04029">
        <ele>329</ele>
        <time>2024-08-12T07:07:56Z</time>
      </trkpt>
      <trkpt lat="43.18833" lon="1.04011">
        <ele>328.6</ele>
        <time>2024-08-12T07:07:58Z</time>
      </trkpt>
      <trkpt lat="43.18832" lon="1.04">
        <ele>328.2</ele>
        <time>2024-08-12T07:07:59Z</time>
      </trkpt>
      <trkpt lat="43.18831" lon="1.0399">
        <ele>327.8</ele>
        <time>2024-08-12T07:08:00Z</time>
      </trkpt>
      <trkpt lat="43.18827" lon="1.03983">
        <ele>327.2</ele>
        <time>2024-08-12T07:08:01Z</time>
      </trkpt>
      <trkpt lat="43.18823" lon="1.03975">
        <ele>326.8</ele>
        <time>2024-08-12T07:08:02Z</time>
      </trkpt>
      <trkpt lat="43.1882" lon="1.03968">
        <ele>326.2</ele>
        <time>2024-08-12T07:08:03Z</time>
      </trkpt>
      <trkpt lat="43.18819" lon="1.0396">
        <ele>325.8</ele>
        <time>2024-08-12T07:08:04Z</time>
      </trkpt>
      <trkpt lat="43.18818" lon="1.03952">
        <ele>325.2</ele>
        <time>2024-08-12T07:08:05Z</time>
      </trkpt>
      <trkpt lat="43.18817" lon="1.03943">
        <ele>324.6</ele>
        <time>2024-08-12T07:08:06Z</time>
      </trkpt>
      <trkpt lat="43.18815" lon="1.03934">
        <ele>324.2</ele>
        <time>2024-08-12T07:08:07Z</time>
      </trkpt>
      <trkpt lat="43.18815" lon="1.03923">
        <ele>323.8</ele>
        <time>2024-08-12T07:08:08Z</time>
      </trkpt>
      <trkpt lat="43.18814" lon="1.03912">
        <ele>322.8</ele>
        <time>2024-08-12T07:08:09Z</time>
      </trkpt>
      <trkpt lat="43.18813" lon="1.03901">
        <ele>322</ele>
        <time>2024-08-12T07:08:10Z</time>
      </trkpt>
      <trkpt lat="43.18812" lon="1.03889">
        <ele>321</ele>
        <time>2024-08-12T07:08:11Z</time>
      </trkpt>
      <trkpt lat="43.1881" lon="1.03878">
        <ele>319.8</ele>
        <time>2024-08-12T07:08:12Z</time>
      </trkpt>
      <trkpt lat="43.18808" lon="1.03868">
        <ele>318.4</ele>
        <time>2024-08-12T07:08:13Z</time>
      </trkpt>
      <trkpt lat="43.18807" lon="1.03859">
        <ele>317</ele>
        <time>2024-08-12T07:08:14Z</time>
      </trkpt>
      <trkpt lat="43.18805" lon="1.0385">
        <ele>315.4</ele>
        <time>2024-08-12T07:08:15Z</time>
      </trkpt>
      <trkpt lat="43.18806" lon="1.03841">
        <ele>314</ele>
        <time>2024-08-12T07:08:16Z</time>
      </trkpt>
      <trkpt lat="43.18807" lon="1.03833">
        <ele>312.2</ele>
        <time>2024-08-12T07:08:17Z</time>
      </trkpt>
      <trkpt lat="43.18808" lon="1.03825">
        <ele>310.6</ele>
        <time>2024-08-12T07:08:18Z</time>
      </trkpt>
      <trkpt lat="43.18811" lon="1.03817">
        <ele>309</ele>
        <time>2024-08-12T07:08:19Z</time>
      </trkpt>
      <trkpt lat="43.18813" lon="1.03811">
        <ele>305.8</ele>
        <time>2024-08-12T07:08:20Z</time>
      </trkpt>
      <trkpt lat="43.18818" lon="1.03805">
        <ele>304.2</ele>
        <time>2024-08-12T07:08:21Z</time>
      </trkpt>
      <trkpt lat="43.18823" lon="1.03801">
        <ele>302.8</ele>
        <time>2024-08-12T07:08:22Z</time>
      </trkpt>
      <trkpt lat="43.18826" lon="1.03797">
        <ele>301.6</ele>
        <time>2024-08-12T07:08:23Z</time>
      </trkpt>
      <trkpt lat="43.1883" lon="1.03791">
        <ele>300.4</ele>
        <time>2024-08-12T07:08:24Z</time>
      </trkpt>
      <trkpt lat="43.18834" lon="1.03786">
        <ele>299.4</ele>
        <time>2024-08-12T07:08:25Z</time>
      </trkpt>
      <trkpt lat="43.18839" lon="1.03783">
        <ele>298.2</ele>
        <time>2024-08-12T07:08:26Z</time>
      </trkpt>
      <trkpt lat="43.18842" lon="1.03783">
        <ele>297.2</ele>
        <time>2024-08-12T07:08:27Z</time>
      </trkpt>
      <trkpt lat="43.18847" lon="1.03787">
        <ele>296</ele>
        <time>2024-08-12T07:08:28Z</time>
      </trkpt>
      <trkpt lat="43.18848" lon="1.0379">
        <ele>295.2</ele>
        <time>2024-08-12T07:08:29Z</time>
      </trkpt>
      <trkpt lat="43.18851" lon="1.03792">
        <ele>294.4</ele>
        <time>2024-08-12T07:08:30Z</time>
      </trkpt>
      <trkpt lat="43.18854" lon="1.03793">
        <ele>293.6</ele>
        <time>2024-08-12T07:08:31Z</time>
      </trkpt>
      <trkpt lat="43.18858" lon="1.03794">
        <ele>292.6</ele>
        <time>2024-08-12T07:08:32Z</time>
      </trkpt>
      <trkpt lat="43.18862" lon="1.03797">
        <ele>291.8</ele>
        <time>2024-08-12T07:08:33Z</time>
      </trkpt>
      <trkpt lat="43.18879" lon="1.03815">
        <ele>291.2</ele>
        <time>2024-08-12T07:08:36Z</time>
      </trkpt>
      <trkpt lat="43.18883" lon="1.03821">
        <ele>290.6</ele>
        <time>2024-08-12T07:08:37Z</time>
      </trkpt>
      <trkpt lat="43.18882" lon="1.03829">
        <ele>289.8</ele>
        <time>2024-08-12T07:08:38Z</time>
      </trkpt>
      <trkpt lat="43.18883" lon="1.03838">
        <ele>289</ele>
        <time>2024-08-12T07:08:39Z</time>
      </trkpt>
      <trkpt lat="43.18885" lon="1.03847">
        <ele>288</ele>
        <time>2024-08-12T07:08:40Z</time>
      </trkpt>
      <trkpt lat="43.18889" lon="1.03854">
        <ele>287</ele>
        <time>2024-08-12T07:08:41Z</time>
      </trkpt>
      <trkpt lat="43.18893" lon="1.0386">
        <ele>286</ele>
        <time>2024-08-12T07:08:42Z</time>
      </trkpt>
      <trkpt lat="43.18898" lon="1.03865">
        <ele>285</ele>
        <time>2024-08-12T07:08:43Z</time>
      </trkpt>
      <trkpt lat="43.18905" lon="1.03867">
        <ele>282.6</ele>
        <time>2024-08-12T07:08:44Z</time>
      </trkpt>
      <trkpt lat="43.1891" lon="1.03865">
        <ele>281.4</ele>
        <time>2024-08-12T07:08:45Z</time>
      </trkpt>
      <trkpt lat="43.18915" lon="1.03863">
        <ele>280.4</ele>
        <time>2024-08-12T07:08:46Z</time>
      </trkpt>
      <trkpt lat="43.18919" lon="1.03857">
        <ele>279.2</ele>
        <time>2024-08-12T07:08:47Z</time>
      </trkpt>
      <trkpt lat="43.18923" lon="1.03852">
        <ele>278</ele>
        <time>2024-08-12T07:08:48Z</time>
      </trkpt>
      <trkpt lat="43.18927" lon="1.0385">
        <ele>277.2</ele>
        <time>2024-08-12T07:08:49Z</time>
      </trkpt>
      <trkpt lat="43.18932" lon="1.03851">
        <ele>276.6</ele>
        <time>2024-08-12T07:08:50Z</time>
      </trkpt>
      <trkpt lat="43.18937" lon="1.03853">
        <ele>275.8</ele>
        <time>2024-08-12T07:08:51Z</time>
      </trkpt>
      <trkpt lat="43.18942" lon="1.03857">
        <ele>275</ele>
        <time>2024-08-12T07:08:52Z</time>
      </trkpt>
      <trkpt lat="43.18948" lon="1.0386">
        <ele>274.2</ele>
        <time>2024-08-12T07:08:53Z</time>
      </trkpt>
      <trkpt lat="43.18955" lon="1.03862">
        <ele>273.4</ele>
        <time>2024-08-12T07:08:54Z</time>
      </trkpt>
      <trkpt lat="43.18958" lon="1.03861">
        <ele>272.6</ele>
        <time>2024-08-12T07:08:55Z</time>
      </trkpt>
      <trkpt lat="43.18961" lon="1.03859">
        <ele>271.8</ele>
        <time>2024-08-12T07:08:56Z</time>
      </trkpt>
      <trkpt lat="43.18964" lon="1.03853">
        <ele>271</ele>
        <time>2024-08-12T07:08:57Z</time>
      </trkpt>
      <trkpt lat="43.18967" lon="1.03847">
        <ele>270.2</ele>
        <time>2024-08-12T07:08:58Z</time>
      </trkpt>
      <trkpt lat="43.18969" lon="1.03838">
        <ele>269.4</ele>
        <time>2024-08-12T07:08:59Z</time>
      </trkpt>
      <trkpt lat="43.18972" lon="1.03829">
        <ele>268.6</ele>
        <time>2024-08-12T07:09:00Z</time>
      </trkpt>
      <trkpt lat="43.18976" lon="1.0382">
        <ele>267.8</ele>
        <time>2024-08-12T07:09:01Z</time>
      </trkpt>
      <trkpt lat="43.1898" lon="1.03811">
        <ele>266.8</ele>
        <time>2024-08-12T07:09:02Z</time>
      </trkpt>
      <trkpt lat="43.18985" lon="1.03804">
        <ele>265.8</ele>
        <time>2024-08-12T07:09:03Z</time>
      </trkpt>
      <trkpt lat="43.1899" lon="1.03795">
        <ele>264.8</ele>
        <time>2024-08-12T07:09:04Z</time>
      </trkpt>
      <trkpt lat="43.18995" lon="1.03788">
        <ele>263.8</ele>
        <time>2024-08-12T07:09:05Z</time>
      </trkpt>
      <trkpt lat="43.18999" lon="1.0378">
        <ele>262.6</ele>
        <time>2024-08-12T07:09:06Z</time>
      </trkpt>
      <trkpt lat="43.19003" lon="1.03771">
        <ele>261.6</ele>
        <time>2024-08-12T07:09:07Z</time>
      </trkpt>
      <trkpt lat="43.19006" lon="1.03763">
        <ele>260.6</ele>
        <time>2024-08-12T07:09:08Z</time>
      </trkpt>
      <trkpt lat="43.1901" lon="1.03755">
        <ele>258.6</ele>
        <time>2024-08-12T07:09:09Z</time>
      </trkpt>
      <trkpt lat="43.19014" lon="1.03752">
        <ele>257.6</ele>
        <time>2024-08-12T07:09:10Z</time>
      </trkpt>
      <trkpt lat="43.19018" lon="1.03752">
        <ele>256.6</ele>
        <time>2024-08-12T07:09:11Z</time>
      </trkpt>
      <trkpt lat="43.19022" lon="1.03755">
        <ele>255.4</ele>
        <time>2024-08-12T07:09:12Z</time>
      </trkpt>
      <trkpt lat="43.19025" lon="1.03758">
        <ele>254.4</ele>
        <time>2024-08-12T07:09:13Z</time>
      </trkpt>
      <trkpt lat="43.19028" lon="1.03761">
        <ele>253.2</ele>
        <time>2024-08-12T07:09:14Z</time>
      </trkpt>
      <trkpt lat="43.1903" lon="1.03759">
        <ele>252.2</ele>
        <time>2024-08-12T07:09:15Z</time>
      </trkpt>
      <trkpt lat="43.19032" lon="1.03758">
        <ele>251.8</ele>
        <time>2024-08-12T07:09:16Z</time>
      </trkpt>
      <trkpt lat="43.19033" lon="1.03756">
        <ele>251.4</ele>
        <time>2024-08-12T07:09:17Z</time>
      </trkpt>
      <trkpt lat="43.19033" lon="1.03756">
        <ele>250.8</ele>
        <time>2024-08-12T07:09:18Z</time>
      </trkpt>
      <trkpt lat="43.19034" lon="1.03752">
        <ele>250</ele>
        <time>2024-08-12T07:10:04Z</time>
      </trkpt>
      <trkpt lat="43.19033" lon="1.03749">
        <ele>250</ele>
        <time>2024-08-12T07:10:05Z</time>
      </trkpt>
      <trkpt lat="43.19031" lon="1.03737">
        <ele>250</ele>
        <time>2024-08-12T07:10:09Z</time>
      </trkpt>
      <trkpt lat="43.19029" lon="1.03733">
        <ele>250</ele>
        <time>2024-08-12T07:10:10Z</time>
      </trkpt>
      <trkpt lat="43.19023" lon="1.03718">
        <ele>250</ele>
        <time>2024-08-12T07:10:14Z</time>
      </trkpt>
      <trkpt lat="43.19017" lon="1.03693">
        <ele>250</ele>
        <time>2024-08-12T07:10:18Z</time>
      </trkpt>
      <trkpt lat="43.19016" lon="1.03687">
        <ele>250</ele>
        <time>2024-08-12T07:10:19Z</time>
      </trkpt>
      <trkpt lat="43.19015" lon="1.03645">
        <ele>250</ele>
        <time>2024-08-12T07:10:26Z</time>
      </trkpt>
      <trkpt lat="43.19022" lon="1.03607">
        <ele>250</ele>
        <time>2024-08-12T07:10:33Z</time>
      </trkpt>
      <trkpt lat="43.19028" lon="1.03585">
        <ele>250</ele>
        <time>2024-08-12T07:10:37Z</time>
      </trkpt>
      <trkpt lat="43.19034" lon="1.03569">
        <ele>250</ele>
        <time>2024-08-12T07:10:40Z</time>
      </trkpt>
      <trkpt lat="43.19041" lon="1.03541">
        <ele>250</ele>
        <time>2024-08-12T07:10:45Z</time>
      </trkpt>
      <trkpt lat="43.19044" lon="1.0353">
        <ele>250</ele>
        <time>2024-08-12T07:10:47Z</time>
      </trkpt>
      <trkpt lat="43.1905" lon="1.03509">
        <ele>250</ele>
        <time>2024-08-12T07:10:51Z</time>
      </trkpt>
      <trkpt lat="43.19054" lon="1.03498">
        <ele>250</ele>
        <time>2024-08-12T07:10:53Z</time>
      </trkpt>
      <trkpt lat="43.19059" lon="1.03481">
        <ele>250</ele>
        <time>2024-08-12T07:10:56Z</time>
      </trkpt>
      <trkpt lat="43.19065" lon="1.03464">
        <ele>250</ele>
        <time>2024-08-12T07:10:59Z</time>
      </trkpt>
      <trkpt lat="43.19078" lon="1.03421">
        <ele>250</ele>
        <time>2024-08-12T07:11:07Z</time>
      </trkpt>
      <trkpt lat="43.1908" lon="1.03403">
        <ele>250</ele>
        <time>2024-08-12T07:11:11Z</time>
      </trkpt>
      <trkpt lat="43.19077" lon="1.03402">
        <ele>250</ele>
        <time>2024-08-12T07:11:12Z</time>
      </trkpt>
      <trkpt lat="43.19064" lon="1.03395">
        <ele>250</ele>
        <time>2024-08-12T07:11:16Z</time>
      </trkpt>
      <trkpt lat="43.19047" lon="1.03388">
        <ele>250</ele>
        <time>2024-08-12T07:11:21Z</time>
      </trkpt>
      <trkpt lat="43.19025" lon="1.03379">
        <ele>250</ele>
        <time>2024-08-12T07:11:27Z</time>
      </trkpt>
      <trkpt lat="43.19005" lon="1.03366">
        <ele>250</ele>
        <time>2024-08-12T07:11:33Z</time>
      </trkpt>
      <trkpt lat="43.18987" lon="1.03348">
        <ele>250</ele>
        <time>2024-08-12T07:11:39Z</time>
      </trkpt>
      <trkpt lat="43.1897" lon="1.03342">
        <ele>250</ele>
        <time>2024-08-12T07:11:44Z</time>
      </trkpt>
      <trkpt lat="43.18942" lon="1.03337">
        <ele>250</ele>
        <time>2024-08-12T07:11:52Z</time>
      </trkpt>
      <trkpt lat="43.18927" lon="1.03337">
        <ele>250</ele>
        <time>2024-08-12T07:11:57Z</time>
      </trkpt>
      <trkpt lat="43.18923" lon="1.03333">
        <ele>250</ele>
        <time>2024-08-12T07:11:59Z</time>
      </trkpt>
      <trkpt lat="43.18923" lon="1.03323">
        <ele>250</ele>
        <time>2024-08-12T07:12:01Z</time>
      </trkpt>
      <trkpt lat="43.18924" lon="1.03307">
        <ele>250</ele>
        <time>2024-08-12T07:12:05Z</time>
      </trkpt>
      <trkpt lat="43.18924" lon="1.03302">
        <ele>250</ele>
        <time>2024-08-12T07:12:06Z</time>
      </trkpt>
      <trkpt lat="43.18922" lon="1.03282">
        <ele>250</ele>
        <time>2024-08-12T07:12:11Z</time>
      </trkpt>
      <trkpt lat="43.1892" lon="1.03282">
        <ele>250</ele>
        <time>2024-08-12T07:12:12Z</time>
      </trkpt>
      <trkpt lat="43.18917" lon="1.03282">
        <ele>250</ele>
        <time>2024-08-12T07:12:14Z</time>
      </trkpt>
      <trkpt lat="43.18914" lon="1.03282">
        <ele>250.4</ele>
        <time>2024-08-12T07:12:16Z</time>
      </trkpt>
      <trkpt lat="43.1891" lon="1.03283">
        <ele>250.8</ele>
        <time>2024-08-12T07:12:17Z</time>
      </trkpt>
      <trkpt lat="43.18906" lon="1.03283">
        <ele>251.2</ele>
        <time>2024-08-12T07:12:18Z</time>
      </trkpt>
      <trkpt lat="43.18901" lon="1.03282">
        <ele>251.6</ele>
        <time>2024-08-12T07:12:19Z</time>
      </trkpt>
      <trkpt lat="43.18898" lon="1.03281">
        <ele>252</ele>
        <time>2024-08-12T07:12:20Z</time>
      </trkpt>
      <trkpt lat="43.18878" lon="1.03279">
        <ele>252</ele>
        <time>2024-08-12T07:12:25Z</time>
      </trkpt>
      <trkpt lat="43.18851" lon="1.03281">
        <ele>252</ele>
        <time>2024-08-12T07:12:31Z</time>
      </trkpt>
      <trkpt lat="43.1884" lon="1.0328">
        <ele>252.4</ele>
        <time>2024-08-12T07:12:34Z</time>
      </trkpt>
      <trkpt lat="43.18838" lon="1.03276">
        <ele>253</ele>
        <time>2024-08-12T07:12:35Z</time>
      </trkpt>
      <trkpt lat="43.18837" lon="1.03272">
        <ele>253.4</ele>
        <time>2024-08-12T07:12:36Z</time>
      </trkpt>
      <trkpt lat="43.18836" lon="1.03268">
        <ele>253.8</ele>
        <time>2024-08-12T07:12:37Z</time>
      </trkpt>
      <trkpt lat="43.18836" lon="1.03266">
        <ele>254.4</ele>
        <time>2024-08-12T07:12:38Z</time>
      </trkpt>
      <trkpt lat="43.18836" lon="1.03264">
        <ele>254.4</ele>
        <time>2024-08-12T07:12:39Z</time>
      </trkpt>
      <trkpt lat="43.18832" lon="1.03267">
        <ele>254.4</ele>
        <time>2024-08-12T07:12:42Z</time>
      </trkpt>
      <trkpt lat="43.18831" lon="1.0327">
        <ele>254.4</ele>
        <time>2024-08-12T07:12:43Z</time>
      </trkpt>
      <trkpt lat="43.18829" lon="1.03273">
        <ele>254.8</ele>
        <time>2024-08-12T07:12:44Z</time>
      </trkpt>
      <trkpt lat="43.18827" lon="1.03277">
        <ele>255.2</ele>
        <time>2024-08-12T07:12:45Z</time>
      </trkpt>
      <trkpt lat="43.18824" lon="1.0328">
        <ele>255.6</ele>
        <time>2024-08-12T07:12:46Z</time>
      </trkpt>
      <trkpt lat="43.18822" lon="1.03283">
        <ele>256</ele>
        <time>2024-08-12T07:12:47Z</time>
      </trkpt>
      <trkpt lat="43.18819" lon="1.03284">
        <ele>256.4</ele>
        <time>2024-08-12T07:12:48Z</time>
      </trkpt>
      <trkpt lat="43.18816" lon="1.03286">
        <ele>256.8</ele>
        <time>2024-08-12T07:12:50Z</time>
      </trkpt>
      <trkpt lat="43.18813" lon="1.03287">
        <ele>257.2</ele>
        <time>2024-08-12T07:12:51Z</time>
      </trkpt>
      <trkpt lat="43.18813" lon="1.03285">
        <ele>257.6</ele>
        <time>2024-08-12T07:12:52Z</time>
      </trkpt>
      <trkpt lat="43.18811" lon="1.03283">
        <ele>258</ele>
        <time>2024-08-12T07:12:53Z</time>
      </trkpt>
      <trkpt lat="43.1881" lon="1.03282">
        <ele>258.4</ele>
        <time>2024-08-12T07:12:54Z</time>
      </trkpt>
      <trkpt lat="43.1881" lon="1.03282">
        <ele>258.8</ele>
        <time>2024-08-12T07:12:55Z</time>
      </trkpt>
      <trkpt lat="43.1881" lon="1.03282">
        <ele>259.2</ele>
        <time>2024-08-12T07:12:56Z</time>
      </trkpt>
      <trkpt lat="43.18808" lon="1.03283">
        <ele>259.6</ele>
        <time>2024-08-12T07:12:57Z</time>
      </trkpt>
      <trkpt lat="43.18806" lon="1.03283">
        <ele>260.2</ele>
        <time>2024-08-12T07:12:58Z</time>
      </trkpt>
      <trkpt lat="43.18805" lon="1.03282">
        <ele>260.6</ele>
        <time>2024-08-12T07:12:59Z</time>
      </trkpt>
      <trkpt lat="43.18802" lon="1.03282">
        <ele>261</ele>
        <time>2024-08-12T07:13:00Z</time>
      </trkpt>
      <trkpt lat="43.18801" lon="1.03282">
        <ele>261.4</ele>
        <time>2024-08-12T07:13:01Z</time>
      </trkpt>
      <trkpt lat="43.18799" lon="1.03282">
        <ele>261.8</ele>
        <time>2024-08-12T07:13:02Z</time>
      </trkpt>
      <trkpt lat="43.18798" lon="1.0328">
        <ele>262.4</ele>
        <time>2024-08-12T07:13:03Z</time>
      </trkpt>
      <trkpt lat="43.18796" lon="1.03277">
        <ele>262.8</ele>
        <time>2024-08-12T07:13:04Z</time>
      </trkpt>
      <trkpt lat="43.18795" lon="1.03271">
        <ele>263.2</ele>
        <time>2024-08-12T07:13:07Z</time>
      </trkpt>
      <trkpt lat="43.18794" lon="1.03268">
        <ele>263.6</ele>
        <time>2024-08-12T07:13:08Z</time>
      </trkpt>
      <trkpt lat="43.18794" lon="1.03267">
        <ele>264</ele>
        <time>2024-08-12T07:13:09Z</time>
      </trkpt>
      <trkpt lat="43.18793" lon="1.03265">
        <ele>264.4</ele>
        <time>2024-08-12T07:13:10Z</time>
      </trkpt>
      <trkpt lat="43.18793" lon="1.03262">
        <ele>264.8</ele>
        <time>2024-08-12T07:13:11Z</time>
      </trkpt>
      <trkpt lat="43.18791" lon="1.03257">
        <ele>264.8</ele>
        <time>2024-08-12T07:13:15Z</time>
      </trkpt>
      <trkpt lat="43.18791" lon="1.03257">
        <ele>265.2</ele>
        <time>2024-08-12T07:13:16Z</time>
      </trkpt>
      <trkpt lat="43.18789" lon="1.03256">
        <ele>265.6</ele>
        <time>2024-08-12T07:13:17Z</time>
      </trkpt>
      <trkpt lat="43.1878" lon="1.03248">
        <ele>267</ele>
        <time>2024-08-12T07:13:23Z</time>
      </trkpt>
      <trkpt lat="43.18777" lon="1.03247">
        <ele>267</ele>
        <time>2024-08-12T07:13:25Z</time>
      </trkpt>
      <trkpt lat="43.18771" lon="1.03249">
        <ele>267.4</ele>
        <time>2024-08-12T07:13:28Z</time>
      </trkpt>
      <trkpt lat="43.18769" lon="1.0325">
        <ele>267.8</ele>
        <time>2024-08-12T07:13:29Z</time>
      </trkpt>
      <trkpt lat="43.18767" lon="1.03252">
        <ele>268.2</ele>
        <time>2024-08-12T07:13:30Z</time>
      </trkpt>
      <trkpt lat="43.18764" lon="1.03254">
        <ele>268.6</ele>
        <time>2024-08-12T07:13:31Z</time>
      </trkpt>
      <trkpt lat="43.18763" lon="1.03256">
        <ele>269</ele>
        <time>2024-08-12T07:13:32Z</time>
      </trkpt>
      <trkpt lat="43.18759" lon="1.0326">
        <ele>269.4</ele>
        <time>2024-08-12T07:13:34Z</time>
      </trkpt>
      <trkpt lat="43.18758" lon="1.03261">
        <ele>269.8</ele>
        <time>2024-08-12T07:13:35Z</time>
      </trkpt>
      <trkpt lat="43.18756" lon="1.03263">
        <ele>270.2</ele>
        <time>2024-08-12T07:13:36Z</time>
      </trkpt>
      <trkpt lat="43.18754" lon="1.03265">
        <ele>270.8</ele>
        <time>2024-08-12T07:13:37Z</time>
      </trkpt>
      <trkpt lat="43.18753" lon="1.03267">
        <ele>271.2</ele>
        <time>2024-08-12T07:13:38Z</time>
      </trkpt>
      <trkpt lat="43.18751" lon="1.03269">
        <ele>271.6</ele>
        <time>2024-08-12T07:13:39Z</time>
      </trkpt>
      <trkpt lat="43.18751" lon="1.03271">
        <ele>272.4</ele>
        <time>2024-08-12T07:13:40Z</time>
      </trkpt>
      <trkpt lat="43.1875" lon="1.03273">
        <ele>272.8</ele>
        <time>2024-08-12T07:13:41Z</time>
      </trkpt>
      <trkpt lat="43.18749" lon="1.03274">
        <ele>273.2</ele>
        <time>2024-08-12T07:13:42Z</time>
      </trkpt>
      <trkpt lat="43.18748" lon="1.03276">
        <ele>273.6</ele>
        <time>2024-08-12T07:13:43Z</time>
      </trkpt>
      <trkpt lat="43.18747" lon="1.03277">
        <ele>274.2</ele>
        <time>2024-08-12T07:13:44Z</time>
      </trkpt>
      <trkpt lat="43.18747" lon="1.03279">
        <ele>274.6</ele>
        <time>2024-08-12T07:13:45Z</time>
      </trkpt>
      <trkpt lat="43.18747" lon="1.0328">
        <ele>275</ele>
        <time>2024-08-12T07:13:46Z</time>
      </trkpt>
      <trkpt lat="43.18747" lon="1.03281">
        <ele>275.4</ele>
        <time>2024-08-12T07:13:47Z</time>
      </trkpt>
      <trkpt lat="43.18747" lon="1.03282">
        <ele>275.4</ele>
        <time>2024-08-12T07:13:48Z</time>
      </trkpt>
      <trkpt lat="43.18751" lon="1.03286">
        <ele>275.4</ele>
        <time>2024-08-12T07:13:53Z</time>
      </trkpt>
      <trkpt lat="43.18753" lon="1.03283">
        <ele>275.4</ele>
        <time>2024-08-12T07:13:54Z</time>
      </trkpt>
      <trkpt lat="43.18754" lon="1.0327">
        <ele>275.4</ele>
        <time>2024-08-12T07:13:57Z</time>
      </trkpt>
      <trkpt lat="43.18754" lon="1.03265">
        <ele>275.4</ele>
        <time>2024-08-12T07:13:58Z</time>
      </trkpt>
      <trkpt lat="43.18754" lon="1.03233">
        <ele>275.4</ele>
        <time>2024-08-12T07:14:03Z</time>
      </trkpt>
      <trkpt lat="43.18753" lon="1.03226">
        <ele>274.8</ele>
        <time>2024-08-12T07:14:05Z</time>
      </trkpt>
      <trkpt lat="43.18752" lon="1.03225">
        <ele>274.4</ele>
        <time>2024-08-12T07:14:06Z</time>
      </trkpt>
      <trkpt lat="43.18751" lon="1.03224">
        <ele>274</ele>
        <time>2024-08-12T07:14:07Z</time>
      </trkpt>
      <trkpt lat="43.18749" lon="1.03224">
        <ele>273.6</ele>
        <time>2024-08-12T07:14:08Z</time>
      </trkpt>
      <trkpt lat="43.18747" lon="1.03224">
        <ele>273</ele>
        <time>2024-08-12T07:14:09Z</time>
      </trkpt>
      <trkpt lat="43.18738" lon="1.03224">
        <ele>273</ele>
        <time>2024-08-12T07:14:12Z</time>
      </trkpt>
      <trkpt lat="43.18736" lon="1.03225">
        <ele>273.4</ele>
        <time>2024-08-12T07:14:13Z</time>
      </trkpt>
      <trkpt lat="43.18733" lon="1.03225">
        <ele>273.8</ele>
        <time>2024-08-12T07:14:14Z</time>
      </trkpt>
      <trkpt lat="43.18731" lon="1.03226">
        <ele>274.4</ele>
        <time>2024-08-12T07:14:15Z</time>
      </trkpt>
      <trkpt lat="43.18729" lon="1.03225">
        <ele>274.8</ele>
        <time>2024-08-12T07:14:16Z</time>
      </trkpt>
      <trkpt lat="43.18728" lon="1.03225">
        <ele>275.4</ele>
        <time>2024-08-12T07:14:17Z</time>
      </trkpt>
      <trkpt lat="43.18726" lon="1.03224">
        <ele>276</ele>
        <time>2024-08-12T07:14:18Z</time>
      </trkpt>
      <trkpt lat="43.18724" lon="1.03224">
        <ele>276.6</ele>
        <time>2024-08-12T07:14:19Z</time>
      </trkpt>
      <trkpt lat="43.18723" lon="1.03224">
        <ele>277.2</ele>
        <time>2024-08-12T07:14:20Z</time>
      </trkpt>
      <trkpt lat="43.18721" lon="1.03224">
        <ele>277.8</ele>
        <time>2024-08-12T07:14:21Z</time>
      </trkpt>
      <trkpt lat="43.18718" lon="1.03224">
        <ele>278.2</ele>
        <time>2024-08-12T07:14:22Z</time>
      </trkpt>
      <trkpt lat="43.18716" lon="1.03225">
        <ele>278.6</ele>
        <time>2024-08-12T07:14:23Z</time>
      </trkpt>
      <trkpt lat="43.18713" lon="1.03226">
        <ele>279</ele>
        <time>2024-08-12T07:14:24Z</time>
      </trkpt>
      <trkpt lat="43.18711" lon="1.03226">
        <ele>279.6</ele>
        <time>2024-08-12T07:14:25Z</time>
      </trkpt>
      <trkpt lat="43.18709" lon="1.03226">
        <ele>280</ele>
        <time>2024-08-12T07:14:26Z</time>
      </trkpt>
      <trkpt lat="43.18707" lon="1.03226">
        <ele>280.6</ele>
        <time>2024-08-12T07:14:27Z</time>
      </trkpt>
      <trkpt lat="43.18705" lon="1.03225">
        <ele>281.2</ele>
        <time>2024-08-12T07:14:28Z</time>
      </trkpt>
      <trkpt lat="43.18703" lon="1.03224">
        <ele>282.2</ele>
        <time>2024-08-12T07:14:29Z</time>
      </trkpt>
      <trkpt lat="43.18703" lon="1.03223">
        <ele>282.8</ele>
        <time>2024-08-12T07:14:30Z</time>
      </trkpt>
      <trkpt lat="43.18702" lon="1.03222">
        <ele>283.2</ele>
        <time>2024-08-12T07:14:31Z</time>
      </trkpt>
      <trkpt lat="43.18701" lon="1.03222">
        <ele>284</ele>
        <time>2024-08-12T07:14:32Z</time>
      </trkpt>
      <trkpt lat="43.18693" lon="1.03213">
        <ele>286.6</ele>
        <time>2024-08-12T07:15:12Z</time>
      </trkpt>
      <trkpt lat="43.18693" lon="1.03211">
        <ele>286.6</ele>
        <time>2024-08-12T07:15:13Z</time>
      </trkpt>
      <trkpt lat="43.1869" lon="1.03204">
        <ele>286.6</ele>
        <time>2024-08-12T07:15:17Z</time>
      </trkpt>
      <trkpt lat="43.18689" lon="1.03202">
        <ele>286.6</ele>
        <time>2024-08-12T07:15:18Z</time>
      </trkpt>
      <trkpt lat="43.18687" lon="1.032">
        <ele>287</ele>
        <time>2024-08-12T07:15:19Z</time>
      </trkpt>
      <trkpt lat="43.18685" lon="1.03198">
        <ele>287.4</ele>
        <time>2024-08-12T07:15:20Z</time>
      </trkpt>
      <trkpt lat="43.18683" lon="1.03197">
        <ele>287.8</ele>
        <time>2024-08-12T07:15:21Z</time>
      </trkpt>
      <trkpt lat="43.18681" lon="1.03195">
        <ele>288.2</ele>
        <time>2024-08-12T07:15:22Z</time>
      </trkpt>
      <trkpt lat="43.1868" lon="1.03193">
        <ele>288.8</ele>
        <time>2024-08-12T07:15:23Z</time>
      </trkpt>
      <trkpt lat="43.1868" lon="1.03191">
        <ele>288.8</ele>
        <time>2024-08-12T07:15:24Z</time>
      </trkpt>
      <trkpt lat="43.18679" lon="1.03185">
        <ele>288.8</ele>
        <time>2024-08-12T07:15:28Z</time>
      </trkpt>
      <trkpt lat="43.18678" lon="1.03184">
        <ele>288.8</ele>
        <time>2024-08-12T07:15:29Z</time>
      </trkpt>
      <trkpt lat="43.18676" lon="1.03184">
        <ele>288.8</ele>
        <time>2024-08-12T07:15:31Z</time>
      </trkpt>
      <trkpt lat="43.18674" lon="1.03183">
        <ele>289.2</ele>
        <time>2024-08-12T07:15:32Z</time>
      </trkpt>
      <trkpt lat="43.18671" lon="1.03183">
        <ele>289.6</ele>
        <time>2024-08-12T07:15:33Z</time>
      </trkpt>
      <trkpt lat="43.18669" lon="1.03183">
        <ele>290</ele>
        <time>2024-08-12T07:15:34Z</time>
      </trkpt>
      <trkpt lat="43.18666" lon="1.03183">
        <ele>290.4</ele>
        <time>2024-08-12T07:15:35Z</time>
      </trkpt>
      <trkpt lat="43.18664" lon="1.03183">
        <ele>291</ele>
        <time>2024-08-12T07:15:36Z</time>
      </trkpt>
      <trkpt lat="43.18662" lon="1.03183">
        <ele>291.6</ele>
        <time>2024-08-12T07:15:37Z</time>
      </trkpt>
      <trkpt lat="43.1866" lon="1.03183">
        <ele>292.4</ele>
        <time>2024-08-12T07:15:38Z</time>
      </trkpt>
      <trkpt lat="43.18659" lon="1.03182">
        <ele>293</ele>
        <time>2024-08-12T07:15:39Z</time>
      </trkpt>
      <trkpt lat="43.18658" lon="1.0318">
        <ele>293.6</ele>
        <time>2024-08-12T07:15:40Z</time>
      </trkpt>
      <trkpt lat="43.18659" lon="1.03168">
        <ele>293.6</ele>
        <time>2024-08-12T07:15:44Z</time>
      </trkpt>
      <trkpt lat="43.18658" lon="1.03165">
        <ele>293.6</ele>
        <time>2024-08-12T07:15:45Z</time>
      </trkpt>
      <trkpt lat="43.18658" lon="1.03162">
        <ele>293.6</ele>
        <time>2024-08-12T07:15:46Z</time>
      </trkpt>
      <trkpt lat="43.18656" lon="1.03156">
        <ele>293.6</ele>
        <time>2024-08-12T07:15:48Z</time>
      </trkpt>
      <trkpt lat="43.18654" lon="1.03146">
        <ele>293.6</ele>
        <time>2024-08-12T07:15:52Z</time>
      </trkpt>
      <trkpt lat="43.18653" lon="1.03145">
        <ele>294</ele>
        <time>2024-08-12T07:15:53Z</time>
      </trkpt>
      <trkpt lat="43.18651" lon="1.03142">
        <ele>294.4</ele>
        <time>2024-08-12T07:15:54Z</time>
      </trkpt>
      <trkpt lat="43.18648" lon="1.03141">
        <ele>294.8</ele>
        <time>2024-08-12T07:15:55Z</time>
      </trkpt>
      <trkpt lat="43.18646" lon="1.03139">
        <ele>295.4</ele>
        <time>2024-08-12T07:15:56Z</time>
      </trkpt>
      <trkpt lat="43.18644" lon="1.03138">
        <ele>295.8</ele>
        <time>2024-08-12T07:15:57Z</time>
      </trkpt>
      <trkpt lat="43.18643" lon="1.03136">
        <ele>295.8</ele>
        <time>2024-08-12T07:15:58Z</time>
      </trkpt>
      <trkpt lat="43.18642" lon="1.03134">
        <ele>296.2</ele>
        <time>2024-08-12T07:15:59Z</time>
      </trkpt>
      <trkpt lat="43.1864" lon="1.03132">
        <ele>296.8</ele>
        <time>2024-08-12T07:16:00Z</time>
      </trkpt>
      <trkpt lat="43.1864" lon="1.03131">
        <ele>297.2</ele>
        <time>2024-08-12T07:16:01Z</time>
      </trkpt>
      <trkpt lat="43.18639" lon="1.03129">
        <ele>297.6</ele>
        <time>2024-08-12T07:16:02Z</time>
      </trkpt>
      <trkpt lat="43.18638" lon="1.03127">
        <ele>298.2</ele>
        <time>2024-08-12T07:16:03Z</time>
      </trkpt>
      <trkpt lat="43.18636" lon="1.03122">
        <ele>298.6</ele>
        <time>2024-08-12T07:16:05Z</time>
      </trkpt>
      <trkpt lat="43.18635" lon="1.0312">
        <ele>299</ele>
        <time>2024-08-12T07:16:06Z</time>
      </trkpt>
      <trkpt lat="43.18635" lon="1.03118">
        <ele>299.4</ele>
        <time>2024-08-12T07:16:07Z</time>
      </trkpt>
      <trkpt lat="43.18635" lon="1.03115">
        <ele>300.2</ele>
        <time>2024-08-12T07:16:08Z</time>
      </trkpt>
      <trkpt lat="43.18635" lon="1.03111">
        <ele>300.2</ele>
        <time>2024-08-12T07:16:09Z</time>
      </trkpt>
      <trkpt lat="43.18633" lon="1.03105">
        <ele>300.6</ele>
        <time>2024-08-12T07:16:11Z</time>
      </trkpt>
      <trkpt lat="43.18632" lon="1.03102">
        <ele>301</ele>
        <time>2024-08-12T07:16:12Z</time>
      </trkpt>
      <trkpt lat="43.18631" lon="1.031">
        <ele>301.6</ele>
        <time>2024-08-12T07:16:13Z</time>
      </trkpt>
      <trkpt lat="43.1863" lon="1.03098">
        <ele>302</ele>
        <time>2024-08-12T07:16:14Z</time>
      </trkpt>
      <trkpt lat="43.18629" lon="1.03095">
        <ele>302.4</ele>
        <time>2024-08-12T07:16:15Z</time>
      </trkpt>
      <trkpt lat="43.18623" lon="1.03084">
        <ele>302.4</ele>
        <time>2024-08-12T07:16:20Z</time>
      </trkpt>
      <trkpt lat="43.18622" lon="1.03083">
        <ele>302.8</ele>
        <time>2024-08-12T07:16:21Z</time>
      </trkpt>
      <trkpt lat="43.18622" lon="1.03081">
        <ele>303.4</ele>
        <time>2024-08-12T07:16:22Z</time>
      </trkpt>
      <trkpt lat="43.18621" lon="1.03079">
        <ele>303.8</ele>
        <time>2024-08-12T07:16:23Z</time>
      </trkpt>
      <trkpt lat="43.18621" lon="1.03077">
        <ele>304.2</ele>
        <time>2024-08-12T07:16:24Z</time>
      </trkpt>
      <trkpt lat="43.18621" lon="1.03075">
        <ele>304.6</ele>
        <time>2024-08-12T07:16:25Z</time>
      </trkpt>
      <trkpt lat="43.18617" lon="1.03064">
        <ele>305</ele>
        <time>2024-08-12T07:16:30Z</time>
      </trkpt>
      <trkpt lat="43.18617" lon="1.03062">
        <ele>305.4</ele>
        <time>2024-08-12T07:16:31Z</time>
      </trkpt>
      <trkpt lat="43.18616" lon="1.03059">
        <ele>305.8</ele>
        <time>2024-08-12T07:16:32Z</time>
      </trkpt>
      <trkpt lat="43.18616" lon="1.03057">
        <ele>306.6</ele>
        <time>2024-08-12T07:16:33Z</time>
      </trkpt>
      <trkpt lat="43.18615" lon="1.03051">
        <ele>306.6</ele>
        <time>2024-08-12T07:16:35Z</time>
      </trkpt>
      <trkpt lat="43.18616" lon="1.03045">
        <ele>306.6</ele>
        <time>2024-08-12T07:16:37Z</time>
      </trkpt>
      <trkpt lat="43.18614" lon="1.0304">
        <ele>307.2</ele>
        <time>2024-08-12T07:16:39Z</time>
      </trkpt>
      <trkpt lat="43.18613" lon="1.03037">
        <ele>307.6</ele>
        <time>2024-08-12T07:16:40Z</time>
      </trkpt>
      <trkpt lat="43.18613" lon="1.03035">
        <ele>308</ele>
        <time>2024-08-12T07:16:41Z</time>
      </trkpt>
      <trkpt lat="43.18613" lon="1.03032">
        <ele>308.4</ele>
        <time>2024-08-12T07:16:42Z</time>
      </trkpt>
      <trkpt lat="43.18613" lon="1.03029">
        <ele>308.8</ele>
        <time>2024-08-12T07:16:43Z</time>
      </trkpt>
      <trkpt lat="43.18613" lon="1.03016">
        <ele>309.2</ele>
        <time>2024-08-12T07:16:47Z</time>
      </trkpt>
      <trkpt lat="43.18613" lon="1.03013">
        <ele>309.6</ele>
        <time>2024-08-12T07:16:48Z</time>
      </trkpt>
      <trkpt lat="43.18613" lon="1.0301">
        <ele>310</ele>
        <time>2024-08-12T07:16:49Z</time>
      </trkpt>
      <trkpt lat="43.18613" lon="1.03007">
        <ele>310.4</ele>
        <time>2024-08-12T07:16:50Z</time>
      </trkpt>
      <trkpt lat="43.18614" lon="1.03004">
        <ele>310.8</ele>
        <time>2024-08-12T07:16:51Z</time>
      </trkpt>
      <trkpt lat="43.18615" lon="1.02998">
        <ele>310.8</ele>
        <time>2024-08-12T07:16:53Z</time>
      </trkpt>
      <trkpt lat="43.18617" lon="1.02996">
        <ele>310.8</ele>
        <time>2024-08-12T07:16:54Z</time>
      </trkpt>
      <trkpt lat="43.18618" lon="1.02987">
        <ele>310.8</ele>
        <time>2024-08-12T07:16:57Z</time>
      </trkpt>
      <trkpt lat="43.18618" lon="1.02979">
        <ele>311.2</ele>
        <time>2024-08-12T07:17:00Z</time>
      </trkpt>
      <trkpt lat="43.18619" lon="1.02976">
        <ele>311.8</ele>
        <time>2024-08-12T07:17:01Z</time>
      </trkpt>
      <trkpt lat="43.18619" lon="1.02973">
        <ele>312.2</ele>
        <time>2024-08-12T07:17:02Z</time>
      </trkpt>
      <trkpt lat="43.1862" lon="1.02971">
        <ele>312.6</ele>
        <time>2024-08-12T07:17:03Z</time>
      </trkpt>
      <trkpt lat="43.18622" lon="1.02968">
        <ele>313</ele>
        <time>2024-08-12T07:17:04Z</time>
      </trkpt>
      <trkpt lat="43.18623" lon="1.02965">
        <ele>313</ele>
        <time>2024-08-12T07:17:05Z</time>
      </trkpt>
      <trkpt lat="43.18623" lon="1.0296">
        <ele>313</ele>
        <time>2024-08-12T07:17:07Z</time>
      </trkpt>
      <trkpt lat="43.18624" lon="1.02957">
        <ele>313</ele>
        <time>2024-08-12T07:17:09Z</time>
      </trkpt>
      <trkpt lat="43.18626" lon="1.02954">
        <ele>313.4</ele>
        <time>2024-08-12T07:17:10Z</time>
      </trkpt>
      <trkpt lat="43.18627" lon="1.02952">
        <ele>313.8</ele>
        <time>2024-08-12T07:17:11Z</time>
      </trkpt>
      <trkpt lat="43.18628" lon="1.0295">
        <ele>314.2</ele>
        <time>2024-08-12T07:17:12Z</time>
      </trkpt>
      <trkpt lat="43.18629" lon="1.02948">
        <ele>314.6</ele>
        <time>2024-08-12T07:17:13Z</time>
      </trkpt>
      <trkpt lat="43.18629" lon="1.02946">
        <ele>315</ele>
        <time>2024-08-12T07:17:14Z</time>
      </trkpt>
      <trkpt lat="43.18629" lon="1.0294">
        <ele>315.6</ele>
        <time>2024-08-12T07:17:16Z</time>
      </trkpt>
      <trkpt lat="43.1863" lon="1.02938">
        <ele>316</ele>
        <time>2024-08-12T07:17:17Z</time>
      </trkpt>
      <trkpt lat="43.18629" lon="1.02935">
        <ele>316.4</ele>
        <time>2024-08-12T07:17:18Z</time>
      </trkpt>
      <trkpt lat="43.18628" lon="1.02934">
        <ele>316.8</ele>
        <time>2024-08-12T07:17:19Z</time>
      </trkpt>
      <trkpt lat="43.18627" lon="1.02932">
        <ele>317.2</ele>
        <time>2024-08-12T07:17:20Z</time>
      </trkpt>
      <trkpt lat="43.18626" lon="1.02931">
        <ele>317.2</ele>
        <time>2024-08-12T07:17:21Z</time>
      </trkpt>
      <trkpt lat="43.18625" lon="1.02929">
        <ele>318.2</ele>
        <time>2024-08-12T07:17:22Z</time>
      </trkpt>
      <trkpt lat="43.18624" lon="1.02928">
        <ele>318.6</ele>
        <time>2024-08-12T07:17:23Z</time>
      </trkpt>
      <trkpt lat="43.18623" lon="1.02926">
        <ele>319.2</ele>
        <time>2024-08-12T07:17:24Z</time>
      </trkpt>
      <trkpt lat="43.18622" lon="1.02925">
        <ele>319.6</ele>
        <time>2024-08-12T07:17:25Z</time>
      </trkpt>
      <trkpt lat="43.1862" lon="1.02922">
        <ele>319.6</ele>
        <time>2024-08-12T07:17:27Z</time>
      </trkpt>
      <trkpt lat="43.18619" lon="1.0292">
        <ele>320</ele>
        <time>2024-08-12T07:17:28Z</time>
      </trkpt>
      <trkpt lat="43.18618" lon="1.02919">
        <ele>320.4</ele>
        <time>2024-08-12T07:17:29Z</time>
      </trkpt>
      <trkpt lat="43.18617" lon="1.02917">
        <ele>321</ele>
        <time>2024-08-12T07:17:30Z</time>
      </trkpt>
      <trkpt lat="43.18615" lon="1.02916">
        <ele>321.4</ele>
        <time>2024-08-12T07:17:31Z</time>
      </trkpt>
      <trkpt lat="43.18614" lon="1.02915">
        <ele>321.8</ele>
        <time>2024-08-12T07:17:32Z</time>
      </trkpt>
      <trkpt lat="43.18614" lon="1.02914">
        <ele>321.8</ele>
        <time>2024-08-12T07:17:33Z</time>
      </trkpt>
      <trkpt lat="43.18612" lon="1.02913">
        <ele>322.2</ele>
        <time>2024-08-12T07:17:34Z</time>
      </trkpt>
      <trkpt lat="43.1861" lon="1.02912">
        <ele>322.6</ele>
        <time>2024-08-12T07:17:35Z</time>
      </trkpt>
      <trkpt lat="43.18609" lon="1.02911">
        <ele>323.2</ele>
        <time>2024-08-12T07:17:36Z</time>
      </trkpt>
      <trkpt lat="43.18608" lon="1.0291">
        <ele>323.6</ele>
        <time>2024-08-12T07:17:37Z</time>
      </trkpt>
      <trkpt lat="43.18607" lon="1.02909">
        <ele>324</ele>
        <time>2024-08-12T07:17:38Z</time>
      </trkpt>
      <trkpt lat="43.18604" lon="1.02906">
        <ele>324.4</ele>
        <time>2024-08-12T07:17:40Z</time>
      </trkpt>
      <trkpt lat="43.18602" lon="1.02904">
        <ele>325</ele>
        <time>2024-08-12T07:17:41Z</time>
      </trkpt>
      <trkpt lat="43.18601" lon="1.02902">
        <ele>325.4</ele>
        <time>2024-08-12T07:17:42Z</time>
      </trkpt>
      <trkpt lat="43.186" lon="1.02901">
        <ele>325.8</ele>
        <time>2024-08-12T07:17:43Z</time>
      </trkpt>
      <trkpt lat="43.18598" lon="1.029">
        <ele>326.4</ele>
        <time>2024-08-12T07:17:44Z</time>
      </trkpt>
      <trkpt lat="43.18597" lon="1.02899">
        <ele>326.8</ele>
        <time>2024-08-12T07:17:45Z</time>
      </trkpt>
      <trkpt lat="43.18595" lon="1.02898">
        <ele>327.2</ele>
        <time>2024-08-12T07:17:46Z</time>
      </trkpt>
      <trkpt lat="43.18594" lon="1.02897">
        <ele>327.6</ele>
        <time>2024-08-12T07:17:47Z</time>
      </trkpt>
      <trkpt lat="43.18592" lon="1.02896">
        <ele>328.6</ele>
        <time>2024-08-12T07:17:48Z</time>
      </trkpt>
      <trkpt lat="43.18589" lon="1.02894">
        <ele>329</ele>
        <time>2024-08-12T07:17:50Z</time>
      </trkpt>
      <trkpt lat="43.18588" lon="1.02893">
        <ele>329.6</ele>
        <time>2024-08-12T07:17:51Z</time>
      </trkpt>
      <trkpt lat="43.18587" lon="1.02891">
        <ele>330</ele>
        <time>2024-08-12T07:17:52Z</time>
      </trkpt>
      <trkpt lat="43.18585" lon="1.0289">
        <ele>330.4</ele>
        <time>2024-08-12T07:17:53Z</time>
      </trkpt>
      <trkpt lat="43.18583" lon="1.02888">
        <ele>331</ele>
        <time>2024-08-12T07:17:54Z</time>
      </trkpt>
      <trkpt lat="43.1858" lon="1.02886">
        <ele>331</ele>
        <time>2024-08-12T07:17:56Z</time>
      </trkpt>
      <trkpt lat="43.18577" lon="1.02883">
        <ele>331.4</ele>
        <time>2024-08-12T07:17:59Z</time>
      </trkpt>
      <trkpt lat="43.18575" lon="1.02882">
        <ele>331.8</ele>
        <time>2024-08-12T07:18:00Z</time>
      </trkpt>
      <trkpt lat="43.18573" lon="1.02881">
        <ele>332.2</ele>
        <time>2024-08-12T07:18:01Z</time>
      </trkpt>
      <trkpt lat="43.18572" lon="1.0288">
        <ele>332.6</ele>
        <time>2024-08-12T07:18:02Z</time>
      </trkpt>
      <trkpt lat="43.1857" lon="1.02879">
        <ele>333</ele>
        <time>2024-08-12T07:18:03Z</time>
      </trkpt>
      <trkpt lat="43.18568" lon="1.02876">
        <ele>333</ele>
        <time>2024-08-12T07:18:05Z</time>
      </trkpt>
      <trkpt lat="43.18565" lon="1.02874">
        <ele>333.4</ele>
        <time>2024-08-12T07:18:07Z</time>
      </trkpt>
      <trkpt lat="43.18564" lon="1.02873">
        <ele>334</ele>
        <time>2024-08-12T07:18:08Z</time>
      </trkpt>
      <trkpt lat="43.18563" lon="1.02871">
        <ele>334.4</ele>
        <time>2024-08-12T07:18:09Z</time>
      </trkpt>
      <trkpt lat="43.18562" lon="1.02869">
        <ele>334.8</ele>
        <time>2024-08-12T07:18:10Z</time>
      </trkpt>
      <trkpt lat="43.18561" lon="1.02868">
        <ele>335.2</ele>
        <time>2024-08-12T07:18:11Z</time>
      </trkpt>
      <trkpt lat="43.1856" lon="1.02866">
        <ele>335.2</ele>
        <time>2024-08-12T07:18:12Z</time>
      </trkpt>
      <trkpt lat="43.18557" lon="1.02863">
        <ele>335.6</ele>
        <time>2024-08-12T07:18:14Z</time>
      </trkpt>
      <trkpt lat="43.18556" lon="1.02861">
        <ele>336</ele>
        <time>2024-08-12T07:18:15Z</time>
      </trkpt>
      <trkpt lat="43.18555" lon="1.0286">
        <ele>336.4</ele>
        <time>2024-08-12T07:18:16Z</time>
      </trkpt>
      <trkpt lat="43.18553" lon="1.02858">
        <ele>336.8</ele>
        <time>2024-08-12T07:18:17Z</time>
      </trkpt>
      <trkpt lat="43.18552" lon="1.02857">
        <ele>337.4</ele>
        <time>2024-08-12T07:18:18Z</time>
      </trkpt>
      <trkpt lat="43.1855" lon="1.0285">
        <ele>337.4</ele>
        <time>2024-08-12T07:18:21Z</time>
      </trkpt>
      <trkpt lat="43.18549" lon="1.0284">
        <ele>337.4</ele>
        <time>2024-08-12T07:18:25Z</time>
      </trkpt>
      <trkpt lat="43.18549" lon="1.02836">
        <ele>337.4</ele>
        <time>2024-08-12T07:18:26Z</time>
      </trkpt>
      <trkpt lat="43.18549" lon="1.0283">
        <ele>337.4</ele>
        <time>2024-08-12T07:18:28Z</time>
      </trkpt>
      <trkpt lat="43.18549" lon="1.02822">
        <ele>337.4</ele>
        <time>2024-08-12T07:18:30Z</time>
      </trkpt>
      <trkpt lat="43.1855" lon="1.028">
        <ele>337.4</ele>
        <time>2024-08-12T07:18:36Z</time>
      </trkpt>
      <trkpt lat="43.1855" lon="1.02797">
        <ele>337.4</ele>
        <time>2024-08-12T07:18:37Z</time>
      </trkpt>
      <trkpt lat="43.18549" lon="1.02789">
        <ele>337.4</ele>
        <time>2024-08-12T07:18:40Z</time>
      </trkpt>
      <trkpt lat="43.18549" lon="1.02784">
        <ele>337.4</ele>
        <time>2024-08-12T07:18:42Z</time>
      </trkpt>
      <trkpt lat="43.18547" lon="1.02772">
        <ele>337.4</ele>
        <time>2024-08-12T07:18:46Z</time>
      </trkpt>
      <trkpt lat="43.18548" lon="1.02768">
        <ele>337.4</ele>
        <time>2024-08-12T07:18:47Z</time>
      </trkpt>
      <trkpt lat="43.18549" lon="1.02754">
        <ele>337.4</ele>
        <time>2024-08-12T07:18:50Z</time>
      </trkpt>
      <trkpt lat="43.18551" lon="1.02726">
        <ele>337.4</ele>
        <time>2024-08-12T07:18:54Z</time>
      </trkpt>
      <trkpt lat="43.18552" lon="1.02718">
        <ele>337.4</ele>
        <time>2024-08-12T07:18:55Z</time>
      </trkpt>
      <trkpt lat="43.18555" lon="1.02701">
        <ele>336.8</ele>
        <time>2024-08-12T07:18:57Z</time>
      </trkpt>
      <trkpt lat="43.18557" lon="1.02692">
        <ele>336.4</ele>
        <time>2024-08-12T07:18:58Z</time>
      </trkpt>
      <trkpt lat="43.18558" lon="1.02682">
        <ele>336</ele>
        <time>2024-08-12T07:18:59Z</time>
      </trkpt>
      <trkpt lat="43.18559" lon="1.02673">
        <ele>335.6</ele>
        <time>2024-08-12T07:19:00Z</time>
      </trkpt>
      <trkpt lat="43.1856" lon="1.02663">
        <ele>335</ele>
        <time>2024-08-12T07:19:01Z</time>
      </trkpt>
      <trkpt lat="43.18561" lon="1.02655">
        <ele>335</ele>
        <time>2024-08-12T07:19:02Z</time>
      </trkpt>
      <trkpt lat="43.18562" lon="1.02646">
        <ele>334</ele>
        <time>2024-08-12T07:19:03Z</time>
      </trkpt>
      <trkpt lat="43.18561" lon="1.02637">
        <ele>333.6</ele>
        <time>2024-08-12T07:19:04Z</time>
      </trkpt>
      <trkpt lat="43.1856" lon="1.02628">
        <ele>333.2</ele>
        <time>2024-08-12T07:19:05Z</time>
      </trkpt>
      <trkpt lat="43.1856" lon="1.02619">
        <ele>332.6</ele>
        <time>2024-08-12T07:19:06Z</time>
      </trkpt>
      <trkpt lat="43.18558" lon="1.02579">
        <ele>332.6</ele>
        <time>2024-08-12T07:19:11Z</time>
      </trkpt>
      <trkpt lat="43.18558" lon="1.02563">
        <ele>332.2</ele>
        <time>2024-08-12T07:19:13Z</time>
      </trkpt>
      <trkpt lat="43.18556" lon="1.02555">
        <ele>331.8</ele>
        <time>2024-08-12T07:19:14Z</time>
      </trkpt>
      <trkpt lat="43.18554" lon="1.02547">
        <ele>331.4</ele>
        <time>2024-08-12T07:19:15Z</time>
      </trkpt>
      <trkpt lat="43.18552" lon="1.0254">
        <ele>330.8</ele>
        <time>2024-08-12T07:19:16Z</time>
      </trkpt>
      <trkpt lat="43.18549" lon="1.02534">
        <ele>330.4</ele>
        <time>2024-08-12T07:19:17Z</time>
      </trkpt>
      <trkpt lat="43.18547" lon="1.02529">
        <ele>330.4</ele>
        <time>2024-08-12T07:19:18Z</time>
      </trkpt>
      <trkpt lat="43.18544" lon="1.02524">
        <ele>330.4</ele>
        <time>2024-08-12T07:19:19Z</time>
      </trkpt>
      <trkpt lat="43.18541" lon="1.02519">
        <ele>330.4</ele>
        <time>2024-08-12T07:19:20Z</time>
      </trkpt>
      <trkpt lat="43.18529" lon="1.02504">
        <ele>330.4</ele>
        <time>2024-08-12T07:19:24Z</time>
      </trkpt>
      <trkpt lat="43.18521" lon="1.02496">
        <ele>330.4</ele>
        <time>2024-08-12T07:19:26Z</time>
      </trkpt>
      <trkpt lat="43.18514" lon="1.0249">
        <ele>330.4</ele>
        <time>2024-08-12T07:19:28Z</time>
      </trkpt>
      <trkpt lat="43.18501" lon="1.02478">
        <ele>330.8</ele>
        <time>2024-08-12T07:19:32Z</time>
      </trkpt>
      <trkpt lat="43.18499" lon="1.02475">
        <ele>331.2</ele>
        <time>2024-08-12T07:19:33Z</time>
      </trkpt>
      <trkpt lat="43.18497" lon="1.02471">
        <ele>331.6</ele>
        <time>2024-08-12T07:19:34Z</time>
      </trkpt>
      <trkpt lat="43.18496" lon="1.02466">
        <ele>332</ele>
        <time>2024-08-12T07:19:35Z</time>
      </trkpt>
      <trkpt lat="43.18494" lon="1.0246">
        <ele>332.4</ele>
        <time>2024-08-12T07:19:36Z</time>
      </trkpt>
      <trkpt lat="43.18495" lon="1.02451">
        <ele>332.4</ele>
        <time>2024-08-12T07:19:38Z</time>
      </trkpt>
      <trkpt lat="43.185" lon="1.02437">
        <ele>332.4</ele>
        <time>2024-08-12T07:19:41Z</time>
      </trkpt>
      <trkpt lat="43.18512" lon="1.02417">
        <ele>332.4</ele>
        <time>2024-08-12T07:19:47Z</time>
      </trkpt>
      <trkpt lat="43.18529" lon="1.02399">
        <ele>332.4</ele>
        <time>2024-08-12T07:19:53Z</time>
      </trkpt>
      <trkpt lat="43.18545" lon="1.02388">
        <ele>332.8</ele>
        <time>2024-08-12T07:19:57Z</time>
      </trkpt>
      <trkpt lat="43.18549" lon="1.02382">
        <ele>333.4</ele>
        <time>2024-08-12T07:19:58Z</time>
      </trkpt>
      <trkpt lat="43.18552" lon="1.02376">
        <ele>333.8</ele>
        <time>2024-08-12T07:19:59Z</time>
      </trkpt>
      <trkpt lat="43.18554" lon="1.02371">
        <ele>334.2</ele>
        <time>2024-08-12T07:20:00Z</time>
      </trkpt>
      <trkpt lat="43.18554" lon="1.02366">
        <ele>334.6</ele>
        <time>2024-08-12T07:20:01Z</time>
      </trkpt>
      <trkpt lat="43.18558" lon="1.02347">
        <ele>334.6</ele>
        <time>2024-08-12T07:20:05Z</time>
      </trkpt>
      <trkpt lat="43.18558" lon="1.02342">
        <ele>334.6</ele>
        <time>2024-08-12T07:20:06Z</time>
      </trkpt>
      <trkpt lat="43.1856" lon="1.02309">
        <ele>334.6</ele>
        <time>2024-08-12T07:20:12Z</time>
      </trkpt>
      <trkpt lat="43.18561" lon="1.02283">
        <ele>334.6</ele>
        <time>2024-08-12T07:20:17Z</time>
      </trkpt>
      <trkpt lat="43.18556" lon="1.02253">
        <ele>334.6</ele>
        <time>2024-08-12T07:20:21Z</time>
      </trkpt>
      <trkpt lat="43.18555" lon="1.02247">
        <ele>334.2</ele>
        <time>2024-08-12T07:20:22Z</time>
      </trkpt>
      <trkpt lat="43.18553" lon="1.02241">
        <ele>333.8</ele>
        <time>2024-08-12T07:20:23Z</time>
      </trkpt>
      <trkpt lat="43.18552" lon="1.02234">
        <ele>333.4</ele>
        <time>2024-08-12T07:20:24Z</time>
      </trkpt>
      <trkpt lat="43.18551" lon="1.02225">
        <ele>333</ele>
        <time>2024-08-12T07:20:25Z</time>
      </trkpt>
      <trkpt lat="43.18551" lon="1.02216">
        <ele>332.6</ele>
        <time>2024-08-12T07:20:26Z</time>
      </trkpt>
      <trkpt lat="43.1855" lon="1.02198">
        <ele>332.2</ele>
        <time>2024-08-12T07:20:28Z</time>
      </trkpt>
      <trkpt lat="43.18551" lon="1.02188">
        <ele>331.6</ele>
        <time>2024-08-12T07:20:29Z</time>
      </trkpt>
      <trkpt lat="43.1855" lon="1.02179">
        <ele>331.2</ele>
        <time>2024-08-12T07:20:30Z</time>
      </trkpt>
      <trkpt lat="43.18549" lon="1.02169">
        <ele>330.6</ele>
        <time>2024-08-12T07:20:31Z</time>
      </trkpt>
      <trkpt lat="43.18549" lon="1.02158">
        <ele>330.2</ele>
        <time>2024-08-12T07:20:32Z</time>
      </trkpt>
      <trkpt lat="43.18548" lon="1.02148">
        <ele>329.6</ele>
        <time>2024-08-12T07:20:33Z</time>
      </trkpt>
      <trkpt lat="43.18546" lon="1.02137">
        <ele>329</ele>
        <time>2024-08-12T07:20:34Z</time>
      </trkpt>
      <trkpt lat="43.18544" lon="1.02128">
        <ele>328.4</ele>
        <time>2024-08-12T07:20:35Z</time>
      </trkpt>
      <trkpt lat="43.18542" lon="1.02118">
        <ele>327.8</ele>
        <time>2024-08-12T07:20:36Z</time>
      </trkpt>
      <trkpt lat="43.18539" lon="1.02108">
        <ele>327.2</ele>
        <time>2024-08-12T07:20:37Z</time>
      </trkpt>
      <trkpt lat="43.18536" lon="1.021">
        <ele>326.4</ele>
        <time>2024-08-12T07:20:38Z</time>
      </trkpt>
      <trkpt lat="43.18532" lon="1.02093">
        <ele>325.8</ele>
        <time>2024-08-12T07:20:39Z</time>
      </trkpt>
      <trkpt lat="43.18529" lon="1.02087">
        <ele>325</ele>
        <time>2024-08-12T07:20:40Z</time>
      </trkpt>
      <trkpt lat="43.18527" lon="1.02082">
        <ele>323.6</ele>
        <time>2024-08-12T07:20:41Z</time>
      </trkpt>
      <trkpt lat="43.18525" lon="1.02077">
        <ele>322.8</ele>
        <time>2024-08-12T07:20:42Z</time>
      </trkpt>
      <trkpt lat="43.18521" lon="1.02061">
        <ele>322.8</ele>
        <time>2024-08-12T07:20:45Z</time>
      </trkpt>
      <trkpt lat="43.18527" lon="1.02048">
        <ele>322.8</ele>
        <time>2024-08-12T07:20:48Z</time>
      </trkpt>
      <trkpt lat="43.18537" lon="1.02037">
        <ele>322.8</ele>
        <time>2024-08-12T07:20:52Z</time>
      </trkpt>
      <trkpt lat="43.18539" lon="1.02036">
        <ele>323.2</ele>
        <time>2024-08-12T07:20:53Z</time>
      </trkpt>
      <trkpt lat="43.18539" lon="1.02034">
        <ele>323.6</ele>
        <time>2024-08-12T07:20:54Z</time>
      </trkpt>
      <trkpt lat="43.1854" lon="1.02032">
        <ele>324</ele>
        <time>2024-08-12T07:20:55Z</time>
      </trkpt>
      <trkpt lat="43.18541" lon="1.0203">
        <ele>324.4</ele>
        <time>2024-08-12T07:20:56Z</time>
      </trkpt>
      <trkpt lat="43.18542" lon="1.02028">
        <ele>325</ele>
        <time>2024-08-12T07:20:57Z</time>
      </trkpt>
      <trkpt lat="43.18549" lon="1.02018">
        <ele>325.4</ele>
        <time>2024-08-12T07:21:01Z</time>
      </trkpt>
      <trkpt lat="43.1855" lon="1.02016">
        <ele>325.8</ele>
        <time>2024-08-12T07:21:02Z</time>
      </trkpt>
      <trkpt lat="43.18551" lon="1.02013">
        <ele>326.2</ele>
        <time>2024-08-12T07:21:03Z</time>
      </trkpt>
      <trkpt lat="43.18553" lon="1.02011">
        <ele>326.6</ele>
        <time>2024-08-12T07:21:04Z</time>
      </trkpt>
      <trkpt lat="43.18554" lon="1.02008">
        <ele>327</ele>
        <time>2024-08-12T07:21:05Z</time>
      </trkpt>
      <trkpt lat="43.18559" lon="1.01996">
        <ele>327</ele>
        <time>2024-08-12T07:21:09Z</time>
      </trkpt>
      <trkpt lat="43.18562" lon="1.0197">
        <ele>327</ele>
        <time>2024-08-12T07:21:15Z</time>
      </trkpt>
      <trkpt lat="43.18564" lon="1.01937">
        <ele>327</ele>
        <time>2024-08-12T07:21:20Z</time>
      </trkpt>
      <trkpt lat="43.18564" lon="1.01919">
        <ele>326.4</ele>
        <time>2024-08-12T07:21:22Z</time>
      </trkpt>
      <trkpt lat="43.18564" lon="1.01909">
        <ele>326</ele>
        <time>2024-08-12T07:21:23Z</time>
      </trkpt>
      <trkpt lat="43.18564" lon="1.01899">
        <ele>325.6</ele>
        <time>2024-08-12T07:21:24Z</time>
      </trkpt>
      <trkpt lat="43.18564" lon="1.01889">
        <ele>325</ele>
        <time>2024-08-12T07:21:25Z</time>
      </trkpt>
      <trkpt lat="43.18564" lon="1.01879">
        <ele>324.4</ele>
        <time>2024-08-12T07:21:26Z</time>
      </trkpt>
      <trkpt lat="43.18564" lon="1.0187">
        <ele>323.6</ele>
        <time>2024-08-12T07:21:27Z</time>
      </trkpt>
      <trkpt lat="43.18564" lon="1.01861">
        <ele>322.8</ele>
        <time>2024-08-12T07:21:28Z</time>
      </trkpt>
      <trkpt lat="43.18563" lon="1.01852">
        <ele>322</ele>
        <time>2024-08-12T07:21:29Z</time>
      </trkpt>
      <trkpt lat="43.18562" lon="1.01842">
        <ele>321</ele>
        <time>2024-08-12T07:21:30Z</time>
      </trkpt>
      <trkpt lat="43.18562" lon="1.01834">
        <ele>319</ele>
        <time>2024-08-12T07:21:31Z</time>
      </trkpt>
      <trkpt lat="43.18561" lon="1.01825">
        <ele>318</ele>
        <time>2024-08-12T07:21:32Z</time>
      </trkpt>
      <trkpt lat="43.18561" lon="1.01816">
        <ele>317</ele>
        <time>2024-08-12T07:21:33Z</time>
      </trkpt>
      <trkpt lat="43.1856" lon="1.01807">
        <ele>316</ele>
        <time>2024-08-12T07:21:34Z</time>
      </trkpt>
      <trkpt lat="43.18558" lon="1.01798">
        <ele>314.8</ele>
        <time>2024-08-12T07:21:35Z</time>
      </trkpt>
      <trkpt lat="43.18557" lon="1.01791">
        <ele>313.8</ele>
        <time>2024-08-12T07:21:36Z</time>
      </trkpt>
      <trkpt lat="43.18555" lon="1.01782">
        <ele>312.8</ele>
        <time>2024-08-12T07:21:37Z</time>
      </trkpt>
      <trkpt lat="43.18555" lon="1.01776">
        <ele>311.6</ele>
        <time>2024-08-12T07:21:38Z</time>
      </trkpt>
      <trkpt lat="43.18556" lon="1.01771">
        <ele>310.6</ele>
        <time>2024-08-12T07:21:39Z</time>
      </trkpt>
      <trkpt lat="43.18558" lon="1.01768">
        <ele>309.6</ele>
        <time>2024-08-12T07:21:40Z</time>
      </trkpt>
      <trkpt lat="43.1856" lon="1.01764">
        <ele>308.4</ele>
        <time>2024-08-12T07:21:41Z</time>
      </trkpt>
      <trkpt lat="43.18563" lon="1.01762">
        <ele>307.4</ele>
        <time>2024-08-12T07:21:42Z</time>
      </trkpt>
      <trkpt lat="43.18564" lon="1.0176">
        <ele>306.2</ele>
        <time>2024-08-12T07:21:43Z</time>
      </trkpt>
      <trkpt lat="43.18565" lon="1.01758">
        <ele>305.2</ele>
        <time>2024-08-12T07:21:44Z</time>
      </trkpt>
      <trkpt lat="43.18568" lon="1.01756">
        <ele>304.2</ele>
        <time>2024-08-12T07:21:45Z</time>
      </trkpt>
      <trkpt lat="43.18569" lon="1.01745">
        <ele>304.2</ele>
        <time>2024-08-12T07:21:49Z</time>
      </trkpt>
      <trkpt lat="43.18562" lon="1.01728">
        <ele>304.2</ele>
        <time>2024-08-12T07:21:53Z</time>
      </trkpt>
      <trkpt lat="43.18561" lon="1.01721">
        <ele>305</ele>
        <time>2024-08-12T07:21:55Z</time>
      </trkpt>
      <trkpt lat="43.18562" lon="1.01718">
        <ele>305.4</ele>
        <time>2024-08-12T07:21:56Z</time>
      </trkpt>
      <trkpt lat="43.18562" lon="1.01716">
        <ele>305.8</ele>
        <time>2024-08-12T07:21:57Z</time>
      </trkpt>
      <trkpt lat="43.18562" lon="1.01713">
        <ele>306.2</ele>
        <time>2024-08-12T07:21:58Z</time>
      </trkpt>
      <trkpt lat="43.18562" lon="1.01705">
        <ele>306.8</ele>
        <time>2024-08-12T07:22:00Z</time>
      </trkpt>
      <trkpt lat="43.18561" lon="1.017">
        <ele>307.2</ele>
        <time>2024-08-12T07:22:01Z</time>
      </trkpt>
      <trkpt lat="43.1856" lon="1.01698">
        <ele>307.6</ele>
        <time>2024-08-12T07:22:02Z</time>
      </trkpt>
      <trkpt lat="43.18558" lon="1.01695">
        <ele>308.2</ele>
        <time>2024-08-12T07:22:03Z</time>
      </trkpt>
      <trkpt lat="43.18557" lon="1.01695">
        <ele>308.8</ele>
        <time>2024-08-12T07:22:04Z</time>
      </trkpt>
      <trkpt lat="43.18557" lon="1.01694">
        <ele>309.4</ele>
        <time>2024-08-12T07:22:05Z</time>
      </trkpt>
      <trkpt lat="43.18552" lon="1.01687">
        <ele>311.4</ele>
        <time>2024-08-12T07:22:20Z</time>
      </trkpt>
      <trkpt lat="43.18549" lon="1.01683">
        <ele>311.8</ele>
        <time>2024-08-12T07:22:22Z</time>
      </trkpt>
      <trkpt lat="43.18547" lon="1.01681">
        <ele>312.2</ele>
        <time>2024-08-12T07:22:23Z</time>
      </trkpt>
      <trkpt lat="43.18545" lon="1.01679">
        <ele>312.6</ele>
        <time>2024-08-12T07:22:24Z</time>
      </trkpt>
      <trkpt lat="43.18544" lon="1.01677">
        <ele>313.2</ele>
        <time>2024-08-12T07:22:25Z</time>
      </trkpt>
      <trkpt lat="43.18543" lon="1.01675">
        <ele>313.6</ele>
        <time>2024-08-12T07:22:26Z</time>
      </trkpt>
      <trkpt lat="43.18541" lon="1.01674">
        <ele>313.6</ele>
        <time>2024-08-12T07:22:27Z</time>
      </trkpt>
      <trkpt lat="43.18537" lon="1.01671">
        <ele>314</ele>
        <time>2024-08-12T07:22:30Z</time>
      </trkpt>
      <trkpt lat="43.18536" lon="1.0167">
        <ele>314.4</ele>
        <time>2024-08-12T07:22:31Z</time>
      </trkpt>
      <trkpt lat="43.18534" lon="1.01669">
        <ele>314.8</ele>
        <time>2024-08-12T07:22:32Z</time>
      </trkpt>
      <trkpt lat="43.18532" lon="1.01667">
        <ele>315.4</ele>
        <time>2024-08-12T07:22:33Z</time>
      </trkpt>
      <trkpt lat="43.18531" lon="1.01665">
        <ele>315.8</ele>
        <time>2024-08-12T07:22:34Z</time>
      </trkpt>
      <trkpt lat="43.18528" lon="1.01663">
        <ele>316.2</ele>
        <time>2024-08-12T07:22:36Z</time>
      </trkpt>
      <trkpt lat="43.18526" lon="1.01661">
        <ele>316.6</ele>
        <time>2024-08-12T07:22:37Z</time>
      </trkpt>
      <trkpt lat="43.18525" lon="1.0166">
        <ele>317</ele>
        <time>2024-08-12T07:22:38Z</time>
      </trkpt>
      <trkpt lat="43.18524" lon="1.01659">
        <ele>317.4</ele>
        <time>2024-08-12T07:22:39Z</time>
      </trkpt>
      <trkpt lat="43.18524" lon="1.01657">
        <ele>317.8</ele>
        <time>2024-08-12T07:22:40Z</time>
      </trkpt>
      <trkpt lat="43.18522" lon="1.0165">
        <ele>318.2</ele>
        <time>2024-08-12T07:22:44Z</time>
      </trkpt>
      <trkpt lat="43.18522" lon="1.01649">
        <ele>319.2</ele>
        <time>2024-08-12T07:22:45Z</time>
      </trkpt>
      <trkpt lat="43.18522" lon="1.01647">
        <ele>319.6</ele>
        <time>2024-08-12T07:22:46Z</time>
      </trkpt>
      <trkpt lat="43.18522" lon="1.01646">
        <ele>320</ele>
        <time>2024-08-12T07:22:47Z</time>
      </trkpt>
      <trkpt lat="43.1852" lon="1.01643">
        <ele>320</ele>
        <time>2024-08-12T07:22:48Z</time>
      </trkpt>
      <trkpt lat="43.1852" lon="1.01638">
        <ele>320.4</ele>
        <time>2024-08-12T07:22:51Z</time>
      </trkpt>
      <trkpt lat="43.18518" lon="1.01636">
        <ele>320.8</ele>
        <time>2024-08-12T07:22:52Z</time>
      </trkpt>
      <trkpt lat="43.18516" lon="1.01633">
        <ele>321.2</ele>
        <time>2024-08-12T07:22:53Z</time>
      </trkpt>
      <trkpt lat="43.18514" lon="1.0163">
        <ele>321.6</ele>
        <time>2024-08-12T07:22:54Z</time>
      </trkpt>
      <trkpt lat="43.18513" lon="1.01628">
        <ele>322</ele>
        <time>2024-08-12T07:22:55Z</time>
      </trkpt>
      <trkpt lat="43.18506" lon="1.01618">
        <ele>322</ele>
        <time>2024-08-12T07:22:59Z</time>
      </trkpt>
      <trkpt lat="43.18505" lon="1.01617">
        <ele>322.4</ele>
        <time>2024-08-12T07:23:00Z</time>
      </trkpt>
      <trkpt lat="43.18505" lon="1.01616">
        <ele>322.8</ele>
        <time>2024-08-12T07:23:01Z</time>
      </trkpt>
      <trkpt lat="43.18503" lon="1.01614">
        <ele>323.4</ele>
        <time>2024-08-12T07:23:02Z</time>
      </trkpt>
      <trkpt lat="43.18501" lon="1.01613">
        <ele>323.8</ele>
        <time>2024-08-12T07:23:03Z</time>
      </trkpt>
      <trkpt lat="43.18498" lon="1.01612">
        <ele>324.2</ele>
        <time>2024-08-12T07:23:04Z</time>
      </trkpt>
      <trkpt lat="43.18495" lon="1.01607">
        <ele>324.6</ele>
        <time>2024-08-12T07:23:07Z</time>
      </trkpt>
      <trkpt lat="43.18495" lon="1.01605">
        <ele>325.2</ele>
        <time>2024-08-12T07:23:08Z</time>
      </trkpt>
      <trkpt lat="43.18494" lon="1.01603">
        <ele>325.6</ele>
        <time>2024-08-12T07:23:09Z</time>
      </trkpt>
      <trkpt lat="43.18493" lon="1.016">
        <ele>326.6</ele>
        <time>2024-08-12T07:23:10Z</time>
      </trkpt>
      <trkpt lat="43.18491" lon="1.01593">
        <ele>327</ele>
        <time>2024-08-12T07:23:13Z</time>
      </trkpt>
      <trkpt lat="43.1849" lon="1.01591">
        <ele>327.4</ele>
        <time>2024-08-12T07:23:14Z</time>
      </trkpt>
      <trkpt lat="43.18489" lon="1.01588">
        <ele>327.8</ele>
        <time>2024-08-12T07:23:15Z</time>
      </trkpt>
      <trkpt lat="43.18488" lon="1.01587">
        <ele>328.2</ele>
        <time>2024-08-12T07:23:16Z</time>
      </trkpt>
      <trkpt lat="43.18487" lon="1.01585">
        <ele>328.6</ele>
        <time>2024-08-12T07:23:17Z</time>
      </trkpt>
      <trkpt lat="43.18486" lon="1.01583">
        <ele>328.6</ele>
        <time>2024-08-12T07:23:18Z</time>
      </trkpt>
      <trkpt lat="43.18486" lon="1.01581">
        <ele>329</ele>
        <time>2024-08-12T07:23:19Z</time>
      </trkpt>
      <trkpt lat="43.18485" lon="1.01579">
        <ele>329.4</ele>
        <time>2024-08-12T07:23:20Z</time>
      </trkpt>
      <trkpt lat="43.18484" lon="1.01577">
        <ele>329.8</ele>
        <time>2024-08-12T07:23:21Z</time>
      </trkpt>
      <trkpt lat="43.18484" lon="1.01575">
        <ele>330.2</ele>
        <time>2024-08-12T07:23:22Z</time>
      </trkpt>
      <trkpt lat="43.18483" lon="1.01573">
        <ele>330.8</ele>
        <time>2024-08-12T07:23:23Z</time>
      </trkpt>
      <trkpt lat="43.18482" lon="1.01572">
        <ele>330.8</ele>
        <time>2024-08-12T07:23:24Z</time>
      </trkpt>
      <trkpt lat="43.1848" lon="1.01571">
        <ele>330.8</ele>
        <time>2024-08-12T07:23:25Z</time>
      </trkpt>
      <trkpt lat="43.1848" lon="1.01569">
        <ele>331.2</ele>
        <time>2024-08-12T07:23:26Z</time>
      </trkpt>
      <trkpt lat="43.18479" lon="1.01567">
        <ele>331.6</ele>
        <time>2024-08-12T07:23:27Z</time>
      </trkpt>
      <trkpt lat="43.18479" lon="1.01565">
        <ele>332</ele>
        <time>2024-08-12T07:23:28Z</time>
      </trkpt>
      <trkpt lat="43.18478" lon="1.01563">
        <ele>332.6</ele>
        <time>2024-08-12T07:23:29Z</time>
      </trkpt>
      <trkpt lat="43.18478" lon="1.01561">
        <ele>333</ele>
        <time>2024-08-12T07:23:30Z</time>
      </trkpt>
      <trkpt lat="43.18476" lon="1.01558">
        <ele>333.4</ele>
        <time>2024-08-12T07:23:32Z</time>
      </trkpt>
      <trkpt lat="43.18476" lon="1.01556">
        <ele>333.8</ele>
        <time>2024-08-12T07:23:33Z</time>
      </trkpt>
      <trkpt lat="43.18476" lon="1.01554">
        <ele>334.6</ele>
        <time>2024-08-12T07:23:34Z</time>
      </trkpt>
      <trkpt lat="43.18475" lon="1.01552">
        <ele>335</ele>
        <time>2024-08-12T07:23:35Z</time>
      </trkpt>
      <trkpt lat="43.18474" lon="1.01549">
        <ele>335.6</ele>
        <time>2024-08-12T07:23:37Z</time>
      </trkpt>
      <trkpt lat="43.18473" lon="1.01547">
        <ele>336</ele>
        <time>2024-08-12T07:23:38Z</time>
      </trkpt>
      <trkpt lat="43.18473" lon="1.01546">
        <ele>336.4</ele>
        <time>2024-08-12T07:23:39Z</time>
      </trkpt>
      <trkpt lat="43.18472" lon="1.01544">
        <ele>336.8</ele>
        <time>2024-08-12T07:23:40Z</time>
      </trkpt>
      <trkpt lat="43.1847" lon="1.01543">
        <ele>337.2</ele>
        <time>2024-08-12T07:23:41Z</time>
      </trkpt>
      <trkpt lat="43.18469" lon="1.01539">
        <ele>337.8</ele>
        <time>2024-08-12T07:23:43Z</time>
      </trkpt>
      <trkpt lat="43.18468" lon="1.01538">
        <ele>338.2</ele>
        <time>2024-08-12T07:23:44Z</time>
      </trkpt>
      <trkpt lat="43.18467" lon="1.01537">
        <ele>338.6</ele>
        <time>2024-08-12T07:23:45Z</time>
      </trkpt>
      <trkpt lat="43.18466" lon="1.01535">
        <ele>339.2</ele>
        <time>2024-08-12T07:23:46Z</time>
      </trkpt>
      <trkpt lat="43.18464" lon="1.01534">
        <ele>339.6</ele>
        <time>2024-08-12T07:23:47Z</time>
      </trkpt>
      <trkpt lat="43.18463" lon="1.01533">
        <ele>340.2</ele>
        <time>2024-08-12T07:23:48Z</time>
      </trkpt>
      <trkpt lat="43.18462" lon="1.01532">
        <ele>340.6</ele>
        <time>2024-08-12T07:23:49Z</time>
      </trkpt>
      <trkpt lat="43.18461" lon="1.01531">
        <ele>341</ele>
        <time>2024-08-12T07:23:50Z</time>
      </trkpt>
      <trkpt lat="43.1846" lon="1.01531">
        <ele>341.4</ele>
        <time>2024-08-12T07:23:51Z</time>
      </trkpt>
      <trkpt lat="43.18459" lon="1.0153">
        <ele>341.8</ele>
        <time>2024-08-12T07:23:52Z</time>
      </trkpt>
      <trkpt lat="43.18458" lon="1.01527">
        <ele>342.4</ele>
        <time>2024-08-12T07:23:54Z</time>
      </trkpt>
      <trkpt lat="43.18457" lon="1.01525">
        <ele>342.8</ele>
        <time>2024-08-12T07:23:55Z</time>
      </trkpt>
      <trkpt lat="43.18456" lon="1.01523">
        <ele>343.2</ele>
        <time>2024-08-12T07:23:56Z</time>
      </trkpt>
      <trkpt lat="43.18455" lon="1.01522">
        <ele>343.6</ele>
        <time>2024-08-12T07:23:57Z</time>
      </trkpt>
      <trkpt lat="43.18454" lon="1.01521">
        <ele>344</ele>
        <time>2024-08-12T07:23:58Z</time>
      </trkpt>
      <trkpt lat="43.18452" lon="1.01521">
        <ele>344.6</ele>
        <time>2024-08-12T07:23:59Z</time>
      </trkpt>
      <trkpt lat="43.18451" lon="1.0152">
        <ele>345.4</ele>
        <time>2024-08-12T07:24:00Z</time>
      </trkpt>
      <trkpt lat="43.18449" lon="1.01519">
        <ele>346</ele>
        <time>2024-08-12T07:24:01Z</time>
      </trkpt>
      <trkpt lat="43.18449" lon="1.01519">
        <ele>346.4</ele>
        <time>2024-08-12T07:24:02Z</time>
      </trkpt>
      <trkpt lat="43.18437" lon="1.01499">
        <ele>351</ele>
        <time>2024-08-12T07:24:19Z</time>
      </trkpt>
      <trkpt lat="43.18437" lon="1.01498">
        <ele>351.4</ele>
        <time>2024-08-12T07:24:20Z</time>
      </trkpt>
      <trkpt lat="43.18429" lon="1.0149">
        <ele>355.8</ele>
        <time>2024-08-12T07:24:50Z</time>
      </trkpt>
      <trkpt lat="43.18428" lon="1.0149">
        <ele>356.2</ele>
        <time>2024-08-12T07:24:51Z</time>
      </trkpt>
      <trkpt lat="43.18427" lon="1.01489">
        <ele>356.6</ele>
        <time>2024-08-12T07:24:52Z</time>
      </trkpt>
      <trkpt lat="43.18426" lon="1.01489">
        <ele>357.2</ele>
        <time>2024-08-12T07:24:53Z</time>
      </trkpt>
      <trkpt lat="43.18425" lon="1.01489">
        <ele>357.6</ele>
        <time>2024-08-12T07:24:54Z</time>
      </trkpt>
      <trkpt lat="43.18401" lon="1.01483">
        <ele>368</ele>
        <time>2024-08-12T07:26:04Z</time>
      </trkpt>
      <trkpt lat="43.184" lon="1.01481">
        <ele>368.4</ele>
        <time>2024-08-12T07:26:05Z</time>
      </trkpt>
      <trkpt lat="43.18399" lon="1.0148">
        <ele>368.8</ele>
        <time>2024-08-12T07:26:06Z</time>
      </trkpt>
      <trkpt lat="43.18398" lon="1.01479">
        <ele>369.4</ele>
        <time>2024-08-12T07:26:07Z</time>
      </trkpt>
      <trkpt lat="43.18396" lon="1.01478">
        <ele>369.8</ele>
        <time>2024-08-12T07:26:08Z</time>
      </trkpt>
      <trkpt lat="43.18395" lon="1.01477">
        <ele>370.2</ele>
        <time>2024-08-12T07:26:09Z</time>
      </trkpt>
      <trkpt lat="43.18393" lon="1.01474">
        <ele>370.8</ele>
        <time>2024-08-12T07:26:11Z</time>
      </trkpt>
      <trkpt lat="43.18392" lon="1.01473">
        <ele>371.2</ele>
        <time>2024-08-12T07:26:12Z</time>
      </trkpt>
      <trkpt lat="43.1839" lon="1.01472">
        <ele>371.6</ele>
        <time>2024-08-12T07:26:13Z</time>
      </trkpt>
      <trkpt lat="43.18389" lon="1.0147">
        <ele>372</ele>
        <time>2024-08-12T07:26:14Z</time>
      </trkpt>
      <trkpt lat="43.18388" lon="1.01469">
        <ele>372.6</ele>
        <time>2024-08-12T07:26:15Z</time>
      </trkpt>
      <trkpt lat="43.18386" lon="1.01466">
        <ele>373</ele>
        <time>2024-08-12T07:26:17Z</time>
      </trkpt>
      <trkpt lat="43.18385" lon="1.01464">
        <ele>373.4</ele>
        <time>2024-08-12T07:26:18Z</time>
      </trkpt>
      <trkpt lat="43.18383" lon="1.01462">
        <ele>373.8</ele>
        <time>2024-08-12T07:26:19Z</time>
      </trkpt>
      <trkpt lat="43.18382" lon="1.01461">
        <ele>374.2</ele>
        <time>2024-08-12T07:26:20Z</time>
      </trkpt>
      <trkpt lat="43.18381" lon="1.0146">
        <ele>374.8</ele>
        <time>2024-08-12T07:26:21Z</time>
      </trkpt>
      <trkpt lat="43.18379" lon="1.01457">
        <ele>375.2</ele>
        <time>2024-08-12T07:26:23Z</time>
      </trkpt>
      <trkpt lat="43.18378" lon="1.01455">
        <ele>375.6</ele>
        <time>2024-08-12T07:26:24Z</time>
      </trkpt>
      <trkpt lat="43.18378" lon="1.01454">
        <ele>376</ele>
        <time>2024-08-12T07:26:25Z</time>
      </trkpt>
      <trkpt lat="43.18377" lon="1.01453">
        <ele>376.4</ele>
        <time>2024-08-12T07:26:26Z</time>
      </trkpt>
      <trkpt lat="43.18375" lon="1.01451">
        <ele>376.8</ele>
        <time>2024-08-12T07:26:27Z</time>
      </trkpt>
      <trkpt lat="43.18373" lon="1.01448">
        <ele>377.2</ele>
        <time>2024-08-12T07:26:29Z</time>
      </trkpt>
      <trkpt lat="43.18372" lon="1.01446">
        <ele>377.6</ele>
        <time>2024-08-12T07:26:30Z</time>
      </trkpt>
      <trkpt lat="43.18371" lon="1.01445">
        <ele>378.2</ele>
        <time>2024-08-12T07:26:31Z</time>
      </trkpt>
      <trkpt lat="43.1837" lon="1.01444">
        <ele>378.6</ele>
        <time>2024-08-12T07:26:32Z</time>
      </trkpt>
      <trkpt lat="43.1837" lon="1.01442">
        <ele>379</ele>
        <time>2024-08-12T07:26:33Z</time>
      </trkpt>
      <trkpt lat="43.18369" lon="1.0144">
        <ele>379</ele>
        <time>2024-08-12T07:26:34Z</time>
      </trkpt>
      <trkpt lat="43.18368" lon="1.01435">
        <ele>379</ele>
        <time>2024-08-12T07:26:36Z</time>
      </trkpt>
      <trkpt lat="43.18366" lon="1.01428">
        <ele>379.4</ele>
        <time>2024-08-12T07:26:40Z</time>
      </trkpt>
      <trkpt lat="43.18365" lon="1.01426">
        <ele>379.8</ele>
        <time>2024-08-12T07:26:41Z</time>
      </trkpt>
      <trkpt lat="43.18364" lon="1.01425">
        <ele>380.2</ele>
        <time>2024-08-12T07:26:42Z</time>
      </trkpt>
      <trkpt lat="43.18364" lon="1.01424">
        <ele>380.8</ele>
        <time>2024-08-12T07:26:43Z</time>
      </trkpt>
      <trkpt lat="43.18364" lon="1.01424">
        <ele>381.2</ele>
        <time>2024-08-12T07:26:44Z</time>
      </trkpt>
      <trkpt lat="43.18363" lon="1.01423">
        <ele>381.2</ele>
        <time>2024-08-12T07:26:45Z</time>
      </trkpt>
      <trkpt lat="43.18364" lon="1.01417">
        <ele>383.2</ele>
        <time>2024-08-12T07:32:44Z</time>
      </trkpt>
      <trkpt lat="43.18365" lon="1.01415">
        <ele>383.2</ele>
        <time>2024-08-12T07:32:45Z</time>
      </trkpt>
      <trkpt lat="43.18369" lon="1.01404">
        <ele>383.2</ele>
        <time>2024-08-12T07:32:49Z</time>
      </trkpt>
      <trkpt lat="43.18369" lon="1.01399">
        <ele>383.2</ele>
        <time>2024-08-12T07:32:52Z</time>
      </trkpt>
      <trkpt lat="43.18368" lon="1.01395">
        <ele>383.2</ele>
        <time>2024-08-12T07:32:54Z</time>
      </trkpt>
      <trkpt lat="43.18369" lon="1.01391">
        <ele>383.2</ele>
        <time>2024-08-12T07:32:55Z</time>
      </trkpt>
      <trkpt lat="43.18371" lon="1.01381">
        <ele>383.2</ele>
        <time>2024-08-12T07:32:59Z</time>
      </trkpt>
      <trkpt lat="43.18373" lon="1.01379">
        <ele>383.2</ele>
        <time>2024-08-12T07:33:00Z</time>
      </trkpt>
      <trkpt lat="43.18381" lon="1.0137">
        <ele>383.2</ele>
        <time>2024-08-12T07:33:04Z</time>
      </trkpt>
      <trkpt lat="43.18387" lon="1.01358">
        <ele>383.2</ele>
        <time>2024-08-12T07:33:08Z</time>
      </trkpt>
      <trkpt lat="43.18388" lon="1.01349">
        <ele>383.2</ele>
        <time>2024-08-12T07:33:11Z</time>
      </trkpt>
      <trkpt lat="43.1839" lon="1.01338">
        <ele>383.2</ele>
        <time>2024-08-12T07:33:14Z</time>
      </trkpt>
      <trkpt lat="43.18391" lon="1.01319">
        <ele>383.2</ele>
        <time>2024-08-12T07:33:19Z</time>
      </trkpt>
      <trkpt lat="43.18393" lon="1.01315">
        <ele>382.6</ele>
        <time>2024-08-12T07:33:20Z</time>
      </trkpt>
      <trkpt lat="43.18394" lon="1.01311">
        <ele>382.2</ele>
        <time>2024-08-12T07:33:21Z</time>
      </trkpt>
      <trkpt lat="43.18396" lon="1.01309">
        <ele>381.8</ele>
        <time>2024-08-12T07:33:22Z</time>
      </trkpt>
      <trkpt lat="43.18397" lon="1.01307">
        <ele>381.4</ele>
        <time>2024-08-12T07:33:23Z</time>
      </trkpt>
      <trkpt lat="43.18399" lon="1.01303">
        <ele>381</ele>
        <time>2024-08-12T07:33:24Z</time>
      </trkpt>
      <trkpt lat="43.18401" lon="1.01299">
        <ele>380.4</ele>
        <time>2024-08-12T07:33:25Z</time>
      </trkpt>
      <trkpt lat="43.18401" lon="1.01294">
        <ele>380</ele>
        <time>2024-08-12T07:33:26Z</time>
      </trkpt>
      <trkpt lat="43.18401" lon="1.01289">
        <ele>379.6</ele>
        <time>2024-08-12T07:33:27Z</time>
      </trkpt>
      <trkpt lat="43.184" lon="1.01283">
        <ele>378.8</ele>
        <time>2024-08-12T07:33:28Z</time>
      </trkpt>
      <trkpt lat="43.18399" lon="1.01278">
        <ele>378.8</ele>
        <time>2024-08-12T07:33:29Z</time>
      </trkpt>
      <trkpt lat="43.18399" lon="1.01271">
        <ele>378.8</ele>
        <time>2024-08-12T07:33:32Z</time>
      </trkpt>
      <trkpt lat="43.18398" lon="1.01268">
        <ele>378.4</ele>
        <time>2024-08-12T07:33:33Z</time>
      </trkpt>
      <trkpt lat="43.18398" lon="1.01264">
        <ele>378</ele>
        <time>2024-08-12T07:33:34Z</time>
      </trkpt>
      <trkpt lat="43.18397" lon="1.01261">
        <ele>377.6</ele>
        <time>2024-08-12T07:33:35Z</time>
      </trkpt>
      <trkpt lat="43.18396" lon="1.01257">
        <ele>377</ele>
        <time>2024-08-12T07:33:36Z</time>
      </trkpt>
      <trkpt lat="43.18396" lon="1.01252">
        <ele>376.6</ele>
        <time>2024-08-12T07:33:37Z</time>
      </trkpt>
      <trkpt lat="43.18395" lon="1.01238">
        <ele>376.2</ele>
        <time>2024-08-12T07:33:40Z</time>
      </trkpt>
      <trkpt lat="43.18393" lon="1.01233">
        <ele>375.8</ele>
        <time>2024-08-12T07:33:41Z</time>
      </trkpt>
      <trkpt lat="43.18391" lon="1.01228">
        <ele>375.4</ele>
        <time>2024-08-12T07:33:42Z</time>
      </trkpt>
      <trkpt lat="43.1839" lon="1.01225">
        <ele>375</ele>
        <time>2024-08-12T07:33:43Z</time>
      </trkpt>
      <trkpt lat="43.18388" lon="1.01221">
        <ele>374.6</ele>
        <time>2024-08-12T07:33:44Z</time>
      </trkpt>
      <trkpt lat="43.18387" lon="1.01216">
        <ele>374.6</ele>
        <time>2024-08-12T07:33:45Z</time>
      </trkpt>
      <trkpt lat="43.18387" lon="1.01213">
        <ele>374.2</ele>
        <time>2024-08-12T07:33:46Z</time>
      </trkpt>
      <trkpt lat="43.18386" lon="1.01208">
        <ele>373.6</ele>
        <time>2024-08-12T07:33:47Z</time>
      </trkpt>
      <trkpt lat="43.18386" lon="1.01203">
        <ele>373.2</ele>
        <time>2024-08-12T07:33:48Z</time>
      </trkpt>
      <trkpt lat="43.18386" lon="1.01199">
        <ele>372.6</ele>
        <time>2024-08-12T07:33:49Z</time>
      </trkpt>
      <trkpt lat="43.18386" lon="1.01193">
        <ele>372</ele>
        <time>2024-08-12T07:33:50Z</time>
      </trkpt>
      <trkpt lat="43.18386" lon="1.01187">
        <ele>371.4</ele>
        <time>2024-08-12T07:33:51Z</time>
      </trkpt>
      <trkpt lat="43.18386" lon="1.01181">
        <ele>370.8</ele>
        <time>2024-08-12T07:33:52Z</time>
      </trkpt>
      <trkpt lat="43.18387" lon="1.01175">
        <ele>369.4</ele>
        <time>2024-08-12T07:33:53Z</time>
      </trkpt>
      <trkpt lat="43.18387" lon="1.01171">
        <ele>368.6</ele>
        <time>2024-08-12T07:33:54Z</time>
      </trkpt>
      <trkpt lat="43.18387" lon="1.01166">
        <ele>367.8</ele>
        <time>2024-08-12T07:33:55Z</time>
      </trkpt>
      <trkpt lat="43.18387" lon="1.01163">
        <ele>367</ele>
        <time>2024-08-12T07:33:56Z</time>
      </trkpt>
      <trkpt lat="43.18387" lon="1.01159">
        <ele>366.4</ele>
        <time>2024-08-12T07:33:57Z</time>
      </trkpt>
      <trkpt lat="43.18387" lon="1.01156">
        <ele>365.8</ele>
        <time>2024-08-12T07:33:58Z</time>
      </trkpt>
      <trkpt lat="43.18388" lon="1.01151">
        <ele>365.2</ele>
        <time>2024-08-12T07:33:59Z</time>
      </trkpt>
      <trkpt lat="43.18388" lon="1.01147">
        <ele>364.6</ele>
        <time>2024-08-12T07:34:00Z</time>
      </trkpt>
      <trkpt lat="43.18388" lon="1.01142">
        <ele>364</ele>
        <time>2024-08-12T07:34:01Z</time>
      </trkpt>
      <trkpt lat="43.18387" lon="1.01139">
        <ele>363.4</ele>
        <time>2024-08-12T07:34:02Z</time>
      </trkpt>
      <trkpt lat="43.18387" lon="1.01135">
        <ele>362.8</ele>
        <time>2024-08-12T07:34:03Z</time>
      </trkpt>
      <trkpt lat="43.18386" lon="1.01131">
        <ele>362</ele>
        <time>2024-08-12T07:34:04Z</time>
      </trkpt>
      <trkpt lat="43.18385" lon="1.01127">
        <ele>361.4</ele>
        <time>2024-08-12T07:34:05Z</time>
      </trkpt>
      <trkpt lat="43.18384" lon="1.01122">
        <ele>360.6</ele>
        <time>2024-08-12T07:34:06Z</time>
      </trkpt>
      <trkpt lat="43.18383" lon="1.01117">
        <ele>359.8</ele>
        <time>2024-08-12T07:34:07Z</time>
      </trkpt>
      <trkpt lat="43.18381" lon="1.01112">
        <ele>359</ele>
        <time>2024-08-12T07:34:08Z</time>
      </trkpt>
      <trkpt lat="43.1838" lon="1.01106">
        <ele>358.4</ele>
        <time>2024-08-12T07:34:09Z</time>
      </trkpt>
      <trkpt lat="43.18377" lon="1.011">
        <ele>357.8</ele>
        <time>2024-08-12T07:34:10Z</time>
      </trkpt>
      <trkpt lat="43.18376" lon="1.01094">
        <ele>357.2</ele>
        <time>2024-08-12T07:34:11Z</time>
      </trkpt>
      <trkpt lat="43.18376" lon="1.01088">
        <ele>356.4</ele>
        <time>2024-08-12T07:34:12Z</time>
      </trkpt>
      <trkpt lat="43.18377" lon="1.01082">
        <ele>355.8</ele>
        <time>2024-08-12T07:34:13Z</time>
      </trkpt>
      <trkpt lat="43.18377" lon="1.01075">
        <ele>355.2</ele>
        <time>2024-08-12T07:34:14Z</time>
      </trkpt>
      <trkpt lat="43.18377" lon="1.01068">
        <ele>354.6</ele>
        <time>2024-08-12T07:34:15Z</time>
      </trkpt>
      <trkpt lat="43.18377" lon="1.01061">
        <ele>354</ele>
        <time>2024-08-12T07:34:16Z</time>
      </trkpt>
      <trkpt lat="43.18377" lon="1.01055">
        <ele>352.6</ele>
        <time>2024-08-12T07:34:17Z</time>
      </trkpt>
      <trkpt lat="43.18377" lon="1.01048">
        <ele>352</ele>
        <time>2024-08-12T07:34:18Z</time>
      </trkpt>
      <trkpt lat="43.18376" lon="1.01043">
        <ele>351.4</ele>
        <time>2024-08-12T07:34:19Z</time>
      </trkpt>
      <trkpt lat="43.18376" lon="1.01037">
        <ele>350.6</ele>
        <time>2024-08-12T07:34:20Z</time>
      </trkpt>
      <trkpt lat="43.18375" lon="1.01031">
        <ele>350</ele>
        <time>2024-08-12T07:34:21Z</time>
      </trkpt>
      <trkpt lat="43.18374" lon="1.01025">
        <ele>349.2</ele>
        <time>2024-08-12T07:34:22Z</time>
      </trkpt>
      <trkpt lat="43.18372" lon="1.01019">
        <ele>348.6</ele>
        <time>2024-08-12T07:34:23Z</time>
      </trkpt>
      <trkpt lat="43.18372" lon="1.01012">
        <ele>347.8</ele>
        <time>2024-08-12T07:34:24Z</time>
      </trkpt>
      <trkpt lat="43.18373" lon="1.01004">
        <ele>347.2</ele>
        <time>2024-08-12T07:34:25Z</time>
      </trkpt>
      <trkpt lat="43.18374" lon="1.00998">
        <ele>346.4</ele>
        <time>2024-08-12T07:34:26Z</time>
      </trkpt>
      <trkpt lat="43.18374" lon="1.00992">
        <ele>345.4</ele>
        <time>2024-08-12T07:34:27Z</time>
      </trkpt>
      <trkpt lat="43.18376" lon="1.00984">
        <ele>344.4</ele>
        <time>2024-08-12T07:34:28Z</time>
      </trkpt>
      <trkpt lat="43.18376" lon="1.00976">
        <ele>343.4</ele>
        <time>2024-08-12T07:34:29Z</time>
      </trkpt>
      <trkpt lat="43.18377" lon="1.00969">
        <ele>342.2</ele>
        <time>2024-08-12T07:34:30Z</time>
      </trkpt>
      <trkpt lat="43.18379" lon="1.00962">
        <ele>341</ele>
        <time>2024-08-12T07:34:31Z</time>
      </trkpt>
      <trkpt lat="43.18379" lon="1.00957">
        <ele>339.6</ele>
        <time>2024-08-12T07:34:32Z</time>
      </trkpt>
      <trkpt lat="43.1838" lon="1.00951">
        <ele>338.4</ele>
        <time>2024-08-12T07:34:33Z</time>
      </trkpt>
      <trkpt lat="43.18379" lon="1.00947">
        <ele>337</ele>
        <time>2024-08-12T07:34:34Z</time>
      </trkpt>
      <trkpt lat="43.1838" lon="1.00941">
        <ele>335.6</ele>
        <time>2024-08-12T07:34:35Z</time>
      </trkpt>
      <trkpt lat="43.18379" lon="1.00935">
        <ele>334.4</ele>
        <time>2024-08-12T07:34:36Z</time>
      </trkpt>
      <trkpt lat="43.18379" lon="1.00929">
        <ele>333.4</ele>
        <time>2024-08-12T07:34:37Z</time>
      </trkpt>
      <trkpt lat="43.18377" lon="1.00922">
        <ele>332.2</ele>
        <time>2024-08-12T07:34:38Z</time>
      </trkpt>
      <trkpt lat="43.18377" lon="1.00915">
        <ele>331.2</ele>
        <time>2024-08-12T07:34:39Z</time>
      </trkpt>
      <trkpt lat="43.18376" lon="1.00906">
        <ele>330.2</ele>
        <time>2024-08-12T07:34:40Z</time>
      </trkpt>
      <trkpt lat="43.18375" lon="1.00899">
        <ele>329</ele>
        <time>2024-08-12T07:34:41Z</time>
      </trkpt>
      <trkpt lat="43.18373" lon="1.00892">
        <ele>326.6</ele>
        <time>2024-08-12T07:34:42Z</time>
      </trkpt>
      <trkpt lat="43.18371" lon="1.00887">
        <ele>325.4</ele>
        <time>2024-08-12T07:34:43Z</time>
      </trkpt>
      <trkpt lat="43.18369" lon="1.00882">
        <ele>324.2</ele>
        <time>2024-08-12T07:34:44Z</time>
      </trkpt>
      <trkpt lat="43.18368" lon="1.00877">
        <ele>323.4</ele>
        <time>2024-08-12T07:34:45Z</time>
      </trkpt>
      <trkpt lat="43.18366" lon="1.00871">
        <ele>322.4</ele>
        <time>2024-08-12T07:34:46Z</time>
      </trkpt>
      <trkpt lat="43.18364" lon="1.00866">
        <ele>321.4</ele>
        <time>2024-08-12T07:34:47Z</time>
      </trkpt>
      <trkpt lat="43.18361" lon="1.0086">
        <ele>320.4</ele>
        <time>2024-08-12T07:34:48Z</time>
      </trkpt>
      <trkpt lat="43.18358" lon="1.00854">
        <ele>319.4</ele>
        <time>2024-08-12T07:34:49Z</time>
      </trkpt>
      <trkpt lat="43.18356" lon="1.00849">
        <ele>318.4</ele>
        <time>2024-08-12T07:34:50Z</time>
      </trkpt>
      <trkpt lat="43.18354" lon="1.00844">
        <ele>317.2</ele>
        <time>2024-08-12T07:34:51Z</time>
      </trkpt>
      <trkpt lat="43.18352" lon="1.00838">
        <ele>316</ele>
        <time>2024-08-12T07:34:52Z</time>
      </trkpt>
      <trkpt lat="43.1835" lon="1.00834">
        <ele>314.8</ele>
        <time>2024-08-12T07:34:53Z</time>
      </trkpt>
      <trkpt lat="43.18349" lon="1.0083">
        <ele>313.4</ele>
        <time>2024-08-12T07:34:54Z</time>
      </trkpt>
      <trkpt lat="43.18347" lon="1.00823">
        <ele>312</ele>
        <time>2024-08-12T07:34:55Z</time>
      </trkpt>
      <trkpt lat="43.18345" lon="1.00816">
        <ele>310.8</ele>
        <time>2024-08-12T07:34:56Z</time>
      </trkpt>
      <trkpt lat="43.18344" lon="1.00809">
        <ele>309.6</ele>
        <time>2024-08-12T07:34:57Z</time>
      </trkpt>
      <trkpt lat="43.18343" lon="1.00803">
        <ele>308.4</ele>
        <time>2024-08-12T07:34:58Z</time>
      </trkpt>
      <trkpt lat="43.18341" lon="1.00797">
        <ele>307.4</ele>
        <time>2024-08-12T07:34:59Z</time>
      </trkpt>
      <trkpt lat="43.18341" lon="1.00792">
        <ele>306.6</ele>
        <time>2024-08-12T07:35:00Z</time>
      </trkpt>
      <trkpt lat="43.18339" lon="1.00785">
        <ele>305.6</ele>
        <time>2024-08-12T07:35:01Z</time>
      </trkpt>
      <trkpt lat="43.18338" lon="1.00777">
        <ele>304.6</ele>
        <time>2024-08-12T07:35:02Z</time>
      </trkpt>
      <trkpt lat="43.18336" lon="1.00771">
        <ele>303.8</ele>
        <time>2024-08-12T07:35:03Z</time>
      </trkpt>
      <trkpt lat="43.18335" lon="1.00764">
        <ele>303.4</ele>
        <time>2024-08-12T07:35:04Z</time>
      </trkpt>
      <trkpt lat="43.18333" lon="1.00755">
        <ele>302.8</ele>
        <time>2024-08-12T07:35:05Z</time>
      </trkpt>
      <trkpt lat="43.18331" lon="1.00749">
        <ele>302.4</ele>
        <time>2024-08-12T07:35:06Z</time>
      </trkpt>
      <trkpt lat="43.18329" lon="1.00742">
        <ele>301</ele>
        <time>2024-08-12T07:35:07Z</time>
      </trkpt>
      <trkpt lat="43.18327" lon="1.00737">
        <ele>300.4</ele>
        <time>2024-08-12T07:35:08Z</time>
      </trkpt>
      <trkpt lat="43.18325" lon="1.00732">
        <ele>299.8</ele>
        <time>2024-08-12T07:35:09Z</time>
      </trkpt>
      <trkpt lat="43.18325" lon="1.00728">
        <ele>299</ele>
        <time>2024-08-12T07:35:10Z</time>
      </trkpt>
      <trkpt lat="43.18324" lon="1.00725">
        <ele>298.6</ele>
        <time>2024-08-12T07:35:11Z</time>
      </trkpt>
      <trkpt lat="43.18323" lon="1.00721">
        <ele>298.2</ele>
        <time>2024-08-12T07:35:12Z</time>
      </trkpt>
      <trkpt lat="43.18321" lon="1.00717">
        <ele>297.6</ele>
        <time>2024-08-12T07:35:13Z</time>
      </trkpt>
      <trkpt lat="43.1832" lon="1.00713">
        <ele>297.2</ele>
        <time>2024-08-12T07:35:14Z</time>
      </trkpt>
      <trkpt lat="43.18319" lon="1.0071">
        <ele>296.6</ele>
        <time>2024-08-12T07:35:15Z</time>
      </trkpt>
      <trkpt lat="43.18317" lon="1.00707">
        <ele>296</ele>
        <time>2024-08-12T07:35:16Z</time>
      </trkpt>
      <trkpt lat="43.18314" lon="1.00704">
        <ele>295.4</ele>
        <time>2024-08-12T07:35:17Z</time>
      </trkpt>
      <trkpt lat="43.18312" lon="1.00701">
        <ele>294.8</ele>
        <time>2024-08-12T07:35:18Z</time>
      </trkpt>
      <trkpt lat="43.18308" lon="1.00697">
        <ele>294.2</ele>
        <time>2024-08-12T07:35:19Z</time>
      </trkpt>
      <trkpt lat="43.18305" lon="1.00694">
        <ele>293.6</ele>
        <time>2024-08-12T07:35:20Z</time>
      </trkpt>
      <trkpt lat="43.18302" lon="1.00689">
        <ele>293.2</ele>
        <time>2024-08-12T07:35:21Z</time>
      </trkpt>
      <trkpt lat="43.183" lon="1.00684">
        <ele>292.6</ele>
        <time>2024-08-12T07:35:22Z</time>
      </trkpt>
      <trkpt lat="43.18298" lon="1.00679">
        <ele>291.8</ele>
        <time>2024-08-12T07:35:23Z</time>
      </trkpt>
      <trkpt lat="43.18297" lon="1.00674">
        <ele>291.2</ele>
        <time>2024-08-12T07:35:24Z</time>
      </trkpt>
      <trkpt lat="43.18295" lon="1.00671">
        <ele>290.4</ele>
        <time>2024-08-12T07:35:25Z</time>
      </trkpt>
      <trkpt lat="43.18295" lon="1.00668">
        <ele>289.8</ele>
        <time>2024-08-12T07:35:26Z</time>
      </trkpt>
      <trkpt lat="43.18295" lon="1.00666">
        <ele>289</ele>
        <time>2024-08-12T07:35:27Z</time>
      </trkpt>
      <trkpt lat="43.18295" lon="1.00664">
        <ele>288.4</ele>
        <time>2024-08-12T07:35:28Z</time>
      </trkpt>
      <trkpt lat="43.18296" lon="1.00664">
        <ele>287.8</ele>
        <time>2024-08-12T07:35:29Z</time>
      </trkpt>
      <trkpt lat="43.18297" lon="1.00664">
        <ele>287.2</ele>
        <time>2024-08-12T07:35:30Z</time>
      </trkpt>
      <trkpt lat="43.18298" lon="1.00664">
        <ele>286</ele>
        <time>2024-08-12T07:35:31Z</time>
      </trkpt>
      <trkpt lat="43.18299" lon="1.00665">
        <ele>285.6</ele>
        <time>2024-08-12T07:35:32Z</time>
      </trkpt>
      <trkpt lat="43.183" lon="1.00664">
        <ele>285.2</ele>
        <time>2024-08-12T07:35:33Z</time>
      </trkpt>
      <trkpt lat="43.18301" lon="1.00663">
        <ele>284.8</ele>
        <time>2024-08-12T07:35:34Z</time>
      </trkpt>
      <trkpt lat="43.18301" lon="1.00662">
        <ele>284.2</ele>
        <time>2024-08-12T07:35:35Z</time>
      </trkpt>
      <trkpt lat="43.18301" lon="1.00661">
        <ele>283.6</ele>
        <time>2024-08-12T07:35:36Z</time>
      </trkpt>
      <trkpt lat="43.18294" lon="1.00659">
        <ele>282</ele>
        <time>2024-08-12T07:35:40Z</time>
      </trkpt>
      <trkpt lat="43.18294" lon="1.00659">
        <ele>282</ele>
        <time>2024-08-12T07:35:41Z</time>
      </trkpt>
      <trkpt lat="43.18293" lon="1.00658">
        <ele>282</ele>
        <time>2024-08-12T07:35:42Z</time>
      </trkpt>
      <trkpt lat="43.18287" lon="1.00655">
        <ele>282</ele>
        <time>2024-08-12T07:35:46Z</time>
      </trkpt>
      <trkpt lat="43.18283" lon="1.00653">
        <ele>282.4</ele>
        <time>2024-08-12T07:35:48Z</time>
      </trkpt>
      <trkpt lat="43.18281" lon="1.00652">
        <ele>282.8</ele>
        <time>2024-08-12T07:35:49Z</time>
      </trkpt>
      <trkpt lat="43.18279" lon="1.00651">
        <ele>283.2</ele>
        <time>2024-08-12T07:35:50Z</time>
      </trkpt>
      <trkpt lat="43.18278" lon="1.00651">
        <ele>283.6</ele>
        <time>2024-08-12T07:35:51Z</time>
      </trkpt>
      <trkpt lat="43.18277" lon="1.00651">
        <ele>284.2</ele>
        <time>2024-08-12T07:35:52Z</time>
      </trkpt>
      <trkpt lat="43.18274" lon="1.00649">
        <ele>284.2</ele>
        <time>2024-08-12T07:35:53Z</time>
      </trkpt>
      <trkpt lat="43.18269" lon="1.00644">
        <ele>285</ele>
        <time>2024-08-12T07:35:56Z</time>
      </trkpt>
      <trkpt lat="43.18267" lon="1.00643">
        <ele>285.4</ele>
        <time>2024-08-12T07:35:57Z</time>
      </trkpt>
      <trkpt lat="43.18265" lon="1.00642">
        <ele>285.8</ele>
        <time>2024-08-12T07:35:58Z</time>
      </trkpt>
      <trkpt lat="43.18262" lon="1.00641">
        <ele>286.2</ele>
        <time>2024-08-12T07:35:59Z</time>
      </trkpt>
      <trkpt lat="43.1826" lon="1.00641">
        <ele>286.2</ele>
        <time>2024-08-12T07:36:00Z</time>
      </trkpt>
      <trkpt lat="43.18255" lon="1.00639">
        <ele>286.8</ele>
        <time>2024-08-12T07:36:02Z</time>
      </trkpt>
      <trkpt lat="43.18253" lon="1.00639">
        <ele>287.2</ele>
        <time>2024-08-12T07:36:03Z</time>
      </trkpt>
      <trkpt lat="43.1825" lon="1.00638">
        <ele>287.6</ele>
        <time>2024-08-12T07:36:04Z</time>
      </trkpt>
      <trkpt lat="43.18248" lon="1.00638">
        <ele>288</ele>
        <time>2024-08-12T07:36:05Z</time>
      </trkpt>
      <trkpt lat="43.18246" lon="1.00638">
        <ele>288.6</ele>
        <time>2024-08-12T07:36:06Z</time>
      </trkpt>
      <trkpt lat="43.18245" lon="1.00637">
        <ele>288.6</ele>
        <time>2024-08-12T07:36:07Z</time>
      </trkpt>
      <trkpt lat="43.18238" lon="1.00636">
        <ele>288.6</ele>
        <time>2024-08-12T07:36:10Z</time>
      </trkpt>
      <trkpt lat="43.18236" lon="1.00636">
        <ele>289</ele>
        <time>2024-08-12T07:36:11Z</time>
      </trkpt>
      <trkpt lat="43.18234" lon="1.00635">
        <ele>289.4</ele>
        <time>2024-08-12T07:36:12Z</time>
      </trkpt>
      <trkpt lat="43.18231" lon="1.00634">
        <ele>290</ele>
        <time>2024-08-12T07:36:13Z</time>
      </trkpt>
      <trkpt lat="43.1823" lon="1.00634">
        <ele>290.4</ele>
        <time>2024-08-12T07:36:14Z</time>
      </trkpt>
      <trkpt lat="43.18228" lon="1.00634">
        <ele>290.8</ele>
        <time>2024-08-12T07:36:15Z</time>
      </trkpt>
      <trkpt lat="43.18226" lon="1.00633">
        <ele>290.8</ele>
        <time>2024-08-12T07:36:16Z</time>
      </trkpt>
      <trkpt lat="43.18224" lon="1.00632">
        <ele>291.4</ele>
        <time>2024-08-12T07:36:17Z</time>
      </trkpt>
      <trkpt lat="43.18222" lon="1.00631">
        <ele>291.8</ele>
        <time>2024-08-12T07:36:18Z</time>
      </trkpt>
      <trkpt lat="43.18221" lon="1.0063">
        <ele>292.2</ele>
        <time>2024-08-12T07:36:19Z</time>
      </trkpt>
      <trkpt lat="43.18219" lon="1.00629">
        <ele>292.8</ele>
        <time>2024-08-12T07:36:20Z</time>
      </trkpt>
      <trkpt lat="43.18217" lon="1.00629">
        <ele>293.2</ele>
        <time>2024-08-12T07:36:21Z</time>
      </trkpt>
      <trkpt lat="43.18217" lon="1.00628">
        <ele>293.6</ele>
        <time>2024-08-12T07:36:22Z</time>
      </trkpt>
      <trkpt lat="43.18216" lon="1.00627">
        <ele>294</ele>
        <time>2024-08-12T07:36:23Z</time>
      </trkpt>
      <trkpt lat="43.18214" lon="1.00626">
        <ele>294.6</ele>
        <time>2024-08-12T07:36:24Z</time>
      </trkpt>
      <trkpt lat="43.18213" lon="1.00625">
        <ele>295</ele>
        <time>2024-08-12T07:36:25Z</time>
      </trkpt>
      <trkpt lat="43.18211" lon="1.00624">
        <ele>295.4</ele>
        <time>2024-08-12T07:36:26Z</time>
      </trkpt>
      <trkpt lat="43.18206" lon="1.00621">
        <ele>295.8</ele>
        <time>2024-08-12T07:36:29Z</time>
      </trkpt>
      <trkpt lat="43.18204" lon="1.0062">
        <ele>296.2</ele>
        <time>2024-08-12T07:36:30Z</time>
      </trkpt>
      <trkpt lat="43.18202" lon="1.00618">
        <ele>296.6</ele>
        <time>2024-08-12T07:36:31Z</time>
      </trkpt>
      <trkpt lat="43.182" lon="1.00617">
        <ele>297</ele>
        <time>2024-08-12T07:36:32Z</time>
      </trkpt>
      <trkpt lat="43.18199" lon="1.00615">
        <ele>297.4</ele>
        <time>2024-08-12T07:36:33Z</time>
      </trkpt>
      <trkpt lat="43.18195" lon="1.00612">
        <ele>297.4</ele>
        <time>2024-08-12T07:36:35Z</time>
      </trkpt>
      <trkpt lat="43.18193" lon="1.00612">
        <ele>297.8</ele>
        <time>2024-08-12T07:36:36Z</time>
      </trkpt>
      <trkpt lat="43.18192" lon="1.00611">
        <ele>298.2</ele>
        <time>2024-08-12T07:36:37Z</time>
      </trkpt>
      <trkpt lat="43.1819" lon="1.0061">
        <ele>298.6</ele>
        <time>2024-08-12T07:36:38Z</time>
      </trkpt>
      <trkpt lat="43.18189" lon="1.0061">
        <ele>299</ele>
        <time>2024-08-12T07:36:39Z</time>
      </trkpt>
      <trkpt lat="43.18188" lon="1.00609">
        <ele>299.4</ele>
        <time>2024-08-12T07:36:40Z</time>
      </trkpt>
      <trkpt lat="43.18181" lon="1.00608">
        <ele>299.4</ele>
        <time>2024-08-12T07:36:43Z</time>
      </trkpt>
      <trkpt lat="43.18178" lon="1.00607">
        <ele>299.4</ele>
        <time>2024-08-12T07:36:44Z</time>
      </trkpt>
      <trkpt lat="43.18175" lon="1.00607">
        <ele>299.8</ele>
        <time>2024-08-12T07:36:45Z</time>
      </trkpt>
      <trkpt lat="43.18173" lon="1.00606">
        <ele>300.2</ele>
        <time>2024-08-12T07:36:46Z</time>
      </trkpt>
      <trkpt lat="43.18171" lon="1.00605">
        <ele>300.6</ele>
        <time>2024-08-12T07:36:47Z</time>
      </trkpt>
      <trkpt lat="43.1817" lon="1.00604">
        <ele>301</ele>
        <time>2024-08-12T07:36:48Z</time>
      </trkpt>
      <trkpt lat="43.18167" lon="1.00604">
        <ele>301.4</ele>
        <time>2024-08-12T07:36:49Z</time>
      </trkpt>
      <trkpt lat="43.18163" lon="1.00602">
        <ele>302</ele>
        <time>2024-08-12T07:36:52Z</time>
      </trkpt>
      <trkpt lat="43.18161" lon="1.00601">
        <ele>302.4</ele>
        <time>2024-08-12T07:36:53Z</time>
      </trkpt>
      <trkpt lat="43.18158" lon="1.00601">
        <ele>302.8</ele>
        <time>2024-08-12T07:36:54Z</time>
      </trkpt>
      <trkpt lat="43.18156" lon="1.006">
        <ele>303.2</ele>
        <time>2024-08-12T07:36:55Z</time>
      </trkpt>
      <trkpt lat="43.18153" lon="1.006">
        <ele>303.6</ele>
        <time>2024-08-12T07:36:56Z</time>
      </trkpt>
      <trkpt lat="43.18148" lon="1.006">
        <ele>303.6</ele>
        <time>2024-08-12T07:36:59Z</time>
      </trkpt>
      <trkpt lat="43.18146" lon="1.00598">
        <ele>304.2</ele>
        <time>2024-08-12T07:37:00Z</time>
      </trkpt>
      <trkpt lat="43.18144" lon="1.00597">
        <ele>304.6</ele>
        <time>2024-08-12T07:37:01Z</time>
      </trkpt>
      <trkpt lat="43.18141" lon="1.00596">
        <ele>305</ele>
        <time>2024-08-12T07:37:02Z</time>
      </trkpt>
      <trkpt lat="43.18139" lon="1.00595">
        <ele>305.6</ele>
        <time>2024-08-12T07:37:03Z</time>
      </trkpt>
      <trkpt lat="43.18137" lon="1.00595">
        <ele>306</ele>
        <time>2024-08-12T07:37:04Z</time>
      </trkpt>
      <trkpt lat="43.18136" lon="1.00595">
        <ele>306</ele>
        <time>2024-08-12T07:37:05Z</time>
      </trkpt>
      <trkpt lat="43.18133" lon="1.00597">
        <ele>306.4</ele>
        <time>2024-08-12T07:37:07Z</time>
      </trkpt>
      <trkpt lat="43.18131" lon="1.00599">
        <ele>306.8</ele>
        <time>2024-08-12T07:37:08Z</time>
      </trkpt>
      <trkpt lat="43.18128" lon="1.006">
        <ele>307.2</ele>
        <time>2024-08-12T07:37:09Z</time>
      </trkpt>
      <trkpt lat="43.18126" lon="1.006">
        <ele>308</ele>
        <time>2024-08-12T07:37:10Z</time>
      </trkpt>
      <trkpt lat="43.18122" lon="1.00598">
        <ele>308</ele>
        <time>2024-08-12T07:37:13Z</time>
      </trkpt>
      <trkpt lat="43.1812" lon="1.00597">
        <ele>308.4</ele>
        <time>2024-08-12T07:37:14Z</time>
      </trkpt>
      <trkpt lat="43.18119" lon="1.00596">
        <ele>308.8</ele>
        <time>2024-08-12T07:37:15Z</time>
      </trkpt>
      <trkpt lat="43.18117" lon="1.00594">
        <ele>309.2</ele>
        <time>2024-08-12T07:37:16Z</time>
      </trkpt>
      <trkpt lat="43.18116" lon="1.00594">
        <ele>309.6</ele>
        <time>2024-08-12T07:37:17Z</time>
      </trkpt>
      <trkpt lat="43.18113" lon="1.00593">
        <ele>310</ele>
        <time>2024-08-12T07:37:18Z</time>
      </trkpt>
      <trkpt lat="43.18108" lon="1.0059">
        <ele>310</ele>
        <time>2024-08-12T07:37:21Z</time>
      </trkpt>
      <trkpt lat="43.18102" lon="1.00586">
        <ele>310.4</ele>
        <time>2024-08-12T07:37:24Z</time>
      </trkpt>
      <trkpt lat="43.181" lon="1.00584">
        <ele>311</ele>
        <time>2024-08-12T07:37:25Z</time>
      </trkpt>
      <trkpt lat="43.18097" lon="1.00582">
        <ele>311.4</ele>
        <time>2024-08-12T07:37:26Z</time>
      </trkpt>
      <trkpt lat="43.18095" lon="1.00581">
        <ele>311.8</ele>
        <time>2024-08-12T07:37:27Z</time>
      </trkpt>
      <trkpt lat="43.18093" lon="1.0058">
        <ele>312.4</ele>
        <time>2024-08-12T07:37:28Z</time>
      </trkpt>
      <trkpt lat="43.18087" lon="1.00575">
        <ele>312.8</ele>
        <time>2024-08-12T07:37:32Z</time>
      </trkpt>
      <trkpt lat="43.18085" lon="1.00574">
        <ele>313.2</ele>
        <time>2024-08-12T07:37:33Z</time>
      </trkpt>
      <trkpt lat="43.18084" lon="1.00574">
        <ele>313.6</ele>
        <time>2024-08-12T07:37:34Z</time>
      </trkpt>
      <trkpt lat="43.18081" lon="1.00573">
        <ele>314.6</ele>
        <time>2024-08-12T07:37:35Z</time>
      </trkpt>
      <trkpt lat="43.18074" lon="1.00573">
        <ele>314.6</ele>
        <time>2024-08-12T07:37:38Z</time>
      </trkpt>
      <trkpt lat="43.18065" lon="1.00575">
        <ele>315</ele>
        <time>2024-08-12T07:37:42Z</time>
      </trkpt>
      <trkpt lat="43.18063" lon="1.00577">
        <ele>315.4</ele>
        <time>2024-08-12T07:37:43Z</time>
      </trkpt>
      <trkpt lat="43.18061" lon="1.00578">
        <ele>315.8</ele>
        <time>2024-08-12T07:37:44Z</time>
      </trkpt>
      <trkpt lat="43.18058" lon="1.00579">
        <ele>316.2</ele>
        <time>2024-08-12T07:37:45Z</time>
      </trkpt>
      <trkpt lat="43.18057" lon="1.0058">
        <ele>316.6</ele>
        <time>2024-08-12T07:37:46Z</time>
      </trkpt>
      <trkpt lat="43.18048" lon="1.00589">
        <ele>317</ele>
        <time>2024-08-12T07:37:50Z</time>
      </trkpt>
      <trkpt lat="43.18046" lon="1.00591">
        <ele>317.6</ele>
        <time>2024-08-12T07:37:51Z</time>
      </trkpt>
      <trkpt lat="43.18044" lon="1.00594">
        <ele>318</ele>
        <time>2024-08-12T07:37:52Z</time>
      </trkpt>
      <trkpt lat="43.18042" lon="1.00596">
        <ele>318.4</ele>
        <time>2024-08-12T07:37:53Z</time>
      </trkpt>
      <trkpt lat="43.18041" lon="1.00598">
        <ele>318.8</ele>
        <time>2024-08-12T07:37:54Z</time>
      </trkpt>
      <trkpt lat="43.18039" lon="1.006">
        <ele>318.8</ele>
        <time>2024-08-12T07:37:55Z</time>
      </trkpt>
      <trkpt lat="43.18035" lon="1.00604">
        <ele>318.8</ele>
        <time>2024-08-12T07:37:57Z</time>
      </trkpt>
      <trkpt lat="43.18026" lon="1.00617">
        <ele>318.8</ele>
        <time>2024-08-12T07:38:03Z</time>
      </trkpt>
      <trkpt lat="43.18023" lon="1.00621">
        <ele>319.2</ele>
        <time>2024-08-12T07:38:05Z</time>
      </trkpt>
      <trkpt lat="43.18021" lon="1.00623">
        <ele>319.6</ele>
        <time>2024-08-12T07:38:06Z</time>
      </trkpt>
      <trkpt lat="43.18019" lon="1.00625">
        <ele>320</ele>
        <time>2024-08-12T07:38:07Z</time>
      </trkpt>
      <trkpt lat="43.18017" lon="1.00627">
        <ele>320.4</ele>
        <time>2024-08-12T07:38:08Z</time>
      </trkpt>
      <trkpt lat="43.18015" lon="1.00628">
        <ele>320.8</ele>
        <time>2024-08-12T07:38:09Z</time>
      </trkpt>
      <trkpt lat="43.18007" lon="1.00635">
        <ele>321.2</ele>
        <time>2024-08-12T07:38:13Z</time>
      </trkpt>
      <trkpt lat="43.18005" lon="1.00637">
        <ele>321.6</ele>
        <time>2024-08-12T07:38:14Z</time>
      </trkpt>
      <trkpt lat="43.18004" lon="1.0064">
        <ele>322</ele>
        <time>2024-08-12T07:38:15Z</time>
      </trkpt>
      <trkpt lat="43.18002" lon="1.00642">
        <ele>322.4</ele>
        <time>2024-08-12T07:38:16Z</time>
      </trkpt>
      <trkpt lat="43.17999" lon="1.00644">
        <ele>323</ele>
        <time>2024-08-12T07:38:17Z</time>
      </trkpt>
      <trkpt lat="43.17992" lon="1.00652">
        <ele>323</ele>
        <time>2024-08-12T07:38:21Z</time>
      </trkpt>
      <trkpt lat="43.17987" lon="1.00657">
        <ele>323.8</ele>
        <time>2024-08-12T07:38:24Z</time>
      </trkpt>
      <trkpt lat="43.17987" lon="1.00659">
        <ele>324.2</ele>
        <time>2024-08-12T07:38:25Z</time>
      </trkpt>
      <trkpt lat="43.17985" lon="1.00661">
        <ele>324.6</ele>
        <time>2024-08-12T07:38:26Z</time>
      </trkpt>
      <trkpt lat="43.17984" lon="1.00663">
        <ele>325</ele>
        <time>2024-08-12T07:38:27Z</time>
      </trkpt>
      <trkpt lat="43.17975" lon="1.00671">
        <ele>325.4</ele>
        <time>2024-08-12T07:38:32Z</time>
      </trkpt>
      <trkpt lat="43.17973" lon="1.00673">
        <ele>325.8</ele>
        <time>2024-08-12T07:38:33Z</time>
      </trkpt>
      <trkpt lat="43.17971" lon="1.00673">
        <ele>326.2</ele>
        <time>2024-08-12T07:38:34Z</time>
      </trkpt>
      <trkpt lat="43.17969" lon="1.00675">
        <ele>326.6</ele>
        <time>2024-08-12T07:38:35Z</time>
      </trkpt>
      <trkpt lat="43.17968" lon="1.00676">
        <ele>327</ele>
        <time>2024-08-12T07:38:36Z</time>
      </trkpt>
      <trkpt lat="43.17966" lon="1.00678">
        <ele>327</ele>
        <time>2024-08-12T07:38:37Z</time>
      </trkpt>
      <trkpt lat="43.17954" lon="1.00683">
        <ele>327</ele>
        <time>2024-08-12T07:38:43Z</time>
      </trkpt>
      <trkpt lat="43.17942" lon="1.00686">
        <ele>327</ele>
        <time>2024-08-12T07:38:48Z</time>
      </trkpt>
      <trkpt lat="43.17939" lon="1.00686">
        <ele>327.8</ele>
        <time>2024-08-12T07:38:49Z</time>
      </trkpt>
      <trkpt lat="43.17937" lon="1.00686">
        <ele>328.2</ele>
        <time>2024-08-12T07:38:50Z</time>
      </trkpt>
      <trkpt lat="43.17935" lon="1.00686">
        <ele>328.6</ele>
        <time>2024-08-12T07:38:51Z</time>
      </trkpt>
      <trkpt lat="43.17933" lon="1.00686">
        <ele>329</ele>
        <time>2024-08-12T07:38:52Z</time>
      </trkpt>
      <trkpt lat="43.17928" lon="1.00685">
        <ele>329</ele>
        <time>2024-08-12T07:38:54Z</time>
      </trkpt>
      <trkpt lat="43.17919" lon="1.00682">
        <ele>329</ele>
        <time>2024-08-12T07:38:59Z</time>
      </trkpt>
      <trkpt lat="43.17917" lon="1.00682">
        <ele>329.4</ele>
        <time>2024-08-12T07:39:00Z</time>
      </trkpt>
      <trkpt lat="43.17915" lon="1.00681">
        <ele>329.8</ele>
        <time>2024-08-12T07:39:01Z</time>
      </trkpt>
      <trkpt lat="43.17913" lon="1.0068">
        <ele>330.2</ele>
        <time>2024-08-12T07:39:02Z</time>
      </trkpt>
      <trkpt lat="43.17911" lon="1.00679">
        <ele>330.6</ele>
        <time>2024-08-12T07:39:03Z</time>
      </trkpt>
      <trkpt lat="43.17909" lon="1.00678">
        <ele>331</ele>
        <time>2024-08-12T07:39:04Z</time>
      </trkpt>
      <trkpt lat="43.17906" lon="1.00676">
        <ele>331</ele>
        <time>2024-08-12T07:39:06Z</time>
      </trkpt>
      <trkpt lat="43.17895" lon="1.00664">
        <ele>331.6</ele>
        <time>2024-08-12T07:39:12Z</time>
      </trkpt>
      <trkpt lat="43.17893" lon="1.00661">
        <ele>332</ele>
        <time>2024-08-12T07:39:13Z</time>
      </trkpt>
      <trkpt lat="43.17892" lon="1.00659">
        <ele>332.8</ele>
        <time>2024-08-12T07:39:14Z</time>
      </trkpt>
      <trkpt lat="43.17891" lon="1.00656">
        <ele>333.2</ele>
        <time>2024-08-12T07:39:15Z</time>
      </trkpt>
      <trkpt lat="43.1789" lon="1.00651">
        <ele>333.6</ele>
        <time>2024-08-12T07:39:17Z</time>
      </trkpt>
      <trkpt lat="43.1789" lon="1.00648">
        <ele>334</ele>
        <time>2024-08-12T07:39:18Z</time>
      </trkpt>
      <trkpt lat="43.17889" lon="1.00645">
        <ele>334.4</ele>
        <time>2024-08-12T07:39:19Z</time>
      </trkpt>
      <trkpt lat="43.17889" lon="1.00642">
        <ele>335</ele>
        <time>2024-08-12T07:39:20Z</time>
      </trkpt>
      <trkpt lat="43.17889" lon="1.0064">
        <ele>335.4</ele>
        <time>2024-08-12T07:39:21Z</time>
      </trkpt>
      <trkpt lat="43.17887" lon="1.00633">
        <ele>335.8</ele>
        <time>2024-08-12T07:39:24Z</time>
      </trkpt>
      <trkpt lat="43.17886" lon="1.00631">
        <ele>336.2</ele>
        <time>2024-08-12T07:39:25Z</time>
      </trkpt>
      <trkpt lat="43.17885" lon="1.00629">
        <ele>336.8</ele>
        <time>2024-08-12T07:39:26Z</time>
      </trkpt>
      <trkpt lat="43.17884" lon="1.00626">
        <ele>337.2</ele>
        <time>2024-08-12T07:39:27Z</time>
      </trkpt>
      <trkpt lat="43.17883" lon="1.00625">
        <ele>337.6</ele>
        <time>2024-08-12T07:39:28Z</time>
      </trkpt>
      <trkpt lat="43.17881" lon="1.00623">
        <ele>337.6</ele>
        <time>2024-08-12T07:39:29Z</time>
      </trkpt>
      <trkpt lat="43.17877" lon="1.0062">
        <ele>338</ele>
        <time>2024-08-12T07:39:31Z</time>
      </trkpt>
      <trkpt lat="43.17875" lon="1.00618">
        <ele>338.6</ele>
        <time>2024-08-12T07:39:32Z</time>
      </trkpt>
      <trkpt lat="43.17874" lon="1.00616">
        <ele>339</ele>
        <time>2024-08-12T07:39:33Z</time>
      </trkpt>
      <trkpt lat="43.17874" lon="1.00616">
        <ele>339.4</ele>
        <time>2024-08-12T07:39:34Z</time>
      </trkpt>
      <trkpt lat="43.17872" lon="1.00614">
        <ele>339.8</ele>
        <time>2024-08-12T07:39:35Z</time>
      </trkpt>
      <trkpt lat="43.17867" lon="1.00611">
        <ele>340.8</ele>
        <time>2024-08-12T07:39:38Z</time>
      </trkpt>
      <trkpt lat="43.17866" lon="1.00612">
        <ele>341.2</ele>
        <time>2024-08-12T07:39:39Z</time>
      </trkpt>
      <trkpt lat="43.17864" lon="1.00613">
        <ele>341.6</ele>
        <time>2024-08-12T07:39:40Z</time>
      </trkpt>
      <trkpt lat="43.17864" lon="1.00614">
        <ele>342</ele>
        <time>2024-08-12T07:39:41Z</time>
      </trkpt>
      <trkpt lat="43.17863" lon="1.00615">
        <ele>342.4</ele>
        <time>2024-08-12T07:39:43Z</time>
      </trkpt>
      <trkpt lat="43.17862" lon="1.00617">
        <ele>342.8</ele>
        <time>2024-08-12T07:39:44Z</time>
      </trkpt>
      <trkpt lat="43.17862" lon="1.00619">
        <ele>343.2</ele>
        <time>2024-08-12T07:39:45Z</time>
      </trkpt>
      <trkpt lat="43.17861" lon="1.00622">
        <ele>343.6</ele>
        <time>2024-08-12T07:39:46Z</time>
        <extensions>
          <visugpx:TrkExtension xmlns:visugpx="https://www.visugpx.com/editgpx/">
            <visugpx:node>1</visugpx:node>
            </visugpx:TrkExtension>
        </extensions>
      </trkpt>
      <trkpt lat="43.1786" lon="1.00618">
        <ele>350.2</ele>
        <time>2024-09-15T10:56:06Z</time>
        <extensions>
          <visugpx:TrkExtension xmlns:visugpx="https://www.visugpx.com/editgpx/">
            <visugpx:node>2</visugpx:node>
            </visugpx:TrkExtension>
        </extensions>
      </trkpt>
      <trkpt lat="43.1786" lon="1.00613">
        <ele>349.8</ele>
        <time>2024-09-15T10:56:07Z</time>
      </trkpt>
      <trkpt lat="43.17859" lon="1.00611">
        <ele>349.4</ele>
        <time>2024-09-15T10:56:08Z</time>
      </trkpt>
      <trkpt lat="43.17859" lon="1.0061">
        <ele>348.8</ele>
        <time>2024-09-15T10:56:09Z</time>
      </trkpt>
      <trkpt lat="43.17857" lon="1.00608">
        <ele>347.2</ele>
        <time>2024-09-15T10:57:07Z</time>
      </trkpt>
      <trkpt lat="43.17851" lon="1.00603">
        <ele>347.2</ele>
        <time>2024-09-15T10:57:09Z</time>
      </trkpt>
      <trkpt lat="43.17845" lon="1.00596">
        <ele>347.2</ele>
        <time>2024-09-15T10:57:11Z</time>
      </trkpt>
      <trkpt lat="43.17838" lon="1.00587">
        <ele>347.2</ele>
        <time>2024-09-15T10:57:14Z</time>
      </trkpt>
      <trkpt lat="43.17824" lon="1.00578">
        <ele>347.2</ele>
        <time>2024-09-15T10:57:18Z</time>
      </trkpt>
      <trkpt lat="43.17815" lon="1.00575">
        <ele>347.2</ele>
        <time>2024-09-15T10:57:20Z</time>
      </trkpt>
      <trkpt lat="43.17802" lon="1.00571">
        <ele>347.2</ele>
        <time>2024-09-15T10:57:23Z</time>
      </trkpt>
      <trkpt lat="43.17783" lon="1.00569">
        <ele>346.8</ele>
        <time>2024-09-15T10:57:28Z</time>
      </trkpt>
      <trkpt lat="43.17778" lon="1.0057">
        <ele>346.4</ele>
        <time>2024-09-15T10:57:29Z</time>
      </trkpt>
      <trkpt lat="43.17774" lon="1.00571">
        <ele>345.6</ele>
        <time>2024-09-15T10:57:30Z</time>
      </trkpt>
      <trkpt lat="43.17771" lon="1.00572">
        <ele>345.2</ele>
        <time>2024-09-15T10:57:31Z</time>
      </trkpt>
      <trkpt lat="43.17768" lon="1.00573">
        <ele>345.2</ele>
        <time>2024-09-15T10:57:33Z</time>
      </trkpt>
      <trkpt lat="43.17763" lon="1.00578">
        <ele>344.8</ele>
        <time>2024-09-15T10:57:35Z</time>
      </trkpt>
      <trkpt lat="43.17761" lon="1.00583">
        <ele>344.4</ele>
        <time>2024-09-15T10:57:36Z</time>
      </trkpt>
      <trkpt lat="43.17761" lon="1.00588">
        <ele>344</ele>
        <time>2024-09-15T10:57:37Z</time>
      </trkpt>
      <trkpt lat="43.17761" lon="1.00594">
        <ele>343.6</ele>
        <time>2024-09-15T10:57:38Z</time>
      </trkpt>
      <trkpt lat="43.17762" lon="1.006">
        <ele>343.2</ele>
        <time>2024-09-15T10:57:39Z</time>
      </trkpt>
      <trkpt lat="43.17763" lon="1.00605">
        <ele>342.8</ele>
        <time>2024-09-15T10:57:40Z</time>
      </trkpt>
      <trkpt lat="43.17764" lon="1.00612">
        <ele>342.4</ele>
        <time>2024-09-15T10:57:41Z</time>
      </trkpt>
      <trkpt lat="43.17765" lon="1.00619">
        <ele>341.8</ele>
        <time>2024-09-15T10:57:42Z</time>
      </trkpt>
      <trkpt lat="43.17765" lon="1.00626">
        <ele>341.4</ele>
        <time>2024-09-15T10:57:43Z</time>
      </trkpt>
      <trkpt lat="43.17766" lon="1.00633">
        <ele>341</ele>
        <time>2024-09-15T10:57:44Z</time>
      </trkpt>
      <trkpt lat="43.17767" lon="1.0064">
        <ele>341</ele>
        <time>2024-09-15T10:57:45Z</time>
      </trkpt>
      <trkpt lat="43.17767" lon="1.00646">
        <ele>341</ele>
        <time>2024-09-15T10:57:46Z</time>
      </trkpt>
      <trkpt lat="43.17764" lon="1.00663">
        <ele>340.6</ele>
        <time>2024-09-15T10:57:49Z</time>
      </trkpt>
      <trkpt lat="43.17761" lon="1.00669">
        <ele>340.2</ele>
        <time>2024-09-15T10:57:50Z</time>
      </trkpt>
      <trkpt lat="43.17758" lon="1.00675">
        <ele>339.6</ele>
        <time>2024-09-15T10:57:51Z</time>
      </trkpt>
      <trkpt lat="43.17753" lon="1.0068">
        <ele>339.2</ele>
        <time>2024-09-15T10:57:52Z</time>
      </trkpt>
      <trkpt lat="43.17748" lon="1.00684">
        <ele>338.8</ele>
        <time>2024-09-15T10:57:53Z</time>
      </trkpt>
      <trkpt lat="43.17741" lon="1.00689">
        <ele>338.4</ele>
        <time>2024-09-15T10:57:54Z</time>
      </trkpt>
      <trkpt lat="43.17734" lon="1.00694">
        <ele>337.4</ele>
        <time>2024-09-15T10:57:55Z</time>
      </trkpt>
      <trkpt lat="43.17727" lon="1.007">
        <ele>336.8</ele>
        <time>2024-09-15T10:57:56Z</time>
      </trkpt>
      <trkpt lat="43.17721" lon="1.00704">
        <ele>336</ele>
        <time>2024-09-15T10:57:57Z</time>
      </trkpt>
      <trkpt lat="43.17716" lon="1.00708">
        <ele>335.4</ele>
        <time>2024-09-15T10:57:58Z</time>
      </trkpt>
      <trkpt lat="43.17711" lon="1.00712">
        <ele>334.6</ele>
        <time>2024-09-15T10:57:59Z</time>
      </trkpt>
      <trkpt lat="43.17708" lon="1.00717">
        <ele>334</ele>
        <time>2024-09-15T10:58:00Z</time>
      </trkpt>
      <trkpt lat="43.17705" lon="1.00721">
        <ele>333.2</ele>
        <time>2024-09-15T10:58:01Z</time>
      </trkpt>
      <trkpt lat="43.17703" lon="1.00726">
        <ele>332.6</ele>
        <time>2024-09-15T10:58:02Z</time>
      </trkpt>
      <trkpt lat="43.177" lon="1.00732">
        <ele>331.8</ele>
        <time>2024-09-15T10:58:03Z</time>
      </trkpt>
      <trkpt lat="43.17698" lon="1.00739">
        <ele>331</ele>
        <time>2024-09-15T10:58:04Z</time>
      </trkpt>
      <trkpt lat="43.17695" lon="1.00746">
        <ele>330.2</ele>
        <time>2024-09-15T10:58:05Z</time>
      </trkpt>
      <trkpt lat="43.17691" lon="1.00751">
        <ele>329.4</ele>
        <time>2024-09-15T10:58:06Z</time>
      </trkpt>
      <trkpt lat="43.17687" lon="1.00755">
        <ele>328.6</ele>
        <time>2024-09-15T10:58:07Z</time>
      </trkpt>
      <trkpt lat="43.17684" lon="1.0076">
        <ele>328</ele>
        <time>2024-09-15T10:58:08Z</time>
      </trkpt>
      <trkpt lat="43.17681" lon="1.00765">
        <ele>327.2</ele>
        <time>2024-09-15T10:58:09Z</time>
      </trkpt>
      <trkpt lat="43.17677" lon="1.00771">
        <ele>326.4</ele>
        <time>2024-09-15T10:58:10Z</time>
      </trkpt>
      <trkpt lat="43.17674" lon="1.00777">
        <ele>325.6</ele>
        <time>2024-09-15T10:58:11Z</time>
      </trkpt>
      <trkpt lat="43.17671" lon="1.00783">
        <ele>324.8</ele>
        <time>2024-09-15T10:58:12Z</time>
      </trkpt>
      <trkpt lat="43.1767" lon="1.00789">
        <ele>324</ele>
        <time>2024-09-15T10:58:13Z</time>
      </trkpt>
      <trkpt lat="43.17668" lon="1.00795">
        <ele>323</ele>
        <time>2024-09-15T10:58:14Z</time>
      </trkpt>
      <trkpt lat="43.17666" lon="1.00801">
        <ele>322</ele>
        <time>2024-09-15T10:58:15Z</time>
      </trkpt>
      <trkpt lat="43.17665" lon="1.00807">
        <ele>321.2</ele>
        <time>2024-09-15T10:58:16Z</time>
      </trkpt>
      <trkpt lat="43.17663" lon="1.00813">
        <ele>320.4</ele>
        <time>2024-09-15T10:58:17Z</time>
      </trkpt>
      <trkpt lat="43.17662" lon="1.00821">
        <ele>319.4</ele>
        <time>2024-09-15T10:58:18Z</time>
      </trkpt>
      <trkpt lat="43.1766" lon="1.00828">
        <ele>317.8</ele>
        <time>2024-09-15T10:58:19Z</time>
      </trkpt>
      <trkpt lat="43.17659" lon="1.00834">
        <ele>317.2</ele>
        <time>2024-09-15T10:58:20Z</time>
      </trkpt>
      <trkpt lat="43.17656" lon="1.00838">
        <ele>316.4</ele>
        <time>2024-09-15T10:58:21Z</time>
      </trkpt>
      <trkpt lat="43.17652" lon="1.00841">
        <ele>315.8</ele>
        <time>2024-09-15T10:58:22Z</time>
      </trkpt>
      <trkpt lat="43.17648" lon="1.00844">
        <ele>315</ele>
        <time>2024-09-15T10:58:23Z</time>
      </trkpt>
      <trkpt lat="43.17643" lon="1.00846">
        <ele>314.4</ele>
        <time>2024-09-15T10:58:24Z</time>
      </trkpt>
      <trkpt lat="43.17638" lon="1.00849">
        <ele>313.8</ele>
        <time>2024-09-15T10:58:25Z</time>
      </trkpt>
      <trkpt lat="43.17635" lon="1.0085">
        <ele>313</ele>
        <time>2024-09-15T10:58:26Z</time>
      </trkpt>
      <trkpt lat="43.17632" lon="1.00852">
        <ele>312.4</ele>
        <time>2024-09-15T10:58:27Z</time>
      </trkpt>
      <trkpt lat="43.17631" lon="1.00852">
        <ele>311.8</ele>
        <time>2024-09-15T10:58:28Z</time>
      </trkpt>
      <trkpt lat="43.17627" lon="1.00853">
        <ele>311.4</ele>
        <time>2024-09-15T10:58:29Z</time>
      </trkpt>
      <trkpt lat="43.17624" lon="1.00853">
        <ele>310.8</ele>
        <time>2024-09-15T10:58:30Z</time>
      </trkpt>
      <trkpt lat="43.1762" lon="1.00852">
        <ele>310.4</ele>
        <time>2024-09-15T10:58:31Z</time>
      </trkpt>
      <trkpt lat="43.17616" lon="1.0085">
        <ele>310</ele>
        <time>2024-09-15T10:58:32Z</time>
      </trkpt>
      <trkpt lat="43.17611" lon="1.00848">
        <ele>309.4</ele>
        <time>2024-09-15T10:58:33Z</time>
      </trkpt>
      <trkpt lat="43.17595" lon="1.00843">
        <ele>309</ele>
        <time>2024-09-15T10:58:36Z</time>
      </trkpt>
      <trkpt lat="43.17589" lon="1.00841">
        <ele>308.6</ele>
        <time>2024-09-15T10:58:37Z</time>
      </trkpt>
      <trkpt lat="43.17584" lon="1.00839">
        <ele>308</ele>
        <time>2024-09-15T10:58:38Z</time>
      </trkpt>
      <trkpt lat="43.17579" lon="1.00837">
        <ele>307.6</ele>
        <time>2024-09-15T10:58:39Z</time>
      </trkpt>
      <trkpt lat="43.17574" lon="1.00835">
        <ele>307.2</ele>
        <time>2024-09-15T10:58:40Z</time>
      </trkpt>
      <trkpt lat="43.17558" lon="1.00828">
        <ele>306.2</ele>
        <time>2024-09-15T10:58:44Z</time>
      </trkpt>
      <trkpt lat="43.17554" lon="1.00826">
        <ele>305.8</ele>
        <time>2024-09-15T10:58:45Z</time>
      </trkpt>
      <trkpt lat="43.1755" lon="1.00824">
        <ele>305.4</ele>
        <time>2024-09-15T10:58:46Z</time>
      </trkpt>
      <trkpt lat="43.17545" lon="1.00821">
        <ele>305</ele>
        <time>2024-09-15T10:58:47Z</time>
      </trkpt>
      <trkpt lat="43.17535" lon="1.00815">
        <ele>305.4</ele>
        <time>2024-09-15T10:58:49Z</time>
      </trkpt>
      <trkpt lat="43.1753" lon="1.00812">
        <ele>305.8</ele>
        <time>2024-09-15T10:58:50Z</time>
      </trkpt>
      <trkpt lat="43.17525" lon="1.00809">
        <ele>306.2</ele>
        <time>2024-09-15T10:58:51Z</time>
      </trkpt>
      <trkpt lat="43.1752" lon="1.00805">
        <ele>306.8</ele>
        <time>2024-09-15T10:58:52Z</time>
      </trkpt>
      <trkpt lat="43.17515" lon="1.00801">
        <ele>307.2</ele>
        <time>2024-09-15T10:58:53Z</time>
      </trkpt>
      <trkpt lat="43.17496" lon="1.00788">
        <ele>307.2</ele>
        <time>2024-09-15T10:58:57Z</time>
      </trkpt>
      <trkpt lat="43.17475" lon="1.00766">
        <ele>307.2</ele>
        <time>2024-09-15T10:59:02Z</time>
      </trkpt>
      <trkpt lat="43.17472" lon="1.00758">
        <ele>306.8</ele>
        <time>2024-09-15T10:59:03Z</time>
      </trkpt>
      <trkpt lat="43.17472" lon="1.0075">
        <ele>306.2</ele>
        <time>2024-09-15T10:59:04Z</time>
      </trkpt>
      <trkpt lat="43.17472" lon="1.00741">
        <ele>305.8</ele>
        <time>2024-09-15T10:59:05Z</time>
      </trkpt>
      <trkpt lat="43.17473" lon="1.00732">
        <ele>305.4</ele>
        <time>2024-09-15T10:59:06Z</time>
      </trkpt>
      <trkpt lat="43.17475" lon="1.00724">
        <ele>305</ele>
        <time>2024-09-15T10:59:07Z</time>
      </trkpt>
      <trkpt lat="43.17477" lon="1.00715">
        <ele>305</ele>
        <time>2024-09-15T10:59:08Z</time>
      </trkpt>
      <trkpt lat="43.17484" lon="1.00691">
        <ele>305</ele>
        <time>2024-09-15T10:59:11Z</time>
      </trkpt>
      <trkpt lat="43.17495" lon="1.00643">
        <ele>304.6</ele>
        <time>2024-09-15T10:59:17Z</time>
      </trkpt>
      <trkpt lat="43.17496" lon="1.00635">
        <ele>304.2</ele>
        <time>2024-09-15T10:59:18Z</time>
      </trkpt>
      <trkpt lat="43.17496" lon="1.00628">
        <ele>303.8</ele>
        <time>2024-09-15T10:59:19Z</time>
      </trkpt>
      <trkpt lat="43.17497" lon="1.00621">
        <ele>303.4</ele>
        <time>2024-09-15T10:59:20Z</time>
      </trkpt>
      <trkpt lat="43.17496" lon="1.00614">
        <ele>303</ele>
        <time>2024-09-15T10:59:21Z</time>
      </trkpt>
      <trkpt lat="43.17495" lon="1.00607">
        <ele>303</ele>
        <time>2024-09-15T10:59:22Z</time>
      </trkpt>
      <trkpt lat="43.17493" lon="1.00595">
        <ele>303</ele>
        <time>2024-09-15T10:59:24Z</time>
      </trkpt>
      <trkpt lat="43.17487" lon="1.00571">
        <ele>303.4</ele>
        <time>2024-09-15T10:59:28Z</time>
      </trkpt>
      <trkpt lat="43.17485" lon="1.00565">
        <ele>303.8</ele>
        <time>2024-09-15T10:59:29Z</time>
      </trkpt>
      <trkpt lat="43.17484" lon="1.00559">
        <ele>304.4</ele>
        <time>2024-09-15T10:59:30Z</time>
      </trkpt>
      <trkpt lat="43.17482" lon="1.00553">
        <ele>304.8</ele>
        <time>2024-09-15T10:59:31Z</time>
      </trkpt>
      <trkpt lat="43.1748" lon="1.00548">
        <ele>305.4</ele>
        <time>2024-09-15T10:59:32Z</time>
      </trkpt>
      <trkpt lat="43.17479" lon="1.00542">
        <ele>306.4</ele>
        <time>2024-09-15T10:59:33Z</time>
      </trkpt>
      <trkpt lat="43.17477" lon="1.00536">
        <ele>307</ele>
        <time>2024-09-15T10:59:34Z</time>
      </trkpt>
      <trkpt lat="43.17475" lon="1.00531">
        <ele>307.6</ele>
        <time>2024-09-15T10:59:35Z</time>
      </trkpt>
      <trkpt lat="43.17473" lon="1.00525">
        <ele>308</ele>
        <time>2024-09-15T10:59:36Z</time>
      </trkpt>
      <trkpt lat="43.17472" lon="1.00519">
        <ele>308.4</ele>
        <time>2024-09-15T10:59:37Z</time>
      </trkpt>
      <trkpt lat="43.1747" lon="1.00514">
        <ele>308.8</ele>
        <time>2024-09-15T10:59:38Z</time>
      </trkpt>
      <trkpt lat="43.17468" lon="1.00508">
        <ele>309.4</ele>
        <time>2024-09-15T10:59:39Z</time>
      </trkpt>
      <trkpt lat="43.17467" lon="1.00502">
        <ele>309.8</ele>
        <time>2024-09-15T10:59:40Z</time>
      </trkpt>
      <trkpt lat="43.17464" lon="1.00491">
        <ele>310.2</ele>
        <time>2024-09-15T10:59:42Z</time>
      </trkpt>
      <trkpt lat="43.17463" lon="1.00486">
        <ele>310.8</ele>
        <time>2024-09-15T10:59:43Z</time>
      </trkpt>
      <trkpt lat="43.17463" lon="1.0048">
        <ele>311.2</ele>
        <time>2024-09-15T10:59:44Z</time>
      </trkpt>
      <trkpt lat="43.17464" lon="1.00475">
        <ele>311.6</ele>
        <time>2024-09-15T10:59:45Z</time>
      </trkpt>
      <trkpt lat="43.17465" lon="1.0047">
        <ele>312</ele>
        <time>2024-09-15T10:59:46Z</time>
      </trkpt>
      <trkpt lat="43.17466" lon="1.00466">
        <ele>312.6</ele>
        <time>2024-09-15T10:59:47Z</time>
      </trkpt>
      <trkpt lat="43.17467" lon="1.00461">
        <ele>313</ele>
        <time>2024-09-15T10:59:48Z</time>
      </trkpt>
      <trkpt lat="43.17469" lon="1.00457">
        <ele>313.6</ele>
        <time>2024-09-15T10:59:49Z</time>
      </trkpt>
      <trkpt lat="43.1747" lon="1.00453">
        <ele>314</ele>
        <time>2024-09-15T10:59:50Z</time>
      </trkpt>
      <trkpt lat="43.17473" lon="1.00449">
        <ele>314.6</ele>
        <time>2024-09-15T10:59:51Z</time>
      </trkpt>
      <trkpt lat="43.17475" lon="1.00445">
        <ele>315.2</ele>
        <time>2024-09-15T10:59:52Z</time>
      </trkpt>
      <trkpt lat="43.17476" lon="1.00442">
        <ele>315.6</ele>
        <time>2024-09-15T10:59:53Z</time>
      </trkpt>
      <trkpt lat="43.17479" lon="1.00437">
        <ele>316.2</ele>
        <time>2024-09-15T10:59:54Z</time>
      </trkpt>
      <trkpt lat="43.1748" lon="1.00433">
        <ele>316.8</ele>
        <time>2024-09-15T10:59:55Z</time>
      </trkpt>
      <trkpt lat="43.17482" lon="1.0043">
        <ele>317.2</ele>
        <time>2024-09-15T10:59:56Z</time>
      </trkpt>
      <trkpt lat="43.17484" lon="1.00426">
        <ele>317.8</ele>
        <time>2024-09-15T10:59:57Z</time>
      </trkpt>
      <trkpt lat="43.17486" lon="1.00422">
        <ele>318.8</ele>
        <time>2024-09-15T10:59:58Z</time>
      </trkpt>
      <trkpt lat="43.17488" lon="1.00418">
        <ele>319.2</ele>
        <time>2024-09-15T10:59:59Z</time>
      </trkpt>
      <trkpt lat="43.17489" lon="1.00414">
        <ele>319.8</ele>
        <time>2024-09-15T11:00:00Z</time>
      </trkpt>
      <trkpt lat="43.17491" lon="1.0041">
        <ele>320.4</ele>
        <time>2024-09-15T11:00:01Z</time>
      </trkpt>
      <trkpt lat="43.17492" lon="1.00406">
        <ele>321</ele>
        <time>2024-09-15T11:00:02Z</time>
      </trkpt>
      <trkpt lat="43.17494" lon="1.00402">
        <ele>321.6</ele>
        <time>2024-09-15T11:00:03Z</time>
      </trkpt>
      <trkpt lat="43.17496" lon="1.00398">
        <ele>322</ele>
        <time>2024-09-15T11:00:04Z</time>
      </trkpt>
      <trkpt lat="43.17497" lon="1.00394">
        <ele>322.6</ele>
        <time>2024-09-15T11:00:05Z</time>
      </trkpt>
      <trkpt lat="43.17498" lon="1.00389">
        <ele>323.2</ele>
        <time>2024-09-15T11:00:06Z</time>
      </trkpt>
      <trkpt lat="43.17498" lon="1.00385">
        <ele>323.6</ele>
        <time>2024-09-15T11:00:07Z</time>
      </trkpt>
      <trkpt lat="43.17499" lon="1.0038">
        <ele>324.2</ele>
        <time>2024-09-15T11:00:08Z</time>
      </trkpt>
      <trkpt lat="43.175" lon="1.00376">
        <ele>324.6</ele>
        <time>2024-09-15T11:00:09Z</time>
      </trkpt>
      <trkpt lat="43.17501" lon="1.00372">
        <ele>325.2</ele>
        <time>2024-09-15T11:00:10Z</time>
      </trkpt>
      <trkpt lat="43.17501" lon="1.00367">
        <ele>325.6</ele>
        <time>2024-09-15T11:00:11Z</time>
      </trkpt>
      <trkpt lat="43.17502" lon="1.00363">
        <ele>326.2</ele>
        <time>2024-09-15T11:00:12Z</time>
      </trkpt>
      <trkpt lat="43.17503" lon="1.00358">
        <ele>326.6</ele>
        <time>2024-09-15T11:00:13Z</time>
      </trkpt>
      <trkpt lat="43.17503" lon="1.00353">
        <ele>327.2</ele>
        <time>2024-09-15T11:00:14Z</time>
      </trkpt>
      <trkpt lat="43.17504" lon="1.00349">
        <ele>327.6</ele>
        <time>2024-09-15T11:00:15Z</time>
      </trkpt>
      <trkpt lat="43.17504" lon="1.00344">
        <ele>328</ele>
        <time>2024-09-15T11:00:16Z</time>
      </trkpt>
      <trkpt lat="43.17505" lon="1.0034">
        <ele>328.6</ele>
        <time>2024-09-15T11:00:17Z</time>
      </trkpt>
      <trkpt lat="43.17505" lon="1.00331">
        <ele>329</ele>
        <time>2024-09-15T11:00:19Z</time>
      </trkpt>
      <trkpt lat="43.17506" lon="1.00327">
        <ele>329.4</ele>
        <time>2024-09-15T11:00:20Z</time>
      </trkpt>
      <trkpt lat="43.17506" lon="1.00322">
        <ele>329.8</ele>
        <time>2024-09-15T11:00:21Z</time>
      </trkpt>
      <trkpt lat="43.17506" lon="1.00318">
        <ele>330.4</ele>
        <time>2024-09-15T11:00:22Z</time>
      </trkpt>
      <trkpt lat="43.17506" lon="1.00313">
        <ele>330.8</ele>
        <time>2024-09-15T11:00:23Z</time>
      </trkpt>
      <trkpt lat="43.17506" lon="1.00308">
        <ele>331.2</ele>
        <time>2024-09-15T11:00:24Z</time>
      </trkpt>
      <trkpt lat="43.17506" lon="1.00303">
        <ele>331.8</ele>
        <time>2024-09-15T11:00:25Z</time>
      </trkpt>
      <trkpt lat="43.17506" lon="1.00299">
        <ele>332.2</ele>
        <time>2024-09-15T11:00:26Z</time>
      </trkpt>
      <trkpt lat="43.17506" lon="1.00295">
        <ele>332.6</ele>
        <time>2024-09-15T11:00:27Z</time>
      </trkpt>
      <trkpt lat="43.17506" lon="1.0029">
        <ele>333.2</ele>
        <time>2024-09-15T11:00:28Z</time>
      </trkpt>
      <trkpt lat="43.17506" lon="1.00277">
        <ele>333.6</ele>
        <time>2024-09-15T11:00:31Z</time>
      </trkpt>
      <trkpt lat="43.17505" lon="1.00273">
        <ele>334</ele>
        <time>2024-09-15T11:00:32Z</time>
      </trkpt>
      <trkpt lat="43.17505" lon="1.00269">
        <ele>334.4</ele>
        <time>2024-09-15T11:00:33Z</time>
      </trkpt>
      <trkpt lat="43.17505" lon="1.00266">
        <ele>334.8</ele>
        <time>2024-09-15T11:00:34Z</time>
      </trkpt>
      <trkpt lat="43.17504" lon="1.00263">
        <ele>335.2</ele>
        <time>2024-09-15T11:00:35Z</time>
      </trkpt>
      <trkpt lat="43.17502" lon="1.00256">
        <ele>335.8</ele>
        <time>2024-09-15T11:00:37Z</time>
      </trkpt>
      <trkpt lat="43.17501" lon="1.00252">
        <ele>336.2</ele>
        <time>2024-09-15T11:00:38Z</time>
      </trkpt>
      <trkpt lat="43.175" lon="1.00249">
        <ele>336.6</ele>
        <time>2024-09-15T11:00:39Z</time>
      </trkpt>
      <trkpt lat="43.17498" lon="1.00245">
        <ele>337.2</ele>
        <time>2024-09-15T11:00:40Z</time>
      </trkpt>
      <trkpt lat="43.17497" lon="1.00241">
        <ele>337.6</ele>
        <time>2024-09-15T11:00:41Z</time>
      </trkpt>
      <trkpt lat="43.17495" lon="1.00222">
        <ele>337.6</ele>
        <time>2024-09-15T11:00:46Z</time>
      </trkpt>
      <trkpt lat="43.17495" lon="1.00214">
        <ele>338</ele>
        <time>2024-09-15T11:00:48Z</time>
      </trkpt>
      <trkpt lat="43.17495" lon="1.00209">
        <ele>338.4</ele>
        <time>2024-09-15T11:00:49Z</time>
      </trkpt>
      <trkpt lat="43.17494" lon="1.00205">
        <ele>338.8</ele>
        <time>2024-09-15T11:00:50Z</time>
      </trkpt>
      <trkpt lat="43.17495" lon="1.002">
        <ele>339.2</ele>
        <time>2024-09-15T11:00:51Z</time>
      </trkpt>
      <trkpt lat="43.17494" lon="1.00197">
        <ele>339.6</ele>
        <time>2024-09-15T11:00:52Z</time>
      </trkpt>
      <trkpt lat="43.17494" lon="1.00193">
        <ele>339.6</ele>
        <time>2024-09-15T11:00:53Z</time>
      </trkpt>
      <trkpt lat="43.17493" lon="1.00175">
        <ele>339.6</ele>
        <time>2024-09-15T11:00:59Z</time>
      </trkpt>
      <trkpt lat="43.17492" lon="1.00164">
        <ele>339.6</ele>
        <time>2024-09-15T11:01:05Z</time>
      </trkpt>
      <trkpt lat="43.17492" lon="1.00161">
        <ele>339.6</ele>
        <time>2024-09-15T11:01:15Z</time>
      </trkpt>
      <trkpt lat="43.17489" lon="1.00151">
        <ele>339.6</ele>
        <time>2024-09-15T11:01:17Z</time>
      </trkpt>
      <trkpt lat="43.17476" lon="1.00121">
        <ele>339.2</ele>
        <time>2024-09-15T11:01:21Z</time>
      </trkpt>
      <trkpt lat="43.17473" lon="1.00112">
        <ele>338.8</ele>
        <time>2024-09-15T11:01:22Z</time>
      </trkpt>
      <trkpt lat="43.17469" lon="1.00103">
        <ele>338.2</ele>
        <time>2024-09-15T11:01:23Z</time>
      </trkpt>
      <trkpt lat="43.17465" lon="1.00094">
        <ele>337.8</ele>
        <time>2024-09-15T11:01:24Z</time>
      </trkpt>
      <trkpt lat="43.17461" lon="1.00086">
        <ele>337.4</ele>
        <time>2024-09-15T11:01:25Z</time>
      </trkpt>
      <trkpt lat="43.17455" lon="1.0007">
        <ele>337.4</ele>
        <time>2024-09-15T11:01:27Z</time>
      </trkpt>
      <trkpt lat="43.17439" lon="1.00036">
        <ele>337.4</ele>
        <time>2024-09-15T11:01:32Z</time>
      </trkpt>
      <trkpt lat="43.17415" lon="0.99988">
        <ele>337.4</ele>
        <time>2024-09-15T11:01:39Z</time>
      </trkpt>
      <trkpt lat="43.17396" lon="0.99946">
        <ele>337.4</ele>
        <time>2024-09-15T11:01:45Z</time>
      </trkpt>
      <trkpt lat="43.17394" lon="0.99938">
        <ele>337.4</ele>
        <time>2024-09-15T11:01:46Z</time>
      </trkpt>
      <trkpt lat="43.17392" lon="0.99931">
        <ele>337.8</ele>
        <time>2024-09-15T11:01:47Z</time>
      </trkpt>
      <trkpt lat="43.1739" lon="0.99923">
        <ele>338.2</ele>
        <time>2024-09-15T11:01:48Z</time>
      </trkpt>
      <trkpt lat="43.17389" lon="0.99915">
        <ele>338.8</ele>
        <time>2024-09-15T11:01:49Z</time>
      </trkpt>
      <trkpt lat="43.17388" lon="0.99908">
        <ele>339.2</ele>
        <time>2024-09-15T11:01:50Z</time>
      </trkpt>
      <trkpt lat="43.17387" lon="0.99901">
        <ele>339.8</ele>
        <time>2024-09-15T11:01:51Z</time>
      </trkpt>
      <trkpt lat="43.17387" lon="0.99894">
        <ele>340.4</ele>
        <time>2024-09-15T11:01:52Z</time>
      </trkpt>
      <trkpt lat="43.17386" lon="0.99886">
        <ele>340.8</ele>
        <time>2024-09-15T11:01:53Z</time>
      </trkpt>
      <trkpt lat="43.17386" lon="0.9988">
        <ele>341.4</ele>
        <time>2024-09-15T11:01:54Z</time>
      </trkpt>
      <trkpt lat="43.17385" lon="0.99873">
        <ele>341.8</ele>
        <time>2024-09-15T11:01:55Z</time>
      </trkpt>
      <trkpt lat="43.17385" lon="0.99861">
        <ele>341.8</ele>
        <time>2024-09-15T11:01:57Z</time>
      </trkpt>
      <trkpt lat="43.17384" lon="0.99849">
        <ele>341.8</ele>
        <time>2024-09-15T11:01:59Z</time>
      </trkpt>
      <trkpt lat="43.17382" lon="0.99821">
        <ele>341.8</ele>
        <time>2024-09-15T11:02:04Z</time>
      </trkpt>
      <trkpt lat="43.17379" lon="0.99779">
        <ele>341.8</ele>
        <time>2024-09-15T11:02:11Z</time>
      </trkpt>
      <trkpt lat="43.17377" lon="0.99759">
        <ele>341.4</ele>
        <time>2024-09-15T11:02:14Z</time>
      </trkpt>
      <trkpt lat="43.17376" lon="0.99752">
        <ele>341</ele>
        <time>2024-09-15T11:02:15Z</time>
      </trkpt>
      <trkpt lat="43.17375" lon="0.99744">
        <ele>340.6</ele>
        <time>2024-09-15T11:02:16Z</time>
      </trkpt>
      <trkpt lat="43.17374" lon="0.99737">
        <ele>340.2</ele>
        <time>2024-09-15T11:02:17Z</time>
      </trkpt>
      <trkpt lat="43.17373" lon="0.99729">
        <ele>339.8</ele>
        <time>2024-09-15T11:02:18Z</time>
      </trkpt>
      <trkpt lat="43.17364" lon="0.99677">
        <ele>339.4</ele>
        <time>2024-09-15T11:02:24Z</time>
      </trkpt>
      <trkpt lat="43.17362" lon="0.99668">
        <ele>339</ele>
        <time>2024-09-15T11:02:25Z</time>
      </trkpt>
      <trkpt lat="43.17359" lon="0.99658">
        <ele>338.6</ele>
        <time>2024-09-15T11:02:26Z</time>
      </trkpt>
      <trkpt lat="43.17358" lon="0.99648">
        <ele>338</ele>
        <time>2024-09-15T11:02:27Z</time>
      </trkpt>
      <trkpt lat="43.17356" lon="0.99637">
        <ele>337.4</ele>
        <time>2024-09-15T11:02:28Z</time>
      </trkpt>
      <trkpt lat="43.17354" lon="0.99626">
        <ele>336</ele>
        <time>2024-09-15T11:02:29Z</time>
      </trkpt>
      <trkpt lat="43.17352" lon="0.99616">
        <ele>335.4</ele>
        <time>2024-09-15T11:02:30Z</time>
      </trkpt>
      <trkpt lat="43.17348" lon="0.99594">
        <ele>335</ele>
        <time>2024-09-15T11:02:32Z</time>
      </trkpt>
      <trkpt lat="43.17345" lon="0.99583">
        <ele>334.6</ele>
        <time>2024-09-15T11:02:33Z</time>
      </trkpt>
      <trkpt lat="43.17341" lon="0.99573">
        <ele>334.2</ele>
        <time>2024-09-15T11:02:34Z</time>
      </trkpt>
      <trkpt lat="43.17337" lon="0.99565">
        <ele>333.4</ele>
        <time>2024-09-15T11:02:35Z</time>
      </trkpt>
      <trkpt lat="43.17332" lon="0.99554">
        <ele>332.8</ele>
        <time>2024-09-15T11:02:36Z</time>
      </trkpt>
      <trkpt lat="43.17327" lon="0.99544">
        <ele>332</ele>
        <time>2024-09-15T11:02:37Z</time>
      </trkpt>
      <trkpt lat="43.17321" lon="0.99534">
        <ele>331.4</ele>
        <time>2024-09-15T11:02:38Z</time>
      </trkpt>
      <trkpt lat="43.17315" lon="0.99524">
        <ele>330.8</ele>
        <time>2024-09-15T11:02:39Z</time>
      </trkpt>
      <trkpt lat="43.17309" lon="0.99513">
        <ele>330</ele>
        <time>2024-09-15T11:02:40Z</time>
      </trkpt>
      <trkpt lat="43.17303" lon="0.99501">
        <ele>329.4</ele>
        <time>2024-09-15T11:02:41Z</time>
      </trkpt>
      <trkpt lat="43.17298" lon="0.99489">
        <ele>328.6</ele>
        <time>2024-09-15T11:02:42Z</time>
      </trkpt>
      <trkpt lat="43.17293" lon="0.99476">
        <ele>327.8</ele>
        <time>2024-09-15T11:02:43Z</time>
      </trkpt>
      <trkpt lat="43.17289" lon="0.99463">
        <ele>327.2</ele>
        <time>2024-09-15T11:02:44Z</time>
      </trkpt>
      <trkpt lat="43.17285" lon="0.9945">
        <ele>326.4</ele>
        <time>2024-09-15T11:02:45Z</time>
      </trkpt>
      <trkpt lat="43.17284" lon="0.99436">
        <ele>325.6</ele>
        <time>2024-09-15T11:02:46Z</time>
      </trkpt>
      <trkpt lat="43.17283" lon="0.99422">
        <ele>325</ele>
        <time>2024-09-15T11:02:47Z</time>
      </trkpt>
      <trkpt lat="43.17281" lon="0.99408">
        <ele>324.4</ele>
        <time>2024-09-15T11:02:48Z</time>
      </trkpt>
      <trkpt lat="43.17279" lon="0.99393">
        <ele>323.6</ele>
        <time>2024-09-15T11:02:49Z</time>
      </trkpt>
      <trkpt lat="43.17276" lon="0.99379">
        <ele>323</ele>
        <time>2024-09-15T11:02:50Z</time>
      </trkpt>
      <trkpt lat="43.17275" lon="0.99365">
        <ele>322.2</ele>
        <time>2024-09-15T11:02:51Z</time>
      </trkpt>
      <trkpt lat="43.17273" lon="0.99351">
        <ele>321.4</ele>
        <time>2024-09-15T11:02:52Z</time>
      </trkpt>
      <trkpt lat="43.17273" lon="0.99336">
        <ele>320.6</ele>
        <time>2024-09-15T11:02:53Z</time>
      </trkpt>
      <trkpt lat="43.17275" lon="0.99322">
        <ele>319</ele>
        <time>2024-09-15T11:02:54Z</time>
      </trkpt>
      <trkpt lat="43.17276" lon="0.99309">
        <ele>318.2</ele>
        <time>2024-09-15T11:02:55Z</time>
      </trkpt>
      <trkpt lat="43.17277" lon="0.99295">
        <ele>317.4</ele>
        <time>2024-09-15T11:02:56Z</time>
      </trkpt>
      <trkpt lat="43.17278" lon="0.9928">
        <ele>316.6</ele>
        <time>2024-09-15T11:02:57Z</time>
      </trkpt>
      <trkpt lat="43.17278" lon="0.99267">
        <ele>316</ele>
        <time>2024-09-15T11:02:58Z</time>
      </trkpt>
      <trkpt lat="43.17277" lon="0.99254">
        <ele>315.4</ele>
        <time>2024-09-15T11:02:59Z</time>
      </trkpt>
      <trkpt lat="43.17277" lon="0.99241">
        <ele>314.6</ele>
        <time>2024-09-15T11:03:00Z</time>
      </trkpt>
      <trkpt lat="43.17276" lon="0.99228">
        <ele>314</ele>
        <time>2024-09-15T11:03:01Z</time>
      </trkpt>
      <trkpt lat="43.17274" lon="0.99215">
        <ele>313.4</ele>
        <time>2024-09-15T11:03:02Z</time>
      </trkpt>
      <trkpt lat="43.17272" lon="0.99202">
        <ele>312.8</ele>
        <time>2024-09-15T11:03:03Z</time>
      </trkpt>
      <trkpt lat="43.17269" lon="0.99189">
        <ele>312.4</ele>
        <time>2024-09-15T11:03:04Z</time>
      </trkpt>
      <trkpt lat="43.17265" lon="0.99177">
        <ele>311.8</ele>
        <time>2024-09-15T11:03:05Z</time>
      </trkpt>
      <trkpt lat="43.17261" lon="0.99165">
        <ele>311.2</ele>
        <time>2024-09-15T11:03:06Z</time>
      </trkpt>
      <trkpt lat="43.17258" lon="0.99153">
        <ele>310.8</ele>
        <time>2024-09-15T11:03:07Z</time>
      </trkpt>
      <trkpt lat="43.17254" lon="0.99143">
        <ele>310.4</ele>
        <time>2024-09-15T11:03:08Z</time>
      </trkpt>
      <trkpt lat="43.17251" lon="0.99132">
        <ele>310</ele>
        <time>2024-09-15T11:03:09Z</time>
      </trkpt>
      <trkpt lat="43.17247" lon="0.99122">
        <ele>309.6</ele>
        <time>2024-09-15T11:03:10Z</time>
      </trkpt>
      <trkpt lat="43.17244" lon="0.99112">
        <ele>309.2</ele>
        <time>2024-09-15T11:03:11Z</time>
      </trkpt>
      <trkpt lat="43.17231" lon="0.99073">
        <ele>308.8</ele>
        <time>2024-09-15T11:03:15Z</time>
      </trkpt>
      <trkpt lat="43.17228" lon="0.99064">
        <ele>308.4</ele>
        <time>2024-09-15T11:03:16Z</time>
      </trkpt>
      <trkpt lat="43.17225" lon="0.99056">
        <ele>308</ele>
        <time>2024-09-15T11:03:17Z</time>
      </trkpt>
      <trkpt lat="43.17222" lon="0.99047">
        <ele>307.2</ele>
        <time>2024-09-15T11:03:18Z</time>
      </trkpt>
      <trkpt lat="43.17209" lon="0.99013">
        <ele>307.2</ele>
        <time>2024-09-15T11:03:22Z</time>
      </trkpt>
      <trkpt lat="43.172" lon="0.98985">
        <ele>306.8</ele>
        <time>2024-09-15T11:03:25Z</time>
      </trkpt>
      <trkpt lat="43.17197" lon="0.98976">
        <ele>306.4</ele>
        <time>2024-09-15T11:03:26Z</time>
      </trkpt>
      <trkpt lat="43.17194" lon="0.98967">
        <ele>305.8</ele>
        <time>2024-09-15T11:03:27Z</time>
      </trkpt>
      <trkpt lat="43.17191" lon="0.98959">
        <ele>305.4</ele>
        <time>2024-09-15T11:03:28Z</time>
      </trkpt>
      <trkpt lat="43.17189" lon="0.98951">
        <ele>305</ele>
        <time>2024-09-15T11:03:29Z</time>
      </trkpt>
      <trkpt lat="43.17182" lon="0.9893">
        <ele>305</ele>
        <time>2024-09-15T11:03:32Z</time>
      </trkpt>
      <trkpt lat="43.17176" lon="0.98909">
        <ele>305.4</ele>
        <time>2024-09-15T11:03:35Z</time>
      </trkpt>
      <trkpt lat="43.17173" lon="0.98902">
        <ele>306</ele>
        <time>2024-09-15T11:03:36Z</time>
      </trkpt>
      <trkpt lat="43.17171" lon="0.98895">
        <ele>306.4</ele>
        <time>2024-09-15T11:03:37Z</time>
      </trkpt>
      <trkpt lat="43.17169" lon="0.98889">
        <ele>306.8</ele>
        <time>2024-09-15T11:03:38Z</time>
      </trkpt>
      <trkpt lat="43.17166" lon="0.98882">
        <ele>307.2</ele>
        <time>2024-09-15T11:03:39Z</time>
      </trkpt>
      <trkpt lat="43.17164" lon="0.98876">
        <ele>307.6</ele>
        <time>2024-09-15T11:03:40Z</time>
      </trkpt>
      <trkpt lat="43.17162" lon="0.98869">
        <ele>308.2</ele>
        <time>2024-09-15T11:03:41Z</time>
      </trkpt>
      <trkpt lat="43.17159" lon="0.98863">
        <ele>308.6</ele>
        <time>2024-09-15T11:03:42Z</time>
      </trkpt>
      <trkpt lat="43.17157" lon="0.98858">
        <ele>309.6</ele>
        <time>2024-09-15T11:03:43Z</time>
      </trkpt>
      <trkpt lat="43.17155" lon="0.98852">
        <ele>310</ele>
        <time>2024-09-15T11:03:44Z</time>
      </trkpt>
      <trkpt lat="43.17152" lon="0.98846">
        <ele>310.4</ele>
        <time>2024-09-15T11:03:45Z</time>
      </trkpt>
      <trkpt lat="43.1715" lon="0.98842">
        <ele>310.8</ele>
        <time>2024-09-15T11:03:46Z</time>
      </trkpt>
      <trkpt lat="43.17148" lon="0.98837">
        <ele>311.4</ele>
        <time>2024-09-15T11:03:47Z</time>
      </trkpt>
      <trkpt lat="43.17146" lon="0.98831">
        <ele>311.8</ele>
        <time>2024-09-15T11:03:48Z</time>
      </trkpt>
      <trkpt lat="43.17144" lon="0.98827">
        <ele>312.4</ele>
        <time>2024-09-15T11:03:49Z</time>
      </trkpt>
      <trkpt lat="43.17142" lon="0.98822">
        <ele>313</ele>
        <time>2024-09-15T11:03:50Z</time>
      </trkpt>
      <trkpt lat="43.17139" lon="0.98817">
        <ele>313.4</ele>
        <time>2024-09-15T11:03:51Z</time>
      </trkpt>
      <trkpt lat="43.17136" lon="0.98813">
        <ele>314</ele>
        <time>2024-09-15T11:03:52Z</time>
      </trkpt>
      <trkpt lat="43.17133" lon="0.98808">
        <ele>314.6</ele>
        <time>2024-09-15T11:03:53Z</time>
      </trkpt>
      <trkpt lat="43.1713" lon="0.98803">
        <ele>315.2</ele>
        <time>2024-09-15T11:03:54Z</time>
      </trkpt>
      <trkpt lat="43.17128" lon="0.98799">
        <ele>315.8</ele>
        <time>2024-09-15T11:03:55Z</time>
      </trkpt>
      <trkpt lat="43.17125" lon="0.98795">
        <ele>316.4</ele>
        <time>2024-09-15T11:03:56Z</time>
      </trkpt>
      <trkpt lat="43.17122" lon="0.9879">
        <ele>316.8</ele>
        <time>2024-09-15T11:03:57Z</time>
      </trkpt>
      <trkpt lat="43.17119" lon="0.98786">
        <ele>317.4</ele>
        <time>2024-09-15T11:03:58Z</time>
      </trkpt>
      <trkpt lat="43.17116" lon="0.98781">
        <ele>318</ele>
        <time>2024-09-15T11:03:59Z</time>
      </trkpt>
      <trkpt lat="43.17113" lon="0.98777">
        <ele>318.6</ele>
        <time>2024-09-15T11:04:00Z</time>
      </trkpt>
      <trkpt lat="43.1711" lon="0.98773">
        <ele>319.2</ele>
        <time>2024-09-15T11:04:01Z</time>
      </trkpt>
      <trkpt lat="43.17107" lon="0.9877">
        <ele>319.8</ele>
        <time>2024-09-15T11:04:02Z</time>
      </trkpt>
      <trkpt lat="43.17104" lon="0.98767">
        <ele>320.4</ele>
        <time>2024-09-15T11:04:03Z</time>
      </trkpt>
      <trkpt lat="43.17102" lon="0.98765">
        <ele>320.8</ele>
        <time>2024-09-15T11:04:04Z</time>
      </trkpt>
      <trkpt lat="43.171" lon="0.98763">
        <ele>320.8</ele>
        <time>2024-09-15T11:04:05Z</time>
      </trkpt>
      <trkpt lat="43.17095" lon="0.98758">
        <ele>320.8</ele>
        <time>2024-09-15T11:04:09Z</time>
      </trkpt>
      <trkpt lat="43.17093" lon="0.98757">
        <ele>323</ele>
        <time>2024-09-15T11:04:19Z</time>
      </trkpt>
      <trkpt lat="43.17083" lon="0.98749">
        <ele>323</ele>
        <time>2024-09-15T11:04:23Z</time>
      </trkpt>
      <trkpt lat="43.17069" lon="0.98737">
        <ele>323</ele>
        <time>2024-09-15T11:04:27Z</time>
      </trkpt>
      <trkpt lat="43.17064" lon="0.98734">
        <ele>322.4</ele>
        <time>2024-09-15T11:04:28Z</time>
      </trkpt>
      <trkpt lat="43.1706" lon="0.98729">
        <ele>322</ele>
        <time>2024-09-15T11:04:29Z</time>
      </trkpt>
      <trkpt lat="43.17056" lon="0.98724">
        <ele>321.6</ele>
        <time>2024-09-15T11:04:30Z</time>
      </trkpt>
      <trkpt lat="43.17051" lon="0.98717">
        <ele>321.2</ele>
        <time>2024-09-15T11:04:31Z</time>
      </trkpt>
      <trkpt lat="43.17047" lon="0.9871">
        <ele>320.4</ele>
        <time>2024-09-15T11:04:32Z</time>
      </trkpt>
      <trkpt lat="43.17042" lon="0.98702">
        <ele>319.8</ele>
        <time>2024-09-15T11:04:33Z</time>
      </trkpt>
      <trkpt lat="43.17037" lon="0.98693">
        <ele>319.4</ele>
        <time>2024-09-15T11:04:34Z</time>
      </trkpt>
      <trkpt lat="43.17032" lon="0.98684">
        <ele>318.8</ele>
        <time>2024-09-15T11:04:35Z</time>
      </trkpt>
      <trkpt lat="43.17027" lon="0.98674">
        <ele>318.2</ele>
        <time>2024-09-15T11:04:36Z</time>
      </trkpt>
      <trkpt lat="43.17023" lon="0.98664">
        <ele>317.6</ele>
        <time>2024-09-15T11:04:37Z</time>
      </trkpt>
      <trkpt lat="43.17019" lon="0.98652">
        <ele>317</ele>
        <time>2024-09-15T11:04:38Z</time>
      </trkpt>
      <trkpt lat="43.17016" lon="0.98639">
        <ele>316.4</ele>
        <time>2024-09-15T11:04:39Z</time>
      </trkpt>
      <trkpt lat="43.17014" lon="0.98625">
        <ele>315.6</ele>
        <time>2024-09-15T11:04:40Z</time>
      </trkpt>
      <trkpt lat="43.17013" lon="0.98611">
        <ele>314.8</ele>
        <time>2024-09-15T11:04:41Z</time>
      </trkpt>
      <trkpt lat="43.17013" lon="0.98596">
        <ele>314</ele>
        <time>2024-09-15T11:04:42Z</time>
      </trkpt>
      <trkpt lat="43.17013" lon="0.98582">
        <ele>313.2</ele>
        <time>2024-09-15T11:04:43Z</time>
      </trkpt>
      <trkpt lat="43.17012" lon="0.98568">
        <ele>312.2</ele>
        <time>2024-09-15T11:04:44Z</time>
      </trkpt>
      <trkpt lat="43.17012" lon="0.98554">
        <ele>311.6</ele>
        <time>2024-09-15T11:04:45Z</time>
      </trkpt>
      <trkpt lat="43.17012" lon="0.9854">
        <ele>311</ele>
        <time>2024-09-15T11:04:46Z</time>
      </trkpt>
      <trkpt lat="43.17011" lon="0.98526">
        <ele>310.4</ele>
        <time>2024-09-15T11:04:47Z</time>
      </trkpt>
      <trkpt lat="43.17011" lon="0.98513">
        <ele>310</ele>
        <time>2024-09-15T11:04:48Z</time>
      </trkpt>
      <trkpt lat="43.1701" lon="0.98498">
        <ele>309.2</ele>
        <time>2024-09-15T11:04:49Z</time>
      </trkpt>
      <trkpt lat="43.1701" lon="0.98484">
        <ele>308.6</ele>
        <time>2024-09-15T11:04:50Z</time>
      </trkpt>
      <trkpt lat="43.1701" lon="0.9847">
        <ele>307.8</ele>
        <time>2024-09-15T11:04:51Z</time>
      </trkpt>
      <trkpt lat="43.1701" lon="0.98454">
        <ele>307.2</ele>
        <time>2024-09-15T11:04:52Z</time>
      </trkpt>
      <trkpt lat="43.17011" lon="0.9844">
        <ele>306.6</ele>
        <time>2024-09-15T11:04:53Z</time>
      </trkpt>
      <trkpt lat="43.17012" lon="0.98426">
        <ele>306</ele>
        <time>2024-09-15T11:04:54Z</time>
      </trkpt>
      <trkpt lat="43.17012" lon="0.98412">
        <ele>305.4</ele>
        <time>2024-09-15T11:04:55Z</time>
      </trkpt>
      <trkpt lat="43.17012" lon="0.98398">
        <ele>304.4</ele>
        <time>2024-09-15T11:04:56Z</time>
      </trkpt>
      <trkpt lat="43.17012" lon="0.98385">
        <ele>304</ele>
        <time>2024-09-15T11:04:57Z</time>
      </trkpt>
      <trkpt lat="43.17013" lon="0.98373">
        <ele>303.6</ele>
        <time>2024-09-15T11:04:58Z</time>
      </trkpt>
      <trkpt lat="43.17014" lon="0.98359">
        <ele>303.2</ele>
        <time>2024-09-15T11:04:59Z</time>
      </trkpt>
      <trkpt lat="43.17015" lon="0.98346">
        <ele>302.8</ele>
        <time>2024-09-15T11:05:00Z</time>
      </trkpt>
      <trkpt lat="43.17017" lon="0.98333">
        <ele>302.4</ele>
        <time>2024-09-15T11:05:01Z</time>
      </trkpt>
      <trkpt lat="43.17019" lon="0.98322">
        <ele>302</ele>
        <time>2024-09-15T11:05:02Z</time>
      </trkpt>
      <trkpt lat="43.17021" lon="0.98311">
        <ele>301.6</ele>
        <time>2024-09-15T11:05:03Z</time>
      </trkpt>
      <trkpt lat="43.17025" lon="0.983">
        <ele>301</ele>
        <time>2024-09-15T11:05:04Z</time>
      </trkpt>
      <trkpt lat="43.17032" lon="0.98291">
        <ele>300.6</ele>
        <time>2024-09-15T11:05:05Z</time>
      </trkpt>
      <trkpt lat="43.17039" lon="0.9828">
        <ele>300</ele>
        <time>2024-09-15T11:05:06Z</time>
      </trkpt>
      <trkpt lat="43.17047" lon="0.98272">
        <ele>299.4</ele>
        <time>2024-09-15T11:05:07Z</time>
      </trkpt>
      <trkpt lat="43.17054" lon="0.98264">
        <ele>298.8</ele>
        <time>2024-09-15T11:05:08Z</time>
      </trkpt>
      <trkpt lat="43.17061" lon="0.98255">
        <ele>298.2</ele>
        <time>2024-09-15T11:05:09Z</time>
      </trkpt>
      <trkpt lat="43.17067" lon="0.98247">
        <ele>297.6</ele>
        <time>2024-09-15T11:05:10Z</time>
      </trkpt>
      <trkpt lat="43.17095" lon="0.98206">
        <ele>297.6</ele>
        <time>2024-09-15T11:05:15Z</time>
      </trkpt>
      <trkpt lat="43.17118" lon="0.98171">
        <ele>297.2</ele>
        <time>2024-09-15T11:05:20Z</time>
      </trkpt>
      <trkpt lat="43.17123" lon="0.98164">
        <ele>296.8</ele>
        <time>2024-09-15T11:05:21Z</time>
      </trkpt>
      <trkpt lat="43.17129" lon="0.98159">
        <ele>296.4</ele>
        <time>2024-09-15T11:05:22Z</time>
      </trkpt>
      <trkpt lat="43.17136" lon="0.98153">
        <ele>296</ele>
        <time>2024-09-15T11:05:23Z</time>
      </trkpt>
      <trkpt lat="43.17143" lon="0.98147">
        <ele>295.6</ele>
        <time>2024-09-15T11:05:24Z</time>
      </trkpt>
      <trkpt lat="43.17149" lon="0.98142">
        <ele>295.6</ele>
        <time>2024-09-15T11:05:25Z</time>
      </trkpt>
      <trkpt lat="43.17154" lon="0.98134">
        <ele>295.2</ele>
        <time>2024-09-15T11:05:26Z</time>
      </trkpt>
      <trkpt lat="43.17158" lon="0.98126">
        <ele>294.8</ele>
        <time>2024-09-15T11:05:27Z</time>
      </trkpt>
      <trkpt lat="43.17161" lon="0.98117">
        <ele>294.4</ele>
        <time>2024-09-15T11:05:28Z</time>
      </trkpt>
      <trkpt lat="43.17162" lon="0.98109">
        <ele>294</ele>
        <time>2024-09-15T11:05:29Z</time>
      </trkpt>
      <trkpt lat="43.17163" lon="0.981">
        <ele>293.6</ele>
        <time>2024-09-15T11:05:30Z</time>
      </trkpt>
      <trkpt lat="43.17162" lon="0.98091">
        <ele>293.6</ele>
        <time>2024-09-15T11:05:31Z</time>
      </trkpt>
      <trkpt lat="43.17157" lon="0.98068">
        <ele>293.6</ele>
        <time>2024-09-15T11:05:34Z</time>
      </trkpt>
      <trkpt lat="43.17156" lon="0.9806">
        <ele>293.6</ele>
        <time>2024-09-15T11:05:35Z</time>
      </trkpt>
      <trkpt lat="43.17146" lon="0.98027">
        <ele>293</ele>
        <time>2024-09-15T11:05:39Z</time>
      </trkpt>
      <trkpt lat="43.17142" lon="0.98018">
        <ele>292.6</ele>
        <time>2024-09-15T11:05:40Z</time>
      </trkpt>
      <trkpt lat="43.17138" lon="0.98009">
        <ele>292</ele>
        <time>2024-09-15T11:05:41Z</time>
      </trkpt>
      <trkpt lat="43.17134" lon="0.98">
        <ele>291.4</ele>
        <time>2024-09-15T11:05:42Z</time>
      </trkpt>
      <trkpt lat="43.17129" lon="0.97992">
        <ele>290.8</ele>
        <time>2024-09-15T11:05:43Z</time>
      </trkpt>
      <trkpt lat="43.17123" lon="0.97983">
        <ele>290.2</ele>
        <time>2024-09-15T11:05:44Z</time>
      </trkpt>
      <trkpt lat="43.17118" lon="0.97976">
        <ele>289</ele>
        <time>2024-09-15T11:05:45Z</time>
      </trkpt>
      <trkpt lat="43.17112" lon="0.97968">
        <ele>288.4</ele>
        <time>2024-09-15T11:05:46Z</time>
      </trkpt>
      <trkpt lat="43.17107" lon="0.97962">
        <ele>287.8</ele>
        <time>2024-09-15T11:05:47Z</time>
      </trkpt>
      <trkpt lat="43.17101" lon="0.97956">
        <ele>287.2</ele>
        <time>2024-09-15T11:05:48Z</time>
      </trkpt>
      <trkpt lat="43.17095" lon="0.97951">
        <ele>286.6</ele>
        <time>2024-09-15T11:05:49Z</time>
      </trkpt>
      <trkpt lat="43.1709" lon="0.97945">
        <ele>286.6</ele>
        <time>2024-09-15T11:05:50Z</time>
      </trkpt>
      <trkpt lat="43.17067" lon="0.97919">
        <ele>286.6</ele>
        <time>2024-09-15T11:05:55Z</time>
      </trkpt>
      <trkpt lat="43.17045" lon="0.97893">
        <ele>286.6</ele>
        <time>2024-09-15T11:06:00Z</time>
      </trkpt>
      <trkpt lat="43.17021" lon="0.97866">
        <ele>286.6</ele>
        <time>2024-09-15T11:06:05Z</time>
      </trkpt>
      <trkpt lat="43.17016" lon="0.9786">
        <ele>286.2</ele>
        <time>2024-09-15T11:06:06Z</time>
      </trkpt>
      <trkpt lat="43.17011" lon="0.97854">
        <ele>285.8</ele>
        <time>2024-09-15T11:06:07Z</time>
      </trkpt>
      <trkpt lat="43.17006" lon="0.97848">
        <ele>285.2</ele>
        <time>2024-09-15T11:06:08Z</time>
      </trkpt>
      <trkpt lat="43.17001" lon="0.97842">
        <ele>284.8</ele>
        <time>2024-09-15T11:06:09Z</time>
      </trkpt>
      <trkpt lat="43.16995" lon="0.97836">
        <ele>284.4</ele>
        <time>2024-09-15T11:06:10Z</time>
      </trkpt>
      <trkpt lat="43.1699" lon="0.97829">
        <ele>284.4</ele>
        <time>2024-09-15T11:06:11Z</time>
      </trkpt>
      <trkpt lat="43.16984" lon="0.97823">
        <ele>284</ele>
        <time>2024-09-15T11:06:12Z</time>
      </trkpt>
      <trkpt lat="43.16978" lon="0.97817">
        <ele>283.6</ele>
        <time>2024-09-15T11:06:13Z</time>
      </trkpt>
      <trkpt lat="43.16973" lon="0.97811">
        <ele>283</ele>
        <time>2024-09-15T11:06:14Z</time>
      </trkpt>
      <trkpt lat="43.16969" lon="0.97803">
        <ele>282.6</ele>
        <time>2024-09-15T11:06:15Z</time>
      </trkpt>
      <trkpt lat="43.16964" lon="0.97794">
        <ele>282.2</ele>
        <time>2024-09-15T11:06:16Z</time>
      </trkpt>
      <trkpt lat="43.1696" lon="0.97785">
        <ele>281.8</ele>
        <time>2024-09-15T11:06:17Z</time>
      </trkpt>
      <trkpt lat="43.16957" lon="0.97776">
        <ele>281.4</ele>
        <time>2024-09-15T11:06:18Z</time>
      </trkpt>
      <trkpt lat="43.16953" lon="0.97768">
        <ele>280.8</ele>
        <time>2024-09-15T11:06:19Z</time>
      </trkpt>
      <trkpt lat="43.16949" lon="0.97759">
        <ele>280.4</ele>
        <time>2024-09-15T11:06:20Z</time>
      </trkpt>
      <trkpt lat="43.16945" lon="0.9775">
        <ele>280</ele>
        <time>2024-09-15T11:06:21Z</time>
      </trkpt>
      <trkpt lat="43.16941" lon="0.97741">
        <ele>280</ele>
        <time>2024-09-15T11:06:22Z</time>
      </trkpt>
      <trkpt lat="43.16915" lon="0.97681">
        <ele>280</ele>
        <time>2024-09-15T11:06:29Z</time>
      </trkpt>
      <trkpt lat="43.169" lon="0.97653">
        <ele>280</ele>
        <time>2024-09-15T11:06:33Z</time>
      </trkpt>
      <trkpt lat="43.16892" lon="0.97639">
        <ele>280</ele>
        <time>2024-09-15T11:06:35Z</time>
      </trkpt>
      <trkpt lat="43.16869" lon="0.976">
        <ele>280</ele>
        <time>2024-09-15T11:06:41Z</time>
      </trkpt>
      <trkpt lat="43.16865" lon="0.97594">
        <ele>280</ele>
        <time>2024-09-15T11:06:42Z</time>
      </trkpt>
      <trkpt lat="43.16833" lon="0.97547">
        <ele>280</ele>
        <time>2024-09-15T11:06:50Z</time>
      </trkpt>
      <trkpt lat="43.16794" lon="0.97492">
        <ele>280</ele>
        <time>2024-09-15T11:07:00Z</time>
      </trkpt>
      <trkpt lat="43.16782" lon="0.9747">
        <ele>280</ele>
        <time>2024-09-15T11:07:05Z</time>
      </trkpt>
      <trkpt lat="43.16774" lon="0.97456">
        <ele>280</ele>
        <time>2024-09-15T11:07:11Z</time>
      </trkpt>
      <trkpt lat="43.16772" lon="0.97452">
        <ele>280</ele>
        <time>2024-09-15T11:07:18Z</time>
      </trkpt>
      <trkpt lat="43.16766" lon="0.97445">
        <ele>280</ele>
        <time>2024-09-15T11:07:20Z</time>
      </trkpt>
      <trkpt lat="43.16763" lon="0.9744">
        <ele>280</ele>
        <time>2024-09-15T11:07:21Z</time>
      </trkpt>
      <trkpt lat="43.16757" lon="0.9742">
        <ele>280</ele>
        <time>2024-09-15T11:07:24Z</time>
      </trkpt>
      <trkpt lat="43.16742" lon="0.974">
        <ele>280</ele>
        <time>2024-09-15T11:07:28Z</time>
      </trkpt>
      <trkpt lat="43.16727" lon="0.97377">
        <ele>279.6</ele>
        <time>2024-09-15T11:07:32Z</time>
      </trkpt>
      <trkpt lat="43.16723" lon="0.9737">
        <ele>279.2</ele>
        <time>2024-09-15T11:07:33Z</time>
      </trkpt>
      <trkpt lat="43.16719" lon="0.97364">
        <ele>278.8</ele>
        <time>2024-09-15T11:07:34Z</time>
      </trkpt>
      <trkpt lat="43.16714" lon="0.97358">
        <ele>278.4</ele>
        <time>2024-09-15T11:07:35Z</time>
      </trkpt>
      <trkpt lat="43.1671" lon="0.97353">
        <ele>278</ele>
        <time>2024-09-15T11:07:36Z</time>
      </trkpt>
      <trkpt lat="43.16695" lon="0.97339">
        <ele>278</ele>
        <time>2024-09-15T11:07:39Z</time>
      </trkpt>
      <trkpt lat="43.16667" lon="0.97324">
        <ele>278</ele>
        <time>2024-09-15T11:07:44Z</time>
      </trkpt>
      <trkpt lat="43.16654" lon="0.9732">
        <ele>277.6</ele>
        <time>2024-09-15T11:07:46Z</time>
      </trkpt>
      <trkpt lat="43.16648" lon="0.97318">
        <ele>277.2</ele>
        <time>2024-09-15T11:07:47Z</time>
      </trkpt>
      <trkpt lat="43.16642" lon="0.97317">
        <ele>276.8</ele>
        <time>2024-09-15T11:07:48Z</time>
      </trkpt>
      <trkpt lat="43.16636" lon="0.97316">
        <ele>275.8</ele>
        <time>2024-09-15T11:07:49Z</time>
      </trkpt>
      <trkpt lat="43.1663" lon="0.97315">
        <ele>275.8</ele>
        <time>2024-09-15T11:07:50Z</time>
      </trkpt>
      <trkpt lat="43.16624" lon="0.97315">
        <ele>275.8</ele>
        <time>2024-09-15T11:07:51Z</time>
      </trkpt>
      <trkpt lat="43.16602" lon="0.97316">
        <ele>275.8</ele>
        <time>2024-09-15T11:07:55Z</time>
      </trkpt>
      <trkpt lat="43.1658" lon="0.97315">
        <ele>275.4</ele>
        <time>2024-09-15T11:07:59Z</time>
      </trkpt>
      <trkpt lat="43.16575" lon="0.97314">
        <ele>275</ele>
        <time>2024-09-15T11:08:00Z</time>
      </trkpt>
      <trkpt lat="43.1657" lon="0.97313">
        <ele>274.6</ele>
        <time>2024-09-15T11:08:01Z</time>
      </trkpt>
      <trkpt lat="43.16565" lon="0.97313">
        <ele>274.2</ele>
        <time>2024-09-15T11:08:02Z</time>
      </trkpt>
      <trkpt lat="43.16561" lon="0.97313">
        <ele>273.8</ele>
        <time>2024-09-15T11:08:03Z</time>
      </trkpt>
      <trkpt lat="43.16544" lon="0.97312">
        <ele>273.8</ele>
        <time>2024-09-15T11:08:06Z</time>
      </trkpt>
      <trkpt lat="43.16539" lon="0.97313">
        <ele>273.8</ele>
        <time>2024-09-15T11:08:07Z</time>
      </trkpt>
      <trkpt lat="43.16517" lon="0.97321">
        <ele>273.8</ele>
        <time>2024-09-15T11:08:11Z</time>
      </trkpt>
      <trkpt lat="43.16512" lon="0.97324">
        <ele>273.8</ele>
        <time>2024-09-15T11:08:12Z</time>
      </trkpt>
      <trkpt lat="43.16488" lon="0.9734">
        <ele>273.8</ele>
        <time>2024-09-15T11:08:17Z</time>
      </trkpt>
      <trkpt lat="43.16464" lon="0.97358">
        <ele>273.8</ele>
        <time>2024-09-15T11:08:23Z</time>
      </trkpt>
      <trkpt lat="43.16456" lon="0.97363">
        <ele>273.8</ele>
        <time>2024-09-15T11:08:25Z</time>
      </trkpt>
      <trkpt lat="43.16446" lon="0.97362">
        <ele>273.8</ele>
        <time>2024-09-15T11:08:28Z</time>
      </trkpt>
      <trkpt lat="43.16445" lon="0.97361">
        <ele>273.8</ele>
        <time>2024-09-15T11:08:30Z</time>
        <extensions>
          <visugpx:TrkExtension xmlns:visugpx="https://www.visugpx.com/editgpx/">
            <visugpx:node>3</visugpx:node>
            </visugpx:TrkExtension>
        </extensions>
      </trkpt>
    </trkseg>
  </trk>
</gpx>